<?xml version="1.0" encoding="UTF-8" standalone="no" ?>
<gpx xmlns="http://www.topografix.com/GPX/1/1" xmlns:xsi="http://www.w3.org/2001/XMLSchema-instance" xsi:schemaLocation="http://www.topografix.com/GPX/1/1 http://www.topografix.com/GPX/1/1/gpx.xsd" version="1.1" creator="VisuGPX - https://www.visugpx.com">
  <metadata>
    <name>Crémieu-VloRte_Gravel_120Cool</name>
  </metadata>
  <trk>
    <name><![CDATA[Crémieu-VloRte_Gravel_115kmCool]]></name>
    <desc><![CDATA[]]></desc>
    <trkseg>
      <trkpt lat="45.71556" lon="5.23624">
        <ele>234</ele>
      </trkpt>
      <trkpt lat="45.71573" lon="5.23632">
        <ele>234</ele>
      </trkpt>
      <trkpt lat="45.71578" lon="5.23637">
        <ele>234</ele>
      </trkpt>
      <trkpt lat="45.71584" lon="5.23643">
        <ele>233.8</ele>
      </trkpt>
      <trkpt lat="45.71595" lon="5.23657">
        <ele>232.9</ele>
      </trkpt>
      <trkpt lat="45.71604" lon="5.23667">
        <ele>232.2</ele>
      </trkpt>
      <trkpt lat="45.71607" lon="5.23671">
        <ele>232</ele>
      </trkpt>
      <trkpt lat="45.71624" lon="5.23693">
        <ele>231</ele>
      </trkpt>
      <trkpt lat="45.71635" lon="5.23709">
        <ele>230.5</ele>
      </trkpt>
      <trkpt lat="45.71638" lon="5.23716">
        <ele>230.2</ele>
      </trkpt>
      <trkpt lat="45.71639" lon="5.23725">
        <ele>229.7</ele>
      </trkpt>
      <trkpt lat="45.71638" lon="5.23741">
        <ele>228</ele>
      </trkpt>
      <trkpt lat="45.71625" lon="5.23779">
        <ele>226.9</ele>
      </trkpt>
      <trkpt lat="45.71621" lon="5.23795">
        <ele>225.8</ele>
      </trkpt>
      <trkpt lat="45.71621" lon="5.2381">
        <ele>224.5</ele>
      </trkpt>
      <trkpt lat="45.71631" lon="5.23851">
        <ele>221.6</ele>
      </trkpt>
      <trkpt lat="45.71633" lon="5.23884">
        <ele>218</ele>
      </trkpt>
      <trkpt lat="45.71632" lon="5.23906">
        <ele>215.7</ele>
      </trkpt>
      <trkpt lat="45.71635" lon="5.23922">
        <ele>214.4</ele>
      </trkpt>
      <trkpt lat="45.71645" lon="5.23941">
        <ele>213</ele>
      </trkpt>
      <trkpt lat="45.71663" lon="5.2397">
        <ele>212.9</ele>
      </trkpt>
      <trkpt lat="45.71762" lon="5.24138">
        <ele>211.6</ele>
      </trkpt>
      <trkpt lat="45.71766" lon="5.24146">
        <ele>211.6</ele>
      </trkpt>
      <trkpt lat="45.71856" lon="5.24299">
        <ele>212</ele>
      </trkpt>
      <trkpt lat="45.71862" lon="5.24315">
        <ele>212</ele>
      </trkpt>
      <trkpt lat="45.71863" lon="5.24325">
        <ele>212</ele>
      </trkpt>
      <trkpt lat="45.71859" lon="5.24329">
        <ele>212</ele>
      </trkpt>
      <trkpt lat="45.71856" lon="5.24341">
        <ele>212</ele>
      </trkpt>
      <trkpt lat="45.71859" lon="5.24349">
        <ele>212</ele>
      </trkpt>
      <trkpt lat="45.71866" lon="5.24354">
        <ele>212</ele>
      </trkpt>
      <trkpt lat="45.71871" lon="5.24354">
        <ele>212</ele>
      </trkpt>
      <trkpt lat="45.71884" lon="5.24354">
        <ele>212</ele>
      </trkpt>
      <trkpt lat="45.71892" lon="5.2435">
        <ele>212</ele>
      </trkpt>
      <trkpt lat="45.71908" lon="5.24356">
        <ele>212</ele>
      </trkpt>
      <trkpt lat="45.71912" lon="5.24361">
        <ele>212</ele>
      </trkpt>
      <trkpt lat="45.71921" lon="5.24369">
        <ele>212</ele>
      </trkpt>
      <trkpt lat="45.71939" lon="5.2441">
        <ele>212.6</ele>
      </trkpt>
      <trkpt lat="45.71988" lon="5.24496">
        <ele>213</ele>
      </trkpt>
      <trkpt lat="45.72033" lon="5.24587">
        <ele>214</ele>
      </trkpt>
      <trkpt lat="45.72069" lon="5.24651">
        <ele>214.4</ele>
      </trkpt>
      <trkpt lat="45.7211" lon="5.24722">
        <ele>215</ele>
      </trkpt>
      <trkpt lat="45.72128" lon="5.24756">
        <ele>215.3</ele>
      </trkpt>
      <trkpt lat="45.72142" lon="5.24767">
        <ele>215.7</ele>
      </trkpt>
      <trkpt lat="45.72151" lon="5.24774">
        <ele>215.9</ele>
      </trkpt>
      <trkpt lat="45.72165" lon="5.24783">
        <ele>216</ele>
      </trkpt>
      <trkpt lat="45.72164" lon="5.24788">
        <ele>216</ele>
        <extensions>
          <visugpx:TrkExtension xmlns:visugpx="https://www.visugpx.com/editgpx/">
            <visugpx:node>1</visugpx:node>
            </visugpx:TrkExtension>
        </extensions>
      </trkpt>
      <trkpt lat="45.72174" lon="5.24789">
        <ele>235.2</ele>
        <time>2024-09-19T13:21:35Z</time>
      </trkpt>
      <trkpt lat="45.72177" lon="5.24789">
        <ele>234.8</ele>
        <time>2024-09-19T13:21:36Z</time>
      </trkpt>
      <trkpt lat="45.7218" lon="5.24791">
        <ele>234.8</ele>
        <time>2024-09-19T13:21:37Z</time>
      </trkpt>
      <trkpt lat="45.72183" lon="5.24793">
        <ele>234.8</ele>
        <time>2024-09-19T13:21:38Z</time>
      </trkpt>
      <trkpt lat="45.72187" lon="5.24795">
        <ele>234.8</ele>
        <time>2024-09-19T13:21:39Z</time>
      </trkpt>
      <trkpt lat="45.7219" lon="5.24798">
        <ele>234.4</ele>
        <time>2024-09-19T13:21:40Z</time>
      </trkpt>
      <trkpt lat="45.72194" lon="5.24802">
        <ele>234.4</ele>
        <time>2024-09-19T13:21:41Z</time>
      </trkpt>
      <trkpt lat="45.72198" lon="5.24804">
        <ele>234.6</ele>
        <time>2024-09-19T13:21:42Z</time>
      </trkpt>
      <trkpt lat="45.72203" lon="5.24807">
        <ele>234.4</ele>
        <time>2024-09-19T13:21:43Z</time>
      </trkpt>
      <trkpt lat="45.72206" lon="5.2481">
        <ele>234.8</ele>
        <time>2024-09-19T13:21:44Z</time>
      </trkpt>
      <trkpt lat="45.72211" lon="5.24814">
        <ele>234.8</ele>
        <time>2024-09-19T13:21:45Z</time>
      </trkpt>
      <trkpt lat="45.72213" lon="5.24818">
        <ele>234.8</ele>
        <time>2024-09-19T13:21:46Z</time>
      </trkpt>
      <trkpt lat="45.72218" lon="5.2482">
        <ele>234.4</ele>
        <time>2024-09-19T13:21:47Z</time>
      </trkpt>
      <trkpt lat="45.72223" lon="5.24823">
        <ele>234.4</ele>
        <time>2024-09-19T13:21:48Z</time>
      </trkpt>
      <trkpt lat="45.72228" lon="5.24826">
        <ele>234</ele>
        <time>2024-09-19T13:21:49Z</time>
      </trkpt>
      <trkpt lat="45.72233" lon="5.24828">
        <ele>234</ele>
        <time>2024-09-19T13:21:50Z</time>
      </trkpt>
      <trkpt lat="45.7224" lon="5.24829">
        <ele>233.6</ele>
        <time>2024-09-19T13:21:51Z</time>
      </trkpt>
      <trkpt lat="45.72245" lon="5.24831">
        <ele>233.6</ele>
        <time>2024-09-19T13:21:52Z</time>
      </trkpt>
      <trkpt lat="45.7225" lon="5.24833">
        <ele>233.2</ele>
        <time>2024-09-19T13:21:53Z</time>
      </trkpt>
      <trkpt lat="45.72255" lon="5.24835">
        <ele>233.6</ele>
        <time>2024-09-19T13:21:54Z</time>
      </trkpt>
      <trkpt lat="45.7226" lon="5.24837">
        <ele>233.6</ele>
        <time>2024-09-19T13:21:55Z</time>
      </trkpt>
      <trkpt lat="45.72266" lon="5.24839">
        <ele>233.6</ele>
        <time>2024-09-19T13:21:56Z</time>
      </trkpt>
      <trkpt lat="45.72271" lon="5.2484">
        <ele>233</ele>
        <time>2024-09-19T13:21:57Z</time>
      </trkpt>
      <trkpt lat="45.72275" lon="5.24844">
        <ele>233</ele>
        <time>2024-09-19T13:21:58Z</time>
      </trkpt>
      <trkpt lat="45.72279" lon="5.24846">
        <ele>233</ele>
        <time>2024-09-19T13:21:59Z</time>
      </trkpt>
      <trkpt lat="45.72286" lon="5.24848">
        <ele>233</ele>
        <time>2024-09-19T13:22:00Z</time>
      </trkpt>
      <trkpt lat="45.72293" lon="5.24849">
        <ele>232.8</ele>
        <time>2024-09-19T13:22:01Z</time>
      </trkpt>
      <trkpt lat="45.72299" lon="5.24852">
        <ele>232.8</ele>
        <time>2024-09-19T13:22:02Z</time>
      </trkpt>
      <trkpt lat="45.72304" lon="5.24854">
        <ele>232.8</ele>
        <time>2024-09-19T13:22:03Z</time>
      </trkpt>
      <trkpt lat="45.7231" lon="5.24855">
        <ele>233.2</ele>
        <time>2024-09-19T13:22:04Z</time>
      </trkpt>
      <trkpt lat="45.72316" lon="5.24857">
        <ele>233.2</ele>
        <time>2024-09-19T13:22:05Z</time>
      </trkpt>
      <trkpt lat="45.72321" lon="5.24859">
        <ele>233.2</ele>
        <time>2024-09-19T13:22:06Z</time>
      </trkpt>
      <trkpt lat="45.72327" lon="5.24861">
        <ele>233.4</ele>
        <time>2024-09-19T13:22:07Z</time>
      </trkpt>
      <trkpt lat="45.72332" lon="5.24864">
        <ele>233.4</ele>
        <time>2024-09-19T13:22:08Z</time>
      </trkpt>
      <trkpt lat="45.72337" lon="5.24867">
        <ele>233.4</ele>
        <time>2024-09-19T13:22:09Z</time>
      </trkpt>
      <trkpt lat="45.72342" lon="5.2487">
        <ele>233.4</ele>
        <time>2024-09-19T13:22:10Z</time>
      </trkpt>
      <trkpt lat="45.72347" lon="5.24872">
        <ele>233.4</ele>
        <time>2024-09-19T13:22:11Z</time>
      </trkpt>
      <trkpt lat="45.72352" lon="5.24873">
        <ele>233.4</ele>
        <time>2024-09-19T13:22:12Z</time>
      </trkpt>
      <trkpt lat="45.72357" lon="5.24875">
        <ele>233.4</ele>
        <time>2024-09-19T13:22:13Z</time>
      </trkpt>
      <trkpt lat="45.72362" lon="5.24877">
        <ele>233.8</ele>
        <time>2024-09-19T13:22:14Z</time>
      </trkpt>
      <trkpt lat="45.72368" lon="5.24879">
        <ele>234</ele>
        <time>2024-09-19T13:22:15Z</time>
      </trkpt>
      <trkpt lat="45.72373" lon="5.24882">
        <ele>234</ele>
        <time>2024-09-19T13:22:16Z</time>
      </trkpt>
      <trkpt lat="45.72378" lon="5.24884">
        <ele>234</ele>
        <time>2024-09-19T13:22:17Z</time>
      </trkpt>
      <trkpt lat="45.72383" lon="5.24885">
        <ele>234.4</ele>
        <time>2024-09-19T13:22:18Z</time>
      </trkpt>
      <trkpt lat="45.72387" lon="5.24888">
        <ele>234.4</ele>
        <time>2024-09-19T13:22:19Z</time>
      </trkpt>
      <trkpt lat="45.72392" lon="5.24891">
        <ele>234.6</ele>
        <time>2024-09-19T13:22:20Z</time>
      </trkpt>
      <trkpt lat="45.72396" lon="5.24893">
        <ele>234.6</ele>
        <time>2024-09-19T13:22:21Z</time>
      </trkpt>
      <trkpt lat="45.72401" lon="5.24895">
        <ele>234.6</ele>
        <time>2024-09-19T13:22:22Z</time>
      </trkpt>
      <trkpt lat="45.72405" lon="5.24895">
        <ele>234.6</ele>
        <time>2024-09-19T13:22:23Z</time>
      </trkpt>
      <trkpt lat="45.72405" lon="5.24895">
        <ele>234.6</ele>
        <time>2024-09-19T13:22:24Z</time>
      </trkpt>
      <trkpt lat="45.72405" lon="5.24895">
        <ele>234.6</ele>
        <time>2024-09-19T13:22:25Z</time>
      </trkpt>
      <trkpt lat="45.72421" lon="5.249">
        <ele>234.6</ele>
        <time>2024-09-19T13:22:27Z</time>
      </trkpt>
      <trkpt lat="45.72423" lon="5.249">
        <ele>234.6</ele>
        <time>2024-09-19T13:22:28Z</time>
      </trkpt>
      <trkpt lat="45.72424" lon="5.24902">
        <ele>234.6</ele>
        <time>2024-09-19T13:22:29Z</time>
      </trkpt>
      <trkpt lat="45.72427" lon="5.24903">
        <ele>234.8</ele>
        <time>2024-09-19T13:22:30Z</time>
      </trkpt>
      <trkpt lat="45.72428" lon="5.24905">
        <ele>234.8</ele>
        <time>2024-09-19T13:22:31Z</time>
      </trkpt>
      <trkpt lat="45.72429" lon="5.24904">
        <ele>234.8</ele>
        <time>2024-09-19T13:22:32Z</time>
      </trkpt>
      <trkpt lat="45.72431" lon="5.24905">
        <ele>234.8</ele>
        <time>2024-09-19T13:22:33Z</time>
      </trkpt>
      <trkpt lat="45.72431" lon="5.24905">
        <ele>235</ele>
        <time>2024-09-19T13:22:34Z</time>
      </trkpt>
      <trkpt lat="45.72433" lon="5.24905">
        <ele>235</ele>
        <time>2024-09-19T13:22:35Z</time>
      </trkpt>
      <trkpt lat="45.72434" lon="5.24905">
        <ele>235.2</ele>
        <time>2024-09-19T13:22:36Z</time>
      </trkpt>
      <trkpt lat="45.72434" lon="5.24905">
        <ele>235.2</ele>
        <time>2024-09-19T13:22:37Z</time>
      </trkpt>
      <trkpt lat="45.72433" lon="5.24905">
        <ele>235.2</ele>
        <time>2024-09-19T13:22:38Z</time>
      </trkpt>
      <trkpt lat="45.72433" lon="5.24904">
        <ele>235.2</ele>
        <time>2024-09-19T13:22:39Z</time>
      </trkpt>
      <trkpt lat="45.72436" lon="5.24902">
        <ele>234.8</ele>
        <time>2024-09-19T13:22:55Z</time>
      </trkpt>
      <trkpt lat="45.72437" lon="5.24902">
        <ele>235</ele>
        <time>2024-09-19T13:22:56Z</time>
      </trkpt>
      <trkpt lat="45.72437" lon="5.24902">
        <ele>235</ele>
        <time>2024-09-19T13:22:57Z</time>
      </trkpt>
      <trkpt lat="45.72447" lon="5.24898">
        <ele>234.8</ele>
        <time>2024-09-19T13:23:03Z</time>
      </trkpt>
      <trkpt lat="45.72449" lon="5.24894">
        <ele>234.8</ele>
        <time>2024-09-19T13:23:04Z</time>
      </trkpt>
      <trkpt lat="45.7245" lon="5.2489">
        <ele>234.4</ele>
        <time>2024-09-19T13:23:05Z</time>
      </trkpt>
      <trkpt lat="45.72451" lon="5.24885">
        <ele>233.8</ele>
        <time>2024-09-19T13:23:06Z</time>
      </trkpt>
      <trkpt lat="45.72453" lon="5.2488">
        <ele>234.2</ele>
        <time>2024-09-19T13:23:07Z</time>
      </trkpt>
      <trkpt lat="45.72454" lon="5.24875">
        <ele>234.2</ele>
        <time>2024-09-19T13:23:08Z</time>
      </trkpt>
      <trkpt lat="45.72456" lon="5.2487">
        <ele>234.2</ele>
        <time>2024-09-19T13:23:09Z</time>
      </trkpt>
      <trkpt lat="45.72457" lon="5.24865">
        <ele>234.2</ele>
        <time>2024-09-19T13:23:10Z</time>
      </trkpt>
      <trkpt lat="45.72458" lon="5.24862">
        <ele>234.4</ele>
        <time>2024-09-19T13:23:11Z</time>
      </trkpt>
      <trkpt lat="45.72459" lon="5.24858">
        <ele>234.4</ele>
        <time>2024-09-19T13:23:12Z</time>
      </trkpt>
      <trkpt lat="45.72461" lon="5.24855">
        <ele>234.4</ele>
        <time>2024-09-19T13:23:13Z</time>
      </trkpt>
      <trkpt lat="45.72463" lon="5.24851">
        <ele>234.4</ele>
        <time>2024-09-19T13:23:14Z</time>
      </trkpt>
      <trkpt lat="45.72466" lon="5.24848">
        <ele>234.4</ele>
        <time>2024-09-19T13:23:15Z</time>
      </trkpt>
      <trkpt lat="45.7247" lon="5.24847">
        <ele>234.4</ele>
        <time>2024-09-19T13:23:16Z</time>
      </trkpt>
      <trkpt lat="45.72474" lon="5.24846">
        <ele>234.4</ele>
        <time>2024-09-19T13:23:17Z</time>
      </trkpt>
      <trkpt lat="45.72479" lon="5.24848">
        <ele>234.4</ele>
        <time>2024-09-19T13:23:18Z</time>
      </trkpt>
      <trkpt lat="45.72483" lon="5.24848">
        <ele>234.4</ele>
        <time>2024-09-19T13:23:19Z</time>
      </trkpt>
      <trkpt lat="45.72488" lon="5.24847">
        <ele>234.4</ele>
        <time>2024-09-19T13:23:20Z</time>
      </trkpt>
      <trkpt lat="45.72492" lon="5.24846">
        <ele>234.4</ele>
        <time>2024-09-19T13:23:21Z</time>
      </trkpt>
      <trkpt lat="45.72496" lon="5.24844">
        <ele>234.4</ele>
        <time>2024-09-19T13:23:22Z</time>
      </trkpt>
      <trkpt lat="45.72501" lon="5.24842">
        <ele>234.4</ele>
        <time>2024-09-19T13:23:23Z</time>
      </trkpt>
      <trkpt lat="45.72505" lon="5.24842">
        <ele>234.2</ele>
        <time>2024-09-19T13:23:24Z</time>
      </trkpt>
      <trkpt lat="45.72509" lon="5.24842">
        <ele>234.2</ele>
        <time>2024-09-19T13:23:25Z</time>
      </trkpt>
      <trkpt lat="45.72512" lon="5.24839">
        <ele>234.2</ele>
        <time>2024-09-19T13:23:26Z</time>
      </trkpt>
      <trkpt lat="45.72515" lon="5.24838">
        <ele>234</ele>
        <time>2024-09-19T13:23:27Z</time>
      </trkpt>
      <trkpt lat="45.72519" lon="5.24836">
        <ele>234</ele>
        <time>2024-09-19T13:23:28Z</time>
      </trkpt>
      <trkpt lat="45.72522" lon="5.24834">
        <ele>234</ele>
        <time>2024-09-19T13:23:29Z</time>
      </trkpt>
      <trkpt lat="45.72526" lon="5.24833">
        <ele>234</ele>
        <time>2024-09-19T13:23:30Z</time>
      </trkpt>
      <trkpt lat="45.7253" lon="5.24832">
        <ele>234</ele>
        <time>2024-09-19T13:23:31Z</time>
      </trkpt>
      <trkpt lat="45.72533" lon="5.2483">
        <ele>234.2</ele>
        <time>2024-09-19T13:23:32Z</time>
      </trkpt>
      <trkpt lat="45.72537" lon="5.24827">
        <ele>234.2</ele>
        <time>2024-09-19T13:23:33Z</time>
      </trkpt>
      <trkpt lat="45.72541" lon="5.24825">
        <ele>234</ele>
        <time>2024-09-19T13:23:34Z</time>
      </trkpt>
      <trkpt lat="45.72545" lon="5.24823">
        <ele>234</ele>
        <time>2024-09-19T13:23:35Z</time>
      </trkpt>
      <trkpt lat="45.72548" lon="5.24821">
        <ele>234</ele>
        <time>2024-09-19T13:23:36Z</time>
      </trkpt>
      <trkpt lat="45.72552" lon="5.24818">
        <ele>234</ele>
        <time>2024-09-19T13:23:37Z</time>
      </trkpt>
      <trkpt lat="45.72555" lon="5.24814">
        <ele>234</ele>
        <time>2024-09-19T13:23:38Z</time>
      </trkpt>
      <trkpt lat="45.72558" lon="5.24811">
        <ele>234</ele>
        <time>2024-09-19T13:23:39Z</time>
      </trkpt>
      <trkpt lat="45.72561" lon="5.24808">
        <ele>234.2</ele>
        <time>2024-09-19T13:23:40Z</time>
      </trkpt>
      <trkpt lat="45.72564" lon="5.24805">
        <ele>233.8</ele>
        <time>2024-09-19T13:23:41Z</time>
      </trkpt>
      <trkpt lat="45.72568" lon="5.24802">
        <ele>233.8</ele>
        <time>2024-09-19T13:23:42Z</time>
      </trkpt>
      <trkpt lat="45.72572" lon="5.248">
        <ele>233.8</ele>
        <time>2024-09-19T13:23:43Z</time>
      </trkpt>
      <trkpt lat="45.72576" lon="5.24798">
        <ele>234</ele>
        <time>2024-09-19T13:23:44Z</time>
      </trkpt>
      <trkpt lat="45.7258" lon="5.24796">
        <ele>234</ele>
        <time>2024-09-19T13:23:45Z</time>
      </trkpt>
      <trkpt lat="45.72584" lon="5.24794">
        <ele>234</ele>
        <time>2024-09-19T13:23:46Z</time>
      </trkpt>
      <trkpt lat="45.72589" lon="5.24793">
        <ele>234.4</ele>
        <time>2024-09-19T13:23:47Z</time>
      </trkpt>
      <trkpt lat="45.72593" lon="5.24791">
        <ele>234.4</ele>
        <time>2024-09-19T13:23:48Z</time>
      </trkpt>
      <trkpt lat="45.72598" lon="5.24792">
        <ele>234</ele>
        <time>2024-09-19T13:23:49Z</time>
      </trkpt>
      <trkpt lat="45.72603" lon="5.24792">
        <ele>234.2</ele>
        <time>2024-09-19T13:23:50Z</time>
      </trkpt>
      <trkpt lat="45.72607" lon="5.24792">
        <ele>234.6</ele>
        <time>2024-09-19T13:23:51Z</time>
      </trkpt>
      <trkpt lat="45.72611" lon="5.24793">
        <ele>235</ele>
        <time>2024-09-19T13:23:52Z</time>
      </trkpt>
      <trkpt lat="45.72614" lon="5.24793">
        <ele>235</ele>
        <time>2024-09-19T13:23:53Z</time>
      </trkpt>
      <trkpt lat="45.72618" lon="5.24794">
        <ele>235</ele>
        <time>2024-09-19T13:23:54Z</time>
      </trkpt>
      <trkpt lat="45.72622" lon="5.24796">
        <ele>235</ele>
        <time>2024-09-19T13:23:55Z</time>
      </trkpt>
      <trkpt lat="45.72625" lon="5.24797">
        <ele>235.2</ele>
        <time>2024-09-19T13:23:56Z</time>
      </trkpt>
      <trkpt lat="45.72629" lon="5.24798">
        <ele>235.6</ele>
        <time>2024-09-19T13:23:57Z</time>
      </trkpt>
      <trkpt lat="45.72632" lon="5.24799">
        <ele>236</ele>
        <time>2024-09-19T13:23:58Z</time>
      </trkpt>
      <trkpt lat="45.72636" lon="5.24801">
        <ele>236.4</ele>
        <time>2024-09-19T13:23:59Z</time>
      </trkpt>
      <trkpt lat="45.72639" lon="5.24801">
        <ele>236.4</ele>
        <time>2024-09-19T13:24:00Z</time>
      </trkpt>
      <trkpt lat="45.72642" lon="5.24802">
        <ele>236.8</ele>
        <time>2024-09-19T13:24:01Z</time>
      </trkpt>
      <trkpt lat="45.72646" lon="5.24803">
        <ele>236.8</ele>
        <time>2024-09-19T13:24:02Z</time>
      </trkpt>
      <trkpt lat="45.72649" lon="5.24804">
        <ele>236.8</ele>
        <time>2024-09-19T13:24:03Z</time>
      </trkpt>
      <trkpt lat="45.72652" lon="5.24804">
        <ele>237.2</ele>
        <time>2024-09-19T13:24:04Z</time>
      </trkpt>
      <trkpt lat="45.72655" lon="5.24804">
        <ele>237.4</ele>
        <time>2024-09-19T13:24:05Z</time>
      </trkpt>
      <trkpt lat="45.72658" lon="5.24804">
        <ele>237.6</ele>
        <time>2024-09-19T13:24:06Z</time>
      </trkpt>
      <trkpt lat="45.72661" lon="5.24805">
        <ele>237.6</ele>
        <time>2024-09-19T13:24:07Z</time>
      </trkpt>
      <trkpt lat="45.72663" lon="5.24805">
        <ele>237.8</ele>
        <time>2024-09-19T13:24:08Z</time>
      </trkpt>
      <trkpt lat="45.72665" lon="5.24806">
        <ele>238.2</ele>
        <time>2024-09-19T13:24:09Z</time>
      </trkpt>
      <trkpt lat="45.72668" lon="5.24806">
        <ele>238.6</ele>
        <time>2024-09-19T13:24:10Z</time>
      </trkpt>
      <trkpt lat="45.72671" lon="5.24807">
        <ele>238.6</ele>
        <time>2024-09-19T13:24:11Z</time>
      </trkpt>
      <trkpt lat="45.72673" lon="5.24809">
        <ele>238.8</ele>
        <time>2024-09-19T13:24:12Z</time>
      </trkpt>
      <trkpt lat="45.72675" lon="5.24811">
        <ele>238.8</ele>
        <time>2024-09-19T13:24:13Z</time>
      </trkpt>
      <trkpt lat="45.72677" lon="5.24813">
        <ele>239.2</ele>
        <time>2024-09-19T13:24:14Z</time>
      </trkpt>
      <trkpt lat="45.72679" lon="5.24815">
        <ele>239.2</ele>
        <time>2024-09-19T13:24:15Z</time>
      </trkpt>
      <trkpt lat="45.72681" lon="5.24817">
        <ele>239.8</ele>
        <time>2024-09-19T13:24:16Z</time>
      </trkpt>
      <trkpt lat="45.72682" lon="5.24819">
        <ele>239.8</ele>
        <time>2024-09-19T13:24:17Z</time>
      </trkpt>
      <trkpt lat="45.72684" lon="5.24821">
        <ele>240</ele>
        <time>2024-09-19T13:24:18Z</time>
      </trkpt>
      <trkpt lat="45.72686" lon="5.24823">
        <ele>240.4</ele>
        <time>2024-09-19T13:24:19Z</time>
      </trkpt>
      <trkpt lat="45.72689" lon="5.24825">
        <ele>240.4</ele>
        <time>2024-09-19T13:24:20Z</time>
      </trkpt>
      <trkpt lat="45.72691" lon="5.24826">
        <ele>240.8</ele>
        <time>2024-09-19T13:24:21Z</time>
      </trkpt>
      <trkpt lat="45.72693" lon="5.24828">
        <ele>241.2</ele>
        <time>2024-09-19T13:24:22Z</time>
      </trkpt>
      <trkpt lat="45.72694" lon="5.24829">
        <ele>241.6</ele>
        <time>2024-09-19T13:24:23Z</time>
      </trkpt>
      <trkpt lat="45.72696" lon="5.24831">
        <ele>241.6</ele>
        <time>2024-09-19T13:24:24Z</time>
      </trkpt>
      <trkpt lat="45.72697" lon="5.24833">
        <ele>242</ele>
        <time>2024-09-19T13:24:25Z</time>
      </trkpt>
      <trkpt lat="45.72699" lon="5.24834">
        <ele>242</ele>
        <time>2024-09-19T13:24:26Z</time>
      </trkpt>
      <trkpt lat="45.72701" lon="5.24835">
        <ele>242.2</ele>
        <time>2024-09-19T13:24:27Z</time>
      </trkpt>
      <trkpt lat="45.72704" lon="5.24836">
        <ele>242.6</ele>
        <time>2024-09-19T13:24:28Z</time>
      </trkpt>
      <trkpt lat="45.72706" lon="5.24837">
        <ele>242.8</ele>
        <time>2024-09-19T13:24:29Z</time>
      </trkpt>
      <trkpt lat="45.72709" lon="5.24838">
        <ele>242.8</ele>
        <time>2024-09-19T13:24:30Z</time>
      </trkpt>
      <trkpt lat="45.72712" lon="5.24838">
        <ele>242.8</ele>
        <time>2024-09-19T13:24:31Z</time>
      </trkpt>
      <trkpt lat="45.72714" lon="5.24839">
        <ele>243.2</ele>
        <time>2024-09-19T13:24:32Z</time>
      </trkpt>
      <trkpt lat="45.72716" lon="5.2484">
        <ele>243.2</ele>
        <time>2024-09-19T13:24:33Z</time>
      </trkpt>
      <trkpt lat="45.72718" lon="5.24842">
        <ele>243.4</ele>
        <time>2024-09-19T13:24:34Z</time>
      </trkpt>
      <trkpt lat="45.72721" lon="5.24842">
        <ele>243.4</ele>
        <time>2024-09-19T13:24:35Z</time>
      </trkpt>
      <trkpt lat="45.72724" lon="5.24843">
        <ele>243.4</ele>
        <time>2024-09-19T13:24:36Z</time>
      </trkpt>
      <trkpt lat="45.72726" lon="5.24843">
        <ele>243.6</ele>
        <time>2024-09-19T13:24:37Z</time>
      </trkpt>
      <trkpt lat="45.72729" lon="5.24844">
        <ele>243.6</ele>
        <time>2024-09-19T13:24:38Z</time>
      </trkpt>
      <trkpt lat="45.72731" lon="5.24844">
        <ele>243.6</ele>
        <time>2024-09-19T13:24:39Z</time>
      </trkpt>
      <trkpt lat="45.72734" lon="5.24845">
        <ele>244</ele>
        <time>2024-09-19T13:24:40Z</time>
      </trkpt>
      <trkpt lat="45.72736" lon="5.24846">
        <ele>244</ele>
        <time>2024-09-19T13:24:41Z</time>
      </trkpt>
      <trkpt lat="45.72738" lon="5.24847">
        <ele>244</ele>
        <time>2024-09-19T13:24:42Z</time>
      </trkpt>
      <trkpt lat="45.72741" lon="5.24847">
        <ele>244.2</ele>
        <time>2024-09-19T13:24:43Z</time>
      </trkpt>
      <trkpt lat="45.72743" lon="5.24848">
        <ele>244.2</ele>
        <time>2024-09-19T13:24:44Z</time>
      </trkpt>
      <trkpt lat="45.72746" lon="5.24849">
        <ele>244.6</ele>
        <time>2024-09-19T13:24:45Z</time>
      </trkpt>
      <trkpt lat="45.72748" lon="5.2485">
        <ele>244.6</ele>
        <time>2024-09-19T13:24:46Z</time>
      </trkpt>
      <trkpt lat="45.7275" lon="5.24852">
        <ele>244.6</ele>
        <time>2024-09-19T13:24:47Z</time>
      </trkpt>
      <trkpt lat="45.72753" lon="5.24853">
        <ele>245</ele>
        <time>2024-09-19T13:24:48Z</time>
      </trkpt>
      <trkpt lat="45.72755" lon="5.24854">
        <ele>245.2</ele>
        <time>2024-09-19T13:24:49Z</time>
      </trkpt>
      <trkpt lat="45.72758" lon="5.24855">
        <ele>245.2</ele>
        <time>2024-09-19T13:24:50Z</time>
      </trkpt>
      <trkpt lat="45.7276" lon="5.24856">
        <ele>245.2</ele>
        <time>2024-09-19T13:24:51Z</time>
      </trkpt>
      <trkpt lat="45.72762" lon="5.24856">
        <ele>245.6</ele>
        <time>2024-09-19T13:24:52Z</time>
      </trkpt>
      <trkpt lat="45.72764" lon="5.24857">
        <ele>245.6</ele>
        <time>2024-09-19T13:24:53Z</time>
      </trkpt>
      <trkpt lat="45.72766" lon="5.24858">
        <ele>245.8</ele>
        <time>2024-09-19T13:24:54Z</time>
      </trkpt>
      <trkpt lat="45.72768" lon="5.24859">
        <ele>245.8</ele>
        <time>2024-09-19T13:24:55Z</time>
      </trkpt>
      <trkpt lat="45.72769" lon="5.24859">
        <ele>246.2</ele>
        <time>2024-09-19T13:24:56Z</time>
      </trkpt>
      <trkpt lat="45.72771" lon="5.2486">
        <ele>246.4</ele>
        <time>2024-09-19T13:24:57Z</time>
      </trkpt>
      <trkpt lat="45.72773" lon="5.24859">
        <ele>246.4</ele>
        <time>2024-09-19T13:24:58Z</time>
      </trkpt>
      <trkpt lat="45.72776" lon="5.24858">
        <ele>246.8</ele>
        <time>2024-09-19T13:24:59Z</time>
      </trkpt>
      <trkpt lat="45.72777" lon="5.24856">
        <ele>247</ele>
        <time>2024-09-19T13:25:00Z</time>
      </trkpt>
      <trkpt lat="45.72779" lon="5.24853">
        <ele>247.2</ele>
        <time>2024-09-19T13:25:01Z</time>
      </trkpt>
      <trkpt lat="45.72779" lon="5.2485">
        <ele>247.2</ele>
        <time>2024-09-19T13:25:02Z</time>
      </trkpt>
      <trkpt lat="45.7278" lon="5.24846">
        <ele>247.4</ele>
        <time>2024-09-19T13:25:03Z</time>
      </trkpt>
      <trkpt lat="45.7278" lon="5.24843">
        <ele>247.4</ele>
        <time>2024-09-19T13:25:04Z</time>
      </trkpt>
      <trkpt lat="45.7278" lon="5.2484">
        <ele>247.4</ele>
        <time>2024-09-19T13:25:05Z</time>
      </trkpt>
      <trkpt lat="45.72781" lon="5.24837">
        <ele>247.8</ele>
        <time>2024-09-19T13:25:06Z</time>
      </trkpt>
      <trkpt lat="45.72781" lon="5.24834">
        <ele>246.6</ele>
        <time>2024-09-19T13:25:07Z</time>
      </trkpt>
      <trkpt lat="45.72782" lon="5.24831">
        <ele>247.2</ele>
        <time>2024-09-19T13:25:08Z</time>
      </trkpt>
      <trkpt lat="45.72782" lon="5.24828">
        <ele>247.6</ele>
        <time>2024-09-19T13:25:09Z</time>
      </trkpt>
      <trkpt lat="45.72783" lon="5.24826">
        <ele>248</ele>
        <time>2024-09-19T13:25:10Z</time>
      </trkpt>
      <trkpt lat="45.72783" lon="5.24825">
        <ele>248.2</ele>
        <time>2024-09-19T13:25:11Z</time>
      </trkpt>
      <trkpt lat="45.72783" lon="5.24823">
        <ele>248.4</ele>
        <time>2024-09-19T13:25:12Z</time>
      </trkpt>
      <trkpt lat="45.72784" lon="5.24821">
        <ele>248.8</ele>
        <time>2024-09-19T13:25:13Z</time>
      </trkpt>
      <trkpt lat="45.72785" lon="5.24818">
        <ele>249</ele>
        <time>2024-09-19T13:25:14Z</time>
      </trkpt>
      <trkpt lat="45.72787" lon="5.24816">
        <ele>249</ele>
        <time>2024-09-19T13:25:15Z</time>
      </trkpt>
      <trkpt lat="45.72788" lon="5.24814">
        <ele>249.4</ele>
        <time>2024-09-19T13:25:16Z</time>
      </trkpt>
      <trkpt lat="45.7279" lon="5.24813">
        <ele>249.6</ele>
        <time>2024-09-19T13:25:17Z</time>
      </trkpt>
      <trkpt lat="45.72791" lon="5.24813">
        <ele>250</ele>
        <time>2024-09-19T13:25:18Z</time>
      </trkpt>
      <trkpt lat="45.72793" lon="5.24813">
        <ele>250</ele>
        <time>2024-09-19T13:25:19Z</time>
      </trkpt>
      <trkpt lat="45.72795" lon="5.24814">
        <ele>250.4</ele>
        <time>2024-09-19T13:25:20Z</time>
      </trkpt>
      <trkpt lat="45.72796" lon="5.24816">
        <ele>250.6</ele>
        <time>2024-09-19T13:25:21Z</time>
      </trkpt>
      <trkpt lat="45.72798" lon="5.24817">
        <ele>251</ele>
        <time>2024-09-19T13:25:22Z</time>
      </trkpt>
      <trkpt lat="45.72799" lon="5.24819">
        <ele>251.4</ele>
        <time>2024-09-19T13:25:23Z</time>
      </trkpt>
      <trkpt lat="45.72801" lon="5.2482">
        <ele>251.8</ele>
        <time>2024-09-19T13:25:24Z</time>
      </trkpt>
      <trkpt lat="45.72802" lon="5.24822">
        <ele>252</ele>
        <time>2024-09-19T13:25:25Z</time>
      </trkpt>
      <trkpt lat="45.72804" lon="5.24823">
        <ele>252.2</ele>
        <time>2024-09-19T13:25:26Z</time>
      </trkpt>
      <trkpt lat="45.72805" lon="5.24824">
        <ele>252.6</ele>
        <time>2024-09-19T13:25:27Z</time>
      </trkpt>
      <trkpt lat="45.72806" lon="5.24825">
        <ele>252.8</ele>
        <time>2024-09-19T13:25:28Z</time>
      </trkpt>
      <trkpt lat="45.72808" lon="5.24825">
        <ele>252.8</ele>
        <time>2024-09-19T13:25:29Z</time>
      </trkpt>
      <trkpt lat="45.7281" lon="5.24825">
        <ele>253</ele>
        <time>2024-09-19T13:25:30Z</time>
      </trkpt>
      <trkpt lat="45.72811" lon="5.24825">
        <ele>253</ele>
        <time>2024-09-19T13:25:31Z</time>
      </trkpt>
      <trkpt lat="45.72813" lon="5.24825">
        <ele>253.4</ele>
        <time>2024-09-19T13:25:32Z</time>
      </trkpt>
      <trkpt lat="45.72815" lon="5.24824">
        <ele>253.4</ele>
        <time>2024-09-19T13:25:33Z</time>
      </trkpt>
      <trkpt lat="45.72817" lon="5.24824">
        <ele>253.8</ele>
        <time>2024-09-19T13:25:34Z</time>
      </trkpt>
      <trkpt lat="45.72819" lon="5.24823">
        <ele>254</ele>
        <time>2024-09-19T13:25:35Z</time>
      </trkpt>
      <trkpt lat="45.7282" lon="5.24823">
        <ele>254.4</ele>
        <time>2024-09-19T13:25:36Z</time>
      </trkpt>
      <trkpt lat="45.72822" lon="5.24822">
        <ele>254.6</ele>
        <time>2024-09-19T13:25:37Z</time>
      </trkpt>
      <trkpt lat="45.72824" lon="5.24821">
        <ele>254.6</ele>
        <time>2024-09-19T13:25:38Z</time>
      </trkpt>
      <trkpt lat="45.72826" lon="5.2482">
        <ele>254.6</ele>
        <time>2024-09-19T13:25:39Z</time>
      </trkpt>
      <trkpt lat="45.72828" lon="5.24819">
        <ele>254.8</ele>
        <time>2024-09-19T13:25:40Z</time>
      </trkpt>
      <trkpt lat="45.7283" lon="5.24818">
        <ele>255.2</ele>
        <time>2024-09-19T13:25:41Z</time>
      </trkpt>
      <trkpt lat="45.72832" lon="5.24817">
        <ele>255.2</ele>
        <time>2024-09-19T13:25:42Z</time>
      </trkpt>
      <trkpt lat="45.72834" lon="5.24816">
        <ele>255.6</ele>
        <time>2024-09-19T13:25:43Z</time>
      </trkpt>
      <trkpt lat="45.72835" lon="5.24814">
        <ele>256</ele>
        <time>2024-09-19T13:25:44Z</time>
      </trkpt>
      <trkpt lat="45.72836" lon="5.24812">
        <ele>256.4</ele>
        <time>2024-09-19T13:25:45Z</time>
      </trkpt>
      <trkpt lat="45.72838" lon="5.24811">
        <ele>256.6</ele>
        <time>2024-09-19T13:25:46Z</time>
      </trkpt>
      <trkpt lat="45.7284" lon="5.2481">
        <ele>256.6</ele>
        <time>2024-09-19T13:25:47Z</time>
      </trkpt>
      <trkpt lat="45.72842" lon="5.2481">
        <ele>256.6</ele>
        <time>2024-09-19T13:25:48Z</time>
      </trkpt>
      <trkpt lat="45.72844" lon="5.24809">
        <ele>257</ele>
        <time>2024-09-19T13:25:49Z</time>
      </trkpt>
      <trkpt lat="45.72846" lon="5.24809">
        <ele>257</ele>
        <time>2024-09-19T13:25:50Z</time>
      </trkpt>
      <trkpt lat="45.72848" lon="5.24808">
        <ele>257.4</ele>
        <time>2024-09-19T13:25:51Z</time>
      </trkpt>
      <trkpt lat="45.7285" lon="5.24808">
        <ele>257.6</ele>
        <time>2024-09-19T13:25:52Z</time>
      </trkpt>
      <trkpt lat="45.72852" lon="5.24807">
        <ele>257.8</ele>
        <time>2024-09-19T13:25:53Z</time>
      </trkpt>
      <trkpt lat="45.72854" lon="5.24806">
        <ele>258</ele>
        <time>2024-09-19T13:25:54Z</time>
      </trkpt>
      <trkpt lat="45.72856" lon="5.24805">
        <ele>258</ele>
        <time>2024-09-19T13:25:55Z</time>
      </trkpt>
      <trkpt lat="45.72858" lon="5.24804">
        <ele>258</ele>
        <time>2024-09-19T13:25:56Z</time>
      </trkpt>
      <trkpt lat="45.7286" lon="5.24804">
        <ele>258.4</ele>
        <time>2024-09-19T13:25:57Z</time>
      </trkpt>
      <trkpt lat="45.72862" lon="5.24804">
        <ele>258.4</ele>
        <time>2024-09-19T13:25:58Z</time>
      </trkpt>
      <trkpt lat="45.72864" lon="5.24803">
        <ele>258.4</ele>
        <time>2024-09-19T13:25:59Z</time>
      </trkpt>
      <trkpt lat="45.72866" lon="5.24802">
        <ele>258.4</ele>
        <time>2024-09-19T13:26:00Z</time>
      </trkpt>
      <trkpt lat="45.72868" lon="5.24801">
        <ele>258.6</ele>
        <time>2024-09-19T13:26:01Z</time>
      </trkpt>
      <trkpt lat="45.72871" lon="5.24801">
        <ele>258.6</ele>
        <time>2024-09-19T13:26:02Z</time>
      </trkpt>
      <trkpt lat="45.72873" lon="5.248">
        <ele>259</ele>
        <time>2024-09-19T13:26:03Z</time>
      </trkpt>
      <trkpt lat="45.72876" lon="5.24799">
        <ele>259</ele>
        <time>2024-09-19T13:26:04Z</time>
      </trkpt>
      <trkpt lat="45.72879" lon="5.24798">
        <ele>259</ele>
        <time>2024-09-19T13:26:05Z</time>
      </trkpt>
      <trkpt lat="45.72882" lon="5.24797">
        <ele>259</ele>
        <time>2024-09-19T13:26:06Z</time>
      </trkpt>
      <trkpt lat="45.72884" lon="5.24796">
        <ele>259</ele>
        <time>2024-09-19T13:26:07Z</time>
      </trkpt>
      <trkpt lat="45.72887" lon="5.24795">
        <ele>259</ele>
        <time>2024-09-19T13:26:08Z</time>
      </trkpt>
      <trkpt lat="45.7289" lon="5.24794">
        <ele>259</ele>
        <time>2024-09-19T13:26:09Z</time>
      </trkpt>
      <trkpt lat="45.72893" lon="5.24794">
        <ele>259</ele>
        <time>2024-09-19T13:26:10Z</time>
      </trkpt>
      <trkpt lat="45.72895" lon="5.24793">
        <ele>258.6</ele>
        <time>2024-09-19T13:26:11Z</time>
      </trkpt>
      <trkpt lat="45.72899" lon="5.24793">
        <ele>258.6</ele>
        <time>2024-09-19T13:26:12Z</time>
      </trkpt>
      <trkpt lat="45.72902" lon="5.24793">
        <ele>258.6</ele>
        <time>2024-09-19T13:26:13Z</time>
      </trkpt>
      <trkpt lat="45.72906" lon="5.24793">
        <ele>258.6</ele>
        <time>2024-09-19T13:26:14Z</time>
      </trkpt>
      <trkpt lat="45.72911" lon="5.24793">
        <ele>258.2</ele>
        <time>2024-09-19T13:26:15Z</time>
      </trkpt>
      <trkpt lat="45.72916" lon="5.24791">
        <ele>258</ele>
        <time>2024-09-19T13:26:16Z</time>
      </trkpt>
      <trkpt lat="45.72921" lon="5.24791">
        <ele>257.8</ele>
        <time>2024-09-19T13:26:17Z</time>
      </trkpt>
      <trkpt lat="45.72925" lon="5.24791">
        <ele>257.4</ele>
        <time>2024-09-19T13:26:18Z</time>
      </trkpt>
      <trkpt lat="45.7293" lon="5.24791">
        <ele>257.2</ele>
        <time>2024-09-19T13:26:19Z</time>
      </trkpt>
      <trkpt lat="45.72935" lon="5.24792">
        <ele>256.4</ele>
        <time>2024-09-19T13:26:20Z</time>
      </trkpt>
      <trkpt lat="45.72939" lon="5.24791">
        <ele>256</ele>
        <time>2024-09-19T13:26:21Z</time>
      </trkpt>
      <trkpt lat="45.72944" lon="5.24791">
        <ele>255.6</ele>
        <time>2024-09-19T13:26:22Z</time>
      </trkpt>
      <trkpt lat="45.72944" lon="5.24791">
        <ele>254.2</ele>
        <time>2024-09-19T13:26:23Z</time>
      </trkpt>
      <trkpt lat="45.72948" lon="5.24791">
        <ele>254</ele>
        <time>2024-09-19T13:26:24Z</time>
      </trkpt>
      <trkpt lat="45.72952" lon="5.2479">
        <ele>253.6</ele>
        <time>2024-09-19T13:26:25Z</time>
      </trkpt>
      <trkpt lat="45.72955" lon="5.24786">
        <ele>253.2</ele>
        <time>2024-09-19T13:26:26Z</time>
      </trkpt>
      <trkpt lat="45.72958" lon="5.2478">
        <ele>252.8</ele>
        <time>2024-09-19T13:26:27Z</time>
      </trkpt>
      <trkpt lat="45.7296" lon="5.24773">
        <ele>252.4</ele>
        <time>2024-09-19T13:26:28Z</time>
      </trkpt>
      <trkpt lat="45.7296" lon="5.24765">
        <ele>251.8</ele>
        <time>2024-09-19T13:26:29Z</time>
      </trkpt>
      <trkpt lat="45.7296" lon="5.24757">
        <ele>251.2</ele>
        <time>2024-09-19T13:26:30Z</time>
      </trkpt>
      <trkpt lat="45.72961" lon="5.24752">
        <ele>250.6</ele>
        <time>2024-09-19T13:26:31Z</time>
      </trkpt>
      <trkpt lat="45.72963" lon="5.24745">
        <ele>250.2</ele>
        <time>2024-09-19T13:26:32Z</time>
      </trkpt>
      <trkpt lat="45.72966" lon="5.24741">
        <ele>249.4</ele>
        <time>2024-09-19T13:26:33Z</time>
      </trkpt>
      <trkpt lat="45.7297" lon="5.24735">
        <ele>248.6</ele>
        <time>2024-09-19T13:26:34Z</time>
      </trkpt>
      <trkpt lat="45.72974" lon="5.24728">
        <ele>248.2</ele>
        <time>2024-09-19T13:26:35Z</time>
      </trkpt>
      <trkpt lat="45.72979" lon="5.24722">
        <ele>247.6</ele>
        <time>2024-09-19T13:26:36Z</time>
      </trkpt>
      <trkpt lat="45.72984" lon="5.24715">
        <ele>247.4</ele>
        <time>2024-09-19T13:26:37Z</time>
      </trkpt>
      <trkpt lat="45.72989" lon="5.24708">
        <ele>247.4</ele>
        <time>2024-09-19T13:26:38Z</time>
      </trkpt>
      <trkpt lat="45.72997" lon="5.24696">
        <ele>247</ele>
        <time>2024-09-19T13:26:39Z</time>
      </trkpt>
      <trkpt lat="45.73001" lon="5.2469">
        <ele>246.6</ele>
        <time>2024-09-19T13:26:40Z</time>
      </trkpt>
      <trkpt lat="45.73005" lon="5.24684">
        <ele>246.6</ele>
        <time>2024-09-19T13:26:41Z</time>
      </trkpt>
      <trkpt lat="45.73009" lon="5.24677">
        <ele>246.2</ele>
        <time>2024-09-19T13:26:42Z</time>
      </trkpt>
      <trkpt lat="45.73013" lon="5.24672">
        <ele>245.8</ele>
        <time>2024-09-19T13:26:43Z</time>
      </trkpt>
      <trkpt lat="45.73017" lon="5.24668">
        <ele>245.8</ele>
        <time>2024-09-19T13:26:44Z</time>
      </trkpt>
      <trkpt lat="45.73022" lon="5.24662">
        <ele>245.8</ele>
        <time>2024-09-19T13:26:45Z</time>
      </trkpt>
      <trkpt lat="45.73027" lon="5.24658">
        <ele>246</ele>
        <time>2024-09-19T13:26:46Z</time>
      </trkpt>
      <trkpt lat="45.73033" lon="5.24654">
        <ele>245.8</ele>
        <time>2024-09-19T13:26:47Z</time>
      </trkpt>
      <trkpt lat="45.73037" lon="5.24651">
        <ele>246.6</ele>
        <time>2024-09-19T13:26:48Z</time>
      </trkpt>
      <trkpt lat="45.73042" lon="5.24646">
        <ele>246.6</ele>
        <time>2024-09-19T13:26:49Z</time>
      </trkpt>
      <trkpt lat="45.73047" lon="5.24643">
        <ele>246.8</ele>
        <time>2024-09-19T13:26:50Z</time>
      </trkpt>
      <trkpt lat="45.73051" lon="5.24639">
        <ele>247.2</ele>
        <time>2024-09-19T13:26:51Z</time>
      </trkpt>
      <trkpt lat="45.73057" lon="5.24636">
        <ele>247.2</ele>
        <time>2024-09-19T13:26:52Z</time>
      </trkpt>
      <trkpt lat="45.73062" lon="5.24634">
        <ele>247.6</ele>
        <time>2024-09-19T13:26:53Z</time>
      </trkpt>
      <trkpt lat="45.73066" lon="5.24632">
        <ele>247.8</ele>
        <time>2024-09-19T13:26:54Z</time>
      </trkpt>
      <trkpt lat="45.73071" lon="5.2463">
        <ele>248</ele>
        <time>2024-09-19T13:26:55Z</time>
      </trkpt>
      <trkpt lat="45.73075" lon="5.24628">
        <ele>248</ele>
        <time>2024-09-19T13:26:56Z</time>
      </trkpt>
      <trkpt lat="45.7308" lon="5.24627">
        <ele>248.4</ele>
        <time>2024-09-19T13:26:57Z</time>
      </trkpt>
      <trkpt lat="45.73085" lon="5.24626">
        <ele>249</ele>
        <time>2024-09-19T13:26:58Z</time>
      </trkpt>
      <trkpt lat="45.73089" lon="5.24624">
        <ele>249.2</ele>
        <time>2024-09-19T13:26:59Z</time>
      </trkpt>
      <trkpt lat="45.73093" lon="5.24623">
        <ele>249.2</ele>
        <time>2024-09-19T13:27:00Z</time>
      </trkpt>
      <trkpt lat="45.73097" lon="5.24622">
        <ele>249.2</ele>
        <time>2024-09-19T13:27:01Z</time>
      </trkpt>
      <trkpt lat="45.73101" lon="5.24619">
        <ele>249.6</ele>
        <time>2024-09-19T13:27:02Z</time>
      </trkpt>
      <trkpt lat="45.73103" lon="5.24618">
        <ele>249.8</ele>
        <time>2024-09-19T13:27:03Z</time>
      </trkpt>
      <trkpt lat="45.73106" lon="5.24616">
        <ele>249.8</ele>
        <time>2024-09-19T13:27:04Z</time>
      </trkpt>
      <trkpt lat="45.73108" lon="5.24613">
        <ele>249.4</ele>
        <time>2024-09-19T13:27:05Z</time>
      </trkpt>
      <trkpt lat="45.7311" lon="5.24611">
        <ele>249.2</ele>
        <time>2024-09-19T13:27:06Z</time>
      </trkpt>
      <trkpt lat="45.7311" lon="5.2461">
        <ele>249.2</ele>
        <time>2024-09-19T13:27:07Z</time>
      </trkpt>
      <trkpt lat="45.73111" lon="5.24607">
        <ele>249.2</ele>
        <time>2024-09-19T13:27:08Z</time>
      </trkpt>
      <trkpt lat="45.73113" lon="5.24607">
        <ele>248.8</ele>
        <time>2024-09-19T13:27:09Z</time>
      </trkpt>
      <trkpt lat="45.73114" lon="5.24607">
        <ele>248.8</ele>
        <time>2024-09-19T13:27:10Z</time>
      </trkpt>
      <trkpt lat="45.73114" lon="5.24607">
        <ele>248.6</ele>
        <time>2024-09-19T13:27:11Z</time>
      </trkpt>
      <trkpt lat="45.73114" lon="5.24607">
        <ele>248.6</ele>
        <time>2024-09-19T13:27:12Z</time>
      </trkpt>
      <trkpt lat="45.73114" lon="5.24607">
        <ele>248.6</ele>
        <time>2024-09-19T13:27:13Z</time>
      </trkpt>
      <trkpt lat="45.73115" lon="5.24605">
        <ele>248</ele>
        <time>2024-09-19T13:28:42Z</time>
      </trkpt>
      <trkpt lat="45.73116" lon="5.24604">
        <ele>247.8</ele>
        <time>2024-09-19T13:28:43Z</time>
      </trkpt>
      <trkpt lat="45.73116" lon="5.24604">
        <ele>247.8</ele>
        <time>2024-09-19T13:28:44Z</time>
      </trkpt>
      <trkpt lat="45.73117" lon="5.24604">
        <ele>247.4</ele>
        <time>2024-09-19T13:28:45Z</time>
      </trkpt>
      <trkpt lat="45.73118" lon="5.24603">
        <ele>247.4</ele>
        <time>2024-09-19T13:28:46Z</time>
      </trkpt>
      <trkpt lat="45.73119" lon="5.24602">
        <ele>246.8</ele>
        <time>2024-09-19T13:28:47Z</time>
      </trkpt>
      <trkpt lat="45.73119" lon="5.24602">
        <ele>246</ele>
        <time>2024-09-19T13:28:48Z</time>
      </trkpt>
      <trkpt lat="45.73121" lon="5.24601">
        <ele>246</ele>
        <time>2024-09-19T13:28:49Z</time>
      </trkpt>
      <trkpt lat="45.73124" lon="5.246">
        <ele>245.4</ele>
        <time>2024-09-19T13:28:50Z</time>
      </trkpt>
      <trkpt lat="45.73126" lon="5.24599">
        <ele>245.2</ele>
        <time>2024-09-19T13:28:51Z</time>
      </trkpt>
      <trkpt lat="45.73129" lon="5.24598">
        <ele>244.8</ele>
        <time>2024-09-19T13:28:52Z</time>
      </trkpt>
      <trkpt lat="45.73132" lon="5.24596">
        <ele>243.8</ele>
        <time>2024-09-19T13:28:53Z</time>
      </trkpt>
      <trkpt lat="45.73134" lon="5.24595">
        <ele>243.4</ele>
        <time>2024-09-19T13:28:54Z</time>
      </trkpt>
      <trkpt lat="45.73137" lon="5.24593">
        <ele>243</ele>
        <time>2024-09-19T13:28:55Z</time>
      </trkpt>
      <trkpt lat="45.7314" lon="5.2459">
        <ele>242.4</ele>
        <time>2024-09-19T13:28:56Z</time>
      </trkpt>
      <trkpt lat="45.73144" lon="5.24588">
        <ele>241.4</ele>
        <time>2024-09-19T13:28:57Z</time>
      </trkpt>
      <trkpt lat="45.73147" lon="5.24585">
        <ele>240.2</ele>
        <time>2024-09-19T13:28:58Z</time>
      </trkpt>
      <trkpt lat="45.73151" lon="5.24582">
        <ele>239.6</ele>
        <time>2024-09-19T13:28:59Z</time>
      </trkpt>
      <trkpt lat="45.73154" lon="5.2458">
        <ele>239.6</ele>
        <time>2024-09-19T13:29:00Z</time>
      </trkpt>
      <trkpt lat="45.73156" lon="5.24578">
        <ele>239.2</ele>
        <time>2024-09-19T13:29:01Z</time>
      </trkpt>
      <trkpt lat="45.73158" lon="5.24577">
        <ele>238.6</ele>
        <time>2024-09-19T13:29:02Z</time>
      </trkpt>
      <trkpt lat="45.7316" lon="5.24575">
        <ele>238</ele>
        <time>2024-09-19T13:29:03Z</time>
      </trkpt>
      <trkpt lat="45.73163" lon="5.24573">
        <ele>237.6</ele>
        <time>2024-09-19T13:29:04Z</time>
      </trkpt>
      <trkpt lat="45.73166" lon="5.24571">
        <ele>237.2</ele>
        <time>2024-09-19T13:29:05Z</time>
      </trkpt>
      <trkpt lat="45.73168" lon="5.2457">
        <ele>236.8</ele>
        <time>2024-09-19T13:29:06Z</time>
      </trkpt>
      <trkpt lat="45.73169" lon="5.24568">
        <ele>236.4</ele>
        <time>2024-09-19T13:29:07Z</time>
      </trkpt>
      <trkpt lat="45.73171" lon="5.24568">
        <ele>236.2</ele>
        <time>2024-09-19T13:29:08Z</time>
      </trkpt>
      <trkpt lat="45.73172" lon="5.24567">
        <ele>235.8</ele>
        <time>2024-09-19T13:29:09Z</time>
      </trkpt>
      <trkpt lat="45.73173" lon="5.24566">
        <ele>235.8</ele>
        <time>2024-09-19T13:29:10Z</time>
      </trkpt>
      <trkpt lat="45.73174" lon="5.24566">
        <ele>235.2</ele>
        <time>2024-09-19T13:29:11Z</time>
      </trkpt>
      <trkpt lat="45.73174" lon="5.24566">
        <ele>235.2</ele>
        <time>2024-09-19T13:29:12Z</time>
      </trkpt>
      <trkpt lat="45.73174" lon="5.24566">
        <ele>235</ele>
        <time>2024-09-19T13:29:13Z</time>
      </trkpt>
      <trkpt lat="45.73174" lon="5.24566">
        <ele>235</ele>
        <time>2024-09-19T13:29:14Z</time>
      </trkpt>
      <trkpt lat="45.73176" lon="5.24562">
        <ele>234.4</ele>
        <time>2024-09-19T13:29:19Z</time>
      </trkpt>
      <trkpt lat="45.73177" lon="5.2456">
        <ele>234.4</ele>
        <time>2024-09-19T13:29:20Z</time>
      </trkpt>
      <trkpt lat="45.73178" lon="5.24558">
        <ele>234</ele>
        <time>2024-09-19T13:29:21Z</time>
      </trkpt>
      <trkpt lat="45.7318" lon="5.24556">
        <ele>234</ele>
        <time>2024-09-19T13:29:22Z</time>
      </trkpt>
      <trkpt lat="45.7318" lon="5.24556">
        <ele>234</ele>
        <time>2024-09-19T13:29:23Z</time>
      </trkpt>
      <trkpt lat="45.7318" lon="5.24557">
        <ele>233.8</ele>
        <time>2024-09-19T13:29:24Z</time>
      </trkpt>
      <trkpt lat="45.73181" lon="5.24557">
        <ele>233.8</ele>
        <time>2024-09-19T13:29:25Z</time>
      </trkpt>
      <trkpt lat="45.7318" lon="5.24559">
        <ele>233.6</ele>
        <time>2024-09-19T13:29:43Z</time>
      </trkpt>
      <trkpt lat="45.7318" lon="5.24559">
        <ele>233.6</ele>
        <time>2024-09-19T13:29:44Z</time>
      </trkpt>
      <trkpt lat="45.73181" lon="5.2456">
        <ele>233.6</ele>
        <time>2024-09-19T13:29:45Z</time>
      </trkpt>
      <trkpt lat="45.73181" lon="5.24559">
        <ele>233.6</ele>
        <time>2024-09-19T13:29:46Z</time>
      </trkpt>
      <trkpt lat="45.73182" lon="5.24558">
        <ele>233.6</ele>
        <time>2024-09-19T13:29:47Z</time>
      </trkpt>
      <trkpt lat="45.73182" lon="5.24557">
        <ele>233.4</ele>
        <time>2024-09-19T13:29:48Z</time>
      </trkpt>
      <trkpt lat="45.73182" lon="5.24556">
        <ele>233.4</ele>
        <time>2024-09-19T13:29:49Z</time>
      </trkpt>
      <trkpt lat="45.73183" lon="5.24556">
        <ele>233.8</ele>
        <time>2024-09-19T13:35:40Z</time>
      </trkpt>
      <trkpt lat="45.73185" lon="5.24555">
        <ele>233.8</ele>
        <time>2024-09-19T13:35:41Z</time>
      </trkpt>
      <trkpt lat="45.73188" lon="5.24553">
        <ele>233.2</ele>
        <time>2024-09-19T13:35:42Z</time>
      </trkpt>
      <trkpt lat="45.73191" lon="5.24551">
        <ele>233</ele>
        <time>2024-09-19T13:35:43Z</time>
      </trkpt>
      <trkpt lat="45.73194" lon="5.24549">
        <ele>233</ele>
        <time>2024-09-19T13:35:44Z</time>
      </trkpt>
      <trkpt lat="45.73198" lon="5.24547">
        <ele>233</ele>
        <time>2024-09-19T13:35:45Z</time>
      </trkpt>
      <trkpt lat="45.73201" lon="5.24545">
        <ele>233</ele>
        <time>2024-09-19T13:35:46Z</time>
      </trkpt>
      <trkpt lat="45.73205" lon="5.24544">
        <ele>232.6</ele>
        <time>2024-09-19T13:35:47Z</time>
      </trkpt>
      <trkpt lat="45.73208" lon="5.24543">
        <ele>232.6</ele>
        <time>2024-09-19T13:35:48Z</time>
      </trkpt>
      <trkpt lat="45.73212" lon="5.24542">
        <ele>232.4</ele>
        <time>2024-09-19T13:35:49Z</time>
      </trkpt>
      <trkpt lat="45.73212" lon="5.24542">
        <ele>232.4</ele>
        <time>2024-09-19T13:35:50Z</time>
      </trkpt>
      <trkpt lat="45.73215" lon="5.24542">
        <ele>232.4</ele>
        <time>2024-09-19T13:35:51Z</time>
      </trkpt>
      <trkpt lat="45.73218" lon="5.24542">
        <ele>232.4</ele>
        <time>2024-09-19T13:35:52Z</time>
      </trkpt>
      <trkpt lat="45.73221" lon="5.24542">
        <ele>231.8</ele>
        <time>2024-09-19T13:35:53Z</time>
      </trkpt>
      <trkpt lat="45.73224" lon="5.24541">
        <ele>231.4</ele>
        <time>2024-09-19T13:35:54Z</time>
      </trkpt>
      <trkpt lat="45.73227" lon="5.2454">
        <ele>231.2</ele>
        <time>2024-09-19T13:35:55Z</time>
      </trkpt>
      <trkpt lat="45.73232" lon="5.24539">
        <ele>231.2</ele>
        <time>2024-09-19T13:35:56Z</time>
      </trkpt>
      <trkpt lat="45.73235" lon="5.24538">
        <ele>231.2</ele>
        <time>2024-09-19T13:35:57Z</time>
      </trkpt>
      <trkpt lat="45.73238" lon="5.24536">
        <ele>231.2</ele>
        <time>2024-09-19T13:35:58Z</time>
      </trkpt>
      <trkpt lat="45.73241" lon="5.24535">
        <ele>231.2</ele>
        <time>2024-09-19T13:35:59Z</time>
      </trkpt>
      <trkpt lat="45.73244" lon="5.24534">
        <ele>231.2</ele>
        <time>2024-09-19T13:36:00Z</time>
      </trkpt>
      <trkpt lat="45.73249" lon="5.24531">
        <ele>231</ele>
        <time>2024-09-19T13:36:01Z</time>
      </trkpt>
      <trkpt lat="45.73252" lon="5.2453">
        <ele>231</ele>
        <time>2024-09-19T13:36:02Z</time>
      </trkpt>
      <trkpt lat="45.73256" lon="5.24529">
        <ele>231</ele>
        <time>2024-09-19T13:36:03Z</time>
      </trkpt>
      <trkpt lat="45.73258" lon="5.24528">
        <ele>231</ele>
        <time>2024-09-19T13:36:04Z</time>
      </trkpt>
      <trkpt lat="45.73261" lon="5.24527">
        <ele>231</ele>
        <time>2024-09-19T13:36:05Z</time>
      </trkpt>
      <trkpt lat="45.73264" lon="5.24526">
        <ele>230.2</ele>
        <time>2024-09-19T13:36:06Z</time>
      </trkpt>
      <trkpt lat="45.73268" lon="5.24525">
        <ele>230.4</ele>
        <time>2024-09-19T13:36:07Z</time>
      </trkpt>
      <trkpt lat="45.73271" lon="5.24524">
        <ele>230.4</ele>
        <time>2024-09-19T13:36:08Z</time>
      </trkpt>
      <trkpt lat="45.73274" lon="5.24523">
        <ele>230.6</ele>
        <time>2024-09-19T13:36:09Z</time>
      </trkpt>
      <trkpt lat="45.73276" lon="5.24522">
        <ele>230.6</ele>
        <time>2024-09-19T13:36:10Z</time>
      </trkpt>
      <trkpt lat="45.73279" lon="5.24522">
        <ele>230.6</ele>
        <time>2024-09-19T13:36:11Z</time>
      </trkpt>
      <trkpt lat="45.73282" lon="5.24521">
        <ele>230.6</ele>
        <time>2024-09-19T13:36:12Z</time>
      </trkpt>
      <trkpt lat="45.73285" lon="5.24521">
        <ele>230.6</ele>
        <time>2024-09-19T13:36:13Z</time>
      </trkpt>
      <trkpt lat="45.73288" lon="5.2452">
        <ele>230.6</ele>
        <time>2024-09-19T13:36:14Z</time>
      </trkpt>
      <trkpt lat="45.73291" lon="5.24519">
        <ele>231.2</ele>
        <time>2024-09-19T13:36:15Z</time>
      </trkpt>
      <trkpt lat="45.73294" lon="5.24518">
        <ele>231.2</ele>
        <time>2024-09-19T13:36:16Z</time>
      </trkpt>
      <trkpt lat="45.73297" lon="5.24517">
        <ele>231.2</ele>
        <time>2024-09-19T13:36:17Z</time>
      </trkpt>
      <trkpt lat="45.733" lon="5.24516">
        <ele>231.2</ele>
        <time>2024-09-19T13:36:18Z</time>
      </trkpt>
      <trkpt lat="45.73303" lon="5.24515">
        <ele>231.2</ele>
        <time>2024-09-19T13:36:19Z</time>
      </trkpt>
      <trkpt lat="45.73306" lon="5.24514">
        <ele>231.2</ele>
        <time>2024-09-19T13:36:20Z</time>
      </trkpt>
      <trkpt lat="45.73309" lon="5.24513">
        <ele>231.2</ele>
        <time>2024-09-19T13:36:21Z</time>
      </trkpt>
      <trkpt lat="45.73313" lon="5.24512">
        <ele>231.2</ele>
        <time>2024-09-19T13:36:22Z</time>
      </trkpt>
      <trkpt lat="45.73316" lon="5.24511">
        <ele>231.2</ele>
        <time>2024-09-19T13:36:23Z</time>
      </trkpt>
      <trkpt lat="45.73319" lon="5.2451">
        <ele>231.4</ele>
        <time>2024-09-19T13:36:24Z</time>
      </trkpt>
      <trkpt lat="45.73321" lon="5.2451">
        <ele>231</ele>
        <time>2024-09-19T13:36:25Z</time>
      </trkpt>
      <trkpt lat="45.73324" lon="5.24509">
        <ele>231</ele>
        <time>2024-09-19T13:36:26Z</time>
      </trkpt>
      <trkpt lat="45.73328" lon="5.24508">
        <ele>230.6</ele>
        <time>2024-09-19T13:36:27Z</time>
      </trkpt>
      <trkpt lat="45.73331" lon="5.24507">
        <ele>231</ele>
        <time>2024-09-19T13:36:28Z</time>
      </trkpt>
      <trkpt lat="45.73334" lon="5.24507">
        <ele>231</ele>
        <time>2024-09-19T13:36:29Z</time>
      </trkpt>
      <trkpt lat="45.73338" lon="5.24506">
        <ele>231</ele>
        <time>2024-09-19T13:36:30Z</time>
      </trkpt>
      <trkpt lat="45.73341" lon="5.24505">
        <ele>230.4</ele>
        <time>2024-09-19T13:36:31Z</time>
      </trkpt>
      <trkpt lat="45.73345" lon="5.24504">
        <ele>230.4</ele>
        <time>2024-09-19T13:36:32Z</time>
      </trkpt>
      <trkpt lat="45.73348" lon="5.24504">
        <ele>230.6</ele>
        <time>2024-09-19T13:36:33Z</time>
      </trkpt>
      <trkpt lat="45.73351" lon="5.24503">
        <ele>231.2</ele>
        <time>2024-09-19T13:36:34Z</time>
      </trkpt>
      <trkpt lat="45.73354" lon="5.24502">
        <ele>231.2</ele>
        <time>2024-09-19T13:36:35Z</time>
      </trkpt>
      <trkpt lat="45.73358" lon="5.24501">
        <ele>231.2</ele>
        <time>2024-09-19T13:36:36Z</time>
      </trkpt>
      <trkpt lat="45.73361" lon="5.24499">
        <ele>231.2</ele>
        <time>2024-09-19T13:36:37Z</time>
      </trkpt>
      <trkpt lat="45.73364" lon="5.24498">
        <ele>231.2</ele>
        <time>2024-09-19T13:36:38Z</time>
      </trkpt>
      <trkpt lat="45.73368" lon="5.24497">
        <ele>231.2</ele>
        <time>2024-09-19T13:36:39Z</time>
      </trkpt>
      <trkpt lat="45.73372" lon="5.24496">
        <ele>231.4</ele>
        <time>2024-09-19T13:36:40Z</time>
      </trkpt>
      <trkpt lat="45.73375" lon="5.24494">
        <ele>231.4</ele>
        <time>2024-09-19T13:36:41Z</time>
      </trkpt>
      <trkpt lat="45.73379" lon="5.24492">
        <ele>231.4</ele>
        <time>2024-09-19T13:36:42Z</time>
      </trkpt>
      <trkpt lat="45.73382" lon="5.24491">
        <ele>231.4</ele>
        <time>2024-09-19T13:36:43Z</time>
      </trkpt>
      <trkpt lat="45.73385" lon="5.2449">
        <ele>231.4</ele>
        <time>2024-09-19T13:36:44Z</time>
      </trkpt>
      <trkpt lat="45.73388" lon="5.24488">
        <ele>230.8</ele>
        <time>2024-09-19T13:36:45Z</time>
      </trkpt>
      <trkpt lat="45.73391" lon="5.24486">
        <ele>230.8</ele>
        <time>2024-09-19T13:36:46Z</time>
      </trkpt>
      <trkpt lat="45.73395" lon="5.24484">
        <ele>230.8</ele>
        <time>2024-09-19T13:36:47Z</time>
      </trkpt>
      <trkpt lat="45.73398" lon="5.24482">
        <ele>230.8</ele>
        <time>2024-09-19T13:36:48Z</time>
      </trkpt>
      <trkpt lat="45.73401" lon="5.24481">
        <ele>230.8</ele>
        <time>2024-09-19T13:36:49Z</time>
      </trkpt>
      <trkpt lat="45.73403" lon="5.2448">
        <ele>230.2</ele>
        <time>2024-09-19T13:36:50Z</time>
      </trkpt>
      <trkpt lat="45.73406" lon="5.24478">
        <ele>230.2</ele>
        <time>2024-09-19T13:36:51Z</time>
      </trkpt>
      <trkpt lat="45.73409" lon="5.24477">
        <ele>230.4</ele>
        <time>2024-09-19T13:36:52Z</time>
      </trkpt>
      <trkpt lat="45.73413" lon="5.24476">
        <ele>230</ele>
        <time>2024-09-19T13:36:53Z</time>
      </trkpt>
      <trkpt lat="45.73416" lon="5.24474">
        <ele>230</ele>
        <time>2024-09-19T13:36:54Z</time>
      </trkpt>
      <trkpt lat="45.73419" lon="5.24473">
        <ele>230</ele>
        <time>2024-09-19T13:36:55Z</time>
      </trkpt>
      <trkpt lat="45.73422" lon="5.24471">
        <ele>230</ele>
        <time>2024-09-19T13:36:56Z</time>
      </trkpt>
      <trkpt lat="45.73425" lon="5.24469">
        <ele>230.2</ele>
        <time>2024-09-19T13:36:57Z</time>
      </trkpt>
      <trkpt lat="45.73427" lon="5.24467">
        <ele>230.2</ele>
        <time>2024-09-19T13:36:58Z</time>
      </trkpt>
      <trkpt lat="45.73429" lon="5.24466">
        <ele>230.2</ele>
        <time>2024-09-19T13:36:59Z</time>
      </trkpt>
      <trkpt lat="45.73431" lon="5.24464">
        <ele>230.2</ele>
        <time>2024-09-19T13:37:00Z</time>
      </trkpt>
      <trkpt lat="45.73434" lon="5.24462">
        <ele>230.2</ele>
        <time>2024-09-19T13:37:01Z</time>
      </trkpt>
      <trkpt lat="45.73437" lon="5.24461">
        <ele>230.6</ele>
        <time>2024-09-19T13:37:02Z</time>
      </trkpt>
      <trkpt lat="45.7344" lon="5.24459">
        <ele>230.2</ele>
        <time>2024-09-19T13:37:03Z</time>
      </trkpt>
      <trkpt lat="45.73443" lon="5.24458">
        <ele>230.2</ele>
        <time>2024-09-19T13:37:04Z</time>
      </trkpt>
      <trkpt lat="45.73445" lon="5.24457">
        <ele>230.2</ele>
        <time>2024-09-19T13:37:05Z</time>
      </trkpt>
      <trkpt lat="45.73447" lon="5.24457">
        <ele>230.6</ele>
        <time>2024-09-19T13:37:06Z</time>
      </trkpt>
      <trkpt lat="45.7345" lon="5.24456">
        <ele>230.6</ele>
        <time>2024-09-19T13:37:07Z</time>
      </trkpt>
      <trkpt lat="45.73453" lon="5.24455">
        <ele>230.6</ele>
        <time>2024-09-19T13:37:08Z</time>
      </trkpt>
      <trkpt lat="45.73455" lon="5.24454">
        <ele>230.6</ele>
        <time>2024-09-19T13:37:09Z</time>
      </trkpt>
      <trkpt lat="45.73457" lon="5.24453">
        <ele>230.6</ele>
        <time>2024-09-19T13:37:10Z</time>
      </trkpt>
      <trkpt lat="45.7346" lon="5.24451">
        <ele>231</ele>
        <time>2024-09-19T13:37:11Z</time>
      </trkpt>
      <trkpt lat="45.73462" lon="5.2445">
        <ele>231.2</ele>
        <time>2024-09-19T13:37:12Z</time>
      </trkpt>
      <trkpt lat="45.73465" lon="5.24448">
        <ele>231.4</ele>
        <time>2024-09-19T13:37:13Z</time>
      </trkpt>
      <trkpt lat="45.73467" lon="5.24447">
        <ele>231.6</ele>
        <time>2024-09-19T13:37:14Z</time>
      </trkpt>
      <trkpt lat="45.7347" lon="5.24446">
        <ele>231.6</ele>
        <time>2024-09-19T13:37:15Z</time>
      </trkpt>
      <trkpt lat="45.73472" lon="5.24445">
        <ele>232.2</ele>
        <time>2024-09-19T13:37:16Z</time>
      </trkpt>
      <trkpt lat="45.73475" lon="5.24444">
        <ele>232.4</ele>
        <time>2024-09-19T13:37:17Z</time>
      </trkpt>
      <trkpt lat="45.73477" lon="5.24444">
        <ele>232.4</ele>
        <time>2024-09-19T13:37:18Z</time>
      </trkpt>
      <trkpt lat="45.73479" lon="5.24443">
        <ele>232.8</ele>
        <time>2024-09-19T13:37:19Z</time>
      </trkpt>
      <trkpt lat="45.73481" lon="5.24443">
        <ele>232.8</ele>
        <time>2024-09-19T13:37:20Z</time>
      </trkpt>
      <trkpt lat="45.73483" lon="5.24443">
        <ele>233.2</ele>
        <time>2024-09-19T13:37:21Z</time>
      </trkpt>
      <trkpt lat="45.73484" lon="5.24442">
        <ele>233.2</ele>
        <time>2024-09-19T13:37:22Z</time>
      </trkpt>
      <trkpt lat="45.73486" lon="5.24441">
        <ele>233.2</ele>
        <time>2024-09-19T13:37:23Z</time>
      </trkpt>
      <trkpt lat="45.73488" lon="5.2444">
        <ele>233.2</ele>
        <time>2024-09-19T13:37:24Z</time>
      </trkpt>
      <trkpt lat="45.7349" lon="5.24439">
        <ele>233.6</ele>
        <time>2024-09-19T13:37:25Z</time>
      </trkpt>
      <trkpt lat="45.73492" lon="5.24438">
        <ele>233.6</ele>
        <time>2024-09-19T13:37:26Z</time>
      </trkpt>
      <trkpt lat="45.73494" lon="5.24436">
        <ele>233.6</ele>
        <time>2024-09-19T13:37:27Z</time>
      </trkpt>
      <trkpt lat="45.73496" lon="5.24434">
        <ele>233.6</ele>
        <time>2024-09-19T13:37:28Z</time>
      </trkpt>
      <trkpt lat="45.73499" lon="5.24433">
        <ele>234.2</ele>
        <time>2024-09-19T13:37:29Z</time>
      </trkpt>
      <trkpt lat="45.73501" lon="5.24431">
        <ele>234</ele>
        <time>2024-09-19T13:37:30Z</time>
      </trkpt>
      <trkpt lat="45.73504" lon="5.24429">
        <ele>234</ele>
        <time>2024-09-19T13:37:31Z</time>
      </trkpt>
      <trkpt lat="45.73507" lon="5.24427">
        <ele>234</ele>
        <time>2024-09-19T13:37:32Z</time>
      </trkpt>
      <trkpt lat="45.7351" lon="5.24426">
        <ele>234.2</ele>
        <time>2024-09-19T13:37:33Z</time>
      </trkpt>
      <trkpt lat="45.73512" lon="5.24424">
        <ele>234.2</ele>
        <time>2024-09-19T13:37:34Z</time>
      </trkpt>
      <trkpt lat="45.73514" lon="5.24423">
        <ele>234.8</ele>
        <time>2024-09-19T13:37:35Z</time>
      </trkpt>
      <trkpt lat="45.73516" lon="5.24422">
        <ele>234.8</ele>
        <time>2024-09-19T13:37:36Z</time>
      </trkpt>
      <trkpt lat="45.73518" lon="5.2442">
        <ele>234.8</ele>
        <time>2024-09-19T13:37:37Z</time>
      </trkpt>
      <trkpt lat="45.7352" lon="5.24418">
        <ele>234.6</ele>
        <time>2024-09-19T13:37:38Z</time>
      </trkpt>
      <trkpt lat="45.73522" lon="5.24416">
        <ele>234</ele>
        <time>2024-09-19T13:37:39Z</time>
      </trkpt>
      <trkpt lat="45.73522" lon="5.24407">
        <ele>233.6</ele>
        <time>2024-09-19T13:37:40Z</time>
      </trkpt>
      <trkpt lat="45.73521" lon="5.24402">
        <ele>233</ele>
        <time>2024-09-19T13:37:41Z</time>
      </trkpt>
      <trkpt lat="45.73522" lon="5.24397">
        <ele>233</ele>
        <time>2024-09-19T13:37:42Z</time>
      </trkpt>
      <trkpt lat="45.73522" lon="5.24394">
        <ele>232.4</ele>
        <time>2024-09-19T13:37:43Z</time>
      </trkpt>
      <trkpt lat="45.73522" lon="5.2439">
        <ele>232.4</ele>
        <time>2024-09-19T13:37:44Z</time>
      </trkpt>
      <trkpt lat="45.73526" lon="5.24386">
        <ele>232.4</ele>
        <time>2024-09-19T13:37:45Z</time>
      </trkpt>
      <trkpt lat="45.73528" lon="5.24384">
        <ele>232.6</ele>
        <time>2024-09-19T13:37:46Z</time>
      </trkpt>
      <trkpt lat="45.73529" lon="5.24383">
        <ele>232.6</ele>
        <time>2024-09-19T13:37:47Z</time>
      </trkpt>
      <trkpt lat="45.73532" lon="5.24383">
        <ele>232.6</ele>
        <time>2024-09-19T13:37:48Z</time>
      </trkpt>
      <trkpt lat="45.73536" lon="5.24384">
        <ele>232.6</ele>
        <time>2024-09-19T13:37:49Z</time>
      </trkpt>
      <trkpt lat="45.7354" lon="5.24382">
        <ele>232</ele>
        <time>2024-09-19T13:37:50Z</time>
      </trkpt>
      <trkpt lat="45.73544" lon="5.24381">
        <ele>231.8</ele>
        <time>2024-09-19T13:37:51Z</time>
      </trkpt>
      <trkpt lat="45.73548" lon="5.2438">
        <ele>231.4</ele>
        <time>2024-09-19T13:37:52Z</time>
      </trkpt>
      <trkpt lat="45.73554" lon="5.2438">
        <ele>231</ele>
        <time>2024-09-19T13:37:53Z</time>
      </trkpt>
      <trkpt lat="45.73558" lon="5.24379">
        <ele>230.6</ele>
        <time>2024-09-19T13:37:54Z</time>
      </trkpt>
      <trkpt lat="45.73561" lon="5.2438">
        <ele>230.2</ele>
        <time>2024-09-19T13:37:55Z</time>
      </trkpt>
      <trkpt lat="45.73565" lon="5.2438">
        <ele>230</ele>
        <time>2024-09-19T13:37:56Z</time>
      </trkpt>
      <trkpt lat="45.73569" lon="5.24379">
        <ele>229.6</ele>
        <time>2024-09-19T13:37:57Z</time>
      </trkpt>
      <trkpt lat="45.73574" lon="5.24378">
        <ele>229.6</ele>
        <time>2024-09-19T13:37:58Z</time>
      </trkpt>
      <trkpt lat="45.73577" lon="5.24376">
        <ele>229.2</ele>
        <time>2024-09-19T13:37:59Z</time>
      </trkpt>
      <trkpt lat="45.73582" lon="5.24374">
        <ele>229.2</ele>
        <time>2024-09-19T13:38:00Z</time>
      </trkpt>
      <trkpt lat="45.73586" lon="5.24371">
        <ele>228.8</ele>
        <time>2024-09-19T13:38:01Z</time>
      </trkpt>
      <trkpt lat="45.73589" lon="5.24369">
        <ele>228.8</ele>
        <time>2024-09-19T13:38:02Z</time>
      </trkpt>
      <trkpt lat="45.73594" lon="5.24368">
        <ele>228.8</ele>
        <time>2024-09-19T13:38:03Z</time>
      </trkpt>
      <trkpt lat="45.73598" lon="5.24366">
        <ele>228.8</ele>
        <time>2024-09-19T13:38:04Z</time>
      </trkpt>
      <trkpt lat="45.73604" lon="5.24364">
        <ele>228.4</ele>
        <time>2024-09-19T13:38:05Z</time>
      </trkpt>
      <trkpt lat="45.73608" lon="5.24362">
        <ele>228.4</ele>
        <time>2024-09-19T13:38:06Z</time>
      </trkpt>
      <trkpt lat="45.73613" lon="5.2436">
        <ele>228</ele>
        <time>2024-09-19T13:38:07Z</time>
      </trkpt>
      <trkpt lat="45.73618" lon="5.24358">
        <ele>228</ele>
        <time>2024-09-19T13:38:08Z</time>
      </trkpt>
      <trkpt lat="45.73623" lon="5.24355">
        <ele>227.4</ele>
        <time>2024-09-19T13:38:09Z</time>
      </trkpt>
      <trkpt lat="45.73628" lon="5.24352">
        <ele>227.8</ele>
        <time>2024-09-19T13:38:10Z</time>
      </trkpt>
      <trkpt lat="45.73632" lon="5.2435">
        <ele>227.8</ele>
        <time>2024-09-19T13:38:11Z</time>
      </trkpt>
      <trkpt lat="45.73636" lon="5.24346">
        <ele>228.2</ele>
        <time>2024-09-19T13:38:12Z</time>
      </trkpt>
      <trkpt lat="45.73641" lon="5.24343">
        <ele>228.2</ele>
        <time>2024-09-19T13:38:13Z</time>
      </trkpt>
      <trkpt lat="45.73646" lon="5.24339">
        <ele>228.4</ele>
        <time>2024-09-19T13:38:14Z</time>
      </trkpt>
      <trkpt lat="45.73649" lon="5.24335">
        <ele>228.4</ele>
        <time>2024-09-19T13:38:15Z</time>
      </trkpt>
      <trkpt lat="45.73652" lon="5.2433">
        <ele>228.8</ele>
        <time>2024-09-19T13:38:16Z</time>
      </trkpt>
      <trkpt lat="45.73655" lon="5.24325">
        <ele>228.8</ele>
        <time>2024-09-19T13:38:17Z</time>
      </trkpt>
      <trkpt lat="45.7366" lon="5.2432">
        <ele>228.8</ele>
        <time>2024-09-19T13:38:18Z</time>
      </trkpt>
      <trkpt lat="45.73663" lon="5.24315">
        <ele>228.8</ele>
        <time>2024-09-19T13:38:19Z</time>
      </trkpt>
      <trkpt lat="45.73666" lon="5.24309">
        <ele>228.8</ele>
        <time>2024-09-19T13:38:20Z</time>
      </trkpt>
      <trkpt lat="45.7367" lon="5.24303">
        <ele>228.8</ele>
        <time>2024-09-19T13:38:21Z</time>
      </trkpt>
      <trkpt lat="45.73673" lon="5.24296">
        <ele>228.4</ele>
        <time>2024-09-19T13:38:22Z</time>
      </trkpt>
      <trkpt lat="45.73674" lon="5.2429">
        <ele>228.4</ele>
        <time>2024-09-19T13:38:23Z</time>
      </trkpt>
      <trkpt lat="45.73677" lon="5.24283">
        <ele>228.4</ele>
        <time>2024-09-19T13:38:24Z</time>
      </trkpt>
      <trkpt lat="45.73679" lon="5.24277">
        <ele>228.8</ele>
        <time>2024-09-19T13:38:25Z</time>
      </trkpt>
      <trkpt lat="45.73681" lon="5.24271">
        <ele>228.8</ele>
        <time>2024-09-19T13:38:26Z</time>
      </trkpt>
      <trkpt lat="45.73683" lon="5.24265">
        <ele>229.2</ele>
        <time>2024-09-19T13:38:27Z</time>
      </trkpt>
      <trkpt lat="45.73685" lon="5.24259">
        <ele>229.4</ele>
        <time>2024-09-19T13:38:28Z</time>
      </trkpt>
      <trkpt lat="45.73685" lon="5.24252">
        <ele>229.8</ele>
        <time>2024-09-19T13:38:29Z</time>
      </trkpt>
      <trkpt lat="45.73686" lon="5.24246">
        <ele>229.8</ele>
        <time>2024-09-19T13:38:30Z</time>
      </trkpt>
      <trkpt lat="45.73687" lon="5.24241">
        <ele>229.8</ele>
        <time>2024-09-19T13:38:31Z</time>
      </trkpt>
      <trkpt lat="45.73686" lon="5.24234">
        <ele>230</ele>
        <time>2024-09-19T13:38:32Z</time>
      </trkpt>
      <trkpt lat="45.73687" lon="5.24228">
        <ele>230</ele>
        <time>2024-09-19T13:38:33Z</time>
      </trkpt>
      <trkpt lat="45.73687" lon="5.24222">
        <ele>229.8</ele>
        <time>2024-09-19T13:38:34Z</time>
      </trkpt>
      <trkpt lat="45.73687" lon="5.24215">
        <ele>229.8</ele>
        <time>2024-09-19T13:38:35Z</time>
      </trkpt>
      <trkpt lat="45.73687" lon="5.24206">
        <ele>229.8</ele>
        <time>2024-09-19T13:38:36Z</time>
      </trkpt>
      <trkpt lat="45.73686" lon="5.24197">
        <ele>229.4</ele>
        <time>2024-09-19T13:38:37Z</time>
      </trkpt>
      <trkpt lat="45.73685" lon="5.24187">
        <ele>229</ele>
        <time>2024-09-19T13:38:38Z</time>
      </trkpt>
      <trkpt lat="45.73685" lon="5.24177">
        <ele>228.4</ele>
        <time>2024-09-19T13:38:39Z</time>
      </trkpt>
      <trkpt lat="45.73684" lon="5.24167">
        <ele>227.6</ele>
        <time>2024-09-19T13:38:40Z</time>
      </trkpt>
      <trkpt lat="45.73685" lon="5.24155">
        <ele>227</ele>
        <time>2024-09-19T13:38:41Z</time>
      </trkpt>
      <trkpt lat="45.73685" lon="5.24144">
        <ele>226.8</ele>
        <time>2024-09-19T13:38:42Z</time>
      </trkpt>
      <trkpt lat="45.73685" lon="5.24134">
        <ele>226.4</ele>
        <time>2024-09-19T13:38:43Z</time>
      </trkpt>
      <trkpt lat="45.73686" lon="5.24123">
        <ele>226.4</ele>
        <time>2024-09-19T13:38:44Z</time>
      </trkpt>
      <trkpt lat="45.73686" lon="5.24112">
        <ele>226.4</ele>
        <time>2024-09-19T13:38:45Z</time>
      </trkpt>
      <trkpt lat="45.73686" lon="5.24112">
        <ele>226.6</ele>
        <time>2024-09-19T13:38:46Z</time>
      </trkpt>
      <trkpt lat="45.73684" lon="5.24103">
        <ele>226.6</ele>
        <time>2024-09-19T13:38:47Z</time>
      </trkpt>
      <trkpt lat="45.73684" lon="5.24092">
        <ele>227</ele>
        <time>2024-09-19T13:38:48Z</time>
      </trkpt>
      <trkpt lat="45.73685" lon="5.24082">
        <ele>226.8</ele>
        <time>2024-09-19T13:38:49Z</time>
      </trkpt>
      <trkpt lat="45.73686" lon="5.24071">
        <ele>226.8</ele>
        <time>2024-09-19T13:38:50Z</time>
      </trkpt>
      <trkpt lat="45.73686" lon="5.24062">
        <ele>226.8</ele>
        <time>2024-09-19T13:38:51Z</time>
      </trkpt>
      <trkpt lat="45.73687" lon="5.24052">
        <ele>226.8</ele>
        <time>2024-09-19T13:38:52Z</time>
      </trkpt>
      <trkpt lat="45.73687" lon="5.24042">
        <ele>226.8</ele>
        <time>2024-09-19T13:38:53Z</time>
      </trkpt>
      <trkpt lat="45.73686" lon="5.24032">
        <ele>226.8</ele>
        <time>2024-09-19T13:38:54Z</time>
      </trkpt>
      <trkpt lat="45.73685" lon="5.24022">
        <ele>226.4</ele>
        <time>2024-09-19T13:38:55Z</time>
      </trkpt>
      <trkpt lat="45.73683" lon="5.24012">
        <ele>226.4</ele>
        <time>2024-09-19T13:38:56Z</time>
      </trkpt>
      <trkpt lat="45.73683" lon="5.24003">
        <ele>226.4</ele>
        <time>2024-09-19T13:38:57Z</time>
      </trkpt>
      <trkpt lat="45.73683" lon="5.23993">
        <ele>226.4</ele>
        <time>2024-09-19T13:38:58Z</time>
      </trkpt>
      <trkpt lat="45.73682" lon="5.23983">
        <ele>226.4</ele>
        <time>2024-09-19T13:38:59Z</time>
      </trkpt>
      <trkpt lat="45.73681" lon="5.23974">
        <ele>226.4</ele>
        <time>2024-09-19T13:39:00Z</time>
      </trkpt>
      <trkpt lat="45.7368" lon="5.23963">
        <ele>226.4</ele>
        <time>2024-09-19T13:39:01Z</time>
      </trkpt>
      <trkpt lat="45.73679" lon="5.23953">
        <ele>226.2</ele>
        <time>2024-09-19T13:39:02Z</time>
      </trkpt>
      <trkpt lat="45.73678" lon="5.23943">
        <ele>226.2</ele>
        <time>2024-09-19T13:39:03Z</time>
      </trkpt>
      <trkpt lat="45.73676" lon="5.23924">
        <ele>225.8</ele>
        <time>2024-09-19T13:39:04Z</time>
      </trkpt>
      <trkpt lat="45.73675" lon="5.23914">
        <ele>224.4</ele>
        <time>2024-09-19T13:39:05Z</time>
      </trkpt>
      <trkpt lat="45.73674" lon="5.23905">
        <ele>224.6</ele>
        <time>2024-09-19T13:39:06Z</time>
      </trkpt>
      <trkpt lat="45.73673" lon="5.23896">
        <ele>225</ele>
        <time>2024-09-19T13:39:07Z</time>
      </trkpt>
      <trkpt lat="45.73673" lon="5.23887">
        <ele>225</ele>
        <time>2024-09-19T13:39:08Z</time>
      </trkpt>
      <trkpt lat="45.73672" lon="5.23879">
        <ele>225</ele>
        <time>2024-09-19T13:39:09Z</time>
      </trkpt>
      <trkpt lat="45.73671" lon="5.23872">
        <ele>225.6</ele>
        <time>2024-09-19T13:39:10Z</time>
      </trkpt>
      <trkpt lat="45.73671" lon="5.23865">
        <ele>225.6</ele>
        <time>2024-09-19T13:39:11Z</time>
      </trkpt>
      <trkpt lat="45.73673" lon="5.23861">
        <ele>225.8</ele>
        <time>2024-09-19T13:39:12Z</time>
      </trkpt>
      <trkpt lat="45.73674" lon="5.2386">
        <ele>226.2</ele>
        <time>2024-09-19T13:39:13Z</time>
      </trkpt>
      <trkpt lat="45.73675" lon="5.23859">
        <ele>226.4</ele>
        <time>2024-09-19T13:39:14Z</time>
      </trkpt>
      <trkpt lat="45.73677" lon="5.23859">
        <ele>226.4</ele>
        <time>2024-09-19T13:39:15Z</time>
      </trkpt>
      <trkpt lat="45.7368" lon="5.23859">
        <ele>226.6</ele>
        <time>2024-09-19T13:39:16Z</time>
      </trkpt>
      <trkpt lat="45.73682" lon="5.23861">
        <ele>226.6</ele>
        <time>2024-09-19T13:39:17Z</time>
      </trkpt>
      <trkpt lat="45.73685" lon="5.23863">
        <ele>226.6</ele>
        <time>2024-09-19T13:39:18Z</time>
      </trkpt>
      <trkpt lat="45.73687" lon="5.23865">
        <ele>226.6</ele>
        <time>2024-09-19T13:39:19Z</time>
      </trkpt>
      <trkpt lat="45.7369" lon="5.23868">
        <ele>226.8</ele>
        <time>2024-09-19T13:39:20Z</time>
      </trkpt>
      <trkpt lat="45.73693" lon="5.2387">
        <ele>226.8</ele>
        <time>2024-09-19T13:39:21Z</time>
      </trkpt>
      <trkpt lat="45.73696" lon="5.23873">
        <ele>226.4</ele>
        <time>2024-09-19T13:39:22Z</time>
      </trkpt>
      <trkpt lat="45.73699" lon="5.23875">
        <ele>226.4</ele>
        <time>2024-09-19T13:39:23Z</time>
      </trkpt>
      <trkpt lat="45.73703" lon="5.23878">
        <ele>226.4</ele>
        <time>2024-09-19T13:39:24Z</time>
      </trkpt>
      <trkpt lat="45.73706" lon="5.23882">
        <ele>226.4</ele>
        <time>2024-09-19T13:39:25Z</time>
      </trkpt>
      <trkpt lat="45.7371" lon="5.23885">
        <ele>226.4</ele>
        <time>2024-09-19T13:39:26Z</time>
      </trkpt>
      <trkpt lat="45.73714" lon="5.23888">
        <ele>226.4</ele>
        <time>2024-09-19T13:39:27Z</time>
      </trkpt>
      <trkpt lat="45.73718" lon="5.23892">
        <ele>226.4</ele>
        <time>2024-09-19T13:39:28Z</time>
      </trkpt>
      <trkpt lat="45.73722" lon="5.23895">
        <ele>226.4</ele>
        <time>2024-09-19T13:39:29Z</time>
      </trkpt>
      <trkpt lat="45.73727" lon="5.23898">
        <ele>226.2</ele>
        <time>2024-09-19T13:39:30Z</time>
      </trkpt>
      <trkpt lat="45.73731" lon="5.23902">
        <ele>226.2</ele>
        <time>2024-09-19T13:39:31Z</time>
      </trkpt>
      <trkpt lat="45.73736" lon="5.23905">
        <ele>226</ele>
        <time>2024-09-19T13:39:32Z</time>
      </trkpt>
      <trkpt lat="45.7374" lon="5.2391">
        <ele>226</ele>
        <time>2024-09-19T13:39:33Z</time>
      </trkpt>
      <trkpt lat="45.73744" lon="5.23914">
        <ele>226</ele>
        <time>2024-09-19T13:39:34Z</time>
      </trkpt>
      <trkpt lat="45.73749" lon="5.23917">
        <ele>226.4</ele>
        <time>2024-09-19T13:39:35Z</time>
      </trkpt>
      <trkpt lat="45.73752" lon="5.23921">
        <ele>226.4</ele>
        <time>2024-09-19T13:39:36Z</time>
      </trkpt>
      <trkpt lat="45.73757" lon="5.23924">
        <ele>226.4</ele>
        <time>2024-09-19T13:39:37Z</time>
      </trkpt>
      <trkpt lat="45.73761" lon="5.23928">
        <ele>226</ele>
        <time>2024-09-19T13:39:38Z</time>
      </trkpt>
      <trkpt lat="45.73766" lon="5.23932">
        <ele>226</ele>
        <time>2024-09-19T13:39:39Z</time>
      </trkpt>
      <trkpt lat="45.7377" lon="5.23936">
        <ele>226</ele>
        <time>2024-09-19T13:39:40Z</time>
      </trkpt>
      <trkpt lat="45.73774" lon="5.2394">
        <ele>226</ele>
        <time>2024-09-19T13:39:41Z</time>
      </trkpt>
      <trkpt lat="45.73778" lon="5.23945">
        <ele>226.2</ele>
        <time>2024-09-19T13:39:42Z</time>
      </trkpt>
      <trkpt lat="45.73782" lon="5.23949">
        <ele>226.2</ele>
        <time>2024-09-19T13:39:43Z</time>
      </trkpt>
      <trkpt lat="45.73786" lon="5.23954">
        <ele>226.2</ele>
        <time>2024-09-19T13:39:44Z</time>
      </trkpt>
      <trkpt lat="45.7379" lon="5.23958">
        <ele>226.4</ele>
        <time>2024-09-19T13:39:45Z</time>
      </trkpt>
      <trkpt lat="45.73794" lon="5.23962">
        <ele>226.4</ele>
        <time>2024-09-19T13:39:46Z</time>
      </trkpt>
      <trkpt lat="45.73799" lon="5.23967">
        <ele>226.4</ele>
        <time>2024-09-19T13:39:47Z</time>
      </trkpt>
      <trkpt lat="45.73803" lon="5.23971">
        <ele>226.4</ele>
        <time>2024-09-19T13:39:48Z</time>
      </trkpt>
      <trkpt lat="45.73807" lon="5.23975">
        <ele>226.4</ele>
        <time>2024-09-19T13:39:49Z</time>
      </trkpt>
      <trkpt lat="45.73812" lon="5.23979">
        <ele>226.4</ele>
        <time>2024-09-19T13:39:50Z</time>
      </trkpt>
      <trkpt lat="45.73816" lon="5.23983">
        <ele>226.4</ele>
        <time>2024-09-19T13:39:51Z</time>
      </trkpt>
      <trkpt lat="45.73821" lon="5.23987">
        <ele>226.4</ele>
        <time>2024-09-19T13:39:52Z</time>
      </trkpt>
      <trkpt lat="45.73826" lon="5.2399">
        <ele>226.4</ele>
        <time>2024-09-19T13:39:53Z</time>
      </trkpt>
      <trkpt lat="45.73831" lon="5.23992">
        <ele>226.4</ele>
        <time>2024-09-19T13:39:54Z</time>
      </trkpt>
      <trkpt lat="45.73836" lon="5.23995">
        <ele>226.4</ele>
        <time>2024-09-19T13:39:55Z</time>
      </trkpt>
      <trkpt lat="45.73841" lon="5.23996">
        <ele>226.4</ele>
        <time>2024-09-19T13:39:56Z</time>
      </trkpt>
      <trkpt lat="45.73847" lon="5.23999">
        <ele>226.4</ele>
        <time>2024-09-19T13:39:57Z</time>
      </trkpt>
      <trkpt lat="45.73853" lon="5.24001">
        <ele>226.4</ele>
        <time>2024-09-19T13:39:58Z</time>
      </trkpt>
      <trkpt lat="45.73858" lon="5.24002">
        <ele>226.4</ele>
        <time>2024-09-19T13:39:59Z</time>
      </trkpt>
      <trkpt lat="45.73864" lon="5.24004">
        <ele>226.2</ele>
        <time>2024-09-19T13:40:00Z</time>
      </trkpt>
      <trkpt lat="45.73869" lon="5.24005">
        <ele>226.2</ele>
        <time>2024-09-19T13:40:01Z</time>
      </trkpt>
      <trkpt lat="45.73875" lon="5.24007">
        <ele>225.8</ele>
        <time>2024-09-19T13:40:02Z</time>
      </trkpt>
      <trkpt lat="45.7388" lon="5.24008">
        <ele>225.8</ele>
        <time>2024-09-19T13:40:03Z</time>
      </trkpt>
      <trkpt lat="45.73886" lon="5.2401">
        <ele>225.8</ele>
        <time>2024-09-19T13:40:04Z</time>
      </trkpt>
      <trkpt lat="45.73891" lon="5.24013">
        <ele>225.6</ele>
        <time>2024-09-19T13:40:05Z</time>
      </trkpt>
      <trkpt lat="45.73896" lon="5.24017">
        <ele>225.6</ele>
        <time>2024-09-19T13:40:06Z</time>
      </trkpt>
      <trkpt lat="45.73901" lon="5.2402">
        <ele>225.6</ele>
        <time>2024-09-19T13:40:07Z</time>
      </trkpt>
      <trkpt lat="45.73906" lon="5.24025">
        <ele>225.6</ele>
        <time>2024-09-19T13:40:08Z</time>
      </trkpt>
      <trkpt lat="45.7391" lon="5.2403">
        <ele>225.6</ele>
        <time>2024-09-19T13:40:09Z</time>
      </trkpt>
      <trkpt lat="45.73914" lon="5.24036">
        <ele>225.6</ele>
        <time>2024-09-19T13:40:10Z</time>
      </trkpt>
      <trkpt lat="45.73918" lon="5.24041">
        <ele>225.6</ele>
        <time>2024-09-19T13:40:11Z</time>
      </trkpt>
      <trkpt lat="45.73922" lon="5.24047">
        <ele>226</ele>
        <time>2024-09-19T13:40:12Z</time>
      </trkpt>
      <trkpt lat="45.73926" lon="5.24053">
        <ele>226</ele>
        <time>2024-09-19T13:40:13Z</time>
      </trkpt>
      <trkpt lat="45.73929" lon="5.24059">
        <ele>226</ele>
        <time>2024-09-19T13:40:14Z</time>
      </trkpt>
      <trkpt lat="45.73932" lon="5.24065">
        <ele>226</ele>
        <time>2024-09-19T13:40:15Z</time>
      </trkpt>
      <trkpt lat="45.73936" lon="5.24071">
        <ele>226</ele>
        <time>2024-09-19T13:40:16Z</time>
      </trkpt>
      <trkpt lat="45.73939" lon="5.24078">
        <ele>226.2</ele>
        <time>2024-09-19T13:40:17Z</time>
      </trkpt>
      <trkpt lat="45.73942" lon="5.24084">
        <ele>226.2</ele>
        <time>2024-09-19T13:40:18Z</time>
      </trkpt>
      <trkpt lat="45.73945" lon="5.24091">
        <ele>226.4</ele>
        <time>2024-09-19T13:40:19Z</time>
      </trkpt>
      <trkpt lat="45.73949" lon="5.24097">
        <ele>226.4</ele>
        <time>2024-09-19T13:40:20Z</time>
      </trkpt>
      <trkpt lat="45.73953" lon="5.24103">
        <ele>226</ele>
        <time>2024-09-19T13:40:21Z</time>
      </trkpt>
      <trkpt lat="45.73955" lon="5.24109">
        <ele>226</ele>
        <time>2024-09-19T13:40:22Z</time>
      </trkpt>
      <trkpt lat="45.73959" lon="5.24115">
        <ele>225.8</ele>
        <time>2024-09-19T13:40:23Z</time>
      </trkpt>
      <trkpt lat="45.73962" lon="5.2412">
        <ele>225.8</ele>
        <time>2024-09-19T13:40:24Z</time>
      </trkpt>
      <trkpt lat="45.73965" lon="5.24125">
        <ele>225.8</ele>
        <time>2024-09-19T13:40:25Z</time>
      </trkpt>
      <trkpt lat="45.7397" lon="5.2413">
        <ele>225.8</ele>
        <time>2024-09-19T13:40:26Z</time>
      </trkpt>
      <trkpt lat="45.73974" lon="5.24135">
        <ele>225.8</ele>
        <time>2024-09-19T13:40:27Z</time>
      </trkpt>
      <trkpt lat="45.73978" lon="5.24139">
        <ele>225.6</ele>
        <time>2024-09-19T13:40:28Z</time>
      </trkpt>
      <trkpt lat="45.73981" lon="5.24146">
        <ele>225.6</ele>
        <time>2024-09-19T13:40:29Z</time>
      </trkpt>
      <trkpt lat="45.73984" lon="5.24151">
        <ele>225.6</ele>
        <time>2024-09-19T13:40:30Z</time>
      </trkpt>
      <trkpt lat="45.73987" lon="5.24158">
        <ele>225.4</ele>
        <time>2024-09-19T13:40:31Z</time>
      </trkpt>
      <trkpt lat="45.7399" lon="5.24164">
        <ele>225.4</ele>
        <time>2024-09-19T13:40:32Z</time>
      </trkpt>
      <trkpt lat="45.73993" lon="5.2417">
        <ele>225.4</ele>
        <time>2024-09-19T13:40:33Z</time>
      </trkpt>
      <trkpt lat="45.73996" lon="5.24177">
        <ele>225.4</ele>
        <time>2024-09-19T13:40:34Z</time>
      </trkpt>
      <trkpt lat="45.73999" lon="5.24183">
        <ele>225.4</ele>
        <time>2024-09-19T13:40:35Z</time>
      </trkpt>
      <trkpt lat="45.74002" lon="5.2419">
        <ele>225.4</ele>
        <time>2024-09-19T13:40:36Z</time>
      </trkpt>
      <trkpt lat="45.74005" lon="5.24196">
        <ele>225.4</ele>
        <time>2024-09-19T13:40:37Z</time>
      </trkpt>
      <trkpt lat="45.74008" lon="5.24204">
        <ele>225.6</ele>
        <time>2024-09-19T13:40:38Z</time>
      </trkpt>
      <trkpt lat="45.74011" lon="5.2421">
        <ele>226</ele>
        <time>2024-09-19T13:40:39Z</time>
      </trkpt>
      <trkpt lat="45.74013" lon="5.24215">
        <ele>226</ele>
        <time>2024-09-19T13:40:40Z</time>
      </trkpt>
      <trkpt lat="45.74016" lon="5.24221">
        <ele>226</ele>
        <time>2024-09-19T13:40:41Z</time>
      </trkpt>
      <trkpt lat="45.74019" lon="5.24226">
        <ele>226</ele>
        <time>2024-09-19T13:40:42Z</time>
      </trkpt>
      <trkpt lat="45.74021" lon="5.24231">
        <ele>226.4</ele>
        <time>2024-09-19T13:40:43Z</time>
      </trkpt>
      <trkpt lat="45.74023" lon="5.24236">
        <ele>226.4</ele>
        <time>2024-09-19T13:40:44Z</time>
      </trkpt>
      <trkpt lat="45.74026" lon="5.24239">
        <ele>226.6</ele>
        <time>2024-09-19T13:40:45Z</time>
      </trkpt>
      <trkpt lat="45.7403" lon="5.24243">
        <ele>226.8</ele>
        <time>2024-09-19T13:40:46Z</time>
      </trkpt>
      <trkpt lat="45.74032" lon="5.24248">
        <ele>226.8</ele>
        <time>2024-09-19T13:40:47Z</time>
      </trkpt>
      <trkpt lat="45.74033" lon="5.24251">
        <ele>227.2</ele>
        <time>2024-09-19T13:40:48Z</time>
      </trkpt>
      <trkpt lat="45.74035" lon="5.24255">
        <ele>227.4</ele>
        <time>2024-09-19T13:40:49Z</time>
      </trkpt>
      <trkpt lat="45.74038" lon="5.24259">
        <ele>227.8</ele>
        <time>2024-09-19T13:40:50Z</time>
      </trkpt>
      <trkpt lat="45.74041" lon="5.24263">
        <ele>228.2</ele>
        <time>2024-09-19T13:40:51Z</time>
      </trkpt>
      <trkpt lat="45.74044" lon="5.24266">
        <ele>228.4</ele>
        <time>2024-09-19T13:40:52Z</time>
      </trkpt>
      <trkpt lat="45.74046" lon="5.2427">
        <ele>228.8</ele>
        <time>2024-09-19T13:40:53Z</time>
      </trkpt>
      <trkpt lat="45.74048" lon="5.24273">
        <ele>229.2</ele>
        <time>2024-09-19T13:40:54Z</time>
      </trkpt>
      <trkpt lat="45.7405" lon="5.24276">
        <ele>229.6</ele>
        <time>2024-09-19T13:40:55Z</time>
      </trkpt>
      <trkpt lat="45.74052" lon="5.24279">
        <ele>230</ele>
        <time>2024-09-19T13:40:56Z</time>
      </trkpt>
      <trkpt lat="45.74054" lon="5.24281">
        <ele>230.2</ele>
        <time>2024-09-19T13:40:57Z</time>
      </trkpt>
      <trkpt lat="45.74056" lon="5.24284">
        <ele>230.6</ele>
        <time>2024-09-19T13:40:58Z</time>
      </trkpt>
      <trkpt lat="45.74058" lon="5.24286">
        <ele>230.8</ele>
        <time>2024-09-19T13:40:59Z</time>
      </trkpt>
      <trkpt lat="45.7406" lon="5.24288">
        <ele>230.8</ele>
        <time>2024-09-19T13:41:00Z</time>
      </trkpt>
      <trkpt lat="45.74063" lon="5.24291">
        <ele>231.2</ele>
        <time>2024-09-19T13:41:01Z</time>
      </trkpt>
      <trkpt lat="45.74065" lon="5.24293">
        <ele>231.2</ele>
        <time>2024-09-19T13:41:02Z</time>
      </trkpt>
      <trkpt lat="45.74067" lon="5.24295">
        <ele>231.4</ele>
        <time>2024-09-19T13:41:03Z</time>
      </trkpt>
      <trkpt lat="45.74069" lon="5.24297">
        <ele>231.4</ele>
        <time>2024-09-19T13:41:04Z</time>
      </trkpt>
      <trkpt lat="45.74071" lon="5.24299">
        <ele>231.8</ele>
        <time>2024-09-19T13:41:05Z</time>
      </trkpt>
      <trkpt lat="45.74073" lon="5.24302">
        <ele>232</ele>
        <time>2024-09-19T13:41:06Z</time>
      </trkpt>
      <trkpt lat="45.74075" lon="5.24305">
        <ele>232</ele>
        <time>2024-09-19T13:41:07Z</time>
      </trkpt>
      <trkpt lat="45.74077" lon="5.24308">
        <ele>232.4</ele>
        <time>2024-09-19T13:41:08Z</time>
      </trkpt>
      <trkpt lat="45.74078" lon="5.24311">
        <ele>232.6</ele>
        <time>2024-09-19T13:41:09Z</time>
      </trkpt>
      <trkpt lat="45.7408" lon="5.24314">
        <ele>232.6</ele>
        <time>2024-09-19T13:41:10Z</time>
      </trkpt>
      <trkpt lat="45.74081" lon="5.24317">
        <ele>233</ele>
        <time>2024-09-19T13:41:11Z</time>
      </trkpt>
      <trkpt lat="45.74081" lon="5.24321">
        <ele>233</ele>
        <time>2024-09-19T13:41:12Z</time>
      </trkpt>
      <trkpt lat="45.74082" lon="5.24326">
        <ele>233</ele>
        <time>2024-09-19T13:41:13Z</time>
      </trkpt>
      <trkpt lat="45.74082" lon="5.2433">
        <ele>233</ele>
        <time>2024-09-19T13:41:14Z</time>
      </trkpt>
      <trkpt lat="45.74082" lon="5.24335">
        <ele>233</ele>
        <time>2024-09-19T13:41:15Z</time>
      </trkpt>
      <trkpt lat="45.74081" lon="5.2434">
        <ele>233</ele>
        <time>2024-09-19T13:41:16Z</time>
      </trkpt>
      <trkpt lat="45.74081" lon="5.24345">
        <ele>233</ele>
        <time>2024-09-19T13:41:17Z</time>
      </trkpt>
      <trkpt lat="45.74081" lon="5.24351">
        <ele>233</ele>
        <time>2024-09-19T13:41:18Z</time>
      </trkpt>
      <trkpt lat="45.7408" lon="5.24357">
        <ele>232.8</ele>
        <time>2024-09-19T13:41:19Z</time>
      </trkpt>
      <trkpt lat="45.7408" lon="5.24364">
        <ele>232.8</ele>
        <time>2024-09-19T13:41:20Z</time>
      </trkpt>
      <trkpt lat="45.7408" lon="5.24371">
        <ele>232.8</ele>
        <time>2024-09-19T13:41:21Z</time>
      </trkpt>
      <trkpt lat="45.7408" lon="5.24379">
        <ele>232.6</ele>
        <time>2024-09-19T13:41:22Z</time>
      </trkpt>
      <trkpt lat="45.7408" lon="5.24386">
        <ele>232.6</ele>
        <time>2024-09-19T13:41:23Z</time>
      </trkpt>
      <trkpt lat="45.74079" lon="5.24393">
        <ele>232.6</ele>
        <time>2024-09-19T13:41:24Z</time>
      </trkpt>
      <trkpt lat="45.74079" lon="5.24401">
        <ele>232.6</ele>
        <time>2024-09-19T13:41:25Z</time>
      </trkpt>
      <trkpt lat="45.74079" lon="5.24409">
        <ele>232.2</ele>
        <time>2024-09-19T13:41:26Z</time>
      </trkpt>
      <trkpt lat="45.74078" lon="5.24416">
        <ele>231.8</ele>
        <time>2024-09-19T13:41:27Z</time>
      </trkpt>
      <trkpt lat="45.74078" lon="5.24422">
        <ele>231.8</ele>
        <time>2024-09-19T13:41:28Z</time>
      </trkpt>
      <trkpt lat="45.74079" lon="5.2443">
        <ele>231.8</ele>
        <time>2024-09-19T13:41:29Z</time>
      </trkpt>
      <trkpt lat="45.7408" lon="5.24437">
        <ele>231.8</ele>
        <time>2024-09-19T13:41:30Z</time>
      </trkpt>
      <trkpt lat="45.7408" lon="5.24444">
        <ele>231.8</ele>
        <time>2024-09-19T13:41:31Z</time>
      </trkpt>
      <trkpt lat="45.74081" lon="5.24451">
        <ele>231.8</ele>
        <time>2024-09-19T13:41:32Z</time>
      </trkpt>
      <trkpt lat="45.74082" lon="5.24458">
        <ele>231.8</ele>
        <time>2024-09-19T13:41:33Z</time>
      </trkpt>
      <trkpt lat="45.74083" lon="5.24464">
        <ele>232</ele>
        <time>2024-09-19T13:41:34Z</time>
      </trkpt>
      <trkpt lat="45.74083" lon="5.24472">
        <ele>232</ele>
        <time>2024-09-19T13:41:35Z</time>
      </trkpt>
      <trkpt lat="45.74084" lon="5.24479">
        <ele>232.2</ele>
        <time>2024-09-19T13:41:36Z</time>
      </trkpt>
      <trkpt lat="45.74085" lon="5.24486">
        <ele>232.4</ele>
        <time>2024-09-19T13:41:37Z</time>
      </trkpt>
      <trkpt lat="45.74086" lon="5.24493">
        <ele>232.4</ele>
        <time>2024-09-19T13:41:38Z</time>
      </trkpt>
      <trkpt lat="45.74088" lon="5.245">
        <ele>232.4</ele>
        <time>2024-09-19T13:41:39Z</time>
      </trkpt>
      <trkpt lat="45.7409" lon="5.24505">
        <ele>232.4</ele>
        <time>2024-09-19T13:41:40Z</time>
      </trkpt>
      <trkpt lat="45.74091" lon="5.24511">
        <ele>232.2</ele>
        <time>2024-09-19T13:41:41Z</time>
      </trkpt>
      <trkpt lat="45.74093" lon="5.24517">
        <ele>232.2</ele>
        <time>2024-09-19T13:41:42Z</time>
      </trkpt>
      <trkpt lat="45.74097" lon="5.24523">
        <ele>231.8</ele>
        <time>2024-09-19T13:41:43Z</time>
      </trkpt>
      <trkpt lat="45.74099" lon="5.2453">
        <ele>231.8</ele>
        <time>2024-09-19T13:41:44Z</time>
      </trkpt>
      <trkpt lat="45.74103" lon="5.24536">
        <ele>231.8</ele>
        <time>2024-09-19T13:41:45Z</time>
      </trkpt>
      <trkpt lat="45.74107" lon="5.24541">
        <ele>231.6</ele>
        <time>2024-09-19T13:41:46Z</time>
      </trkpt>
      <trkpt lat="45.74111" lon="5.24547">
        <ele>231.6</ele>
        <time>2024-09-19T13:41:47Z</time>
      </trkpt>
      <trkpt lat="45.74115" lon="5.24552">
        <ele>231.6</ele>
        <time>2024-09-19T13:41:48Z</time>
      </trkpt>
      <trkpt lat="45.74119" lon="5.24557">
        <ele>231.6</ele>
        <time>2024-09-19T13:41:49Z</time>
      </trkpt>
      <trkpt lat="45.74123" lon="5.24563">
        <ele>231.6</ele>
        <time>2024-09-19T13:41:50Z</time>
      </trkpt>
      <trkpt lat="45.74127" lon="5.24569">
        <ele>231.6</ele>
        <time>2024-09-19T13:41:51Z</time>
      </trkpt>
      <trkpt lat="45.74131" lon="5.24576">
        <ele>231.4</ele>
        <time>2024-09-19T13:41:52Z</time>
      </trkpt>
      <trkpt lat="45.74135" lon="5.24582">
        <ele>231.4</ele>
        <time>2024-09-19T13:41:53Z</time>
      </trkpt>
      <trkpt lat="45.74139" lon="5.24588">
        <ele>231.4</ele>
        <time>2024-09-19T13:41:54Z</time>
      </trkpt>
      <trkpt lat="45.74143" lon="5.24595">
        <ele>231.4</ele>
        <time>2024-09-19T13:41:55Z</time>
      </trkpt>
      <trkpt lat="45.74147" lon="5.246">
        <ele>231.4</ele>
        <time>2024-09-19T13:41:56Z</time>
      </trkpt>
      <trkpt lat="45.7415" lon="5.24606">
        <ele>231.4</ele>
        <time>2024-09-19T13:41:57Z</time>
      </trkpt>
      <trkpt lat="45.74154" lon="5.24612">
        <ele>230.8</ele>
        <time>2024-09-19T13:41:58Z</time>
      </trkpt>
      <trkpt lat="45.74154" lon="5.24612">
        <ele>230.8</ele>
        <time>2024-09-19T13:41:59Z</time>
      </trkpt>
      <trkpt lat="45.74157" lon="5.24617">
        <ele>231.2</ele>
        <time>2024-09-19T13:42:00Z</time>
      </trkpt>
      <trkpt lat="45.74161" lon="5.24621">
        <ele>231.2</ele>
        <time>2024-09-19T13:42:01Z</time>
      </trkpt>
      <trkpt lat="45.74166" lon="5.24625">
        <ele>231.4</ele>
        <time>2024-09-19T13:42:02Z</time>
      </trkpt>
      <trkpt lat="45.74171" lon="5.24629">
        <ele>231.4</ele>
        <time>2024-09-19T13:42:03Z</time>
      </trkpt>
      <trkpt lat="45.74177" lon="5.24629">
        <ele>231.8</ele>
        <time>2024-09-19T13:42:04Z</time>
      </trkpt>
      <trkpt lat="45.74181" lon="5.24632">
        <ele>231.8</ele>
        <time>2024-09-19T13:42:05Z</time>
      </trkpt>
      <trkpt lat="45.74186" lon="5.24634">
        <ele>231.8</ele>
        <time>2024-09-19T13:42:06Z</time>
      </trkpt>
      <trkpt lat="45.74191" lon="5.24636">
        <ele>231.6</ele>
        <time>2024-09-19T13:42:07Z</time>
      </trkpt>
      <trkpt lat="45.74196" lon="5.24637">
        <ele>231.4</ele>
        <time>2024-09-19T13:42:08Z</time>
      </trkpt>
      <trkpt lat="45.74202" lon="5.24638">
        <ele>231.4</ele>
        <time>2024-09-19T13:42:09Z</time>
      </trkpt>
      <trkpt lat="45.74207" lon="5.24638">
        <ele>231.4</ele>
        <time>2024-09-19T13:42:10Z</time>
      </trkpt>
      <trkpt lat="45.74211" lon="5.24639">
        <ele>231.4</ele>
        <time>2024-09-19T13:42:11Z</time>
      </trkpt>
      <trkpt lat="45.74216" lon="5.2464">
        <ele>231</ele>
        <time>2024-09-19T13:42:12Z</time>
      </trkpt>
      <trkpt lat="45.74221" lon="5.24641">
        <ele>231</ele>
        <time>2024-09-19T13:42:13Z</time>
      </trkpt>
      <trkpt lat="45.74232" lon="5.24645">
        <ele>231</ele>
        <time>2024-09-19T13:42:14Z</time>
      </trkpt>
      <trkpt lat="45.74237" lon="5.24648">
        <ele>231</ele>
        <time>2024-09-19T13:42:15Z</time>
      </trkpt>
      <trkpt lat="45.74242" lon="5.24651">
        <ele>231</ele>
        <time>2024-09-19T13:42:16Z</time>
      </trkpt>
      <trkpt lat="45.74247" lon="5.24654">
        <ele>231</ele>
        <time>2024-09-19T13:42:17Z</time>
      </trkpt>
      <trkpt lat="45.74253" lon="5.24656">
        <ele>231</ele>
        <time>2024-09-19T13:42:18Z</time>
      </trkpt>
      <trkpt lat="45.74259" lon="5.24658">
        <ele>231</ele>
        <time>2024-09-19T13:42:19Z</time>
      </trkpt>
      <trkpt lat="45.74265" lon="5.24658">
        <ele>231</ele>
        <time>2024-09-19T13:42:20Z</time>
      </trkpt>
      <trkpt lat="45.74271" lon="5.24656">
        <ele>231</ele>
        <time>2024-09-19T13:42:21Z</time>
      </trkpt>
      <trkpt lat="45.74276" lon="5.24651">
        <ele>231</ele>
        <time>2024-09-19T13:42:22Z</time>
      </trkpt>
      <trkpt lat="45.7428" lon="5.24645">
        <ele>230.8</ele>
        <time>2024-09-19T13:42:23Z</time>
      </trkpt>
      <trkpt lat="45.74283" lon="5.24638">
        <ele>230.8</ele>
        <time>2024-09-19T13:42:24Z</time>
      </trkpt>
      <trkpt lat="45.74287" lon="5.24632">
        <ele>230.8</ele>
        <time>2024-09-19T13:42:25Z</time>
      </trkpt>
      <trkpt lat="45.74291" lon="5.24628">
        <ele>230.8</ele>
        <time>2024-09-19T13:42:26Z</time>
      </trkpt>
      <trkpt lat="45.74297" lon="5.24626">
        <ele>230.8</ele>
        <time>2024-09-19T13:42:27Z</time>
      </trkpt>
      <trkpt lat="45.74302" lon="5.24623">
        <ele>230.8</ele>
        <time>2024-09-19T13:42:28Z</time>
      </trkpt>
      <trkpt lat="45.74309" lon="5.24622">
        <ele>230.4</ele>
        <time>2024-09-19T13:42:29Z</time>
      </trkpt>
      <trkpt lat="45.74315" lon="5.24619">
        <ele>230.2</ele>
        <time>2024-09-19T13:42:30Z</time>
      </trkpt>
      <trkpt lat="45.74321" lon="5.24616">
        <ele>230</ele>
        <time>2024-09-19T13:42:31Z</time>
      </trkpt>
      <trkpt lat="45.74328" lon="5.24613">
        <ele>229.6</ele>
        <time>2024-09-19T13:42:32Z</time>
      </trkpt>
      <trkpt lat="45.74333" lon="5.24613">
        <ele>229.4</ele>
        <time>2024-09-19T13:42:33Z</time>
      </trkpt>
      <trkpt lat="45.7434" lon="5.24614">
        <ele>229.4</ele>
        <time>2024-09-19T13:42:34Z</time>
      </trkpt>
      <trkpt lat="45.74345" lon="5.24617">
        <ele>228.6</ele>
        <time>2024-09-19T13:42:35Z</time>
      </trkpt>
      <trkpt lat="45.74351" lon="5.2462">
        <ele>228.6</ele>
        <time>2024-09-19T13:42:36Z</time>
      </trkpt>
      <trkpt lat="45.74357" lon="5.24622">
        <ele>228.8</ele>
        <time>2024-09-19T13:42:37Z</time>
      </trkpt>
      <trkpt lat="45.74363" lon="5.24623">
        <ele>228.8</ele>
        <time>2024-09-19T13:42:38Z</time>
      </trkpt>
      <trkpt lat="45.74369" lon="5.24623">
        <ele>228.8</ele>
        <time>2024-09-19T13:42:39Z</time>
      </trkpt>
      <trkpt lat="45.74375" lon="5.24622">
        <ele>228.8</ele>
        <time>2024-09-19T13:42:40Z</time>
      </trkpt>
      <trkpt lat="45.7438" lon="5.24619">
        <ele>228.8</ele>
        <time>2024-09-19T13:42:41Z</time>
      </trkpt>
      <trkpt lat="45.74386" lon="5.24617">
        <ele>229</ele>
        <time>2024-09-19T13:42:42Z</time>
      </trkpt>
      <trkpt lat="45.74392" lon="5.24615">
        <ele>229</ele>
        <time>2024-09-19T13:42:43Z</time>
      </trkpt>
      <trkpt lat="45.74399" lon="5.24613">
        <ele>228.4</ele>
        <time>2024-09-19T13:42:44Z</time>
      </trkpt>
      <trkpt lat="45.74405" lon="5.24609">
        <ele>227.8</ele>
        <time>2024-09-19T13:42:45Z</time>
      </trkpt>
      <trkpt lat="45.74411" lon="5.24606">
        <ele>226.4</ele>
        <time>2024-09-19T13:42:46Z</time>
      </trkpt>
      <trkpt lat="45.74418" lon="5.24604">
        <ele>226.4</ele>
        <time>2024-09-19T13:42:47Z</time>
      </trkpt>
      <trkpt lat="45.74424" lon="5.24604">
        <ele>226.4</ele>
        <time>2024-09-19T13:42:48Z</time>
      </trkpt>
      <trkpt lat="45.74431" lon="5.24605">
        <ele>226.2</ele>
        <time>2024-09-19T13:42:49Z</time>
      </trkpt>
      <trkpt lat="45.74438" lon="5.24605">
        <ele>226.2</ele>
        <time>2024-09-19T13:42:50Z</time>
      </trkpt>
      <trkpt lat="45.74445" lon="5.24606">
        <ele>226.2</ele>
        <time>2024-09-19T13:42:51Z</time>
      </trkpt>
      <trkpt lat="45.74451" lon="5.24607">
        <ele>226.2</ele>
        <time>2024-09-19T13:42:52Z</time>
      </trkpt>
      <trkpt lat="45.74458" lon="5.24607">
        <ele>226.2</ele>
        <time>2024-09-19T13:42:53Z</time>
      </trkpt>
      <trkpt lat="45.74464" lon="5.24606">
        <ele>226.2</ele>
        <time>2024-09-19T13:42:54Z</time>
      </trkpt>
      <trkpt lat="45.74471" lon="5.24604">
        <ele>226.2</ele>
        <time>2024-09-19T13:42:55Z</time>
      </trkpt>
      <trkpt lat="45.74478" lon="5.24602">
        <ele>226.2</ele>
        <time>2024-09-19T13:42:56Z</time>
      </trkpt>
      <trkpt lat="45.74483" lon="5.24597">
        <ele>225.8</ele>
        <time>2024-09-19T13:42:57Z</time>
      </trkpt>
      <trkpt lat="45.7449" lon="5.24594">
        <ele>225.8</ele>
        <time>2024-09-19T13:42:58Z</time>
      </trkpt>
      <trkpt lat="45.74499" lon="5.24593">
        <ele>225.6</ele>
        <time>2024-09-19T13:42:59Z</time>
      </trkpt>
      <trkpt lat="45.74506" lon="5.24592">
        <ele>225.2</ele>
        <time>2024-09-19T13:43:00Z</time>
      </trkpt>
      <trkpt lat="45.74512" lon="5.24589">
        <ele>224.8</ele>
        <time>2024-09-19T13:43:01Z</time>
      </trkpt>
      <trkpt lat="45.74519" lon="5.24585">
        <ele>224.4</ele>
        <time>2024-09-19T13:43:02Z</time>
      </trkpt>
      <trkpt lat="45.74525" lon="5.24582">
        <ele>224.4</ele>
        <time>2024-09-19T13:43:03Z</time>
      </trkpt>
      <trkpt lat="45.74529" lon="5.24579">
        <ele>224.4</ele>
        <time>2024-09-19T13:43:04Z</time>
      </trkpt>
      <trkpt lat="45.74534" lon="5.24574">
        <ele>224.4</ele>
        <time>2024-09-19T13:43:05Z</time>
      </trkpt>
      <trkpt lat="45.74541" lon="5.24571">
        <ele>224.4</ele>
        <time>2024-09-19T13:43:06Z</time>
      </trkpt>
      <trkpt lat="45.74547" lon="5.24569">
        <ele>224.4</ele>
        <time>2024-09-19T13:43:07Z</time>
      </trkpt>
      <trkpt lat="45.74552" lon="5.24567">
        <ele>224.2</ele>
        <time>2024-09-19T13:43:08Z</time>
      </trkpt>
      <trkpt lat="45.74558" lon="5.24566">
        <ele>224</ele>
        <time>2024-09-19T13:43:09Z</time>
      </trkpt>
      <trkpt lat="45.74564" lon="5.24564">
        <ele>224</ele>
        <time>2024-09-19T13:43:10Z</time>
      </trkpt>
      <trkpt lat="45.74571" lon="5.24563">
        <ele>224.2</ele>
        <time>2024-09-19T13:43:11Z</time>
      </trkpt>
      <trkpt lat="45.74577" lon="5.24562">
        <ele>224.2</ele>
        <time>2024-09-19T13:43:12Z</time>
      </trkpt>
      <trkpt lat="45.74584" lon="5.24562">
        <ele>224.6</ele>
        <time>2024-09-19T13:43:13Z</time>
      </trkpt>
      <trkpt lat="45.7459" lon="5.24564">
        <ele>224.6</ele>
        <time>2024-09-19T13:43:14Z</time>
      </trkpt>
      <trkpt lat="45.74594" lon="5.24566">
        <ele>225</ele>
        <time>2024-09-19T13:43:15Z</time>
      </trkpt>
      <trkpt lat="45.746" lon="5.24569">
        <ele>225</ele>
        <time>2024-09-19T13:43:16Z</time>
      </trkpt>
      <trkpt lat="45.74605" lon="5.24573">
        <ele>225.4</ele>
        <time>2024-09-19T13:43:17Z</time>
      </trkpt>
      <trkpt lat="45.7461" lon="5.24577">
        <ele>225.4</ele>
        <time>2024-09-19T13:43:18Z</time>
      </trkpt>
      <trkpt lat="45.74613" lon="5.24582">
        <ele>225.8</ele>
        <time>2024-09-19T13:43:19Z</time>
      </trkpt>
      <trkpt lat="45.74617" lon="5.24587">
        <ele>225.8</ele>
        <time>2024-09-19T13:43:20Z</time>
      </trkpt>
      <trkpt lat="45.7462" lon="5.24591">
        <ele>226.2</ele>
        <time>2024-09-19T13:43:21Z</time>
      </trkpt>
      <trkpt lat="45.74623" lon="5.24594">
        <ele>226.2</ele>
        <time>2024-09-19T13:43:22Z</time>
      </trkpt>
      <trkpt lat="45.74625" lon="5.24597">
        <ele>226.8</ele>
        <time>2024-09-19T13:43:23Z</time>
      </trkpt>
      <trkpt lat="45.74628" lon="5.246">
        <ele>227.2</ele>
        <time>2024-09-19T13:43:24Z</time>
      </trkpt>
      <trkpt lat="45.7463" lon="5.24603">
        <ele>227.8</ele>
        <time>2024-09-19T13:43:25Z</time>
      </trkpt>
      <trkpt lat="45.74633" lon="5.24604">
        <ele>228</ele>
        <time>2024-09-19T13:43:26Z</time>
      </trkpt>
      <trkpt lat="45.74635" lon="5.24608">
        <ele>228.4</ele>
        <time>2024-09-19T13:43:27Z</time>
      </trkpt>
      <trkpt lat="45.74639" lon="5.24609">
        <ele>228.8</ele>
        <time>2024-09-19T13:43:28Z</time>
      </trkpt>
      <trkpt lat="45.74642" lon="5.24611">
        <ele>229</ele>
        <time>2024-09-19T13:43:29Z</time>
      </trkpt>
      <trkpt lat="45.74645" lon="5.24611">
        <ele>229</ele>
        <time>2024-09-19T13:43:30Z</time>
      </trkpt>
      <trkpt lat="45.74647" lon="5.24612">
        <ele>229</ele>
        <time>2024-09-19T13:43:31Z</time>
      </trkpt>
      <trkpt lat="45.7465" lon="5.24614">
        <ele>229.2</ele>
        <time>2024-09-19T13:43:32Z</time>
      </trkpt>
      <trkpt lat="45.74653" lon="5.24615">
        <ele>229.2</ele>
        <time>2024-09-19T13:43:33Z</time>
      </trkpt>
      <trkpt lat="45.74656" lon="5.24616">
        <ele>230.4</ele>
        <time>2024-09-19T13:43:34Z</time>
      </trkpt>
      <trkpt lat="45.7466" lon="5.24618">
        <ele>230.6</ele>
        <time>2024-09-19T13:43:35Z</time>
      </trkpt>
      <trkpt lat="45.74663" lon="5.2462">
        <ele>230.6</ele>
        <time>2024-09-19T13:43:36Z</time>
      </trkpt>
      <trkpt lat="45.74666" lon="5.24621">
        <ele>230.6</ele>
        <time>2024-09-19T13:43:37Z</time>
      </trkpt>
      <trkpt lat="45.74669" lon="5.24623">
        <ele>230.6</ele>
        <time>2024-09-19T13:43:38Z</time>
      </trkpt>
      <trkpt lat="45.74672" lon="5.24625">
        <ele>230.8</ele>
        <time>2024-09-19T13:43:39Z</time>
      </trkpt>
      <trkpt lat="45.74675" lon="5.24627">
        <ele>230.8</ele>
        <time>2024-09-19T13:43:40Z</time>
      </trkpt>
      <trkpt lat="45.74677" lon="5.2463">
        <ele>231.2</ele>
        <time>2024-09-19T13:43:41Z</time>
      </trkpt>
      <trkpt lat="45.7468" lon="5.24632">
        <ele>231.2</ele>
        <time>2024-09-19T13:43:42Z</time>
      </trkpt>
      <trkpt lat="45.74682" lon="5.24633">
        <ele>231.2</ele>
        <time>2024-09-19T13:43:43Z</time>
      </trkpt>
      <trkpt lat="45.74685" lon="5.24635">
        <ele>231.4</ele>
        <time>2024-09-19T13:43:44Z</time>
      </trkpt>
      <trkpt lat="45.74687" lon="5.24637">
        <ele>231.6</ele>
        <time>2024-09-19T13:43:45Z</time>
      </trkpt>
      <trkpt lat="45.74689" lon="5.24639">
        <ele>231.6</ele>
        <time>2024-09-19T13:43:46Z</time>
      </trkpt>
      <trkpt lat="45.74692" lon="5.24641">
        <ele>231.6</ele>
        <time>2024-09-19T13:43:47Z</time>
      </trkpt>
      <trkpt lat="45.74694" lon="5.24643">
        <ele>231.6</ele>
        <time>2024-09-19T13:43:48Z</time>
      </trkpt>
      <trkpt lat="45.74697" lon="5.24646">
        <ele>232</ele>
        <time>2024-09-19T13:43:49Z</time>
      </trkpt>
      <trkpt lat="45.74699" lon="5.24649">
        <ele>232</ele>
        <time>2024-09-19T13:43:50Z</time>
      </trkpt>
      <trkpt lat="45.74702" lon="5.24653">
        <ele>232</ele>
        <time>2024-09-19T13:43:51Z</time>
      </trkpt>
      <trkpt lat="45.74705" lon="5.24658">
        <ele>232</ele>
        <time>2024-09-19T13:43:52Z</time>
      </trkpt>
      <trkpt lat="45.74708" lon="5.24663">
        <ele>231.2</ele>
        <time>2024-09-19T13:43:53Z</time>
      </trkpt>
      <trkpt lat="45.74711" lon="5.24667">
        <ele>231</ele>
        <time>2024-09-19T13:43:54Z</time>
      </trkpt>
      <trkpt lat="45.74714" lon="5.24673">
        <ele>230.6</ele>
        <time>2024-09-19T13:43:55Z</time>
      </trkpt>
      <trkpt lat="45.74716" lon="5.2468">
        <ele>230.6</ele>
        <time>2024-09-19T13:43:56Z</time>
      </trkpt>
      <trkpt lat="45.74718" lon="5.24685">
        <ele>230.2</ele>
        <time>2024-09-19T13:43:57Z</time>
      </trkpt>
      <trkpt lat="45.74722" lon="5.24691">
        <ele>230</ele>
        <time>2024-09-19T13:43:58Z</time>
      </trkpt>
      <trkpt lat="45.74727" lon="5.24695">
        <ele>229.4</ele>
        <time>2024-09-19T13:43:59Z</time>
      </trkpt>
      <trkpt lat="45.74733" lon="5.24697">
        <ele>229</ele>
        <time>2024-09-19T13:44:00Z</time>
      </trkpt>
      <trkpt lat="45.74738" lon="5.24697">
        <ele>228.6</ele>
        <time>2024-09-19T13:44:01Z</time>
      </trkpt>
      <trkpt lat="45.74744" lon="5.24697">
        <ele>228.6</ele>
        <time>2024-09-19T13:44:02Z</time>
      </trkpt>
      <trkpt lat="45.74747" lon="5.24698">
        <ele>228.6</ele>
        <time>2024-09-19T13:44:03Z</time>
      </trkpt>
      <trkpt lat="45.74749" lon="5.24698">
        <ele>228.6</ele>
        <time>2024-09-19T13:44:04Z</time>
      </trkpt>
      <trkpt lat="45.7475" lon="5.24698">
        <ele>229</ele>
        <time>2024-09-19T13:44:05Z</time>
      </trkpt>
      <trkpt lat="45.7475" lon="5.24699">
        <ele>229.2</ele>
        <time>2024-09-19T13:44:06Z</time>
      </trkpt>
      <trkpt lat="45.7475" lon="5.24698">
        <ele>229.2</ele>
        <time>2024-09-19T13:44:07Z</time>
      </trkpt>
      <trkpt lat="45.74755" lon="5.24699">
        <ele>229</ele>
        <time>2024-09-19T13:44:48Z</time>
      </trkpt>
      <trkpt lat="45.74757" lon="5.24699">
        <ele>229</ele>
        <time>2024-09-19T13:44:49Z</time>
      </trkpt>
      <trkpt lat="45.74759" lon="5.24698">
        <ele>229</ele>
        <time>2024-09-19T13:44:50Z</time>
      </trkpt>
      <trkpt lat="45.74762" lon="5.24697">
        <ele>229</ele>
        <time>2024-09-19T13:44:51Z</time>
      </trkpt>
      <trkpt lat="45.74765" lon="5.24696">
        <ele>229</ele>
        <time>2024-09-19T13:44:52Z</time>
      </trkpt>
      <trkpt lat="45.74768" lon="5.24695">
        <ele>229</ele>
        <time>2024-09-19T13:44:53Z</time>
      </trkpt>
      <trkpt lat="45.74772" lon="5.24694">
        <ele>229</ele>
        <time>2024-09-19T13:44:54Z</time>
      </trkpt>
      <trkpt lat="45.74776" lon="5.24694">
        <ele>229</ele>
        <time>2024-09-19T13:44:55Z</time>
      </trkpt>
      <trkpt lat="45.7478" lon="5.24693">
        <ele>229</ele>
        <time>2024-09-19T13:44:56Z</time>
      </trkpt>
      <trkpt lat="45.74784" lon="5.24693">
        <ele>228.6</ele>
        <time>2024-09-19T13:44:57Z</time>
      </trkpt>
      <trkpt lat="45.74788" lon="5.24692">
        <ele>228.6</ele>
        <time>2024-09-19T13:44:58Z</time>
      </trkpt>
      <trkpt lat="45.74788" lon="5.24692">
        <ele>228.6</ele>
        <time>2024-09-19T13:44:59Z</time>
      </trkpt>
      <trkpt lat="45.74793" lon="5.24692">
        <ele>228.6</ele>
        <time>2024-09-19T13:45:00Z</time>
      </trkpt>
      <trkpt lat="45.74798" lon="5.24691">
        <ele>228.6</ele>
        <time>2024-09-19T13:45:01Z</time>
      </trkpt>
      <trkpt lat="45.74802" lon="5.2469">
        <ele>228</ele>
        <time>2024-09-19T13:45:02Z</time>
      </trkpt>
      <trkpt lat="45.74807" lon="5.2469">
        <ele>228</ele>
        <time>2024-09-19T13:45:03Z</time>
      </trkpt>
      <trkpt lat="45.74812" lon="5.24688">
        <ele>228</ele>
        <time>2024-09-19T13:45:04Z</time>
      </trkpt>
      <trkpt lat="45.74817" lon="5.24687">
        <ele>227.8</ele>
        <time>2024-09-19T13:45:05Z</time>
      </trkpt>
      <trkpt lat="45.74822" lon="5.24686">
        <ele>227.8</ele>
        <time>2024-09-19T13:45:06Z</time>
      </trkpt>
      <trkpt lat="45.74827" lon="5.24685">
        <ele>227.8</ele>
        <time>2024-09-19T13:45:07Z</time>
      </trkpt>
      <trkpt lat="45.74832" lon="5.24683">
        <ele>227.8</ele>
        <time>2024-09-19T13:45:08Z</time>
      </trkpt>
      <trkpt lat="45.74837" lon="5.24682">
        <ele>227.8</ele>
        <time>2024-09-19T13:45:09Z</time>
      </trkpt>
      <trkpt lat="45.74842" lon="5.24681">
        <ele>227.8</ele>
        <time>2024-09-19T13:45:10Z</time>
      </trkpt>
      <trkpt lat="45.74852" lon="5.24678">
        <ele>227.8</ele>
        <time>2024-09-19T13:45:11Z</time>
      </trkpt>
      <trkpt lat="45.74857" lon="5.24677">
        <ele>228</ele>
        <time>2024-09-19T13:45:12Z</time>
      </trkpt>
      <trkpt lat="45.74862" lon="5.24677">
        <ele>228</ele>
        <time>2024-09-19T13:45:13Z</time>
      </trkpt>
      <trkpt lat="45.74867" lon="5.24677">
        <ele>228</ele>
        <time>2024-09-19T13:45:14Z</time>
      </trkpt>
      <trkpt lat="45.74872" lon="5.24674">
        <ele>228</ele>
        <time>2024-09-19T13:45:15Z</time>
      </trkpt>
      <trkpt lat="45.74876" lon="5.24674">
        <ele>228</ele>
        <time>2024-09-19T13:45:16Z</time>
      </trkpt>
      <trkpt lat="45.74881" lon="5.24672">
        <ele>228</ele>
        <time>2024-09-19T13:45:17Z</time>
      </trkpt>
      <trkpt lat="45.74885" lon="5.24672">
        <ele>228.2</ele>
        <time>2024-09-19T13:45:18Z</time>
      </trkpt>
      <trkpt lat="45.74889" lon="5.24672">
        <ele>228.2</ele>
        <time>2024-09-19T13:45:19Z</time>
      </trkpt>
      <trkpt lat="45.74895" lon="5.24671">
        <ele>228.2</ele>
        <time>2024-09-19T13:45:20Z</time>
      </trkpt>
      <trkpt lat="45.74898" lon="5.24668">
        <ele>228.2</ele>
        <time>2024-09-19T13:45:21Z</time>
      </trkpt>
      <trkpt lat="45.74903" lon="5.24668">
        <ele>228.2</ele>
        <time>2024-09-19T13:45:22Z</time>
      </trkpt>
      <trkpt lat="45.74909" lon="5.24667">
        <ele>228.2</ele>
        <time>2024-09-19T13:45:23Z</time>
      </trkpt>
      <trkpt lat="45.74914" lon="5.24665">
        <ele>228.2</ele>
        <time>2024-09-19T13:45:24Z</time>
      </trkpt>
      <trkpt lat="45.74919" lon="5.24663">
        <ele>228.2</ele>
        <time>2024-09-19T13:45:25Z</time>
      </trkpt>
      <trkpt lat="45.74924" lon="5.24662">
        <ele>228.2</ele>
        <time>2024-09-19T13:45:26Z</time>
      </trkpt>
      <trkpt lat="45.74929" lon="5.2466">
        <ele>227.8</ele>
        <time>2024-09-19T13:45:27Z</time>
      </trkpt>
      <trkpt lat="45.74935" lon="5.24659">
        <ele>227.8</ele>
        <time>2024-09-19T13:45:28Z</time>
      </trkpt>
      <trkpt lat="45.74939" lon="5.24656">
        <ele>227.8</ele>
        <time>2024-09-19T13:45:29Z</time>
      </trkpt>
      <trkpt lat="45.74945" lon="5.24655">
        <ele>227.6</ele>
        <time>2024-09-19T13:45:30Z</time>
      </trkpt>
      <trkpt lat="45.7495" lon="5.24652">
        <ele>227.6</ele>
        <time>2024-09-19T13:45:31Z</time>
      </trkpt>
      <trkpt lat="45.74956" lon="5.2465">
        <ele>227.6</ele>
        <time>2024-09-19T13:45:32Z</time>
      </trkpt>
      <trkpt lat="45.74961" lon="5.24648">
        <ele>227.2</ele>
        <time>2024-09-19T13:45:33Z</time>
      </trkpt>
      <trkpt lat="45.74967" lon="5.24645">
        <ele>227.2</ele>
        <time>2024-09-19T13:45:34Z</time>
      </trkpt>
      <trkpt lat="45.74972" lon="5.24642">
        <ele>227.4</ele>
        <time>2024-09-19T13:45:35Z</time>
      </trkpt>
      <trkpt lat="45.74978" lon="5.24641">
        <ele>227.4</ele>
        <time>2024-09-19T13:45:36Z</time>
      </trkpt>
      <trkpt lat="45.74985" lon="5.24639">
        <ele>227.4</ele>
        <time>2024-09-19T13:45:37Z</time>
      </trkpt>
      <trkpt lat="45.74989" lon="5.24637">
        <ele>227.4</ele>
        <time>2024-09-19T13:45:38Z</time>
      </trkpt>
      <trkpt lat="45.74994" lon="5.24635">
        <ele>227.8</ele>
        <time>2024-09-19T13:45:39Z</time>
      </trkpt>
      <trkpt lat="45.75" lon="5.24633">
        <ele>227.8</ele>
        <time>2024-09-19T13:45:40Z</time>
      </trkpt>
      <trkpt lat="45.75005" lon="5.24631">
        <ele>227.8</ele>
        <time>2024-09-19T13:45:41Z</time>
      </trkpt>
      <trkpt lat="45.75011" lon="5.24628">
        <ele>227.8</ele>
        <time>2024-09-19T13:45:42Z</time>
      </trkpt>
      <trkpt lat="45.75017" lon="5.24625">
        <ele>227.8</ele>
        <time>2024-09-19T13:45:43Z</time>
      </trkpt>
      <trkpt lat="45.75022" lon="5.24624">
        <ele>227.6</ele>
        <time>2024-09-19T13:45:44Z</time>
      </trkpt>
      <trkpt lat="45.75029" lon="5.24621">
        <ele>227.6</ele>
        <time>2024-09-19T13:45:45Z</time>
      </trkpt>
      <trkpt lat="45.75033" lon="5.24618">
        <ele>227.6</ele>
        <time>2024-09-19T13:45:46Z</time>
      </trkpt>
      <trkpt lat="45.75038" lon="5.24615">
        <ele>227.6</ele>
        <time>2024-09-19T13:45:47Z</time>
      </trkpt>
      <trkpt lat="45.75043" lon="5.24611">
        <ele>227.6</ele>
        <time>2024-09-19T13:45:48Z</time>
      </trkpt>
      <trkpt lat="45.75048" lon="5.24608">
        <ele>228</ele>
        <time>2024-09-19T13:45:49Z</time>
      </trkpt>
      <trkpt lat="45.75053" lon="5.24605">
        <ele>228</ele>
        <time>2024-09-19T13:45:50Z</time>
      </trkpt>
      <trkpt lat="45.75059" lon="5.24601">
        <ele>228.4</ele>
        <time>2024-09-19T13:45:51Z</time>
      </trkpt>
      <trkpt lat="45.75064" lon="5.24599">
        <ele>228.4</ele>
        <time>2024-09-19T13:45:52Z</time>
      </trkpt>
      <trkpt lat="45.75069" lon="5.24596">
        <ele>228.6</ele>
        <time>2024-09-19T13:45:53Z</time>
      </trkpt>
      <trkpt lat="45.75074" lon="5.24593">
        <ele>228.4</ele>
        <time>2024-09-19T13:45:54Z</time>
      </trkpt>
      <trkpt lat="45.75079" lon="5.2459">
        <ele>228.4</ele>
        <time>2024-09-19T13:45:55Z</time>
      </trkpt>
      <trkpt lat="45.75084" lon="5.24587">
        <ele>228.4</ele>
        <time>2024-09-19T13:45:56Z</time>
      </trkpt>
      <trkpt lat="45.75089" lon="5.24583">
        <ele>228.4</ele>
        <time>2024-09-19T13:45:57Z</time>
      </trkpt>
      <trkpt lat="45.75094" lon="5.24581">
        <ele>228.6</ele>
        <time>2024-09-19T13:45:58Z</time>
      </trkpt>
      <trkpt lat="45.75099" lon="5.24577">
        <ele>228.6</ele>
        <time>2024-09-19T13:45:59Z</time>
      </trkpt>
      <trkpt lat="45.75104" lon="5.24574">
        <ele>228.6</ele>
        <time>2024-09-19T13:46:00Z</time>
      </trkpt>
      <trkpt lat="45.75109" lon="5.24571">
        <ele>228.6</ele>
        <time>2024-09-19T13:46:01Z</time>
      </trkpt>
      <trkpt lat="45.75113" lon="5.24569">
        <ele>229</ele>
        <time>2024-09-19T13:46:02Z</time>
      </trkpt>
      <trkpt lat="45.75118" lon="5.24566">
        <ele>229</ele>
        <time>2024-09-19T13:46:03Z</time>
      </trkpt>
      <trkpt lat="45.75123" lon="5.24564">
        <ele>229.2</ele>
        <time>2024-09-19T13:46:04Z</time>
      </trkpt>
      <trkpt lat="45.75127" lon="5.24563">
        <ele>229.2</ele>
        <time>2024-09-19T13:46:05Z</time>
      </trkpt>
      <trkpt lat="45.75131" lon="5.2456">
        <ele>229.2</ele>
        <time>2024-09-19T13:46:06Z</time>
      </trkpt>
      <trkpt lat="45.75136" lon="5.24557">
        <ele>229.2</ele>
        <time>2024-09-19T13:46:07Z</time>
      </trkpt>
      <trkpt lat="45.75141" lon="5.24554">
        <ele>229.4</ele>
        <time>2024-09-19T13:46:08Z</time>
      </trkpt>
      <trkpt lat="45.75145" lon="5.24553">
        <ele>229.4</ele>
        <time>2024-09-19T13:46:09Z</time>
      </trkpt>
      <trkpt lat="45.75149" lon="5.24551">
        <ele>229.8</ele>
        <time>2024-09-19T13:46:10Z</time>
      </trkpt>
      <trkpt lat="45.75153" lon="5.24548">
        <ele>229.8</ele>
        <time>2024-09-19T13:46:11Z</time>
      </trkpt>
      <trkpt lat="45.75158" lon="5.24546">
        <ele>230.2</ele>
        <time>2024-09-19T13:46:12Z</time>
      </trkpt>
      <trkpt lat="45.75161" lon="5.24545">
        <ele>230.2</ele>
        <time>2024-09-19T13:46:13Z</time>
      </trkpt>
      <trkpt lat="45.75166" lon="5.24543">
        <ele>230.2</ele>
        <time>2024-09-19T13:46:14Z</time>
      </trkpt>
      <trkpt lat="45.7517" lon="5.24541">
        <ele>230.2</ele>
        <time>2024-09-19T13:46:15Z</time>
      </trkpt>
      <trkpt lat="45.75173" lon="5.24538">
        <ele>230.4</ele>
        <time>2024-09-19T13:46:16Z</time>
      </trkpt>
      <trkpt lat="45.75179" lon="5.24535">
        <ele>230.4</ele>
        <time>2024-09-19T13:46:17Z</time>
      </trkpt>
      <trkpt lat="45.75183" lon="5.24533">
        <ele>230.4</ele>
        <time>2024-09-19T13:46:18Z</time>
      </trkpt>
      <trkpt lat="45.75187" lon="5.24531">
        <ele>230.6</ele>
        <time>2024-09-19T13:46:19Z</time>
      </trkpt>
      <trkpt lat="45.75191" lon="5.24529">
        <ele>230.6</ele>
        <time>2024-09-19T13:46:20Z</time>
      </trkpt>
      <trkpt lat="45.75195" lon="5.24526">
        <ele>231</ele>
        <time>2024-09-19T13:46:21Z</time>
      </trkpt>
      <trkpt lat="45.75199" lon="5.24523">
        <ele>231</ele>
        <time>2024-09-19T13:46:22Z</time>
      </trkpt>
      <trkpt lat="45.75204" lon="5.24521">
        <ele>231</ele>
        <time>2024-09-19T13:46:23Z</time>
      </trkpt>
      <trkpt lat="45.75208" lon="5.24518">
        <ele>231</ele>
        <time>2024-09-19T13:46:24Z</time>
      </trkpt>
      <trkpt lat="45.75213" lon="5.24515">
        <ele>230.4</ele>
        <time>2024-09-19T13:46:25Z</time>
      </trkpt>
      <trkpt lat="45.75216" lon="5.24513">
        <ele>230.4</ele>
        <time>2024-09-19T13:46:26Z</time>
      </trkpt>
      <trkpt lat="45.75221" lon="5.24508">
        <ele>230</ele>
        <time>2024-09-19T13:46:27Z</time>
      </trkpt>
      <trkpt lat="45.75225" lon="5.24504">
        <ele>229.8</ele>
        <time>2024-09-19T13:46:28Z</time>
      </trkpt>
      <trkpt lat="45.75231" lon="5.24502">
        <ele>229.8</ele>
        <time>2024-09-19T13:46:29Z</time>
      </trkpt>
      <trkpt lat="45.75236" lon="5.24497">
        <ele>229.4</ele>
        <time>2024-09-19T13:46:30Z</time>
      </trkpt>
      <trkpt lat="45.75241" lon="5.24493">
        <ele>229.4</ele>
        <time>2024-09-19T13:46:31Z</time>
      </trkpt>
      <trkpt lat="45.75247" lon="5.24489">
        <ele>229.6</ele>
        <time>2024-09-19T13:46:32Z</time>
      </trkpt>
      <trkpt lat="45.75252" lon="5.24485">
        <ele>229.4</ele>
        <time>2024-09-19T13:46:33Z</time>
      </trkpt>
      <trkpt lat="45.75258" lon="5.24481">
        <ele>229.4</ele>
        <time>2024-09-19T13:46:34Z</time>
      </trkpt>
      <trkpt lat="45.75262" lon="5.24476">
        <ele>229.4</ele>
        <time>2024-09-19T13:46:35Z</time>
      </trkpt>
      <trkpt lat="45.75267" lon="5.24472">
        <ele>229</ele>
        <time>2024-09-19T13:46:36Z</time>
      </trkpt>
      <trkpt lat="45.75271" lon="5.24467">
        <ele>229</ele>
        <time>2024-09-19T13:46:37Z</time>
      </trkpt>
      <trkpt lat="45.75278" lon="5.24464">
        <ele>229</ele>
        <time>2024-09-19T13:46:38Z</time>
      </trkpt>
      <trkpt lat="45.75283" lon="5.24459">
        <ele>229</ele>
        <time>2024-09-19T13:46:39Z</time>
      </trkpt>
      <trkpt lat="45.75287" lon="5.24455">
        <ele>229</ele>
        <time>2024-09-19T13:46:40Z</time>
      </trkpt>
      <trkpt lat="45.75293" lon="5.2445">
        <ele>229</ele>
        <time>2024-09-19T13:46:41Z</time>
      </trkpt>
      <trkpt lat="45.75297" lon="5.24447">
        <ele>229.6</ele>
        <time>2024-09-19T13:46:42Z</time>
      </trkpt>
      <trkpt lat="45.75302" lon="5.24443">
        <ele>229.6</ele>
        <time>2024-09-19T13:46:43Z</time>
      </trkpt>
      <trkpt lat="45.75307" lon="5.24439">
        <ele>229.4</ele>
        <time>2024-09-19T13:46:44Z</time>
      </trkpt>
      <trkpt lat="45.75312" lon="5.24434">
        <ele>229.6</ele>
        <time>2024-09-19T13:46:45Z</time>
      </trkpt>
      <trkpt lat="45.75316" lon="5.24431">
        <ele>229.6</ele>
        <time>2024-09-19T13:46:46Z</time>
      </trkpt>
      <trkpt lat="45.7532" lon="5.24427">
        <ele>230</ele>
        <time>2024-09-19T13:46:47Z</time>
      </trkpt>
      <trkpt lat="45.75325" lon="5.24423">
        <ele>229.6</ele>
        <time>2024-09-19T13:46:48Z</time>
      </trkpt>
      <trkpt lat="45.7533" lon="5.2442">
        <ele>230.2</ele>
        <time>2024-09-19T13:46:49Z</time>
      </trkpt>
      <trkpt lat="45.75335" lon="5.24418">
        <ele>230.2</ele>
        <time>2024-09-19T13:46:50Z</time>
      </trkpt>
      <trkpt lat="45.75339" lon="5.24415">
        <ele>230.8</ele>
        <time>2024-09-19T13:46:51Z</time>
      </trkpt>
      <trkpt lat="45.75344" lon="5.24412">
        <ele>230.4</ele>
        <time>2024-09-19T13:46:52Z</time>
      </trkpt>
      <trkpt lat="45.75349" lon="5.24409">
        <ele>230.8</ele>
        <time>2024-09-19T13:46:53Z</time>
      </trkpt>
      <trkpt lat="45.75349" lon="5.24409">
        <ele>230.6</ele>
        <time>2024-09-19T13:46:54Z</time>
      </trkpt>
      <trkpt lat="45.75349" lon="5.24409">
        <ele>230.2</ele>
        <time>2024-09-19T13:46:55Z</time>
      </trkpt>
      <trkpt lat="45.75365" lon="5.24399">
        <ele>230.4</ele>
        <time>2024-09-19T13:46:57Z</time>
      </trkpt>
      <trkpt lat="45.75369" lon="5.24397">
        <ele>230.8</ele>
        <time>2024-09-19T13:46:58Z</time>
      </trkpt>
      <trkpt lat="45.75373" lon="5.24394">
        <ele>230.8</ele>
        <time>2024-09-19T13:46:59Z</time>
      </trkpt>
      <trkpt lat="45.75376" lon="5.24392">
        <ele>230.8</ele>
        <time>2024-09-19T13:47:00Z</time>
      </trkpt>
      <trkpt lat="45.75379" lon="5.2439">
        <ele>231.2</ele>
        <time>2024-09-19T13:47:01Z</time>
      </trkpt>
      <trkpt lat="45.75382" lon="5.24388">
        <ele>231.4</ele>
        <time>2024-09-19T13:47:02Z</time>
      </trkpt>
      <trkpt lat="45.75385" lon="5.24387">
        <ele>231.8</ele>
        <time>2024-09-19T13:47:03Z</time>
      </trkpt>
      <trkpt lat="45.75387" lon="5.24384">
        <ele>232</ele>
        <time>2024-09-19T13:47:04Z</time>
      </trkpt>
      <trkpt lat="45.75389" lon="5.24381">
        <ele>232</ele>
        <time>2024-09-19T13:47:05Z</time>
      </trkpt>
      <trkpt lat="45.75391" lon="5.24378">
        <ele>232.4</ele>
        <time>2024-09-19T13:47:06Z</time>
      </trkpt>
      <trkpt lat="45.75394" lon="5.24376">
        <ele>232.8</ele>
        <time>2024-09-19T13:47:07Z</time>
      </trkpt>
      <trkpt lat="45.75396" lon="5.24374">
        <ele>233.2</ele>
        <time>2024-09-19T13:47:08Z</time>
      </trkpt>
      <trkpt lat="45.75398" lon="5.24372">
        <ele>233.2</ele>
        <time>2024-09-19T13:47:09Z</time>
      </trkpt>
      <trkpt lat="45.75401" lon="5.2437">
        <ele>233.2</ele>
        <time>2024-09-19T13:47:10Z</time>
      </trkpt>
      <trkpt lat="45.75404" lon="5.24368">
        <ele>233.4</ele>
        <time>2024-09-19T13:47:11Z</time>
      </trkpt>
      <trkpt lat="45.75406" lon="5.24365">
        <ele>233.4</ele>
        <time>2024-09-19T13:47:12Z</time>
      </trkpt>
      <trkpt lat="45.75409" lon="5.24362">
        <ele>233.8</ele>
        <time>2024-09-19T13:47:13Z</time>
      </trkpt>
      <trkpt lat="45.75411" lon="5.2436">
        <ele>233.8</ele>
        <time>2024-09-19T13:47:14Z</time>
      </trkpt>
      <trkpt lat="45.75414" lon="5.24357">
        <ele>234</ele>
        <time>2024-09-19T13:47:15Z</time>
      </trkpt>
      <trkpt lat="45.75417" lon="5.24355">
        <ele>234</ele>
        <time>2024-09-19T13:47:16Z</time>
      </trkpt>
      <trkpt lat="45.7542" lon="5.24352">
        <ele>234</ele>
        <time>2024-09-19T13:47:17Z</time>
      </trkpt>
      <trkpt lat="45.75423" lon="5.2435">
        <ele>234</ele>
        <time>2024-09-19T13:47:18Z</time>
      </trkpt>
      <trkpt lat="45.75425" lon="5.24348">
        <ele>234.4</ele>
        <time>2024-09-19T13:47:19Z</time>
      </trkpt>
      <trkpt lat="45.75428" lon="5.24345">
        <ele>234.4</ele>
        <time>2024-09-19T13:47:20Z</time>
      </trkpt>
      <trkpt lat="45.75431" lon="5.24342">
        <ele>234.4</ele>
        <time>2024-09-19T13:47:21Z</time>
      </trkpt>
      <trkpt lat="45.75434" lon="5.24338">
        <ele>234.4</ele>
        <time>2024-09-19T13:47:22Z</time>
      </trkpt>
      <trkpt lat="45.75437" lon="5.24335">
        <ele>234.4</ele>
        <time>2024-09-19T13:47:23Z</time>
      </trkpt>
      <trkpt lat="45.7544" lon="5.24331">
        <ele>234.8</ele>
        <time>2024-09-19T13:47:24Z</time>
      </trkpt>
      <trkpt lat="45.75445" lon="5.24328">
        <ele>234.8</ele>
        <time>2024-09-19T13:47:25Z</time>
      </trkpt>
      <trkpt lat="45.75449" lon="5.24322">
        <ele>234.4</ele>
        <time>2024-09-19T13:47:26Z</time>
      </trkpt>
      <trkpt lat="45.75453" lon="5.24317">
        <ele>234.4</ele>
        <time>2024-09-19T13:47:27Z</time>
      </trkpt>
      <trkpt lat="45.75456" lon="5.2431">
        <ele>234.4</ele>
        <time>2024-09-19T13:47:28Z</time>
      </trkpt>
      <trkpt lat="45.75457" lon="5.24305">
        <ele>234.4</ele>
        <time>2024-09-19T13:47:29Z</time>
      </trkpt>
      <trkpt lat="45.75459" lon="5.24299">
        <ele>234.4</ele>
        <time>2024-09-19T13:47:30Z</time>
      </trkpt>
      <trkpt lat="45.7546" lon="5.24292">
        <ele>234.4</ele>
        <time>2024-09-19T13:47:31Z</time>
      </trkpt>
      <trkpt lat="45.75461" lon="5.24287">
        <ele>234.6</ele>
        <time>2024-09-19T13:47:32Z</time>
      </trkpt>
      <trkpt lat="45.75463" lon="5.2428">
        <ele>234.6</ele>
        <time>2024-09-19T13:47:33Z</time>
      </trkpt>
      <trkpt lat="45.75465" lon="5.24274">
        <ele>234.6</ele>
        <time>2024-09-19T13:47:34Z</time>
      </trkpt>
      <trkpt lat="45.75467" lon="5.24267">
        <ele>234.6</ele>
        <time>2024-09-19T13:47:35Z</time>
      </trkpt>
      <trkpt lat="45.7547" lon="5.24262">
        <ele>234.6</ele>
        <time>2024-09-19T13:47:36Z</time>
      </trkpt>
      <trkpt lat="45.7547" lon="5.24262">
        <ele>234.6</ele>
        <time>2024-09-19T13:47:37Z</time>
      </trkpt>
      <trkpt lat="45.7547" lon="5.24262">
        <ele>234.6</ele>
        <time>2024-09-19T13:47:38Z</time>
      </trkpt>
      <trkpt lat="45.75479" lon="5.24243">
        <ele>234.6</ele>
        <time>2024-09-19T13:47:39Z</time>
      </trkpt>
      <trkpt lat="45.75482" lon="5.24236">
        <ele>234.6</ele>
        <time>2024-09-19T13:47:40Z</time>
      </trkpt>
      <trkpt lat="45.75486" lon="5.2423">
        <ele>234.6</ele>
        <time>2024-09-19T13:47:41Z</time>
      </trkpt>
      <trkpt lat="45.7549" lon="5.24224">
        <ele>234</ele>
        <time>2024-09-19T13:47:42Z</time>
      </trkpt>
      <trkpt lat="45.75493" lon="5.24217">
        <ele>233.8</ele>
        <time>2024-09-19T13:47:43Z</time>
      </trkpt>
      <trkpt lat="45.75496" lon="5.2421">
        <ele>233.8</ele>
        <time>2024-09-19T13:47:44Z</time>
      </trkpt>
      <trkpt lat="45.75499" lon="5.24203">
        <ele>233.8</ele>
        <time>2024-09-19T13:47:45Z</time>
      </trkpt>
      <trkpt lat="45.75502" lon="5.24196">
        <ele>233.8</ele>
        <time>2024-09-19T13:47:46Z</time>
      </trkpt>
      <trkpt lat="45.75505" lon="5.24189">
        <ele>233.8</ele>
        <time>2024-09-19T13:47:47Z</time>
      </trkpt>
      <trkpt lat="45.75508" lon="5.24183">
        <ele>234</ele>
        <time>2024-09-19T13:47:48Z</time>
      </trkpt>
      <trkpt lat="45.75512" lon="5.24177">
        <ele>234</ele>
        <time>2024-09-19T13:47:49Z</time>
      </trkpt>
      <trkpt lat="45.75514" lon="5.24169">
        <ele>234</ele>
        <time>2024-09-19T13:47:50Z</time>
      </trkpt>
      <trkpt lat="45.75518" lon="5.24163">
        <ele>233.6</ele>
        <time>2024-09-19T13:47:51Z</time>
      </trkpt>
      <trkpt lat="45.75522" lon="5.24157">
        <ele>233.6</ele>
        <time>2024-09-19T13:47:52Z</time>
      </trkpt>
      <trkpt lat="45.75524" lon="5.2415">
        <ele>233.2</ele>
        <time>2024-09-19T13:47:53Z</time>
      </trkpt>
      <trkpt lat="45.75528" lon="5.24144">
        <ele>233.4</ele>
        <time>2024-09-19T13:47:54Z</time>
      </trkpt>
      <trkpt lat="45.75531" lon="5.24137">
        <ele>233.4</ele>
        <time>2024-09-19T13:47:55Z</time>
      </trkpt>
      <trkpt lat="45.75535" lon="5.2413">
        <ele>233.8</ele>
        <time>2024-09-19T13:47:56Z</time>
      </trkpt>
      <trkpt lat="45.75539" lon="5.24124">
        <ele>233.4</ele>
        <time>2024-09-19T13:47:57Z</time>
      </trkpt>
      <trkpt lat="45.75542" lon="5.24117">
        <ele>233.8</ele>
        <time>2024-09-19T13:47:58Z</time>
      </trkpt>
      <trkpt lat="45.75545" lon="5.24111">
        <ele>233.8</ele>
        <time>2024-09-19T13:47:59Z</time>
      </trkpt>
      <trkpt lat="45.75549" lon="5.24104">
        <ele>233.8</ele>
        <time>2024-09-19T13:48:00Z</time>
      </trkpt>
      <trkpt lat="45.75551" lon="5.24098">
        <ele>233.8</ele>
        <time>2024-09-19T13:48:01Z</time>
      </trkpt>
      <trkpt lat="45.75554" lon="5.24092">
        <ele>233.8</ele>
        <time>2024-09-19T13:48:02Z</time>
      </trkpt>
      <trkpt lat="45.75557" lon="5.24086">
        <ele>233.8</ele>
        <time>2024-09-19T13:48:03Z</time>
      </trkpt>
      <trkpt lat="45.7556" lon="5.2408">
        <ele>233.8</ele>
        <time>2024-09-19T13:48:04Z</time>
      </trkpt>
      <trkpt lat="45.75564" lon="5.24073">
        <ele>233.4</ele>
        <time>2024-09-19T13:48:05Z</time>
      </trkpt>
      <trkpt lat="45.75566" lon="5.24067">
        <ele>233.4</ele>
        <time>2024-09-19T13:48:06Z</time>
      </trkpt>
      <trkpt lat="45.7557" lon="5.24061">
        <ele>233.4</ele>
        <time>2024-09-19T13:48:07Z</time>
      </trkpt>
      <trkpt lat="45.75573" lon="5.24055">
        <ele>233.8</ele>
        <time>2024-09-19T13:48:08Z</time>
      </trkpt>
      <trkpt lat="45.75576" lon="5.24047">
        <ele>233.8</ele>
        <time>2024-09-19T13:48:09Z</time>
      </trkpt>
      <trkpt lat="45.75579" lon="5.24042">
        <ele>233.8</ele>
        <time>2024-09-19T13:48:10Z</time>
      </trkpt>
      <trkpt lat="45.75581" lon="5.24035">
        <ele>233.8</ele>
        <time>2024-09-19T13:48:11Z</time>
      </trkpt>
      <trkpt lat="45.75582" lon="5.24027">
        <ele>233.8</ele>
        <time>2024-09-19T13:48:12Z</time>
      </trkpt>
      <trkpt lat="45.75584" lon="5.2402">
        <ele>233.8</ele>
        <time>2024-09-19T13:48:13Z</time>
      </trkpt>
      <trkpt lat="45.75586" lon="5.24013">
        <ele>233.8</ele>
        <time>2024-09-19T13:48:14Z</time>
      </trkpt>
      <trkpt lat="45.75589" lon="5.24006">
        <ele>233.8</ele>
        <time>2024-09-19T13:48:15Z</time>
      </trkpt>
      <trkpt lat="45.7559" lon="5.23999">
        <ele>233.6</ele>
        <time>2024-09-19T13:48:16Z</time>
      </trkpt>
      <trkpt lat="45.75593" lon="5.23991">
        <ele>233.6</ele>
        <time>2024-09-19T13:48:17Z</time>
      </trkpt>
      <trkpt lat="45.75595" lon="5.23984">
        <ele>233.6</ele>
        <time>2024-09-19T13:48:18Z</time>
      </trkpt>
      <trkpt lat="45.75597" lon="5.23976">
        <ele>233.6</ele>
        <time>2024-09-19T13:48:19Z</time>
      </trkpt>
      <trkpt lat="45.75598" lon="5.23968">
        <ele>233.6</ele>
        <time>2024-09-19T13:48:20Z</time>
      </trkpt>
      <trkpt lat="45.75601" lon="5.2396">
        <ele>233.6</ele>
        <time>2024-09-19T13:48:21Z</time>
      </trkpt>
      <trkpt lat="45.75603" lon="5.23952">
        <ele>233.6</ele>
        <time>2024-09-19T13:48:22Z</time>
      </trkpt>
      <trkpt lat="45.75605" lon="5.23944">
        <ele>233.2</ele>
        <time>2024-09-19T13:48:23Z</time>
      </trkpt>
      <trkpt lat="45.75606" lon="5.23936">
        <ele>233.4</ele>
        <time>2024-09-19T13:48:24Z</time>
      </trkpt>
      <trkpt lat="45.75608" lon="5.23929">
        <ele>233.4</ele>
        <time>2024-09-19T13:48:25Z</time>
      </trkpt>
      <trkpt lat="45.7561" lon="5.2392">
        <ele>234</ele>
        <time>2024-09-19T13:48:26Z</time>
      </trkpt>
      <trkpt lat="45.75614" lon="5.23914">
        <ele>234</ele>
        <time>2024-09-19T13:48:27Z</time>
      </trkpt>
      <trkpt lat="45.75615" lon="5.23906">
        <ele>234</ele>
        <time>2024-09-19T13:48:28Z</time>
      </trkpt>
      <trkpt lat="45.75617" lon="5.23899">
        <ele>234</ele>
        <time>2024-09-19T13:48:29Z</time>
      </trkpt>
      <trkpt lat="45.75618" lon="5.23889">
        <ele>234</ele>
        <time>2024-09-19T13:48:30Z</time>
      </trkpt>
      <trkpt lat="45.7562" lon="5.2388">
        <ele>233.6</ele>
        <time>2024-09-19T13:48:31Z</time>
      </trkpt>
      <trkpt lat="45.75621" lon="5.23872">
        <ele>233.6</ele>
        <time>2024-09-19T13:48:32Z</time>
      </trkpt>
      <trkpt lat="45.75623" lon="5.23865">
        <ele>233.6</ele>
        <time>2024-09-19T13:48:33Z</time>
      </trkpt>
      <trkpt lat="45.75625" lon="5.23857">
        <ele>233.6</ele>
        <time>2024-09-19T13:48:34Z</time>
      </trkpt>
      <trkpt lat="45.75627" lon="5.23849">
        <ele>233.4</ele>
        <time>2024-09-19T13:48:35Z</time>
      </trkpt>
      <trkpt lat="45.75629" lon="5.23841">
        <ele>233.4</ele>
        <time>2024-09-19T13:48:36Z</time>
      </trkpt>
      <trkpt lat="45.75631" lon="5.23835">
        <ele>233.4</ele>
        <time>2024-09-19T13:48:37Z</time>
      </trkpt>
      <trkpt lat="45.75633" lon="5.23826">
        <ele>233.4</ele>
        <time>2024-09-19T13:48:38Z</time>
      </trkpt>
      <trkpt lat="45.75635" lon="5.23818">
        <ele>233.4</ele>
        <time>2024-09-19T13:48:39Z</time>
      </trkpt>
      <trkpt lat="45.75639" lon="5.23809">
        <ele>233.4</ele>
        <time>2024-09-19T13:48:40Z</time>
      </trkpt>
      <trkpt lat="45.75642" lon="5.23801">
        <ele>233.4</ele>
        <time>2024-09-19T13:48:41Z</time>
      </trkpt>
      <trkpt lat="45.75645" lon="5.23792">
        <ele>233.4</ele>
        <time>2024-09-19T13:48:42Z</time>
      </trkpt>
      <trkpt lat="45.75647" lon="5.23784">
        <ele>233.4</ele>
        <time>2024-09-19T13:48:43Z</time>
      </trkpt>
      <trkpt lat="45.7565" lon="5.23775">
        <ele>233</ele>
        <time>2024-09-19T13:48:44Z</time>
      </trkpt>
      <trkpt lat="45.75651" lon="5.23767">
        <ele>233</ele>
        <time>2024-09-19T13:48:45Z</time>
      </trkpt>
      <trkpt lat="45.75654" lon="5.23761">
        <ele>233</ele>
        <time>2024-09-19T13:48:46Z</time>
      </trkpt>
      <trkpt lat="45.75654" lon="5.23754">
        <ele>232.8</ele>
        <time>2024-09-19T13:48:47Z</time>
      </trkpt>
      <trkpt lat="45.75657" lon="5.23746">
        <ele>232.8</ele>
        <time>2024-09-19T13:48:48Z</time>
      </trkpt>
      <trkpt lat="45.75659" lon="5.23737">
        <ele>232.8</ele>
        <time>2024-09-19T13:48:49Z</time>
      </trkpt>
      <trkpt lat="45.75661" lon="5.23728">
        <ele>232.8</ele>
        <time>2024-09-19T13:48:50Z</time>
      </trkpt>
      <trkpt lat="45.75663" lon="5.23719">
        <ele>232.8</ele>
        <time>2024-09-19T13:48:51Z</time>
      </trkpt>
      <trkpt lat="45.75665" lon="5.2371">
        <ele>232.8</ele>
        <time>2024-09-19T13:48:52Z</time>
      </trkpt>
      <trkpt lat="45.75666" lon="5.23702">
        <ele>232.4</ele>
        <time>2024-09-19T13:48:53Z</time>
      </trkpt>
      <trkpt lat="45.75668" lon="5.23693">
        <ele>232.4</ele>
        <time>2024-09-19T13:48:54Z</time>
      </trkpt>
      <trkpt lat="45.7567" lon="5.23685">
        <ele>232.4</ele>
        <time>2024-09-19T13:48:55Z</time>
      </trkpt>
      <trkpt lat="45.75672" lon="5.23677">
        <ele>232.4</ele>
        <time>2024-09-19T13:48:56Z</time>
      </trkpt>
      <trkpt lat="45.75676" lon="5.23671">
        <ele>232.4</ele>
        <time>2024-09-19T13:48:57Z</time>
      </trkpt>
      <trkpt lat="45.75681" lon="5.23666">
        <ele>232.8</ele>
        <time>2024-09-19T13:48:58Z</time>
      </trkpt>
      <trkpt lat="45.75686" lon="5.23664">
        <ele>232.8</ele>
        <time>2024-09-19T13:48:59Z</time>
      </trkpt>
      <trkpt lat="45.7569" lon="5.23664">
        <ele>232.8</ele>
        <time>2024-09-19T13:49:00Z</time>
      </trkpt>
      <trkpt lat="45.75695" lon="5.23667">
        <ele>233</ele>
        <time>2024-09-19T13:49:01Z</time>
      </trkpt>
      <trkpt lat="45.75701" lon="5.23669">
        <ele>233</ele>
        <time>2024-09-19T13:49:02Z</time>
      </trkpt>
      <trkpt lat="45.75706" lon="5.23671">
        <ele>233</ele>
        <time>2024-09-19T13:49:03Z</time>
      </trkpt>
      <trkpt lat="45.75711" lon="5.23674">
        <ele>233.4</ele>
        <time>2024-09-19T13:49:04Z</time>
      </trkpt>
      <trkpt lat="45.75715" lon="5.23676">
        <ele>233.4</ele>
        <time>2024-09-19T13:49:05Z</time>
      </trkpt>
      <trkpt lat="45.75721" lon="5.23679">
        <ele>233.4</ele>
        <time>2024-09-19T13:49:06Z</time>
      </trkpt>
      <trkpt lat="45.75725" lon="5.23682">
        <ele>233.2</ele>
        <time>2024-09-19T13:49:07Z</time>
      </trkpt>
      <trkpt lat="45.75731" lon="5.23685">
        <ele>233</ele>
        <time>2024-09-19T13:49:08Z</time>
      </trkpt>
      <trkpt lat="45.75736" lon="5.23687">
        <ele>232.6</ele>
        <time>2024-09-19T13:49:09Z</time>
      </trkpt>
      <trkpt lat="45.75742" lon="5.23689">
        <ele>232.6</ele>
        <time>2024-09-19T13:49:10Z</time>
      </trkpt>
      <trkpt lat="45.75747" lon="5.23692">
        <ele>232.6</ele>
        <time>2024-09-19T13:49:11Z</time>
      </trkpt>
      <trkpt lat="45.75753" lon="5.23694">
        <ele>232.6</ele>
        <time>2024-09-19T13:49:12Z</time>
      </trkpt>
      <trkpt lat="45.75758" lon="5.23697">
        <ele>232.6</ele>
        <time>2024-09-19T13:49:13Z</time>
      </trkpt>
      <trkpt lat="45.75764" lon="5.23699">
        <ele>232.2</ele>
        <time>2024-09-19T13:49:14Z</time>
      </trkpt>
      <trkpt lat="45.7577" lon="5.23701">
        <ele>232.2</ele>
        <time>2024-09-19T13:49:15Z</time>
      </trkpt>
      <trkpt lat="45.75776" lon="5.23703">
        <ele>232</ele>
        <time>2024-09-19T13:49:16Z</time>
      </trkpt>
      <trkpt lat="45.75783" lon="5.23704">
        <ele>232</ele>
        <time>2024-09-19T13:49:17Z</time>
      </trkpt>
      <trkpt lat="45.7579" lon="5.23705">
        <ele>232</ele>
        <time>2024-09-19T13:49:18Z</time>
      </trkpt>
      <trkpt lat="45.75796" lon="5.23702">
        <ele>232</ele>
        <time>2024-09-19T13:49:19Z</time>
      </trkpt>
      <trkpt lat="45.75802" lon="5.23699">
        <ele>231.4</ele>
        <time>2024-09-19T13:49:20Z</time>
      </trkpt>
      <trkpt lat="45.75809" lon="5.23697">
        <ele>231.4</ele>
        <time>2024-09-19T13:49:21Z</time>
      </trkpt>
      <trkpt lat="45.75816" lon="5.23694">
        <ele>231.2</ele>
        <time>2024-09-19T13:49:22Z</time>
      </trkpt>
      <trkpt lat="45.75822" lon="5.23691">
        <ele>230.8</ele>
        <time>2024-09-19T13:49:23Z</time>
      </trkpt>
      <trkpt lat="45.75828" lon="5.23687">
        <ele>230.8</ele>
        <time>2024-09-19T13:49:24Z</time>
      </trkpt>
      <trkpt lat="45.75835" lon="5.23682">
        <ele>230.4</ele>
        <time>2024-09-19T13:49:25Z</time>
      </trkpt>
      <trkpt lat="45.7584" lon="5.23679">
        <ele>229.8</ele>
        <time>2024-09-19T13:49:26Z</time>
      </trkpt>
      <trkpt lat="45.75847" lon="5.23675">
        <ele>229.6</ele>
        <time>2024-09-19T13:49:27Z</time>
      </trkpt>
      <trkpt lat="45.75854" lon="5.23671">
        <ele>229.6</ele>
        <time>2024-09-19T13:49:28Z</time>
      </trkpt>
      <trkpt lat="45.7586" lon="5.23666">
        <ele>229.2</ele>
        <time>2024-09-19T13:49:29Z</time>
      </trkpt>
      <trkpt lat="45.75866" lon="5.23663">
        <ele>228.8</ele>
        <time>2024-09-19T13:49:30Z</time>
      </trkpt>
      <trkpt lat="45.75871" lon="5.23657">
        <ele>228.2</ele>
        <time>2024-09-19T13:49:31Z</time>
      </trkpt>
      <trkpt lat="45.75875" lon="5.23649">
        <ele>228.2</ele>
        <time>2024-09-19T13:49:32Z</time>
      </trkpt>
      <trkpt lat="45.7588" lon="5.23642">
        <ele>227.6</ele>
        <time>2024-09-19T13:49:33Z</time>
      </trkpt>
      <trkpt lat="45.75882" lon="5.23634">
        <ele>227.6</ele>
        <time>2024-09-19T13:49:34Z</time>
      </trkpt>
      <trkpt lat="45.75886" lon="5.23626">
        <ele>227.4</ele>
        <time>2024-09-19T13:49:35Z</time>
      </trkpt>
      <trkpt lat="45.75889" lon="5.23617">
        <ele>227.4</ele>
        <time>2024-09-19T13:49:36Z</time>
      </trkpt>
      <trkpt lat="45.75892" lon="5.2361">
        <ele>226.6</ele>
        <time>2024-09-19T13:49:37Z</time>
      </trkpt>
      <trkpt lat="45.75896" lon="5.23602">
        <ele>227</ele>
        <time>2024-09-19T13:49:38Z</time>
      </trkpt>
      <trkpt lat="45.759" lon="5.23595">
        <ele>227</ele>
        <time>2024-09-19T13:49:39Z</time>
      </trkpt>
      <trkpt lat="45.75905" lon="5.23588">
        <ele>227.6</ele>
        <time>2024-09-19T13:49:40Z</time>
      </trkpt>
      <trkpt lat="45.75911" lon="5.2358">
        <ele>227.2</ele>
        <time>2024-09-19T13:49:41Z</time>
      </trkpt>
      <trkpt lat="45.75915" lon="5.23572">
        <ele>226.8</ele>
        <time>2024-09-19T13:49:42Z</time>
      </trkpt>
      <trkpt lat="45.7592" lon="5.23564">
        <ele>226.4</ele>
        <time>2024-09-19T13:49:43Z</time>
      </trkpt>
      <trkpt lat="45.75925" lon="5.23557">
        <ele>226</ele>
        <time>2024-09-19T13:49:44Z</time>
      </trkpt>
      <trkpt lat="45.75931" lon="5.23549">
        <ele>225.2</ele>
        <time>2024-09-19T13:49:45Z</time>
      </trkpt>
      <trkpt lat="45.75936" lon="5.23541">
        <ele>224.4</ele>
        <time>2024-09-19T13:49:46Z</time>
      </trkpt>
      <trkpt lat="45.7594" lon="5.23531">
        <ele>224</ele>
        <time>2024-09-19T13:49:47Z</time>
      </trkpt>
      <trkpt lat="45.75944" lon="5.23521">
        <ele>223.8</ele>
        <time>2024-09-19T13:49:48Z</time>
      </trkpt>
      <trkpt lat="45.75947" lon="5.23511">
        <ele>223.8</ele>
        <time>2024-09-19T13:49:49Z</time>
      </trkpt>
      <trkpt lat="45.75952" lon="5.23503">
        <ele>223.8</ele>
        <time>2024-09-19T13:49:50Z</time>
      </trkpt>
      <trkpt lat="45.75955" lon="5.23498">
        <ele>223.8</ele>
        <time>2024-09-19T13:49:51Z</time>
      </trkpt>
      <trkpt lat="45.75956" lon="5.23495">
        <ele>224.6</ele>
        <time>2024-09-19T13:49:52Z</time>
      </trkpt>
      <trkpt lat="45.75958" lon="5.23491">
        <ele>224.6</ele>
        <time>2024-09-19T13:49:53Z</time>
      </trkpt>
      <trkpt lat="45.75958" lon="5.23488">
        <ele>224.6</ele>
        <time>2024-09-19T13:49:54Z</time>
      </trkpt>
      <trkpt lat="45.7596" lon="5.23485">
        <ele>224.8</ele>
        <time>2024-09-19T13:49:55Z</time>
      </trkpt>
      <trkpt lat="45.75962" lon="5.23482">
        <ele>224.8</ele>
        <time>2024-09-19T13:49:56Z</time>
      </trkpt>
      <trkpt lat="45.75964" lon="5.2348">
        <ele>224.8</ele>
        <time>2024-09-19T13:49:57Z</time>
      </trkpt>
      <trkpt lat="45.75965" lon="5.23478">
        <ele>224.4</ele>
        <time>2024-09-19T13:49:58Z</time>
      </trkpt>
      <trkpt lat="45.7597" lon="5.23478">
        <ele>224</ele>
        <time>2024-09-19T13:49:59Z</time>
      </trkpt>
      <trkpt lat="45.75976" lon="5.23479">
        <ele>223.6</ele>
        <time>2024-09-19T13:50:00Z</time>
      </trkpt>
      <trkpt lat="45.75981" lon="5.23479">
        <ele>223.4</ele>
        <time>2024-09-19T13:50:01Z</time>
      </trkpt>
      <trkpt lat="45.75986" lon="5.23479">
        <ele>223</ele>
        <time>2024-09-19T13:50:02Z</time>
      </trkpt>
      <trkpt lat="45.75993" lon="5.23479">
        <ele>222.4</ele>
        <time>2024-09-19T13:50:03Z</time>
      </trkpt>
      <trkpt lat="45.75999" lon="5.23478">
        <ele>222.2</ele>
        <time>2024-09-19T13:50:04Z</time>
      </trkpt>
      <trkpt lat="45.76006" lon="5.23479">
        <ele>222</ele>
        <time>2024-09-19T13:50:05Z</time>
      </trkpt>
      <trkpt lat="45.76012" lon="5.23477">
        <ele>221.8</ele>
        <time>2024-09-19T13:50:06Z</time>
      </trkpt>
      <trkpt lat="45.76018" lon="5.23477">
        <ele>221.2</ele>
        <time>2024-09-19T13:50:07Z</time>
      </trkpt>
      <trkpt lat="45.76025" lon="5.23477">
        <ele>221.2</ele>
        <time>2024-09-19T13:50:08Z</time>
      </trkpt>
      <trkpt lat="45.76031" lon="5.23476">
        <ele>221.2</ele>
        <time>2024-09-19T13:50:09Z</time>
      </trkpt>
      <trkpt lat="45.76038" lon="5.23476">
        <ele>220.8</ele>
        <time>2024-09-19T13:50:10Z</time>
      </trkpt>
      <trkpt lat="45.76044" lon="5.23477">
        <ele>220.8</ele>
        <time>2024-09-19T13:50:11Z</time>
      </trkpt>
      <trkpt lat="45.7605" lon="5.23477">
        <ele>220.2</ele>
        <time>2024-09-19T13:50:12Z</time>
      </trkpt>
      <trkpt lat="45.76056" lon="5.23476">
        <ele>220.2</ele>
        <time>2024-09-19T13:50:13Z</time>
      </trkpt>
      <trkpt lat="45.76063" lon="5.23476">
        <ele>220.2</ele>
        <time>2024-09-19T13:50:14Z</time>
      </trkpt>
      <trkpt lat="45.76069" lon="5.23476">
        <ele>220.2</ele>
        <time>2024-09-19T13:50:15Z</time>
      </trkpt>
      <trkpt lat="45.76074" lon="5.23475">
        <ele>220.2</ele>
        <time>2024-09-19T13:50:16Z</time>
      </trkpt>
      <trkpt lat="45.76081" lon="5.23473">
        <ele>219.8</ele>
        <time>2024-09-19T13:50:17Z</time>
      </trkpt>
      <trkpt lat="45.76087" lon="5.23469">
        <ele>219.2</ele>
        <time>2024-09-19T13:50:18Z</time>
      </trkpt>
      <trkpt lat="45.76092" lon="5.23463">
        <ele>219</ele>
        <time>2024-09-19T13:50:19Z</time>
      </trkpt>
      <trkpt lat="45.76096" lon="5.23457">
        <ele>219.2</ele>
        <time>2024-09-19T13:50:20Z</time>
      </trkpt>
      <trkpt lat="45.76101" lon="5.23452">
        <ele>219.6</ele>
        <time>2024-09-19T13:50:21Z</time>
      </trkpt>
      <trkpt lat="45.76106" lon="5.23446">
        <ele>219.6</ele>
        <time>2024-09-19T13:50:22Z</time>
      </trkpt>
      <trkpt lat="45.76111" lon="5.23442">
        <ele>219.6</ele>
        <time>2024-09-19T13:50:23Z</time>
      </trkpt>
      <trkpt lat="45.76116" lon="5.23436">
        <ele>219.6</ele>
        <time>2024-09-19T13:50:24Z</time>
      </trkpt>
      <trkpt lat="45.7612" lon="5.2343">
        <ele>219.4</ele>
        <time>2024-09-19T13:50:25Z</time>
      </trkpt>
      <trkpt lat="45.76126" lon="5.23424">
        <ele>219.4</ele>
        <time>2024-09-19T13:50:26Z</time>
      </trkpt>
      <trkpt lat="45.76131" lon="5.23419">
        <ele>219.4</ele>
        <time>2024-09-19T13:50:27Z</time>
      </trkpt>
      <trkpt lat="45.76137" lon="5.23414">
        <ele>219.4</ele>
        <time>2024-09-19T13:50:28Z</time>
      </trkpt>
      <trkpt lat="45.76142" lon="5.23408">
        <ele>219.4</ele>
        <time>2024-09-19T13:50:29Z</time>
      </trkpt>
      <trkpt lat="45.76148" lon="5.23403">
        <ele>219.2</ele>
        <time>2024-09-19T13:50:30Z</time>
      </trkpt>
      <trkpt lat="45.76153" lon="5.23397">
        <ele>219.2</ele>
        <time>2024-09-19T13:50:31Z</time>
      </trkpt>
      <trkpt lat="45.76158" lon="5.23392">
        <ele>219.4</ele>
        <time>2024-09-19T13:50:32Z</time>
      </trkpt>
      <trkpt lat="45.76163" lon="5.23386">
        <ele>219.4</ele>
        <time>2024-09-19T13:50:33Z</time>
      </trkpt>
      <trkpt lat="45.76169" lon="5.2338">
        <ele>219.4</ele>
        <time>2024-09-19T13:50:34Z</time>
      </trkpt>
      <trkpt lat="45.76174" lon="5.23375">
        <ele>219.4</ele>
        <time>2024-09-19T13:50:35Z</time>
      </trkpt>
      <trkpt lat="45.76178" lon="5.23369">
        <ele>219.4</ele>
        <time>2024-09-19T13:50:36Z</time>
      </trkpt>
      <trkpt lat="45.76183" lon="5.23363">
        <ele>219.2</ele>
        <time>2024-09-19T13:50:37Z</time>
      </trkpt>
      <trkpt lat="45.76188" lon="5.23358">
        <ele>219.2</ele>
        <time>2024-09-19T13:50:38Z</time>
      </trkpt>
      <trkpt lat="45.76193" lon="5.23353">
        <ele>219.2</ele>
        <time>2024-09-19T13:50:39Z</time>
      </trkpt>
      <trkpt lat="45.76198" lon="5.23347">
        <ele>219.2</ele>
        <time>2024-09-19T13:50:40Z</time>
      </trkpt>
      <trkpt lat="45.76203" lon="5.23341">
        <ele>218.8</ele>
        <time>2024-09-19T13:50:41Z</time>
      </trkpt>
      <trkpt lat="45.76208" lon="5.23336">
        <ele>218.8</ele>
        <time>2024-09-19T13:50:42Z</time>
      </trkpt>
      <trkpt lat="45.76213" lon="5.2333">
        <ele>219.4</ele>
        <time>2024-09-19T13:50:43Z</time>
      </trkpt>
      <trkpt lat="45.76218" lon="5.23324">
        <ele>219.4</ele>
        <time>2024-09-19T13:50:44Z</time>
      </trkpt>
      <trkpt lat="45.76223" lon="5.23319">
        <ele>219.2</ele>
        <time>2024-09-19T13:50:45Z</time>
      </trkpt>
      <trkpt lat="45.76227" lon="5.23312">
        <ele>219.2</ele>
        <time>2024-09-19T13:50:46Z</time>
      </trkpt>
      <trkpt lat="45.76232" lon="5.23307">
        <ele>219.2</ele>
        <time>2024-09-19T13:50:47Z</time>
      </trkpt>
      <trkpt lat="45.76236" lon="5.23303">
        <ele>219</ele>
        <time>2024-09-19T13:50:48Z</time>
      </trkpt>
      <trkpt lat="45.7624" lon="5.23299">
        <ele>219.4</ele>
        <time>2024-09-19T13:50:49Z</time>
      </trkpt>
      <trkpt lat="45.76244" lon="5.23294">
        <ele>219.4</ele>
        <time>2024-09-19T13:50:50Z</time>
      </trkpt>
      <trkpt lat="45.76247" lon="5.23289">
        <ele>219.4</ele>
        <time>2024-09-19T13:50:51Z</time>
      </trkpt>
      <trkpt lat="45.76252" lon="5.23288">
        <ele>219.4</ele>
        <time>2024-09-19T13:50:52Z</time>
      </trkpt>
      <trkpt lat="45.76256" lon="5.23289">
        <ele>219.4</ele>
        <time>2024-09-19T13:50:53Z</time>
      </trkpt>
      <trkpt lat="45.76259" lon="5.23291">
        <ele>220</ele>
        <time>2024-09-19T13:50:54Z</time>
      </trkpt>
      <trkpt lat="45.76261" lon="5.23294">
        <ele>220.4</ele>
        <time>2024-09-19T13:50:55Z</time>
      </trkpt>
      <trkpt lat="45.76263" lon="5.23297">
        <ele>220.4</ele>
        <time>2024-09-19T13:50:56Z</time>
      </trkpt>
      <trkpt lat="45.76265" lon="5.233">
        <ele>220.4</ele>
        <time>2024-09-19T13:50:57Z</time>
      </trkpt>
      <trkpt lat="45.76267" lon="5.23305">
        <ele>220.4</ele>
        <time>2024-09-19T13:50:58Z</time>
      </trkpt>
      <trkpt lat="45.76269" lon="5.23309">
        <ele>220.4</ele>
        <time>2024-09-19T13:50:59Z</time>
      </trkpt>
      <trkpt lat="45.76271" lon="5.23313">
        <ele>220.4</ele>
        <time>2024-09-19T13:51:00Z</time>
      </trkpt>
      <trkpt lat="45.76273" lon="5.23317">
        <ele>220.4</ele>
        <time>2024-09-19T13:51:01Z</time>
      </trkpt>
      <trkpt lat="45.76275" lon="5.23323">
        <ele>220.4</ele>
        <time>2024-09-19T13:51:02Z</time>
      </trkpt>
      <trkpt lat="45.76277" lon="5.23328">
        <ele>220.4</ele>
        <time>2024-09-19T13:51:03Z</time>
      </trkpt>
      <trkpt lat="45.7628" lon="5.23333">
        <ele>220.4</ele>
        <time>2024-09-19T13:51:04Z</time>
      </trkpt>
      <trkpt lat="45.76282" lon="5.23337">
        <ele>220.4</ele>
        <time>2024-09-19T13:51:05Z</time>
      </trkpt>
      <trkpt lat="45.76284" lon="5.23342">
        <ele>220.4</ele>
        <time>2024-09-19T13:51:06Z</time>
      </trkpt>
      <trkpt lat="45.76287" lon="5.23347">
        <ele>220.6</ele>
        <time>2024-09-19T13:51:07Z</time>
      </trkpt>
      <trkpt lat="45.76289" lon="5.23351">
        <ele>220.6</ele>
        <time>2024-09-19T13:51:08Z</time>
      </trkpt>
      <trkpt lat="45.76291" lon="5.23354">
        <ele>220.6</ele>
        <time>2024-09-19T13:51:09Z</time>
      </trkpt>
      <trkpt lat="45.76294" lon="5.23358">
        <ele>220.6</ele>
        <time>2024-09-19T13:51:10Z</time>
      </trkpt>
      <trkpt lat="45.76298" lon="5.23361">
        <ele>220.6</ele>
        <time>2024-09-19T13:51:11Z</time>
      </trkpt>
      <trkpt lat="45.76301" lon="5.23364">
        <ele>220.2</ele>
        <time>2024-09-19T13:51:12Z</time>
      </trkpt>
      <trkpt lat="45.76301" lon="5.23364">
        <ele>220</ele>
        <time>2024-09-19T13:51:13Z</time>
      </trkpt>
      <trkpt lat="45.76304" lon="5.23366">
        <ele>220</ele>
        <time>2024-09-19T13:51:14Z</time>
      </trkpt>
      <trkpt lat="45.7631" lon="5.23364">
        <ele>220</ele>
        <time>2024-09-19T13:51:15Z</time>
      </trkpt>
      <trkpt lat="45.76314" lon="5.23361">
        <ele>220.4</ele>
        <time>2024-09-19T13:51:16Z</time>
      </trkpt>
      <trkpt lat="45.76318" lon="5.23357">
        <ele>221.2</ele>
        <time>2024-09-19T13:51:17Z</time>
      </trkpt>
      <trkpt lat="45.76321" lon="5.23353">
        <ele>221.2</ele>
        <time>2024-09-19T13:51:18Z</time>
      </trkpt>
      <trkpt lat="45.76325" lon="5.23349">
        <ele>221</ele>
        <time>2024-09-19T13:51:19Z</time>
      </trkpt>
      <trkpt lat="45.76329" lon="5.23345">
        <ele>221</ele>
        <time>2024-09-19T13:51:20Z</time>
      </trkpt>
      <trkpt lat="45.76333" lon="5.23341">
        <ele>221</ele>
        <time>2024-09-19T13:51:21Z</time>
      </trkpt>
      <trkpt lat="45.76337" lon="5.23337">
        <ele>221</ele>
        <time>2024-09-19T13:51:22Z</time>
      </trkpt>
      <trkpt lat="45.7634" lon="5.23333">
        <ele>221</ele>
        <time>2024-09-19T13:51:23Z</time>
      </trkpt>
      <trkpt lat="45.76348" lon="5.23324">
        <ele>221</ele>
        <time>2024-09-19T13:51:24Z</time>
      </trkpt>
      <trkpt lat="45.76352" lon="5.2332">
        <ele>221</ele>
        <time>2024-09-19T13:51:25Z</time>
      </trkpt>
      <trkpt lat="45.76356" lon="5.23315">
        <ele>221</ele>
        <time>2024-09-19T13:51:26Z</time>
      </trkpt>
      <trkpt lat="45.76359" lon="5.23312">
        <ele>221</ele>
        <time>2024-09-19T13:51:27Z</time>
      </trkpt>
      <trkpt lat="45.76363" lon="5.23307">
        <ele>221</ele>
        <time>2024-09-19T13:51:28Z</time>
      </trkpt>
      <trkpt lat="45.76367" lon="5.23303">
        <ele>221</ele>
        <time>2024-09-19T13:51:29Z</time>
      </trkpt>
      <trkpt lat="45.76371" lon="5.23299">
        <ele>221</ele>
        <time>2024-09-19T13:51:30Z</time>
      </trkpt>
      <trkpt lat="45.76375" lon="5.23294">
        <ele>220.6</ele>
        <time>2024-09-19T13:51:31Z</time>
      </trkpt>
      <trkpt lat="45.76379" lon="5.23289">
        <ele>221</ele>
        <time>2024-09-19T13:51:32Z</time>
      </trkpt>
      <trkpt lat="45.76383" lon="5.23285">
        <ele>221.6</ele>
        <time>2024-09-19T13:51:33Z</time>
      </trkpt>
      <trkpt lat="45.76387" lon="5.23281">
        <ele>221.6</ele>
        <time>2024-09-19T13:51:34Z</time>
      </trkpt>
      <trkpt lat="45.76391" lon="5.23277">
        <ele>221.2</ele>
        <time>2024-09-19T13:51:35Z</time>
      </trkpt>
      <trkpt lat="45.76395" lon="5.23272">
        <ele>221.4</ele>
        <time>2024-09-19T13:51:36Z</time>
      </trkpt>
      <trkpt lat="45.76399" lon="5.23267">
        <ele>221.4</ele>
        <time>2024-09-19T13:51:37Z</time>
      </trkpt>
      <trkpt lat="45.76403" lon="5.23263">
        <ele>221.4</ele>
        <time>2024-09-19T13:51:38Z</time>
      </trkpt>
      <trkpt lat="45.76408" lon="5.23259">
        <ele>221.4</ele>
        <time>2024-09-19T13:51:39Z</time>
      </trkpt>
      <trkpt lat="45.76412" lon="5.23254">
        <ele>221.4</ele>
        <time>2024-09-19T13:51:40Z</time>
      </trkpt>
      <trkpt lat="45.76416" lon="5.23249">
        <ele>221.4</ele>
        <time>2024-09-19T13:51:41Z</time>
      </trkpt>
      <trkpt lat="45.7642" lon="5.23245">
        <ele>221.4</ele>
        <time>2024-09-19T13:51:42Z</time>
      </trkpt>
      <trkpt lat="45.76425" lon="5.23241">
        <ele>221.4</ele>
        <time>2024-09-19T13:51:43Z</time>
      </trkpt>
      <trkpt lat="45.76429" lon="5.23237">
        <ele>220.4</ele>
        <time>2024-09-19T13:51:44Z</time>
      </trkpt>
      <trkpt lat="45.76433" lon="5.23233">
        <ele>220.6</ele>
        <time>2024-09-19T13:51:45Z</time>
      </trkpt>
      <trkpt lat="45.76438" lon="5.23228">
        <ele>221</ele>
        <time>2024-09-19T13:51:46Z</time>
      </trkpt>
      <trkpt lat="45.76442" lon="5.23224">
        <ele>221</ele>
        <time>2024-09-19T13:51:47Z</time>
      </trkpt>
      <trkpt lat="45.76447" lon="5.23219">
        <ele>220.6</ele>
        <time>2024-09-19T13:51:48Z</time>
      </trkpt>
      <trkpt lat="45.76451" lon="5.23216">
        <ele>220.2</ele>
        <time>2024-09-19T13:51:49Z</time>
      </trkpt>
      <trkpt lat="45.76456" lon="5.2321">
        <ele>220.2</ele>
        <time>2024-09-19T13:51:50Z</time>
      </trkpt>
      <trkpt lat="45.76459" lon="5.23205">
        <ele>220.2</ele>
        <time>2024-09-19T13:51:51Z</time>
      </trkpt>
      <trkpt lat="45.76464" lon="5.232">
        <ele>220.2</ele>
        <time>2024-09-19T13:51:52Z</time>
      </trkpt>
      <trkpt lat="45.76468" lon="5.23196">
        <ele>220.2</ele>
        <time>2024-09-19T13:51:53Z</time>
      </trkpt>
      <trkpt lat="45.76473" lon="5.23191">
        <ele>220.2</ele>
        <time>2024-09-19T13:51:54Z</time>
      </trkpt>
      <trkpt lat="45.76478" lon="5.23186">
        <ele>220.2</ele>
        <time>2024-09-19T13:51:55Z</time>
      </trkpt>
      <trkpt lat="45.76483" lon="5.23181">
        <ele>219.4</ele>
        <time>2024-09-19T13:51:56Z</time>
      </trkpt>
      <trkpt lat="45.76487" lon="5.23176">
        <ele>219.4</ele>
        <time>2024-09-19T13:51:57Z</time>
      </trkpt>
      <trkpt lat="45.76493" lon="5.23172">
        <ele>219.4</ele>
        <time>2024-09-19T13:51:58Z</time>
      </trkpt>
      <trkpt lat="45.76497" lon="5.23167">
        <ele>219</ele>
        <time>2024-09-19T13:51:59Z</time>
      </trkpt>
      <trkpt lat="45.76502" lon="5.23162">
        <ele>219.4</ele>
        <time>2024-09-19T13:52:00Z</time>
      </trkpt>
      <trkpt lat="45.76506" lon="5.23157">
        <ele>220</ele>
        <time>2024-09-19T13:52:01Z</time>
      </trkpt>
      <trkpt lat="45.76511" lon="5.23153">
        <ele>220</ele>
        <time>2024-09-19T13:52:02Z</time>
      </trkpt>
      <trkpt lat="45.76515" lon="5.23148">
        <ele>219.6</ele>
        <time>2024-09-19T13:52:03Z</time>
      </trkpt>
      <trkpt lat="45.76518" lon="5.23144">
        <ele>219.6</ele>
        <time>2024-09-19T13:52:04Z</time>
      </trkpt>
      <trkpt lat="45.76522" lon="5.23139">
        <ele>219.6</ele>
        <time>2024-09-19T13:52:05Z</time>
      </trkpt>
      <trkpt lat="45.76526" lon="5.23135">
        <ele>220</ele>
        <time>2024-09-19T13:52:06Z</time>
      </trkpt>
      <trkpt lat="45.76529" lon="5.23131">
        <ele>220.4</ele>
        <time>2024-09-19T13:52:07Z</time>
      </trkpt>
      <trkpt lat="45.76533" lon="5.23128">
        <ele>220.4</ele>
        <time>2024-09-19T13:52:08Z</time>
      </trkpt>
      <trkpt lat="45.76537" lon="5.23124">
        <ele>220.4</ele>
        <time>2024-09-19T13:52:09Z</time>
      </trkpt>
      <trkpt lat="45.76541" lon="5.23121">
        <ele>220.4</ele>
        <time>2024-09-19T13:52:10Z</time>
      </trkpt>
      <trkpt lat="45.76544" lon="5.23117">
        <ele>220.4</ele>
        <time>2024-09-19T13:52:11Z</time>
      </trkpt>
      <trkpt lat="45.76548" lon="5.23112">
        <ele>220.4</ele>
        <time>2024-09-19T13:52:12Z</time>
      </trkpt>
      <trkpt lat="45.76552" lon="5.23108">
        <ele>219.4</ele>
        <time>2024-09-19T13:52:13Z</time>
      </trkpt>
      <trkpt lat="45.76556" lon="5.23104">
        <ele>220</ele>
        <time>2024-09-19T13:52:14Z</time>
      </trkpt>
      <trkpt lat="45.76559" lon="5.231">
        <ele>220</ele>
        <time>2024-09-19T13:52:15Z</time>
      </trkpt>
      <trkpt lat="45.76563" lon="5.23096">
        <ele>219.8</ele>
        <time>2024-09-19T13:52:16Z</time>
      </trkpt>
      <trkpt lat="45.76567" lon="5.23093">
        <ele>220</ele>
        <time>2024-09-19T13:52:17Z</time>
      </trkpt>
      <trkpt lat="45.7657" lon="5.23089">
        <ele>220</ele>
        <time>2024-09-19T13:52:18Z</time>
      </trkpt>
      <trkpt lat="45.76574" lon="5.23085">
        <ele>220</ele>
        <time>2024-09-19T13:52:19Z</time>
      </trkpt>
      <trkpt lat="45.76578" lon="5.23081">
        <ele>221.2</ele>
        <time>2024-09-19T13:52:20Z</time>
      </trkpt>
      <trkpt lat="45.76582" lon="5.23077">
        <ele>221.2</ele>
        <time>2024-09-19T13:52:21Z</time>
      </trkpt>
      <trkpt lat="45.76586" lon="5.23072">
        <ele>221.2</ele>
        <time>2024-09-19T13:52:22Z</time>
      </trkpt>
      <trkpt lat="45.7659" lon="5.23068">
        <ele>221.6</ele>
        <time>2024-09-19T13:52:23Z</time>
      </trkpt>
      <trkpt lat="45.76594" lon="5.23063">
        <ele>221</ele>
        <time>2024-09-19T13:52:24Z</time>
      </trkpt>
      <trkpt lat="45.76598" lon="5.23059">
        <ele>220.8</ele>
        <time>2024-09-19T13:52:25Z</time>
      </trkpt>
      <trkpt lat="45.76602" lon="5.23055">
        <ele>220.8</ele>
        <time>2024-09-19T13:52:26Z</time>
      </trkpt>
      <trkpt lat="45.76606" lon="5.23051">
        <ele>220.8</ele>
        <time>2024-09-19T13:52:27Z</time>
      </trkpt>
      <trkpt lat="45.7661" lon="5.23047">
        <ele>221</ele>
        <time>2024-09-19T13:52:28Z</time>
      </trkpt>
      <trkpt lat="45.76613" lon="5.23042">
        <ele>221</ele>
        <time>2024-09-19T13:52:29Z</time>
      </trkpt>
      <trkpt lat="45.76617" lon="5.23038">
        <ele>221</ele>
        <time>2024-09-19T13:52:30Z</time>
      </trkpt>
      <trkpt lat="45.76622" lon="5.23034">
        <ele>220.6</ele>
        <time>2024-09-19T13:52:31Z</time>
      </trkpt>
      <trkpt lat="45.76626" lon="5.2303">
        <ele>220.8</ele>
        <time>2024-09-19T13:52:32Z</time>
      </trkpt>
      <trkpt lat="45.7663" lon="5.23026">
        <ele>220.8</ele>
        <time>2024-09-19T13:52:33Z</time>
      </trkpt>
      <trkpt lat="45.76633" lon="5.23021">
        <ele>220.8</ele>
        <time>2024-09-19T13:52:34Z</time>
      </trkpt>
      <trkpt lat="45.76637" lon="5.23016">
        <ele>220.8</ele>
        <time>2024-09-19T13:52:35Z</time>
      </trkpt>
      <trkpt lat="45.76641" lon="5.23012">
        <ele>221.2</ele>
        <time>2024-09-19T13:52:36Z</time>
      </trkpt>
      <trkpt lat="45.76645" lon="5.23007">
        <ele>221</ele>
        <time>2024-09-19T13:52:37Z</time>
      </trkpt>
      <trkpt lat="45.76649" lon="5.23003">
        <ele>220.8</ele>
        <time>2024-09-19T13:52:38Z</time>
      </trkpt>
      <trkpt lat="45.76653" lon="5.22999">
        <ele>220.2</ele>
        <time>2024-09-19T13:52:39Z</time>
      </trkpt>
      <trkpt lat="45.76657" lon="5.22993">
        <ele>219.2</ele>
        <time>2024-09-19T13:52:40Z</time>
      </trkpt>
      <trkpt lat="45.76662" lon="5.22991">
        <ele>219.8</ele>
        <time>2024-09-19T13:52:41Z</time>
      </trkpt>
      <trkpt lat="45.76666" lon="5.22987">
        <ele>219.8</ele>
        <time>2024-09-19T13:52:42Z</time>
      </trkpt>
      <trkpt lat="45.7667" lon="5.22982">
        <ele>219.8</ele>
        <time>2024-09-19T13:52:43Z</time>
      </trkpt>
      <trkpt lat="45.76674" lon="5.22978">
        <ele>219.4</ele>
        <time>2024-09-19T13:52:44Z</time>
      </trkpt>
      <trkpt lat="45.76677" lon="5.22975">
        <ele>219.4</ele>
        <time>2024-09-19T13:52:45Z</time>
      </trkpt>
      <trkpt lat="45.76681" lon="5.2297">
        <ele>220</ele>
        <time>2024-09-19T13:52:46Z</time>
      </trkpt>
      <trkpt lat="45.76684" lon="5.22966">
        <ele>220</ele>
        <time>2024-09-19T13:52:47Z</time>
      </trkpt>
      <trkpt lat="45.76687" lon="5.22962">
        <ele>220</ele>
        <time>2024-09-19T13:52:48Z</time>
      </trkpt>
      <trkpt lat="45.76692" lon="5.22959">
        <ele>220</ele>
        <time>2024-09-19T13:52:49Z</time>
      </trkpt>
      <trkpt lat="45.76696" lon="5.22956">
        <ele>220</ele>
        <time>2024-09-19T13:52:50Z</time>
      </trkpt>
      <trkpt lat="45.767" lon="5.22951">
        <ele>220</ele>
        <time>2024-09-19T13:52:51Z</time>
      </trkpt>
      <trkpt lat="45.76704" lon="5.22947">
        <ele>220</ele>
        <time>2024-09-19T13:52:52Z</time>
      </trkpt>
      <trkpt lat="45.76708" lon="5.22943">
        <ele>220</ele>
        <time>2024-09-19T13:52:53Z</time>
      </trkpt>
      <trkpt lat="45.76712" lon="5.22939">
        <ele>219.8</ele>
        <time>2024-09-19T13:52:54Z</time>
      </trkpt>
      <trkpt lat="45.76716" lon="5.22935">
        <ele>219.8</ele>
        <time>2024-09-19T13:52:55Z</time>
      </trkpt>
      <trkpt lat="45.76719" lon="5.22931">
        <ele>220</ele>
        <time>2024-09-19T13:52:56Z</time>
      </trkpt>
      <trkpt lat="45.76723" lon="5.22929">
        <ele>220.4</ele>
        <time>2024-09-19T13:52:57Z</time>
      </trkpt>
      <trkpt lat="45.76726" lon="5.22925">
        <ele>220.4</ele>
        <time>2024-09-19T13:52:58Z</time>
      </trkpt>
      <trkpt lat="45.7673" lon="5.22921">
        <ele>220.4</ele>
        <time>2024-09-19T13:52:59Z</time>
      </trkpt>
      <trkpt lat="45.76734" lon="5.22917">
        <ele>220.8</ele>
        <time>2024-09-19T13:53:00Z</time>
      </trkpt>
      <trkpt lat="45.76738" lon="5.22913">
        <ele>220.4</ele>
        <time>2024-09-19T13:53:01Z</time>
      </trkpt>
      <trkpt lat="45.76741" lon="5.22909">
        <ele>220.4</ele>
        <time>2024-09-19T13:53:02Z</time>
      </trkpt>
      <trkpt lat="45.76744" lon="5.22906">
        <ele>220.8</ele>
        <time>2024-09-19T13:53:03Z</time>
      </trkpt>
      <trkpt lat="45.76747" lon="5.229">
        <ele>220.8</ele>
        <time>2024-09-19T13:53:04Z</time>
      </trkpt>
      <trkpt lat="45.76749" lon="5.22896">
        <ele>220.4</ele>
        <time>2024-09-19T13:53:05Z</time>
      </trkpt>
      <trkpt lat="45.76752" lon="5.22892">
        <ele>220.6</ele>
        <time>2024-09-19T13:53:06Z</time>
      </trkpt>
      <trkpt lat="45.76755" lon="5.22888">
        <ele>220.4</ele>
        <time>2024-09-19T13:53:07Z</time>
      </trkpt>
      <trkpt lat="45.76759" lon="5.22884">
        <ele>220.4</ele>
        <time>2024-09-19T13:53:08Z</time>
      </trkpt>
      <trkpt lat="45.76762" lon="5.22881">
        <ele>220.4</ele>
        <time>2024-09-19T13:53:09Z</time>
      </trkpt>
      <trkpt lat="45.76765" lon="5.22877">
        <ele>221</ele>
        <time>2024-09-19T13:53:10Z</time>
      </trkpt>
      <trkpt lat="45.76769" lon="5.22874">
        <ele>221</ele>
        <time>2024-09-19T13:53:11Z</time>
      </trkpt>
      <trkpt lat="45.76772" lon="5.22872">
        <ele>221.4</ele>
        <time>2024-09-19T13:53:12Z</time>
      </trkpt>
      <trkpt lat="45.76774" lon="5.22868">
        <ele>220.8</ele>
        <time>2024-09-19T13:53:13Z</time>
      </trkpt>
      <trkpt lat="45.76777" lon="5.22864">
        <ele>220.8</ele>
        <time>2024-09-19T13:53:14Z</time>
      </trkpt>
      <trkpt lat="45.76779" lon="5.22861">
        <ele>220.8</ele>
        <time>2024-09-19T13:53:15Z</time>
      </trkpt>
      <trkpt lat="45.76779" lon="5.22859">
        <ele>220.8</ele>
        <time>2024-09-19T13:53:16Z</time>
      </trkpt>
      <trkpt lat="45.7678" lon="5.22858">
        <ele>221</ele>
        <time>2024-09-19T13:53:17Z</time>
      </trkpt>
      <trkpt lat="45.76781" lon="5.22856">
        <ele>221</ele>
        <time>2024-09-19T13:53:18Z</time>
      </trkpt>
      <trkpt lat="45.7678" lon="5.22853">
        <ele>221.4</ele>
        <time>2024-09-19T13:53:19Z</time>
      </trkpt>
      <trkpt lat="45.76779" lon="5.22849">
        <ele>221.4</ele>
        <time>2024-09-19T13:53:20Z</time>
      </trkpt>
      <trkpt lat="45.76776" lon="5.22846">
        <ele>221.6</ele>
        <time>2024-09-19T13:53:21Z</time>
      </trkpt>
      <trkpt lat="45.76774" lon="5.22843">
        <ele>221.6</ele>
        <time>2024-09-19T13:53:22Z</time>
      </trkpt>
      <trkpt lat="45.76771" lon="5.22841">
        <ele>221.6</ele>
        <time>2024-09-19T13:53:23Z</time>
      </trkpt>
      <trkpt lat="45.76768" lon="5.22837">
        <ele>221.6</ele>
        <time>2024-09-19T13:53:24Z</time>
      </trkpt>
      <trkpt lat="45.76765" lon="5.22834">
        <ele>221.6</ele>
        <time>2024-09-19T13:53:25Z</time>
      </trkpt>
      <trkpt lat="45.76761" lon="5.2283">
        <ele>221.6</ele>
        <time>2024-09-19T13:53:26Z</time>
      </trkpt>
      <trkpt lat="45.76758" lon="5.22827">
        <ele>221.4</ele>
        <time>2024-09-19T13:53:27Z</time>
      </trkpt>
      <trkpt lat="45.76755" lon="5.22823">
        <ele>221.4</ele>
        <time>2024-09-19T13:53:28Z</time>
      </trkpt>
      <trkpt lat="45.76751" lon="5.2282">
        <ele>221</ele>
        <time>2024-09-19T13:53:29Z</time>
      </trkpt>
      <trkpt lat="45.76747" lon="5.22817">
        <ele>221</ele>
        <time>2024-09-19T13:53:30Z</time>
      </trkpt>
      <trkpt lat="45.76744" lon="5.22813">
        <ele>221</ele>
        <time>2024-09-19T13:53:31Z</time>
      </trkpt>
      <trkpt lat="45.7674" lon="5.22809">
        <ele>221</ele>
        <time>2024-09-19T13:53:32Z</time>
      </trkpt>
      <trkpt lat="45.76736" lon="5.22806">
        <ele>221</ele>
        <time>2024-09-19T13:53:33Z</time>
      </trkpt>
      <trkpt lat="45.76732" lon="5.22802">
        <ele>221</ele>
        <time>2024-09-19T13:53:34Z</time>
      </trkpt>
      <trkpt lat="45.76728" lon="5.22798">
        <ele>221</ele>
        <time>2024-09-19T13:53:35Z</time>
      </trkpt>
      <trkpt lat="45.76725" lon="5.22794">
        <ele>221</ele>
        <time>2024-09-19T13:53:36Z</time>
      </trkpt>
      <trkpt lat="45.76722" lon="5.22789">
        <ele>221.4</ele>
        <time>2024-09-19T13:53:37Z</time>
      </trkpt>
      <trkpt lat="45.7672" lon="5.22786">
        <ele>221.4</ele>
        <time>2024-09-19T13:53:38Z</time>
      </trkpt>
      <trkpt lat="45.7672" lon="5.22783">
        <ele>221.4</ele>
        <time>2024-09-19T13:53:39Z</time>
      </trkpt>
      <trkpt lat="45.7672" lon="5.2278">
        <ele>221.4</ele>
        <time>2024-09-19T13:53:40Z</time>
      </trkpt>
      <trkpt lat="45.76722" lon="5.22776">
        <ele>221</ele>
        <time>2024-09-19T13:53:41Z</time>
      </trkpt>
      <trkpt lat="45.76724" lon="5.22774">
        <ele>221</ele>
        <time>2024-09-19T13:53:42Z</time>
      </trkpt>
      <trkpt lat="45.76726" lon="5.22771">
        <ele>221</ele>
        <time>2024-09-19T13:53:43Z</time>
      </trkpt>
      <trkpt lat="45.76728" lon="5.22767">
        <ele>220.8</ele>
        <time>2024-09-19T13:53:44Z</time>
      </trkpt>
      <trkpt lat="45.76731" lon="5.22764">
        <ele>220.4</ele>
        <time>2024-09-19T13:53:45Z</time>
      </trkpt>
      <trkpt lat="45.76734" lon="5.22761">
        <ele>220.6</ele>
        <time>2024-09-19T13:53:46Z</time>
      </trkpt>
      <trkpt lat="45.76737" lon="5.22757">
        <ele>220.2</ele>
        <time>2024-09-19T13:53:47Z</time>
      </trkpt>
      <trkpt lat="45.76741" lon="5.22754">
        <ele>219.8</ele>
        <time>2024-09-19T13:53:48Z</time>
      </trkpt>
      <trkpt lat="45.76745" lon="5.2275">
        <ele>219.8</ele>
        <time>2024-09-19T13:53:49Z</time>
      </trkpt>
      <trkpt lat="45.76748" lon="5.22747">
        <ele>219</ele>
        <time>2024-09-19T13:53:50Z</time>
      </trkpt>
      <trkpt lat="45.76752" lon="5.22744">
        <ele>218.2</ele>
        <time>2024-09-19T13:53:51Z</time>
      </trkpt>
      <trkpt lat="45.76757" lon="5.22743">
        <ele>218.2</ele>
        <time>2024-09-19T13:53:52Z</time>
      </trkpt>
      <trkpt lat="45.76761" lon="5.22737">
        <ele>217.4</ele>
        <time>2024-09-19T13:53:53Z</time>
      </trkpt>
      <trkpt lat="45.76766" lon="5.22732">
        <ele>217</ele>
        <time>2024-09-19T13:53:54Z</time>
      </trkpt>
      <trkpt lat="45.76771" lon="5.22727">
        <ele>216.2</ele>
        <time>2024-09-19T13:53:55Z</time>
      </trkpt>
      <trkpt lat="45.76776" lon="5.22721">
        <ele>216.2</ele>
        <time>2024-09-19T13:53:56Z</time>
      </trkpt>
      <trkpt lat="45.76781" lon="5.22715">
        <ele>215.6</ele>
        <time>2024-09-19T13:53:57Z</time>
      </trkpt>
      <trkpt lat="45.76785" lon="5.2271">
        <ele>215.6</ele>
        <time>2024-09-19T13:53:58Z</time>
      </trkpt>
      <trkpt lat="45.7679" lon="5.22706">
        <ele>215.2</ele>
        <time>2024-09-19T13:53:59Z</time>
      </trkpt>
      <trkpt lat="45.76795" lon="5.22702">
        <ele>215.6</ele>
        <time>2024-09-19T13:54:00Z</time>
      </trkpt>
      <trkpt lat="45.76799" lon="5.22696">
        <ele>215.6</ele>
        <time>2024-09-19T13:54:01Z</time>
      </trkpt>
      <trkpt lat="45.76803" lon="5.22692">
        <ele>215.8</ele>
        <time>2024-09-19T13:54:02Z</time>
      </trkpt>
      <trkpt lat="45.76807" lon="5.22687">
        <ele>215.8</ele>
        <time>2024-09-19T13:54:03Z</time>
      </trkpt>
      <trkpt lat="45.76812" lon="5.22682">
        <ele>215.2</ele>
        <time>2024-09-19T13:54:04Z</time>
      </trkpt>
      <trkpt lat="45.76817" lon="5.22677">
        <ele>215.2</ele>
        <time>2024-09-19T13:54:05Z</time>
      </trkpt>
      <trkpt lat="45.7682" lon="5.22672">
        <ele>215.6</ele>
        <time>2024-09-19T13:54:06Z</time>
      </trkpt>
      <trkpt lat="45.76826" lon="5.22667">
        <ele>215.6</ele>
        <time>2024-09-19T13:54:07Z</time>
      </trkpt>
      <trkpt lat="45.7683" lon="5.22663">
        <ele>215.6</ele>
        <time>2024-09-19T13:54:08Z</time>
      </trkpt>
      <trkpt lat="45.76834" lon="5.22658">
        <ele>215.2</ele>
        <time>2024-09-19T13:54:09Z</time>
      </trkpt>
      <trkpt lat="45.76834" lon="5.22658">
        <ele>215.2</ele>
        <time>2024-09-19T13:54:10Z</time>
      </trkpt>
      <trkpt lat="45.76838" lon="5.22654">
        <ele>215.2</ele>
        <time>2024-09-19T13:54:11Z</time>
      </trkpt>
      <trkpt lat="45.7684" lon="5.2265">
        <ele>215.2</ele>
        <time>2024-09-19T13:54:12Z</time>
      </trkpt>
      <trkpt lat="45.76841" lon="5.22648">
        <ele>215.6</ele>
        <time>2024-09-19T13:54:13Z</time>
      </trkpt>
      <trkpt lat="45.76841" lon="5.22647">
        <ele>215.6</ele>
        <time>2024-09-19T13:54:14Z</time>
      </trkpt>
      <trkpt lat="45.76842" lon="5.22646">
        <ele>216</ele>
        <time>2024-09-19T13:54:15Z</time>
      </trkpt>
      <trkpt lat="45.76841" lon="5.22644">
        <ele>216</ele>
        <time>2024-09-19T13:54:16Z</time>
      </trkpt>
      <trkpt lat="45.7684" lon="5.22642">
        <ele>216</ele>
        <time>2024-09-19T13:54:17Z</time>
      </trkpt>
      <trkpt lat="45.7684" lon="5.22639">
        <ele>216</ele>
        <time>2024-09-19T13:54:18Z</time>
      </trkpt>
      <trkpt lat="45.76838" lon="5.22635">
        <ele>216.2</ele>
        <time>2024-09-19T13:54:19Z</time>
      </trkpt>
      <trkpt lat="45.76836" lon="5.22632">
        <ele>216.2</ele>
        <time>2024-09-19T13:54:20Z</time>
      </trkpt>
      <trkpt lat="45.76834" lon="5.22628">
        <ele>216.2</ele>
        <time>2024-09-19T13:54:21Z</time>
      </trkpt>
      <trkpt lat="45.76831" lon="5.22624">
        <ele>215.8</ele>
        <time>2024-09-19T13:54:22Z</time>
      </trkpt>
      <trkpt lat="45.76825" lon="5.22616">
        <ele>215.8</ele>
        <time>2024-09-19T13:54:23Z</time>
      </trkpt>
      <trkpt lat="45.76822" lon="5.22612">
        <ele>216.2</ele>
        <time>2024-09-19T13:54:24Z</time>
      </trkpt>
      <trkpt lat="45.76819" lon="5.22607">
        <ele>216.2</ele>
        <time>2024-09-19T13:54:25Z</time>
      </trkpt>
      <trkpt lat="45.76817" lon="5.22602">
        <ele>215.2</ele>
        <time>2024-09-19T13:54:26Z</time>
      </trkpt>
      <trkpt lat="45.76814" lon="5.22597">
        <ele>215.2</ele>
        <time>2024-09-19T13:54:27Z</time>
      </trkpt>
      <trkpt lat="45.76811" lon="5.22592">
        <ele>215.6</ele>
        <time>2024-09-19T13:54:28Z</time>
      </trkpt>
      <trkpt lat="45.76808" lon="5.22587">
        <ele>215.4</ele>
        <time>2024-09-19T13:54:29Z</time>
      </trkpt>
      <trkpt lat="45.76806" lon="5.22581">
        <ele>215.8</ele>
        <time>2024-09-19T13:54:30Z</time>
      </trkpt>
      <trkpt lat="45.76804" lon="5.22576">
        <ele>216</ele>
        <time>2024-09-19T13:54:31Z</time>
      </trkpt>
      <trkpt lat="45.76801" lon="5.22571">
        <ele>216.4</ele>
        <time>2024-09-19T13:54:32Z</time>
      </trkpt>
      <trkpt lat="45.76798" lon="5.22564">
        <ele>216.2</ele>
        <time>2024-09-19T13:54:33Z</time>
      </trkpt>
      <trkpt lat="45.76796" lon="5.22558">
        <ele>216.2</ele>
        <time>2024-09-19T13:54:34Z</time>
      </trkpt>
      <trkpt lat="45.76794" lon="5.22553">
        <ele>215.8</ele>
        <time>2024-09-19T13:54:35Z</time>
      </trkpt>
      <trkpt lat="45.76791" lon="5.22546">
        <ele>215.8</ele>
        <time>2024-09-19T13:54:36Z</time>
      </trkpt>
      <trkpt lat="45.76789" lon="5.2254">
        <ele>215.8</ele>
        <time>2024-09-19T13:54:37Z</time>
      </trkpt>
      <trkpt lat="45.76787" lon="5.22533">
        <ele>216.8</ele>
        <time>2024-09-19T13:54:38Z</time>
      </trkpt>
      <trkpt lat="45.76785" lon="5.22527">
        <ele>216.8</ele>
        <time>2024-09-19T13:54:39Z</time>
      </trkpt>
      <trkpt lat="45.76782" lon="5.22521">
        <ele>216.2</ele>
        <time>2024-09-19T13:54:40Z</time>
      </trkpt>
      <trkpt lat="45.7678" lon="5.22515">
        <ele>216.2</ele>
        <time>2024-09-19T13:54:41Z</time>
      </trkpt>
      <trkpt lat="45.76778" lon="5.22509">
        <ele>215.8</ele>
        <time>2024-09-19T13:54:42Z</time>
      </trkpt>
      <trkpt lat="45.76775" lon="5.22503">
        <ele>215.4</ele>
        <time>2024-09-19T13:54:43Z</time>
      </trkpt>
      <trkpt lat="45.76773" lon="5.22497">
        <ele>215.4</ele>
        <time>2024-09-19T13:54:44Z</time>
      </trkpt>
      <trkpt lat="45.7677" lon="5.22491">
        <ele>214.6</ele>
        <time>2024-09-19T13:54:45Z</time>
      </trkpt>
      <trkpt lat="45.76768" lon="5.22484">
        <ele>214.6</ele>
        <time>2024-09-19T13:54:46Z</time>
      </trkpt>
      <trkpt lat="45.76765" lon="5.22479">
        <ele>214.6</ele>
        <time>2024-09-19T13:54:47Z</time>
      </trkpt>
      <trkpt lat="45.76762" lon="5.22472">
        <ele>214.6</ele>
        <time>2024-09-19T13:54:48Z</time>
      </trkpt>
      <trkpt lat="45.7676" lon="5.22466">
        <ele>214.8</ele>
        <time>2024-09-19T13:54:49Z</time>
      </trkpt>
      <trkpt lat="45.76757" lon="5.2246">
        <ele>215.6</ele>
        <time>2024-09-19T13:54:50Z</time>
      </trkpt>
      <trkpt lat="45.76754" lon="5.22454">
        <ele>215.2</ele>
        <time>2024-09-19T13:54:51Z</time>
      </trkpt>
      <trkpt lat="45.76751" lon="5.22448">
        <ele>215.6</ele>
        <time>2024-09-19T13:54:52Z</time>
      </trkpt>
      <trkpt lat="45.76748" lon="5.22443">
        <ele>215</ele>
        <time>2024-09-19T13:54:53Z</time>
      </trkpt>
      <trkpt lat="45.76745" lon="5.22437">
        <ele>215</ele>
        <time>2024-09-19T13:54:54Z</time>
      </trkpt>
      <trkpt lat="45.76742" lon="5.22433">
        <ele>215</ele>
        <time>2024-09-19T13:54:55Z</time>
      </trkpt>
      <trkpt lat="45.76738" lon="5.22427">
        <ele>214.4</ele>
        <time>2024-09-19T13:54:56Z</time>
      </trkpt>
      <trkpt lat="45.76735" lon="5.22422">
        <ele>214.4</ele>
        <time>2024-09-19T13:54:57Z</time>
      </trkpt>
      <trkpt lat="45.76731" lon="5.22417">
        <ele>214.4</ele>
        <time>2024-09-19T13:54:58Z</time>
      </trkpt>
      <trkpt lat="45.76728" lon="5.22412">
        <ele>214.4</ele>
        <time>2024-09-19T13:54:59Z</time>
      </trkpt>
      <trkpt lat="45.76724" lon="5.22408">
        <ele>214.2</ele>
        <time>2024-09-19T13:55:00Z</time>
      </trkpt>
      <trkpt lat="45.76721" lon="5.22403">
        <ele>214.8</ele>
        <time>2024-09-19T13:55:01Z</time>
      </trkpt>
      <trkpt lat="45.76717" lon="5.22398">
        <ele>214.8</ele>
        <time>2024-09-19T13:55:02Z</time>
      </trkpt>
      <trkpt lat="45.76716" lon="5.22394">
        <ele>214.4</ele>
        <time>2024-09-19T13:55:03Z</time>
      </trkpt>
      <trkpt lat="45.76711" lon="5.2239">
        <ele>213.2</ele>
        <time>2024-09-19T13:55:04Z</time>
      </trkpt>
      <trkpt lat="45.76708" lon="5.22384">
        <ele>213.2</ele>
        <time>2024-09-19T13:55:05Z</time>
      </trkpt>
      <trkpt lat="45.76703" lon="5.22378">
        <ele>212.8</ele>
        <time>2024-09-19T13:55:06Z</time>
      </trkpt>
      <trkpt lat="45.76699" lon="5.22372">
        <ele>213.4</ele>
        <time>2024-09-19T13:55:07Z</time>
      </trkpt>
      <trkpt lat="45.76694" lon="5.22367">
        <ele>214</ele>
        <time>2024-09-19T13:55:08Z</time>
      </trkpt>
      <trkpt lat="45.76689" lon="5.22363">
        <ele>213</ele>
        <time>2024-09-19T13:55:09Z</time>
      </trkpt>
      <trkpt lat="45.76685" lon="5.22359">
        <ele>213.6</ele>
        <time>2024-09-19T13:55:10Z</time>
      </trkpt>
      <trkpt lat="45.7668" lon="5.22355">
        <ele>213.6</ele>
        <time>2024-09-19T13:55:11Z</time>
      </trkpt>
      <trkpt lat="45.76676" lon="5.2235">
        <ele>212.6</ele>
        <time>2024-09-19T13:55:12Z</time>
      </trkpt>
      <trkpt lat="45.76672" lon="5.22346">
        <ele>212.6</ele>
        <time>2024-09-19T13:55:13Z</time>
      </trkpt>
      <trkpt lat="45.76668" lon="5.22341">
        <ele>213.2</ele>
        <time>2024-09-19T13:55:14Z</time>
      </trkpt>
      <trkpt lat="45.76663" lon="5.22336">
        <ele>212.6</ele>
        <time>2024-09-19T13:55:15Z</time>
      </trkpt>
      <trkpt lat="45.7666" lon="5.2233">
        <ele>212.6</ele>
        <time>2024-09-19T13:55:16Z</time>
      </trkpt>
      <trkpt lat="45.76658" lon="5.22323">
        <ele>212.4</ele>
        <time>2024-09-19T13:55:17Z</time>
      </trkpt>
      <trkpt lat="45.76656" lon="5.22317">
        <ele>212.4</ele>
        <time>2024-09-19T13:55:18Z</time>
      </trkpt>
      <trkpt lat="45.76656" lon="5.22311">
        <ele>212.4</ele>
        <time>2024-09-19T13:55:19Z</time>
      </trkpt>
      <trkpt lat="45.76656" lon="5.22306">
        <ele>212.4</ele>
        <time>2024-09-19T13:55:20Z</time>
      </trkpt>
      <trkpt lat="45.76656" lon="5.22301">
        <ele>212.4</ele>
        <time>2024-09-19T13:55:21Z</time>
      </trkpt>
      <trkpt lat="45.76655" lon="5.22296">
        <ele>212.4</ele>
        <time>2024-09-19T13:55:22Z</time>
      </trkpt>
      <trkpt lat="45.76654" lon="5.22292">
        <ele>212.4</ele>
        <time>2024-09-19T13:55:23Z</time>
      </trkpt>
      <trkpt lat="45.76653" lon="5.22288">
        <ele>212.4</ele>
        <time>2024-09-19T13:55:24Z</time>
      </trkpt>
      <trkpt lat="45.76653" lon="5.22284">
        <ele>212.6</ele>
        <time>2024-09-19T13:55:25Z</time>
      </trkpt>
      <trkpt lat="45.76652" lon="5.2228">
        <ele>212.6</ele>
        <time>2024-09-19T13:55:26Z</time>
      </trkpt>
      <trkpt lat="45.76653" lon="5.22277">
        <ele>213</ele>
        <time>2024-09-19T13:55:27Z</time>
      </trkpt>
      <trkpt lat="45.76654" lon="5.22276">
        <ele>213</ele>
        <time>2024-09-19T13:55:28Z</time>
      </trkpt>
      <trkpt lat="45.76653" lon="5.22274">
        <ele>213.2</ele>
        <time>2024-09-19T13:55:29Z</time>
      </trkpt>
      <trkpt lat="45.76653" lon="5.22274">
        <ele>213.2</ele>
        <time>2024-09-19T13:55:30Z</time>
      </trkpt>
      <trkpt lat="45.76653" lon="5.22274">
        <ele>213.2</ele>
        <time>2024-09-19T13:55:31Z</time>
      </trkpt>
      <trkpt lat="45.76653" lon="5.22275">
        <ele>213.4</ele>
        <time>2024-09-19T13:55:32Z</time>
      </trkpt>
      <trkpt lat="45.76651" lon="5.22268">
        <ele>213.4</ele>
        <time>2024-09-19T13:56:56Z</time>
      </trkpt>
      <trkpt lat="45.76651" lon="5.22266">
        <ele>213.4</ele>
        <time>2024-09-19T13:56:57Z</time>
      </trkpt>
      <trkpt lat="45.76651" lon="5.22264">
        <ele>213.8</ele>
        <time>2024-09-19T13:56:58Z</time>
      </trkpt>
      <trkpt lat="45.76649" lon="5.22261">
        <ele>214</ele>
        <time>2024-09-19T13:56:59Z</time>
      </trkpt>
      <trkpt lat="45.76648" lon="5.22258">
        <ele>214</ele>
        <time>2024-09-19T13:57:00Z</time>
      </trkpt>
      <trkpt lat="45.76646" lon="5.22256">
        <ele>213.4</ele>
        <time>2024-09-19T13:57:01Z</time>
      </trkpt>
      <trkpt lat="45.76644" lon="5.22254">
        <ele>213.4</ele>
        <time>2024-09-19T13:57:02Z</time>
      </trkpt>
      <trkpt lat="45.76642" lon="5.22251">
        <ele>213.4</ele>
        <time>2024-09-19T13:57:03Z</time>
      </trkpt>
      <trkpt lat="45.7664" lon="5.2225">
        <ele>213.4</ele>
        <time>2024-09-19T13:57:04Z</time>
      </trkpt>
      <trkpt lat="45.76638" lon="5.22247">
        <ele>213.4</ele>
        <time>2024-09-19T13:57:05Z</time>
      </trkpt>
      <trkpt lat="45.76638" lon="5.22247">
        <ele>213.8</ele>
        <time>2024-09-19T13:57:06Z</time>
      </trkpt>
      <trkpt lat="45.76636" lon="5.22244">
        <ele>213.8</ele>
        <time>2024-09-19T13:57:07Z</time>
      </trkpt>
      <trkpt lat="45.76634" lon="5.22241">
        <ele>213.8</ele>
        <time>2024-09-19T13:57:08Z</time>
      </trkpt>
      <trkpt lat="45.76632" lon="5.22237">
        <ele>213.8</ele>
        <time>2024-09-19T13:57:09Z</time>
      </trkpt>
      <trkpt lat="45.7663" lon="5.22233">
        <ele>214.2</ele>
        <time>2024-09-19T13:57:10Z</time>
      </trkpt>
      <trkpt lat="45.76626" lon="5.2223">
        <ele>214.2</ele>
        <time>2024-09-19T13:57:11Z</time>
      </trkpt>
      <trkpt lat="45.76623" lon="5.22228">
        <ele>214.2</ele>
        <time>2024-09-19T13:57:12Z</time>
      </trkpt>
      <trkpt lat="45.76619" lon="5.22227">
        <ele>214.4</ele>
        <time>2024-09-19T13:57:13Z</time>
      </trkpt>
      <trkpt lat="45.76616" lon="5.22226">
        <ele>214.4</ele>
        <time>2024-09-19T13:57:14Z</time>
      </trkpt>
      <trkpt lat="45.76613" lon="5.22225">
        <ele>214.8</ele>
        <time>2024-09-19T13:57:15Z</time>
      </trkpt>
      <trkpt lat="45.76609" lon="5.22225">
        <ele>214.8</ele>
        <time>2024-09-19T13:57:16Z</time>
      </trkpt>
      <trkpt lat="45.76606" lon="5.22225">
        <ele>214.8</ele>
        <time>2024-09-19T13:57:17Z</time>
      </trkpt>
      <trkpt lat="45.76603" lon="5.22224">
        <ele>215</ele>
        <time>2024-09-19T13:57:18Z</time>
      </trkpt>
      <trkpt lat="45.76599" lon="5.22223">
        <ele>215</ele>
        <time>2024-09-19T13:57:19Z</time>
      </trkpt>
      <trkpt lat="45.76591" lon="5.22223">
        <ele>215</ele>
        <time>2024-09-19T13:57:20Z</time>
      </trkpt>
      <trkpt lat="45.76588" lon="5.22222">
        <ele>215</ele>
        <time>2024-09-19T13:57:21Z</time>
      </trkpt>
      <trkpt lat="45.76585" lon="5.2222">
        <ele>215</ele>
        <time>2024-09-19T13:57:22Z</time>
      </trkpt>
      <trkpt lat="45.76584" lon="5.22217">
        <ele>215.2</ele>
        <time>2024-09-19T13:57:23Z</time>
      </trkpt>
      <trkpt lat="45.76584" lon="5.22215">
        <ele>215.2</ele>
        <time>2024-09-19T13:57:24Z</time>
      </trkpt>
      <trkpt lat="45.76584" lon="5.22215">
        <ele>215.6</ele>
        <time>2024-09-19T13:57:25Z</time>
      </trkpt>
      <trkpt lat="45.76585" lon="5.22214">
        <ele>215.6</ele>
        <time>2024-09-19T13:57:26Z</time>
      </trkpt>
      <trkpt lat="45.76585" lon="5.22214">
        <ele>215.6</ele>
        <time>2024-09-19T13:57:27Z</time>
      </trkpt>
      <trkpt lat="45.76585" lon="5.22212">
        <ele>215.6</ele>
        <time>2024-09-19T13:57:28Z</time>
      </trkpt>
      <trkpt lat="45.76585" lon="5.2221">
        <ele>215.6</ele>
        <time>2024-09-19T13:57:29Z</time>
      </trkpt>
      <trkpt lat="45.76585" lon="5.22206">
        <ele>215.6</ele>
        <time>2024-09-19T13:57:30Z</time>
      </trkpt>
      <trkpt lat="45.76586" lon="5.22202">
        <ele>215.6</ele>
        <time>2024-09-19T13:57:31Z</time>
      </trkpt>
      <trkpt lat="45.76587" lon="5.22198">
        <ele>215.6</ele>
        <time>2024-09-19T13:57:32Z</time>
      </trkpt>
      <trkpt lat="45.76588" lon="5.22193">
        <ele>215.2</ele>
        <time>2024-09-19T13:57:33Z</time>
      </trkpt>
      <trkpt lat="45.76588" lon="5.22188">
        <ele>215.2</ele>
        <time>2024-09-19T13:57:34Z</time>
      </trkpt>
      <trkpt lat="45.76589" lon="5.22182">
        <ele>215</ele>
        <time>2024-09-19T13:57:35Z</time>
      </trkpt>
      <trkpt lat="45.76589" lon="5.22177">
        <ele>215</ele>
        <time>2024-09-19T13:57:36Z</time>
      </trkpt>
      <trkpt lat="45.7659" lon="5.22171">
        <ele>215</ele>
        <time>2024-09-19T13:57:37Z</time>
      </trkpt>
      <trkpt lat="45.7659" lon="5.22166">
        <ele>215</ele>
        <time>2024-09-19T13:57:38Z</time>
      </trkpt>
      <trkpt lat="45.76589" lon="5.2216">
        <ele>215</ele>
        <time>2024-09-19T13:57:39Z</time>
      </trkpt>
      <trkpt lat="45.76589" lon="5.22155">
        <ele>215</ele>
        <time>2024-09-19T13:57:40Z</time>
      </trkpt>
      <trkpt lat="45.76588" lon="5.22149">
        <ele>215</ele>
        <time>2024-09-19T13:57:41Z</time>
      </trkpt>
      <trkpt lat="45.76588" lon="5.22144">
        <ele>215.2</ele>
        <time>2024-09-19T13:57:42Z</time>
      </trkpt>
      <trkpt lat="45.76588" lon="5.22139">
        <ele>215.2</ele>
        <time>2024-09-19T13:57:43Z</time>
      </trkpt>
      <trkpt lat="45.76587" lon="5.22134">
        <ele>215.6</ele>
        <time>2024-09-19T13:57:44Z</time>
      </trkpt>
      <trkpt lat="45.76587" lon="5.22129">
        <ele>216</ele>
        <time>2024-09-19T13:57:45Z</time>
      </trkpt>
      <trkpt lat="45.76586" lon="5.22125">
        <ele>216</ele>
        <time>2024-09-19T13:57:46Z</time>
      </trkpt>
      <trkpt lat="45.76587" lon="5.22121">
        <ele>216.4</ele>
        <time>2024-09-19T13:57:47Z</time>
      </trkpt>
      <trkpt lat="45.76588" lon="5.22117">
        <ele>216.4</ele>
        <time>2024-09-19T13:57:48Z</time>
      </trkpt>
      <trkpt lat="45.7659" lon="5.22113">
        <ele>216.4</ele>
        <time>2024-09-19T13:57:49Z</time>
      </trkpt>
      <trkpt lat="45.76593" lon="5.22109">
        <ele>216.4</ele>
        <time>2024-09-19T13:57:50Z</time>
      </trkpt>
      <trkpt lat="45.76599" lon="5.22109">
        <ele>216.4</ele>
        <time>2024-09-19T13:57:51Z</time>
      </trkpt>
      <trkpt lat="45.76604" lon="5.22108">
        <ele>216.4</ele>
        <time>2024-09-19T13:57:52Z</time>
      </trkpt>
      <trkpt lat="45.76609" lon="5.22108">
        <ele>216.4</ele>
        <time>2024-09-19T13:57:53Z</time>
      </trkpt>
      <trkpt lat="45.76614" lon="5.22108">
        <ele>216.4</ele>
        <time>2024-09-19T13:57:54Z</time>
      </trkpt>
      <trkpt lat="45.76619" lon="5.22108">
        <ele>216</ele>
        <time>2024-09-19T13:57:55Z</time>
      </trkpt>
      <trkpt lat="45.76625" lon="5.22109">
        <ele>216</ele>
        <time>2024-09-19T13:57:56Z</time>
      </trkpt>
      <trkpt lat="45.7663" lon="5.22108">
        <ele>216</ele>
        <time>2024-09-19T13:57:57Z</time>
      </trkpt>
      <trkpt lat="45.76635" lon="5.22108">
        <ele>216</ele>
        <time>2024-09-19T13:57:58Z</time>
      </trkpt>
      <trkpt lat="45.76641" lon="5.22108">
        <ele>215.8</ele>
        <time>2024-09-19T13:57:59Z</time>
      </trkpt>
      <trkpt lat="45.76647" lon="5.22108">
        <ele>215.8</ele>
        <time>2024-09-19T13:58:00Z</time>
      </trkpt>
      <trkpt lat="45.76652" lon="5.22107">
        <ele>215.4</ele>
        <time>2024-09-19T13:58:01Z</time>
      </trkpt>
      <trkpt lat="45.76658" lon="5.22107">
        <ele>215.4</ele>
        <time>2024-09-19T13:58:02Z</time>
      </trkpt>
      <trkpt lat="45.76664" lon="5.22106">
        <ele>215.4</ele>
        <time>2024-09-19T13:58:03Z</time>
      </trkpt>
      <trkpt lat="45.7667" lon="5.22104">
        <ele>215.4</ele>
        <time>2024-09-19T13:58:04Z</time>
      </trkpt>
      <trkpt lat="45.7667" lon="5.22104">
        <ele>215.4</ele>
        <time>2024-09-19T13:58:05Z</time>
      </trkpt>
      <trkpt lat="45.7667" lon="5.22104">
        <ele>215.4</ele>
        <time>2024-09-19T13:58:06Z</time>
      </trkpt>
      <trkpt lat="45.76685" lon="5.22084">
        <ele>215.4</ele>
        <time>2024-09-19T13:58:08Z</time>
      </trkpt>
      <trkpt lat="45.76686" lon="5.22076">
        <ele>215</ele>
        <time>2024-09-19T13:58:09Z</time>
      </trkpt>
      <trkpt lat="45.76687" lon="5.22068">
        <ele>215</ele>
        <time>2024-09-19T13:58:10Z</time>
      </trkpt>
      <trkpt lat="45.76687" lon="5.2206">
        <ele>215</ele>
        <time>2024-09-19T13:58:11Z</time>
      </trkpt>
      <trkpt lat="45.76687" lon="5.22052">
        <ele>215</ele>
        <time>2024-09-19T13:58:12Z</time>
      </trkpt>
      <trkpt lat="45.76686" lon="5.22044">
        <ele>215</ele>
        <time>2024-09-19T13:58:13Z</time>
      </trkpt>
      <trkpt lat="45.76687" lon="5.22035">
        <ele>215</ele>
        <time>2024-09-19T13:58:14Z</time>
      </trkpt>
      <trkpt lat="45.76686" lon="5.22027">
        <ele>215</ele>
        <time>2024-09-19T13:58:15Z</time>
      </trkpt>
      <trkpt lat="45.76686" lon="5.22019">
        <ele>215</ele>
        <time>2024-09-19T13:58:16Z</time>
      </trkpt>
      <trkpt lat="45.76686" lon="5.22011">
        <ele>215</ele>
        <time>2024-09-19T13:58:17Z</time>
      </trkpt>
      <trkpt lat="45.76686" lon="5.22003">
        <ele>215</ele>
        <time>2024-09-19T13:58:18Z</time>
      </trkpt>
      <trkpt lat="45.76686" lon="5.21994">
        <ele>215</ele>
        <time>2024-09-19T13:58:19Z</time>
      </trkpt>
      <trkpt lat="45.76686" lon="5.21986">
        <ele>215</ele>
        <time>2024-09-19T13:58:20Z</time>
      </trkpt>
      <trkpt lat="45.76687" lon="5.21978">
        <ele>215</ele>
        <time>2024-09-19T13:58:21Z</time>
      </trkpt>
      <trkpt lat="45.76687" lon="5.2197">
        <ele>215</ele>
        <time>2024-09-19T13:58:22Z</time>
      </trkpt>
      <trkpt lat="45.76687" lon="5.21961">
        <ele>215</ele>
        <time>2024-09-19T13:58:23Z</time>
      </trkpt>
      <trkpt lat="45.76687" lon="5.21952">
        <ele>214.6</ele>
        <time>2024-09-19T13:58:24Z</time>
      </trkpt>
      <trkpt lat="45.76687" lon="5.21944">
        <ele>214.6</ele>
        <time>2024-09-19T13:58:25Z</time>
      </trkpt>
      <trkpt lat="45.76688" lon="5.21935">
        <ele>214.6</ele>
        <time>2024-09-19T13:58:26Z</time>
      </trkpt>
      <trkpt lat="45.76688" lon="5.21927">
        <ele>214.6</ele>
        <time>2024-09-19T13:58:27Z</time>
      </trkpt>
      <trkpt lat="45.76687" lon="5.21917">
        <ele>214.6</ele>
        <time>2024-09-19T13:58:28Z</time>
      </trkpt>
      <trkpt lat="45.76688" lon="5.2191">
        <ele>215</ele>
        <time>2024-09-19T13:58:29Z</time>
      </trkpt>
      <trkpt lat="45.76688" lon="5.21901">
        <ele>215</ele>
        <time>2024-09-19T13:58:30Z</time>
      </trkpt>
      <trkpt lat="45.76689" lon="5.21893">
        <ele>215</ele>
        <time>2024-09-19T13:58:31Z</time>
      </trkpt>
      <trkpt lat="45.7669" lon="5.21885">
        <ele>215</ele>
        <time>2024-09-19T13:58:32Z</time>
      </trkpt>
      <trkpt lat="45.76689" lon="5.21877">
        <ele>215</ele>
        <time>2024-09-19T13:58:33Z</time>
      </trkpt>
      <trkpt lat="45.7669" lon="5.21869">
        <ele>215</ele>
        <time>2024-09-19T13:58:34Z</time>
      </trkpt>
      <trkpt lat="45.7669" lon="5.21861">
        <ele>215</ele>
        <time>2024-09-19T13:58:35Z</time>
      </trkpt>
      <trkpt lat="45.7669" lon="5.21861">
        <ele>215.4</ele>
        <time>2024-09-19T13:58:36Z</time>
      </trkpt>
      <trkpt lat="45.7669" lon="5.21861">
        <ele>215.4</ele>
        <time>2024-09-19T13:58:37Z</time>
      </trkpt>
      <trkpt lat="45.76691" lon="5.21836">
        <ele>215.4</ele>
        <time>2024-09-19T13:58:38Z</time>
      </trkpt>
      <trkpt lat="45.76692" lon="5.21828">
        <ele>215.4</ele>
        <time>2024-09-19T13:58:39Z</time>
      </trkpt>
      <trkpt lat="45.76692" lon="5.21819">
        <ele>215.2</ele>
        <time>2024-09-19T13:58:40Z</time>
      </trkpt>
      <trkpt lat="45.76693" lon="5.2181">
        <ele>215.2</ele>
        <time>2024-09-19T13:58:41Z</time>
      </trkpt>
      <trkpt lat="45.76692" lon="5.21802">
        <ele>214.8</ele>
        <time>2024-09-19T13:58:42Z</time>
      </trkpt>
      <trkpt lat="45.76692" lon="5.21793">
        <ele>214.8</ele>
        <time>2024-09-19T13:58:43Z</time>
      </trkpt>
      <trkpt lat="45.76693" lon="5.21785">
        <ele>214.6</ele>
        <time>2024-09-19T13:58:44Z</time>
      </trkpt>
      <trkpt lat="45.76693" lon="5.21777">
        <ele>214.6</ele>
        <time>2024-09-19T13:58:45Z</time>
      </trkpt>
      <trkpt lat="45.76693" lon="5.21769">
        <ele>214.6</ele>
        <time>2024-09-19T13:58:46Z</time>
      </trkpt>
      <trkpt lat="45.76694" lon="5.2176">
        <ele>214.6</ele>
        <time>2024-09-19T13:58:47Z</time>
      </trkpt>
      <trkpt lat="45.76694" lon="5.21751">
        <ele>214.6</ele>
        <time>2024-09-19T13:58:48Z</time>
      </trkpt>
      <trkpt lat="45.76694" lon="5.21743">
        <ele>214.6</ele>
        <time>2024-09-19T13:58:49Z</time>
      </trkpt>
      <trkpt lat="45.76695" lon="5.21734">
        <ele>214.4</ele>
        <time>2024-09-19T13:58:50Z</time>
      </trkpt>
      <trkpt lat="45.76695" lon="5.21725">
        <ele>214.4</ele>
        <time>2024-09-19T13:58:51Z</time>
      </trkpt>
      <trkpt lat="45.76695" lon="5.21716">
        <ele>214.4</ele>
        <time>2024-09-19T13:58:52Z</time>
      </trkpt>
      <trkpt lat="45.76696" lon="5.21708">
        <ele>214.4</ele>
        <time>2024-09-19T13:58:53Z</time>
      </trkpt>
      <trkpt lat="45.76696" lon="5.21699">
        <ele>214.4</ele>
        <time>2024-09-19T13:58:54Z</time>
      </trkpt>
      <trkpt lat="45.76697" lon="5.21691">
        <ele>214.4</ele>
        <time>2024-09-19T13:58:55Z</time>
      </trkpt>
      <trkpt lat="45.76698" lon="5.21682">
        <ele>214.4</ele>
        <time>2024-09-19T13:58:56Z</time>
      </trkpt>
      <trkpt lat="45.76698" lon="5.21674">
        <ele>214.4</ele>
        <time>2024-09-19T13:58:57Z</time>
      </trkpt>
      <trkpt lat="45.76699" lon="5.21665">
        <ele>214.2</ele>
        <time>2024-09-19T13:58:58Z</time>
      </trkpt>
      <trkpt lat="45.76699" lon="5.21657">
        <ele>214</ele>
        <time>2024-09-19T13:58:59Z</time>
      </trkpt>
      <trkpt lat="45.767" lon="5.21648">
        <ele>213.8</ele>
        <time>2024-09-19T13:59:00Z</time>
      </trkpt>
      <trkpt lat="45.76701" lon="5.21639">
        <ele>214</ele>
        <time>2024-09-19T13:59:01Z</time>
      </trkpt>
      <trkpt lat="45.76702" lon="5.21631">
        <ele>214</ele>
        <time>2024-09-19T13:59:02Z</time>
      </trkpt>
      <trkpt lat="45.76703" lon="5.21622">
        <ele>214</ele>
        <time>2024-09-19T13:59:03Z</time>
      </trkpt>
      <trkpt lat="45.76703" lon="5.21614">
        <ele>214</ele>
        <time>2024-09-19T13:59:04Z</time>
      </trkpt>
      <trkpt lat="45.76704" lon="5.21605">
        <ele>214.2</ele>
        <time>2024-09-19T13:59:05Z</time>
      </trkpt>
      <trkpt lat="45.76705" lon="5.21597">
        <ele>214.2</ele>
        <time>2024-09-19T13:59:06Z</time>
      </trkpt>
      <trkpt lat="45.76706" lon="5.21589">
        <ele>214.2</ele>
        <time>2024-09-19T13:59:07Z</time>
      </trkpt>
      <trkpt lat="45.76707" lon="5.2158">
        <ele>214.2</ele>
        <time>2024-09-19T13:59:08Z</time>
      </trkpt>
      <trkpt lat="45.76708" lon="5.21573">
        <ele>214.2</ele>
        <time>2024-09-19T13:59:09Z</time>
      </trkpt>
      <trkpt lat="45.76709" lon="5.21565">
        <ele>214.2</ele>
        <time>2024-09-19T13:59:10Z</time>
      </trkpt>
      <trkpt lat="45.7671" lon="5.21557">
        <ele>214.2</ele>
        <time>2024-09-19T13:59:11Z</time>
      </trkpt>
      <trkpt lat="45.76711" lon="5.21549">
        <ele>214.4</ele>
        <time>2024-09-19T13:59:12Z</time>
      </trkpt>
      <trkpt lat="45.76713" lon="5.21541">
        <ele>214.4</ele>
        <time>2024-09-19T13:59:13Z</time>
      </trkpt>
      <trkpt lat="45.76714" lon="5.21533">
        <ele>214.4</ele>
        <time>2024-09-19T13:59:14Z</time>
      </trkpt>
      <trkpt lat="45.76716" lon="5.21525">
        <ele>214.4</ele>
        <time>2024-09-19T13:59:15Z</time>
      </trkpt>
      <trkpt lat="45.76718" lon="5.21517">
        <ele>214.4</ele>
        <time>2024-09-19T13:59:16Z</time>
      </trkpt>
      <trkpt lat="45.76719" lon="5.21509">
        <ele>214.4</ele>
        <time>2024-09-19T13:59:17Z</time>
      </trkpt>
      <trkpt lat="45.76721" lon="5.21501">
        <ele>214.4</ele>
        <time>2024-09-19T13:59:18Z</time>
      </trkpt>
      <trkpt lat="45.76723" lon="5.21492">
        <ele>214.2</ele>
        <time>2024-09-19T13:59:19Z</time>
      </trkpt>
      <trkpt lat="45.76724" lon="5.21484">
        <ele>214.2</ele>
        <time>2024-09-19T13:59:20Z</time>
      </trkpt>
      <trkpt lat="45.76725" lon="5.21476">
        <ele>214.2</ele>
        <time>2024-09-19T13:59:21Z</time>
      </trkpt>
      <trkpt lat="45.76726" lon="5.21467">
        <ele>214.2</ele>
        <time>2024-09-19T13:59:22Z</time>
      </trkpt>
      <trkpt lat="45.76728" lon="5.21459">
        <ele>214.2</ele>
        <time>2024-09-19T13:59:23Z</time>
      </trkpt>
      <trkpt lat="45.7673" lon="5.21451">
        <ele>214.2</ele>
        <time>2024-09-19T13:59:24Z</time>
      </trkpt>
      <trkpt lat="45.7673" lon="5.21441">
        <ele>214.2</ele>
        <time>2024-09-19T13:59:25Z</time>
      </trkpt>
      <trkpt lat="45.76731" lon="5.21433">
        <ele>214.2</ele>
        <time>2024-09-19T13:59:26Z</time>
      </trkpt>
      <trkpt lat="45.76732" lon="5.21425">
        <ele>214.2</ele>
        <time>2024-09-19T13:59:27Z</time>
      </trkpt>
      <trkpt lat="45.76733" lon="5.21416">
        <ele>214.2</ele>
        <time>2024-09-19T13:59:28Z</time>
      </trkpt>
      <trkpt lat="45.76735" lon="5.21408">
        <ele>214</ele>
        <time>2024-09-19T13:59:29Z</time>
      </trkpt>
      <trkpt lat="45.76736" lon="5.214">
        <ele>214</ele>
        <time>2024-09-19T13:59:30Z</time>
      </trkpt>
      <trkpt lat="45.76737" lon="5.21392">
        <ele>214</ele>
        <time>2024-09-19T13:59:31Z</time>
      </trkpt>
      <trkpt lat="45.76739" lon="5.21384">
        <ele>214.2</ele>
        <time>2024-09-19T13:59:32Z</time>
      </trkpt>
      <trkpt lat="45.76741" lon="5.21377">
        <ele>214.2</ele>
        <time>2024-09-19T13:59:33Z</time>
      </trkpt>
      <trkpt lat="45.76743" lon="5.2137">
        <ele>214.2</ele>
        <time>2024-09-19T13:59:34Z</time>
      </trkpt>
      <trkpt lat="45.76744" lon="5.21363">
        <ele>214.2</ele>
        <time>2024-09-19T13:59:35Z</time>
      </trkpt>
      <trkpt lat="45.76745" lon="5.21356">
        <ele>213.8</ele>
        <time>2024-09-19T13:59:36Z</time>
      </trkpt>
      <trkpt lat="45.76746" lon="5.21348">
        <ele>213.8</ele>
        <time>2024-09-19T13:59:37Z</time>
      </trkpt>
      <trkpt lat="45.76749" lon="5.21343">
        <ele>213.8</ele>
        <time>2024-09-19T13:59:38Z</time>
      </trkpt>
      <trkpt lat="45.7675" lon="5.21337">
        <ele>214</ele>
        <time>2024-09-19T13:59:39Z</time>
      </trkpt>
      <trkpt lat="45.76752" lon="5.21331">
        <ele>214</ele>
        <time>2024-09-19T13:59:40Z</time>
      </trkpt>
      <trkpt lat="45.76755" lon="5.21325">
        <ele>214</ele>
        <time>2024-09-19T13:59:41Z</time>
      </trkpt>
      <trkpt lat="45.76757" lon="5.21318">
        <ele>214</ele>
        <time>2024-09-19T13:59:42Z</time>
      </trkpt>
      <trkpt lat="45.76759" lon="5.21311">
        <ele>214</ele>
        <time>2024-09-19T13:59:43Z</time>
      </trkpt>
      <trkpt lat="45.7676" lon="5.21304">
        <ele>214</ele>
        <time>2024-09-19T13:59:44Z</time>
      </trkpt>
      <trkpt lat="45.7676" lon="5.21296">
        <ele>214</ele>
        <time>2024-09-19T13:59:45Z</time>
      </trkpt>
      <trkpt lat="45.7676" lon="5.21288">
        <ele>214</ele>
        <time>2024-09-19T13:59:46Z</time>
      </trkpt>
      <trkpt lat="45.76759" lon="5.2128">
        <ele>214.2</ele>
        <time>2024-09-19T13:59:47Z</time>
      </trkpt>
      <trkpt lat="45.76758" lon="5.21272">
        <ele>214.2</ele>
        <time>2024-09-19T13:59:48Z</time>
      </trkpt>
      <trkpt lat="45.76758" lon="5.21263">
        <ele>214.2</ele>
        <time>2024-09-19T13:59:49Z</time>
      </trkpt>
      <trkpt lat="45.76758" lon="5.21255">
        <ele>213.8</ele>
        <time>2024-09-19T13:59:50Z</time>
      </trkpt>
      <trkpt lat="45.76757" lon="5.21247">
        <ele>213.8</ele>
        <time>2024-09-19T13:59:51Z</time>
      </trkpt>
      <trkpt lat="45.76755" lon="5.21239">
        <ele>213.6</ele>
        <time>2024-09-19T13:59:52Z</time>
      </trkpt>
      <trkpt lat="45.76754" lon="5.21232">
        <ele>213.6</ele>
        <time>2024-09-19T13:59:53Z</time>
      </trkpt>
      <trkpt lat="45.76754" lon="5.21225">
        <ele>213.6</ele>
        <time>2024-09-19T13:59:54Z</time>
      </trkpt>
      <trkpt lat="45.76754" lon="5.21218">
        <ele>213.6</ele>
        <time>2024-09-19T13:59:55Z</time>
      </trkpt>
      <trkpt lat="45.76754" lon="5.21211">
        <ele>213.8</ele>
        <time>2024-09-19T13:59:56Z</time>
      </trkpt>
      <trkpt lat="45.76753" lon="5.21204">
        <ele>213.8</ele>
        <time>2024-09-19T13:59:57Z</time>
      </trkpt>
      <trkpt lat="45.76753" lon="5.21197">
        <ele>213.8</ele>
        <time>2024-09-19T13:59:58Z</time>
      </trkpt>
      <trkpt lat="45.76753" lon="5.21189">
        <ele>213.8</ele>
        <time>2024-09-19T13:59:59Z</time>
      </trkpt>
      <trkpt lat="45.76753" lon="5.21182">
        <ele>213.8</ele>
        <time>2024-09-19T14:00:00Z</time>
      </trkpt>
      <trkpt lat="45.76754" lon="5.21176">
        <ele>213.8</ele>
        <time>2024-09-19T14:00:01Z</time>
      </trkpt>
      <trkpt lat="45.76755" lon="5.2117">
        <ele>214.2</ele>
        <time>2024-09-19T14:00:02Z</time>
      </trkpt>
      <trkpt lat="45.76756" lon="5.21165">
        <ele>214.4</ele>
        <time>2024-09-19T14:00:03Z</time>
      </trkpt>
      <trkpt lat="45.76758" lon="5.2116">
        <ele>214.8</ele>
        <time>2024-09-19T14:00:04Z</time>
      </trkpt>
      <trkpt lat="45.76759" lon="5.21156">
        <ele>215</ele>
        <time>2024-09-19T14:00:05Z</time>
      </trkpt>
      <trkpt lat="45.76761" lon="5.21151">
        <ele>215.4</ele>
        <time>2024-09-19T14:00:06Z</time>
      </trkpt>
      <trkpt lat="45.76762" lon="5.21148">
        <ele>215.8</ele>
        <time>2024-09-19T14:00:07Z</time>
      </trkpt>
      <trkpt lat="45.76763" lon="5.21143">
        <ele>216.2</ele>
        <time>2024-09-19T14:00:08Z</time>
      </trkpt>
      <trkpt lat="45.76765" lon="5.21139">
        <ele>216.2</ele>
        <time>2024-09-19T14:00:09Z</time>
      </trkpt>
      <trkpt lat="45.76767" lon="5.21135">
        <ele>216.4</ele>
        <time>2024-09-19T14:00:10Z</time>
      </trkpt>
      <trkpt lat="45.76768" lon="5.21131">
        <ele>216.4</ele>
        <time>2024-09-19T14:00:11Z</time>
      </trkpt>
      <trkpt lat="45.7677" lon="5.21126">
        <ele>216.4</ele>
        <time>2024-09-19T14:00:12Z</time>
      </trkpt>
      <trkpt lat="45.7677" lon="5.21126">
        <ele>216.4</ele>
        <time>2024-09-19T14:00:13Z</time>
      </trkpt>
      <trkpt lat="45.76771" lon="5.21122">
        <ele>216.8</ele>
        <time>2024-09-19T14:00:14Z</time>
      </trkpt>
      <trkpt lat="45.76772" lon="5.21117">
        <ele>216.8</ele>
        <time>2024-09-19T14:00:15Z</time>
      </trkpt>
      <trkpt lat="45.76774" lon="5.21113">
        <ele>217</ele>
        <time>2024-09-19T14:00:16Z</time>
      </trkpt>
      <trkpt lat="45.76775" lon="5.21109">
        <ele>217.4</ele>
        <time>2024-09-19T14:00:17Z</time>
      </trkpt>
      <trkpt lat="45.76777" lon="5.21105">
        <ele>217.6</ele>
        <time>2024-09-19T14:00:18Z</time>
      </trkpt>
      <trkpt lat="45.76779" lon="5.211">
        <ele>218</ele>
        <time>2024-09-19T14:00:19Z</time>
      </trkpt>
      <trkpt lat="45.76781" lon="5.21096">
        <ele>218</ele>
        <time>2024-09-19T14:00:20Z</time>
      </trkpt>
      <trkpt lat="45.76782" lon="5.21091">
        <ele>218</ele>
        <time>2024-09-19T14:00:21Z</time>
      </trkpt>
      <trkpt lat="45.76784" lon="5.21087">
        <ele>218</ele>
        <time>2024-09-19T14:00:22Z</time>
      </trkpt>
      <trkpt lat="45.76786" lon="5.21082">
        <ele>218</ele>
        <time>2024-09-19T14:00:23Z</time>
      </trkpt>
      <trkpt lat="45.76788" lon="5.21076">
        <ele>218.2</ele>
        <time>2024-09-19T14:00:24Z</time>
      </trkpt>
      <trkpt lat="45.76789" lon="5.21072">
        <ele>218.4</ele>
        <time>2024-09-19T14:00:25Z</time>
      </trkpt>
      <trkpt lat="45.7679" lon="5.21066">
        <ele>218.4</ele>
        <time>2024-09-19T14:00:26Z</time>
      </trkpt>
      <trkpt lat="45.76794" lon="5.21055">
        <ele>218.4</ele>
        <time>2024-09-19T14:00:27Z</time>
      </trkpt>
      <trkpt lat="45.76796" lon="5.2105">
        <ele>218.4</ele>
        <time>2024-09-19T14:00:28Z</time>
      </trkpt>
      <trkpt lat="45.76797" lon="5.21045">
        <ele>218.4</ele>
        <time>2024-09-19T14:00:29Z</time>
      </trkpt>
      <trkpt lat="45.76799" lon="5.21039">
        <ele>218.8</ele>
        <time>2024-09-19T14:00:30Z</time>
      </trkpt>
      <trkpt lat="45.76801" lon="5.21033">
        <ele>218.8</ele>
        <time>2024-09-19T14:00:31Z</time>
      </trkpt>
      <trkpt lat="45.76802" lon="5.21028">
        <ele>219</ele>
        <time>2024-09-19T14:00:32Z</time>
      </trkpt>
      <trkpt lat="45.76803" lon="5.21022">
        <ele>219</ele>
        <time>2024-09-19T14:00:33Z</time>
      </trkpt>
      <trkpt lat="45.76804" lon="5.21017">
        <ele>219</ele>
        <time>2024-09-19T14:00:34Z</time>
      </trkpt>
      <trkpt lat="45.76806" lon="5.21013">
        <ele>219</ele>
        <time>2024-09-19T14:00:35Z</time>
      </trkpt>
      <trkpt lat="45.76807" lon="5.21008">
        <ele>219</ele>
        <time>2024-09-19T14:00:36Z</time>
      </trkpt>
      <trkpt lat="45.76808" lon="5.21002">
        <ele>219.2</ele>
        <time>2024-09-19T14:00:37Z</time>
      </trkpt>
      <trkpt lat="45.76809" lon="5.20997">
        <ele>219.2</ele>
        <time>2024-09-19T14:00:38Z</time>
      </trkpt>
      <trkpt lat="45.7681" lon="5.20991">
        <ele>219.2</ele>
        <time>2024-09-19T14:00:39Z</time>
      </trkpt>
      <trkpt lat="45.76812" lon="5.20985">
        <ele>219.6</ele>
        <time>2024-09-19T14:00:40Z</time>
      </trkpt>
      <trkpt lat="45.76813" lon="5.20979">
        <ele>219.6</ele>
        <time>2024-09-19T14:00:41Z</time>
      </trkpt>
      <trkpt lat="45.76814" lon="5.20974">
        <ele>219.6</ele>
        <time>2024-09-19T14:00:42Z</time>
      </trkpt>
      <trkpt lat="45.76815" lon="5.20967">
        <ele>219.6</ele>
        <time>2024-09-19T14:00:43Z</time>
      </trkpt>
      <trkpt lat="45.76816" lon="5.20961">
        <ele>219.6</ele>
        <time>2024-09-19T14:00:44Z</time>
      </trkpt>
      <trkpt lat="45.76817" lon="5.20954">
        <ele>219.6</ele>
        <time>2024-09-19T14:00:45Z</time>
      </trkpt>
      <trkpt lat="45.76818" lon="5.20948">
        <ele>219.2</ele>
        <time>2024-09-19T14:00:46Z</time>
      </trkpt>
      <trkpt lat="45.76819" lon="5.20942">
        <ele>219.2</ele>
        <time>2024-09-19T14:00:47Z</time>
      </trkpt>
      <trkpt lat="45.7682" lon="5.20935">
        <ele>219</ele>
        <time>2024-09-19T14:00:48Z</time>
      </trkpt>
      <trkpt lat="45.76821" lon="5.20928">
        <ele>218.8</ele>
        <time>2024-09-19T14:00:49Z</time>
      </trkpt>
      <trkpt lat="45.76822" lon="5.20921">
        <ele>218.8</ele>
        <time>2024-09-19T14:00:50Z</time>
      </trkpt>
      <trkpt lat="45.76823" lon="5.20915">
        <ele>218.8</ele>
        <time>2024-09-19T14:00:51Z</time>
      </trkpt>
      <trkpt lat="45.76823" lon="5.20908">
        <ele>218.8</ele>
        <time>2024-09-19T14:00:52Z</time>
      </trkpt>
      <trkpt lat="45.76824" lon="5.20901">
        <ele>218.6</ele>
        <time>2024-09-19T14:00:53Z</time>
      </trkpt>
      <trkpt lat="45.76825" lon="5.20893">
        <ele>218.6</ele>
        <time>2024-09-19T14:00:54Z</time>
      </trkpt>
      <trkpt lat="45.76826" lon="5.20886">
        <ele>218.2</ele>
        <time>2024-09-19T14:00:55Z</time>
      </trkpt>
      <trkpt lat="45.76826" lon="5.20878">
        <ele>218.2</ele>
        <time>2024-09-19T14:00:56Z</time>
      </trkpt>
      <trkpt lat="45.76827" lon="5.20871">
        <ele>218.2</ele>
        <time>2024-09-19T14:00:57Z</time>
      </trkpt>
      <trkpt lat="45.76828" lon="5.20864">
        <ele>218.2</ele>
        <time>2024-09-19T14:00:58Z</time>
      </trkpt>
      <trkpt lat="45.76828" lon="5.20857">
        <ele>218.2</ele>
        <time>2024-09-19T14:00:59Z</time>
      </trkpt>
      <trkpt lat="45.76828" lon="5.20849">
        <ele>218.4</ele>
        <time>2024-09-19T14:01:00Z</time>
      </trkpt>
      <trkpt lat="45.76829" lon="5.20842">
        <ele>218.4</ele>
        <time>2024-09-19T14:01:01Z</time>
      </trkpt>
      <trkpt lat="45.76829" lon="5.20835">
        <ele>218.4</ele>
        <time>2024-09-19T14:01:02Z</time>
      </trkpt>
      <trkpt lat="45.7683" lon="5.20828">
        <ele>218.4</ele>
        <time>2024-09-19T14:01:03Z</time>
      </trkpt>
      <trkpt lat="45.76831" lon="5.20821">
        <ele>218.4</ele>
        <time>2024-09-19T14:01:04Z</time>
      </trkpt>
      <trkpt lat="45.76832" lon="5.20814">
        <ele>218.4</ele>
        <time>2024-09-19T14:01:05Z</time>
      </trkpt>
      <trkpt lat="45.76832" lon="5.20807">
        <ele>218.4</ele>
        <time>2024-09-19T14:01:06Z</time>
      </trkpt>
      <trkpt lat="45.76833" lon="5.20799">
        <ele>218.8</ele>
        <time>2024-09-19T14:01:07Z</time>
      </trkpt>
      <trkpt lat="45.76834" lon="5.20792">
        <ele>218.8</ele>
        <time>2024-09-19T14:01:08Z</time>
      </trkpt>
      <trkpt lat="45.76834" lon="5.20786">
        <ele>218.4</ele>
        <time>2024-09-19T14:01:09Z</time>
      </trkpt>
      <trkpt lat="45.76834" lon="5.20779">
        <ele>218.4</ele>
        <time>2024-09-19T14:01:10Z</time>
      </trkpt>
      <trkpt lat="45.76834" lon="5.20772">
        <ele>218.4</ele>
        <time>2024-09-19T14:01:11Z</time>
      </trkpt>
      <trkpt lat="45.76835" lon="5.20765">
        <ele>218.4</ele>
        <time>2024-09-19T14:01:12Z</time>
      </trkpt>
      <trkpt lat="45.76836" lon="5.20758">
        <ele>218.8</ele>
        <time>2024-09-19T14:01:13Z</time>
      </trkpt>
      <trkpt lat="45.76836" lon="5.20752">
        <ele>218.8</ele>
        <time>2024-09-19T14:01:14Z</time>
      </trkpt>
      <trkpt lat="45.76837" lon="5.20745">
        <ele>218.8</ele>
        <time>2024-09-19T14:01:15Z</time>
      </trkpt>
      <trkpt lat="45.76837" lon="5.20739">
        <ele>218.8</ele>
        <time>2024-09-19T14:01:16Z</time>
      </trkpt>
      <trkpt lat="45.76838" lon="5.20732">
        <ele>218.8</ele>
        <time>2024-09-19T14:01:17Z</time>
      </trkpt>
      <trkpt lat="45.76838" lon="5.20725">
        <ele>218.8</ele>
        <time>2024-09-19T14:01:18Z</time>
      </trkpt>
      <trkpt lat="45.76839" lon="5.20719">
        <ele>218.8</ele>
        <time>2024-09-19T14:01:19Z</time>
      </trkpt>
      <trkpt lat="45.76839" lon="5.20713">
        <ele>218.8</ele>
        <time>2024-09-19T14:01:20Z</time>
      </trkpt>
      <trkpt lat="45.7684" lon="5.20706">
        <ele>218.8</ele>
        <time>2024-09-19T14:01:21Z</time>
      </trkpt>
      <trkpt lat="45.76841" lon="5.20699">
        <ele>218.2</ele>
        <time>2024-09-19T14:01:22Z</time>
      </trkpt>
      <trkpt lat="45.76842" lon="5.20692">
        <ele>218</ele>
        <time>2024-09-19T14:01:23Z</time>
      </trkpt>
      <trkpt lat="45.76843" lon="5.20684">
        <ele>217.6</ele>
        <time>2024-09-19T14:01:24Z</time>
      </trkpt>
      <trkpt lat="45.76845" lon="5.20677">
        <ele>217.4</ele>
        <time>2024-09-19T14:01:25Z</time>
      </trkpt>
      <trkpt lat="45.76848" lon="5.2067">
        <ele>217</ele>
        <time>2024-09-19T14:01:26Z</time>
      </trkpt>
      <trkpt lat="45.76851" lon="5.20664">
        <ele>216.6</ele>
        <time>2024-09-19T14:01:27Z</time>
      </trkpt>
      <trkpt lat="45.76855" lon="5.20658">
        <ele>216.2</ele>
        <time>2024-09-19T14:01:28Z</time>
      </trkpt>
      <trkpt lat="45.76859" lon="5.20651">
        <ele>215.8</ele>
        <time>2024-09-19T14:01:29Z</time>
      </trkpt>
      <trkpt lat="45.76864" lon="5.20645">
        <ele>215.4</ele>
        <time>2024-09-19T14:01:30Z</time>
      </trkpt>
      <trkpt lat="45.76869" lon="5.20639">
        <ele>215.2</ele>
        <time>2024-09-19T14:01:31Z</time>
      </trkpt>
      <trkpt lat="45.76873" lon="5.20632">
        <ele>215</ele>
        <time>2024-09-19T14:01:32Z</time>
      </trkpt>
      <trkpt lat="45.76877" lon="5.20623">
        <ele>214.8</ele>
        <time>2024-09-19T14:01:33Z</time>
      </trkpt>
      <trkpt lat="45.7688" lon="5.20615">
        <ele>214.8</ele>
        <time>2024-09-19T14:01:34Z</time>
      </trkpt>
      <trkpt lat="45.7688" lon="5.20607">
        <ele>214.8</ele>
        <time>2024-09-19T14:01:35Z</time>
      </trkpt>
      <trkpt lat="45.76881" lon="5.20599">
        <ele>214.8</ele>
        <time>2024-09-19T14:01:36Z</time>
      </trkpt>
      <trkpt lat="45.76884" lon="5.20592">
        <ele>214.8</ele>
        <time>2024-09-19T14:01:37Z</time>
      </trkpt>
      <trkpt lat="45.76888" lon="5.20588">
        <ele>214.8</ele>
        <time>2024-09-19T14:01:38Z</time>
      </trkpt>
      <trkpt lat="45.76893" lon="5.20583">
        <ele>214.8</ele>
        <time>2024-09-19T14:01:39Z</time>
      </trkpt>
      <trkpt lat="45.76897" lon="5.20576">
        <ele>214.8</ele>
        <time>2024-09-19T14:01:40Z</time>
      </trkpt>
      <trkpt lat="45.769" lon="5.20568">
        <ele>214.8</ele>
        <time>2024-09-19T14:01:41Z</time>
      </trkpt>
      <trkpt lat="45.76901" lon="5.20558">
        <ele>214.6</ele>
        <time>2024-09-19T14:01:42Z</time>
      </trkpt>
      <trkpt lat="45.76902" lon="5.20549">
        <ele>214.2</ele>
        <time>2024-09-19T14:01:43Z</time>
      </trkpt>
      <trkpt lat="45.76901" lon="5.2054">
        <ele>214.2</ele>
        <time>2024-09-19T14:01:44Z</time>
      </trkpt>
      <trkpt lat="45.76898" lon="5.20532">
        <ele>214.2</ele>
        <time>2024-09-19T14:01:45Z</time>
      </trkpt>
      <trkpt lat="45.76895" lon="5.20524">
        <ele>214.2</ele>
        <time>2024-09-19T14:01:46Z</time>
      </trkpt>
      <trkpt lat="45.76893" lon="5.20517">
        <ele>214.6</ele>
        <time>2024-09-19T14:01:47Z</time>
      </trkpt>
      <trkpt lat="45.76892" lon="5.20509">
        <ele>214.6</ele>
        <time>2024-09-19T14:01:48Z</time>
      </trkpt>
      <trkpt lat="45.76891" lon="5.20501">
        <ele>215</ele>
        <time>2024-09-19T14:01:49Z</time>
      </trkpt>
      <trkpt lat="45.76892" lon="5.20493">
        <ele>215.2</ele>
        <time>2024-09-19T14:01:50Z</time>
      </trkpt>
      <trkpt lat="45.76894" lon="5.20486">
        <ele>215.4</ele>
        <time>2024-09-19T14:01:51Z</time>
      </trkpt>
      <trkpt lat="45.76895" lon="5.20479">
        <ele>215.4</ele>
        <time>2024-09-19T14:01:52Z</time>
      </trkpt>
      <trkpt lat="45.76897" lon="5.20471">
        <ele>215.4</ele>
        <time>2024-09-19T14:01:53Z</time>
      </trkpt>
      <trkpt lat="45.76898" lon="5.20464">
        <ele>215.4</ele>
        <time>2024-09-19T14:01:54Z</time>
      </trkpt>
      <trkpt lat="45.769" lon="5.20457">
        <ele>215.6</ele>
        <time>2024-09-19T14:01:55Z</time>
      </trkpt>
      <trkpt lat="45.769" lon="5.20451">
        <ele>215.6</ele>
        <time>2024-09-19T14:01:56Z</time>
      </trkpt>
      <trkpt lat="45.76901" lon="5.20444">
        <ele>216</ele>
        <time>2024-09-19T14:01:57Z</time>
      </trkpt>
      <trkpt lat="45.76902" lon="5.20437">
        <ele>216.2</ele>
        <time>2024-09-19T14:01:58Z</time>
      </trkpt>
      <trkpt lat="45.76903" lon="5.20431">
        <ele>216.6</ele>
        <time>2024-09-19T14:01:59Z</time>
      </trkpt>
      <trkpt lat="45.76903" lon="5.20424">
        <ele>216.6</ele>
        <time>2024-09-19T14:02:00Z</time>
      </trkpt>
      <trkpt lat="45.76904" lon="5.20417">
        <ele>217.2</ele>
        <time>2024-09-19T14:02:01Z</time>
      </trkpt>
      <trkpt lat="45.76904" lon="5.2041">
        <ele>217.2</ele>
        <time>2024-09-19T14:02:02Z</time>
      </trkpt>
      <trkpt lat="45.76904" lon="5.20404">
        <ele>217.4</ele>
        <time>2024-09-19T14:02:03Z</time>
      </trkpt>
      <trkpt lat="45.76904" lon="5.20397">
        <ele>217.6</ele>
        <time>2024-09-19T14:02:04Z</time>
      </trkpt>
      <trkpt lat="45.76904" lon="5.2039">
        <ele>217.8</ele>
        <time>2024-09-19T14:02:05Z</time>
      </trkpt>
      <trkpt lat="45.76905" lon="5.20384">
        <ele>218.2</ele>
        <time>2024-09-19T14:02:06Z</time>
      </trkpt>
      <trkpt lat="45.76905" lon="5.20378">
        <ele>218.2</ele>
        <time>2024-09-19T14:02:07Z</time>
      </trkpt>
      <trkpt lat="45.76905" lon="5.20371">
        <ele>218.6</ele>
        <time>2024-09-19T14:02:08Z</time>
      </trkpt>
      <trkpt lat="45.76906" lon="5.20365">
        <ele>218.8</ele>
        <time>2024-09-19T14:02:09Z</time>
      </trkpt>
      <trkpt lat="45.76906" lon="5.20359">
        <ele>218.8</ele>
        <time>2024-09-19T14:02:10Z</time>
      </trkpt>
      <trkpt lat="45.76906" lon="5.20352">
        <ele>219</ele>
        <time>2024-09-19T14:02:11Z</time>
      </trkpt>
      <trkpt lat="45.76906" lon="5.20346">
        <ele>219.4</ele>
        <time>2024-09-19T14:02:12Z</time>
      </trkpt>
      <trkpt lat="45.76907" lon="5.2034">
        <ele>219.4</ele>
        <time>2024-09-19T14:02:13Z</time>
      </trkpt>
      <trkpt lat="45.76907" lon="5.20333">
        <ele>219.8</ele>
        <time>2024-09-19T14:02:14Z</time>
      </trkpt>
      <trkpt lat="45.76907" lon="5.20327">
        <ele>219.8</ele>
        <time>2024-09-19T14:02:15Z</time>
      </trkpt>
      <trkpt lat="45.76908" lon="5.2032">
        <ele>219.8</ele>
        <time>2024-09-19T14:02:16Z</time>
      </trkpt>
      <trkpt lat="45.76908" lon="5.20313">
        <ele>219.8</ele>
        <time>2024-09-19T14:02:17Z</time>
      </trkpt>
      <trkpt lat="45.76908" lon="5.20307">
        <ele>219.6</ele>
        <time>2024-09-19T14:02:18Z</time>
      </trkpt>
      <trkpt lat="45.76909" lon="5.203">
        <ele>219.6</ele>
        <time>2024-09-19T14:02:19Z</time>
      </trkpt>
      <trkpt lat="45.76909" lon="5.20292">
        <ele>219.6</ele>
        <time>2024-09-19T14:02:20Z</time>
      </trkpt>
      <trkpt lat="45.7691" lon="5.20285">
        <ele>219.6</ele>
        <time>2024-09-19T14:02:21Z</time>
      </trkpt>
      <trkpt lat="45.76911" lon="5.20278">
        <ele>219.8</ele>
        <time>2024-09-19T14:02:22Z</time>
      </trkpt>
      <trkpt lat="45.76911" lon="5.2027">
        <ele>219.6</ele>
        <time>2024-09-19T14:02:23Z</time>
      </trkpt>
      <trkpt lat="45.76911" lon="5.20262">
        <ele>219.6</ele>
        <time>2024-09-19T14:02:24Z</time>
      </trkpt>
      <trkpt lat="45.76911" lon="5.20254">
        <ele>219.6</ele>
        <time>2024-09-19T14:02:25Z</time>
      </trkpt>
      <trkpt lat="45.76912" lon="5.20245">
        <ele>219.6</ele>
        <time>2024-09-19T14:02:26Z</time>
      </trkpt>
      <trkpt lat="45.76912" lon="5.20237">
        <ele>219.6</ele>
        <time>2024-09-19T14:02:27Z</time>
      </trkpt>
      <trkpt lat="45.76913" lon="5.20228">
        <ele>219.6</ele>
        <time>2024-09-19T14:02:28Z</time>
      </trkpt>
      <trkpt lat="45.76913" lon="5.20219">
        <ele>219.6</ele>
        <time>2024-09-19T14:02:29Z</time>
      </trkpt>
      <trkpt lat="45.76914" lon="5.2021">
        <ele>219.6</ele>
        <time>2024-09-19T14:02:30Z</time>
      </trkpt>
      <trkpt lat="45.76915" lon="5.20201">
        <ele>219.6</ele>
        <time>2024-09-19T14:02:31Z</time>
      </trkpt>
      <trkpt lat="45.76915" lon="5.20192">
        <ele>219.2</ele>
        <time>2024-09-19T14:02:32Z</time>
      </trkpt>
      <trkpt lat="45.76916" lon="5.20183">
        <ele>219.2</ele>
        <time>2024-09-19T14:02:33Z</time>
      </trkpt>
      <trkpt lat="45.76917" lon="5.20174">
        <ele>219.2</ele>
        <time>2024-09-19T14:02:34Z</time>
      </trkpt>
      <trkpt lat="45.76918" lon="5.20164">
        <ele>219.2</ele>
        <time>2024-09-19T14:02:35Z</time>
      </trkpt>
      <trkpt lat="45.76919" lon="5.20155">
        <ele>219.2</ele>
        <time>2024-09-19T14:02:36Z</time>
      </trkpt>
      <trkpt lat="45.7692" lon="5.20145">
        <ele>219.2</ele>
        <time>2024-09-19T14:02:37Z</time>
      </trkpt>
      <trkpt lat="45.76921" lon="5.20135">
        <ele>219.6</ele>
        <time>2024-09-19T14:02:38Z</time>
      </trkpt>
      <trkpt lat="45.76922" lon="5.20126">
        <ele>219.6</ele>
        <time>2024-09-19T14:02:39Z</time>
      </trkpt>
      <trkpt lat="45.76923" lon="5.20117">
        <ele>219.2</ele>
        <time>2024-09-19T14:02:40Z</time>
      </trkpt>
      <trkpt lat="45.76923" lon="5.20108">
        <ele>218.6</ele>
        <time>2024-09-19T14:02:41Z</time>
      </trkpt>
      <trkpt lat="45.76923" lon="5.20098">
        <ele>218.6</ele>
        <time>2024-09-19T14:02:42Z</time>
      </trkpt>
      <trkpt lat="45.76924" lon="5.2009">
        <ele>218.4</ele>
        <time>2024-09-19T14:02:43Z</time>
      </trkpt>
      <trkpt lat="45.76925" lon="5.20079">
        <ele>218.4</ele>
        <time>2024-09-19T14:02:44Z</time>
      </trkpt>
      <trkpt lat="45.76926" lon="5.20069">
        <ele>218.2</ele>
        <time>2024-09-19T14:02:45Z</time>
      </trkpt>
      <trkpt lat="45.76927" lon="5.20059">
        <ele>218</ele>
        <time>2024-09-19T14:02:46Z</time>
      </trkpt>
      <trkpt lat="45.76927" lon="5.20048">
        <ele>218</ele>
        <time>2024-09-19T14:02:47Z</time>
      </trkpt>
      <trkpt lat="45.76928" lon="5.20039">
        <ele>217.6</ele>
        <time>2024-09-19T14:02:48Z</time>
      </trkpt>
      <trkpt lat="45.76928" lon="5.20028">
        <ele>217.4</ele>
        <time>2024-09-19T14:02:49Z</time>
      </trkpt>
      <trkpt lat="45.76927" lon="5.20017">
        <ele>217</ele>
        <time>2024-09-19T14:02:50Z</time>
      </trkpt>
      <trkpt lat="45.76926" lon="5.20006">
        <ele>216.8</ele>
        <time>2024-09-19T14:02:51Z</time>
      </trkpt>
      <trkpt lat="45.76924" lon="5.19996">
        <ele>216.8</ele>
        <time>2024-09-19T14:02:52Z</time>
      </trkpt>
      <trkpt lat="45.76921" lon="5.19985">
        <ele>216.4</ele>
        <time>2024-09-19T14:02:53Z</time>
      </trkpt>
      <trkpt lat="45.76919" lon="5.19974">
        <ele>216.2</ele>
        <time>2024-09-19T14:02:54Z</time>
      </trkpt>
      <trkpt lat="45.76916" lon="5.19965">
        <ele>216</ele>
        <time>2024-09-19T14:02:55Z</time>
      </trkpt>
      <trkpt lat="45.76912" lon="5.19955">
        <ele>216</ele>
        <time>2024-09-19T14:02:56Z</time>
      </trkpt>
      <trkpt lat="45.76909" lon="5.19945">
        <ele>216</ele>
        <time>2024-09-19T14:02:57Z</time>
      </trkpt>
      <trkpt lat="45.76905" lon="5.19937">
        <ele>215.6</ele>
        <time>2024-09-19T14:02:58Z</time>
      </trkpt>
      <trkpt lat="45.76901" lon="5.19928">
        <ele>215.6</ele>
        <time>2024-09-19T14:02:59Z</time>
      </trkpt>
      <trkpt lat="45.76897" lon="5.1992">
        <ele>215.6</ele>
        <time>2024-09-19T14:03:00Z</time>
      </trkpt>
      <trkpt lat="45.76893" lon="5.19912">
        <ele>215.6</ele>
        <time>2024-09-19T14:03:01Z</time>
      </trkpt>
      <trkpt lat="45.76888" lon="5.19904">
        <ele>215.6</ele>
        <time>2024-09-19T14:03:02Z</time>
      </trkpt>
      <trkpt lat="45.76884" lon="5.19897">
        <ele>215.6</ele>
        <time>2024-09-19T14:03:03Z</time>
      </trkpt>
      <trkpt lat="45.76879" lon="5.19891">
        <ele>215.6</ele>
        <time>2024-09-19T14:03:04Z</time>
      </trkpt>
      <trkpt lat="45.76875" lon="5.19884">
        <ele>215.6</ele>
        <time>2024-09-19T14:03:05Z</time>
      </trkpt>
      <trkpt lat="45.76871" lon="5.19877">
        <ele>215.6</ele>
        <time>2024-09-19T14:03:06Z</time>
      </trkpt>
      <trkpt lat="45.76866" lon="5.19871">
        <ele>215.6</ele>
        <time>2024-09-19T14:03:07Z</time>
      </trkpt>
      <trkpt lat="45.76862" lon="5.19865">
        <ele>216</ele>
        <time>2024-09-19T14:03:08Z</time>
      </trkpt>
      <trkpt lat="45.76858" lon="5.19859">
        <ele>216.2</ele>
        <time>2024-09-19T14:03:09Z</time>
      </trkpt>
      <trkpt lat="45.76853" lon="5.19854">
        <ele>216.2</ele>
        <time>2024-09-19T14:03:10Z</time>
      </trkpt>
      <trkpt lat="45.76849" lon="5.19848">
        <ele>216.2</ele>
        <time>2024-09-19T14:03:11Z</time>
      </trkpt>
      <trkpt lat="45.76845" lon="5.19842">
        <ele>216.4</ele>
        <time>2024-09-19T14:03:12Z</time>
      </trkpt>
      <trkpt lat="45.7684" lon="5.19837">
        <ele>216.8</ele>
        <time>2024-09-19T14:03:13Z</time>
      </trkpt>
      <trkpt lat="45.76836" lon="5.19831">
        <ele>216.8</ele>
        <time>2024-09-19T14:03:14Z</time>
      </trkpt>
      <trkpt lat="45.76833" lon="5.19826">
        <ele>216.8</ele>
        <time>2024-09-19T14:03:15Z</time>
      </trkpt>
      <trkpt lat="45.76829" lon="5.1982">
        <ele>217.4</ele>
        <time>2024-09-19T14:03:16Z</time>
      </trkpt>
      <trkpt lat="45.76825" lon="5.19815">
        <ele>217.4</ele>
        <time>2024-09-19T14:03:17Z</time>
      </trkpt>
      <trkpt lat="45.76821" lon="5.1981">
        <ele>217.6</ele>
        <time>2024-09-19T14:03:18Z</time>
      </trkpt>
      <trkpt lat="45.76817" lon="5.19804">
        <ele>217.8</ele>
        <time>2024-09-19T14:03:19Z</time>
      </trkpt>
      <trkpt lat="45.76813" lon="5.19798">
        <ele>217.8</ele>
        <time>2024-09-19T14:03:20Z</time>
      </trkpt>
      <trkpt lat="45.7681" lon="5.19793">
        <ele>218.2</ele>
        <time>2024-09-19T14:03:21Z</time>
      </trkpt>
      <trkpt lat="45.76806" lon="5.19788">
        <ele>218.2</ele>
        <time>2024-09-19T14:03:22Z</time>
      </trkpt>
      <trkpt lat="45.76806" lon="5.19788">
        <ele>218.6</ele>
        <time>2024-09-19T14:03:23Z</time>
      </trkpt>
      <trkpt lat="45.76802" lon="5.19784">
        <ele>218.6</ele>
        <time>2024-09-19T14:03:24Z</time>
      </trkpt>
      <trkpt lat="45.76799" lon="5.19779">
        <ele>218.6</ele>
        <time>2024-09-19T14:03:25Z</time>
      </trkpt>
      <trkpt lat="45.76795" lon="5.19774">
        <ele>218.6</ele>
        <time>2024-09-19T14:03:26Z</time>
      </trkpt>
      <trkpt lat="45.76792" lon="5.19769">
        <ele>218.8</ele>
        <time>2024-09-19T14:03:27Z</time>
      </trkpt>
      <trkpt lat="45.76789" lon="5.19765">
        <ele>219</ele>
        <time>2024-09-19T14:03:28Z</time>
      </trkpt>
      <trkpt lat="45.76785" lon="5.19761">
        <ele>219</ele>
        <time>2024-09-19T14:03:29Z</time>
      </trkpt>
      <trkpt lat="45.76782" lon="5.19756">
        <ele>219</ele>
        <time>2024-09-19T14:03:30Z</time>
      </trkpt>
      <trkpt lat="45.76778" lon="5.19751">
        <ele>219.2</ele>
        <time>2024-09-19T14:03:31Z</time>
      </trkpt>
      <trkpt lat="45.76775" lon="5.19746">
        <ele>219.2</ele>
        <time>2024-09-19T14:03:32Z</time>
      </trkpt>
      <trkpt lat="45.76771" lon="5.19742">
        <ele>219.2</ele>
        <time>2024-09-19T14:03:33Z</time>
      </trkpt>
      <trkpt lat="45.76767" lon="5.19738">
        <ele>219.2</ele>
        <time>2024-09-19T14:03:34Z</time>
      </trkpt>
      <trkpt lat="45.76764" lon="5.19733">
        <ele>219.2</ele>
        <time>2024-09-19T14:03:35Z</time>
      </trkpt>
      <trkpt lat="45.7676" lon="5.19729">
        <ele>219.2</ele>
        <time>2024-09-19T14:03:36Z</time>
      </trkpt>
      <trkpt lat="45.76753" lon="5.19721">
        <ele>219.4</ele>
        <time>2024-09-19T14:03:37Z</time>
      </trkpt>
      <trkpt lat="45.7675" lon="5.19716">
        <ele>219.4</ele>
        <time>2024-09-19T14:03:38Z</time>
      </trkpt>
      <trkpt lat="45.76746" lon="5.19711">
        <ele>219.4</ele>
        <time>2024-09-19T14:03:39Z</time>
      </trkpt>
      <trkpt lat="45.76743" lon="5.19707">
        <ele>219.4</ele>
        <time>2024-09-19T14:03:40Z</time>
      </trkpt>
      <trkpt lat="45.7674" lon="5.19702">
        <ele>219.4</ele>
        <time>2024-09-19T14:03:41Z</time>
      </trkpt>
      <trkpt lat="45.76737" lon="5.19697">
        <ele>219.6</ele>
        <time>2024-09-19T14:03:42Z</time>
      </trkpt>
      <trkpt lat="45.76734" lon="5.19692">
        <ele>219.6</ele>
        <time>2024-09-19T14:03:43Z</time>
      </trkpt>
      <trkpt lat="45.76731" lon="5.19687">
        <ele>219.6</ele>
        <time>2024-09-19T14:03:44Z</time>
      </trkpt>
      <trkpt lat="45.76728" lon="5.19681">
        <ele>219.6</ele>
        <time>2024-09-19T14:03:45Z</time>
      </trkpt>
      <trkpt lat="45.76725" lon="5.19676">
        <ele>219.6</ele>
        <time>2024-09-19T14:03:46Z</time>
      </trkpt>
      <trkpt lat="45.76722" lon="5.19669">
        <ele>219.6</ele>
        <time>2024-09-19T14:03:47Z</time>
      </trkpt>
      <trkpt lat="45.76719" lon="5.19664">
        <ele>219.6</ele>
        <time>2024-09-19T14:03:48Z</time>
      </trkpt>
      <trkpt lat="45.76716" lon="5.19658">
        <ele>219.6</ele>
        <time>2024-09-19T14:03:49Z</time>
      </trkpt>
      <trkpt lat="45.76713" lon="5.19652">
        <ele>219.4</ele>
        <time>2024-09-19T14:03:50Z</time>
      </trkpt>
      <trkpt lat="45.7671" lon="5.19646">
        <ele>219.4</ele>
        <time>2024-09-19T14:03:51Z</time>
      </trkpt>
      <trkpt lat="45.76708" lon="5.1964">
        <ele>219.4</ele>
        <time>2024-09-19T14:03:52Z</time>
      </trkpt>
      <trkpt lat="45.76705" lon="5.19634">
        <ele>219.4</ele>
        <time>2024-09-19T14:03:53Z</time>
      </trkpt>
      <trkpt lat="45.76703" lon="5.19629">
        <ele>219.6</ele>
        <time>2024-09-19T14:03:54Z</time>
      </trkpt>
      <trkpt lat="45.76701" lon="5.19623">
        <ele>219.6</ele>
        <time>2024-09-19T14:03:55Z</time>
      </trkpt>
      <trkpt lat="45.76698" lon="5.19618">
        <ele>219.6</ele>
        <time>2024-09-19T14:03:56Z</time>
      </trkpt>
      <trkpt lat="45.76696" lon="5.19612">
        <ele>219.6</ele>
        <time>2024-09-19T14:03:57Z</time>
      </trkpt>
      <trkpt lat="45.76694" lon="5.19606">
        <ele>219.6</ele>
        <time>2024-09-19T14:03:58Z</time>
      </trkpt>
      <trkpt lat="45.76692" lon="5.196">
        <ele>220</ele>
        <time>2024-09-19T14:03:59Z</time>
      </trkpt>
      <trkpt lat="45.76691" lon="5.19594">
        <ele>220</ele>
        <time>2024-09-19T14:04:00Z</time>
      </trkpt>
      <trkpt lat="45.7669" lon="5.19588">
        <ele>220.4</ele>
        <time>2024-09-19T14:04:01Z</time>
      </trkpt>
      <trkpt lat="45.76691" lon="5.19582">
        <ele>220.4</ele>
        <time>2024-09-19T14:04:02Z</time>
      </trkpt>
      <trkpt lat="45.76691" lon="5.19576">
        <ele>220.4</ele>
        <time>2024-09-19T14:04:03Z</time>
      </trkpt>
      <trkpt lat="45.76691" lon="5.19571">
        <ele>220.4</ele>
        <time>2024-09-19T14:04:04Z</time>
      </trkpt>
      <trkpt lat="45.76693" lon="5.19566">
        <ele>220.4</ele>
        <time>2024-09-19T14:04:05Z</time>
      </trkpt>
      <trkpt lat="45.76695" lon="5.19561">
        <ele>220.4</ele>
        <time>2024-09-19T14:04:06Z</time>
      </trkpt>
      <trkpt lat="45.76696" lon="5.19556">
        <ele>220.6</ele>
        <time>2024-09-19T14:04:07Z</time>
      </trkpt>
      <trkpt lat="45.76697" lon="5.19551">
        <ele>220.6</ele>
        <time>2024-09-19T14:04:08Z</time>
      </trkpt>
      <trkpt lat="45.76699" lon="5.19546">
        <ele>220.6</ele>
        <time>2024-09-19T14:04:09Z</time>
      </trkpt>
      <trkpt lat="45.767" lon="5.19543">
        <ele>220.6</ele>
        <time>2024-09-19T14:04:10Z</time>
      </trkpt>
      <trkpt lat="45.76701" lon="5.1954">
        <ele>220.6</ele>
        <time>2024-09-19T14:04:11Z</time>
      </trkpt>
      <trkpt lat="45.76702" lon="5.19537">
        <ele>220.6</ele>
        <time>2024-09-19T14:04:12Z</time>
      </trkpt>
      <trkpt lat="45.76703" lon="5.19535">
        <ele>220.6</ele>
        <time>2024-09-19T14:04:13Z</time>
      </trkpt>
      <trkpt lat="45.76703" lon="5.19532">
        <ele>220.6</ele>
        <time>2024-09-19T14:04:14Z</time>
      </trkpt>
      <trkpt lat="45.76703" lon="5.19529">
        <ele>220.6</ele>
        <time>2024-09-19T14:04:15Z</time>
      </trkpt>
      <trkpt lat="45.76701" lon="5.19527">
        <ele>220.6</ele>
        <time>2024-09-19T14:04:16Z</time>
      </trkpt>
      <trkpt lat="45.76699" lon="5.19525">
        <ele>220.6</ele>
        <time>2024-09-19T14:04:17Z</time>
      </trkpt>
      <trkpt lat="45.76696" lon="5.19524">
        <ele>220.6</ele>
        <time>2024-09-19T14:04:18Z</time>
      </trkpt>
      <trkpt lat="45.76692" lon="5.19524">
        <ele>221</ele>
        <time>2024-09-19T14:04:19Z</time>
      </trkpt>
      <trkpt lat="45.76688" lon="5.19527">
        <ele>221</ele>
        <time>2024-09-19T14:04:20Z</time>
      </trkpt>
      <trkpt lat="45.76685" lon="5.19531">
        <ele>221</ele>
        <time>2024-09-19T14:04:21Z</time>
      </trkpt>
      <trkpt lat="45.76682" lon="5.19535">
        <ele>221</ele>
        <time>2024-09-19T14:04:22Z</time>
      </trkpt>
      <trkpt lat="45.76678" lon="5.19536">
        <ele>220.6</ele>
        <time>2024-09-19T14:04:23Z</time>
      </trkpt>
      <trkpt lat="45.76674" lon="5.19536">
        <ele>220.6</ele>
        <time>2024-09-19T14:04:24Z</time>
      </trkpt>
      <trkpt lat="45.76671" lon="5.19534">
        <ele>220.4</ele>
        <time>2024-09-19T14:04:25Z</time>
      </trkpt>
      <trkpt lat="45.76667" lon="5.1953">
        <ele>220.4</ele>
        <time>2024-09-19T14:04:26Z</time>
      </trkpt>
      <trkpt lat="45.76664" lon="5.19524">
        <ele>220.4</ele>
        <time>2024-09-19T14:04:27Z</time>
      </trkpt>
      <trkpt lat="45.76661" lon="5.19519">
        <ele>220.4</ele>
        <time>2024-09-19T14:04:28Z</time>
      </trkpt>
      <trkpt lat="45.76659" lon="5.19513">
        <ele>220.4</ele>
        <time>2024-09-19T14:04:29Z</time>
      </trkpt>
      <trkpt lat="45.76658" lon="5.19505">
        <ele>220.2</ele>
        <time>2024-09-19T14:04:30Z</time>
      </trkpt>
      <trkpt lat="45.76658" lon="5.19497">
        <ele>219.8</ele>
        <time>2024-09-19T14:04:31Z</time>
      </trkpt>
      <trkpt lat="45.76658" lon="5.1949">
        <ele>219.8</ele>
        <time>2024-09-19T14:04:32Z</time>
      </trkpt>
      <trkpt lat="45.76658" lon="5.19482">
        <ele>219.8</ele>
        <time>2024-09-19T14:04:33Z</time>
      </trkpt>
      <trkpt lat="45.76659" lon="5.19474">
        <ele>219.6</ele>
        <time>2024-09-19T14:04:34Z</time>
      </trkpt>
      <trkpt lat="45.7666" lon="5.19466">
        <ele>219.4</ele>
        <time>2024-09-19T14:04:35Z</time>
      </trkpt>
      <trkpt lat="45.76661" lon="5.19459">
        <ele>219.4</ele>
        <time>2024-09-19T14:04:36Z</time>
      </trkpt>
      <trkpt lat="45.76662" lon="5.1945">
        <ele>219</ele>
        <time>2024-09-19T14:04:37Z</time>
      </trkpt>
      <trkpt lat="45.76663" lon="5.19442">
        <ele>219</ele>
        <time>2024-09-19T14:04:38Z</time>
      </trkpt>
      <trkpt lat="45.76663" lon="5.19434">
        <ele>219</ele>
        <time>2024-09-19T14:04:39Z</time>
      </trkpt>
      <trkpt lat="45.76664" lon="5.19426">
        <ele>219</ele>
        <time>2024-09-19T14:04:40Z</time>
      </trkpt>
      <trkpt lat="45.76665" lon="5.19418">
        <ele>218.8</ele>
        <time>2024-09-19T14:04:41Z</time>
      </trkpt>
      <trkpt lat="45.76664" lon="5.19411">
        <ele>218.8</ele>
        <time>2024-09-19T14:04:42Z</time>
      </trkpt>
      <trkpt lat="45.76664" lon="5.19404">
        <ele>218.8</ele>
        <time>2024-09-19T14:04:43Z</time>
      </trkpt>
      <trkpt lat="45.76665" lon="5.19397">
        <ele>219</ele>
        <time>2024-09-19T14:04:44Z</time>
      </trkpt>
      <trkpt lat="45.76665" lon="5.1939">
        <ele>219</ele>
        <time>2024-09-19T14:04:45Z</time>
      </trkpt>
      <trkpt lat="45.76667" lon="5.19383">
        <ele>219</ele>
        <time>2024-09-19T14:04:46Z</time>
      </trkpt>
      <trkpt lat="45.76668" lon="5.19376">
        <ele>219</ele>
        <time>2024-09-19T14:04:47Z</time>
      </trkpt>
      <trkpt lat="45.76669" lon="5.19369">
        <ele>219</ele>
        <time>2024-09-19T14:04:48Z</time>
      </trkpt>
      <trkpt lat="45.7667" lon="5.19362">
        <ele>219</ele>
        <time>2024-09-19T14:04:49Z</time>
      </trkpt>
      <trkpt lat="45.76671" lon="5.19354">
        <ele>218.6</ele>
        <time>2024-09-19T14:04:50Z</time>
      </trkpt>
      <trkpt lat="45.76671" lon="5.19347">
        <ele>218.6</ele>
        <time>2024-09-19T14:04:51Z</time>
      </trkpt>
      <trkpt lat="45.76672" lon="5.1934">
        <ele>218.6</ele>
        <time>2024-09-19T14:04:52Z</time>
      </trkpt>
      <trkpt lat="45.76673" lon="5.19332">
        <ele>218.6</ele>
        <time>2024-09-19T14:04:53Z</time>
      </trkpt>
      <trkpt lat="45.76673" lon="5.19324">
        <ele>218.6</ele>
        <time>2024-09-19T14:04:54Z</time>
      </trkpt>
      <trkpt lat="45.76674" lon="5.19316">
        <ele>218.6</ele>
        <time>2024-09-19T14:04:55Z</time>
      </trkpt>
      <trkpt lat="45.76674" lon="5.19308">
        <ele>218.8</ele>
        <time>2024-09-19T14:04:56Z</time>
      </trkpt>
      <trkpt lat="45.76675" lon="5.19301">
        <ele>218.8</ele>
        <time>2024-09-19T14:04:57Z</time>
      </trkpt>
      <trkpt lat="45.76676" lon="5.19293">
        <ele>218.8</ele>
        <time>2024-09-19T14:04:58Z</time>
      </trkpt>
      <trkpt lat="45.76676" lon="5.19285">
        <ele>218.8</ele>
        <time>2024-09-19T14:04:59Z</time>
      </trkpt>
      <trkpt lat="45.76678" lon="5.19278">
        <ele>218.8</ele>
        <time>2024-09-19T14:05:00Z</time>
      </trkpt>
      <trkpt lat="45.76679" lon="5.1927">
        <ele>218.8</ele>
        <time>2024-09-19T14:05:01Z</time>
      </trkpt>
      <trkpt lat="45.76679" lon="5.19262">
        <ele>218.6</ele>
        <time>2024-09-19T14:05:02Z</time>
      </trkpt>
      <trkpt lat="45.7668" lon="5.19255">
        <ele>218.6</ele>
        <time>2024-09-19T14:05:03Z</time>
      </trkpt>
      <trkpt lat="45.76681" lon="5.19248">
        <ele>218.8</ele>
        <time>2024-09-19T14:05:04Z</time>
      </trkpt>
      <trkpt lat="45.76681" lon="5.1924">
        <ele>218.8</ele>
        <time>2024-09-19T14:05:05Z</time>
      </trkpt>
      <trkpt lat="45.76682" lon="5.19232">
        <ele>218.8</ele>
        <time>2024-09-19T14:05:06Z</time>
      </trkpt>
      <trkpt lat="45.76683" lon="5.19225">
        <ele>218.8</ele>
        <time>2024-09-19T14:05:07Z</time>
      </trkpt>
      <trkpt lat="45.76683" lon="5.19217">
        <ele>218.8</ele>
        <time>2024-09-19T14:05:08Z</time>
      </trkpt>
      <trkpt lat="45.76684" lon="5.19209">
        <ele>218.8</ele>
        <time>2024-09-19T14:05:09Z</time>
      </trkpt>
      <trkpt lat="45.76684" lon="5.19201">
        <ele>218.8</ele>
        <time>2024-09-19T14:05:10Z</time>
      </trkpt>
      <trkpt lat="45.76685" lon="5.19192">
        <ele>218.8</ele>
        <time>2024-09-19T14:05:11Z</time>
      </trkpt>
      <trkpt lat="45.76685" lon="5.19183">
        <ele>218.6</ele>
        <time>2024-09-19T14:05:12Z</time>
      </trkpt>
      <trkpt lat="45.76686" lon="5.19175">
        <ele>218</ele>
        <time>2024-09-19T14:05:13Z</time>
      </trkpt>
      <trkpt lat="45.76686" lon="5.19167">
        <ele>217.6</ele>
        <time>2024-09-19T14:05:14Z</time>
      </trkpt>
      <trkpt lat="45.76685" lon="5.19158">
        <ele>217.6</ele>
        <time>2024-09-19T14:05:15Z</time>
      </trkpt>
      <trkpt lat="45.76685" lon="5.19149">
        <ele>217.6</ele>
        <time>2024-09-19T14:05:16Z</time>
      </trkpt>
      <trkpt lat="45.76685" lon="5.19141">
        <ele>217.4</ele>
        <time>2024-09-19T14:05:17Z</time>
      </trkpt>
      <trkpt lat="45.76684" lon="5.19133">
        <ele>218</ele>
        <time>2024-09-19T14:05:18Z</time>
      </trkpt>
      <trkpt lat="45.76683" lon="5.19125">
        <ele>218</ele>
        <time>2024-09-19T14:05:19Z</time>
      </trkpt>
      <trkpt lat="45.76682" lon="5.19116">
        <ele>218</ele>
        <time>2024-09-19T14:05:20Z</time>
      </trkpt>
      <trkpt lat="45.7668" lon="5.19108">
        <ele>218</ele>
        <time>2024-09-19T14:05:21Z</time>
      </trkpt>
      <trkpt lat="45.76679" lon="5.191">
        <ele>217.6</ele>
        <time>2024-09-19T14:05:22Z</time>
      </trkpt>
      <trkpt lat="45.76678" lon="5.19092">
        <ele>217.4</ele>
        <time>2024-09-19T14:05:23Z</time>
      </trkpt>
      <trkpt lat="45.76676" lon="5.19084">
        <ele>217.4</ele>
        <time>2024-09-19T14:05:24Z</time>
      </trkpt>
      <trkpt lat="45.76675" lon="5.19076">
        <ele>217.4</ele>
        <time>2024-09-19T14:05:25Z</time>
      </trkpt>
      <trkpt lat="45.76674" lon="5.19068">
        <ele>217.8</ele>
        <time>2024-09-19T14:05:26Z</time>
      </trkpt>
      <trkpt lat="45.76672" lon="5.1906">
        <ele>217.8</ele>
        <time>2024-09-19T14:05:27Z</time>
      </trkpt>
      <trkpt lat="45.76669" lon="5.19054">
        <ele>217.8</ele>
        <time>2024-09-19T14:05:28Z</time>
      </trkpt>
      <trkpt lat="45.76668" lon="5.19045">
        <ele>217.8</ele>
        <time>2024-09-19T14:05:29Z</time>
      </trkpt>
      <trkpt lat="45.76666" lon="5.19037">
        <ele>217.8</ele>
        <time>2024-09-19T14:05:30Z</time>
      </trkpt>
      <trkpt lat="45.76664" lon="5.19029">
        <ele>217.8</ele>
        <time>2024-09-19T14:05:31Z</time>
      </trkpt>
      <trkpt lat="45.76663" lon="5.19021">
        <ele>217.8</ele>
        <time>2024-09-19T14:05:32Z</time>
      </trkpt>
      <trkpt lat="45.76661" lon="5.19013">
        <ele>217.8</ele>
        <time>2024-09-19T14:05:33Z</time>
      </trkpt>
      <trkpt lat="45.7666" lon="5.19006">
        <ele>217.4</ele>
        <time>2024-09-19T14:05:34Z</time>
      </trkpt>
      <trkpt lat="45.76659" lon="5.18998">
        <ele>217.4</ele>
        <time>2024-09-19T14:05:35Z</time>
      </trkpt>
      <trkpt lat="45.76657" lon="5.1899">
        <ele>217.2</ele>
        <time>2024-09-19T14:05:36Z</time>
      </trkpt>
      <trkpt lat="45.76656" lon="5.18981">
        <ele>217.2</ele>
        <time>2024-09-19T14:05:37Z</time>
      </trkpt>
      <trkpt lat="45.76654" lon="5.18973">
        <ele>217.2</ele>
        <time>2024-09-19T14:05:38Z</time>
      </trkpt>
      <trkpt lat="45.76652" lon="5.18965">
        <ele>217.2</ele>
        <time>2024-09-19T14:05:39Z</time>
      </trkpt>
      <trkpt lat="45.76651" lon="5.18957">
        <ele>217.4</ele>
        <time>2024-09-19T14:05:40Z</time>
      </trkpt>
      <trkpt lat="45.76649" lon="5.18949">
        <ele>217.4</ele>
        <time>2024-09-19T14:05:41Z</time>
      </trkpt>
      <trkpt lat="45.76647" lon="5.18941">
        <ele>217.4</ele>
        <time>2024-09-19T14:05:42Z</time>
      </trkpt>
      <trkpt lat="45.76646" lon="5.18932">
        <ele>217.2</ele>
        <time>2024-09-19T14:05:43Z</time>
      </trkpt>
      <trkpt lat="45.76644" lon="5.18924">
        <ele>217.2</ele>
        <time>2024-09-19T14:05:44Z</time>
      </trkpt>
      <trkpt lat="45.76642" lon="5.18915">
        <ele>217</ele>
        <time>2024-09-19T14:05:45Z</time>
      </trkpt>
      <trkpt lat="45.7664" lon="5.18906">
        <ele>217</ele>
        <time>2024-09-19T14:05:46Z</time>
      </trkpt>
      <trkpt lat="45.76639" lon="5.18897">
        <ele>217</ele>
        <time>2024-09-19T14:05:47Z</time>
      </trkpt>
      <trkpt lat="45.76637" lon="5.18888">
        <ele>217</ele>
        <time>2024-09-19T14:05:48Z</time>
      </trkpt>
      <trkpt lat="45.76636" lon="5.18878">
        <ele>216.6</ele>
        <time>2024-09-19T14:05:49Z</time>
      </trkpt>
      <trkpt lat="45.76635" lon="5.18869">
        <ele>216.4</ele>
        <time>2024-09-19T14:05:50Z</time>
      </trkpt>
      <trkpt lat="45.76633" lon="5.18859">
        <ele>216.4</ele>
        <time>2024-09-19T14:05:51Z</time>
      </trkpt>
      <trkpt lat="45.76632" lon="5.18849">
        <ele>216.2</ele>
        <time>2024-09-19T14:05:52Z</time>
      </trkpt>
      <trkpt lat="45.76632" lon="5.18838">
        <ele>215.6</ele>
        <time>2024-09-19T14:05:53Z</time>
      </trkpt>
      <trkpt lat="45.76631" lon="5.18828">
        <ele>215.4</ele>
        <time>2024-09-19T14:05:54Z</time>
      </trkpt>
      <trkpt lat="45.76631" lon="5.18819">
        <ele>215.4</ele>
        <time>2024-09-19T14:05:55Z</time>
      </trkpt>
      <trkpt lat="45.7663" lon="5.18809">
        <ele>215.4</ele>
        <time>2024-09-19T14:05:56Z</time>
      </trkpt>
      <trkpt lat="45.76631" lon="5.188">
        <ele>215</ele>
        <time>2024-09-19T14:05:57Z</time>
      </trkpt>
      <trkpt lat="45.76631" lon="5.18791">
        <ele>215</ele>
        <time>2024-09-19T14:05:58Z</time>
      </trkpt>
      <trkpt lat="45.7663" lon="5.18782">
        <ele>215</ele>
        <time>2024-09-19T14:05:59Z</time>
      </trkpt>
      <trkpt lat="45.7663" lon="5.18773">
        <ele>214.8</ele>
        <time>2024-09-19T14:06:00Z</time>
      </trkpt>
      <trkpt lat="45.7663" lon="5.18765">
        <ele>214.8</ele>
        <time>2024-09-19T14:06:01Z</time>
      </trkpt>
      <trkpt lat="45.7663" lon="5.18756">
        <ele>214.8</ele>
        <time>2024-09-19T14:06:02Z</time>
      </trkpt>
      <trkpt lat="45.7663" lon="5.18747">
        <ele>214.8</ele>
        <time>2024-09-19T14:06:03Z</time>
      </trkpt>
      <trkpt lat="45.76629" lon="5.18738">
        <ele>214.8</ele>
        <time>2024-09-19T14:06:04Z</time>
      </trkpt>
      <trkpt lat="45.76629" lon="5.18729">
        <ele>214.8</ele>
        <time>2024-09-19T14:06:05Z</time>
      </trkpt>
      <trkpt lat="45.76629" lon="5.18721">
        <ele>214.8</ele>
        <time>2024-09-19T14:06:06Z</time>
      </trkpt>
      <trkpt lat="45.76628" lon="5.18712">
        <ele>214.8</ele>
        <time>2024-09-19T14:06:07Z</time>
      </trkpt>
      <trkpt lat="45.76628" lon="5.18703">
        <ele>214.8</ele>
        <time>2024-09-19T14:06:08Z</time>
      </trkpt>
      <trkpt lat="45.76627" lon="5.18694">
        <ele>215.4</ele>
        <time>2024-09-19T14:06:09Z</time>
      </trkpt>
      <trkpt lat="45.76627" lon="5.18686">
        <ele>215</ele>
        <time>2024-09-19T14:06:10Z</time>
      </trkpt>
      <trkpt lat="45.76628" lon="5.18677">
        <ele>215</ele>
        <time>2024-09-19T14:06:11Z</time>
      </trkpt>
      <trkpt lat="45.76627" lon="5.18669">
        <ele>215</ele>
        <time>2024-09-19T14:06:12Z</time>
      </trkpt>
      <trkpt lat="45.76627" lon="5.1866">
        <ele>215</ele>
        <time>2024-09-19T14:06:13Z</time>
      </trkpt>
      <trkpt lat="45.76627" lon="5.18652">
        <ele>214.6</ele>
        <time>2024-09-19T14:06:14Z</time>
      </trkpt>
      <trkpt lat="45.76627" lon="5.18644">
        <ele>214.6</ele>
        <time>2024-09-19T14:06:15Z</time>
      </trkpt>
      <trkpt lat="45.76627" lon="5.18635">
        <ele>214.6</ele>
        <time>2024-09-19T14:06:16Z</time>
      </trkpt>
      <trkpt lat="45.76627" lon="5.18627">
        <ele>213.6</ele>
        <time>2024-09-19T14:06:17Z</time>
      </trkpt>
      <trkpt lat="45.76626" lon="5.18619">
        <ele>213.6</ele>
        <time>2024-09-19T14:06:18Z</time>
      </trkpt>
      <trkpt lat="45.76626" lon="5.18609">
        <ele>213.8</ele>
        <time>2024-09-19T14:06:19Z</time>
      </trkpt>
      <trkpt lat="45.76626" lon="5.186">
        <ele>213.8</ele>
        <time>2024-09-19T14:06:20Z</time>
      </trkpt>
      <trkpt lat="45.76626" lon="5.18591">
        <ele>213.8</ele>
        <time>2024-09-19T14:06:21Z</time>
      </trkpt>
      <trkpt lat="45.76626" lon="5.18583">
        <ele>213.8</ele>
        <time>2024-09-19T14:06:22Z</time>
      </trkpt>
      <trkpt lat="45.76625" lon="5.18575">
        <ele>214.2</ele>
        <time>2024-09-19T14:06:23Z</time>
      </trkpt>
      <trkpt lat="45.76626" lon="5.18566">
        <ele>214.2</ele>
        <time>2024-09-19T14:06:24Z</time>
      </trkpt>
      <trkpt lat="45.76624" lon="5.18558">
        <ele>214.2</ele>
        <time>2024-09-19T14:06:25Z</time>
      </trkpt>
      <trkpt lat="45.76624" lon="5.1855">
        <ele>214.2</ele>
        <time>2024-09-19T14:06:26Z</time>
      </trkpt>
      <trkpt lat="45.76623" lon="5.18541">
        <ele>214.4</ele>
        <time>2024-09-19T14:06:27Z</time>
      </trkpt>
      <trkpt lat="45.76623" lon="5.18533">
        <ele>214.4</ele>
        <time>2024-09-19T14:06:28Z</time>
      </trkpt>
      <trkpt lat="45.76623" lon="5.18525">
        <ele>214.4</ele>
        <time>2024-09-19T14:06:29Z</time>
      </trkpt>
      <trkpt lat="45.76623" lon="5.18515">
        <ele>214.4</ele>
        <time>2024-09-19T14:06:30Z</time>
      </trkpt>
      <trkpt lat="45.76623" lon="5.18507">
        <ele>214</ele>
        <time>2024-09-19T14:06:31Z</time>
      </trkpt>
      <trkpt lat="45.76622" lon="5.18499">
        <ele>214</ele>
        <time>2024-09-19T14:06:32Z</time>
      </trkpt>
      <trkpt lat="45.76623" lon="5.18491">
        <ele>214</ele>
        <time>2024-09-19T14:06:33Z</time>
      </trkpt>
      <trkpt lat="45.76624" lon="5.18483">
        <ele>214</ele>
        <time>2024-09-19T14:06:34Z</time>
      </trkpt>
      <trkpt lat="45.76625" lon="5.18475">
        <ele>214</ele>
        <time>2024-09-19T14:06:35Z</time>
      </trkpt>
      <trkpt lat="45.76626" lon="5.18468">
        <ele>214</ele>
        <time>2024-09-19T14:06:36Z</time>
      </trkpt>
      <trkpt lat="45.76626" lon="5.18461">
        <ele>214</ele>
        <time>2024-09-19T14:06:37Z</time>
      </trkpt>
      <trkpt lat="45.76627" lon="5.18453">
        <ele>214</ele>
        <time>2024-09-19T14:06:38Z</time>
      </trkpt>
      <trkpt lat="45.76628" lon="5.18445">
        <ele>214</ele>
        <time>2024-09-19T14:06:39Z</time>
      </trkpt>
      <trkpt lat="45.76628" lon="5.18445">
        <ele>214</ele>
        <time>2024-09-19T14:06:40Z</time>
      </trkpt>
      <trkpt lat="45.76629" lon="5.18438">
        <ele>214</ele>
        <time>2024-09-19T14:06:41Z</time>
      </trkpt>
      <trkpt lat="45.7663" lon="5.1843">
        <ele>214</ele>
        <time>2024-09-19T14:06:42Z</time>
      </trkpt>
      <trkpt lat="45.76631" lon="5.18423">
        <ele>214.4</ele>
        <time>2024-09-19T14:06:43Z</time>
      </trkpt>
      <trkpt lat="45.76631" lon="5.18415">
        <ele>214.4</ele>
        <time>2024-09-19T14:06:44Z</time>
      </trkpt>
      <trkpt lat="45.76632" lon="5.18407">
        <ele>214.6</ele>
        <time>2024-09-19T14:06:45Z</time>
      </trkpt>
      <trkpt lat="45.76632" lon="5.184">
        <ele>214.6</ele>
        <time>2024-09-19T14:06:46Z</time>
      </trkpt>
      <trkpt lat="45.76633" lon="5.18392">
        <ele>214.6</ele>
        <time>2024-09-19T14:06:47Z</time>
      </trkpt>
      <trkpt lat="45.76633" lon="5.18384">
        <ele>214.6</ele>
        <time>2024-09-19T14:06:48Z</time>
      </trkpt>
      <trkpt lat="45.76632" lon="5.18376">
        <ele>214.6</ele>
        <time>2024-09-19T14:06:49Z</time>
      </trkpt>
      <trkpt lat="45.76632" lon="5.18369">
        <ele>214.6</ele>
        <time>2024-09-19T14:06:50Z</time>
      </trkpt>
      <trkpt lat="45.7663" lon="5.18361">
        <ele>214.8</ele>
        <time>2024-09-19T14:06:51Z</time>
      </trkpt>
      <trkpt lat="45.7663" lon="5.18354">
        <ele>214.8</ele>
        <time>2024-09-19T14:06:52Z</time>
        <extensions>
          <visugpx:TrkExtension xmlns:visugpx="https://www.visugpx.com/editgpx/">
            <visugpx:node>1</visugpx:node>
            </visugpx:TrkExtension>
        </extensions>
      </trkpt>
      <trkpt lat="45.76615" lon="5.18256">
        <ele>195</ele>
        <extensions>
          <visugpx:TrkExtension xmlns:visugpx="https://www.visugpx.com/editgpx/">
            <visugpx:node>2</visugpx:node>
            </visugpx:TrkExtension>
        </extensions>
      </trkpt>
      <trkpt lat="45.76593" lon="5.18165">
        <ele>195.7</ele>
      </trkpt>
      <trkpt lat="45.76583" lon="5.18149">
        <ele>196</ele>
      </trkpt>
      <trkpt lat="45.76557" lon="5.18119">
        <ele>195.7</ele>
      </trkpt>
      <trkpt lat="45.76554" lon="5.18114">
        <ele>195.9</ele>
      </trkpt>
      <trkpt lat="45.76536" lon="5.18099">
        <ele>196</ele>
      </trkpt>
      <trkpt lat="45.76572" lon="5.1801">
        <ele>197.4</ele>
      </trkpt>
      <trkpt lat="45.76581" lon="5.17988">
        <ele>198.4</ele>
      </trkpt>
      <trkpt lat="45.76602" lon="5.17946">
        <ele>201.6</ele>
      </trkpt>
      <trkpt lat="45.76567" lon="5.17883">
        <ele>203.1</ele>
      </trkpt>
      <trkpt lat="45.76533" lon="5.1787">
        <ele>203.4</ele>
      </trkpt>
      <trkpt lat="45.76511" lon="5.1787">
        <ele>204.3</ele>
      </trkpt>
      <trkpt lat="45.76508" lon="5.17844">
        <ele>205.2</ele>
      </trkpt>
      <trkpt lat="45.76509" lon="5.17831">
        <ele>205.8</ele>
      </trkpt>
      <trkpt lat="45.76529" lon="5.17786">
        <ele>209</ele>
      </trkpt>
      <trkpt lat="45.76537" lon="5.17763">
        <ele>211</ele>
      </trkpt>
      <trkpt lat="45.76539" lon="5.17735">
        <ele>215.3</ele>
      </trkpt>
      <trkpt lat="45.76538" lon="5.17724">
        <ele>217.2</ele>
      </trkpt>
      <trkpt lat="45.76535" lon="5.17703">
        <ele>219</ele>
      </trkpt>
      <trkpt lat="45.76506" lon="5.17605">
        <ele>224</ele>
      </trkpt>
      <trkpt lat="45.76481" lon="5.17478">
        <ele>221.5</ele>
      </trkpt>
      <trkpt lat="45.76477" lon="5.17456">
        <ele>221.2</ele>
      </trkpt>
      <trkpt lat="45.76477" lon="5.17394">
        <ele>220.3</ele>
      </trkpt>
      <trkpt lat="45.76473" lon="5.17358">
        <ele>220.2</ele>
      </trkpt>
      <trkpt lat="45.76446" lon="5.17278">
        <ele>218.1</ele>
      </trkpt>
      <trkpt lat="45.76422" lon="5.17217">
        <ele>217</ele>
      </trkpt>
      <trkpt lat="45.76401" lon="5.17151">
        <ele>215.4</ele>
      </trkpt>
      <trkpt lat="45.76345" lon="5.16949">
        <ele>213.4</ele>
      </trkpt>
      <trkpt lat="45.76321" lon="5.1688">
        <ele>212.6</ele>
      </trkpt>
      <trkpt lat="45.76316" lon="5.16859">
        <ele>212.3</ele>
      </trkpt>
      <trkpt lat="45.76315" lon="5.16856">
        <ele>212.2</ele>
        <extensions>
          <visugpx:TrkExtension xmlns:visugpx="https://www.visugpx.com/editgpx/">
            <visugpx:node>3</visugpx:node>
            </visugpx:TrkExtension>
        </extensions>
      </trkpt>
      <trkpt lat="45.76312" lon="5.16838">
        <ele>211.6</ele>
      </trkpt>
      <trkpt lat="45.76311" lon="5.16811">
        <ele>211.4</ele>
      </trkpt>
      <trkpt lat="45.76312" lon="5.16774">
        <ele>211.5</ele>
      </trkpt>
      <trkpt lat="45.76277" lon="5.16699">
        <ele>209.2</ele>
      </trkpt>
      <trkpt lat="45.76242" lon="5.16599">
        <ele>209.6</ele>
      </trkpt>
      <trkpt lat="45.76222" lon="5.16556">
        <ele>210</ele>
      </trkpt>
      <trkpt lat="45.76282" lon="5.16406">
        <ele>209.2</ele>
      </trkpt>
      <trkpt lat="45.7629" lon="5.16357">
        <ele>208.8</ele>
      </trkpt>
      <trkpt lat="45.76336" lon="5.16172">
        <ele>209.1</ele>
      </trkpt>
      <trkpt lat="45.76376" lon="5.16198">
        <ele>211.7</ele>
      </trkpt>
      <trkpt lat="45.76385" lon="5.16179">
        <ele>212.1</ele>
      </trkpt>
      <trkpt lat="45.76499" lon="5.15939">
        <ele>212.5</ele>
      </trkpt>
      <trkpt lat="45.76501" lon="5.15936">
        <ele>212.5</ele>
        <extensions>
          <visugpx:TrkExtension xmlns:visugpx="https://www.visugpx.com/editgpx/">
            <visugpx:node>4</visugpx:node>
            </visugpx:TrkExtension>
        </extensions>
      </trkpt>
      <trkpt lat="45.76515" lon="5.15908">
        <ele>211.6</ele>
      </trkpt>
      <trkpt lat="45.7653" lon="5.15888">
        <ele>211.1</ele>
      </trkpt>
      <trkpt lat="45.76659" lon="5.15757">
        <ele>209.2</ele>
      </trkpt>
      <trkpt lat="45.76704" lon="5.15792">
        <ele>213</ele>
      </trkpt>
      <trkpt lat="45.7671" lon="5.15795">
        <ele>213.1</ele>
      </trkpt>
      <trkpt lat="45.7676" lon="5.15763">
        <ele>213.7</ele>
      </trkpt>
      <trkpt lat="45.76776" lon="5.15754">
        <ele>213.9</ele>
      </trkpt>
      <trkpt lat="45.76819" lon="5.15736">
        <ele>212.7</ele>
      </trkpt>
      <trkpt lat="45.76894" lon="5.15711">
        <ele>211.9</ele>
      </trkpt>
      <trkpt lat="45.76947" lon="5.1569">
        <ele>211.5</ele>
      </trkpt>
      <trkpt lat="45.76958" lon="5.15688">
        <ele>211.5</ele>
      </trkpt>
      <trkpt lat="45.7696" lon="5.15681">
        <ele>211.1</ele>
      </trkpt>
      <trkpt lat="45.76967" lon="5.15671">
        <ele>210.8</ele>
      </trkpt>
      <trkpt lat="45.76996" lon="5.15653">
        <ele>210.4</ele>
      </trkpt>
      <trkpt lat="45.77112" lon="5.15596">
        <ele>210.4</ele>
      </trkpt>
      <trkpt lat="45.77132" lon="5.15587">
        <ele>210.7</ele>
      </trkpt>
      <trkpt lat="45.77199" lon="5.15585">
        <ele>211.9</ele>
      </trkpt>
      <trkpt lat="45.77251" lon="5.15592">
        <ele>210.3</ele>
      </trkpt>
      <trkpt lat="45.77286" lon="5.15608">
        <ele>210</ele>
      </trkpt>
      <trkpt lat="45.77362" lon="5.15649">
        <ele>210</ele>
      </trkpt>
      <trkpt lat="45.7737" lon="5.15531">
        <ele>209</ele>
      </trkpt>
      <trkpt lat="45.77372" lon="5.15461">
        <ele>208</ele>
      </trkpt>
      <trkpt lat="45.77364" lon="5.15383">
        <ele>207.2</ele>
      </trkpt>
      <trkpt lat="45.77369" lon="5.1533">
        <ele>208.7</ele>
      </trkpt>
      <trkpt lat="45.77382" lon="5.15272">
        <ele>211.3</ele>
      </trkpt>
      <trkpt lat="45.77405" lon="5.15278">
        <ele>212.1</ele>
      </trkpt>
      <trkpt lat="45.77412" lon="5.15274">
        <ele>212.6</ele>
      </trkpt>
      <trkpt lat="45.77511" lon="5.14984">
        <ele>216.4</ele>
      </trkpt>
      <trkpt lat="45.77528" lon="5.14944">
        <ele>217</ele>
      </trkpt>
      <trkpt lat="45.77547" lon="5.14914">
        <ele>218.3</ele>
      </trkpt>
      <trkpt lat="45.77586" lon="5.14871">
        <ele>218.5</ele>
      </trkpt>
      <trkpt lat="45.77605" lon="5.14856">
        <ele>218.8</ele>
      </trkpt>
      <trkpt lat="45.77614" lon="5.14858">
        <ele>219.2</ele>
      </trkpt>
      <trkpt lat="45.77625" lon="5.14851">
        <ele>219.6</ele>
      </trkpt>
      <trkpt lat="45.77659" lon="5.148">
        <ele>219.5</ele>
      </trkpt>
      <trkpt lat="45.77696" lon="5.14731">
        <ele>220.1</ele>
      </trkpt>
      <trkpt lat="45.77722" lon="5.14714">
        <ele>220.7</ele>
      </trkpt>
      <trkpt lat="45.77739" lon="5.14689">
        <ele>221.2</ele>
      </trkpt>
      <trkpt lat="45.77749" lon="5.14661">
        <ele>221.2</ele>
      </trkpt>
      <trkpt lat="45.77756" lon="5.14615">
        <ele>222</ele>
      </trkpt>
      <trkpt lat="45.77751" lon="5.1457">
        <ele>223.5</ele>
      </trkpt>
      <trkpt lat="45.77722" lon="5.14455">
        <ele>227.6</ele>
      </trkpt>
      <trkpt lat="45.77695" lon="5.14389">
        <ele>231</ele>
      </trkpt>
      <trkpt lat="45.77687" lon="5.14283">
        <ele>233.3</ele>
      </trkpt>
      <trkpt lat="45.77677" lon="5.142">
        <ele>238.1</ele>
      </trkpt>
      <trkpt lat="45.77681" lon="5.14122">
        <ele>238.9</ele>
      </trkpt>
      <trkpt lat="45.77705" lon="5.14067">
        <ele>237.8</ele>
      </trkpt>
      <trkpt lat="45.77748" lon="5.14022">
        <ele>238.6</ele>
      </trkpt>
      <trkpt lat="45.77755" lon="5.14009">
        <ele>238.7</ele>
      </trkpt>
      <trkpt lat="45.77757" lon="5.13968">
        <ele>237.7</ele>
      </trkpt>
      <trkpt lat="45.77756" lon="5.13927">
        <ele>236</ele>
      </trkpt>
      <trkpt lat="45.77751" lon="5.13878">
        <ele>233.6</ele>
      </trkpt>
      <trkpt lat="45.7775" lon="5.13855">
        <ele>232.8</ele>
      </trkpt>
      <trkpt lat="45.77754" lon="5.13838">
        <ele>232.2</ele>
      </trkpt>
      <trkpt lat="45.7776" lon="5.13823">
        <ele>232</ele>
      </trkpt>
      <trkpt lat="45.77786" lon="5.13787">
        <ele>231.8</ele>
      </trkpt>
      <trkpt lat="45.77841" lon="5.13688">
        <ele>230</ele>
      </trkpt>
      <trkpt lat="45.77848" lon="5.1367">
        <ele>230</ele>
      </trkpt>
      <trkpt lat="45.77852" lon="5.13649">
        <ele>230</ele>
      </trkpt>
      <trkpt lat="45.77852" lon="5.13633">
        <ele>230</ele>
        <extensions>
          <visugpx:TrkExtension xmlns:visugpx="https://www.visugpx.com/editgpx/">
            <visugpx:node>5</visugpx:node>
            </visugpx:TrkExtension>
        </extensions>
      </trkpt>
      <trkpt lat="45.77852" lon="5.13623">
        <ele>230</ele>
      </trkpt>
      <trkpt lat="45.77844" lon="5.13469">
        <ele>231</ele>
      </trkpt>
      <trkpt lat="45.77847" lon="5.1344">
        <ele>231</ele>
      </trkpt>
      <trkpt lat="45.77879" lon="5.13353">
        <ele>229.1</ele>
      </trkpt>
      <trkpt lat="45.77934" lon="5.1335">
        <ele>227.7</ele>
      </trkpt>
      <trkpt lat="45.77933" lon="5.13336">
        <ele>229.1</ele>
      </trkpt>
      <trkpt lat="45.77931" lon="5.13316">
        <ele>227.9</ele>
      </trkpt>
      <trkpt lat="45.7793" lon="5.13286">
        <ele>226.7</ele>
      </trkpt>
      <trkpt lat="45.77999" lon="5.13201">
        <ele>225.2</ele>
      </trkpt>
      <trkpt lat="45.78036" lon="5.13034">
        <ele>225.3</ele>
      </trkpt>
      <trkpt lat="45.78041" lon="5.13">
        <ele>226</ele>
      </trkpt>
      <trkpt lat="45.78042" lon="5.12982">
        <ele>226.3</ele>
      </trkpt>
      <trkpt lat="45.78038" lon="5.12867">
        <ele>226.6</ele>
      </trkpt>
      <trkpt lat="45.78405" lon="5.12779">
        <ele>219.4</ele>
      </trkpt>
      <trkpt lat="45.78387" lon="5.12627">
        <ele>220</ele>
      </trkpt>
      <trkpt lat="45.78383" lon="5.12612">
        <ele>219.8</ele>
        <extensions>
          <visugpx:TrkExtension xmlns:visugpx="https://www.visugpx.com/editgpx/">
            <visugpx:node>6</visugpx:node>
            </visugpx:TrkExtension>
        </extensions>
      </trkpt>
      <trkpt lat="45.7838" lon="5.126">
        <ele>219.7</ele>
      </trkpt>
      <trkpt lat="45.78346" lon="5.12548">
        <ele>219.1</ele>
      </trkpt>
      <trkpt lat="45.78339" lon="5.12529">
        <ele>219.8</ele>
      </trkpt>
      <trkpt lat="45.78336" lon="5.12521">
        <ele>219.9</ele>
      </trkpt>
      <trkpt lat="45.783" lon="5.12288">
        <ele>224.9</ele>
      </trkpt>
      <trkpt lat="45.78299" lon="5.12226">
        <ele>224.2</ele>
      </trkpt>
      <trkpt lat="45.78309" lon="5.12037">
        <ele>229</ele>
      </trkpt>
      <trkpt lat="45.78312" lon="5.11984">
        <ele>229.1</ele>
      </trkpt>
      <trkpt lat="45.78292" lon="5.11708">
        <ele>230</ele>
      </trkpt>
      <trkpt lat="45.78282" lon="5.11635">
        <ele>227.7</ele>
      </trkpt>
      <trkpt lat="45.78275" lon="5.11595">
        <ele>225.5</ele>
      </trkpt>
      <trkpt lat="45.78278" lon="5.11507">
        <ele>223.2</ele>
      </trkpt>
      <trkpt lat="45.78281" lon="5.11291">
        <ele>219</ele>
      </trkpt>
      <trkpt lat="45.78283" lon="5.11274">
        <ele>219</ele>
      </trkpt>
      <trkpt lat="45.78292" lon="5.11267">
        <ele>219</ele>
      </trkpt>
      <trkpt lat="45.78341" lon="5.11256">
        <ele>219</ele>
      </trkpt>
      <trkpt lat="45.78363" lon="5.11246">
        <ele>218.9</ele>
      </trkpt>
      <trkpt lat="45.7838" lon="5.11232">
        <ele>218.8</ele>
      </trkpt>
      <trkpt lat="45.78387" lon="5.11214">
        <ele>218.9</ele>
      </trkpt>
      <trkpt lat="45.78387" lon="5.11199">
        <ele>218.9</ele>
        <extensions>
          <visugpx:TrkExtension xmlns:visugpx="https://www.visugpx.com/editgpx/">
            <visugpx:node>7</visugpx:node>
            </visugpx:TrkExtension>
        </extensions>
      </trkpt>
      <trkpt lat="45.78388" lon="5.11112">
        <ele>219.9</ele>
      </trkpt>
      <trkpt lat="45.78393" lon="5.11011">
        <ele>219.2</ele>
      </trkpt>
      <trkpt lat="45.78396" lon="5.10994">
        <ele>219.6</ele>
      </trkpt>
      <trkpt lat="45.7826" lon="5.10886">
        <ele>224.9</ele>
      </trkpt>
      <trkpt lat="45.78266" lon="5.10869">
        <ele>225.7</ele>
      </trkpt>
      <trkpt lat="45.78284" lon="5.10835">
        <ele>226</ele>
      </trkpt>
      <trkpt lat="45.78291" lon="5.1081">
        <ele>226.4</ele>
      </trkpt>
      <trkpt lat="45.78299" lon="5.1077">
        <ele>227.2</ele>
      </trkpt>
      <trkpt lat="45.78306" lon="5.10724">
        <ele>227.9</ele>
      </trkpt>
      <trkpt lat="45.78337" lon="5.10663">
        <ele>225.6</ele>
        <extensions>
          <visugpx:TrkExtension xmlns:visugpx="https://www.visugpx.com/editgpx/">
            <visugpx:node>8</visugpx:node>
            </visugpx:TrkExtension>
        </extensions>
      </trkpt>
      <trkpt lat="45.78347" lon="5.10645">
        <ele>224.8</ele>
      </trkpt>
      <trkpt lat="45.78376" lon="5.10601">
        <ele>222.6</ele>
      </trkpt>
      <trkpt lat="45.7842" lon="5.10579">
        <ele>221</ele>
      </trkpt>
      <trkpt lat="45.7849" lon="5.10535">
        <ele>216.7</ele>
      </trkpt>
      <trkpt lat="45.78515" lon="5.1048">
        <ele>213.7</ele>
      </trkpt>
      <trkpt lat="45.78525" lon="5.10449">
        <ele>213</ele>
      </trkpt>
      <trkpt lat="45.78531" lon="5.10416">
        <ele>212.8</ele>
      </trkpt>
      <trkpt lat="45.78533" lon="5.10384">
        <ele>212.7</ele>
      </trkpt>
      <trkpt lat="45.78539" lon="5.10357">
        <ele>212.7</ele>
      </trkpt>
      <trkpt lat="45.78599" lon="5.10199">
        <ele>218.3</ele>
      </trkpt>
      <trkpt lat="45.78592" lon="5.10153">
        <ele>219.8</ele>
      </trkpt>
      <trkpt lat="45.78591" lon="5.10134">
        <ele>220.5</ele>
      </trkpt>
      <trkpt lat="45.78795" lon="5.10212">
        <ele>208</ele>
      </trkpt>
      <trkpt lat="45.7889" lon="5.10241">
        <ele>207.3</ele>
      </trkpt>
      <trkpt lat="45.78962" lon="5.1025">
        <ele>206.4</ele>
      </trkpt>
      <trkpt lat="45.79042" lon="5.10025">
        <ele>210</ele>
      </trkpt>
      <trkpt lat="45.79046" lon="5.09972">
        <ele>209.7</ele>
        <extensions>
          <visugpx:TrkExtension xmlns:visugpx="https://www.visugpx.com/editgpx/">
            <visugpx:node>9</visugpx:node>
            </visugpx:TrkExtension>
        </extensions>
      </trkpt>
      <trkpt lat="45.79052" lon="5.0989">
        <ele>208.3</ele>
      </trkpt>
      <trkpt lat="45.79064" lon="5.09771">
        <ele>206</ele>
      </trkpt>
      <trkpt lat="45.79068" lon="5.0967">
        <ele>207</ele>
      </trkpt>
      <trkpt lat="45.79092" lon="5.09519">
        <ele>208.5</ele>
      </trkpt>
      <trkpt lat="45.79094" lon="5.09459">
        <ele>210.5</ele>
      </trkpt>
      <trkpt lat="45.79104" lon="5.09393">
        <ele>212.1</ele>
      </trkpt>
      <trkpt lat="45.79144" lon="5.09278">
        <ele>210.8</ele>
      </trkpt>
      <trkpt lat="45.79169" lon="5.09223">
        <ele>208.9</ele>
      </trkpt>
      <trkpt lat="45.79203" lon="5.09188">
        <ele>207.5</ele>
      </trkpt>
      <trkpt lat="45.79222" lon="5.0915">
        <ele>207</ele>
      </trkpt>
      <trkpt lat="45.79226" lon="5.09134">
        <ele>207.2</ele>
      </trkpt>
      <trkpt lat="45.79236" lon="5.09129">
        <ele>207.4</ele>
      </trkpt>
      <trkpt lat="45.79368" lon="5.09028">
        <ele>212</ele>
      </trkpt>
      <trkpt lat="45.79405" lon="5.08992">
        <ele>213.9</ele>
      </trkpt>
      <trkpt lat="45.79524" lon="5.08898">
        <ele>208.2</ele>
      </trkpt>
      <trkpt lat="45.79592" lon="5.0881">
        <ele>205.2</ele>
      </trkpt>
      <trkpt lat="45.79708" lon="5.08726">
        <ele>205.6</ele>
      </trkpt>
      <trkpt lat="45.79757" lon="5.08707">
        <ele>206.6</ele>
      </trkpt>
      <trkpt lat="45.79796" lon="5.08702">
        <ele>206.5</ele>
      </trkpt>
      <trkpt lat="45.79818" lon="5.08695">
        <ele>206.5</ele>
        <extensions>
          <visugpx:TrkExtension xmlns:visugpx="https://www.visugpx.com/editgpx/">
            <visugpx:node>10</visugpx:node>
            </visugpx:TrkExtension>
        </extensions>
      </trkpt>
      <trkpt lat="45.79867" lon="5.08679">
        <ele>206</ele>
      </trkpt>
      <trkpt lat="45.79883" lon="5.08669">
        <ele>206.1</ele>
      </trkpt>
      <trkpt lat="45.79886" lon="5.0865">
        <ele>206.2</ele>
      </trkpt>
      <trkpt lat="45.7991" lon="5.0857">
        <ele>203</ele>
      </trkpt>
      <trkpt lat="45.79916" lon="5.08541">
        <ele>202</ele>
      </trkpt>
      <trkpt lat="45.79928" lon="5.08524">
        <ele>201.6</ele>
      </trkpt>
      <trkpt lat="45.79955" lon="5.08497">
        <ele>200.3</ele>
      </trkpt>
      <trkpt lat="45.7998" lon="5.08461">
        <ele>200.3</ele>
      </trkpt>
      <trkpt lat="45.80008" lon="5.08453">
        <ele>201.2</ele>
      </trkpt>
      <trkpt lat="45.80033" lon="5.08445">
        <ele>202.2</ele>
      </trkpt>
      <trkpt lat="45.80073" lon="5.08433">
        <ele>203.6</ele>
      </trkpt>
      <trkpt lat="45.80083" lon="5.08431">
        <ele>204</ele>
      </trkpt>
      <trkpt lat="45.80086" lon="5.08436">
        <ele>204.1</ele>
      </trkpt>
      <trkpt lat="45.8009" lon="5.08438">
        <ele>204.2</ele>
      </trkpt>
      <trkpt lat="45.80094" lon="5.08436">
        <ele>204.4</ele>
      </trkpt>
      <trkpt lat="45.80096" lon="5.08431">
        <ele>204.5</ele>
      </trkpt>
      <trkpt lat="45.80095" lon="5.08422">
        <ele>204.4</ele>
      </trkpt>
      <trkpt lat="45.80101" lon="5.08413">
        <ele>204.6</ele>
      </trkpt>
      <trkpt lat="45.80105" lon="5.08429">
        <ele>204.8</ele>
      </trkpt>
      <trkpt lat="45.80104" lon="5.08453">
        <ele>204.4</ele>
      </trkpt>
      <trkpt lat="45.80124" lon="5.08466">
        <ele>204.6</ele>
      </trkpt>
      <trkpt lat="45.80197" lon="5.08512">
        <ele>204</ele>
      </trkpt>
      <trkpt lat="45.80198" lon="5.08514">
        <ele>204</ele>
        <extensions>
          <visugpx:TrkExtension xmlns:visugpx="https://www.visugpx.com/editgpx/">
            <visugpx:node>11</visugpx:node>
            </visugpx:TrkExtension>
        </extensions>
      </trkpt>
      <trkpt lat="45.80211" lon="5.08528">
        <ele>204</ele>
      </trkpt>
      <trkpt lat="45.80223" lon="5.08543">
        <ele>204.6</ele>
      </trkpt>
      <trkpt lat="45.80284" lon="5.08659">
        <ele>209.6</ele>
      </trkpt>
      <trkpt lat="45.80304" lon="5.08685">
        <ele>211.5</ele>
      </trkpt>
      <trkpt lat="45.80312" lon="5.08679">
        <ele>211.9</ele>
      </trkpt>
      <trkpt lat="45.80392" lon="5.08534">
        <ele>214.1</ele>
      </trkpt>
      <trkpt lat="45.8042" lon="5.08491">
        <ele>215.2</ele>
      </trkpt>
      <trkpt lat="45.80436" lon="5.08472">
        <ele>216.4</ele>
      </trkpt>
      <trkpt lat="45.80469" lon="5.08446">
        <ele>217.9</ele>
      </trkpt>
      <trkpt lat="45.80631" lon="5.0833">
        <ele>217</ele>
        <extensions>
          <visugpx:TrkExtension xmlns:visugpx="https://www.visugpx.com/editgpx/">
            <visugpx:node>12</visugpx:node>
            </visugpx:TrkExtension>
        </extensions>
      </trkpt>
      <trkpt lat="45.80691" lon="5.08287">
        <ele>217.9</ele>
      </trkpt>
      <trkpt lat="45.80712" lon="5.08346">
        <ele>216.5</ele>
      </trkpt>
      <trkpt lat="45.80734" lon="5.08416">
        <ele>208.6</ele>
      </trkpt>
      <trkpt lat="45.80751" lon="5.08468">
        <ele>208.8</ele>
        <extensions>
          <visugpx:TrkExtension xmlns:visugpx="https://www.visugpx.com/editgpx/">
            <visugpx:node>13</visugpx:node>
            </visugpx:TrkExtension>
        </extensions>
      </trkpt>
      <trkpt lat="45.80752" lon="5.08472">
        <ele>208.9</ele>
      </trkpt>
      <trkpt lat="45.80764" lon="5.08497">
        <ele>209.4</ele>
      </trkpt>
      <trkpt lat="45.80791" lon="5.08549">
        <ele>216.6</ele>
      </trkpt>
      <trkpt lat="45.80801" lon="5.08587">
        <ele>221.1</ele>
      </trkpt>
      <trkpt lat="45.80826" lon="5.08723">
        <ele>229.3</ele>
      </trkpt>
      <trkpt lat="45.80827" lon="5.08733">
        <ele>229.3</ele>
      </trkpt>
      <trkpt lat="45.80828" lon="5.08748">
        <ele>229.4</ele>
      </trkpt>
      <trkpt lat="45.80826" lon="5.08762">
        <ele>229.5</ele>
      </trkpt>
      <trkpt lat="45.80806" lon="5.08852">
        <ele>229.3</ele>
      </trkpt>
      <trkpt lat="45.80801" lon="5.08869">
        <ele>229</ele>
      </trkpt>
      <trkpt lat="45.80796" lon="5.0888">
        <ele>228.8</ele>
      </trkpt>
      <trkpt lat="45.80806" lon="5.08878">
        <ele>228.3</ele>
      </trkpt>
      <trkpt lat="45.80824" lon="5.08885">
        <ele>226.1</ele>
        <extensions>
          <visugpx:TrkExtension xmlns:visugpx="https://www.visugpx.com/editgpx/">
            <visugpx:node>14</visugpx:node>
            </visugpx:TrkExtension>
        </extensions>
      </trkpt>
      <trkpt lat="45.80845" lon="5.08894">
        <ele>224.2</ele>
      </trkpt>
      <trkpt lat="45.80879" lon="5.08911">
        <ele>221.6</ele>
      </trkpt>
      <trkpt lat="45.80896" lon="5.08919">
        <ele>220.9</ele>
      </trkpt>
      <trkpt lat="45.80948" lon="5.08925">
        <ele>216.1</ele>
      </trkpt>
      <trkpt lat="45.80959" lon="5.0893">
        <ele>213.9</ele>
      </trkpt>
      <trkpt lat="45.80974" lon="5.08952">
        <ele>210.6</ele>
      </trkpt>
      <trkpt lat="45.80986" lon="5.08974">
        <ele>207.7</ele>
      </trkpt>
      <trkpt lat="45.80987" lon="5.08975">
        <ele>207.4</ele>
        <extensions>
          <visugpx:TrkExtension xmlns:visugpx="https://www.visugpx.com/editgpx/">
            <visugpx:node>15</visugpx:node>
            </visugpx:TrkExtension>
        </extensions>
      </trkpt>
      <trkpt lat="45.80994" lon="5.08987">
        <ele>229.2</ele>
        <time>2024-09-19T15:30:35Z</time>
      </trkpt>
      <trkpt lat="45.80996" lon="5.08982">
        <ele>228.8</ele>
        <time>2024-09-19T15:30:36Z</time>
      </trkpt>
      <trkpt lat="45.80998" lon="5.08976">
        <ele>228</ele>
        <time>2024-09-19T15:30:37Z</time>
      </trkpt>
      <trkpt lat="45.81" lon="5.0897">
        <ele>227.4</ele>
        <time>2024-09-19T15:30:38Z</time>
      </trkpt>
      <trkpt lat="45.81002" lon="5.08964">
        <ele>226.6</ele>
        <time>2024-09-19T15:30:39Z</time>
      </trkpt>
      <trkpt lat="45.81005" lon="5.08957">
        <ele>225.8</ele>
        <time>2024-09-19T15:30:40Z</time>
      </trkpt>
      <trkpt lat="45.81007" lon="5.08951">
        <ele>225.2</ele>
        <time>2024-09-19T15:30:41Z</time>
      </trkpt>
      <trkpt lat="45.8101" lon="5.08943">
        <ele>224.2</ele>
        <time>2024-09-19T15:30:42Z</time>
      </trkpt>
      <trkpt lat="45.81012" lon="5.08935">
        <ele>223.4</ele>
        <time>2024-09-19T15:30:43Z</time>
      </trkpt>
      <trkpt lat="45.81014" lon="5.08928">
        <ele>222.6</ele>
        <time>2024-09-19T15:30:44Z</time>
      </trkpt>
      <trkpt lat="45.81016" lon="5.08922">
        <ele>222</ele>
        <time>2024-09-19T15:30:45Z</time>
      </trkpt>
      <trkpt lat="45.81017" lon="5.08916">
        <ele>221.6</ele>
        <time>2024-09-19T15:30:46Z</time>
      </trkpt>
      <trkpt lat="45.81019" lon="5.08913">
        <ele>221.4</ele>
        <time>2024-09-19T15:30:47Z</time>
      </trkpt>
      <trkpt lat="45.8102" lon="5.0891">
        <ele>221.4</ele>
        <time>2024-09-19T15:30:48Z</time>
      </trkpt>
      <trkpt lat="45.8102" lon="5.08909">
        <ele>221</ele>
        <time>2024-09-19T15:30:49Z</time>
      </trkpt>
      <trkpt lat="45.81021" lon="5.08907">
        <ele>221</ele>
        <time>2024-09-19T15:30:50Z</time>
      </trkpt>
      <trkpt lat="45.81021" lon="5.08906">
        <ele>220.6</ele>
        <time>2024-09-19T15:30:51Z</time>
      </trkpt>
      <trkpt lat="45.81021" lon="5.08904">
        <ele>220.6</ele>
        <time>2024-09-19T15:30:52Z</time>
      </trkpt>
      <trkpt lat="45.81022" lon="5.08902">
        <ele>220.2</ele>
        <time>2024-09-19T15:30:53Z</time>
      </trkpt>
      <trkpt lat="45.81022" lon="5.08902">
        <ele>220.2</ele>
        <time>2024-09-19T15:30:54Z</time>
      </trkpt>
      <trkpt lat="45.81021" lon="5.08899">
        <ele>219.8</ele>
        <time>2024-09-19T15:30:55Z</time>
      </trkpt>
      <trkpt lat="45.81024" lon="5.08895">
        <ele>219.4</ele>
        <time>2024-09-19T15:30:56Z</time>
      </trkpt>
      <trkpt lat="45.81027" lon="5.08893">
        <ele>219.2</ele>
        <time>2024-09-19T15:30:57Z</time>
      </trkpt>
      <trkpt lat="45.81031" lon="5.08895">
        <ele>219</ele>
        <time>2024-09-19T15:30:58Z</time>
      </trkpt>
      <trkpt lat="45.81035" lon="5.08897">
        <ele>218.4</ele>
        <time>2024-09-19T15:30:59Z</time>
      </trkpt>
      <trkpt lat="45.8104" lon="5.08898">
        <ele>218</ele>
        <time>2024-09-19T15:31:00Z</time>
      </trkpt>
      <trkpt lat="45.81045" lon="5.089">
        <ele>217.4</ele>
        <time>2024-09-19T15:31:01Z</time>
      </trkpt>
      <trkpt lat="45.81051" lon="5.08901">
        <ele>217</ele>
        <time>2024-09-19T15:31:02Z</time>
      </trkpt>
      <trkpt lat="45.81058" lon="5.08901">
        <ele>216.6</ele>
        <time>2024-09-19T15:31:03Z</time>
      </trkpt>
      <trkpt lat="45.81065" lon="5.08902">
        <ele>216.4</ele>
        <time>2024-09-19T15:31:04Z</time>
      </trkpt>
      <trkpt lat="45.81071" lon="5.08901">
        <ele>216.2</ele>
        <time>2024-09-19T15:31:05Z</time>
      </trkpt>
      <trkpt lat="45.81077" lon="5.08901">
        <ele>215.8</ele>
        <time>2024-09-19T15:31:06Z</time>
      </trkpt>
      <trkpt lat="45.81084" lon="5.08902">
        <ele>215.8</ele>
        <time>2024-09-19T15:31:07Z</time>
      </trkpt>
      <trkpt lat="45.81091" lon="5.08901">
        <ele>215.4</ele>
        <time>2024-09-19T15:31:08Z</time>
      </trkpt>
      <trkpt lat="45.81098" lon="5.08901">
        <ele>215.4</ele>
        <time>2024-09-19T15:31:09Z</time>
      </trkpt>
      <trkpt lat="45.81113" lon="5.08902">
        <ele>215.2</ele>
        <time>2024-09-19T15:31:10Z</time>
      </trkpt>
      <trkpt lat="45.81121" lon="5.08903">
        <ele>215.2</ele>
        <time>2024-09-19T15:31:11Z</time>
      </trkpt>
      <trkpt lat="45.81129" lon="5.08903">
        <ele>214.8</ele>
        <time>2024-09-19T15:31:12Z</time>
      </trkpt>
      <trkpt lat="45.81137" lon="5.08904">
        <ele>214.4</ele>
        <time>2024-09-19T15:31:13Z</time>
      </trkpt>
      <trkpt lat="45.81145" lon="5.08904">
        <ele>214.4</ele>
        <time>2024-09-19T15:31:14Z</time>
      </trkpt>
      <trkpt lat="45.81153" lon="5.08905">
        <ele>214.2</ele>
        <time>2024-09-19T15:31:15Z</time>
      </trkpt>
      <trkpt lat="45.8116" lon="5.08905">
        <ele>214</ele>
        <time>2024-09-19T15:31:16Z</time>
      </trkpt>
      <trkpt lat="45.81168" lon="5.08905">
        <ele>213.6</ele>
        <time>2024-09-19T15:31:17Z</time>
      </trkpt>
      <trkpt lat="45.81176" lon="5.08905">
        <ele>213.4</ele>
        <time>2024-09-19T15:31:18Z</time>
      </trkpt>
      <trkpt lat="45.81184" lon="5.08906">
        <ele>213.4</ele>
        <time>2024-09-19T15:31:19Z</time>
      </trkpt>
      <trkpt lat="45.81192" lon="5.08906">
        <ele>213.4</ele>
        <time>2024-09-19T15:31:20Z</time>
      </trkpt>
      <trkpt lat="45.81199" lon="5.08906">
        <ele>213.6</ele>
        <time>2024-09-19T15:31:21Z</time>
      </trkpt>
      <trkpt lat="45.81207" lon="5.08906">
        <ele>213.6</ele>
        <time>2024-09-19T15:31:22Z</time>
      </trkpt>
      <trkpt lat="45.81215" lon="5.08906">
        <ele>213.6</ele>
        <time>2024-09-19T15:31:23Z</time>
      </trkpt>
      <trkpt lat="45.81223" lon="5.08907">
        <ele>213.4</ele>
        <time>2024-09-19T15:31:24Z</time>
      </trkpt>
      <trkpt lat="45.81231" lon="5.08907">
        <ele>212.8</ele>
        <time>2024-09-19T15:31:25Z</time>
      </trkpt>
      <trkpt lat="45.8124" lon="5.08907">
        <ele>212.4</ele>
        <time>2024-09-19T15:31:26Z</time>
      </trkpt>
      <trkpt lat="45.81249" lon="5.08907">
        <ele>212</ele>
        <time>2024-09-19T15:31:27Z</time>
      </trkpt>
      <trkpt lat="45.81256" lon="5.08908">
        <ele>212</ele>
        <time>2024-09-19T15:31:28Z</time>
      </trkpt>
      <trkpt lat="45.81265" lon="5.08908">
        <ele>212</ele>
        <time>2024-09-19T15:31:29Z</time>
      </trkpt>
      <trkpt lat="45.81272" lon="5.08909">
        <ele>211.8</ele>
        <time>2024-09-19T15:31:30Z</time>
      </trkpt>
      <trkpt lat="45.81279" lon="5.08911">
        <ele>211.6</ele>
        <time>2024-09-19T15:31:31Z</time>
      </trkpt>
      <trkpt lat="45.81287" lon="5.08914">
        <ele>211.6</ele>
        <time>2024-09-19T15:31:32Z</time>
      </trkpt>
      <trkpt lat="45.81294" lon="5.08918">
        <ele>211.2</ele>
        <time>2024-09-19T15:31:33Z</time>
      </trkpt>
      <trkpt lat="45.81301" lon="5.08923">
        <ele>211</ele>
        <time>2024-09-19T15:31:34Z</time>
      </trkpt>
      <trkpt lat="45.81307" lon="5.0893">
        <ele>211</ele>
        <time>2024-09-19T15:31:35Z</time>
      </trkpt>
      <trkpt lat="45.81313" lon="5.08937">
        <ele>210.8</ele>
        <time>2024-09-19T15:31:36Z</time>
      </trkpt>
      <trkpt lat="45.81318" lon="5.08947">
        <ele>210.6</ele>
        <time>2024-09-19T15:31:37Z</time>
      </trkpt>
      <trkpt lat="45.81323" lon="5.08956">
        <ele>210.6</ele>
        <time>2024-09-19T15:31:38Z</time>
      </trkpt>
      <trkpt lat="45.81328" lon="5.08966">
        <ele>210</ele>
        <time>2024-09-19T15:31:39Z</time>
      </trkpt>
      <trkpt lat="45.81333" lon="5.08976">
        <ele>209.6</ele>
        <time>2024-09-19T15:31:40Z</time>
      </trkpt>
      <trkpt lat="45.81339" lon="5.08986">
        <ele>209.2</ele>
        <time>2024-09-19T15:31:41Z</time>
      </trkpt>
      <trkpt lat="45.81344" lon="5.08995">
        <ele>209</ele>
        <time>2024-09-19T15:31:42Z</time>
      </trkpt>
      <trkpt lat="45.8135" lon="5.09005">
        <ele>208.4</ele>
        <time>2024-09-19T15:31:43Z</time>
      </trkpt>
      <trkpt lat="45.81355" lon="5.09014">
        <ele>208.2</ele>
        <time>2024-09-19T15:31:44Z</time>
      </trkpt>
      <trkpt lat="45.81361" lon="5.09024">
        <ele>207.6</ele>
        <time>2024-09-19T15:31:45Z</time>
      </trkpt>
      <trkpt lat="45.81367" lon="5.09033">
        <ele>207</ele>
        <time>2024-09-19T15:31:46Z</time>
      </trkpt>
      <trkpt lat="45.81373" lon="5.09041">
        <ele>207</ele>
        <time>2024-09-19T15:31:47Z</time>
      </trkpt>
      <trkpt lat="45.8138" lon="5.09049">
        <ele>206.4</ele>
        <time>2024-09-19T15:31:48Z</time>
      </trkpt>
      <trkpt lat="45.81387" lon="5.09057">
        <ele>205.8</ele>
        <time>2024-09-19T15:31:49Z</time>
      </trkpt>
      <trkpt lat="45.81395" lon="5.09064">
        <ele>205.4</ele>
        <time>2024-09-19T15:31:50Z</time>
      </trkpt>
      <trkpt lat="45.81402" lon="5.09071">
        <ele>204.8</ele>
        <time>2024-09-19T15:31:51Z</time>
      </trkpt>
      <trkpt lat="45.81408" lon="5.09077">
        <ele>204.6</ele>
        <time>2024-09-19T15:31:52Z</time>
      </trkpt>
      <trkpt lat="45.81415" lon="5.09084">
        <ele>204.2</ele>
        <time>2024-09-19T15:31:53Z</time>
      </trkpt>
      <trkpt lat="45.81421" lon="5.09089">
        <ele>203.8</ele>
        <time>2024-09-19T15:31:54Z</time>
      </trkpt>
      <trkpt lat="45.81428" lon="5.09096">
        <ele>203.8</ele>
        <time>2024-09-19T15:31:55Z</time>
      </trkpt>
      <trkpt lat="45.81435" lon="5.09102">
        <ele>203.4</ele>
        <time>2024-09-19T15:31:56Z</time>
      </trkpt>
      <trkpt lat="45.81441" lon="5.09108">
        <ele>203.4</ele>
        <time>2024-09-19T15:31:57Z</time>
      </trkpt>
      <trkpt lat="45.81448" lon="5.09113">
        <ele>203.8</ele>
        <time>2024-09-19T15:31:58Z</time>
      </trkpt>
      <trkpt lat="45.81455" lon="5.09117">
        <ele>203.8</ele>
        <time>2024-09-19T15:31:59Z</time>
      </trkpt>
      <trkpt lat="45.81462" lon="5.09121">
        <ele>204</ele>
        <time>2024-09-19T15:32:00Z</time>
      </trkpt>
      <trkpt lat="45.81469" lon="5.09125">
        <ele>204</ele>
        <time>2024-09-19T15:32:01Z</time>
      </trkpt>
      <trkpt lat="45.81476" lon="5.09129">
        <ele>204.2</ele>
        <time>2024-09-19T15:32:02Z</time>
      </trkpt>
      <trkpt lat="45.81483" lon="5.09132">
        <ele>204.2</ele>
        <time>2024-09-19T15:32:03Z</time>
      </trkpt>
      <trkpt lat="45.8149" lon="5.09136">
        <ele>204.2</ele>
        <time>2024-09-19T15:32:04Z</time>
      </trkpt>
      <trkpt lat="45.81496" lon="5.09138">
        <ele>204.6</ele>
        <time>2024-09-19T15:32:05Z</time>
      </trkpt>
      <trkpt lat="45.81502" lon="5.09141">
        <ele>204.6</ele>
        <time>2024-09-19T15:32:06Z</time>
      </trkpt>
      <trkpt lat="45.8151" lon="5.09145">
        <ele>204.6</ele>
        <time>2024-09-19T15:32:07Z</time>
      </trkpt>
      <trkpt lat="45.81518" lon="5.09146">
        <ele>204.6</ele>
        <time>2024-09-19T15:32:08Z</time>
      </trkpt>
      <trkpt lat="45.81525" lon="5.09145">
        <ele>204.6</ele>
        <time>2024-09-19T15:32:09Z</time>
      </trkpt>
      <trkpt lat="45.81533" lon="5.09144">
        <ele>204.6</ele>
        <time>2024-09-19T15:32:10Z</time>
      </trkpt>
      <trkpt lat="45.8154" lon="5.09141">
        <ele>204.6</ele>
        <time>2024-09-19T15:32:11Z</time>
      </trkpt>
      <trkpt lat="45.81548" lon="5.09137">
        <ele>204.6</ele>
        <time>2024-09-19T15:32:12Z</time>
      </trkpt>
      <trkpt lat="45.81555" lon="5.09133">
        <ele>204.6</ele>
        <time>2024-09-19T15:32:13Z</time>
      </trkpt>
      <trkpt lat="45.81561" lon="5.09129">
        <ele>204.6</ele>
        <time>2024-09-19T15:32:14Z</time>
      </trkpt>
      <trkpt lat="45.81568" lon="5.09126">
        <ele>204.6</ele>
        <time>2024-09-19T15:32:15Z</time>
      </trkpt>
      <trkpt lat="45.81575" lon="5.09122">
        <ele>204</ele>
        <time>2024-09-19T15:32:16Z</time>
      </trkpt>
      <trkpt lat="45.81582" lon="5.09118">
        <ele>203.4</ele>
        <time>2024-09-19T15:32:17Z</time>
      </trkpt>
      <trkpt lat="45.81589" lon="5.09114">
        <ele>203.2</ele>
        <time>2024-09-19T15:32:18Z</time>
      </trkpt>
      <trkpt lat="45.81595" lon="5.0911">
        <ele>203.2</ele>
        <time>2024-09-19T15:32:19Z</time>
      </trkpt>
      <trkpt lat="45.81602" lon="5.09106">
        <ele>203</ele>
        <time>2024-09-19T15:32:20Z</time>
      </trkpt>
      <trkpt lat="45.81609" lon="5.09102">
        <ele>203.2</ele>
        <time>2024-09-19T15:32:21Z</time>
      </trkpt>
      <trkpt lat="45.81615" lon="5.09099">
        <ele>203</ele>
        <time>2024-09-19T15:32:22Z</time>
      </trkpt>
      <trkpt lat="45.81622" lon="5.09095">
        <ele>202.8</ele>
        <time>2024-09-19T15:32:23Z</time>
      </trkpt>
      <trkpt lat="45.81628" lon="5.09091">
        <ele>202.8</ele>
        <time>2024-09-19T15:32:24Z</time>
      </trkpt>
      <trkpt lat="45.81635" lon="5.09087">
        <ele>202.8</ele>
        <time>2024-09-19T15:32:25Z</time>
      </trkpt>
      <trkpt lat="45.81641" lon="5.09083">
        <ele>202.8</ele>
        <time>2024-09-19T15:32:26Z</time>
      </trkpt>
      <trkpt lat="45.81647" lon="5.0908">
        <ele>202.8</ele>
        <time>2024-09-19T15:32:27Z</time>
      </trkpt>
      <trkpt lat="45.81654" lon="5.09077">
        <ele>202.8</ele>
        <time>2024-09-19T15:32:28Z</time>
      </trkpt>
      <trkpt lat="45.81661" lon="5.09072">
        <ele>202.8</ele>
        <time>2024-09-19T15:32:29Z</time>
      </trkpt>
      <trkpt lat="45.81667" lon="5.09068">
        <ele>202.8</ele>
        <time>2024-09-19T15:32:30Z</time>
      </trkpt>
      <trkpt lat="45.81673" lon="5.09064">
        <ele>203</ele>
        <time>2024-09-19T15:32:31Z</time>
      </trkpt>
      <trkpt lat="45.81679" lon="5.09059">
        <ele>203</ele>
        <time>2024-09-19T15:32:32Z</time>
      </trkpt>
      <trkpt lat="45.81686" lon="5.09055">
        <ele>203</ele>
        <time>2024-09-19T15:32:33Z</time>
      </trkpt>
      <trkpt lat="45.81691" lon="5.0905">
        <ele>203</ele>
        <time>2024-09-19T15:32:34Z</time>
      </trkpt>
      <trkpt lat="45.81697" lon="5.09046">
        <ele>203.4</ele>
        <time>2024-09-19T15:32:35Z</time>
      </trkpt>
      <trkpt lat="45.81702" lon="5.09042">
        <ele>203.4</ele>
        <time>2024-09-19T15:32:36Z</time>
      </trkpt>
      <trkpt lat="45.81708" lon="5.09038">
        <ele>203.4</ele>
        <time>2024-09-19T15:32:37Z</time>
      </trkpt>
      <trkpt lat="45.81713" lon="5.09036">
        <ele>203.4</ele>
        <time>2024-09-19T15:32:38Z</time>
      </trkpt>
      <trkpt lat="45.81718" lon="5.09034">
        <ele>203.6</ele>
        <time>2024-09-19T15:32:39Z</time>
      </trkpt>
      <trkpt lat="45.81723" lon="5.09034">
        <ele>203.6</ele>
        <time>2024-09-19T15:32:40Z</time>
      </trkpt>
      <trkpt lat="45.81727" lon="5.09033">
        <ele>203.6</ele>
        <time>2024-09-19T15:32:41Z</time>
      </trkpt>
      <trkpt lat="45.81731" lon="5.09031">
        <ele>204</ele>
        <time>2024-09-19T15:32:42Z</time>
      </trkpt>
      <trkpt lat="45.81735" lon="5.0903">
        <ele>204.4</ele>
        <time>2024-09-19T15:32:43Z</time>
      </trkpt>
      <trkpt lat="45.81739" lon="5.09026">
        <ele>204.4</ele>
        <time>2024-09-19T15:32:44Z</time>
      </trkpt>
      <trkpt lat="45.81743" lon="5.09025">
        <ele>205.2</ele>
        <time>2024-09-19T15:32:45Z</time>
      </trkpt>
      <trkpt lat="45.81747" lon="5.09022">
        <ele>205.2</ele>
        <time>2024-09-19T15:32:46Z</time>
      </trkpt>
      <trkpt lat="45.81751" lon="5.09019">
        <ele>205.2</ele>
        <time>2024-09-19T15:32:47Z</time>
      </trkpt>
      <trkpt lat="45.81755" lon="5.09016">
        <ele>205.2</ele>
        <time>2024-09-19T15:32:48Z</time>
      </trkpt>
      <trkpt lat="45.81759" lon="5.09013">
        <ele>205.4</ele>
        <time>2024-09-19T15:32:49Z</time>
      </trkpt>
      <trkpt lat="45.81763" lon="5.0901">
        <ele>205.4</ele>
        <time>2024-09-19T15:32:50Z</time>
      </trkpt>
      <trkpt lat="45.81768" lon="5.09008">
        <ele>205</ele>
        <time>2024-09-19T15:32:51Z</time>
      </trkpt>
      <trkpt lat="45.81773" lon="5.09006">
        <ele>205</ele>
        <time>2024-09-19T15:32:52Z</time>
      </trkpt>
      <trkpt lat="45.81777" lon="5.09003">
        <ele>205.8</ele>
        <time>2024-09-19T15:32:53Z</time>
      </trkpt>
      <trkpt lat="45.81781" lon="5.09001">
        <ele>205.6</ele>
        <time>2024-09-19T15:32:54Z</time>
      </trkpt>
      <trkpt lat="45.81784" lon="5.08998">
        <ele>205.2</ele>
        <time>2024-09-19T15:32:55Z</time>
      </trkpt>
      <trkpt lat="45.81788" lon="5.08996">
        <ele>205.2</ele>
        <time>2024-09-19T15:32:56Z</time>
      </trkpt>
      <trkpt lat="45.81791" lon="5.08994">
        <ele>205.2</ele>
        <time>2024-09-19T15:32:57Z</time>
      </trkpt>
      <trkpt lat="45.81795" lon="5.08991">
        <ele>204.8</ele>
        <time>2024-09-19T15:32:58Z</time>
      </trkpt>
      <trkpt lat="45.81799" lon="5.08989">
        <ele>205.2</ele>
        <time>2024-09-19T15:32:59Z</time>
      </trkpt>
      <trkpt lat="45.81803" lon="5.08987">
        <ele>204.4</ele>
        <time>2024-09-19T15:33:00Z</time>
      </trkpt>
      <trkpt lat="45.81808" lon="5.08984">
        <ele>204.8</ele>
        <time>2024-09-19T15:33:01Z</time>
      </trkpt>
      <trkpt lat="45.81812" lon="5.08981">
        <ele>205.4</ele>
        <time>2024-09-19T15:33:02Z</time>
      </trkpt>
      <trkpt lat="45.81816" lon="5.08979">
        <ele>205.4</ele>
        <time>2024-09-19T15:33:03Z</time>
      </trkpt>
      <trkpt lat="45.81821" lon="5.08976">
        <ele>205.6</ele>
        <time>2024-09-19T15:33:04Z</time>
      </trkpt>
      <trkpt lat="45.81825" lon="5.08974">
        <ele>206.2</ele>
        <time>2024-09-19T15:33:05Z</time>
      </trkpt>
      <trkpt lat="45.8183" lon="5.08971">
        <ele>206.2</ele>
        <time>2024-09-19T15:33:06Z</time>
      </trkpt>
      <trkpt lat="45.81834" lon="5.08969">
        <ele>206</ele>
        <time>2024-09-19T15:33:07Z</time>
      </trkpt>
      <trkpt lat="45.81839" lon="5.08966">
        <ele>206</ele>
        <time>2024-09-19T15:33:08Z</time>
      </trkpt>
      <trkpt lat="45.81844" lon="5.08964">
        <ele>205.8</ele>
        <time>2024-09-19T15:33:09Z</time>
      </trkpt>
      <trkpt lat="45.81849" lon="5.08962">
        <ele>205.8</ele>
        <time>2024-09-19T15:33:10Z</time>
      </trkpt>
      <trkpt lat="45.81854" lon="5.0896">
        <ele>206.4</ele>
        <time>2024-09-19T15:33:11Z</time>
      </trkpt>
      <trkpt lat="45.81858" lon="5.08957">
        <ele>206</ele>
        <time>2024-09-19T15:33:12Z</time>
      </trkpt>
      <trkpt lat="45.81863" lon="5.08955">
        <ele>206.6</ele>
        <time>2024-09-19T15:33:13Z</time>
      </trkpt>
      <trkpt lat="45.81867" lon="5.08952">
        <ele>206.8</ele>
        <time>2024-09-19T15:33:14Z</time>
      </trkpt>
      <trkpt lat="45.81872" lon="5.0895">
        <ele>206.8</ele>
        <time>2024-09-19T15:33:15Z</time>
      </trkpt>
      <trkpt lat="45.81877" lon="5.08947">
        <ele>206.2</ele>
        <time>2024-09-19T15:33:16Z</time>
      </trkpt>
      <trkpt lat="45.81881" lon="5.08945">
        <ele>206</ele>
        <time>2024-09-19T15:33:17Z</time>
      </trkpt>
      <trkpt lat="45.81886" lon="5.08943">
        <ele>206.8</ele>
        <time>2024-09-19T15:33:18Z</time>
      </trkpt>
      <trkpt lat="45.8189" lon="5.0894">
        <ele>206.8</ele>
        <time>2024-09-19T15:33:19Z</time>
      </trkpt>
      <trkpt lat="45.81895" lon="5.08937">
        <ele>206.8</ele>
        <time>2024-09-19T15:33:20Z</time>
      </trkpt>
      <trkpt lat="45.819" lon="5.08933">
        <ele>207.4</ele>
        <time>2024-09-19T15:33:21Z</time>
      </trkpt>
      <trkpt lat="45.81904" lon="5.08931">
        <ele>207</ele>
        <time>2024-09-19T15:33:22Z</time>
      </trkpt>
      <trkpt lat="45.81908" lon="5.08928">
        <ele>207.6</ele>
        <time>2024-09-19T15:33:23Z</time>
      </trkpt>
      <trkpt lat="45.81912" lon="5.08925">
        <ele>207.4</ele>
        <time>2024-09-19T15:33:24Z</time>
      </trkpt>
      <trkpt lat="45.81917" lon="5.08923">
        <ele>207</ele>
        <time>2024-09-19T15:33:25Z</time>
      </trkpt>
      <trkpt lat="45.81921" lon="5.0892">
        <ele>207</ele>
        <time>2024-09-19T15:33:26Z</time>
      </trkpt>
      <trkpt lat="45.81925" lon="5.08917">
        <ele>207</ele>
        <time>2024-09-19T15:33:27Z</time>
      </trkpt>
      <trkpt lat="45.8193" lon="5.08915">
        <ele>207.2</ele>
        <time>2024-09-19T15:33:28Z</time>
      </trkpt>
      <trkpt lat="45.81934" lon="5.08912">
        <ele>206.4</ele>
        <time>2024-09-19T15:33:29Z</time>
      </trkpt>
      <trkpt lat="45.81938" lon="5.0891">
        <ele>206.4</ele>
        <time>2024-09-19T15:33:30Z</time>
      </trkpt>
      <trkpt lat="45.81942" lon="5.08907">
        <ele>206.2</ele>
        <time>2024-09-19T15:33:31Z</time>
      </trkpt>
      <trkpt lat="45.81947" lon="5.08903">
        <ele>206.2</ele>
        <time>2024-09-19T15:33:32Z</time>
      </trkpt>
      <trkpt lat="45.81952" lon="5.08901">
        <ele>206.6</ele>
        <time>2024-09-19T15:33:33Z</time>
      </trkpt>
      <trkpt lat="45.81956" lon="5.08898">
        <ele>206.6</ele>
        <time>2024-09-19T15:33:34Z</time>
      </trkpt>
      <trkpt lat="45.8196" lon="5.08895">
        <ele>206.2</ele>
        <time>2024-09-19T15:33:35Z</time>
      </trkpt>
      <trkpt lat="45.81964" lon="5.08893">
        <ele>206.2</ele>
        <time>2024-09-19T15:33:36Z</time>
      </trkpt>
      <trkpt lat="45.81968" lon="5.0889">
        <ele>206.2</ele>
        <time>2024-09-19T15:33:37Z</time>
      </trkpt>
      <trkpt lat="45.81971" lon="5.08886">
        <ele>206.2</ele>
        <time>2024-09-19T15:33:38Z</time>
      </trkpt>
      <trkpt lat="45.81974" lon="5.08883">
        <ele>206.4</ele>
        <time>2024-09-19T15:33:39Z</time>
      </trkpt>
      <trkpt lat="45.81977" lon="5.08881">
        <ele>206.4</ele>
        <time>2024-09-19T15:33:40Z</time>
      </trkpt>
      <trkpt lat="45.81979" lon="5.0888">
        <ele>206.4</ele>
        <time>2024-09-19T15:33:41Z</time>
      </trkpt>
      <trkpt lat="45.81981" lon="5.08878">
        <ele>206.8</ele>
        <time>2024-09-19T15:33:42Z</time>
      </trkpt>
      <trkpt lat="45.81985" lon="5.08877">
        <ele>206.8</ele>
        <time>2024-09-19T15:33:43Z</time>
      </trkpt>
      <trkpt lat="45.81985" lon="5.08877">
        <ele>206.6</ele>
        <time>2024-09-19T15:33:44Z</time>
      </trkpt>
      <trkpt lat="45.81986" lon="5.08876">
        <ele>206.6</ele>
        <time>2024-09-19T15:33:45Z</time>
      </trkpt>
      <trkpt lat="45.81986" lon="5.08876">
        <ele>206.6</ele>
        <time>2024-09-19T15:33:46Z</time>
      </trkpt>
      <trkpt lat="45.81986" lon="5.08876">
        <ele>206.8</ele>
        <time>2024-09-19T15:33:47Z</time>
      </trkpt>
      <trkpt lat="45.81988" lon="5.08877">
        <ele>207</ele>
        <time>2024-09-19T15:34:27Z</time>
      </trkpt>
      <trkpt lat="45.81988" lon="5.08876">
        <ele>207</ele>
        <time>2024-09-19T15:34:28Z</time>
      </trkpt>
      <trkpt lat="45.81988" lon="5.08875">
        <ele>207</ele>
        <time>2024-09-19T15:34:29Z</time>
      </trkpt>
      <trkpt lat="45.81988" lon="5.08875">
        <ele>207</ele>
        <time>2024-09-19T15:34:30Z</time>
      </trkpt>
      <trkpt lat="45.8199" lon="5.08875">
        <ele>207.2</ele>
        <time>2024-09-19T15:34:49Z</time>
      </trkpt>
      <trkpt lat="45.81993" lon="5.08875">
        <ele>207.2</ele>
        <time>2024-09-19T15:34:50Z</time>
      </trkpt>
      <trkpt lat="45.81995" lon="5.08874">
        <ele>207.2</ele>
        <time>2024-09-19T15:34:51Z</time>
      </trkpt>
      <trkpt lat="45.81997" lon="5.08873">
        <ele>206.6</ele>
        <time>2024-09-19T15:34:52Z</time>
      </trkpt>
      <trkpt lat="45.82" lon="5.08872">
        <ele>206.2</ele>
        <time>2024-09-19T15:34:53Z</time>
      </trkpt>
      <trkpt lat="45.82003" lon="5.0887">
        <ele>206.6</ele>
        <time>2024-09-19T15:34:54Z</time>
      </trkpt>
      <trkpt lat="45.82006" lon="5.08867">
        <ele>206.6</ele>
        <time>2024-09-19T15:34:55Z</time>
      </trkpt>
      <trkpt lat="45.8201" lon="5.08865">
        <ele>206.4</ele>
        <time>2024-09-19T15:34:56Z</time>
      </trkpt>
      <trkpt lat="45.82015" lon="5.08861">
        <ele>206</ele>
        <time>2024-09-19T15:34:57Z</time>
      </trkpt>
      <trkpt lat="45.82019" lon="5.08858">
        <ele>205.6</ele>
        <time>2024-09-19T15:34:58Z</time>
      </trkpt>
      <trkpt lat="45.82023" lon="5.08855">
        <ele>205.4</ele>
        <time>2024-09-19T15:34:59Z</time>
      </trkpt>
      <trkpt lat="45.82027" lon="5.08852">
        <ele>205.8</ele>
        <time>2024-09-19T15:35:00Z</time>
      </trkpt>
      <trkpt lat="45.82032" lon="5.08849">
        <ele>205.8</ele>
        <time>2024-09-19T15:35:01Z</time>
      </trkpt>
      <trkpt lat="45.82037" lon="5.08847">
        <ele>205.6</ele>
        <time>2024-09-19T15:35:02Z</time>
      </trkpt>
      <trkpt lat="45.82042" lon="5.08844">
        <ele>205.4</ele>
        <time>2024-09-19T15:35:03Z</time>
      </trkpt>
      <trkpt lat="45.82047" lon="5.08841">
        <ele>205</ele>
        <time>2024-09-19T15:35:04Z</time>
      </trkpt>
      <trkpt lat="45.82052" lon="5.08835">
        <ele>204.6</ele>
        <time>2024-09-19T15:35:05Z</time>
      </trkpt>
      <trkpt lat="45.82057" lon="5.08834">
        <ele>204.6</ele>
        <time>2024-09-19T15:35:06Z</time>
      </trkpt>
      <trkpt lat="45.82059" lon="5.08831">
        <ele>204.2</ele>
        <time>2024-09-19T15:35:07Z</time>
      </trkpt>
      <trkpt lat="45.82065" lon="5.08829">
        <ele>204.2</ele>
        <time>2024-09-19T15:35:08Z</time>
      </trkpt>
      <trkpt lat="45.8207" lon="5.08827">
        <ele>204.2</ele>
        <time>2024-09-19T15:35:09Z</time>
      </trkpt>
      <trkpt lat="45.82075" lon="5.08825">
        <ele>204.2</ele>
        <time>2024-09-19T15:35:10Z</time>
      </trkpt>
      <trkpt lat="45.8208" lon="5.08822">
        <ele>204.6</ele>
        <time>2024-09-19T15:35:11Z</time>
      </trkpt>
      <trkpt lat="45.82085" lon="5.08819">
        <ele>204.6</ele>
        <time>2024-09-19T15:35:12Z</time>
      </trkpt>
      <trkpt lat="45.82091" lon="5.08816">
        <ele>203.8</ele>
        <time>2024-09-19T15:35:13Z</time>
      </trkpt>
      <trkpt lat="45.82095" lon="5.08813">
        <ele>204</ele>
        <time>2024-09-19T15:35:14Z</time>
      </trkpt>
      <trkpt lat="45.82101" lon="5.0881">
        <ele>204.2</ele>
        <time>2024-09-19T15:35:15Z</time>
      </trkpt>
      <trkpt lat="45.82105" lon="5.08807">
        <ele>205.4</ele>
        <time>2024-09-19T15:35:16Z</time>
      </trkpt>
      <trkpt lat="45.8211" lon="5.08803">
        <ele>205</ele>
        <time>2024-09-19T15:35:17Z</time>
      </trkpt>
      <trkpt lat="45.82114" lon="5.08801">
        <ele>204.8</ele>
        <time>2024-09-19T15:35:18Z</time>
      </trkpt>
      <trkpt lat="45.82119" lon="5.08797">
        <ele>204.8</ele>
        <time>2024-09-19T15:35:19Z</time>
      </trkpt>
      <trkpt lat="45.82124" lon="5.08794">
        <ele>204.8</ele>
        <time>2024-09-19T15:35:20Z</time>
      </trkpt>
      <trkpt lat="45.82129" lon="5.08791">
        <ele>204.8</ele>
        <time>2024-09-19T15:35:21Z</time>
      </trkpt>
      <trkpt lat="45.82133" lon="5.08788">
        <ele>204.8</ele>
        <time>2024-09-19T15:35:22Z</time>
      </trkpt>
      <trkpt lat="45.82137" lon="5.08785">
        <ele>205</ele>
        <time>2024-09-19T15:35:23Z</time>
      </trkpt>
      <trkpt lat="45.82143" lon="5.08783">
        <ele>204.2</ele>
        <time>2024-09-19T15:35:24Z</time>
      </trkpt>
      <trkpt lat="45.82147" lon="5.08779">
        <ele>205.2</ele>
        <time>2024-09-19T15:35:25Z</time>
      </trkpt>
      <trkpt lat="45.82151" lon="5.08776">
        <ele>205.2</ele>
        <time>2024-09-19T15:35:26Z</time>
      </trkpt>
      <trkpt lat="45.82157" lon="5.08775">
        <ele>205.2</ele>
        <time>2024-09-19T15:35:27Z</time>
      </trkpt>
      <trkpt lat="45.82162" lon="5.08771">
        <ele>205</ele>
        <time>2024-09-19T15:35:28Z</time>
      </trkpt>
      <trkpt lat="45.82166" lon="5.08769">
        <ele>205</ele>
        <time>2024-09-19T15:35:29Z</time>
      </trkpt>
      <trkpt lat="45.8217" lon="5.08768">
        <ele>205.4</ele>
        <time>2024-09-19T15:35:30Z</time>
      </trkpt>
      <trkpt lat="45.82175" lon="5.08766">
        <ele>205.4</ele>
        <time>2024-09-19T15:35:31Z</time>
      </trkpt>
      <trkpt lat="45.8218" lon="5.08764">
        <ele>205.8</ele>
        <time>2024-09-19T15:35:32Z</time>
      </trkpt>
      <trkpt lat="45.82185" lon="5.08761">
        <ele>205.8</ele>
        <time>2024-09-19T15:35:33Z</time>
      </trkpt>
      <trkpt lat="45.8219" lon="5.08759">
        <ele>205.8</ele>
        <time>2024-09-19T15:35:34Z</time>
      </trkpt>
      <trkpt lat="45.82194" lon="5.08756">
        <ele>206.2</ele>
        <time>2024-09-19T15:35:35Z</time>
      </trkpt>
      <trkpt lat="45.82199" lon="5.08754">
        <ele>206.6</ele>
        <time>2024-09-19T15:35:36Z</time>
      </trkpt>
      <trkpt lat="45.82203" lon="5.08752">
        <ele>206.4</ele>
        <time>2024-09-19T15:35:37Z</time>
      </trkpt>
      <trkpt lat="45.82207" lon="5.08749">
        <ele>206.4</ele>
        <time>2024-09-19T15:35:38Z</time>
      </trkpt>
      <trkpt lat="45.82212" lon="5.08746">
        <ele>206</ele>
        <time>2024-09-19T15:35:39Z</time>
      </trkpt>
      <trkpt lat="45.82217" lon="5.08743">
        <ele>206.4</ele>
        <time>2024-09-19T15:35:40Z</time>
      </trkpt>
      <trkpt lat="45.82222" lon="5.08739">
        <ele>206.4</ele>
        <time>2024-09-19T15:35:41Z</time>
      </trkpt>
      <trkpt lat="45.82226" lon="5.08736">
        <ele>207.6</ele>
        <time>2024-09-19T15:35:42Z</time>
      </trkpt>
      <trkpt lat="45.82231" lon="5.08732">
        <ele>207.4</ele>
        <time>2024-09-19T15:35:43Z</time>
        <extensions>
          <visugpx:TrkExtension xmlns:visugpx="https://www.visugpx.com/editgpx/">
            <visugpx:node>16</visugpx:node>
            </visugpx:TrkExtension>
        </extensions>
      </trkpt>
      <trkpt lat="45.82236" lon="5.08761">
        <ele>206.6</ele>
        <time>2024-09-19T15:40:12Z</time>
      </trkpt>
      <trkpt lat="45.82233" lon="5.08766">
        <ele>206.6</ele>
        <time>2024-09-19T15:40:13Z</time>
      </trkpt>
      <trkpt lat="45.82231" lon="5.08772">
        <ele>206.8</ele>
        <time>2024-09-19T15:40:14Z</time>
      </trkpt>
      <trkpt lat="45.82228" lon="5.08778">
        <ele>206.8</ele>
        <time>2024-09-19T15:40:15Z</time>
      </trkpt>
      <trkpt lat="45.82226" lon="5.08783">
        <ele>206.8</ele>
        <time>2024-09-19T15:40:16Z</time>
      </trkpt>
      <trkpt lat="45.82223" lon="5.08789">
        <ele>206.8</ele>
        <time>2024-09-19T15:40:17Z</time>
      </trkpt>
      <trkpt lat="45.8222" lon="5.08795">
        <ele>206.8</ele>
        <time>2024-09-19T15:40:18Z</time>
      </trkpt>
      <trkpt lat="45.82218" lon="5.08802">
        <ele>206.4</ele>
        <time>2024-09-19T15:40:19Z</time>
      </trkpt>
      <trkpt lat="45.82215" lon="5.08808">
        <ele>206.4</ele>
        <time>2024-09-19T15:40:20Z</time>
      </trkpt>
      <trkpt lat="45.82212" lon="5.08816">
        <ele>206.2</ele>
        <time>2024-09-19T15:40:21Z</time>
      </trkpt>
      <trkpt lat="45.82212" lon="5.08816">
        <ele>206.2</ele>
        <time>2024-09-19T15:40:22Z</time>
      </trkpt>
      <trkpt lat="45.8221" lon="5.08822">
        <ele>206</ele>
        <time>2024-09-19T15:40:23Z</time>
      </trkpt>
      <trkpt lat="45.82207" lon="5.08828">
        <ele>206</ele>
        <time>2024-09-19T15:40:24Z</time>
      </trkpt>
      <trkpt lat="45.82204" lon="5.08834">
        <ele>205.6</ele>
        <time>2024-09-19T15:40:25Z</time>
      </trkpt>
      <trkpt lat="45.82203" lon="5.08841">
        <ele>206</ele>
        <time>2024-09-19T15:40:26Z</time>
      </trkpt>
      <trkpt lat="45.82201" lon="5.08846">
        <ele>206.2</ele>
        <time>2024-09-19T15:40:27Z</time>
      </trkpt>
      <trkpt lat="45.82198" lon="5.08853">
        <ele>206.2</ele>
        <time>2024-09-19T15:40:28Z</time>
      </trkpt>
      <trkpt lat="45.82195" lon="5.08859">
        <ele>206.2</ele>
        <time>2024-09-19T15:40:29Z</time>
      </trkpt>
      <trkpt lat="45.82193" lon="5.08865">
        <ele>206.2</ele>
        <time>2024-09-19T15:40:30Z</time>
      </trkpt>
      <trkpt lat="45.8219" lon="5.0887">
        <ele>206.2</ele>
        <time>2024-09-19T15:40:31Z</time>
      </trkpt>
      <trkpt lat="45.82187" lon="5.08876">
        <ele>206.8</ele>
        <time>2024-09-19T15:40:32Z</time>
      </trkpt>
      <trkpt lat="45.82185" lon="5.08881">
        <ele>207.4</ele>
        <time>2024-09-19T15:40:33Z</time>
      </trkpt>
      <trkpt lat="45.82182" lon="5.08886">
        <ele>207.4</ele>
        <time>2024-09-19T15:40:34Z</time>
      </trkpt>
      <trkpt lat="45.8218" lon="5.08891">
        <ele>207.6</ele>
        <time>2024-09-19T15:40:35Z</time>
      </trkpt>
      <trkpt lat="45.82178" lon="5.08896">
        <ele>207.6</ele>
        <time>2024-09-19T15:40:36Z</time>
      </trkpt>
      <trkpt lat="45.82176" lon="5.08901">
        <ele>207.8</ele>
        <time>2024-09-19T15:40:37Z</time>
      </trkpt>
      <trkpt lat="45.82174" lon="5.08906">
        <ele>207.8</ele>
        <time>2024-09-19T15:40:38Z</time>
      </trkpt>
      <trkpt lat="45.82172" lon="5.08911">
        <ele>207.8</ele>
        <time>2024-09-19T15:40:39Z</time>
      </trkpt>
      <trkpt lat="45.8217" lon="5.08917">
        <ele>207.8</ele>
        <time>2024-09-19T15:40:40Z</time>
      </trkpt>
      <trkpt lat="45.82168" lon="5.08922">
        <ele>207.8</ele>
        <time>2024-09-19T15:40:41Z</time>
      </trkpt>
      <trkpt lat="45.82164" lon="5.08934">
        <ele>207.8</ele>
        <time>2024-09-19T15:40:42Z</time>
      </trkpt>
      <trkpt lat="45.82161" lon="5.0894">
        <ele>207.4</ele>
        <time>2024-09-19T15:40:43Z</time>
      </trkpt>
      <trkpt lat="45.82159" lon="5.08946">
        <ele>207.6</ele>
        <time>2024-09-19T15:40:44Z</time>
      </trkpt>
      <trkpt lat="45.82156" lon="5.08952">
        <ele>207.6</ele>
        <time>2024-09-19T15:40:45Z</time>
      </trkpt>
      <trkpt lat="45.82153" lon="5.08959">
        <ele>207.6</ele>
        <time>2024-09-19T15:40:46Z</time>
      </trkpt>
      <trkpt lat="45.8215" lon="5.08965">
        <ele>207.2</ele>
        <time>2024-09-19T15:40:47Z</time>
      </trkpt>
      <trkpt lat="45.82148" lon="5.08971">
        <ele>207.2</ele>
        <time>2024-09-19T15:40:48Z</time>
      </trkpt>
      <trkpt lat="45.82145" lon="5.08977">
        <ele>207.6</ele>
        <time>2024-09-19T15:40:49Z</time>
      </trkpt>
      <trkpt lat="45.82143" lon="5.08984">
        <ele>207.6</ele>
        <time>2024-09-19T15:40:50Z</time>
      </trkpt>
      <trkpt lat="45.82141" lon="5.0899">
        <ele>207.8</ele>
        <time>2024-09-19T15:40:51Z</time>
      </trkpt>
      <trkpt lat="45.82138" lon="5.08996">
        <ele>207.8</ele>
        <time>2024-09-19T15:40:52Z</time>
      </trkpt>
      <trkpt lat="45.82135" lon="5.09002">
        <ele>207.8</ele>
        <time>2024-09-19T15:40:53Z</time>
      </trkpt>
      <trkpt lat="45.82133" lon="5.09008">
        <ele>207.8</ele>
        <time>2024-09-19T15:40:54Z</time>
      </trkpt>
      <trkpt lat="45.8213" lon="5.09014">
        <ele>207.8</ele>
        <time>2024-09-19T15:40:55Z</time>
      </trkpt>
      <trkpt lat="45.82127" lon="5.09021">
        <ele>207.8</ele>
        <time>2024-09-19T15:40:56Z</time>
      </trkpt>
      <trkpt lat="45.82124" lon="5.09027">
        <ele>207.8</ele>
        <time>2024-09-19T15:40:57Z</time>
      </trkpt>
      <trkpt lat="45.82122" lon="5.09033">
        <ele>207.8</ele>
        <time>2024-09-19T15:40:58Z</time>
      </trkpt>
      <trkpt lat="45.82119" lon="5.0904">
        <ele>207.6</ele>
        <time>2024-09-19T15:40:59Z</time>
      </trkpt>
      <trkpt lat="45.82117" lon="5.09046">
        <ele>207.6</ele>
        <time>2024-09-19T15:41:00Z</time>
      </trkpt>
      <trkpt lat="45.82113" lon="5.09054">
        <ele>207.6</ele>
        <time>2024-09-19T15:41:01Z</time>
      </trkpt>
      <trkpt lat="45.82111" lon="5.0906">
        <ele>207.6</ele>
        <time>2024-09-19T15:41:02Z</time>
      </trkpt>
      <trkpt lat="45.82108" lon="5.09066">
        <ele>207.6</ele>
        <time>2024-09-19T15:41:03Z</time>
      </trkpt>
      <trkpt lat="45.82105" lon="5.09073">
        <ele>207.2</ele>
        <time>2024-09-19T15:41:04Z</time>
      </trkpt>
      <trkpt lat="45.82102" lon="5.09079">
        <ele>207.2</ele>
        <time>2024-09-19T15:41:05Z</time>
      </trkpt>
      <trkpt lat="45.821" lon="5.09085">
        <ele>207.2</ele>
        <time>2024-09-19T15:41:06Z</time>
      </trkpt>
      <trkpt lat="45.82097" lon="5.09092">
        <ele>207.2</ele>
        <time>2024-09-19T15:41:07Z</time>
      </trkpt>
      <trkpt lat="45.82095" lon="5.09099">
        <ele>207.2</ele>
        <time>2024-09-19T15:41:08Z</time>
      </trkpt>
      <trkpt lat="45.82092" lon="5.09105">
        <ele>207</ele>
        <time>2024-09-19T15:41:09Z</time>
      </trkpt>
      <trkpt lat="45.82089" lon="5.09111">
        <ele>207</ele>
        <time>2024-09-19T15:41:10Z</time>
      </trkpt>
      <trkpt lat="45.82087" lon="5.09117">
        <ele>207</ele>
        <time>2024-09-19T15:41:11Z</time>
      </trkpt>
      <trkpt lat="45.82084" lon="5.09123">
        <ele>207</ele>
        <time>2024-09-19T15:41:12Z</time>
      </trkpt>
      <trkpt lat="45.82081" lon="5.0913">
        <ele>207.4</ele>
        <time>2024-09-19T15:41:13Z</time>
      </trkpt>
      <trkpt lat="45.82078" lon="5.09136">
        <ele>207.4</ele>
        <time>2024-09-19T15:41:14Z</time>
      </trkpt>
      <trkpt lat="45.82076" lon="5.09142">
        <ele>207.6</ele>
        <time>2024-09-19T15:41:15Z</time>
      </trkpt>
      <trkpt lat="45.82073" lon="5.09149">
        <ele>207.6</ele>
        <time>2024-09-19T15:41:16Z</time>
      </trkpt>
      <trkpt lat="45.8207" lon="5.09156">
        <ele>207.2</ele>
        <time>2024-09-19T15:41:17Z</time>
      </trkpt>
      <trkpt lat="45.82067" lon="5.09162">
        <ele>207.2</ele>
        <time>2024-09-19T15:41:18Z</time>
      </trkpt>
      <trkpt lat="45.82064" lon="5.09168">
        <ele>206.8</ele>
        <time>2024-09-19T15:41:19Z</time>
      </trkpt>
      <trkpt lat="45.82062" lon="5.09175">
        <ele>207.2</ele>
        <time>2024-09-19T15:41:20Z</time>
      </trkpt>
      <trkpt lat="45.82059" lon="5.09182">
        <ele>207.6</ele>
        <time>2024-09-19T15:41:21Z</time>
      </trkpt>
      <trkpt lat="45.82056" lon="5.09189">
        <ele>207.6</ele>
        <time>2024-09-19T15:41:22Z</time>
      </trkpt>
      <trkpt lat="45.82053" lon="5.09197">
        <ele>207.6</ele>
        <time>2024-09-19T15:41:23Z</time>
      </trkpt>
      <trkpt lat="45.8205" lon="5.09204">
        <ele>207.6</ele>
        <time>2024-09-19T15:41:24Z</time>
      </trkpt>
      <trkpt lat="45.82047" lon="5.0921">
        <ele>208.2</ele>
        <time>2024-09-19T15:41:25Z</time>
      </trkpt>
      <trkpt lat="45.82044" lon="5.09217">
        <ele>207.6</ele>
        <time>2024-09-19T15:41:26Z</time>
      </trkpt>
      <trkpt lat="45.82041" lon="5.09224">
        <ele>207.2</ele>
        <time>2024-09-19T15:41:27Z</time>
      </trkpt>
      <trkpt lat="45.82038" lon="5.09233">
        <ele>207.2</ele>
        <time>2024-09-19T15:41:28Z</time>
      </trkpt>
      <trkpt lat="45.82035" lon="5.09238">
        <ele>207.2</ele>
        <time>2024-09-19T15:41:29Z</time>
      </trkpt>
      <trkpt lat="45.82032" lon="5.09245">
        <ele>206.8</ele>
        <time>2024-09-19T15:41:30Z</time>
      </trkpt>
      <trkpt lat="45.8203" lon="5.09252">
        <ele>207.2</ele>
        <time>2024-09-19T15:41:31Z</time>
      </trkpt>
      <trkpt lat="45.82027" lon="5.09259">
        <ele>207.2</ele>
        <time>2024-09-19T15:41:32Z</time>
      </trkpt>
      <trkpt lat="45.82024" lon="5.09265">
        <ele>207.2</ele>
        <time>2024-09-19T15:41:33Z</time>
      </trkpt>
      <trkpt lat="45.82021" lon="5.09272">
        <ele>207.6</ele>
        <time>2024-09-19T15:41:34Z</time>
      </trkpt>
      <trkpt lat="45.82018" lon="5.09278">
        <ele>207.8</ele>
        <time>2024-09-19T15:41:35Z</time>
      </trkpt>
      <trkpt lat="45.82015" lon="5.09285">
        <ele>207.4</ele>
        <time>2024-09-19T15:41:36Z</time>
      </trkpt>
      <trkpt lat="45.82013" lon="5.09291">
        <ele>207.4</ele>
        <time>2024-09-19T15:41:37Z</time>
      </trkpt>
      <trkpt lat="45.8201" lon="5.09298">
        <ele>207.4</ele>
        <time>2024-09-19T15:41:38Z</time>
      </trkpt>
      <trkpt lat="45.82007" lon="5.09305">
        <ele>207.4</ele>
        <time>2024-09-19T15:41:39Z</time>
      </trkpt>
      <trkpt lat="45.82004" lon="5.09312">
        <ele>206.8</ele>
        <time>2024-09-19T15:41:40Z</time>
      </trkpt>
      <trkpt lat="45.82001" lon="5.09319">
        <ele>206.8</ele>
        <time>2024-09-19T15:41:41Z</time>
      </trkpt>
      <trkpt lat="45.81997" lon="5.09325">
        <ele>206.8</ele>
        <time>2024-09-19T15:41:42Z</time>
      </trkpt>
      <trkpt lat="45.81994" lon="5.09332">
        <ele>206.8</ele>
        <time>2024-09-19T15:41:43Z</time>
      </trkpt>
      <trkpt lat="45.81992" lon="5.09339">
        <ele>206.8</ele>
        <time>2024-09-19T15:41:44Z</time>
      </trkpt>
      <trkpt lat="45.81989" lon="5.09345">
        <ele>206.6</ele>
        <time>2024-09-19T15:41:45Z</time>
      </trkpt>
      <trkpt lat="45.81986" lon="5.09351">
        <ele>206.6</ele>
        <time>2024-09-19T15:41:46Z</time>
      </trkpt>
      <trkpt lat="45.81983" lon="5.09357">
        <ele>207.2</ele>
        <time>2024-09-19T15:41:47Z</time>
      </trkpt>
      <trkpt lat="45.81981" lon="5.09363">
        <ele>207.2</ele>
        <time>2024-09-19T15:41:48Z</time>
      </trkpt>
      <trkpt lat="45.81978" lon="5.09369">
        <ele>207.2</ele>
        <time>2024-09-19T15:41:49Z</time>
      </trkpt>
      <trkpt lat="45.81976" lon="5.09374">
        <ele>207.4</ele>
        <time>2024-09-19T15:41:50Z</time>
      </trkpt>
      <trkpt lat="45.81973" lon="5.0938">
        <ele>206.8</ele>
        <time>2024-09-19T15:41:51Z</time>
      </trkpt>
      <trkpt lat="45.81971" lon="5.09386">
        <ele>207.2</ele>
        <time>2024-09-19T15:41:52Z</time>
      </trkpt>
      <trkpt lat="45.81968" lon="5.09391">
        <ele>207.2</ele>
        <time>2024-09-19T15:41:53Z</time>
      </trkpt>
      <trkpt lat="45.81966" lon="5.09397">
        <ele>207.2</ele>
        <time>2024-09-19T15:41:54Z</time>
      </trkpt>
      <trkpt lat="45.81964" lon="5.09402">
        <ele>206.6</ele>
        <time>2024-09-19T15:41:55Z</time>
      </trkpt>
      <trkpt lat="45.81962" lon="5.09407">
        <ele>206.6</ele>
        <time>2024-09-19T15:41:56Z</time>
      </trkpt>
      <trkpt lat="45.81959" lon="5.09413">
        <ele>206.6</ele>
        <time>2024-09-19T15:41:57Z</time>
      </trkpt>
      <trkpt lat="45.81957" lon="5.09418">
        <ele>206.8</ele>
        <time>2024-09-19T15:41:58Z</time>
      </trkpt>
      <trkpt lat="45.81955" lon="5.09421">
        <ele>206.8</ele>
        <time>2024-09-19T15:41:59Z</time>
      </trkpt>
      <trkpt lat="45.81954" lon="5.09426">
        <ele>206.8</ele>
        <time>2024-09-19T15:42:00Z</time>
      </trkpt>
      <trkpt lat="45.81952" lon="5.09426">
        <ele>207.2</ele>
        <time>2024-09-19T15:42:01Z</time>
      </trkpt>
      <trkpt lat="45.81952" lon="5.09427">
        <ele>207.2</ele>
        <time>2024-09-19T15:42:02Z</time>
      </trkpt>
      <trkpt lat="45.81951" lon="5.09428">
        <ele>207.4</ele>
        <time>2024-09-19T15:42:03Z</time>
      </trkpt>
      <trkpt lat="45.81952" lon="5.09428">
        <ele>207.4</ele>
        <time>2024-09-19T15:42:04Z</time>
      </trkpt>
      <trkpt lat="45.81952" lon="5.09428">
        <ele>207.4</ele>
        <time>2024-09-19T15:42:05Z</time>
      </trkpt>
      <trkpt lat="45.81951" lon="5.09433">
        <ele>207.4</ele>
        <time>2024-09-19T15:42:08Z</time>
      </trkpt>
      <trkpt lat="45.81951" lon="5.09435">
        <ele>207.4</ele>
        <time>2024-09-19T15:42:09Z</time>
      </trkpt>
      <trkpt lat="45.81952" lon="5.09438">
        <ele>207.4</ele>
        <time>2024-09-19T15:42:10Z</time>
      </trkpt>
      <trkpt lat="45.81954" lon="5.09442">
        <ele>207.2</ele>
        <time>2024-09-19T15:42:11Z</time>
      </trkpt>
      <trkpt lat="45.81957" lon="5.09445">
        <ele>207.2</ele>
        <time>2024-09-19T15:42:12Z</time>
      </trkpt>
      <trkpt lat="45.8196" lon="5.09448">
        <ele>207.2</ele>
        <time>2024-09-19T15:42:13Z</time>
      </trkpt>
      <trkpt lat="45.81962" lon="5.09452">
        <ele>207.2</ele>
        <time>2024-09-19T15:42:14Z</time>
      </trkpt>
      <trkpt lat="45.81965" lon="5.09456">
        <ele>207</ele>
        <time>2024-09-19T15:42:15Z</time>
      </trkpt>
      <trkpt lat="45.81969" lon="5.09459">
        <ele>207</ele>
        <time>2024-09-19T15:42:16Z</time>
      </trkpt>
      <trkpt lat="45.81972" lon="5.09463">
        <ele>207</ele>
        <time>2024-09-19T15:42:17Z</time>
      </trkpt>
      <trkpt lat="45.81975" lon="5.09469">
        <ele>207</ele>
        <time>2024-09-19T15:42:18Z</time>
      </trkpt>
      <trkpt lat="45.81979" lon="5.09473">
        <ele>207</ele>
        <time>2024-09-19T15:42:19Z</time>
      </trkpt>
      <trkpt lat="45.81982" lon="5.09477">
        <ele>207</ele>
        <time>2024-09-19T15:42:20Z</time>
      </trkpt>
      <trkpt lat="45.81986" lon="5.09481">
        <ele>206.8</ele>
        <time>2024-09-19T15:42:21Z</time>
      </trkpt>
      <trkpt lat="45.81989" lon="5.09486">
        <ele>206.8</ele>
        <time>2024-09-19T15:42:22Z</time>
      </trkpt>
      <trkpt lat="45.81993" lon="5.0949">
        <ele>206.8</ele>
        <time>2024-09-19T15:42:23Z</time>
      </trkpt>
      <trkpt lat="45.81997" lon="5.09495">
        <ele>206.8</ele>
        <time>2024-09-19T15:42:24Z</time>
      </trkpt>
      <trkpt lat="45.82001" lon="5.09499">
        <ele>206.4</ele>
        <time>2024-09-19T15:42:25Z</time>
      </trkpt>
      <trkpt lat="45.82005" lon="5.09504">
        <ele>206.4</ele>
        <time>2024-09-19T15:42:26Z</time>
      </trkpt>
      <trkpt lat="45.8201" lon="5.09509">
        <ele>206.2</ele>
        <time>2024-09-19T15:42:27Z</time>
      </trkpt>
      <trkpt lat="45.82014" lon="5.09514">
        <ele>206.2</ele>
        <time>2024-09-19T15:42:28Z</time>
      </trkpt>
      <trkpt lat="45.82019" lon="5.09519">
        <ele>206.2</ele>
        <time>2024-09-19T15:42:29Z</time>
      </trkpt>
      <trkpt lat="45.82023" lon="5.09524">
        <ele>206.2</ele>
        <time>2024-09-19T15:42:30Z</time>
      </trkpt>
      <trkpt lat="45.82027" lon="5.09529">
        <ele>205.8</ele>
        <time>2024-09-19T15:42:31Z</time>
      </trkpt>
      <trkpt lat="45.82031" lon="5.09533">
        <ele>205.8</ele>
        <time>2024-09-19T15:42:32Z</time>
      </trkpt>
      <trkpt lat="45.82035" lon="5.09538">
        <ele>205.8</ele>
        <time>2024-09-19T15:42:33Z</time>
      </trkpt>
      <trkpt lat="45.8204" lon="5.09543">
        <ele>205.8</ele>
        <time>2024-09-19T15:42:34Z</time>
      </trkpt>
      <trkpt lat="45.82044" lon="5.09547">
        <ele>205.8</ele>
        <time>2024-09-19T15:42:35Z</time>
      </trkpt>
      <trkpt lat="45.82048" lon="5.09552">
        <ele>205.8</ele>
        <time>2024-09-19T15:42:36Z</time>
      </trkpt>
      <trkpt lat="45.82052" lon="5.09556">
        <ele>205.8</ele>
        <time>2024-09-19T15:42:37Z</time>
      </trkpt>
      <trkpt lat="45.82057" lon="5.09561">
        <ele>205.8</ele>
        <time>2024-09-19T15:42:38Z</time>
      </trkpt>
      <trkpt lat="45.8206" lon="5.09565">
        <ele>205.8</ele>
        <time>2024-09-19T15:42:39Z</time>
      </trkpt>
      <trkpt lat="45.82065" lon="5.0957">
        <ele>205.8</ele>
        <time>2024-09-19T15:42:40Z</time>
      </trkpt>
      <trkpt lat="45.82069" lon="5.09574">
        <ele>205.8</ele>
        <time>2024-09-19T15:42:41Z</time>
      </trkpt>
      <trkpt lat="45.82073" lon="5.0958">
        <ele>205.8</ele>
        <time>2024-09-19T15:42:42Z</time>
      </trkpt>
      <trkpt lat="45.82077" lon="5.09584">
        <ele>205.8</ele>
        <time>2024-09-19T15:42:43Z</time>
      </trkpt>
      <trkpt lat="45.82081" lon="5.09589">
        <ele>206</ele>
        <time>2024-09-19T15:42:44Z</time>
      </trkpt>
      <trkpt lat="45.82086" lon="5.09594">
        <ele>206</ele>
        <time>2024-09-19T15:42:45Z</time>
      </trkpt>
      <trkpt lat="45.8209" lon="5.096">
        <ele>206</ele>
        <time>2024-09-19T15:42:46Z</time>
      </trkpt>
      <trkpt lat="45.82093" lon="5.09606">
        <ele>206</ele>
        <time>2024-09-19T15:42:47Z</time>
      </trkpt>
      <trkpt lat="45.82097" lon="5.09611">
        <ele>206</ele>
        <time>2024-09-19T15:42:48Z</time>
      </trkpt>
      <trkpt lat="45.821" lon="5.09617">
        <ele>206</ele>
        <time>2024-09-19T15:42:49Z</time>
      </trkpt>
      <trkpt lat="45.82103" lon="5.09623">
        <ele>206</ele>
        <time>2024-09-19T15:42:50Z</time>
      </trkpt>
      <trkpt lat="45.82107" lon="5.0963">
        <ele>206</ele>
        <time>2024-09-19T15:42:51Z</time>
      </trkpt>
      <trkpt lat="45.8211" lon="5.09636">
        <ele>206</ele>
        <time>2024-09-19T15:42:52Z</time>
      </trkpt>
      <trkpt lat="45.82112" lon="5.09644">
        <ele>206</ele>
        <time>2024-09-19T15:42:53Z</time>
      </trkpt>
      <trkpt lat="45.82114" lon="5.09651">
        <ele>206</ele>
        <time>2024-09-19T15:42:54Z</time>
      </trkpt>
      <trkpt lat="45.82116" lon="5.09657">
        <ele>206</ele>
        <time>2024-09-19T15:42:55Z</time>
      </trkpt>
      <trkpt lat="45.82119" lon="5.09664">
        <ele>206</ele>
        <time>2024-09-19T15:42:56Z</time>
      </trkpt>
      <trkpt lat="45.8212" lon="5.09671">
        <ele>206.4</ele>
        <time>2024-09-19T15:42:57Z</time>
      </trkpt>
      <trkpt lat="45.82123" lon="5.09679">
        <ele>206.4</ele>
        <time>2024-09-19T15:42:58Z</time>
      </trkpt>
      <trkpt lat="45.82125" lon="5.09685">
        <ele>206.4</ele>
        <time>2024-09-19T15:42:59Z</time>
      </trkpt>
      <trkpt lat="45.82127" lon="5.09692">
        <ele>206.4</ele>
        <time>2024-09-19T15:43:00Z</time>
      </trkpt>
      <trkpt lat="45.82129" lon="5.09699">
        <ele>206.4</ele>
        <time>2024-09-19T15:43:01Z</time>
      </trkpt>
      <trkpt lat="45.82131" lon="5.09705">
        <ele>206.6</ele>
        <time>2024-09-19T15:43:02Z</time>
      </trkpt>
      <trkpt lat="45.82133" lon="5.09712">
        <ele>206.6</ele>
        <time>2024-09-19T15:43:03Z</time>
      </trkpt>
      <trkpt lat="45.82135" lon="5.09719">
        <ele>206.8</ele>
        <time>2024-09-19T15:43:04Z</time>
      </trkpt>
      <trkpt lat="45.82137" lon="5.09726">
        <ele>206.8</ele>
        <time>2024-09-19T15:43:05Z</time>
      </trkpt>
      <trkpt lat="45.82139" lon="5.09733">
        <ele>207</ele>
        <time>2024-09-19T15:43:06Z</time>
      </trkpt>
      <trkpt lat="45.82141" lon="5.09739">
        <ele>207</ele>
        <time>2024-09-19T15:43:07Z</time>
      </trkpt>
      <trkpt lat="45.82144" lon="5.09746">
        <ele>207.4</ele>
        <time>2024-09-19T15:43:08Z</time>
      </trkpt>
      <trkpt lat="45.82146" lon="5.09752">
        <ele>207.4</ele>
        <time>2024-09-19T15:43:09Z</time>
      </trkpt>
      <trkpt lat="45.82147" lon="5.09759">
        <ele>207</ele>
        <time>2024-09-19T15:43:10Z</time>
      </trkpt>
      <trkpt lat="45.8215" lon="5.09765">
        <ele>207</ele>
        <time>2024-09-19T15:43:11Z</time>
      </trkpt>
      <trkpt lat="45.82152" lon="5.09771">
        <ele>207</ele>
        <time>2024-09-19T15:43:12Z</time>
      </trkpt>
      <trkpt lat="45.82154" lon="5.09777">
        <ele>207</ele>
        <time>2024-09-19T15:43:13Z</time>
      </trkpt>
      <trkpt lat="45.82154" lon="5.09777">
        <ele>207</ele>
        <time>2024-09-19T15:43:14Z</time>
      </trkpt>
      <trkpt lat="45.82156" lon="5.09784">
        <ele>207.4</ele>
        <time>2024-09-19T15:43:15Z</time>
      </trkpt>
      <trkpt lat="45.82158" lon="5.0979">
        <ele>207.4</ele>
        <time>2024-09-19T15:43:16Z</time>
      </trkpt>
      <trkpt lat="45.82161" lon="5.09796">
        <ele>207.6</ele>
        <time>2024-09-19T15:43:17Z</time>
      </trkpt>
      <trkpt lat="45.82163" lon="5.09803">
        <ele>207.6</ele>
        <time>2024-09-19T15:43:18Z</time>
      </trkpt>
      <trkpt lat="45.82165" lon="5.09809">
        <ele>207.6</ele>
        <time>2024-09-19T15:43:19Z</time>
      </trkpt>
      <trkpt lat="45.82168" lon="5.09816">
        <ele>207.6</ele>
        <time>2024-09-19T15:43:20Z</time>
      </trkpt>
      <trkpt lat="45.82169" lon="5.09822">
        <ele>207.6</ele>
        <time>2024-09-19T15:43:21Z</time>
      </trkpt>
      <trkpt lat="45.82172" lon="5.09828">
        <ele>207.6</ele>
        <time>2024-09-19T15:43:22Z</time>
      </trkpt>
      <trkpt lat="45.82174" lon="5.09834">
        <ele>207.4</ele>
        <time>2024-09-19T15:43:23Z</time>
      </trkpt>
      <trkpt lat="45.82176" lon="5.09841">
        <ele>207.4</ele>
        <time>2024-09-19T15:43:24Z</time>
      </trkpt>
      <trkpt lat="45.82178" lon="5.09847">
        <ele>207.4</ele>
        <time>2024-09-19T15:43:25Z</time>
      </trkpt>
      <trkpt lat="45.8218" lon="5.09854">
        <ele>207.4</ele>
        <time>2024-09-19T15:43:26Z</time>
      </trkpt>
      <trkpt lat="45.82183" lon="5.09861">
        <ele>207.4</ele>
        <time>2024-09-19T15:43:27Z</time>
      </trkpt>
      <trkpt lat="45.82185" lon="5.09867">
        <ele>207.4</ele>
        <time>2024-09-19T15:43:28Z</time>
      </trkpt>
      <trkpt lat="45.8219" lon="5.0988">
        <ele>207.4</ele>
        <time>2024-09-19T15:43:29Z</time>
      </trkpt>
      <trkpt lat="45.82192" lon="5.09886">
        <ele>207.6</ele>
        <time>2024-09-19T15:43:30Z</time>
      </trkpt>
      <trkpt lat="45.82194" lon="5.09893">
        <ele>207.6</ele>
        <time>2024-09-19T15:43:31Z</time>
      </trkpt>
      <trkpt lat="45.82197" lon="5.099">
        <ele>207.6</ele>
        <time>2024-09-19T15:43:32Z</time>
      </trkpt>
      <trkpt lat="45.82199" lon="5.09907">
        <ele>207.6</ele>
        <time>2024-09-19T15:43:33Z</time>
      </trkpt>
      <trkpt lat="45.82202" lon="5.09914">
        <ele>207.6</ele>
        <time>2024-09-19T15:43:34Z</time>
      </trkpt>
      <trkpt lat="45.82204" lon="5.0992">
        <ele>207.6</ele>
        <time>2024-09-19T15:43:35Z</time>
      </trkpt>
      <trkpt lat="45.82206" lon="5.09926">
        <ele>207.6</ele>
        <time>2024-09-19T15:43:36Z</time>
      </trkpt>
      <trkpt lat="45.82208" lon="5.09933">
        <ele>207.8</ele>
        <time>2024-09-19T15:43:37Z</time>
      </trkpt>
      <trkpt lat="45.82211" lon="5.09939">
        <ele>207.8</ele>
        <time>2024-09-19T15:43:38Z</time>
      </trkpt>
      <trkpt lat="45.82213" lon="5.09945">
        <ele>207.8</ele>
        <time>2024-09-19T15:43:39Z</time>
      </trkpt>
      <trkpt lat="45.82216" lon="5.09951">
        <ele>207.8</ele>
        <time>2024-09-19T15:43:40Z</time>
      </trkpt>
      <trkpt lat="45.82218" lon="5.09957">
        <ele>207.6</ele>
        <time>2024-09-19T15:43:41Z</time>
      </trkpt>
      <trkpt lat="45.82221" lon="5.09963">
        <ele>207.6</ele>
        <time>2024-09-19T15:43:42Z</time>
      </trkpt>
      <trkpt lat="45.82224" lon="5.09969">
        <ele>207.6</ele>
        <time>2024-09-19T15:43:43Z</time>
      </trkpt>
      <trkpt lat="45.82227" lon="5.09974">
        <ele>207.6</ele>
        <time>2024-09-19T15:43:44Z</time>
      </trkpt>
      <trkpt lat="45.82231" lon="5.0998">
        <ele>207.6</ele>
        <time>2024-09-19T15:43:45Z</time>
      </trkpt>
      <trkpt lat="45.82234" lon="5.09984">
        <ele>207.6</ele>
        <time>2024-09-19T15:43:46Z</time>
      </trkpt>
      <trkpt lat="45.82238" lon="5.09989">
        <ele>207.8</ele>
        <time>2024-09-19T15:43:47Z</time>
      </trkpt>
      <trkpt lat="45.82242" lon="5.09993">
        <ele>207.8</ele>
        <time>2024-09-19T15:43:48Z</time>
      </trkpt>
      <trkpt lat="45.82246" lon="5.09997">
        <ele>207.8</ele>
        <time>2024-09-19T15:43:49Z</time>
      </trkpt>
      <trkpt lat="45.82251" lon="5.10001">
        <ele>207.8</ele>
        <time>2024-09-19T15:43:50Z</time>
      </trkpt>
      <trkpt lat="45.82255" lon="5.10005">
        <ele>207.8</ele>
        <time>2024-09-19T15:43:51Z</time>
      </trkpt>
      <trkpt lat="45.8226" lon="5.10009">
        <ele>207.8</ele>
        <time>2024-09-19T15:43:52Z</time>
      </trkpt>
      <trkpt lat="45.82265" lon="5.10011">
        <ele>207.8</ele>
        <time>2024-09-19T15:43:53Z</time>
      </trkpt>
      <trkpt lat="45.8227" lon="5.10014">
        <ele>207.8</ele>
        <time>2024-09-19T15:43:54Z</time>
      </trkpt>
      <trkpt lat="45.82275" lon="5.10017">
        <ele>207.6</ele>
        <time>2024-09-19T15:43:55Z</time>
      </trkpt>
      <trkpt lat="45.8228" lon="5.1002">
        <ele>207.6</ele>
        <time>2024-09-19T15:43:56Z</time>
      </trkpt>
      <trkpt lat="45.82285" lon="5.10024">
        <ele>207.4</ele>
        <time>2024-09-19T15:43:57Z</time>
      </trkpt>
      <trkpt lat="45.8229" lon="5.10026">
        <ele>207</ele>
        <time>2024-09-19T15:43:58Z</time>
      </trkpt>
      <trkpt lat="45.82295" lon="5.10029">
        <ele>206.8</ele>
        <time>2024-09-19T15:43:59Z</time>
      </trkpt>
      <trkpt lat="45.82301" lon="5.10032">
        <ele>206.8</ele>
        <time>2024-09-19T15:44:00Z</time>
      </trkpt>
      <trkpt lat="45.82306" lon="5.10036">
        <ele>206.8</ele>
        <time>2024-09-19T15:44:01Z</time>
      </trkpt>
      <trkpt lat="45.82311" lon="5.10038">
        <ele>206.8</ele>
        <time>2024-09-19T15:44:02Z</time>
      </trkpt>
      <trkpt lat="45.82316" lon="5.10041">
        <ele>206.8</ele>
        <time>2024-09-19T15:44:03Z</time>
      </trkpt>
      <trkpt lat="45.82322" lon="5.10044">
        <ele>206.8</ele>
        <time>2024-09-19T15:44:04Z</time>
      </trkpt>
      <trkpt lat="45.82327" lon="5.10047">
        <ele>206.4</ele>
        <time>2024-09-19T15:44:05Z</time>
      </trkpt>
      <trkpt lat="45.82332" lon="5.1005">
        <ele>206.4</ele>
        <time>2024-09-19T15:44:06Z</time>
      </trkpt>
      <trkpt lat="45.82336" lon="5.10053">
        <ele>206.4</ele>
        <time>2024-09-19T15:44:07Z</time>
      </trkpt>
      <trkpt lat="45.8234" lon="5.10056">
        <ele>206.8</ele>
        <time>2024-09-19T15:44:08Z</time>
      </trkpt>
      <trkpt lat="45.82341" lon="5.10059">
        <ele>207.2</ele>
        <time>2024-09-19T15:44:09Z</time>
      </trkpt>
      <trkpt lat="45.82343" lon="5.10061">
        <ele>207.4</ele>
        <time>2024-09-19T15:44:10Z</time>
      </trkpt>
      <trkpt lat="45.82345" lon="5.10064">
        <ele>207.6</ele>
        <time>2024-09-19T15:44:11Z</time>
      </trkpt>
      <trkpt lat="45.82345" lon="5.10067">
        <ele>207.8</ele>
        <time>2024-09-19T15:44:12Z</time>
      </trkpt>
      <trkpt lat="45.82344" lon="5.10069">
        <ele>207.8</ele>
        <time>2024-09-19T15:44:13Z</time>
      </trkpt>
      <trkpt lat="45.82345" lon="5.1007">
        <ele>207.8</ele>
        <time>2024-09-19T15:44:14Z</time>
      </trkpt>
      <trkpt lat="45.82346" lon="5.10071">
        <ele>207.8</ele>
        <time>2024-09-19T15:44:15Z</time>
      </trkpt>
      <trkpt lat="45.82348" lon="5.1007">
        <ele>207.8</ele>
        <time>2024-09-19T15:44:16Z</time>
      </trkpt>
      <trkpt lat="45.82349" lon="5.10069">
        <ele>207.8</ele>
        <time>2024-09-19T15:44:17Z</time>
      </trkpt>
      <trkpt lat="45.8235" lon="5.10068">
        <ele>207.8</ele>
        <time>2024-09-19T15:44:18Z</time>
      </trkpt>
      <trkpt lat="45.82352" lon="5.10066">
        <ele>207.8</ele>
        <time>2024-09-19T15:44:19Z</time>
      </trkpt>
      <trkpt lat="45.82353" lon="5.10064">
        <ele>207.4</ele>
        <time>2024-09-19T15:44:20Z</time>
      </trkpt>
      <trkpt lat="45.82356" lon="5.10063">
        <ele>207.2</ele>
        <time>2024-09-19T15:44:21Z</time>
      </trkpt>
      <trkpt lat="45.82359" lon="5.10063">
        <ele>207.4</ele>
        <time>2024-09-19T15:44:22Z</time>
      </trkpt>
      <trkpt lat="45.82363" lon="5.10064">
        <ele>207.2</ele>
        <time>2024-09-19T15:44:23Z</time>
      </trkpt>
      <trkpt lat="45.82366" lon="5.10067">
        <ele>207.2</ele>
        <time>2024-09-19T15:44:24Z</time>
      </trkpt>
      <trkpt lat="45.8237" lon="5.1007">
        <ele>207.2</ele>
        <time>2024-09-19T15:44:25Z</time>
      </trkpt>
      <trkpt lat="45.82373" lon="5.10072">
        <ele>206.4</ele>
        <time>2024-09-19T15:44:26Z</time>
      </trkpt>
      <trkpt lat="45.82378" lon="5.10075">
        <ele>206.4</ele>
        <time>2024-09-19T15:44:27Z</time>
      </trkpt>
      <trkpt lat="45.82382" lon="5.10077">
        <ele>206.4</ele>
        <time>2024-09-19T15:44:28Z</time>
      </trkpt>
      <trkpt lat="45.82386" lon="5.1008">
        <ele>206.4</ele>
        <time>2024-09-19T15:44:29Z</time>
      </trkpt>
      <trkpt lat="45.8239" lon="5.10085">
        <ele>206.4</ele>
        <time>2024-09-19T15:44:30Z</time>
      </trkpt>
      <trkpt lat="45.82395" lon="5.10087">
        <ele>206.4</ele>
        <time>2024-09-19T15:44:31Z</time>
      </trkpt>
      <trkpt lat="45.82399" lon="5.1009">
        <ele>206.2</ele>
        <time>2024-09-19T15:44:32Z</time>
      </trkpt>
      <trkpt lat="45.82404" lon="5.10093">
        <ele>206.2</ele>
        <time>2024-09-19T15:44:33Z</time>
      </trkpt>
      <trkpt lat="45.82408" lon="5.10096">
        <ele>205.8</ele>
        <time>2024-09-19T15:44:34Z</time>
      </trkpt>
      <trkpt lat="45.82413" lon="5.10098">
        <ele>205.8</ele>
        <time>2024-09-19T15:44:35Z</time>
      </trkpt>
      <trkpt lat="45.82418" lon="5.10102">
        <ele>205.6</ele>
        <time>2024-09-19T15:44:36Z</time>
      </trkpt>
      <trkpt lat="45.82424" lon="5.10106">
        <ele>205.6</ele>
        <time>2024-09-19T15:44:37Z</time>
      </trkpt>
      <trkpt lat="45.82428" lon="5.1011">
        <ele>205.2</ele>
        <time>2024-09-19T15:44:38Z</time>
      </trkpt>
      <trkpt lat="45.82433" lon="5.10114">
        <ele>205.2</ele>
        <time>2024-09-19T15:44:39Z</time>
      </trkpt>
      <trkpt lat="45.82438" lon="5.10118">
        <ele>205.2</ele>
        <time>2024-09-19T15:44:40Z</time>
      </trkpt>
      <trkpt lat="45.82442" lon="5.10122">
        <ele>205.2</ele>
        <time>2024-09-19T15:44:41Z</time>
      </trkpt>
      <trkpt lat="45.82447" lon="5.10127">
        <ele>205.2</ele>
        <time>2024-09-19T15:44:42Z</time>
      </trkpt>
      <trkpt lat="45.8245" lon="5.10133">
        <ele>205.2</ele>
        <time>2024-09-19T15:44:43Z</time>
      </trkpt>
      <trkpt lat="45.82456" lon="5.10138">
        <ele>205.2</ele>
        <time>2024-09-19T15:44:44Z</time>
      </trkpt>
      <trkpt lat="45.8246" lon="5.10142">
        <ele>205.2</ele>
        <time>2024-09-19T15:44:45Z</time>
      </trkpt>
      <trkpt lat="45.82464" lon="5.10147">
        <ele>205.2</ele>
        <time>2024-09-19T15:44:46Z</time>
      </trkpt>
      <trkpt lat="45.82469" lon="5.1015">
        <ele>205.2</ele>
        <time>2024-09-19T15:44:47Z</time>
      </trkpt>
      <trkpt lat="45.82474" lon="5.10154">
        <ele>205.2</ele>
        <time>2024-09-19T15:44:48Z</time>
      </trkpt>
      <trkpt lat="45.82478" lon="5.10159">
        <ele>205.8</ele>
        <time>2024-09-19T15:44:49Z</time>
      </trkpt>
      <trkpt lat="45.82483" lon="5.10163">
        <ele>205.8</ele>
        <time>2024-09-19T15:44:50Z</time>
      </trkpt>
      <trkpt lat="45.82487" lon="5.10168">
        <ele>206</ele>
        <time>2024-09-19T15:44:51Z</time>
      </trkpt>
      <trkpt lat="45.82491" lon="5.10172">
        <ele>206</ele>
        <time>2024-09-19T15:44:52Z</time>
      </trkpt>
      <trkpt lat="45.82495" lon="5.10177">
        <ele>206</ele>
        <time>2024-09-19T15:44:53Z</time>
      </trkpt>
      <trkpt lat="45.825" lon="5.10181">
        <ele>206.2</ele>
        <time>2024-09-19T15:44:54Z</time>
      </trkpt>
      <trkpt lat="45.82504" lon="5.10185">
        <ele>206.2</ele>
        <time>2024-09-19T15:44:55Z</time>
      </trkpt>
      <trkpt lat="45.82508" lon="5.1019">
        <ele>206.4</ele>
        <time>2024-09-19T15:44:56Z</time>
      </trkpt>
      <trkpt lat="45.82512" lon="5.10193">
        <ele>206.4</ele>
        <time>2024-09-19T15:44:57Z</time>
      </trkpt>
      <trkpt lat="45.82516" lon="5.10197">
        <ele>206.4</ele>
        <time>2024-09-19T15:44:58Z</time>
      </trkpt>
      <trkpt lat="45.8252" lon="5.102">
        <ele>206.8</ele>
        <time>2024-09-19T15:44:59Z</time>
      </trkpt>
      <trkpt lat="45.82524" lon="5.10205">
        <ele>206.8</ele>
        <time>2024-09-19T15:45:00Z</time>
      </trkpt>
      <trkpt lat="45.82528" lon="5.10208">
        <ele>206.8</ele>
        <time>2024-09-19T15:45:01Z</time>
      </trkpt>
      <trkpt lat="45.82533" lon="5.10212">
        <ele>206.8</ele>
        <time>2024-09-19T15:45:02Z</time>
      </trkpt>
      <trkpt lat="45.82537" lon="5.10217">
        <ele>206.8</ele>
        <time>2024-09-19T15:45:03Z</time>
      </trkpt>
      <trkpt lat="45.82541" lon="5.10221">
        <ele>206.8</ele>
        <time>2024-09-19T15:45:04Z</time>
      </trkpt>
      <trkpt lat="45.82546" lon="5.10225">
        <ele>206.8</ele>
        <time>2024-09-19T15:45:05Z</time>
      </trkpt>
      <trkpt lat="45.8255" lon="5.10229">
        <ele>206.8</ele>
        <time>2024-09-19T15:45:06Z</time>
      </trkpt>
      <trkpt lat="45.82553" lon="5.10233">
        <ele>206.8</ele>
        <time>2024-09-19T15:45:07Z</time>
      </trkpt>
      <trkpt lat="45.82557" lon="5.10237">
        <ele>206.8</ele>
        <time>2024-09-19T15:45:08Z</time>
      </trkpt>
      <trkpt lat="45.82562" lon="5.10241">
        <ele>206.8</ele>
        <time>2024-09-19T15:45:09Z</time>
      </trkpt>
      <trkpt lat="45.82566" lon="5.10245">
        <ele>206.8</ele>
        <time>2024-09-19T15:45:10Z</time>
      </trkpt>
      <trkpt lat="45.8257" lon="5.10249">
        <ele>207.2</ele>
        <time>2024-09-19T15:45:11Z</time>
      </trkpt>
      <trkpt lat="45.82575" lon="5.10252">
        <ele>207.2</ele>
        <time>2024-09-19T15:45:12Z</time>
      </trkpt>
      <trkpt lat="45.82579" lon="5.10256">
        <ele>207.2</ele>
        <time>2024-09-19T15:45:13Z</time>
      </trkpt>
      <trkpt lat="45.82584" lon="5.10259">
        <ele>207.2</ele>
        <time>2024-09-19T15:45:14Z</time>
      </trkpt>
      <trkpt lat="45.82589" lon="5.10263">
        <ele>207.2</ele>
        <time>2024-09-19T15:45:15Z</time>
      </trkpt>
      <trkpt lat="45.82595" lon="5.10265">
        <ele>206.8</ele>
        <time>2024-09-19T15:45:16Z</time>
      </trkpt>
      <trkpt lat="45.82599" lon="5.10269">
        <ele>206.8</ele>
        <time>2024-09-19T15:45:17Z</time>
      </trkpt>
      <trkpt lat="45.82605" lon="5.10269">
        <ele>207</ele>
        <time>2024-09-19T15:45:18Z</time>
      </trkpt>
      <trkpt lat="45.82611" lon="5.10271">
        <ele>207</ele>
        <time>2024-09-19T15:45:19Z</time>
      </trkpt>
      <trkpt lat="45.82617" lon="5.10272">
        <ele>207.4</ele>
        <time>2024-09-19T15:45:20Z</time>
      </trkpt>
      <trkpt lat="45.82624" lon="5.10273">
        <ele>207.4</ele>
        <time>2024-09-19T15:45:21Z</time>
      </trkpt>
      <trkpt lat="45.8263" lon="5.10273">
        <ele>207.4</ele>
        <time>2024-09-19T15:45:22Z</time>
      </trkpt>
      <trkpt lat="45.82635" lon="5.10271">
        <ele>207</ele>
        <time>2024-09-19T15:45:23Z</time>
      </trkpt>
      <trkpt lat="45.82641" lon="5.1027">
        <ele>207</ele>
        <time>2024-09-19T15:45:24Z</time>
      </trkpt>
      <trkpt lat="45.82647" lon="5.10268">
        <ele>207</ele>
        <time>2024-09-19T15:45:25Z</time>
      </trkpt>
      <trkpt lat="45.82652" lon="5.10266">
        <ele>207</ele>
        <time>2024-09-19T15:45:26Z</time>
      </trkpt>
      <trkpt lat="45.82658" lon="5.10262">
        <ele>207</ele>
        <time>2024-09-19T15:45:27Z</time>
      </trkpt>
      <trkpt lat="45.82663" lon="5.10258">
        <ele>206.6</ele>
        <time>2024-09-19T15:45:28Z</time>
      </trkpt>
      <trkpt lat="45.82668" lon="5.10255">
        <ele>206.6</ele>
        <time>2024-09-19T15:45:29Z</time>
      </trkpt>
      <trkpt lat="45.82674" lon="5.1025">
        <ele>207</ele>
        <time>2024-09-19T15:45:30Z</time>
      </trkpt>
      <trkpt lat="45.82679" lon="5.10245">
        <ele>207</ele>
        <time>2024-09-19T15:45:31Z</time>
      </trkpt>
      <trkpt lat="45.82685" lon="5.1024">
        <ele>207</ele>
        <time>2024-09-19T15:45:32Z</time>
      </trkpt>
      <trkpt lat="45.8269" lon="5.10234">
        <ele>206.4</ele>
        <time>2024-09-19T15:45:33Z</time>
      </trkpt>
      <trkpt lat="45.82695" lon="5.10228">
        <ele>206.4</ele>
        <time>2024-09-19T15:45:34Z</time>
      </trkpt>
      <trkpt lat="45.827" lon="5.10223">
        <ele>205.6</ele>
        <time>2024-09-19T15:45:35Z</time>
      </trkpt>
      <trkpt lat="45.82706" lon="5.10217">
        <ele>205.2</ele>
        <time>2024-09-19T15:45:36Z</time>
      </trkpt>
      <trkpt lat="45.82711" lon="5.10212">
        <ele>205.2</ele>
        <time>2024-09-19T15:45:37Z</time>
      </trkpt>
      <trkpt lat="45.82717" lon="5.10206">
        <ele>205</ele>
        <time>2024-09-19T15:45:38Z</time>
      </trkpt>
      <trkpt lat="45.82722" lon="5.102">
        <ele>205.4</ele>
        <time>2024-09-19T15:45:39Z</time>
      </trkpt>
      <trkpt lat="45.82727" lon="5.10195">
        <ele>205.6</ele>
        <time>2024-09-19T15:45:40Z</time>
      </trkpt>
      <trkpt lat="45.82733" lon="5.10189">
        <ele>206</ele>
        <time>2024-09-19T15:45:41Z</time>
      </trkpt>
      <trkpt lat="45.82738" lon="5.10184">
        <ele>206</ele>
        <time>2024-09-19T15:45:42Z</time>
      </trkpt>
      <trkpt lat="45.82743" lon="5.10179">
        <ele>206</ele>
        <time>2024-09-19T15:45:43Z</time>
      </trkpt>
      <trkpt lat="45.82749" lon="5.10174">
        <ele>206</ele>
        <time>2024-09-19T15:45:44Z</time>
      </trkpt>
      <trkpt lat="45.82753" lon="5.10169">
        <ele>206</ele>
        <time>2024-09-19T15:45:45Z</time>
      </trkpt>
      <trkpt lat="45.82759" lon="5.10164">
        <ele>206</ele>
        <time>2024-09-19T15:45:46Z</time>
      </trkpt>
      <trkpt lat="45.82764" lon="5.10159">
        <ele>206</ele>
        <time>2024-09-19T15:45:47Z</time>
      </trkpt>
      <trkpt lat="45.82769" lon="5.10154">
        <ele>206</ele>
        <time>2024-09-19T15:45:48Z</time>
      </trkpt>
      <trkpt lat="45.82774" lon="5.1015">
        <ele>206</ele>
        <time>2024-09-19T15:45:49Z</time>
      </trkpt>
      <trkpt lat="45.82779" lon="5.10145">
        <ele>206</ele>
        <time>2024-09-19T15:45:50Z</time>
      </trkpt>
      <trkpt lat="45.82783" lon="5.10141">
        <ele>206</ele>
        <time>2024-09-19T15:45:51Z</time>
      </trkpt>
      <trkpt lat="45.82788" lon="5.10136">
        <ele>206</ele>
        <time>2024-09-19T15:45:52Z</time>
      </trkpt>
      <trkpt lat="45.82792" lon="5.10132">
        <ele>206.2</ele>
        <time>2024-09-19T15:45:53Z</time>
      </trkpt>
      <trkpt lat="45.82796" lon="5.10127">
        <ele>206.2</ele>
        <time>2024-09-19T15:45:54Z</time>
      </trkpt>
      <trkpt lat="45.828" lon="5.10122">
        <ele>206.2</ele>
        <time>2024-09-19T15:45:55Z</time>
      </trkpt>
      <trkpt lat="45.82805" lon="5.10117">
        <ele>206</ele>
        <time>2024-09-19T15:45:56Z</time>
      </trkpt>
      <trkpt lat="45.82809" lon="5.10113">
        <ele>206</ele>
        <time>2024-09-19T15:45:57Z</time>
      </trkpt>
      <trkpt lat="45.82813" lon="5.10108">
        <ele>206</ele>
        <time>2024-09-19T15:45:58Z</time>
      </trkpt>
      <trkpt lat="45.82816" lon="5.10102">
        <ele>206</ele>
        <time>2024-09-19T15:45:59Z</time>
      </trkpt>
      <trkpt lat="45.8282" lon="5.10097">
        <ele>206.2</ele>
        <time>2024-09-19T15:46:00Z</time>
      </trkpt>
      <trkpt lat="45.82824" lon="5.10091">
        <ele>206.2</ele>
        <time>2024-09-19T15:46:01Z</time>
      </trkpt>
      <trkpt lat="45.82827" lon="5.10085">
        <ele>206.8</ele>
        <time>2024-09-19T15:46:02Z</time>
      </trkpt>
      <trkpt lat="45.82829" lon="5.10078">
        <ele>206.8</ele>
        <time>2024-09-19T15:46:03Z</time>
      </trkpt>
      <trkpt lat="45.82832" lon="5.10072">
        <ele>206.8</ele>
        <time>2024-09-19T15:46:04Z</time>
      </trkpt>
      <trkpt lat="45.82835" lon="5.10066">
        <ele>206.8</ele>
        <time>2024-09-19T15:46:05Z</time>
      </trkpt>
      <trkpt lat="45.82838" lon="5.1006">
        <ele>206.8</ele>
        <time>2024-09-19T15:46:06Z</time>
      </trkpt>
      <trkpt lat="45.8284" lon="5.10053">
        <ele>206.8</ele>
        <time>2024-09-19T15:46:07Z</time>
      </trkpt>
      <trkpt lat="45.82843" lon="5.10047">
        <ele>206.8</ele>
        <time>2024-09-19T15:46:08Z</time>
      </trkpt>
      <trkpt lat="45.82847" lon="5.10041">
        <ele>207</ele>
        <time>2024-09-19T15:46:09Z</time>
      </trkpt>
      <trkpt lat="45.82851" lon="5.10036">
        <ele>207</ele>
        <time>2024-09-19T15:46:10Z</time>
      </trkpt>
      <trkpt lat="45.82853" lon="5.10029">
        <ele>206.8</ele>
        <time>2024-09-19T15:46:11Z</time>
      </trkpt>
      <trkpt lat="45.82856" lon="5.10022">
        <ele>206.8</ele>
        <time>2024-09-19T15:46:12Z</time>
      </trkpt>
      <trkpt lat="45.82858" lon="5.10016">
        <ele>206.8</ele>
        <time>2024-09-19T15:46:13Z</time>
      </trkpt>
      <trkpt lat="45.8286" lon="5.10009">
        <ele>206.8</ele>
        <time>2024-09-19T15:46:14Z</time>
      </trkpt>
      <trkpt lat="45.82863" lon="5.10001">
        <ele>207.2</ele>
        <time>2024-09-19T15:46:15Z</time>
      </trkpt>
      <trkpt lat="45.82865" lon="5.09994">
        <ele>206.8</ele>
        <time>2024-09-19T15:46:16Z</time>
      </trkpt>
      <trkpt lat="45.82868" lon="5.09988">
        <ele>206.6</ele>
        <time>2024-09-19T15:46:17Z</time>
      </trkpt>
      <trkpt lat="45.82871" lon="5.09981">
        <ele>206.4</ele>
        <time>2024-09-19T15:46:18Z</time>
      </trkpt>
      <trkpt lat="45.82871" lon="5.09981">
        <ele>206.4</ele>
        <time>2024-09-19T15:46:19Z</time>
      </trkpt>
      <trkpt lat="45.82873" lon="5.09974">
        <ele>206.4</ele>
        <time>2024-09-19T15:46:20Z</time>
      </trkpt>
      <trkpt lat="45.82875" lon="5.09967">
        <ele>206.8</ele>
        <time>2024-09-19T15:46:21Z</time>
      </trkpt>
      <trkpt lat="45.82877" lon="5.0996">
        <ele>206.8</ele>
        <time>2024-09-19T15:46:22Z</time>
      </trkpt>
      <trkpt lat="45.8288" lon="5.09953">
        <ele>206.4</ele>
        <time>2024-09-19T15:46:23Z</time>
      </trkpt>
      <trkpt lat="45.82882" lon="5.09946">
        <ele>206.8</ele>
        <time>2024-09-19T15:46:24Z</time>
      </trkpt>
      <trkpt lat="45.82886" lon="5.09939">
        <ele>206.8</ele>
        <time>2024-09-19T15:46:25Z</time>
      </trkpt>
      <trkpt lat="45.82887" lon="5.09931">
        <ele>206.6</ele>
        <time>2024-09-19T15:46:26Z</time>
      </trkpt>
      <trkpt lat="45.82889" lon="5.09923">
        <ele>206.6</ele>
        <time>2024-09-19T15:46:27Z</time>
      </trkpt>
      <trkpt lat="45.82891" lon="5.09918">
        <ele>206.6</ele>
        <time>2024-09-19T15:46:28Z</time>
      </trkpt>
      <trkpt lat="45.82892" lon="5.09911">
        <ele>206.6</ele>
        <time>2024-09-19T15:46:29Z</time>
      </trkpt>
      <trkpt lat="45.82897" lon="5.09901">
        <ele>206.6</ele>
        <time>2024-09-19T15:46:30Z</time>
      </trkpt>
      <trkpt lat="45.82898" lon="5.09898">
        <ele>206.6</ele>
        <time>2024-09-19T15:46:31Z</time>
      </trkpt>
      <trkpt lat="45.829" lon="5.09892">
        <ele>206.6</ele>
        <time>2024-09-19T15:46:32Z</time>
      </trkpt>
      <trkpt lat="45.82903" lon="5.09888">
        <ele>206.2</ele>
        <time>2024-09-19T15:46:33Z</time>
      </trkpt>
      <trkpt lat="45.82903" lon="5.09888">
        <ele>206.8</ele>
        <time>2024-09-19T15:46:34Z</time>
      </trkpt>
      <trkpt lat="45.82903" lon="5.09888">
        <ele>206.4</ele>
        <time>2024-09-19T15:46:35Z</time>
      </trkpt>
      <trkpt lat="45.8291" lon="5.09874">
        <ele>207</ele>
        <time>2024-09-19T15:46:37Z</time>
      </trkpt>
      <trkpt lat="45.82913" lon="5.09864">
        <ele>207</ele>
        <time>2024-09-19T15:46:38Z</time>
      </trkpt>
      <trkpt lat="45.82915" lon="5.09858">
        <ele>207</ele>
        <time>2024-09-19T15:46:39Z</time>
      </trkpt>
      <trkpt lat="45.82918" lon="5.09852">
        <ele>207</ele>
        <time>2024-09-19T15:46:40Z</time>
      </trkpt>
      <trkpt lat="45.82921" lon="5.09848">
        <ele>207</ele>
        <time>2024-09-19T15:46:41Z</time>
      </trkpt>
      <trkpt lat="45.82925" lon="5.09843">
        <ele>207.2</ele>
        <time>2024-09-19T15:46:42Z</time>
      </trkpt>
      <trkpt lat="45.82928" lon="5.09838">
        <ele>206.8</ele>
        <time>2024-09-19T15:46:43Z</time>
      </trkpt>
      <trkpt lat="45.82931" lon="5.09833">
        <ele>206.8</ele>
        <time>2024-09-19T15:46:44Z</time>
      </trkpt>
      <trkpt lat="45.82935" lon="5.09829">
        <ele>206.8</ele>
        <time>2024-09-19T15:46:45Z</time>
      </trkpt>
      <trkpt lat="45.82939" lon="5.09823">
        <ele>206.8</ele>
        <time>2024-09-19T15:46:46Z</time>
      </trkpt>
      <trkpt lat="45.82942" lon="5.09818">
        <ele>206.8</ele>
        <time>2024-09-19T15:46:47Z</time>
      </trkpt>
      <trkpt lat="45.82945" lon="5.09814">
        <ele>206.8</ele>
        <time>2024-09-19T15:46:48Z</time>
      </trkpt>
      <trkpt lat="45.82949" lon="5.09809">
        <ele>207</ele>
        <time>2024-09-19T15:46:49Z</time>
      </trkpt>
      <trkpt lat="45.82953" lon="5.09804">
        <ele>207</ele>
        <time>2024-09-19T15:46:50Z</time>
      </trkpt>
      <trkpt lat="45.82956" lon="5.09799">
        <ele>207</ele>
        <time>2024-09-19T15:46:51Z</time>
      </trkpt>
      <trkpt lat="45.8296" lon="5.09795">
        <ele>207</ele>
        <time>2024-09-19T15:46:52Z</time>
      </trkpt>
      <trkpt lat="45.82964" lon="5.0979">
        <ele>206.8</ele>
        <time>2024-09-19T15:46:53Z</time>
      </trkpt>
      <trkpt lat="45.82968" lon="5.09786">
        <ele>206.8</ele>
        <time>2024-09-19T15:46:54Z</time>
      </trkpt>
      <trkpt lat="45.82971" lon="5.09781">
        <ele>206.4</ele>
        <time>2024-09-19T15:46:55Z</time>
      </trkpt>
      <trkpt lat="45.82975" lon="5.09776">
        <ele>206.4</ele>
        <time>2024-09-19T15:46:56Z</time>
      </trkpt>
      <trkpt lat="45.82979" lon="5.09771">
        <ele>206.4</ele>
        <time>2024-09-19T15:46:57Z</time>
      </trkpt>
      <trkpt lat="45.82983" lon="5.09766">
        <ele>206.4</ele>
        <time>2024-09-19T15:46:58Z</time>
      </trkpt>
      <trkpt lat="45.82986" lon="5.09761">
        <ele>206.6</ele>
        <time>2024-09-19T15:46:59Z</time>
      </trkpt>
      <trkpt lat="45.82986" lon="5.09761">
        <ele>206.6</ele>
        <time>2024-09-19T15:47:00Z</time>
      </trkpt>
      <trkpt lat="45.82994" lon="5.09752">
        <ele>206.6</ele>
        <time>2024-09-19T15:47:01Z</time>
      </trkpt>
      <trkpt lat="45.82998" lon="5.09747">
        <ele>206.2</ele>
        <time>2024-09-19T15:47:02Z</time>
      </trkpt>
      <trkpt lat="45.83001" lon="5.09742">
        <ele>206.2</ele>
        <time>2024-09-19T15:47:03Z</time>
      </trkpt>
      <trkpt lat="45.83004" lon="5.09738">
        <ele>206.4</ele>
        <time>2024-09-19T15:47:04Z</time>
      </trkpt>
      <trkpt lat="45.83007" lon="5.09733">
        <ele>206.4</ele>
        <time>2024-09-19T15:47:05Z</time>
      </trkpt>
      <trkpt lat="45.8301" lon="5.0973">
        <ele>206.8</ele>
        <time>2024-09-19T15:47:06Z</time>
      </trkpt>
      <trkpt lat="45.83013" lon="5.09728">
        <ele>207.2</ele>
        <time>2024-09-19T15:47:07Z</time>
      </trkpt>
      <trkpt lat="45.83016" lon="5.09726">
        <ele>207.4</ele>
        <time>2024-09-19T15:47:08Z</time>
      </trkpt>
      <trkpt lat="45.83018" lon="5.09724">
        <ele>207.4</ele>
        <time>2024-09-19T15:47:09Z</time>
      </trkpt>
      <trkpt lat="45.8302" lon="5.09721">
        <ele>207.8</ele>
        <time>2024-09-19T15:47:10Z</time>
      </trkpt>
      <trkpt lat="45.83023" lon="5.09717">
        <ele>207.8</ele>
        <time>2024-09-19T15:47:11Z</time>
      </trkpt>
      <trkpt lat="45.83025" lon="5.09713">
        <ele>207.8</ele>
        <time>2024-09-19T15:47:12Z</time>
      </trkpt>
      <trkpt lat="45.83029" lon="5.0971">
        <ele>207.8</ele>
        <time>2024-09-19T15:47:13Z</time>
      </trkpt>
      <trkpt lat="45.83032" lon="5.09708">
        <ele>207.8</ele>
        <time>2024-09-19T15:47:14Z</time>
      </trkpt>
      <trkpt lat="45.83036" lon="5.09706">
        <ele>207.8</ele>
        <time>2024-09-19T15:47:15Z</time>
      </trkpt>
      <trkpt lat="45.83039" lon="5.09703">
        <ele>207.8</ele>
        <time>2024-09-19T15:47:16Z</time>
      </trkpt>
      <trkpt lat="45.83043" lon="5.09701">
        <ele>207.8</ele>
        <time>2024-09-19T15:47:17Z</time>
      </trkpt>
      <trkpt lat="45.83047" lon="5.09699">
        <ele>207.8</ele>
        <time>2024-09-19T15:47:18Z</time>
      </trkpt>
      <trkpt lat="45.83051" lon="5.09697">
        <ele>207.4</ele>
        <time>2024-09-19T15:47:19Z</time>
      </trkpt>
      <trkpt lat="45.83055" lon="5.09694">
        <ele>207.4</ele>
        <time>2024-09-19T15:47:20Z</time>
      </trkpt>
      <trkpt lat="45.83059" lon="5.09692">
        <ele>207.4</ele>
        <time>2024-09-19T15:47:21Z</time>
      </trkpt>
      <trkpt lat="45.83063" lon="5.09689">
        <ele>207.4</ele>
        <time>2024-09-19T15:47:22Z</time>
      </trkpt>
      <trkpt lat="45.83068" lon="5.09687">
        <ele>207.4</ele>
        <time>2024-09-19T15:47:23Z</time>
      </trkpt>
      <trkpt lat="45.83072" lon="5.09685">
        <ele>207.4</ele>
        <time>2024-09-19T15:47:24Z</time>
      </trkpt>
      <trkpt lat="45.83077" lon="5.09684">
        <ele>207.4</ele>
        <time>2024-09-19T15:47:25Z</time>
      </trkpt>
      <trkpt lat="45.83082" lon="5.09682">
        <ele>207.8</ele>
        <time>2024-09-19T15:47:26Z</time>
      </trkpt>
      <trkpt lat="45.83086" lon="5.09682">
        <ele>207.8</ele>
        <time>2024-09-19T15:47:27Z</time>
      </trkpt>
      <trkpt lat="45.83091" lon="5.0968">
        <ele>207.4</ele>
        <time>2024-09-19T15:47:28Z</time>
      </trkpt>
      <trkpt lat="45.83096" lon="5.09678">
        <ele>207.4</ele>
        <time>2024-09-19T15:47:29Z</time>
      </trkpt>
      <trkpt lat="45.83101" lon="5.09675">
        <ele>207.4</ele>
        <time>2024-09-19T15:47:30Z</time>
      </trkpt>
      <trkpt lat="45.83106" lon="5.09673">
        <ele>207.4</ele>
        <time>2024-09-19T15:47:31Z</time>
      </trkpt>
      <trkpt lat="45.83112" lon="5.09671">
        <ele>207.4</ele>
        <time>2024-09-19T15:47:32Z</time>
      </trkpt>
      <trkpt lat="45.83117" lon="5.09669">
        <ele>207.4</ele>
        <time>2024-09-19T15:47:33Z</time>
      </trkpt>
      <trkpt lat="45.83122" lon="5.09666">
        <ele>207.4</ele>
        <time>2024-09-19T15:47:34Z</time>
      </trkpt>
      <trkpt lat="45.83127" lon="5.09664">
        <ele>207.4</ele>
        <time>2024-09-19T15:47:35Z</time>
      </trkpt>
      <trkpt lat="45.83133" lon="5.09662">
        <ele>207.2</ele>
        <time>2024-09-19T15:47:36Z</time>
      </trkpt>
      <trkpt lat="45.83138" lon="5.09659">
        <ele>207.2</ele>
        <time>2024-09-19T15:47:37Z</time>
      </trkpt>
      <trkpt lat="45.83143" lon="5.09657">
        <ele>207.2</ele>
        <time>2024-09-19T15:47:38Z</time>
      </trkpt>
      <trkpt lat="45.83149" lon="5.09655">
        <ele>206.8</ele>
        <time>2024-09-19T15:47:39Z</time>
      </trkpt>
      <trkpt lat="45.83154" lon="5.09652">
        <ele>206.8</ele>
        <time>2024-09-19T15:47:40Z</time>
      </trkpt>
      <trkpt lat="45.83159" lon="5.0965">
        <ele>206.8</ele>
        <time>2024-09-19T15:47:41Z</time>
      </trkpt>
      <trkpt lat="45.83165" lon="5.09648">
        <ele>206.8</ele>
        <time>2024-09-19T15:47:42Z</time>
      </trkpt>
      <trkpt lat="45.8317" lon="5.09645">
        <ele>206.8</ele>
        <time>2024-09-19T15:47:43Z</time>
      </trkpt>
      <trkpt lat="45.83175" lon="5.09643">
        <ele>206.8</ele>
        <time>2024-09-19T15:47:44Z</time>
      </trkpt>
      <trkpt lat="45.8318" lon="5.0964">
        <ele>206.8</ele>
        <time>2024-09-19T15:47:45Z</time>
      </trkpt>
      <trkpt lat="45.83185" lon="5.09639">
        <ele>206.8</ele>
        <time>2024-09-19T15:47:46Z</time>
      </trkpt>
      <trkpt lat="45.83189" lon="5.09634">
        <ele>206.8</ele>
        <time>2024-09-19T15:47:47Z</time>
      </trkpt>
      <trkpt lat="45.83194" lon="5.09631">
        <ele>206.8</ele>
        <time>2024-09-19T15:47:48Z</time>
      </trkpt>
      <trkpt lat="45.83199" lon="5.09627">
        <ele>206.8</ele>
        <time>2024-09-19T15:47:49Z</time>
      </trkpt>
      <trkpt lat="45.83204" lon="5.09623">
        <ele>206.8</ele>
        <time>2024-09-19T15:47:50Z</time>
      </trkpt>
      <trkpt lat="45.83208" lon="5.09619">
        <ele>206.4</ele>
        <time>2024-09-19T15:47:51Z</time>
      </trkpt>
      <trkpt lat="45.83213" lon="5.09614">
        <ele>206.4</ele>
        <time>2024-09-19T15:47:52Z</time>
      </trkpt>
      <trkpt lat="45.83217" lon="5.0961">
        <ele>206.8</ele>
        <time>2024-09-19T15:47:53Z</time>
      </trkpt>
      <trkpt lat="45.83222" lon="5.09606">
        <ele>206.8</ele>
        <time>2024-09-19T15:47:54Z</time>
      </trkpt>
      <trkpt lat="45.83227" lon="5.09602">
        <ele>207</ele>
        <time>2024-09-19T15:47:55Z</time>
      </trkpt>
      <trkpt lat="45.83232" lon="5.09598">
        <ele>206.8</ele>
        <time>2024-09-19T15:47:56Z</time>
      </trkpt>
      <trkpt lat="45.83237" lon="5.09595">
        <ele>206.8</ele>
        <time>2024-09-19T15:47:57Z</time>
      </trkpt>
      <trkpt lat="45.83241" lon="5.09592">
        <ele>206.8</ele>
        <time>2024-09-19T15:47:58Z</time>
      </trkpt>
      <trkpt lat="45.83246" lon="5.0959">
        <ele>207.2</ele>
        <time>2024-09-19T15:47:59Z</time>
      </trkpt>
      <trkpt lat="45.83251" lon="5.09588">
        <ele>207.4</ele>
        <time>2024-09-19T15:48:00Z</time>
      </trkpt>
      <trkpt lat="45.83255" lon="5.09586">
        <ele>207.4</ele>
        <time>2024-09-19T15:48:01Z</time>
      </trkpt>
      <trkpt lat="45.8326" lon="5.09585">
        <ele>207.8</ele>
        <time>2024-09-19T15:48:02Z</time>
      </trkpt>
      <trkpt lat="45.83264" lon="5.09585">
        <ele>207.8</ele>
        <time>2024-09-19T15:48:03Z</time>
      </trkpt>
      <trkpt lat="45.83269" lon="5.09584">
        <ele>207.8</ele>
        <time>2024-09-19T15:48:04Z</time>
      </trkpt>
      <trkpt lat="45.83273" lon="5.09582">
        <ele>208.2</ele>
        <time>2024-09-19T15:48:05Z</time>
      </trkpt>
      <trkpt lat="45.83277" lon="5.09582">
        <ele>208.2</ele>
        <time>2024-09-19T15:48:06Z</time>
      </trkpt>
      <trkpt lat="45.83281" lon="5.09581">
        <ele>208.6</ele>
        <time>2024-09-19T15:48:07Z</time>
      </trkpt>
      <trkpt lat="45.83285" lon="5.09581">
        <ele>208.8</ele>
        <time>2024-09-19T15:48:08Z</time>
      </trkpt>
      <trkpt lat="45.83289" lon="5.0958">
        <ele>208.8</ele>
        <time>2024-09-19T15:48:09Z</time>
      </trkpt>
      <trkpt lat="45.83292" lon="5.09579">
        <ele>209.2</ele>
        <time>2024-09-19T15:48:10Z</time>
      </trkpt>
      <trkpt lat="45.83296" lon="5.09578">
        <ele>209.4</ele>
        <time>2024-09-19T15:48:11Z</time>
      </trkpt>
      <trkpt lat="45.83299" lon="5.09577">
        <ele>209.8</ele>
        <time>2024-09-19T15:48:12Z</time>
      </trkpt>
      <trkpt lat="45.83302" lon="5.09574">
        <ele>210</ele>
        <time>2024-09-19T15:48:13Z</time>
      </trkpt>
      <trkpt lat="45.83306" lon="5.09573">
        <ele>210.2</ele>
        <time>2024-09-19T15:48:14Z</time>
      </trkpt>
      <trkpt lat="45.83309" lon="5.09571">
        <ele>210.6</ele>
        <time>2024-09-19T15:48:15Z</time>
      </trkpt>
      <trkpt lat="45.83312" lon="5.09571">
        <ele>211</ele>
        <time>2024-09-19T15:48:16Z</time>
      </trkpt>
      <trkpt lat="45.83315" lon="5.09569">
        <ele>211.2</ele>
        <time>2024-09-19T15:48:17Z</time>
      </trkpt>
      <trkpt lat="45.83318" lon="5.09568">
        <ele>211.2</ele>
        <time>2024-09-19T15:48:18Z</time>
      </trkpt>
      <trkpt lat="45.8332" lon="5.09566">
        <ele>211.8</ele>
        <time>2024-09-19T15:48:19Z</time>
      </trkpt>
      <trkpt lat="45.83323" lon="5.09564">
        <ele>211.8</ele>
        <time>2024-09-19T15:48:20Z</time>
      </trkpt>
      <trkpt lat="45.83326" lon="5.09563">
        <ele>212.2</ele>
        <time>2024-09-19T15:48:21Z</time>
      </trkpt>
      <trkpt lat="45.83328" lon="5.09562">
        <ele>212.6</ele>
        <time>2024-09-19T15:48:22Z</time>
      </trkpt>
      <trkpt lat="45.8333" lon="5.0956">
        <ele>212.6</ele>
        <time>2024-09-19T15:48:23Z</time>
      </trkpt>
      <trkpt lat="45.83333" lon="5.09558">
        <ele>212.8</ele>
        <time>2024-09-19T15:48:24Z</time>
      </trkpt>
      <trkpt lat="45.83335" lon="5.09557">
        <ele>213</ele>
        <time>2024-09-19T15:48:25Z</time>
      </trkpt>
      <trkpt lat="45.83338" lon="5.09556">
        <ele>213.4</ele>
        <time>2024-09-19T15:48:26Z</time>
      </trkpt>
      <trkpt lat="45.8334" lon="5.09554">
        <ele>213.6</ele>
        <time>2024-09-19T15:48:27Z</time>
      </trkpt>
      <trkpt lat="45.83343" lon="5.09553">
        <ele>213.6</ele>
        <time>2024-09-19T15:48:28Z</time>
      </trkpt>
      <trkpt lat="45.83345" lon="5.09552">
        <ele>213.8</ele>
        <time>2024-09-19T15:48:29Z</time>
      </trkpt>
      <trkpt lat="45.83347" lon="5.09551">
        <ele>213.8</ele>
        <time>2024-09-19T15:48:30Z</time>
      </trkpt>
      <trkpt lat="45.8335" lon="5.0955">
        <ele>213.8</ele>
        <time>2024-09-19T15:48:31Z</time>
      </trkpt>
      <trkpt lat="45.83352" lon="5.09548">
        <ele>214.2</ele>
        <time>2024-09-19T15:48:32Z</time>
      </trkpt>
      <trkpt lat="45.83355" lon="5.09547">
        <ele>214.2</ele>
        <time>2024-09-19T15:48:33Z</time>
      </trkpt>
      <trkpt lat="45.83357" lon="5.09546">
        <ele>214.4</ele>
        <time>2024-09-19T15:48:34Z</time>
      </trkpt>
      <trkpt lat="45.83359" lon="5.09545">
        <ele>214.4</ele>
        <time>2024-09-19T15:48:35Z</time>
      </trkpt>
      <trkpt lat="45.83361" lon="5.09545">
        <ele>214.4</ele>
        <time>2024-09-19T15:48:36Z</time>
      </trkpt>
      <trkpt lat="45.83362" lon="5.09546">
        <ele>214.6</ele>
        <time>2024-09-19T15:48:37Z</time>
      </trkpt>
      <trkpt lat="45.83364" lon="5.09546">
        <ele>214.6</ele>
        <time>2024-09-19T15:48:38Z</time>
      </trkpt>
      <trkpt lat="45.83366" lon="5.09547">
        <ele>214.8</ele>
        <time>2024-09-19T15:48:39Z</time>
      </trkpt>
      <trkpt lat="45.83368" lon="5.09547">
        <ele>214.8</ele>
        <time>2024-09-19T15:48:40Z</time>
      </trkpt>
      <trkpt lat="45.83371" lon="5.09546">
        <ele>214.8</ele>
        <time>2024-09-19T15:48:41Z</time>
      </trkpt>
      <trkpt lat="45.83373" lon="5.09546">
        <ele>215.2</ele>
        <time>2024-09-19T15:48:42Z</time>
      </trkpt>
      <trkpt lat="45.83376" lon="5.09546">
        <ele>215.2</ele>
        <time>2024-09-19T15:48:43Z</time>
      </trkpt>
      <trkpt lat="45.83378" lon="5.09545">
        <ele>215.2</ele>
        <time>2024-09-19T15:48:44Z</time>
      </trkpt>
      <trkpt lat="45.83381" lon="5.09544">
        <ele>214.8</ele>
        <time>2024-09-19T15:48:45Z</time>
      </trkpt>
      <trkpt lat="45.83383" lon="5.09544">
        <ele>214.8</ele>
        <time>2024-09-19T15:48:46Z</time>
      </trkpt>
      <trkpt lat="45.83386" lon="5.09543">
        <ele>214.8</ele>
        <time>2024-09-19T15:48:47Z</time>
      </trkpt>
      <trkpt lat="45.83389" lon="5.09543">
        <ele>214.8</ele>
        <time>2024-09-19T15:48:48Z</time>
      </trkpt>
      <trkpt lat="45.83392" lon="5.09542">
        <ele>214.8</ele>
        <time>2024-09-19T15:48:49Z</time>
      </trkpt>
      <trkpt lat="45.83395" lon="5.09541">
        <ele>214.8</ele>
        <time>2024-09-19T15:48:50Z</time>
      </trkpt>
      <trkpt lat="45.83399" lon="5.0954">
        <ele>214.4</ele>
        <time>2024-09-19T15:48:51Z</time>
      </trkpt>
      <trkpt lat="45.83402" lon="5.09539">
        <ele>214.4</ele>
        <time>2024-09-19T15:48:52Z</time>
      </trkpt>
      <trkpt lat="45.83406" lon="5.09538">
        <ele>214.2</ele>
        <time>2024-09-19T15:48:53Z</time>
      </trkpt>
      <trkpt lat="45.8341" lon="5.09537">
        <ele>214.2</ele>
        <time>2024-09-19T15:48:54Z</time>
      </trkpt>
      <trkpt lat="45.83414" lon="5.09536">
        <ele>214.2</ele>
        <time>2024-09-19T15:48:55Z</time>
      </trkpt>
      <trkpt lat="45.83418" lon="5.09535">
        <ele>214</ele>
        <time>2024-09-19T15:48:56Z</time>
      </trkpt>
      <trkpt lat="45.83422" lon="5.09534">
        <ele>213.6</ele>
        <time>2024-09-19T15:48:57Z</time>
      </trkpt>
      <trkpt lat="45.83427" lon="5.09533">
        <ele>213.6</ele>
        <time>2024-09-19T15:48:58Z</time>
      </trkpt>
      <trkpt lat="45.83431" lon="5.09532">
        <ele>214</ele>
        <time>2024-09-19T15:48:59Z</time>
      </trkpt>
      <trkpt lat="45.83435" lon="5.09531">
        <ele>214</ele>
        <time>2024-09-19T15:49:00Z</time>
      </trkpt>
      <trkpt lat="45.83439" lon="5.0953">
        <ele>214</ele>
        <time>2024-09-19T15:49:01Z</time>
      </trkpt>
      <trkpt lat="45.83443" lon="5.09528">
        <ele>214</ele>
        <time>2024-09-19T15:49:02Z</time>
      </trkpt>
      <trkpt lat="45.83447" lon="5.09527">
        <ele>214</ele>
        <time>2024-09-19T15:49:03Z</time>
      </trkpt>
      <trkpt lat="45.8345" lon="5.09526">
        <ele>214</ele>
        <time>2024-09-19T15:49:04Z</time>
      </trkpt>
      <trkpt lat="45.83454" lon="5.09526">
        <ele>214.2</ele>
        <time>2024-09-19T15:49:05Z</time>
      </trkpt>
      <trkpt lat="45.83458" lon="5.09525">
        <ele>214.2</ele>
        <time>2024-09-19T15:49:06Z</time>
      </trkpt>
      <trkpt lat="45.83461" lon="5.09524">
        <ele>214.6</ele>
        <time>2024-09-19T15:49:07Z</time>
      </trkpt>
      <trkpt lat="45.83464" lon="5.09523">
        <ele>214.6</ele>
        <time>2024-09-19T15:49:08Z</time>
      </trkpt>
      <trkpt lat="45.83467" lon="5.09523">
        <ele>215</ele>
        <time>2024-09-19T15:49:09Z</time>
      </trkpt>
      <trkpt lat="45.8347" lon="5.09522">
        <ele>215</ele>
        <time>2024-09-19T15:49:10Z</time>
      </trkpt>
      <trkpt lat="45.83474" lon="5.09521">
        <ele>215</ele>
        <time>2024-09-19T15:49:11Z</time>
      </trkpt>
      <trkpt lat="45.83477" lon="5.09521">
        <ele>214.8</ele>
        <time>2024-09-19T15:49:12Z</time>
      </trkpt>
      <trkpt lat="45.83481" lon="5.09519">
        <ele>214.8</ele>
        <time>2024-09-19T15:49:13Z</time>
      </trkpt>
      <trkpt lat="45.83484" lon="5.09518">
        <ele>214.8</ele>
        <time>2024-09-19T15:49:14Z</time>
      </trkpt>
      <trkpt lat="45.83488" lon="5.09518">
        <ele>214.4</ele>
        <time>2024-09-19T15:49:15Z</time>
      </trkpt>
      <trkpt lat="45.83492" lon="5.09517">
        <ele>214.4</ele>
        <time>2024-09-19T15:49:16Z</time>
      </trkpt>
      <trkpt lat="45.83496" lon="5.09517">
        <ele>214.4</ele>
        <time>2024-09-19T15:49:17Z</time>
      </trkpt>
      <trkpt lat="45.835" lon="5.09516">
        <ele>214.4</ele>
        <time>2024-09-19T15:49:18Z</time>
      </trkpt>
      <trkpt lat="45.83504" lon="5.09515">
        <ele>214.4</ele>
        <time>2024-09-19T15:49:19Z</time>
      </trkpt>
      <trkpt lat="45.83508" lon="5.09515">
        <ele>214.4</ele>
        <time>2024-09-19T15:49:20Z</time>
      </trkpt>
      <trkpt lat="45.83512" lon="5.09514">
        <ele>214.2</ele>
        <time>2024-09-19T15:49:21Z</time>
      </trkpt>
      <trkpt lat="45.83516" lon="5.09513">
        <ele>214.2</ele>
        <time>2024-09-19T15:49:22Z</time>
      </trkpt>
      <trkpt lat="45.8352" lon="5.09513">
        <ele>214.4</ele>
        <time>2024-09-19T15:49:23Z</time>
      </trkpt>
      <trkpt lat="45.83524" lon="5.09513">
        <ele>214.4</ele>
        <time>2024-09-19T15:49:24Z</time>
      </trkpt>
      <trkpt lat="45.83528" lon="5.09513">
        <ele>214.8</ele>
        <time>2024-09-19T15:49:25Z</time>
      </trkpt>
      <trkpt lat="45.83531" lon="5.09513">
        <ele>214.8</ele>
        <time>2024-09-19T15:49:26Z</time>
      </trkpt>
      <trkpt lat="45.83531" lon="5.09513">
        <ele>215</ele>
        <time>2024-09-19T15:49:27Z</time>
      </trkpt>
      <trkpt lat="45.83535" lon="5.09512">
        <ele>215</ele>
        <time>2024-09-19T15:49:28Z</time>
      </trkpt>
      <trkpt lat="45.83539" lon="5.09511">
        <ele>215.2</ele>
        <time>2024-09-19T15:49:29Z</time>
      </trkpt>
      <trkpt lat="45.83542" lon="5.0951">
        <ele>215.4</ele>
        <time>2024-09-19T15:49:30Z</time>
      </trkpt>
      <trkpt lat="45.83545" lon="5.0951">
        <ele>215.4</ele>
        <time>2024-09-19T15:49:31Z</time>
      </trkpt>
      <trkpt lat="45.83547" lon="5.09509">
        <ele>215.4</ele>
        <time>2024-09-19T15:49:32Z</time>
      </trkpt>
      <trkpt lat="45.8355" lon="5.09508">
        <ele>215.8</ele>
        <time>2024-09-19T15:49:33Z</time>
      </trkpt>
      <trkpt lat="45.83553" lon="5.09507">
        <ele>215.4</ele>
        <time>2024-09-19T15:49:34Z</time>
      </trkpt>
      <trkpt lat="45.83556" lon="5.09505">
        <ele>215.4</ele>
        <time>2024-09-19T15:49:35Z</time>
      </trkpt>
      <trkpt lat="45.83559" lon="5.09504">
        <ele>215.8</ele>
        <time>2024-09-19T15:49:36Z</time>
      </trkpt>
      <trkpt lat="45.83563" lon="5.09504">
        <ele>215.8</ele>
        <time>2024-09-19T15:49:37Z</time>
      </trkpt>
      <trkpt lat="45.83566" lon="5.09504">
        <ele>216</ele>
        <time>2024-09-19T15:49:38Z</time>
      </trkpt>
      <trkpt lat="45.8357" lon="5.09503">
        <ele>216</ele>
        <time>2024-09-19T15:49:39Z</time>
      </trkpt>
      <trkpt lat="45.83573" lon="5.09503">
        <ele>216</ele>
        <time>2024-09-19T15:49:40Z</time>
      </trkpt>
      <trkpt lat="45.83577" lon="5.09503">
        <ele>215.4</ele>
        <time>2024-09-19T15:49:41Z</time>
      </trkpt>
      <trkpt lat="45.8358" lon="5.09502">
        <ele>216</ele>
        <time>2024-09-19T15:49:42Z</time>
      </trkpt>
      <trkpt lat="45.83583" lon="5.09502">
        <ele>216</ele>
        <time>2024-09-19T15:49:43Z</time>
      </trkpt>
      <trkpt lat="45.83588" lon="5.09502">
        <ele>216.2</ele>
        <time>2024-09-19T15:49:44Z</time>
      </trkpt>
      <trkpt lat="45.8359" lon="5.09502">
        <ele>216.2</ele>
        <time>2024-09-19T15:49:45Z</time>
      </trkpt>
      <trkpt lat="45.83592" lon="5.09502">
        <ele>216.6</ele>
        <time>2024-09-19T15:49:46Z</time>
      </trkpt>
      <trkpt lat="45.83594" lon="5.09501">
        <ele>216.8</ele>
        <time>2024-09-19T15:49:47Z</time>
      </trkpt>
      <trkpt lat="45.83596" lon="5.09501">
        <ele>216.8</ele>
        <time>2024-09-19T15:49:48Z</time>
      </trkpt>
      <trkpt lat="45.83599" lon="5.095">
        <ele>217</ele>
        <time>2024-09-19T15:49:49Z</time>
      </trkpt>
      <trkpt lat="45.83601" lon="5.095">
        <ele>217</ele>
        <time>2024-09-19T15:49:50Z</time>
      </trkpt>
      <trkpt lat="45.83604" lon="5.09499">
        <ele>217</ele>
        <time>2024-09-19T15:49:51Z</time>
      </trkpt>
      <trkpt lat="45.83606" lon="5.09499">
        <ele>217.4</ele>
        <time>2024-09-19T15:49:52Z</time>
      </trkpt>
      <trkpt lat="45.83609" lon="5.09499">
        <ele>217.4</ele>
        <time>2024-09-19T15:49:53Z</time>
      </trkpt>
      <trkpt lat="45.83611" lon="5.09498">
        <ele>217.4</ele>
        <time>2024-09-19T15:49:54Z</time>
      </trkpt>
      <trkpt lat="45.83614" lon="5.09498">
        <ele>217.4</ele>
        <time>2024-09-19T15:49:55Z</time>
      </trkpt>
      <trkpt lat="45.83616" lon="5.09497">
        <ele>216</ele>
        <time>2024-09-19T15:49:56Z</time>
      </trkpt>
      <trkpt lat="45.83619" lon="5.09497">
        <ele>216.4</ele>
        <time>2024-09-19T15:49:57Z</time>
      </trkpt>
      <trkpt lat="45.83622" lon="5.09496">
        <ele>216.8</ele>
        <time>2024-09-19T15:49:58Z</time>
      </trkpt>
      <trkpt lat="45.83625" lon="5.09496">
        <ele>216.8</ele>
        <time>2024-09-19T15:49:59Z</time>
      </trkpt>
      <trkpt lat="45.83628" lon="5.09495">
        <ele>217</ele>
        <time>2024-09-19T15:50:00Z</time>
      </trkpt>
      <trkpt lat="45.83632" lon="5.09494">
        <ele>217</ele>
        <time>2024-09-19T15:50:01Z</time>
      </trkpt>
      <trkpt lat="45.83635" lon="5.09493">
        <ele>217</ele>
        <time>2024-09-19T15:50:02Z</time>
      </trkpt>
      <trkpt lat="45.83639" lon="5.09492">
        <ele>217</ele>
        <time>2024-09-19T15:50:03Z</time>
      </trkpt>
      <trkpt lat="45.83643" lon="5.09492">
        <ele>217</ele>
        <time>2024-09-19T15:50:04Z</time>
      </trkpt>
      <trkpt lat="45.83646" lon="5.09491">
        <ele>217</ele>
        <time>2024-09-19T15:50:05Z</time>
      </trkpt>
      <trkpt lat="45.8365" lon="5.0949">
        <ele>217</ele>
        <time>2024-09-19T15:50:06Z</time>
      </trkpt>
      <trkpt lat="45.83654" lon="5.09489">
        <ele>217</ele>
        <time>2024-09-19T15:50:07Z</time>
      </trkpt>
      <trkpt lat="45.83657" lon="5.09488">
        <ele>217.2</ele>
        <time>2024-09-19T15:50:08Z</time>
      </trkpt>
      <trkpt lat="45.8366" lon="5.09488">
        <ele>217.2</ele>
        <time>2024-09-19T15:50:09Z</time>
      </trkpt>
      <trkpt lat="45.83664" lon="5.09487">
        <ele>217.2</ele>
        <time>2024-09-19T15:50:10Z</time>
      </trkpt>
      <trkpt lat="45.83668" lon="5.09486">
        <ele>217.2</ele>
        <time>2024-09-19T15:50:11Z</time>
      </trkpt>
      <trkpt lat="45.83671" lon="5.09486">
        <ele>217.2</ele>
        <time>2024-09-19T15:50:12Z</time>
      </trkpt>
      <trkpt lat="45.83675" lon="5.09484">
        <ele>217.2</ele>
        <time>2024-09-19T15:50:13Z</time>
      </trkpt>
      <trkpt lat="45.83679" lon="5.09483">
        <ele>217.2</ele>
        <time>2024-09-19T15:50:14Z</time>
      </trkpt>
      <trkpt lat="45.83683" lon="5.09483">
        <ele>217.2</ele>
        <time>2024-09-19T15:50:15Z</time>
      </trkpt>
      <trkpt lat="45.83687" lon="5.09482">
        <ele>217.2</ele>
        <time>2024-09-19T15:50:16Z</time>
      </trkpt>
      <trkpt lat="45.8369" lon="5.09481">
        <ele>217.2</ele>
        <time>2024-09-19T15:50:17Z</time>
      </trkpt>
      <trkpt lat="45.83694" lon="5.09481">
        <ele>217.2</ele>
        <time>2024-09-19T15:50:18Z</time>
      </trkpt>
      <trkpt lat="45.83697" lon="5.0948">
        <ele>217.2</ele>
        <time>2024-09-19T15:50:19Z</time>
      </trkpt>
      <trkpt lat="45.837" lon="5.09479">
        <ele>217.4</ele>
        <time>2024-09-19T15:50:20Z</time>
      </trkpt>
      <trkpt lat="45.83703" lon="5.09478">
        <ele>217.8</ele>
        <time>2024-09-19T15:50:21Z</time>
      </trkpt>
      <trkpt lat="45.83706" lon="5.09477">
        <ele>217.8</ele>
        <time>2024-09-19T15:50:22Z</time>
      </trkpt>
      <trkpt lat="45.83709" lon="5.09477">
        <ele>217.8</ele>
        <time>2024-09-19T15:50:23Z</time>
      </trkpt>
      <trkpt lat="45.83712" lon="5.09476">
        <ele>217.8</ele>
        <time>2024-09-19T15:50:24Z</time>
      </trkpt>
      <trkpt lat="45.83714" lon="5.09475">
        <ele>218</ele>
        <time>2024-09-19T15:50:25Z</time>
      </trkpt>
      <trkpt lat="45.83717" lon="5.09474">
        <ele>218</ele>
        <time>2024-09-19T15:50:26Z</time>
      </trkpt>
      <trkpt lat="45.83721" lon="5.09474">
        <ele>218</ele>
        <time>2024-09-19T15:50:27Z</time>
      </trkpt>
      <trkpt lat="45.83724" lon="5.09474">
        <ele>217.8</ele>
        <time>2024-09-19T15:50:28Z</time>
      </trkpt>
      <trkpt lat="45.83728" lon="5.09474">
        <ele>217.8</ele>
        <time>2024-09-19T15:50:29Z</time>
      </trkpt>
      <trkpt lat="45.83731" lon="5.09473">
        <ele>217.8</ele>
        <time>2024-09-19T15:50:30Z</time>
      </trkpt>
      <trkpt lat="45.83734" lon="5.09472">
        <ele>217.6</ele>
        <time>2024-09-19T15:50:31Z</time>
      </trkpt>
      <trkpt lat="45.83737" lon="5.09472">
        <ele>217.6</ele>
        <time>2024-09-19T15:50:32Z</time>
      </trkpt>
      <trkpt lat="45.83739" lon="5.09471">
        <ele>217.6</ele>
        <time>2024-09-19T15:50:33Z</time>
      </trkpt>
      <trkpt lat="45.83742" lon="5.0947">
        <ele>217.6</ele>
        <time>2024-09-19T15:50:34Z</time>
      </trkpt>
      <trkpt lat="45.83744" lon="5.09469">
        <ele>217.6</ele>
        <time>2024-09-19T15:50:35Z</time>
      </trkpt>
      <trkpt lat="45.83746" lon="5.09469">
        <ele>217.6</ele>
        <time>2024-09-19T15:50:36Z</time>
      </trkpt>
      <trkpt lat="45.83749" lon="5.09469">
        <ele>217.6</ele>
        <time>2024-09-19T15:50:37Z</time>
      </trkpt>
      <trkpt lat="45.83752" lon="5.09468">
        <ele>217.6</ele>
        <time>2024-09-19T15:50:38Z</time>
      </trkpt>
      <trkpt lat="45.83755" lon="5.09468">
        <ele>217.6</ele>
        <time>2024-09-19T15:50:39Z</time>
      </trkpt>
      <trkpt lat="45.83758" lon="5.09467">
        <ele>217.6</ele>
        <time>2024-09-19T15:50:40Z</time>
      </trkpt>
      <trkpt lat="45.83761" lon="5.09466">
        <ele>217.6</ele>
        <time>2024-09-19T15:50:41Z</time>
      </trkpt>
      <trkpt lat="45.83765" lon="5.09465">
        <ele>217.6</ele>
        <time>2024-09-19T15:50:42Z</time>
      </trkpt>
      <trkpt lat="45.83768" lon="5.09464">
        <ele>217.6</ele>
        <time>2024-09-19T15:50:43Z</time>
      </trkpt>
      <trkpt lat="45.83772" lon="5.09463">
        <ele>217.6</ele>
        <time>2024-09-19T15:50:44Z</time>
      </trkpt>
      <trkpt lat="45.83775" lon="5.09462">
        <ele>217.6</ele>
        <time>2024-09-19T15:50:45Z</time>
      </trkpt>
      <trkpt lat="45.83778" lon="5.09462">
        <ele>217.6</ele>
        <time>2024-09-19T15:50:46Z</time>
      </trkpt>
      <trkpt lat="45.83782" lon="5.09461">
        <ele>217.6</ele>
        <time>2024-09-19T15:50:47Z</time>
      </trkpt>
      <trkpt lat="45.83785" lon="5.0946">
        <ele>217.6</ele>
        <time>2024-09-19T15:50:48Z</time>
      </trkpt>
      <trkpt lat="45.83788" lon="5.0946">
        <ele>217.6</ele>
        <time>2024-09-19T15:50:49Z</time>
      </trkpt>
      <trkpt lat="45.83791" lon="5.0946">
        <ele>217.4</ele>
        <time>2024-09-19T15:50:50Z</time>
      </trkpt>
      <trkpt lat="45.83794" lon="5.09459">
        <ele>217.4</ele>
        <time>2024-09-19T15:50:51Z</time>
      </trkpt>
      <trkpt lat="45.83796" lon="5.09458">
        <ele>217.8</ele>
        <time>2024-09-19T15:50:52Z</time>
      </trkpt>
      <trkpt lat="45.83799" lon="5.09458">
        <ele>217.8</ele>
        <time>2024-09-19T15:50:53Z</time>
      </trkpt>
      <trkpt lat="45.83801" lon="5.09457">
        <ele>217.8</ele>
        <time>2024-09-19T15:50:54Z</time>
      </trkpt>
      <trkpt lat="45.83803" lon="5.09456">
        <ele>217.8</ele>
        <time>2024-09-19T15:50:55Z</time>
      </trkpt>
      <trkpt lat="45.83805" lon="5.09455">
        <ele>217.8</ele>
        <time>2024-09-19T15:50:56Z</time>
      </trkpt>
      <trkpt lat="45.83807" lon="5.09455">
        <ele>217.8</ele>
        <time>2024-09-19T15:50:57Z</time>
      </trkpt>
      <trkpt lat="45.83809" lon="5.09455">
        <ele>217.8</ele>
        <time>2024-09-19T15:50:58Z</time>
      </trkpt>
      <trkpt lat="45.83812" lon="5.09454">
        <ele>217.8</ele>
        <time>2024-09-19T15:50:59Z</time>
      </trkpt>
      <trkpt lat="45.83815" lon="5.09454">
        <ele>217.8</ele>
        <time>2024-09-19T15:51:00Z</time>
      </trkpt>
      <trkpt lat="45.83818" lon="5.09453">
        <ele>217.8</ele>
        <time>2024-09-19T15:51:01Z</time>
      </trkpt>
      <trkpt lat="45.83821" lon="5.09453">
        <ele>217.8</ele>
        <time>2024-09-19T15:51:02Z</time>
      </trkpt>
      <trkpt lat="45.83823" lon="5.09452">
        <ele>218</ele>
        <time>2024-09-19T15:51:03Z</time>
      </trkpt>
      <trkpt lat="45.83826" lon="5.09452">
        <ele>218</ele>
        <time>2024-09-19T15:51:04Z</time>
      </trkpt>
      <trkpt lat="45.8383" lon="5.09451">
        <ele>218</ele>
        <time>2024-09-19T15:51:05Z</time>
      </trkpt>
      <trkpt lat="45.83833" lon="5.0945">
        <ele>218</ele>
        <time>2024-09-19T15:51:06Z</time>
      </trkpt>
      <trkpt lat="45.83836" lon="5.0945">
        <ele>218</ele>
        <time>2024-09-19T15:51:07Z</time>
      </trkpt>
      <trkpt lat="45.83839" lon="5.09449">
        <ele>218.2</ele>
        <time>2024-09-19T15:51:08Z</time>
      </trkpt>
      <trkpt lat="45.83842" lon="5.09448">
        <ele>218.2</ele>
        <time>2024-09-19T15:51:09Z</time>
      </trkpt>
      <trkpt lat="45.83845" lon="5.09447">
        <ele>218.2</ele>
        <time>2024-09-19T15:51:10Z</time>
      </trkpt>
      <trkpt lat="45.83848" lon="5.09445">
        <ele>218.2</ele>
        <time>2024-09-19T15:51:11Z</time>
      </trkpt>
      <trkpt lat="45.83851" lon="5.09443">
        <ele>218.4</ele>
        <time>2024-09-19T15:51:12Z</time>
      </trkpt>
      <trkpt lat="45.83854" lon="5.09441">
        <ele>218.4</ele>
        <time>2024-09-19T15:51:13Z</time>
      </trkpt>
      <trkpt lat="45.83857" lon="5.09439">
        <ele>218.2</ele>
        <time>2024-09-19T15:51:14Z</time>
      </trkpt>
      <trkpt lat="45.83859" lon="5.09437">
        <ele>218.2</ele>
        <time>2024-09-19T15:51:15Z</time>
      </trkpt>
      <trkpt lat="45.83863" lon="5.09435">
        <ele>217.6</ele>
        <time>2024-09-19T15:51:16Z</time>
      </trkpt>
      <trkpt lat="45.83866" lon="5.09433">
        <ele>217.6</ele>
        <time>2024-09-19T15:51:17Z</time>
      </trkpt>
      <trkpt lat="45.8387" lon="5.09431">
        <ele>217.6</ele>
        <time>2024-09-19T15:51:18Z</time>
      </trkpt>
      <trkpt lat="45.83873" lon="5.0943">
        <ele>217.6</ele>
        <time>2024-09-19T15:51:19Z</time>
      </trkpt>
      <trkpt lat="45.83877" lon="5.09427">
        <ele>217.6</ele>
        <time>2024-09-19T15:51:20Z</time>
      </trkpt>
      <trkpt lat="45.83881" lon="5.09425">
        <ele>217.8</ele>
        <time>2024-09-19T15:51:21Z</time>
      </trkpt>
      <trkpt lat="45.83885" lon="5.09423">
        <ele>217.8</ele>
        <time>2024-09-19T15:51:22Z</time>
      </trkpt>
      <trkpt lat="45.83889" lon="5.0942">
        <ele>217.6</ele>
        <time>2024-09-19T15:51:23Z</time>
      </trkpt>
      <trkpt lat="45.83893" lon="5.09418">
        <ele>217.6</ele>
        <time>2024-09-19T15:51:24Z</time>
      </trkpt>
      <trkpt lat="45.83897" lon="5.09416">
        <ele>217.4</ele>
        <time>2024-09-19T15:51:25Z</time>
      </trkpt>
      <trkpt lat="45.83901" lon="5.09413">
        <ele>217.6</ele>
        <time>2024-09-19T15:51:26Z</time>
      </trkpt>
      <trkpt lat="45.83905" lon="5.09411">
        <ele>217.6</ele>
        <time>2024-09-19T15:51:27Z</time>
      </trkpt>
      <trkpt lat="45.83909" lon="5.09408">
        <ele>217.2</ele>
        <time>2024-09-19T15:51:28Z</time>
      </trkpt>
      <trkpt lat="45.83913" lon="5.09406">
        <ele>217.2</ele>
        <time>2024-09-19T15:51:29Z</time>
      </trkpt>
      <trkpt lat="45.83917" lon="5.09403">
        <ele>217.2</ele>
        <time>2024-09-19T15:51:30Z</time>
      </trkpt>
      <trkpt lat="45.8392" lon="5.094">
        <ele>217.2</ele>
        <time>2024-09-19T15:51:31Z</time>
      </trkpt>
      <trkpt lat="45.83925" lon="5.09397">
        <ele>217.6</ele>
        <time>2024-09-19T15:51:32Z</time>
      </trkpt>
      <trkpt lat="45.83929" lon="5.09394">
        <ele>217.6</ele>
        <time>2024-09-19T15:51:33Z</time>
      </trkpt>
      <trkpt lat="45.83933" lon="5.09391">
        <ele>217.8</ele>
        <time>2024-09-19T15:51:34Z</time>
      </trkpt>
      <trkpt lat="45.83937" lon="5.09389">
        <ele>217.8</ele>
        <time>2024-09-19T15:51:35Z</time>
      </trkpt>
      <trkpt lat="45.83941" lon="5.09386">
        <ele>218</ele>
        <time>2024-09-19T15:51:36Z</time>
      </trkpt>
      <trkpt lat="45.83944" lon="5.09383">
        <ele>218.4</ele>
        <time>2024-09-19T15:51:37Z</time>
      </trkpt>
      <trkpt lat="45.83948" lon="5.09379">
        <ele>218.4</ele>
        <time>2024-09-19T15:51:38Z</time>
      </trkpt>
      <trkpt lat="45.83952" lon="5.09377">
        <ele>218.4</ele>
        <time>2024-09-19T15:51:39Z</time>
      </trkpt>
      <trkpt lat="45.83956" lon="5.09375">
        <ele>218.2</ele>
        <time>2024-09-19T15:51:40Z</time>
      </trkpt>
      <trkpt lat="45.8396" lon="5.09372">
        <ele>218.4</ele>
        <time>2024-09-19T15:51:41Z</time>
      </trkpt>
      <trkpt lat="45.83964" lon="5.0937">
        <ele>218.4</ele>
        <time>2024-09-19T15:51:42Z</time>
      </trkpt>
      <trkpt lat="45.83968" lon="5.09368">
        <ele>218.8</ele>
        <time>2024-09-19T15:51:43Z</time>
      </trkpt>
      <trkpt lat="45.83972" lon="5.09365">
        <ele>218.8</ele>
        <time>2024-09-19T15:51:44Z</time>
      </trkpt>
      <trkpt lat="45.83975" lon="5.09363">
        <ele>218.6</ele>
        <time>2024-09-19T15:51:45Z</time>
      </trkpt>
      <trkpt lat="45.83979" lon="5.09361">
        <ele>218.6</ele>
        <time>2024-09-19T15:51:46Z</time>
      </trkpt>
      <trkpt lat="45.83983" lon="5.09358">
        <ele>218.6</ele>
        <time>2024-09-19T15:51:47Z</time>
      </trkpt>
      <trkpt lat="45.83987" lon="5.09356">
        <ele>218.6</ele>
        <time>2024-09-19T15:51:48Z</time>
      </trkpt>
      <trkpt lat="45.8399" lon="5.09354">
        <ele>218.6</ele>
        <time>2024-09-19T15:51:49Z</time>
      </trkpt>
      <trkpt lat="45.83994" lon="5.09351">
        <ele>218.6</ele>
        <time>2024-09-19T15:51:50Z</time>
      </trkpt>
      <trkpt lat="45.83998" lon="5.09349">
        <ele>218.6</ele>
        <time>2024-09-19T15:51:51Z</time>
      </trkpt>
      <trkpt lat="45.84002" lon="5.09346">
        <ele>218.8</ele>
        <time>2024-09-19T15:51:52Z</time>
      </trkpt>
      <trkpt lat="45.84006" lon="5.09344">
        <ele>218.8</ele>
        <time>2024-09-19T15:51:53Z</time>
      </trkpt>
      <trkpt lat="45.84009" lon="5.09342">
        <ele>218.6</ele>
        <time>2024-09-19T15:51:54Z</time>
      </trkpt>
      <trkpt lat="45.84013" lon="5.09339">
        <ele>218.6</ele>
        <time>2024-09-19T15:51:55Z</time>
      </trkpt>
      <trkpt lat="45.84017" lon="5.09337">
        <ele>219</ele>
        <time>2024-09-19T15:51:56Z</time>
      </trkpt>
      <trkpt lat="45.84021" lon="5.09335">
        <ele>219</ele>
        <time>2024-09-19T15:51:57Z</time>
      </trkpt>
      <trkpt lat="45.84025" lon="5.09333">
        <ele>218.8</ele>
        <time>2024-09-19T15:51:58Z</time>
      </trkpt>
      <trkpt lat="45.84029" lon="5.0933">
        <ele>218.8</ele>
        <time>2024-09-19T15:51:59Z</time>
      </trkpt>
      <trkpt lat="45.84033" lon="5.09328">
        <ele>218.8</ele>
        <time>2024-09-19T15:52:00Z</time>
      </trkpt>
      <trkpt lat="45.84036" lon="5.09326">
        <ele>218.4</ele>
        <time>2024-09-19T15:52:01Z</time>
      </trkpt>
      <trkpt lat="45.84039" lon="5.09324">
        <ele>218.6</ele>
        <time>2024-09-19T15:52:02Z</time>
      </trkpt>
      <trkpt lat="45.84043" lon="5.09323">
        <ele>219</ele>
        <time>2024-09-19T15:52:03Z</time>
      </trkpt>
      <trkpt lat="45.84045" lon="5.09322">
        <ele>219</ele>
        <time>2024-09-19T15:52:04Z</time>
      </trkpt>
      <trkpt lat="45.84047" lon="5.09321">
        <ele>219.4</ele>
        <time>2024-09-19T15:52:05Z</time>
      </trkpt>
      <trkpt lat="45.84049" lon="5.0932">
        <ele>219.4</ele>
        <time>2024-09-19T15:52:06Z</time>
      </trkpt>
      <trkpt lat="45.84051" lon="5.09318">
        <ele>219.4</ele>
        <time>2024-09-19T15:52:07Z</time>
      </trkpt>
      <trkpt lat="45.84053" lon="5.09317">
        <ele>219.4</ele>
        <time>2024-09-19T15:52:08Z</time>
      </trkpt>
      <trkpt lat="45.84055" lon="5.09315">
        <ele>219.4</ele>
        <time>2024-09-19T15:52:09Z</time>
      </trkpt>
      <trkpt lat="45.84057" lon="5.09314">
        <ele>219.4</ele>
        <time>2024-09-19T15:52:10Z</time>
      </trkpt>
      <trkpt lat="45.84059" lon="5.09312">
        <ele>219.6</ele>
        <time>2024-09-19T15:52:11Z</time>
      </trkpt>
      <trkpt lat="45.84062" lon="5.09311">
        <ele>219.6</ele>
        <time>2024-09-19T15:52:12Z</time>
      </trkpt>
      <trkpt lat="45.84064" lon="5.09309">
        <ele>219.8</ele>
        <time>2024-09-19T15:52:13Z</time>
      </trkpt>
      <trkpt lat="45.84066" lon="5.09308">
        <ele>219.8</ele>
        <time>2024-09-19T15:52:14Z</time>
      </trkpt>
      <trkpt lat="45.84069" lon="5.09306">
        <ele>219.8</ele>
        <time>2024-09-19T15:52:15Z</time>
      </trkpt>
      <trkpt lat="45.84072" lon="5.09304">
        <ele>219.6</ele>
        <time>2024-09-19T15:52:16Z</time>
      </trkpt>
      <trkpt lat="45.84074" lon="5.09303">
        <ele>219.6</ele>
        <time>2024-09-19T15:52:17Z</time>
      </trkpt>
      <trkpt lat="45.84077" lon="5.09301">
        <ele>219.6</ele>
        <time>2024-09-19T15:52:18Z</time>
      </trkpt>
      <trkpt lat="45.84079" lon="5.093">
        <ele>219.6</ele>
        <time>2024-09-19T15:52:19Z</time>
      </trkpt>
      <trkpt lat="45.84082" lon="5.09298">
        <ele>219.6</ele>
        <time>2024-09-19T15:52:20Z</time>
      </trkpt>
      <trkpt lat="45.84085" lon="5.09296">
        <ele>219.6</ele>
        <time>2024-09-19T15:52:21Z</time>
      </trkpt>
      <trkpt lat="45.84087" lon="5.09295">
        <ele>219.6</ele>
        <time>2024-09-19T15:52:22Z</time>
      </trkpt>
      <trkpt lat="45.84089" lon="5.09293">
        <ele>219.6</ele>
        <time>2024-09-19T15:52:23Z</time>
      </trkpt>
      <trkpt lat="45.84091" lon="5.09292">
        <ele>219.6</ele>
        <time>2024-09-19T15:52:24Z</time>
      </trkpt>
      <trkpt lat="45.84094" lon="5.09291">
        <ele>219.6</ele>
        <time>2024-09-19T15:52:25Z</time>
      </trkpt>
      <trkpt lat="45.84096" lon="5.09289">
        <ele>219.6</ele>
        <time>2024-09-19T15:52:26Z</time>
      </trkpt>
      <trkpt lat="45.84098" lon="5.09288">
        <ele>219.6</ele>
        <time>2024-09-19T15:52:27Z</time>
      </trkpt>
      <trkpt lat="45.841" lon="5.09287">
        <ele>219.6</ele>
        <time>2024-09-19T15:52:28Z</time>
      </trkpt>
      <trkpt lat="45.84101" lon="5.09286">
        <ele>219.6</ele>
        <time>2024-09-19T15:52:29Z</time>
      </trkpt>
      <trkpt lat="45.84103" lon="5.09285">
        <ele>219.6</ele>
        <time>2024-09-19T15:52:30Z</time>
      </trkpt>
      <trkpt lat="45.84104" lon="5.09283">
        <ele>220</ele>
        <time>2024-09-19T15:52:31Z</time>
      </trkpt>
      <trkpt lat="45.84104" lon="5.09281">
        <ele>220</ele>
        <time>2024-09-19T15:52:32Z</time>
      </trkpt>
      <trkpt lat="45.84104" lon="5.09279">
        <ele>220</ele>
        <time>2024-09-19T15:52:33Z</time>
      </trkpt>
      <trkpt lat="45.84104" lon="5.09277">
        <ele>220</ele>
        <time>2024-09-19T15:52:34Z</time>
      </trkpt>
      <trkpt lat="45.84103" lon="5.09275">
        <ele>220</ele>
        <time>2024-09-19T15:52:35Z</time>
      </trkpt>
      <trkpt lat="45.84102" lon="5.09274">
        <ele>220.2</ele>
        <time>2024-09-19T15:52:36Z</time>
      </trkpt>
      <trkpt lat="45.84102" lon="5.09274">
        <ele>220.2</ele>
        <time>2024-09-19T15:52:37Z</time>
      </trkpt>
      <trkpt lat="45.84102" lon="5.09274">
        <ele>220.2</ele>
        <time>2024-09-19T15:52:38Z</time>
      </trkpt>
      <trkpt lat="45.84101" lon="5.09274">
        <ele>220.2</ele>
        <time>2024-09-19T15:52:39Z</time>
      </trkpt>
      <trkpt lat="45.84102" lon="5.09275">
        <ele>220.2</ele>
        <time>2024-09-19T15:52:51Z</time>
      </trkpt>
      <trkpt lat="45.84102" lon="5.09275">
        <ele>220.2</ele>
        <time>2024-09-19T15:52:52Z</time>
      </trkpt>
      <trkpt lat="45.84099" lon="5.09271">
        <ele>220.4</ele>
        <time>2024-09-19T15:53:15Z</time>
      </trkpt>
      <trkpt lat="45.84099" lon="5.09268">
        <ele>220.4</ele>
        <time>2024-09-19T15:53:16Z</time>
      </trkpt>
      <trkpt lat="45.84098" lon="5.09265">
        <ele>220.4</ele>
        <time>2024-09-19T15:53:17Z</time>
      </trkpt>
      <trkpt lat="45.84097" lon="5.09263">
        <ele>220.4</ele>
        <time>2024-09-19T15:53:18Z</time>
      </trkpt>
      <trkpt lat="45.84097" lon="5.09262">
        <ele>220.4</ele>
        <time>2024-09-19T15:53:19Z</time>
      </trkpt>
      <trkpt lat="45.84097" lon="5.0926">
        <ele>220.4</ele>
        <time>2024-09-19T15:53:20Z</time>
      </trkpt>
      <trkpt lat="45.84096" lon="5.09258">
        <ele>220.2</ele>
        <time>2024-09-19T15:53:21Z</time>
      </trkpt>
      <trkpt lat="45.84095" lon="5.09256">
        <ele>220.4</ele>
        <time>2024-09-19T15:53:22Z</time>
      </trkpt>
      <trkpt lat="45.84094" lon="5.09254">
        <ele>220.4</ele>
        <time>2024-09-19T15:53:23Z</time>
      </trkpt>
      <trkpt lat="45.84093" lon="5.09251">
        <ele>220.4</ele>
        <time>2024-09-19T15:53:24Z</time>
      </trkpt>
      <trkpt lat="45.84093" lon="5.09249">
        <ele>220.4</ele>
        <time>2024-09-19T15:53:25Z</time>
      </trkpt>
      <trkpt lat="45.84092" lon="5.09246">
        <ele>220.4</ele>
        <time>2024-09-19T15:53:26Z</time>
      </trkpt>
      <trkpt lat="45.84092" lon="5.09243">
        <ele>220.4</ele>
        <time>2024-09-19T15:53:27Z</time>
      </trkpt>
      <trkpt lat="45.84091" lon="5.0924">
        <ele>220.4</ele>
        <time>2024-09-19T15:53:28Z</time>
      </trkpt>
      <trkpt lat="45.8409" lon="5.09238">
        <ele>220.4</ele>
        <time>2024-09-19T15:53:29Z</time>
      </trkpt>
      <trkpt lat="45.84089" lon="5.09235">
        <ele>220</ele>
        <time>2024-09-19T15:53:30Z</time>
      </trkpt>
      <trkpt lat="45.84089" lon="5.09233">
        <ele>220</ele>
        <time>2024-09-19T15:53:31Z</time>
      </trkpt>
      <trkpt lat="45.84088" lon="5.09231">
        <ele>220</ele>
        <time>2024-09-19T15:53:32Z</time>
      </trkpt>
      <trkpt lat="45.84088" lon="5.09228">
        <ele>220</ele>
        <time>2024-09-19T15:53:33Z</time>
      </trkpt>
      <trkpt lat="45.84087" lon="5.09225">
        <ele>219.8</ele>
        <time>2024-09-19T15:53:34Z</time>
      </trkpt>
      <trkpt lat="45.84086" lon="5.09222">
        <ele>219.8</ele>
        <time>2024-09-19T15:53:35Z</time>
      </trkpt>
      <trkpt lat="45.84084" lon="5.09219">
        <ele>219.8</ele>
        <time>2024-09-19T15:53:36Z</time>
      </trkpt>
      <trkpt lat="45.84083" lon="5.09216">
        <ele>220</ele>
        <time>2024-09-19T15:53:37Z</time>
      </trkpt>
      <trkpt lat="45.84082" lon="5.09212">
        <ele>220</ele>
        <time>2024-09-19T15:53:38Z</time>
      </trkpt>
      <trkpt lat="45.84082" lon="5.0921">
        <ele>220</ele>
        <time>2024-09-19T15:53:39Z</time>
      </trkpt>
      <trkpt lat="45.84081" lon="5.09206">
        <ele>220</ele>
        <time>2024-09-19T15:53:40Z</time>
      </trkpt>
      <trkpt lat="45.8408" lon="5.09203">
        <ele>220</ele>
        <time>2024-09-19T15:53:41Z</time>
      </trkpt>
      <trkpt lat="45.84079" lon="5.092">
        <ele>220</ele>
        <time>2024-09-19T15:53:42Z</time>
      </trkpt>
      <trkpt lat="45.84078" lon="5.09196">
        <ele>220</ele>
        <time>2024-09-19T15:53:43Z</time>
      </trkpt>
      <trkpt lat="45.84077" lon="5.09193">
        <ele>220.2</ele>
        <time>2024-09-19T15:53:44Z</time>
      </trkpt>
      <trkpt lat="45.84076" lon="5.09191">
        <ele>220</ele>
        <time>2024-09-19T15:53:45Z</time>
      </trkpt>
      <trkpt lat="45.84075" lon="5.09188">
        <ele>220</ele>
        <time>2024-09-19T15:53:46Z</time>
      </trkpt>
      <trkpt lat="45.84074" lon="5.09184">
        <ele>220</ele>
        <time>2024-09-19T15:53:47Z</time>
      </trkpt>
      <trkpt lat="45.84073" lon="5.09181">
        <ele>219.4</ele>
        <time>2024-09-19T15:53:48Z</time>
      </trkpt>
      <trkpt lat="45.84072" lon="5.09178">
        <ele>219.4</ele>
        <time>2024-09-19T15:53:49Z</time>
      </trkpt>
      <trkpt lat="45.84071" lon="5.09174">
        <ele>219.4</ele>
        <time>2024-09-19T15:53:50Z</time>
      </trkpt>
      <trkpt lat="45.8407" lon="5.09171">
        <ele>219.4</ele>
        <time>2024-09-19T15:53:51Z</time>
      </trkpt>
      <trkpt lat="45.84069" lon="5.09169">
        <ele>219.4</ele>
        <time>2024-09-19T15:53:52Z</time>
      </trkpt>
      <trkpt lat="45.84068" lon="5.09166">
        <ele>219.4</ele>
        <time>2024-09-19T15:53:53Z</time>
      </trkpt>
      <trkpt lat="45.84067" lon="5.09163">
        <ele>219.8</ele>
        <time>2024-09-19T15:53:54Z</time>
      </trkpt>
      <trkpt lat="45.84066" lon="5.09161">
        <ele>219.8</ele>
        <time>2024-09-19T15:53:55Z</time>
      </trkpt>
      <trkpt lat="45.84065" lon="5.09158">
        <ele>219.8</ele>
        <time>2024-09-19T15:53:56Z</time>
      </trkpt>
      <trkpt lat="45.84064" lon="5.09155">
        <ele>220</ele>
        <time>2024-09-19T15:53:57Z</time>
      </trkpt>
      <trkpt lat="45.84064" lon="5.09152">
        <ele>220</ele>
        <time>2024-09-19T15:53:58Z</time>
      </trkpt>
      <trkpt lat="45.84063" lon="5.09149">
        <ele>220</ele>
        <time>2024-09-19T15:53:59Z</time>
      </trkpt>
      <trkpt lat="45.84062" lon="5.09146">
        <ele>220</ele>
        <time>2024-09-19T15:54:00Z</time>
      </trkpt>
      <trkpt lat="45.84061" lon="5.09143">
        <ele>220</ele>
        <time>2024-09-19T15:54:01Z</time>
      </trkpt>
      <trkpt lat="45.8406" lon="5.0914">
        <ele>220.4</ele>
        <time>2024-09-19T15:54:02Z</time>
      </trkpt>
      <trkpt lat="45.84059" lon="5.09137">
        <ele>220.4</ele>
        <time>2024-09-19T15:54:03Z</time>
      </trkpt>
      <trkpt lat="45.84059" lon="5.09133">
        <ele>220.4</ele>
        <time>2024-09-19T15:54:04Z</time>
      </trkpt>
      <trkpt lat="45.84057" lon="5.0913">
        <ele>220.6</ele>
        <time>2024-09-19T15:54:05Z</time>
      </trkpt>
      <trkpt lat="45.84056" lon="5.09127">
        <ele>220.6</ele>
        <time>2024-09-19T15:54:06Z</time>
      </trkpt>
      <trkpt lat="45.84055" lon="5.09123">
        <ele>220.6</ele>
        <time>2024-09-19T15:54:07Z</time>
      </trkpt>
      <trkpt lat="45.84054" lon="5.0912">
        <ele>220.8</ele>
        <time>2024-09-19T15:54:08Z</time>
      </trkpt>
      <trkpt lat="45.84053" lon="5.09117">
        <ele>220.8</ele>
        <time>2024-09-19T15:54:09Z</time>
      </trkpt>
      <trkpt lat="45.84052" lon="5.09114">
        <ele>220.8</ele>
        <time>2024-09-19T15:54:10Z</time>
      </trkpt>
      <trkpt lat="45.84051" lon="5.09111">
        <ele>220.8</ele>
        <time>2024-09-19T15:54:11Z</time>
      </trkpt>
      <trkpt lat="45.8405" lon="5.09108">
        <ele>220.8</ele>
        <time>2024-09-19T15:54:12Z</time>
      </trkpt>
      <trkpt lat="45.84049" lon="5.09105">
        <ele>220.8</ele>
        <time>2024-09-19T15:54:13Z</time>
      </trkpt>
      <trkpt lat="45.84048" lon="5.09102">
        <ele>220.8</ele>
        <time>2024-09-19T15:54:14Z</time>
      </trkpt>
      <trkpt lat="45.84047" lon="5.09099">
        <ele>220.8</ele>
        <time>2024-09-19T15:54:15Z</time>
      </trkpt>
      <trkpt lat="45.84046" lon="5.09096">
        <ele>220.8</ele>
        <time>2024-09-19T15:54:16Z</time>
      </trkpt>
      <trkpt lat="45.84045" lon="5.09092">
        <ele>220.8</ele>
        <time>2024-09-19T15:54:17Z</time>
      </trkpt>
      <trkpt lat="45.84044" lon="5.09089">
        <ele>220.8</ele>
        <time>2024-09-19T15:54:18Z</time>
      </trkpt>
      <trkpt lat="45.84043" lon="5.09086">
        <ele>220.8</ele>
        <time>2024-09-19T15:54:19Z</time>
      </trkpt>
      <trkpt lat="45.84042" lon="5.09082">
        <ele>220.8</ele>
        <time>2024-09-19T15:54:20Z</time>
      </trkpt>
      <trkpt lat="45.84042" lon="5.09078">
        <ele>220.4</ele>
        <time>2024-09-19T15:54:21Z</time>
      </trkpt>
      <trkpt lat="45.84041" lon="5.09074">
        <ele>220.4</ele>
        <time>2024-09-19T15:54:22Z</time>
      </trkpt>
      <trkpt lat="45.84039" lon="5.09071">
        <ele>220.2</ele>
        <time>2024-09-19T15:54:23Z</time>
      </trkpt>
      <trkpt lat="45.84038" lon="5.09068">
        <ele>219</ele>
        <time>2024-09-19T15:54:24Z</time>
      </trkpt>
      <trkpt lat="45.84037" lon="5.09064">
        <ele>219</ele>
        <time>2024-09-19T15:54:25Z</time>
      </trkpt>
      <trkpt lat="45.84036" lon="5.0906">
        <ele>219.8</ele>
        <time>2024-09-19T15:54:26Z</time>
      </trkpt>
      <trkpt lat="45.84035" lon="5.09058">
        <ele>220.2</ele>
        <time>2024-09-19T15:54:27Z</time>
      </trkpt>
      <trkpt lat="45.84034" lon="5.09055">
        <ele>219.6</ele>
        <time>2024-09-19T15:54:28Z</time>
      </trkpt>
      <trkpt lat="45.84033" lon="5.09052">
        <ele>219</ele>
        <time>2024-09-19T15:54:29Z</time>
      </trkpt>
      <trkpt lat="45.84032" lon="5.09049">
        <ele>219.8</ele>
        <time>2024-09-19T15:54:30Z</time>
      </trkpt>
      <trkpt lat="45.84032" lon="5.09046">
        <ele>219.8</ele>
        <time>2024-09-19T15:54:31Z</time>
      </trkpt>
      <trkpt lat="45.84031" lon="5.09044">
        <ele>219.8</ele>
        <time>2024-09-19T15:54:32Z</time>
      </trkpt>
      <trkpt lat="45.8403" lon="5.09041">
        <ele>219.8</ele>
        <time>2024-09-19T15:54:33Z</time>
      </trkpt>
      <trkpt lat="45.84029" lon="5.09037">
        <ele>219.6</ele>
        <time>2024-09-19T15:54:34Z</time>
      </trkpt>
      <trkpt lat="45.84028" lon="5.09033">
        <ele>219.6</ele>
        <time>2024-09-19T15:54:35Z</time>
      </trkpt>
      <trkpt lat="45.84027" lon="5.09029">
        <ele>219.6</ele>
        <time>2024-09-19T15:54:36Z</time>
      </trkpt>
      <trkpt lat="45.84025" lon="5.09025">
        <ele>219.4</ele>
        <time>2024-09-19T15:54:37Z</time>
      </trkpt>
      <trkpt lat="45.84024" lon="5.0902">
        <ele>219.4</ele>
        <time>2024-09-19T15:54:38Z</time>
      </trkpt>
      <trkpt lat="45.84023" lon="5.09016">
        <ele>219.6</ele>
        <time>2024-09-19T15:54:39Z</time>
      </trkpt>
      <trkpt lat="45.84022" lon="5.09012">
        <ele>219.2</ele>
        <time>2024-09-19T15:54:40Z</time>
      </trkpt>
      <trkpt lat="45.8402" lon="5.09009">
        <ele>219.2</ele>
        <time>2024-09-19T15:54:41Z</time>
      </trkpt>
      <trkpt lat="45.84019" lon="5.09006">
        <ele>219.2</ele>
        <time>2024-09-19T15:54:42Z</time>
      </trkpt>
      <trkpt lat="45.84018" lon="5.09003">
        <ele>219.2</ele>
        <time>2024-09-19T15:54:43Z</time>
      </trkpt>
      <trkpt lat="45.84017" lon="5.09">
        <ele>219.6</ele>
        <time>2024-09-19T15:54:44Z</time>
      </trkpt>
      <trkpt lat="45.84015" lon="5.08995">
        <ele>219.6</ele>
        <time>2024-09-19T15:54:45Z</time>
      </trkpt>
      <trkpt lat="45.84013" lon="5.08991">
        <ele>219.6</ele>
        <time>2024-09-19T15:54:46Z</time>
      </trkpt>
      <trkpt lat="45.84012" lon="5.08986">
        <ele>219.6</ele>
        <time>2024-09-19T15:54:47Z</time>
      </trkpt>
      <trkpt lat="45.8401" lon="5.08982">
        <ele>219.6</ele>
        <time>2024-09-19T15:54:48Z</time>
      </trkpt>
      <trkpt lat="45.84009" lon="5.08977">
        <ele>219.6</ele>
        <time>2024-09-19T15:54:49Z</time>
      </trkpt>
      <trkpt lat="45.84007" lon="5.08972">
        <ele>219.6</ele>
        <time>2024-09-19T15:54:50Z</time>
      </trkpt>
      <trkpt lat="45.84005" lon="5.08967">
        <ele>219.6</ele>
        <time>2024-09-19T15:54:51Z</time>
      </trkpt>
      <trkpt lat="45.84004" lon="5.08961">
        <ele>219.2</ele>
        <time>2024-09-19T15:54:52Z</time>
      </trkpt>
      <trkpt lat="45.84002" lon="5.08956">
        <ele>219</ele>
        <time>2024-09-19T15:54:53Z</time>
      </trkpt>
      <trkpt lat="45.84" lon="5.08951">
        <ele>219</ele>
        <time>2024-09-19T15:54:54Z</time>
      </trkpt>
      <trkpt lat="45.83998" lon="5.08946">
        <ele>218.8</ele>
        <time>2024-09-19T15:54:55Z</time>
      </trkpt>
      <trkpt lat="45.83996" lon="5.08941">
        <ele>218.6</ele>
        <time>2024-09-19T15:54:56Z</time>
      </trkpt>
      <trkpt lat="45.83995" lon="5.08935">
        <ele>218.6</ele>
        <time>2024-09-19T15:54:57Z</time>
      </trkpt>
      <trkpt lat="45.83994" lon="5.0893">
        <ele>218.6</ele>
        <time>2024-09-19T15:54:58Z</time>
      </trkpt>
      <trkpt lat="45.83992" lon="5.08925">
        <ele>218.6</ele>
        <time>2024-09-19T15:54:59Z</time>
      </trkpt>
      <trkpt lat="45.83991" lon="5.0892">
        <ele>218</ele>
        <time>2024-09-19T15:55:00Z</time>
      </trkpt>
      <trkpt lat="45.83991" lon="5.08914">
        <ele>218</ele>
        <time>2024-09-19T15:55:01Z</time>
      </trkpt>
      <trkpt lat="45.8399" lon="5.0891">
        <ele>218</ele>
        <time>2024-09-19T15:55:02Z</time>
      </trkpt>
      <trkpt lat="45.83989" lon="5.08905">
        <ele>218</ele>
        <time>2024-09-19T15:55:03Z</time>
      </trkpt>
      <trkpt lat="45.83989" lon="5.08901">
        <ele>218</ele>
        <time>2024-09-19T15:55:04Z</time>
      </trkpt>
      <trkpt lat="45.83989" lon="5.08897">
        <ele>218</ele>
        <time>2024-09-19T15:55:05Z</time>
      </trkpt>
      <trkpt lat="45.8399" lon="5.08893">
        <ele>218</ele>
        <time>2024-09-19T15:55:06Z</time>
      </trkpt>
      <trkpt lat="45.83992" lon="5.08888">
        <ele>218</ele>
        <time>2024-09-19T15:55:07Z</time>
      </trkpt>
      <trkpt lat="45.83994" lon="5.08885">
        <ele>217.8</ele>
        <time>2024-09-19T15:55:08Z</time>
      </trkpt>
      <trkpt lat="45.83995" lon="5.08881">
        <ele>217.8</ele>
        <time>2024-09-19T15:55:09Z</time>
      </trkpt>
      <trkpt lat="45.83998" lon="5.08876">
        <ele>217.6</ele>
        <time>2024-09-19T15:55:10Z</time>
      </trkpt>
      <trkpt lat="45.84" lon="5.08872">
        <ele>217.6</ele>
        <time>2024-09-19T15:55:11Z</time>
      </trkpt>
      <trkpt lat="45.84003" lon="5.08868">
        <ele>217.6</ele>
        <time>2024-09-19T15:55:12Z</time>
      </trkpt>
      <trkpt lat="45.84005" lon="5.08864">
        <ele>217.6</ele>
        <time>2024-09-19T15:55:13Z</time>
      </trkpt>
      <trkpt lat="45.84007" lon="5.0886">
        <ele>217.6</ele>
        <time>2024-09-19T15:55:14Z</time>
      </trkpt>
      <trkpt lat="45.84009" lon="5.08856">
        <ele>217.6</ele>
        <time>2024-09-19T15:55:15Z</time>
      </trkpt>
      <trkpt lat="45.84012" lon="5.08852">
        <ele>217.6</ele>
        <time>2024-09-19T15:55:16Z</time>
      </trkpt>
      <trkpt lat="45.84014" lon="5.08848">
        <ele>217.2</ele>
        <time>2024-09-19T15:55:17Z</time>
      </trkpt>
      <trkpt lat="45.84016" lon="5.08844">
        <ele>217.4</ele>
        <time>2024-09-19T15:55:18Z</time>
      </trkpt>
      <trkpt lat="45.84018" lon="5.0884">
        <ele>217.4</ele>
        <time>2024-09-19T15:55:19Z</time>
      </trkpt>
      <trkpt lat="45.8402" lon="5.08836">
        <ele>217.4</ele>
        <time>2024-09-19T15:55:20Z</time>
      </trkpt>
      <trkpt lat="45.84022" lon="5.08831">
        <ele>217.4</ele>
        <time>2024-09-19T15:55:21Z</time>
      </trkpt>
      <trkpt lat="45.84024" lon="5.08827">
        <ele>217.4</ele>
        <time>2024-09-19T15:55:22Z</time>
      </trkpt>
      <trkpt lat="45.84027" lon="5.08824">
        <ele>217.6</ele>
        <time>2024-09-19T15:55:23Z</time>
      </trkpt>
      <trkpt lat="45.84029" lon="5.0882">
        <ele>217.6</ele>
        <time>2024-09-19T15:55:24Z</time>
      </trkpt>
      <trkpt lat="45.84031" lon="5.08816">
        <ele>217.6</ele>
        <time>2024-09-19T15:55:25Z</time>
      </trkpt>
      <trkpt lat="45.84033" lon="5.08812">
        <ele>218.2</ele>
        <time>2024-09-19T15:55:26Z</time>
      </trkpt>
      <trkpt lat="45.84036" lon="5.08808">
        <ele>218.2</ele>
        <time>2024-09-19T15:55:27Z</time>
      </trkpt>
      <trkpt lat="45.84038" lon="5.08804">
        <ele>218.2</ele>
        <time>2024-09-19T15:55:28Z</time>
      </trkpt>
      <trkpt lat="45.8404" lon="5.08801">
        <ele>218.6</ele>
        <time>2024-09-19T15:55:29Z</time>
      </trkpt>
      <trkpt lat="45.84043" lon="5.08797">
        <ele>218.6</ele>
        <time>2024-09-19T15:55:30Z</time>
      </trkpt>
      <trkpt lat="45.84045" lon="5.08793">
        <ele>218.4</ele>
        <time>2024-09-19T15:55:31Z</time>
      </trkpt>
      <trkpt lat="45.84047" lon="5.0879">
        <ele>218.4</ele>
        <time>2024-09-19T15:55:32Z</time>
      </trkpt>
      <trkpt lat="45.84049" lon="5.08786">
        <ele>218.4</ele>
        <time>2024-09-19T15:55:33Z</time>
      </trkpt>
      <trkpt lat="45.84051" lon="5.08783">
        <ele>218.4</ele>
        <time>2024-09-19T15:55:34Z</time>
      </trkpt>
      <trkpt lat="45.84053" lon="5.08779">
        <ele>219</ele>
        <time>2024-09-19T15:55:35Z</time>
      </trkpt>
      <trkpt lat="45.84056" lon="5.08776">
        <ele>219</ele>
        <time>2024-09-19T15:55:36Z</time>
      </trkpt>
      <trkpt lat="45.84058" lon="5.08773">
        <ele>219</ele>
        <time>2024-09-19T15:55:37Z</time>
      </trkpt>
      <trkpt lat="45.8406" lon="5.08769">
        <ele>219</ele>
        <time>2024-09-19T15:55:38Z</time>
      </trkpt>
      <trkpt lat="45.84062" lon="5.08765">
        <ele>219</ele>
        <time>2024-09-19T15:55:39Z</time>
      </trkpt>
      <trkpt lat="45.84065" lon="5.08761">
        <ele>218.6</ele>
        <time>2024-09-19T15:55:40Z</time>
      </trkpt>
      <trkpt lat="45.84068" lon="5.08757">
        <ele>218.6</ele>
        <time>2024-09-19T15:55:41Z</time>
      </trkpt>
      <trkpt lat="45.8407" lon="5.08752">
        <ele>218.8</ele>
        <time>2024-09-19T15:55:42Z</time>
      </trkpt>
      <trkpt lat="45.84073" lon="5.08747">
        <ele>218.8</ele>
        <time>2024-09-19T15:55:43Z</time>
      </trkpt>
      <trkpt lat="45.84076" lon="5.08742">
        <ele>218.8</ele>
        <time>2024-09-19T15:55:44Z</time>
      </trkpt>
      <trkpt lat="45.84078" lon="5.08735">
        <ele>218.8</ele>
        <time>2024-09-19T15:55:45Z</time>
      </trkpt>
      <trkpt lat="45.84081" lon="5.08729">
        <ele>218.2</ele>
        <time>2024-09-19T15:55:46Z</time>
      </trkpt>
      <trkpt lat="45.84083" lon="5.08723">
        <ele>217.8</ele>
        <time>2024-09-19T15:55:47Z</time>
      </trkpt>
      <trkpt lat="45.84086" lon="5.08717">
        <ele>217.8</ele>
        <time>2024-09-19T15:55:48Z</time>
      </trkpt>
      <trkpt lat="45.84088" lon="5.08711">
        <ele>217.8</ele>
        <time>2024-09-19T15:55:49Z</time>
      </trkpt>
      <trkpt lat="45.84091" lon="5.08704">
        <ele>218.2</ele>
        <time>2024-09-19T15:55:50Z</time>
      </trkpt>
      <trkpt lat="45.84094" lon="5.08697">
        <ele>217.8</ele>
        <time>2024-09-19T15:55:51Z</time>
      </trkpt>
      <trkpt lat="45.84098" lon="5.08691">
        <ele>217.2</ele>
        <time>2024-09-19T15:55:52Z</time>
      </trkpt>
      <trkpt lat="45.84101" lon="5.08684">
        <ele>216.4</ele>
        <time>2024-09-19T15:55:53Z</time>
      </trkpt>
      <trkpt lat="45.84105" lon="5.08678">
        <ele>216.4</ele>
        <time>2024-09-19T15:55:54Z</time>
      </trkpt>
      <trkpt lat="45.84108" lon="5.08673">
        <ele>216.8</ele>
        <time>2024-09-19T15:55:55Z</time>
      </trkpt>
      <trkpt lat="45.84112" lon="5.0867">
        <ele>216.8</ele>
        <time>2024-09-19T15:55:56Z</time>
      </trkpt>
      <trkpt lat="45.84116" lon="5.08667">
        <ele>216.8</ele>
        <time>2024-09-19T15:55:57Z</time>
      </trkpt>
      <trkpt lat="45.8412" lon="5.08665">
        <ele>216.8</ele>
        <time>2024-09-19T15:55:58Z</time>
      </trkpt>
      <trkpt lat="45.84123" lon="5.08661">
        <ele>216.8</ele>
        <time>2024-09-19T15:55:59Z</time>
      </trkpt>
      <trkpt lat="45.84126" lon="5.08658">
        <ele>215.6</ele>
        <time>2024-09-19T15:56:00Z</time>
      </trkpt>
      <trkpt lat="45.8413" lon="5.08654">
        <ele>215.8</ele>
        <time>2024-09-19T15:56:01Z</time>
      </trkpt>
      <trkpt lat="45.84134" lon="5.0865">
        <ele>216.4</ele>
        <time>2024-09-19T15:56:02Z</time>
      </trkpt>
      <trkpt lat="45.84137" lon="5.08647">
        <ele>216.4</ele>
        <time>2024-09-19T15:56:03Z</time>
      </trkpt>
      <trkpt lat="45.8414" lon="5.08644">
        <ele>216.8</ele>
        <time>2024-09-19T15:56:04Z</time>
      </trkpt>
      <trkpt lat="45.84142" lon="5.0864">
        <ele>217</ele>
        <time>2024-09-19T15:56:05Z</time>
      </trkpt>
      <trkpt lat="45.84146" lon="5.08637">
        <ele>217.2</ele>
        <time>2024-09-19T15:56:06Z</time>
      </trkpt>
      <trkpt lat="45.84146" lon="5.08637">
        <ele>216.4</ele>
        <time>2024-09-19T15:56:07Z</time>
      </trkpt>
      <trkpt lat="45.84149" lon="5.08634">
        <ele>217.6</ele>
        <time>2024-09-19T15:56:08Z</time>
      </trkpt>
      <trkpt lat="45.84151" lon="5.0863">
        <ele>218</ele>
        <time>2024-09-19T15:56:09Z</time>
      </trkpt>
      <trkpt lat="45.84154" lon="5.08627">
        <ele>218.4</ele>
        <time>2024-09-19T15:56:10Z</time>
      </trkpt>
      <trkpt lat="45.84157" lon="5.08624">
        <ele>218.8</ele>
        <time>2024-09-19T15:56:11Z</time>
      </trkpt>
      <trkpt lat="45.8416" lon="5.08622">
        <ele>219.2</ele>
        <time>2024-09-19T15:56:12Z</time>
      </trkpt>
      <trkpt lat="45.84162" lon="5.08619">
        <ele>219.4</ele>
        <time>2024-09-19T15:56:13Z</time>
      </trkpt>
      <trkpt lat="45.84165" lon="5.08615">
        <ele>219.4</ele>
        <time>2024-09-19T15:56:14Z</time>
      </trkpt>
      <trkpt lat="45.84167" lon="5.08612">
        <ele>219.4</ele>
        <time>2024-09-19T15:56:15Z</time>
      </trkpt>
      <trkpt lat="45.8417" lon="5.08609">
        <ele>219.4</ele>
        <time>2024-09-19T15:56:16Z</time>
      </trkpt>
      <trkpt lat="45.84173" lon="5.08605">
        <ele>219.4</ele>
        <time>2024-09-19T15:56:17Z</time>
      </trkpt>
      <trkpt lat="45.84178" lon="5.08598">
        <ele>219.4</ele>
        <time>2024-09-19T15:56:18Z</time>
      </trkpt>
      <trkpt lat="45.84181" lon="5.08594">
        <ele>219.4</ele>
        <time>2024-09-19T15:56:19Z</time>
      </trkpt>
      <trkpt lat="45.84184" lon="5.08589">
        <ele>219.4</ele>
        <time>2024-09-19T15:56:20Z</time>
      </trkpt>
      <trkpt lat="45.84187" lon="5.08585">
        <ele>219.4</ele>
        <time>2024-09-19T15:56:21Z</time>
      </trkpt>
      <trkpt lat="45.8419" lon="5.08581">
        <ele>219.2</ele>
        <time>2024-09-19T15:56:22Z</time>
      </trkpt>
      <trkpt lat="45.84192" lon="5.08577">
        <ele>219.4</ele>
        <time>2024-09-19T15:56:23Z</time>
      </trkpt>
      <trkpt lat="45.84195" lon="5.08572">
        <ele>219.4</ele>
        <time>2024-09-19T15:56:24Z</time>
      </trkpt>
      <trkpt lat="45.84198" lon="5.08568">
        <ele>219.4</ele>
        <time>2024-09-19T15:56:25Z</time>
      </trkpt>
      <trkpt lat="45.84201" lon="5.08563">
        <ele>219.6</ele>
        <time>2024-09-19T15:56:26Z</time>
      </trkpt>
      <trkpt lat="45.84203" lon="5.08558">
        <ele>219.6</ele>
        <time>2024-09-19T15:56:27Z</time>
      </trkpt>
      <trkpt lat="45.84206" lon="5.08553">
        <ele>219.6</ele>
        <time>2024-09-19T15:56:28Z</time>
      </trkpt>
      <trkpt lat="45.84208" lon="5.08548">
        <ele>219.8</ele>
        <time>2024-09-19T15:56:29Z</time>
      </trkpt>
      <trkpt lat="45.84211" lon="5.08543">
        <ele>219.8</ele>
        <time>2024-09-19T15:56:30Z</time>
      </trkpt>
      <trkpt lat="45.84214" lon="5.08537">
        <ele>219.8</ele>
        <time>2024-09-19T15:56:31Z</time>
      </trkpt>
      <trkpt lat="45.84216" lon="5.08532">
        <ele>219.6</ele>
        <time>2024-09-19T15:56:32Z</time>
      </trkpt>
      <trkpt lat="45.84218" lon="5.08526">
        <ele>219.6</ele>
        <time>2024-09-19T15:56:33Z</time>
      </trkpt>
      <trkpt lat="45.84221" lon="5.08521">
        <ele>219.6</ele>
        <time>2024-09-19T15:56:34Z</time>
      </trkpt>
      <trkpt lat="45.84223" lon="5.08515">
        <ele>219.6</ele>
        <time>2024-09-19T15:56:35Z</time>
      </trkpt>
      <trkpt lat="45.84226" lon="5.08509">
        <ele>219.6</ele>
        <time>2024-09-19T15:56:36Z</time>
      </trkpt>
      <trkpt lat="45.84228" lon="5.08504">
        <ele>219.6</ele>
        <time>2024-09-19T15:56:37Z</time>
      </trkpt>
      <trkpt lat="45.8423" lon="5.08498">
        <ele>219.8</ele>
        <time>2024-09-19T15:56:38Z</time>
      </trkpt>
      <trkpt lat="45.84233" lon="5.08492">
        <ele>219.6</ele>
        <time>2024-09-19T15:56:39Z</time>
      </trkpt>
      <trkpt lat="45.84235" lon="5.08486">
        <ele>219.6</ele>
        <time>2024-09-19T15:56:40Z</time>
      </trkpt>
      <trkpt lat="45.84237" lon="5.0848">
        <ele>219.8</ele>
        <time>2024-09-19T15:56:41Z</time>
      </trkpt>
      <trkpt lat="45.84239" lon="5.08474">
        <ele>219.8</ele>
        <time>2024-09-19T15:56:42Z</time>
      </trkpt>
      <trkpt lat="45.84241" lon="5.08467">
        <ele>219.8</ele>
        <time>2024-09-19T15:56:43Z</time>
      </trkpt>
      <trkpt lat="45.84243" lon="5.08461">
        <ele>219.2</ele>
        <time>2024-09-19T15:56:44Z</time>
      </trkpt>
      <trkpt lat="45.84245" lon="5.08455">
        <ele>219</ele>
        <time>2024-09-19T15:56:45Z</time>
      </trkpt>
      <trkpt lat="45.84248" lon="5.08449">
        <ele>219.2</ele>
        <time>2024-09-19T15:56:46Z</time>
      </trkpt>
      <trkpt lat="45.8425" lon="5.08442">
        <ele>219.4</ele>
        <time>2024-09-19T15:56:47Z</time>
      </trkpt>
      <trkpt lat="45.84252" lon="5.08436">
        <ele>219.4</ele>
        <time>2024-09-19T15:56:48Z</time>
      </trkpt>
      <trkpt lat="45.84254" lon="5.08429">
        <ele>219.4</ele>
        <time>2024-09-19T15:56:49Z</time>
      </trkpt>
      <trkpt lat="45.84256" lon="5.08423">
        <ele>219.8</ele>
        <time>2024-09-19T15:56:50Z</time>
      </trkpt>
      <trkpt lat="45.84258" lon="5.08418">
        <ele>219.8</ele>
        <time>2024-09-19T15:56:51Z</time>
      </trkpt>
      <trkpt lat="45.8426" lon="5.08413">
        <ele>220</ele>
        <time>2024-09-19T15:56:52Z</time>
      </trkpt>
      <trkpt lat="45.84262" lon="5.08408">
        <ele>220.2</ele>
        <time>2024-09-19T15:56:53Z</time>
      </trkpt>
      <trkpt lat="45.84264" lon="5.08403">
        <ele>220.2</ele>
        <time>2024-09-19T15:56:54Z</time>
      </trkpt>
      <trkpt lat="45.84266" lon="5.08397">
        <ele>220</ele>
        <time>2024-09-19T15:56:55Z</time>
      </trkpt>
      <trkpt lat="45.84268" lon="5.08391">
        <ele>220</ele>
        <time>2024-09-19T15:56:56Z</time>
      </trkpt>
      <trkpt lat="45.8427" lon="5.08385">
        <ele>220</ele>
        <time>2024-09-19T15:56:57Z</time>
      </trkpt>
      <trkpt lat="45.84273" lon="5.08379">
        <ele>220</ele>
        <time>2024-09-19T15:56:58Z</time>
      </trkpt>
      <trkpt lat="45.84275" lon="5.08372">
        <ele>220</ele>
        <time>2024-09-19T15:56:59Z</time>
      </trkpt>
      <trkpt lat="45.84277" lon="5.08366">
        <ele>220</ele>
        <time>2024-09-19T15:57:00Z</time>
      </trkpt>
      <trkpt lat="45.84279" lon="5.08359">
        <ele>220</ele>
        <time>2024-09-19T15:57:01Z</time>
      </trkpt>
      <trkpt lat="45.84282" lon="5.08353">
        <ele>220</ele>
        <time>2024-09-19T15:57:02Z</time>
      </trkpt>
      <trkpt lat="45.84285" lon="5.08347">
        <ele>220</ele>
        <time>2024-09-19T15:57:03Z</time>
      </trkpt>
      <trkpt lat="45.84288" lon="5.08341">
        <ele>220</ele>
        <time>2024-09-19T15:57:04Z</time>
      </trkpt>
      <trkpt lat="45.84292" lon="5.08335">
        <ele>220</ele>
        <time>2024-09-19T15:57:05Z</time>
      </trkpt>
      <trkpt lat="45.84295" lon="5.08329">
        <ele>219.8</ele>
        <time>2024-09-19T15:57:06Z</time>
      </trkpt>
      <trkpt lat="45.84295" lon="5.08329">
        <ele>219.8</ele>
        <time>2024-09-19T15:57:07Z</time>
      </trkpt>
      <trkpt lat="45.84295" lon="5.08329">
        <ele>219.4</ele>
        <time>2024-09-19T15:57:08Z</time>
      </trkpt>
      <trkpt lat="45.84312" lon="5.0831">
        <ele>219.4</ele>
        <time>2024-09-19T15:57:10Z</time>
      </trkpt>
      <trkpt lat="45.84317" lon="5.08307">
        <ele>219.4</ele>
        <time>2024-09-19T15:57:11Z</time>
      </trkpt>
      <trkpt lat="45.84322" lon="5.08303">
        <ele>219</ele>
        <time>2024-09-19T15:57:12Z</time>
      </trkpt>
      <trkpt lat="45.84328" lon="5.08299">
        <ele>219</ele>
        <time>2024-09-19T15:57:13Z</time>
      </trkpt>
      <trkpt lat="45.84333" lon="5.08295">
        <ele>218.8</ele>
        <time>2024-09-19T15:57:14Z</time>
      </trkpt>
      <trkpt lat="45.84339" lon="5.08291">
        <ele>219</ele>
        <time>2024-09-19T15:57:15Z</time>
      </trkpt>
      <trkpt lat="45.84344" lon="5.08286">
        <ele>218.8</ele>
        <time>2024-09-19T15:57:16Z</time>
      </trkpt>
      <trkpt lat="45.84349" lon="5.0828">
        <ele>218.6</ele>
        <time>2024-09-19T15:57:17Z</time>
      </trkpt>
      <trkpt lat="45.84354" lon="5.08274">
        <ele>218.2</ele>
        <time>2024-09-19T15:57:18Z</time>
      </trkpt>
      <trkpt lat="45.84359" lon="5.08268">
        <ele>218.2</ele>
        <time>2024-09-19T15:57:19Z</time>
      </trkpt>
      <trkpt lat="45.84364" lon="5.08262">
        <ele>218.2</ele>
        <time>2024-09-19T15:57:20Z</time>
      </trkpt>
      <trkpt lat="45.84369" lon="5.08256">
        <ele>217.8</ele>
        <time>2024-09-19T15:57:21Z</time>
      </trkpt>
      <trkpt lat="45.84373" lon="5.0825">
        <ele>217.8</ele>
        <time>2024-09-19T15:57:22Z</time>
      </trkpt>
      <trkpt lat="45.84378" lon="5.08244">
        <ele>217.6</ele>
        <time>2024-09-19T15:57:23Z</time>
      </trkpt>
      <trkpt lat="45.84384" lon="5.08238">
        <ele>217.6</ele>
        <time>2024-09-19T15:57:24Z</time>
      </trkpt>
      <trkpt lat="45.84389" lon="5.08232">
        <ele>217.4</ele>
        <time>2024-09-19T15:57:25Z</time>
      </trkpt>
      <trkpt lat="45.84395" lon="5.08226">
        <ele>217.2</ele>
        <time>2024-09-19T15:57:26Z</time>
      </trkpt>
      <trkpt lat="45.844" lon="5.08221">
        <ele>217.2</ele>
        <time>2024-09-19T15:57:27Z</time>
      </trkpt>
      <trkpt lat="45.84405" lon="5.08216">
        <ele>217.2</ele>
        <time>2024-09-19T15:57:28Z</time>
      </trkpt>
      <trkpt lat="45.84413" lon="5.08212">
        <ele>217.2</ele>
        <time>2024-09-19T15:57:29Z</time>
      </trkpt>
      <trkpt lat="45.84417" lon="5.08207">
        <ele>216.8</ele>
        <time>2024-09-19T15:57:30Z</time>
      </trkpt>
      <trkpt lat="45.84422" lon="5.08202">
        <ele>216.8</ele>
        <time>2024-09-19T15:57:31Z</time>
      </trkpt>
      <trkpt lat="45.84428" lon="5.08198">
        <ele>216.8</ele>
        <time>2024-09-19T15:57:32Z</time>
      </trkpt>
      <trkpt lat="45.84433" lon="5.08194">
        <ele>216.8</ele>
        <time>2024-09-19T15:57:33Z</time>
      </trkpt>
      <trkpt lat="45.84438" lon="5.08189">
        <ele>216.4</ele>
        <time>2024-09-19T15:57:34Z</time>
      </trkpt>
      <trkpt lat="45.84444" lon="5.08185">
        <ele>216.4</ele>
        <time>2024-09-19T15:57:35Z</time>
      </trkpt>
      <trkpt lat="45.84448" lon="5.0818">
        <ele>216.4</ele>
        <time>2024-09-19T15:57:36Z</time>
      </trkpt>
      <trkpt lat="45.84453" lon="5.08174">
        <ele>216.4</ele>
        <time>2024-09-19T15:57:37Z</time>
      </trkpt>
      <trkpt lat="45.84453" lon="5.08174">
        <ele>216.4</ele>
        <time>2024-09-19T15:57:38Z</time>
      </trkpt>
      <trkpt lat="45.84453" lon="5.08174">
        <ele>216.4</ele>
        <time>2024-09-19T15:57:39Z</time>
      </trkpt>
      <trkpt lat="45.84465" lon="5.08156">
        <ele>216.4</ele>
        <time>2024-09-19T15:57:40Z</time>
      </trkpt>
      <trkpt lat="45.84469" lon="5.08151">
        <ele>216.4</ele>
        <time>2024-09-19T15:57:41Z</time>
      </trkpt>
      <trkpt lat="45.84473" lon="5.08146">
        <ele>216.4</ele>
        <time>2024-09-19T15:57:42Z</time>
      </trkpt>
      <trkpt lat="45.84476" lon="5.08141">
        <ele>216.4</ele>
        <time>2024-09-19T15:57:43Z</time>
      </trkpt>
      <trkpt lat="45.8448" lon="5.08135">
        <ele>216.4</ele>
        <time>2024-09-19T15:57:44Z</time>
      </trkpt>
      <trkpt lat="45.84484" lon="5.08129">
        <ele>216.4</ele>
        <time>2024-09-19T15:57:45Z</time>
      </trkpt>
      <trkpt lat="45.84488" lon="5.08124">
        <ele>216.4</ele>
        <time>2024-09-19T15:57:46Z</time>
      </trkpt>
      <trkpt lat="45.84492" lon="5.08118">
        <ele>216.4</ele>
        <time>2024-09-19T15:57:47Z</time>
      </trkpt>
      <trkpt lat="45.84495" lon="5.08113">
        <ele>216.4</ele>
        <time>2024-09-19T15:57:48Z</time>
      </trkpt>
      <trkpt lat="45.84499" lon="5.08108">
        <ele>216.4</ele>
        <time>2024-09-19T15:57:49Z</time>
      </trkpt>
      <trkpt lat="45.84503" lon="5.08102">
        <ele>216.4</ele>
        <time>2024-09-19T15:57:50Z</time>
      </trkpt>
      <trkpt lat="45.84506" lon="5.08097">
        <ele>216.4</ele>
        <time>2024-09-19T15:57:51Z</time>
      </trkpt>
      <trkpt lat="45.84509" lon="5.08092">
        <ele>216.6</ele>
        <time>2024-09-19T15:57:52Z</time>
      </trkpt>
      <trkpt lat="45.84513" lon="5.08087">
        <ele>216.6</ele>
        <time>2024-09-19T15:57:53Z</time>
      </trkpt>
      <trkpt lat="45.84517" lon="5.08083">
        <ele>216.6</ele>
        <time>2024-09-19T15:57:54Z</time>
      </trkpt>
      <trkpt lat="45.8452" lon="5.08077">
        <ele>216.6</ele>
        <time>2024-09-19T15:57:55Z</time>
      </trkpt>
      <trkpt lat="45.84523" lon="5.08072">
        <ele>216.6</ele>
        <time>2024-09-19T15:57:56Z</time>
      </trkpt>
      <trkpt lat="45.84527" lon="5.08068">
        <ele>216.6</ele>
        <time>2024-09-19T15:57:57Z</time>
      </trkpt>
      <trkpt lat="45.8453" lon="5.08062">
        <ele>216.6</ele>
        <time>2024-09-19T15:57:58Z</time>
      </trkpt>
      <trkpt lat="45.84533" lon="5.08057">
        <ele>216.6</ele>
        <time>2024-09-19T15:57:59Z</time>
      </trkpt>
      <trkpt lat="45.84536" lon="5.08052">
        <ele>216.6</ele>
        <time>2024-09-19T15:58:00Z</time>
      </trkpt>
      <trkpt lat="45.84539" lon="5.08048">
        <ele>216.6</ele>
        <time>2024-09-19T15:58:01Z</time>
      </trkpt>
      <trkpt lat="45.84542" lon="5.08042">
        <ele>216.6</ele>
        <time>2024-09-19T15:58:02Z</time>
      </trkpt>
      <trkpt lat="45.84545" lon="5.08037">
        <ele>217</ele>
        <time>2024-09-19T15:58:03Z</time>
      </trkpt>
      <trkpt lat="45.84548" lon="5.08031">
        <ele>217</ele>
        <time>2024-09-19T15:58:04Z</time>
      </trkpt>
      <trkpt lat="45.84552" lon="5.08025">
        <ele>217.2</ele>
        <time>2024-09-19T15:58:05Z</time>
      </trkpt>
      <trkpt lat="45.84554" lon="5.08019">
        <ele>217.2</ele>
        <time>2024-09-19T15:58:06Z</time>
      </trkpt>
      <trkpt lat="45.84558" lon="5.08013">
        <ele>217.2</ele>
        <time>2024-09-19T15:58:07Z</time>
      </trkpt>
      <trkpt lat="45.84561" lon="5.08007">
        <ele>217.2</ele>
        <time>2024-09-19T15:58:08Z</time>
      </trkpt>
      <trkpt lat="45.84563" lon="5.08002">
        <ele>217.6</ele>
        <time>2024-09-19T15:58:09Z</time>
      </trkpt>
      <trkpt lat="45.84566" lon="5.07996">
        <ele>217.6</ele>
        <time>2024-09-19T15:58:10Z</time>
      </trkpt>
      <trkpt lat="45.8457" lon="5.0799">
        <ele>217.8</ele>
        <time>2024-09-19T15:58:11Z</time>
      </trkpt>
      <trkpt lat="45.84573" lon="5.07983">
        <ele>217.8</ele>
        <time>2024-09-19T15:58:12Z</time>
      </trkpt>
      <trkpt lat="45.84576" lon="5.07977">
        <ele>217.8</ele>
        <time>2024-09-19T15:58:13Z</time>
      </trkpt>
      <trkpt lat="45.8458" lon="5.07971">
        <ele>217.4</ele>
        <time>2024-09-19T15:58:14Z</time>
      </trkpt>
      <trkpt lat="45.84585" lon="5.07965">
        <ele>217.2</ele>
        <time>2024-09-19T15:58:15Z</time>
      </trkpt>
      <trkpt lat="45.84589" lon="5.0796">
        <ele>217.2</ele>
        <time>2024-09-19T15:58:16Z</time>
      </trkpt>
      <trkpt lat="45.84593" lon="5.07954">
        <ele>217</ele>
        <time>2024-09-19T15:58:17Z</time>
      </trkpt>
      <trkpt lat="45.84597" lon="5.07949">
        <ele>217</ele>
        <time>2024-09-19T15:58:18Z</time>
      </trkpt>
      <trkpt lat="45.84602" lon="5.07943">
        <ele>216.6</ele>
        <time>2024-09-19T15:58:19Z</time>
      </trkpt>
      <trkpt lat="45.84607" lon="5.07938">
        <ele>216.6</ele>
        <time>2024-09-19T15:58:20Z</time>
      </trkpt>
      <trkpt lat="45.84611" lon="5.07933">
        <ele>216.6</ele>
        <time>2024-09-19T15:58:21Z</time>
      </trkpt>
      <trkpt lat="45.84615" lon="5.07928">
        <ele>216.6</ele>
        <time>2024-09-19T15:58:22Z</time>
      </trkpt>
      <trkpt lat="45.8462" lon="5.07923">
        <ele>216.6</ele>
        <time>2024-09-19T15:58:23Z</time>
      </trkpt>
      <trkpt lat="45.84625" lon="5.0792">
        <ele>216.6</ele>
        <time>2024-09-19T15:58:24Z</time>
      </trkpt>
      <trkpt lat="45.8463" lon="5.07916">
        <ele>216.6</ele>
        <time>2024-09-19T15:58:25Z</time>
      </trkpt>
      <trkpt lat="45.84635" lon="5.07914">
        <ele>216.6</ele>
        <time>2024-09-19T15:58:26Z</time>
      </trkpt>
      <trkpt lat="45.8464" lon="5.07911">
        <ele>216.6</ele>
        <time>2024-09-19T15:58:27Z</time>
      </trkpt>
      <trkpt lat="45.84645" lon="5.07909">
        <ele>216.6</ele>
        <time>2024-09-19T15:58:28Z</time>
      </trkpt>
      <trkpt lat="45.8465" lon="5.07907">
        <ele>217</ele>
        <time>2024-09-19T15:58:29Z</time>
      </trkpt>
      <trkpt lat="45.84655" lon="5.07905">
        <ele>217</ele>
        <time>2024-09-19T15:58:30Z</time>
      </trkpt>
      <trkpt lat="45.8466" lon="5.07903">
        <ele>217</ele>
        <time>2024-09-19T15:58:31Z</time>
      </trkpt>
      <trkpt lat="45.84664" lon="5.07899">
        <ele>217</ele>
        <time>2024-09-19T15:58:32Z</time>
      </trkpt>
      <trkpt lat="45.8467" lon="5.07896">
        <ele>217</ele>
        <time>2024-09-19T15:58:33Z</time>
      </trkpt>
      <trkpt lat="45.84674" lon="5.07894">
        <ele>217</ele>
        <time>2024-09-19T15:58:34Z</time>
      </trkpt>
      <trkpt lat="45.84674" lon="5.07894">
        <ele>217</ele>
        <time>2024-09-19T15:58:35Z</time>
      </trkpt>
      <trkpt lat="45.84674" lon="5.07894">
        <ele>217</ele>
        <time>2024-09-19T15:58:36Z</time>
      </trkpt>
      <trkpt lat="45.84693" lon="5.07888">
        <ele>217.2</ele>
        <time>2024-09-19T15:58:38Z</time>
      </trkpt>
      <trkpt lat="45.84698" lon="5.07886">
        <ele>217.2</ele>
        <time>2024-09-19T15:58:39Z</time>
      </trkpt>
      <trkpt lat="45.84702" lon="5.07885">
        <ele>217.2</ele>
        <time>2024-09-19T15:58:40Z</time>
      </trkpt>
      <trkpt lat="45.84708" lon="5.07882">
        <ele>217.6</ele>
        <time>2024-09-19T15:58:41Z</time>
      </trkpt>
      <trkpt lat="45.84713" lon="5.07882">
        <ele>217.6</ele>
        <time>2024-09-19T15:58:42Z</time>
      </trkpt>
      <trkpt lat="45.84719" lon="5.07882">
        <ele>217.2</ele>
        <time>2024-09-19T15:58:43Z</time>
      </trkpt>
      <trkpt lat="45.84724" lon="5.0788">
        <ele>217.2</ele>
        <time>2024-09-19T15:58:44Z</time>
      </trkpt>
      <trkpt lat="45.84731" lon="5.0788">
        <ele>217.2</ele>
        <time>2024-09-19T15:58:45Z</time>
      </trkpt>
      <trkpt lat="45.84736" lon="5.07879">
        <ele>216.6</ele>
        <time>2024-09-19T15:58:46Z</time>
      </trkpt>
      <trkpt lat="45.84741" lon="5.07877">
        <ele>216.6</ele>
        <time>2024-09-19T15:58:47Z</time>
      </trkpt>
      <trkpt lat="45.84746" lon="5.07876">
        <ele>216.6</ele>
        <time>2024-09-19T15:58:48Z</time>
      </trkpt>
      <trkpt lat="45.84751" lon="5.07874">
        <ele>216.6</ele>
        <time>2024-09-19T15:58:49Z</time>
      </trkpt>
      <trkpt lat="45.84756" lon="5.07872">
        <ele>216.6</ele>
        <time>2024-09-19T15:58:50Z</time>
      </trkpt>
      <trkpt lat="45.84761" lon="5.07871">
        <ele>216.6</ele>
        <time>2024-09-19T15:58:51Z</time>
      </trkpt>
      <trkpt lat="45.84766" lon="5.07868">
        <ele>216.6</ele>
        <time>2024-09-19T15:58:52Z</time>
      </trkpt>
      <trkpt lat="45.84771" lon="5.07866">
        <ele>216.6</ele>
        <time>2024-09-19T15:58:53Z</time>
      </trkpt>
      <trkpt lat="45.84775" lon="5.07863">
        <ele>216.8</ele>
        <time>2024-09-19T15:58:54Z</time>
      </trkpt>
      <trkpt lat="45.8478" lon="5.07859">
        <ele>216.8</ele>
        <time>2024-09-19T15:58:55Z</time>
      </trkpt>
      <trkpt lat="45.84785" lon="5.07858">
        <ele>217</ele>
        <time>2024-09-19T15:58:56Z</time>
      </trkpt>
      <trkpt lat="45.84789" lon="5.07855">
        <ele>217</ele>
        <time>2024-09-19T15:58:57Z</time>
      </trkpt>
      <trkpt lat="45.84794" lon="5.07852">
        <ele>217.4</ele>
        <time>2024-09-19T15:58:58Z</time>
      </trkpt>
      <trkpt lat="45.84798" lon="5.0785">
        <ele>217.4</ele>
        <time>2024-09-19T15:58:59Z</time>
      </trkpt>
      <trkpt lat="45.84803" lon="5.07847">
        <ele>217.4</ele>
        <time>2024-09-19T15:59:00Z</time>
      </trkpt>
      <trkpt lat="45.84807" lon="5.07844">
        <ele>217.4</ele>
        <time>2024-09-19T15:59:01Z</time>
      </trkpt>
      <trkpt lat="45.84812" lon="5.0784">
        <ele>217.4</ele>
        <time>2024-09-19T15:59:02Z</time>
      </trkpt>
      <trkpt lat="45.84816" lon="5.07837">
        <ele>217.4</ele>
        <time>2024-09-19T15:59:03Z</time>
      </trkpt>
      <trkpt lat="45.84821" lon="5.07834">
        <ele>217.6</ele>
        <time>2024-09-19T15:59:04Z</time>
      </trkpt>
      <trkpt lat="45.84825" lon="5.0783">
        <ele>217.6</ele>
        <time>2024-09-19T15:59:05Z</time>
      </trkpt>
      <trkpt lat="45.84829" lon="5.07827">
        <ele>217.6</ele>
        <time>2024-09-19T15:59:06Z</time>
      </trkpt>
      <trkpt lat="45.84833" lon="5.07825">
        <ele>217.6</ele>
        <time>2024-09-19T15:59:07Z</time>
      </trkpt>
      <trkpt lat="45.84837" lon="5.07822">
        <ele>217.2</ele>
        <time>2024-09-19T15:59:08Z</time>
      </trkpt>
      <trkpt lat="45.84842" lon="5.07819">
        <ele>217.6</ele>
        <time>2024-09-19T15:59:09Z</time>
      </trkpt>
      <trkpt lat="45.84845" lon="5.07817">
        <ele>218</ele>
        <time>2024-09-19T15:59:10Z</time>
      </trkpt>
      <trkpt lat="45.84849" lon="5.07815">
        <ele>218.2</ele>
        <time>2024-09-19T15:59:11Z</time>
      </trkpt>
      <trkpt lat="45.84853" lon="5.07813">
        <ele>218.4</ele>
        <time>2024-09-19T15:59:12Z</time>
      </trkpt>
      <trkpt lat="45.84856" lon="5.07812">
        <ele>218.8</ele>
        <time>2024-09-19T15:59:13Z</time>
      </trkpt>
      <trkpt lat="45.84859" lon="5.0781">
        <ele>218.6</ele>
        <time>2024-09-19T15:59:14Z</time>
      </trkpt>
      <trkpt lat="45.84862" lon="5.07809">
        <ele>219</ele>
        <time>2024-09-19T15:59:15Z</time>
      </trkpt>
      <trkpt lat="45.84864" lon="5.07807">
        <ele>219.4</ele>
        <time>2024-09-19T15:59:16Z</time>
      </trkpt>
      <trkpt lat="45.84867" lon="5.07807">
        <ele>219.4</ele>
        <time>2024-09-19T15:59:17Z</time>
      </trkpt>
      <trkpt lat="45.84869" lon="5.07807">
        <ele>219.4</ele>
        <time>2024-09-19T15:59:18Z</time>
      </trkpt>
      <trkpt lat="45.84872" lon="5.07807">
        <ele>219.6</ele>
        <time>2024-09-19T15:59:19Z</time>
      </trkpt>
      <trkpt lat="45.84876" lon="5.07807">
        <ele>219.6</ele>
        <time>2024-09-19T15:59:20Z</time>
      </trkpt>
      <trkpt lat="45.84879" lon="5.07807">
        <ele>219.6</ele>
        <time>2024-09-19T15:59:21Z</time>
      </trkpt>
      <trkpt lat="45.84884" lon="5.07807">
        <ele>219.6</ele>
        <time>2024-09-19T15:59:22Z</time>
      </trkpt>
      <trkpt lat="45.84888" lon="5.07808">
        <ele>219.2</ele>
        <time>2024-09-19T15:59:23Z</time>
      </trkpt>
      <trkpt lat="45.84893" lon="5.07808">
        <ele>219.2</ele>
        <time>2024-09-19T15:59:24Z</time>
      </trkpt>
      <trkpt lat="45.84897" lon="5.07808">
        <ele>219.2</ele>
        <time>2024-09-19T15:59:25Z</time>
      </trkpt>
      <trkpt lat="45.84902" lon="5.07807">
        <ele>219.2</ele>
        <time>2024-09-19T15:59:26Z</time>
      </trkpt>
      <trkpt lat="45.84906" lon="5.07807">
        <ele>218.8</ele>
        <time>2024-09-19T15:59:27Z</time>
      </trkpt>
      <trkpt lat="45.84912" lon="5.07805">
        <ele>218.8</ele>
        <time>2024-09-19T15:59:28Z</time>
      </trkpt>
      <trkpt lat="45.84916" lon="5.07807">
        <ele>218.6</ele>
        <time>2024-09-19T15:59:29Z</time>
      </trkpt>
      <trkpt lat="45.84921" lon="5.07806">
        <ele>218.6</ele>
        <time>2024-09-19T15:59:30Z</time>
      </trkpt>
      <trkpt lat="45.84925" lon="5.07806">
        <ele>218.6</ele>
        <time>2024-09-19T15:59:31Z</time>
      </trkpt>
      <trkpt lat="45.8493" lon="5.07804">
        <ele>218.4</ele>
        <time>2024-09-19T15:59:32Z</time>
      </trkpt>
      <trkpt lat="45.84934" lon="5.07802">
        <ele>218.4</ele>
        <time>2024-09-19T15:59:33Z</time>
      </trkpt>
      <trkpt lat="45.84939" lon="5.078">
        <ele>218.2</ele>
        <time>2024-09-19T15:59:34Z</time>
      </trkpt>
      <trkpt lat="45.84943" lon="5.07798">
        <ele>218.2</ele>
        <time>2024-09-19T15:59:35Z</time>
      </trkpt>
      <trkpt lat="45.84946" lon="5.07795">
        <ele>218.2</ele>
        <time>2024-09-19T15:59:36Z</time>
      </trkpt>
      <trkpt lat="45.84951" lon="5.07793">
        <ele>218.2</ele>
        <time>2024-09-19T15:59:37Z</time>
      </trkpt>
      <trkpt lat="45.84955" lon="5.07791">
        <ele>218.2</ele>
        <time>2024-09-19T15:59:38Z</time>
      </trkpt>
      <trkpt lat="45.84959" lon="5.07789">
        <ele>218.2</ele>
        <time>2024-09-19T15:59:39Z</time>
      </trkpt>
      <trkpt lat="45.84963" lon="5.07786">
        <ele>218.4</ele>
        <time>2024-09-19T15:59:40Z</time>
      </trkpt>
      <trkpt lat="45.84968" lon="5.07784">
        <ele>218.6</ele>
        <time>2024-09-19T15:59:41Z</time>
      </trkpt>
      <trkpt lat="45.84972" lon="5.07781">
        <ele>218.6</ele>
        <time>2024-09-19T15:59:42Z</time>
      </trkpt>
      <trkpt lat="45.84977" lon="5.07778">
        <ele>218.8</ele>
        <time>2024-09-19T15:59:43Z</time>
      </trkpt>
      <trkpt lat="45.84981" lon="5.07776">
        <ele>218.8</ele>
        <time>2024-09-19T15:59:44Z</time>
      </trkpt>
      <trkpt lat="45.84986" lon="5.07773">
        <ele>218.8</ele>
        <time>2024-09-19T15:59:45Z</time>
      </trkpt>
      <trkpt lat="45.8499" lon="5.07771">
        <ele>218.8</ele>
        <time>2024-09-19T15:59:46Z</time>
      </trkpt>
      <trkpt lat="45.84995" lon="5.0777">
        <ele>218.8</ele>
        <time>2024-09-19T15:59:47Z</time>
      </trkpt>
      <trkpt lat="45.84999" lon="5.07768">
        <ele>218.8</ele>
        <time>2024-09-19T15:59:48Z</time>
      </trkpt>
      <trkpt lat="45.85004" lon="5.07768">
        <ele>218.8</ele>
        <time>2024-09-19T15:59:49Z</time>
      </trkpt>
      <trkpt lat="45.85008" lon="5.07767">
        <ele>219.2</ele>
        <time>2024-09-19T15:59:50Z</time>
      </trkpt>
      <trkpt lat="45.85012" lon="5.07767">
        <ele>219.2</ele>
        <time>2024-09-19T15:59:51Z</time>
      </trkpt>
      <trkpt lat="45.85017" lon="5.07767">
        <ele>219.2</ele>
        <time>2024-09-19T15:59:52Z</time>
      </trkpt>
      <trkpt lat="45.85022" lon="5.07766">
        <ele>219.2</ele>
        <time>2024-09-19T15:59:53Z</time>
      </trkpt>
      <trkpt lat="45.85026" lon="5.07766">
        <ele>219.2</ele>
        <time>2024-09-19T15:59:54Z</time>
      </trkpt>
      <trkpt lat="45.85031" lon="5.07766">
        <ele>219.2</ele>
        <time>2024-09-19T15:59:55Z</time>
      </trkpt>
      <trkpt lat="45.85035" lon="5.07767">
        <ele>219.2</ele>
        <time>2024-09-19T15:59:56Z</time>
      </trkpt>
      <trkpt lat="45.8504" lon="5.07767">
        <ele>219.2</ele>
        <time>2024-09-19T15:59:57Z</time>
      </trkpt>
      <trkpt lat="45.85045" lon="5.07768">
        <ele>219.4</ele>
        <time>2024-09-19T15:59:58Z</time>
      </trkpt>
      <trkpt lat="45.85049" lon="5.07768">
        <ele>219.4</ele>
        <time>2024-09-19T15:59:59Z</time>
      </trkpt>
      <trkpt lat="45.85054" lon="5.07767">
        <ele>219.4</ele>
        <time>2024-09-19T16:00:00Z</time>
      </trkpt>
      <trkpt lat="45.85058" lon="5.07768">
        <ele>219.4</ele>
        <time>2024-09-19T16:00:01Z</time>
      </trkpt>
      <trkpt lat="45.85063" lon="5.07767">
        <ele>219.8</ele>
        <time>2024-09-19T16:00:02Z</time>
      </trkpt>
      <trkpt lat="45.85067" lon="5.07768">
        <ele>219.8</ele>
        <time>2024-09-19T16:00:03Z</time>
      </trkpt>
      <trkpt lat="45.85071" lon="5.07768">
        <ele>219.8</ele>
        <time>2024-09-19T16:00:04Z</time>
      </trkpt>
      <trkpt lat="45.85076" lon="5.07768">
        <ele>219.8</ele>
        <time>2024-09-19T16:00:05Z</time>
      </trkpt>
      <trkpt lat="45.8508" lon="5.07767">
        <ele>220</ele>
        <time>2024-09-19T16:00:06Z</time>
      </trkpt>
      <trkpt lat="45.85085" lon="5.07766">
        <ele>220</ele>
        <time>2024-09-19T16:00:07Z</time>
      </trkpt>
      <trkpt lat="45.85089" lon="5.07766">
        <ele>220.2</ele>
        <time>2024-09-19T16:00:08Z</time>
      </trkpt>
      <trkpt lat="45.85093" lon="5.07765">
        <ele>220.2</ele>
        <time>2024-09-19T16:00:09Z</time>
      </trkpt>
      <trkpt lat="45.85096" lon="5.07766">
        <ele>220.2</ele>
        <time>2024-09-19T16:00:10Z</time>
      </trkpt>
      <trkpt lat="45.85099" lon="5.07765">
        <ele>220.6</ele>
        <time>2024-09-19T16:00:11Z</time>
      </trkpt>
      <trkpt lat="45.85101" lon="5.07764">
        <ele>220.6</ele>
        <time>2024-09-19T16:00:12Z</time>
      </trkpt>
      <trkpt lat="45.85103" lon="5.07764">
        <ele>220.6</ele>
        <time>2024-09-19T16:00:13Z</time>
      </trkpt>
      <trkpt lat="45.85105" lon="5.07764">
        <ele>220.6</ele>
        <time>2024-09-19T16:00:14Z</time>
      </trkpt>
      <trkpt lat="45.85106" lon="5.07765">
        <ele>220.6</ele>
        <time>2024-09-19T16:00:15Z</time>
      </trkpt>
      <trkpt lat="45.85106" lon="5.07766">
        <ele>220.8</ele>
        <time>2024-09-19T16:00:16Z</time>
      </trkpt>
      <trkpt lat="45.85108" lon="5.07766">
        <ele>220.8</ele>
        <time>2024-09-19T16:00:17Z</time>
      </trkpt>
      <trkpt lat="45.8511" lon="5.07765">
        <ele>221</ele>
        <time>2024-09-19T16:00:18Z</time>
      </trkpt>
      <trkpt lat="45.85111" lon="5.07762">
        <ele>221</ele>
        <time>2024-09-19T16:00:19Z</time>
      </trkpt>
      <trkpt lat="45.85112" lon="5.07758">
        <ele>221</ele>
        <time>2024-09-19T16:00:20Z</time>
      </trkpt>
      <trkpt lat="45.85112" lon="5.07753">
        <ele>221</ele>
        <time>2024-09-19T16:00:21Z</time>
      </trkpt>
      <trkpt lat="45.85112" lon="5.07748">
        <ele>221</ele>
        <time>2024-09-19T16:00:22Z</time>
      </trkpt>
      <trkpt lat="45.85111" lon="5.07743">
        <ele>221</ele>
        <time>2024-09-19T16:00:23Z</time>
      </trkpt>
      <trkpt lat="45.8511" lon="5.07738">
        <ele>221</ele>
        <time>2024-09-19T16:00:24Z</time>
      </trkpt>
      <trkpt lat="45.85109" lon="5.07733">
        <ele>220.8</ele>
        <time>2024-09-19T16:00:25Z</time>
      </trkpt>
      <trkpt lat="45.85109" lon="5.07729">
        <ele>220.8</ele>
        <time>2024-09-19T16:00:26Z</time>
      </trkpt>
      <trkpt lat="45.85111" lon="5.07724">
        <ele>220.6</ele>
        <time>2024-09-19T16:00:27Z</time>
      </trkpt>
      <trkpt lat="45.85117" lon="5.07728">
        <ele>220.6</ele>
        <time>2024-09-19T16:00:28Z</time>
      </trkpt>
      <trkpt lat="45.85121" lon="5.07727">
        <ele>220.6</ele>
        <time>2024-09-19T16:00:29Z</time>
      </trkpt>
      <trkpt lat="45.85124" lon="5.07728">
        <ele>220.6</ele>
        <time>2024-09-19T16:00:30Z</time>
      </trkpt>
      <trkpt lat="45.85128" lon="5.07725">
        <ele>220.2</ele>
        <time>2024-09-19T16:00:31Z</time>
      </trkpt>
      <trkpt lat="45.85132" lon="5.07724">
        <ele>220.2</ele>
        <time>2024-09-19T16:00:32Z</time>
      </trkpt>
      <trkpt lat="45.85135" lon="5.07722">
        <ele>220.2</ele>
        <time>2024-09-19T16:00:33Z</time>
      </trkpt>
      <trkpt lat="45.85139" lon="5.07719">
        <ele>220.2</ele>
        <time>2024-09-19T16:00:34Z</time>
      </trkpt>
      <trkpt lat="45.85143" lon="5.07716">
        <ele>220.6</ele>
        <time>2024-09-19T16:00:35Z</time>
      </trkpt>
      <trkpt lat="45.85147" lon="5.07713">
        <ele>220.4</ele>
        <time>2024-09-19T16:00:36Z</time>
      </trkpt>
      <trkpt lat="45.85151" lon="5.07713">
        <ele>220.4</ele>
        <time>2024-09-19T16:00:37Z</time>
      </trkpt>
      <trkpt lat="45.85154" lon="5.07713">
        <ele>220.6</ele>
        <time>2024-09-19T16:00:38Z</time>
      </trkpt>
      <trkpt lat="45.85158" lon="5.07712">
        <ele>220.6</ele>
        <time>2024-09-19T16:00:39Z</time>
      </trkpt>
      <trkpt lat="45.85162" lon="5.07709">
        <ele>220.8</ele>
        <time>2024-09-19T16:00:40Z</time>
      </trkpt>
      <trkpt lat="45.85166" lon="5.07707">
        <ele>220.8</ele>
        <time>2024-09-19T16:00:41Z</time>
      </trkpt>
      <trkpt lat="45.8517" lon="5.07705">
        <ele>220.8</ele>
        <time>2024-09-19T16:00:42Z</time>
      </trkpt>
      <trkpt lat="45.85173" lon="5.07704">
        <ele>220.2</ele>
        <time>2024-09-19T16:00:43Z</time>
      </trkpt>
      <trkpt lat="45.85177" lon="5.07703">
        <ele>220.2</ele>
        <time>2024-09-19T16:00:44Z</time>
      </trkpt>
      <trkpt lat="45.85181" lon="5.07701">
        <ele>220.4</ele>
        <time>2024-09-19T16:00:45Z</time>
      </trkpt>
      <trkpt lat="45.85185" lon="5.07701">
        <ele>220.6</ele>
        <time>2024-09-19T16:00:46Z</time>
      </trkpt>
      <trkpt lat="45.85188" lon="5.07698">
        <ele>221.2</ele>
        <time>2024-09-19T16:00:47Z</time>
      </trkpt>
      <trkpt lat="45.85192" lon="5.07697">
        <ele>221.4</ele>
        <time>2024-09-19T16:00:48Z</time>
      </trkpt>
      <trkpt lat="45.85196" lon="5.07696">
        <ele>221.4</ele>
        <time>2024-09-19T16:00:49Z</time>
      </trkpt>
      <trkpt lat="45.852" lon="5.07695">
        <ele>221.4</ele>
        <time>2024-09-19T16:00:50Z</time>
      </trkpt>
      <trkpt lat="45.85204" lon="5.07694">
        <ele>221.4</ele>
        <time>2024-09-19T16:00:51Z</time>
      </trkpt>
      <trkpt lat="45.85208" lon="5.07693">
        <ele>221.4</ele>
        <time>2024-09-19T16:00:52Z</time>
      </trkpt>
      <trkpt lat="45.85212" lon="5.07692">
        <ele>221.6</ele>
        <time>2024-09-19T16:00:53Z</time>
      </trkpt>
      <trkpt lat="45.85216" lon="5.07691">
        <ele>221.6</ele>
        <time>2024-09-19T16:00:54Z</time>
      </trkpt>
      <trkpt lat="45.85219" lon="5.0769">
        <ele>222</ele>
        <time>2024-09-19T16:00:55Z</time>
      </trkpt>
      <trkpt lat="45.85223" lon="5.07688">
        <ele>222</ele>
        <time>2024-09-19T16:00:56Z</time>
      </trkpt>
      <trkpt lat="45.85227" lon="5.07687">
        <ele>222.2</ele>
        <time>2024-09-19T16:00:57Z</time>
      </trkpt>
      <trkpt lat="45.85231" lon="5.07686">
        <ele>222.2</ele>
        <time>2024-09-19T16:00:58Z</time>
      </trkpt>
      <trkpt lat="45.85235" lon="5.07684">
        <ele>222.2</ele>
        <time>2024-09-19T16:00:59Z</time>
      </trkpt>
      <trkpt lat="45.8524" lon="5.07683">
        <ele>222.6</ele>
        <time>2024-09-19T16:01:00Z</time>
      </trkpt>
      <trkpt lat="45.85244" lon="5.07681">
        <ele>222.6</ele>
        <time>2024-09-19T16:01:01Z</time>
      </trkpt>
      <trkpt lat="45.85248" lon="5.07679">
        <ele>222.6</ele>
        <time>2024-09-19T16:01:02Z</time>
      </trkpt>
      <trkpt lat="45.85252" lon="5.07677">
        <ele>222.6</ele>
        <time>2024-09-19T16:01:03Z</time>
      </trkpt>
      <trkpt lat="45.85256" lon="5.07675">
        <ele>222.6</ele>
        <time>2024-09-19T16:01:04Z</time>
      </trkpt>
      <trkpt lat="45.8526" lon="5.07672">
        <ele>222.6</ele>
        <time>2024-09-19T16:01:05Z</time>
      </trkpt>
      <trkpt lat="45.85264" lon="5.07669">
        <ele>222.6</ele>
        <time>2024-09-19T16:01:06Z</time>
      </trkpt>
      <trkpt lat="45.85268" lon="5.07667">
        <ele>222.6</ele>
        <time>2024-09-19T16:01:07Z</time>
      </trkpt>
      <trkpt lat="45.85271" lon="5.07663">
        <ele>222.6</ele>
        <time>2024-09-19T16:01:08Z</time>
      </trkpt>
      <trkpt lat="45.85275" lon="5.0766">
        <ele>222.6</ele>
        <time>2024-09-19T16:01:09Z</time>
      </trkpt>
      <trkpt lat="45.85279" lon="5.07657">
        <ele>222.6</ele>
        <time>2024-09-19T16:01:10Z</time>
      </trkpt>
      <trkpt lat="45.85282" lon="5.07653">
        <ele>222.8</ele>
        <time>2024-09-19T16:01:11Z</time>
      </trkpt>
      <trkpt lat="45.85286" lon="5.0765">
        <ele>222.8</ele>
        <time>2024-09-19T16:01:12Z</time>
      </trkpt>
      <trkpt lat="45.8529" lon="5.07647">
        <ele>222.8</ele>
        <time>2024-09-19T16:01:13Z</time>
      </trkpt>
      <trkpt lat="45.85293" lon="5.07644">
        <ele>222.8</ele>
        <time>2024-09-19T16:01:14Z</time>
      </trkpt>
      <trkpt lat="45.85297" lon="5.07641">
        <ele>222.8</ele>
        <time>2024-09-19T16:01:15Z</time>
      </trkpt>
      <trkpt lat="45.85301" lon="5.07638">
        <ele>222.6</ele>
        <time>2024-09-19T16:01:16Z</time>
      </trkpt>
      <trkpt lat="45.85304" lon="5.07635">
        <ele>221.8</ele>
        <time>2024-09-19T16:01:17Z</time>
      </trkpt>
      <trkpt lat="45.85308" lon="5.07632">
        <ele>222.4</ele>
        <time>2024-09-19T16:01:18Z</time>
      </trkpt>
      <trkpt lat="45.85312" lon="5.07629">
        <ele>222.6</ele>
        <time>2024-09-19T16:01:19Z</time>
      </trkpt>
      <trkpt lat="45.85315" lon="5.07626">
        <ele>222.6</ele>
        <time>2024-09-19T16:01:20Z</time>
      </trkpt>
      <trkpt lat="45.85318" lon="5.07623">
        <ele>222.6</ele>
        <time>2024-09-19T16:01:21Z</time>
      </trkpt>
      <trkpt lat="45.85321" lon="5.07621">
        <ele>223</ele>
        <time>2024-09-19T16:01:22Z</time>
      </trkpt>
      <trkpt lat="45.85323" lon="5.0762">
        <ele>223</ele>
        <time>2024-09-19T16:01:23Z</time>
      </trkpt>
      <trkpt lat="45.85326" lon="5.07619">
        <ele>223.4</ele>
        <time>2024-09-19T16:01:24Z</time>
      </trkpt>
      <trkpt lat="45.85328" lon="5.07617">
        <ele>223.6</ele>
        <time>2024-09-19T16:01:25Z</time>
      </trkpt>
      <trkpt lat="45.8533" lon="5.07614">
        <ele>223.6</ele>
        <time>2024-09-19T16:01:26Z</time>
      </trkpt>
      <trkpt lat="45.85331" lon="5.07608">
        <ele>223.6</ele>
        <time>2024-09-19T16:01:27Z</time>
      </trkpt>
      <trkpt lat="45.85331" lon="5.07601">
        <ele>223.6</ele>
        <time>2024-09-19T16:01:28Z</time>
      </trkpt>
      <trkpt lat="45.85329" lon="5.07596">
        <ele>223.8</ele>
        <time>2024-09-19T16:01:29Z</time>
      </trkpt>
      <trkpt lat="45.85329" lon="5.07592">
        <ele>223.8</ele>
        <time>2024-09-19T16:01:30Z</time>
      </trkpt>
      <trkpt lat="45.85327" lon="5.07585">
        <ele>223.8</ele>
        <time>2024-09-19T16:01:31Z</time>
      </trkpt>
      <trkpt lat="45.85326" lon="5.0758">
        <ele>223.8</ele>
        <time>2024-09-19T16:01:32Z</time>
      </trkpt>
      <trkpt lat="45.85325" lon="5.07574">
        <ele>223.8</ele>
        <time>2024-09-19T16:01:33Z</time>
      </trkpt>
      <trkpt lat="45.85324" lon="5.07568">
        <ele>223.8</ele>
        <time>2024-09-19T16:01:34Z</time>
      </trkpt>
      <trkpt lat="45.85323" lon="5.07563">
        <ele>223.8</ele>
        <time>2024-09-19T16:01:35Z</time>
      </trkpt>
      <trkpt lat="45.85323" lon="5.07556">
        <ele>223.8</ele>
        <time>2024-09-19T16:01:36Z</time>
      </trkpt>
      <trkpt lat="45.85322" lon="5.07551">
        <ele>223.8</ele>
        <time>2024-09-19T16:01:37Z</time>
      </trkpt>
      <trkpt lat="45.85321" lon="5.07545">
        <ele>224</ele>
        <time>2024-09-19T16:01:38Z</time>
      </trkpt>
      <trkpt lat="45.8532" lon="5.07538">
        <ele>224.2</ele>
        <time>2024-09-19T16:01:39Z</time>
      </trkpt>
      <trkpt lat="45.8532" lon="5.07532">
        <ele>224.2</ele>
        <time>2024-09-19T16:01:40Z</time>
      </trkpt>
      <trkpt lat="45.85319" lon="5.07525">
        <ele>224.2</ele>
        <time>2024-09-19T16:01:41Z</time>
      </trkpt>
      <trkpt lat="45.85318" lon="5.07519">
        <ele>224.4</ele>
        <time>2024-09-19T16:01:42Z</time>
      </trkpt>
      <trkpt lat="45.85317" lon="5.07512">
        <ele>224.4</ele>
        <time>2024-09-19T16:01:43Z</time>
      </trkpt>
      <trkpt lat="45.85316" lon="5.07506">
        <ele>224.4</ele>
        <time>2024-09-19T16:01:44Z</time>
      </trkpt>
      <trkpt lat="45.85315" lon="5.07499">
        <ele>224.4</ele>
        <time>2024-09-19T16:01:45Z</time>
      </trkpt>
      <trkpt lat="45.85315" lon="5.07492">
        <ele>224.4</ele>
        <time>2024-09-19T16:01:46Z</time>
      </trkpt>
      <trkpt lat="45.85314" lon="5.07486">
        <ele>224.4</ele>
        <time>2024-09-19T16:01:47Z</time>
      </trkpt>
      <trkpt lat="45.85313" lon="5.07479">
        <ele>224.8</ele>
        <time>2024-09-19T16:01:48Z</time>
      </trkpt>
      <trkpt lat="45.85312" lon="5.07472">
        <ele>224.8</ele>
        <time>2024-09-19T16:01:49Z</time>
      </trkpt>
      <trkpt lat="45.85311" lon="5.07465">
        <ele>224.4</ele>
        <time>2024-09-19T16:01:50Z</time>
      </trkpt>
      <trkpt lat="45.85309" lon="5.07459">
        <ele>224.4</ele>
        <time>2024-09-19T16:01:51Z</time>
      </trkpt>
      <trkpt lat="45.85308" lon="5.07453">
        <ele>224.4</ele>
        <time>2024-09-19T16:01:52Z</time>
      </trkpt>
      <trkpt lat="45.85307" lon="5.07446">
        <ele>224.2</ele>
        <time>2024-09-19T16:01:53Z</time>
      </trkpt>
      <trkpt lat="45.85307" lon="5.07439">
        <ele>224.2</ele>
        <time>2024-09-19T16:01:54Z</time>
      </trkpt>
      <trkpt lat="45.85306" lon="5.07432">
        <ele>224.2</ele>
        <time>2024-09-19T16:01:55Z</time>
      </trkpt>
      <trkpt lat="45.85306" lon="5.07426">
        <ele>224.2</ele>
        <time>2024-09-19T16:01:56Z</time>
      </trkpt>
      <trkpt lat="45.85306" lon="5.07419">
        <ele>224.6</ele>
        <time>2024-09-19T16:01:57Z</time>
      </trkpt>
      <trkpt lat="45.85305" lon="5.07412">
        <ele>224.6</ele>
        <time>2024-09-19T16:01:58Z</time>
      </trkpt>
      <trkpt lat="45.85305" lon="5.07405">
        <ele>224.6</ele>
        <time>2024-09-19T16:01:59Z</time>
      </trkpt>
      <trkpt lat="45.85305" lon="5.07399">
        <ele>224.6</ele>
        <time>2024-09-19T16:02:00Z</time>
      </trkpt>
      <trkpt lat="45.85305" lon="5.07394">
        <ele>224.6</ele>
        <time>2024-09-19T16:02:01Z</time>
      </trkpt>
      <trkpt lat="45.85305" lon="5.07388">
        <ele>224.8</ele>
        <time>2024-09-19T16:02:02Z</time>
      </trkpt>
      <trkpt lat="45.85305" lon="5.07383">
        <ele>224.8</ele>
        <time>2024-09-19T16:02:03Z</time>
      </trkpt>
      <trkpt lat="45.85305" lon="5.07378">
        <ele>224.8</ele>
        <time>2024-09-19T16:02:04Z</time>
      </trkpt>
      <trkpt lat="45.85304" lon="5.07373">
        <ele>225.2</ele>
        <time>2024-09-19T16:02:05Z</time>
      </trkpt>
      <trkpt lat="45.85303" lon="5.07368">
        <ele>225.4</ele>
        <time>2024-09-19T16:02:06Z</time>
      </trkpt>
      <trkpt lat="45.85302" lon="5.07363">
        <ele>225.4</ele>
        <time>2024-09-19T16:02:07Z</time>
      </trkpt>
      <trkpt lat="45.85302" lon="5.07359">
        <ele>225.6</ele>
        <time>2024-09-19T16:02:08Z</time>
      </trkpt>
      <trkpt lat="45.85302" lon="5.07353">
        <ele>225.6</ele>
        <time>2024-09-19T16:02:09Z</time>
      </trkpt>
      <trkpt lat="45.85302" lon="5.07348">
        <ele>226.4</ele>
        <time>2024-09-19T16:02:10Z</time>
      </trkpt>
      <trkpt lat="45.85301" lon="5.07343">
        <ele>226.4</ele>
        <time>2024-09-19T16:02:11Z</time>
      </trkpt>
      <trkpt lat="45.85301" lon="5.07337">
        <ele>226.6</ele>
        <time>2024-09-19T16:02:12Z</time>
      </trkpt>
      <trkpt lat="45.853" lon="5.07332">
        <ele>226.6</ele>
        <time>2024-09-19T16:02:13Z</time>
      </trkpt>
      <trkpt lat="45.853" lon="5.07327">
        <ele>227</ele>
        <time>2024-09-19T16:02:14Z</time>
      </trkpt>
      <trkpt lat="45.85299" lon="5.07321">
        <ele>227</ele>
        <time>2024-09-19T16:02:15Z</time>
      </trkpt>
      <trkpt lat="45.85299" lon="5.07316">
        <ele>227</ele>
        <time>2024-09-19T16:02:16Z</time>
      </trkpt>
      <trkpt lat="45.85298" lon="5.0731">
        <ele>227</ele>
        <time>2024-09-19T16:02:17Z</time>
      </trkpt>
      <trkpt lat="45.85297" lon="5.07305">
        <ele>227.2</ele>
        <time>2024-09-19T16:02:18Z</time>
      </trkpt>
      <trkpt lat="45.85297" lon="5.07299">
        <ele>227.2</ele>
        <time>2024-09-19T16:02:19Z</time>
      </trkpt>
      <trkpt lat="45.85296" lon="5.07293">
        <ele>227.2</ele>
        <time>2024-09-19T16:02:20Z</time>
      </trkpt>
      <trkpt lat="45.85295" lon="5.07287">
        <ele>227.2</ele>
        <time>2024-09-19T16:02:21Z</time>
      </trkpt>
      <trkpt lat="45.85294" lon="5.07282">
        <ele>227.2</ele>
        <time>2024-09-19T16:02:22Z</time>
      </trkpt>
      <trkpt lat="45.85294" lon="5.07276">
        <ele>227</ele>
        <time>2024-09-19T16:02:23Z</time>
      </trkpt>
      <trkpt lat="45.85293" lon="5.07271">
        <ele>227</ele>
        <time>2024-09-19T16:02:24Z</time>
      </trkpt>
      <trkpt lat="45.85293" lon="5.07265">
        <ele>227</ele>
        <time>2024-09-19T16:02:25Z</time>
      </trkpt>
      <trkpt lat="45.85292" lon="5.07259">
        <ele>227</ele>
        <time>2024-09-19T16:02:26Z</time>
      </trkpt>
      <trkpt lat="45.85293" lon="5.07252">
        <ele>227.4</ele>
        <time>2024-09-19T16:02:27Z</time>
      </trkpt>
      <trkpt lat="45.85292" lon="5.07247">
        <ele>227.4</ele>
        <time>2024-09-19T16:02:28Z</time>
      </trkpt>
      <trkpt lat="45.85291" lon="5.07241">
        <ele>227.4</ele>
        <time>2024-09-19T16:02:29Z</time>
      </trkpt>
      <trkpt lat="45.85291" lon="5.07234">
        <ele>227.4</ele>
        <time>2024-09-19T16:02:30Z</time>
      </trkpt>
      <trkpt lat="45.85291" lon="5.07228">
        <ele>227.4</ele>
        <time>2024-09-19T16:02:31Z</time>
      </trkpt>
      <trkpt lat="45.8529" lon="5.07222">
        <ele>227.4</ele>
        <time>2024-09-19T16:02:32Z</time>
      </trkpt>
      <trkpt lat="45.85289" lon="5.07217">
        <ele>227.4</ele>
        <time>2024-09-19T16:02:33Z</time>
      </trkpt>
      <trkpt lat="45.85288" lon="5.07211">
        <ele>227.2</ele>
        <time>2024-09-19T16:02:34Z</time>
      </trkpt>
      <trkpt lat="45.85287" lon="5.07205">
        <ele>227.2</ele>
        <time>2024-09-19T16:02:35Z</time>
      </trkpt>
      <trkpt lat="45.85287" lon="5.07205">
        <ele>227.2</ele>
        <time>2024-09-19T16:02:36Z</time>
      </trkpt>
      <trkpt lat="45.85286" lon="5.072">
        <ele>227.2</ele>
        <time>2024-09-19T16:02:37Z</time>
      </trkpt>
      <trkpt lat="45.85285" lon="5.07194">
        <ele>227.2</ele>
        <time>2024-09-19T16:02:38Z</time>
      </trkpt>
      <trkpt lat="45.85284" lon="5.07189">
        <ele>227.2</ele>
        <time>2024-09-19T16:02:39Z</time>
      </trkpt>
      <trkpt lat="45.85283" lon="5.07183">
        <ele>226.8</ele>
        <time>2024-09-19T16:02:40Z</time>
      </trkpt>
      <trkpt lat="45.85282" lon="5.07178">
        <ele>226.8</ele>
        <time>2024-09-19T16:02:41Z</time>
      </trkpt>
      <trkpt lat="45.85281" lon="5.07172">
        <ele>226.6</ele>
        <time>2024-09-19T16:02:42Z</time>
      </trkpt>
      <trkpt lat="45.85279" lon="5.07166">
        <ele>226.6</ele>
        <time>2024-09-19T16:02:43Z</time>
      </trkpt>
      <trkpt lat="45.85279" lon="5.07159">
        <ele>226.6</ele>
        <time>2024-09-19T16:02:44Z</time>
      </trkpt>
      <trkpt lat="45.85278" lon="5.07152">
        <ele>226.6</ele>
        <time>2024-09-19T16:02:45Z</time>
      </trkpt>
      <trkpt lat="45.85277" lon="5.07146">
        <ele>226.2</ele>
        <time>2024-09-19T16:02:46Z</time>
      </trkpt>
      <trkpt lat="45.85276" lon="5.0714">
        <ele>226.2</ele>
        <time>2024-09-19T16:02:47Z</time>
      </trkpt>
      <trkpt lat="45.85275" lon="5.07133">
        <ele>226.2</ele>
        <time>2024-09-19T16:02:48Z</time>
      </trkpt>
      <trkpt lat="45.85274" lon="5.07126">
        <ele>226.2</ele>
        <time>2024-09-19T16:02:49Z</time>
      </trkpt>
      <trkpt lat="45.85272" lon="5.07113">
        <ele>226.2</ele>
        <time>2024-09-19T16:02:50Z</time>
      </trkpt>
      <trkpt lat="45.85271" lon="5.07107">
        <ele>226.2</ele>
        <time>2024-09-19T16:02:51Z</time>
      </trkpt>
      <trkpt lat="45.85271" lon="5.071">
        <ele>226.2</ele>
        <time>2024-09-19T16:02:52Z</time>
      </trkpt>
      <trkpt lat="45.85271" lon="5.07094">
        <ele>226.2</ele>
        <time>2024-09-19T16:02:53Z</time>
      </trkpt>
      <trkpt lat="45.85272" lon="5.0709">
        <ele>226.6</ele>
        <time>2024-09-19T16:02:54Z</time>
      </trkpt>
      <trkpt lat="45.85273" lon="5.07087">
        <ele>226.6</ele>
        <time>2024-09-19T16:02:55Z</time>
      </trkpt>
      <trkpt lat="45.85275" lon="5.07084">
        <ele>226.8</ele>
        <time>2024-09-19T16:02:56Z</time>
      </trkpt>
      <trkpt lat="45.85278" lon="5.07083">
        <ele>226.8</ele>
        <time>2024-09-19T16:02:57Z</time>
      </trkpt>
      <trkpt lat="45.85281" lon="5.07081">
        <ele>226.8</ele>
        <time>2024-09-19T16:02:58Z</time>
      </trkpt>
      <trkpt lat="45.85285" lon="5.07081">
        <ele>227</ele>
        <time>2024-09-19T16:02:59Z</time>
      </trkpt>
      <trkpt lat="45.85289" lon="5.07081">
        <ele>227</ele>
        <time>2024-09-19T16:03:00Z</time>
      </trkpt>
      <trkpt lat="45.85293" lon="5.0708">
        <ele>227.2</ele>
        <time>2024-09-19T16:03:01Z</time>
      </trkpt>
      <trkpt lat="45.85297" lon="5.0708">
        <ele>227.2</ele>
        <time>2024-09-19T16:03:02Z</time>
      </trkpt>
      <trkpt lat="45.85301" lon="5.07079">
        <ele>227.6</ele>
        <time>2024-09-19T16:03:03Z</time>
      </trkpt>
      <trkpt lat="45.85305" lon="5.07078">
        <ele>227.6</ele>
        <time>2024-09-19T16:03:04Z</time>
      </trkpt>
      <trkpt lat="45.85309" lon="5.07077">
        <ele>227.6</ele>
        <time>2024-09-19T16:03:05Z</time>
      </trkpt>
      <trkpt lat="45.85313" lon="5.07075">
        <ele>227.8</ele>
        <time>2024-09-19T16:03:06Z</time>
      </trkpt>
      <trkpt lat="45.85316" lon="5.07075">
        <ele>227.8</ele>
        <time>2024-09-19T16:03:07Z</time>
      </trkpt>
      <trkpt lat="45.8532" lon="5.07074">
        <ele>227.8</ele>
        <time>2024-09-19T16:03:08Z</time>
      </trkpt>
      <trkpt lat="45.85324" lon="5.07074">
        <ele>227.8</ele>
        <time>2024-09-19T16:03:09Z</time>
      </trkpt>
      <trkpt lat="45.85328" lon="5.07074">
        <ele>227.8</ele>
        <time>2024-09-19T16:03:10Z</time>
      </trkpt>
      <trkpt lat="45.85332" lon="5.07073">
        <ele>227.8</ele>
        <time>2024-09-19T16:03:11Z</time>
      </trkpt>
      <trkpt lat="45.85336" lon="5.07072">
        <ele>227.8</ele>
        <time>2024-09-19T16:03:12Z</time>
      </trkpt>
      <trkpt lat="45.8534" lon="5.07071">
        <ele>227.8</ele>
        <time>2024-09-19T16:03:13Z</time>
      </trkpt>
      <trkpt lat="45.85344" lon="5.0707">
        <ele>228</ele>
        <time>2024-09-19T16:03:14Z</time>
      </trkpt>
      <trkpt lat="45.85347" lon="5.0707">
        <ele>228</ele>
        <time>2024-09-19T16:03:15Z</time>
      </trkpt>
      <trkpt lat="45.85351" lon="5.07069">
        <ele>228</ele>
        <time>2024-09-19T16:03:16Z</time>
      </trkpt>
      <trkpt lat="45.85355" lon="5.07068">
        <ele>228</ele>
        <time>2024-09-19T16:03:17Z</time>
      </trkpt>
      <trkpt lat="45.85358" lon="5.07067">
        <ele>228</ele>
        <time>2024-09-19T16:03:18Z</time>
      </trkpt>
      <trkpt lat="45.85361" lon="5.07066">
        <ele>228.4</ele>
        <time>2024-09-19T16:03:19Z</time>
      </trkpt>
      <trkpt lat="45.85365" lon="5.07066">
        <ele>228.8</ele>
        <time>2024-09-19T16:03:20Z</time>
      </trkpt>
      <trkpt lat="45.85369" lon="5.07067">
        <ele>228.8</ele>
        <time>2024-09-19T16:03:21Z</time>
      </trkpt>
      <trkpt lat="45.85373" lon="5.07069">
        <ele>228.8</ele>
        <time>2024-09-19T16:03:22Z</time>
      </trkpt>
      <trkpt lat="45.85376" lon="5.07071">
        <ele>228.8</ele>
        <time>2024-09-19T16:03:23Z</time>
      </trkpt>
      <trkpt lat="45.8538" lon="5.07073">
        <ele>228.8</ele>
        <time>2024-09-19T16:03:24Z</time>
      </trkpt>
      <trkpt lat="45.85384" lon="5.07075">
        <ele>228.8</ele>
        <time>2024-09-19T16:03:25Z</time>
      </trkpt>
      <trkpt lat="45.85388" lon="5.07077">
        <ele>229.2</ele>
        <time>2024-09-19T16:03:26Z</time>
      </trkpt>
      <trkpt lat="45.85391" lon="5.07079">
        <ele>229.2</ele>
        <time>2024-09-19T16:03:27Z</time>
      </trkpt>
      <trkpt lat="45.85395" lon="5.07081">
        <ele>229.2</ele>
        <time>2024-09-19T16:03:28Z</time>
      </trkpt>
      <trkpt lat="45.85399" lon="5.07083">
        <ele>229.4</ele>
        <time>2024-09-19T16:03:29Z</time>
      </trkpt>
      <trkpt lat="45.85402" lon="5.07085">
        <ele>229.4</ele>
        <time>2024-09-19T16:03:30Z</time>
      </trkpt>
      <trkpt lat="45.85406" lon="5.07087">
        <ele>229.6</ele>
        <time>2024-09-19T16:03:31Z</time>
      </trkpt>
      <trkpt lat="45.8541" lon="5.07089">
        <ele>229.6</ele>
        <time>2024-09-19T16:03:32Z</time>
      </trkpt>
      <trkpt lat="45.85414" lon="5.07091">
        <ele>229.6</ele>
        <time>2024-09-19T16:03:33Z</time>
      </trkpt>
      <trkpt lat="45.85418" lon="5.07092">
        <ele>230</ele>
        <time>2024-09-19T16:03:34Z</time>
      </trkpt>
      <trkpt lat="45.85421" lon="5.07094">
        <ele>230</ele>
        <time>2024-09-19T16:03:35Z</time>
      </trkpt>
      <trkpt lat="45.85425" lon="5.07096">
        <ele>230.2</ele>
        <time>2024-09-19T16:03:36Z</time>
      </trkpt>
      <trkpt lat="45.85429" lon="5.07098">
        <ele>230.2</ele>
        <time>2024-09-19T16:03:37Z</time>
      </trkpt>
      <trkpt lat="45.85433" lon="5.071">
        <ele>230.2</ele>
        <time>2024-09-19T16:03:38Z</time>
      </trkpt>
      <trkpt lat="45.85436" lon="5.07101">
        <ele>230.4</ele>
        <time>2024-09-19T16:03:39Z</time>
      </trkpt>
      <trkpt lat="45.8544" lon="5.07102">
        <ele>230.4</ele>
        <time>2024-09-19T16:03:40Z</time>
      </trkpt>
      <trkpt lat="45.85445" lon="5.07104">
        <ele>230.6</ele>
        <time>2024-09-19T16:03:41Z</time>
      </trkpt>
      <trkpt lat="45.85449" lon="5.07104">
        <ele>230.6</ele>
        <time>2024-09-19T16:03:42Z</time>
      </trkpt>
      <trkpt lat="45.85453" lon="5.07105">
        <ele>230.6</ele>
        <time>2024-09-19T16:03:43Z</time>
      </trkpt>
      <trkpt lat="45.85457" lon="5.07106">
        <ele>230.6</ele>
        <time>2024-09-19T16:03:44Z</time>
      </trkpt>
      <trkpt lat="45.85461" lon="5.07106">
        <ele>230.6</ele>
        <time>2024-09-19T16:03:45Z</time>
      </trkpt>
      <trkpt lat="45.85465" lon="5.07106">
        <ele>230.6</ele>
        <time>2024-09-19T16:03:46Z</time>
      </trkpt>
      <trkpt lat="45.85469" lon="5.07107">
        <ele>230.6</ele>
        <time>2024-09-19T16:03:47Z</time>
      </trkpt>
      <trkpt lat="45.85474" lon="5.07107">
        <ele>230.6</ele>
        <time>2024-09-19T16:03:48Z</time>
      </trkpt>
      <trkpt lat="45.85478" lon="5.07107">
        <ele>230.8</ele>
        <time>2024-09-19T16:03:49Z</time>
      </trkpt>
      <trkpt lat="45.85482" lon="5.07107">
        <ele>230.8</ele>
        <time>2024-09-19T16:03:50Z</time>
      </trkpt>
      <trkpt lat="45.85487" lon="5.07106">
        <ele>230.8</ele>
        <time>2024-09-19T16:03:51Z</time>
      </trkpt>
      <trkpt lat="45.85491" lon="5.07106">
        <ele>230.8</ele>
        <time>2024-09-19T16:03:52Z</time>
      </trkpt>
      <trkpt lat="45.85496" lon="5.07105">
        <ele>230.8</ele>
        <time>2024-09-19T16:03:53Z</time>
      </trkpt>
      <trkpt lat="45.855" lon="5.07103">
        <ele>230.8</ele>
        <time>2024-09-19T16:03:54Z</time>
      </trkpt>
      <trkpt lat="45.85504" lon="5.07102">
        <ele>231.4</ele>
        <time>2024-09-19T16:03:55Z</time>
      </trkpt>
      <trkpt lat="45.85508" lon="5.07101">
        <ele>231.4</ele>
        <time>2024-09-19T16:03:56Z</time>
      </trkpt>
      <trkpt lat="45.85513" lon="5.071">
        <ele>231.4</ele>
        <time>2024-09-19T16:03:57Z</time>
      </trkpt>
      <trkpt lat="45.85517" lon="5.071">
        <ele>231.4</ele>
        <time>2024-09-19T16:03:58Z</time>
      </trkpt>
      <trkpt lat="45.85522" lon="5.07099">
        <ele>231.4</ele>
        <time>2024-09-19T16:03:59Z</time>
      </trkpt>
      <trkpt lat="45.85526" lon="5.07099">
        <ele>231.6</ele>
        <time>2024-09-19T16:04:00Z</time>
      </trkpt>
      <trkpt lat="45.85531" lon="5.07098">
        <ele>231.6</ele>
        <time>2024-09-19T16:04:01Z</time>
      </trkpt>
      <trkpt lat="45.85535" lon="5.07097">
        <ele>231.6</ele>
        <time>2024-09-19T16:04:02Z</time>
      </trkpt>
      <trkpt lat="45.8554" lon="5.07096">
        <ele>231.6</ele>
        <time>2024-09-19T16:04:03Z</time>
      </trkpt>
      <trkpt lat="45.85544" lon="5.07096">
        <ele>231.6</ele>
        <time>2024-09-19T16:04:04Z</time>
      </trkpt>
      <trkpt lat="45.85548" lon="5.07095">
        <ele>231.6</ele>
        <time>2024-09-19T16:04:05Z</time>
      </trkpt>
      <trkpt lat="45.85552" lon="5.07094">
        <ele>231.6</ele>
        <time>2024-09-19T16:04:06Z</time>
      </trkpt>
      <trkpt lat="45.85557" lon="5.07092">
        <ele>232</ele>
        <time>2024-09-19T16:04:07Z</time>
      </trkpt>
      <trkpt lat="45.85562" lon="5.07091">
        <ele>232</ele>
        <time>2024-09-19T16:04:08Z</time>
      </trkpt>
      <trkpt lat="45.85566" lon="5.0709">
        <ele>232</ele>
        <time>2024-09-19T16:04:09Z</time>
      </trkpt>
      <trkpt lat="45.8557" lon="5.07088">
        <ele>232</ele>
        <time>2024-09-19T16:04:10Z</time>
      </trkpt>
      <trkpt lat="45.85574" lon="5.07086">
        <ele>232</ele>
        <time>2024-09-19T16:04:11Z</time>
      </trkpt>
      <trkpt lat="45.85578" lon="5.07084">
        <ele>232</ele>
        <time>2024-09-19T16:04:12Z</time>
      </trkpt>
      <trkpt lat="45.85583" lon="5.07081">
        <ele>232.2</ele>
        <time>2024-09-19T16:04:13Z</time>
      </trkpt>
      <trkpt lat="45.85586" lon="5.07079">
        <ele>232.2</ele>
        <time>2024-09-19T16:04:14Z</time>
      </trkpt>
      <trkpt lat="45.8559" lon="5.07077">
        <ele>232.6</ele>
        <time>2024-09-19T16:04:15Z</time>
      </trkpt>
      <trkpt lat="45.85594" lon="5.07075">
        <ele>232.6</ele>
        <time>2024-09-19T16:04:16Z</time>
      </trkpt>
      <trkpt lat="45.85597" lon="5.07072">
        <ele>233</ele>
        <time>2024-09-19T16:04:17Z</time>
      </trkpt>
      <trkpt lat="45.85601" lon="5.0707">
        <ele>233</ele>
        <time>2024-09-19T16:04:18Z</time>
      </trkpt>
      <trkpt lat="45.85604" lon="5.07067">
        <ele>233.2</ele>
        <time>2024-09-19T16:04:19Z</time>
      </trkpt>
      <trkpt lat="45.85607" lon="5.07065">
        <ele>233.2</ele>
        <time>2024-09-19T16:04:20Z</time>
      </trkpt>
      <trkpt lat="45.8561" lon="5.07063">
        <ele>233.6</ele>
        <time>2024-09-19T16:04:21Z</time>
      </trkpt>
      <trkpt lat="45.85613" lon="5.07061">
        <ele>233.6</ele>
        <time>2024-09-19T16:04:22Z</time>
      </trkpt>
      <trkpt lat="45.85616" lon="5.07058">
        <ele>234</ele>
        <time>2024-09-19T16:04:23Z</time>
      </trkpt>
      <trkpt lat="45.85619" lon="5.07055">
        <ele>234.2</ele>
        <time>2024-09-19T16:04:24Z</time>
      </trkpt>
      <trkpt lat="45.85622" lon="5.07052">
        <ele>234.2</ele>
        <time>2024-09-19T16:04:25Z</time>
      </trkpt>
      <trkpt lat="45.85624" lon="5.07049">
        <ele>234.2</ele>
        <time>2024-09-19T16:04:26Z</time>
      </trkpt>
      <trkpt lat="45.85627" lon="5.07045">
        <ele>234.6</ele>
        <time>2024-09-19T16:04:27Z</time>
      </trkpt>
      <trkpt lat="45.85629" lon="5.07041">
        <ele>234.6</ele>
        <time>2024-09-19T16:04:28Z</time>
      </trkpt>
      <trkpt lat="45.85632" lon="5.07038">
        <ele>234.8</ele>
        <time>2024-09-19T16:04:29Z</time>
      </trkpt>
      <trkpt lat="45.85634" lon="5.07034">
        <ele>234.6</ele>
        <time>2024-09-19T16:04:30Z</time>
      </trkpt>
      <trkpt lat="45.85636" lon="5.07029">
        <ele>235</ele>
        <time>2024-09-19T16:04:31Z</time>
      </trkpt>
      <trkpt lat="45.85638" lon="5.07025">
        <ele>235.2</ele>
        <time>2024-09-19T16:04:32Z</time>
      </trkpt>
      <trkpt lat="45.8564" lon="5.07021">
        <ele>235.2</ele>
        <time>2024-09-19T16:04:33Z</time>
      </trkpt>
      <trkpt lat="45.85642" lon="5.07016">
        <ele>235.4</ele>
        <time>2024-09-19T16:04:34Z</time>
      </trkpt>
      <trkpt lat="45.85643" lon="5.07011">
        <ele>235.4</ele>
        <time>2024-09-19T16:04:35Z</time>
      </trkpt>
      <trkpt lat="45.85644" lon="5.07006">
        <ele>235.4</ele>
        <time>2024-09-19T16:04:36Z</time>
      </trkpt>
      <trkpt lat="45.85644" lon="5.07001">
        <ele>235.4</ele>
        <time>2024-09-19T16:04:37Z</time>
      </trkpt>
      <trkpt lat="45.85644" lon="5.06997">
        <ele>235.8</ele>
        <time>2024-09-19T16:04:38Z</time>
      </trkpt>
      <trkpt lat="45.85644" lon="5.06992">
        <ele>235.8</ele>
        <time>2024-09-19T16:04:39Z</time>
      </trkpt>
      <trkpt lat="45.85644" lon="5.06988">
        <ele>236</ele>
        <time>2024-09-19T16:04:40Z</time>
      </trkpt>
      <trkpt lat="45.85644" lon="5.06984">
        <ele>236</ele>
        <time>2024-09-19T16:04:41Z</time>
      </trkpt>
      <trkpt lat="45.85644" lon="5.06979">
        <ele>236.4</ele>
        <time>2024-09-19T16:04:42Z</time>
      </trkpt>
      <trkpt lat="45.85644" lon="5.06975">
        <ele>236.4</ele>
        <time>2024-09-19T16:04:43Z</time>
      </trkpt>
      <trkpt lat="45.85644" lon="5.0697">
        <ele>236.4</ele>
        <time>2024-09-19T16:04:44Z</time>
      </trkpt>
      <trkpt lat="45.85645" lon="5.06966">
        <ele>236.8</ele>
        <time>2024-09-19T16:04:45Z</time>
      </trkpt>
      <trkpt lat="45.85645" lon="5.06961">
        <ele>236.8</ele>
        <time>2024-09-19T16:04:46Z</time>
      </trkpt>
      <trkpt lat="45.85645" lon="5.06957">
        <ele>236.8</ele>
        <time>2024-09-19T16:04:47Z</time>
      </trkpt>
      <trkpt lat="45.85646" lon="5.06953">
        <ele>237</ele>
        <time>2024-09-19T16:04:48Z</time>
      </trkpt>
      <trkpt lat="45.85646" lon="5.06949">
        <ele>237.4</ele>
        <time>2024-09-19T16:04:49Z</time>
      </trkpt>
      <trkpt lat="45.85647" lon="5.06945">
        <ele>237.6</ele>
        <time>2024-09-19T16:04:50Z</time>
      </trkpt>
      <trkpt lat="45.85648" lon="5.06941">
        <ele>237.6</ele>
        <time>2024-09-19T16:04:51Z</time>
      </trkpt>
      <trkpt lat="45.85649" lon="5.06937">
        <ele>237.8</ele>
        <time>2024-09-19T16:04:52Z</time>
      </trkpt>
      <trkpt lat="45.85651" lon="5.06933">
        <ele>237.8</ele>
        <time>2024-09-19T16:04:53Z</time>
      </trkpt>
      <trkpt lat="45.85653" lon="5.06929">
        <ele>238.2</ele>
        <time>2024-09-19T16:04:54Z</time>
      </trkpt>
      <trkpt lat="45.85654" lon="5.06926">
        <ele>238.4</ele>
        <time>2024-09-19T16:04:55Z</time>
      </trkpt>
      <trkpt lat="45.85657" lon="5.06923">
        <ele>238.4</ele>
        <time>2024-09-19T16:04:56Z</time>
      </trkpt>
      <trkpt lat="45.85659" lon="5.0692">
        <ele>238.8</ele>
        <time>2024-09-19T16:04:57Z</time>
      </trkpt>
      <trkpt lat="45.85661" lon="5.06918">
        <ele>238.8</ele>
        <time>2024-09-19T16:04:58Z</time>
      </trkpt>
      <trkpt lat="45.85664" lon="5.06915">
        <ele>239</ele>
        <time>2024-09-19T16:04:59Z</time>
      </trkpt>
      <trkpt lat="45.85667" lon="5.06913">
        <ele>239</ele>
        <time>2024-09-19T16:05:00Z</time>
      </trkpt>
      <trkpt lat="45.8567" lon="5.06912">
        <ele>239.4</ele>
        <time>2024-09-19T16:05:01Z</time>
      </trkpt>
      <trkpt lat="45.85673" lon="5.0691">
        <ele>239.6</ele>
        <time>2024-09-19T16:05:02Z</time>
      </trkpt>
      <trkpt lat="45.85676" lon="5.06909">
        <ele>239.6</ele>
        <time>2024-09-19T16:05:03Z</time>
      </trkpt>
      <trkpt lat="45.85679" lon="5.06908">
        <ele>239.6</ele>
        <time>2024-09-19T16:05:04Z</time>
      </trkpt>
      <trkpt lat="45.85682" lon="5.06908">
        <ele>239.6</ele>
        <time>2024-09-19T16:05:05Z</time>
      </trkpt>
      <trkpt lat="45.85685" lon="5.06907">
        <ele>239.8</ele>
        <time>2024-09-19T16:05:06Z</time>
      </trkpt>
      <trkpt lat="45.85688" lon="5.06906">
        <ele>239.8</ele>
        <time>2024-09-19T16:05:07Z</time>
      </trkpt>
      <trkpt lat="45.85691" lon="5.06905">
        <ele>240.2</ele>
        <time>2024-09-19T16:05:08Z</time>
      </trkpt>
      <trkpt lat="45.85694" lon="5.06905">
        <ele>240.2</ele>
        <time>2024-09-19T16:05:09Z</time>
      </trkpt>
      <trkpt lat="45.85698" lon="5.06905">
        <ele>240.2</ele>
        <time>2024-09-19T16:05:10Z</time>
      </trkpt>
      <trkpt lat="45.85701" lon="5.06905">
        <ele>240.2</ele>
        <time>2024-09-19T16:05:11Z</time>
      </trkpt>
      <trkpt lat="45.85704" lon="5.06905">
        <ele>240.2</ele>
        <time>2024-09-19T16:05:12Z</time>
      </trkpt>
      <trkpt lat="45.85708" lon="5.06905">
        <ele>240.4</ele>
        <time>2024-09-19T16:05:13Z</time>
      </trkpt>
      <trkpt lat="45.85711" lon="5.06904">
        <ele>240.4</ele>
        <time>2024-09-19T16:05:14Z</time>
      </trkpt>
      <trkpt lat="45.85714" lon="5.06902">
        <ele>240.8</ele>
        <time>2024-09-19T16:05:15Z</time>
      </trkpt>
      <trkpt lat="45.85718" lon="5.06901">
        <ele>241</ele>
        <time>2024-09-19T16:05:16Z</time>
      </trkpt>
      <trkpt lat="45.85721" lon="5.069">
        <ele>241</ele>
        <time>2024-09-19T16:05:17Z</time>
      </trkpt>
      <trkpt lat="45.85724" lon="5.06898">
        <ele>241</ele>
        <time>2024-09-19T16:05:18Z</time>
      </trkpt>
      <trkpt lat="45.85727" lon="5.06897">
        <ele>241.2</ele>
        <time>2024-09-19T16:05:19Z</time>
      </trkpt>
      <trkpt lat="45.85731" lon="5.06895">
        <ele>241.2</ele>
        <time>2024-09-19T16:05:20Z</time>
      </trkpt>
      <trkpt lat="45.85734" lon="5.06893">
        <ele>241.2</ele>
        <time>2024-09-19T16:05:21Z</time>
      </trkpt>
      <trkpt lat="45.85737" lon="5.06891">
        <ele>241.4</ele>
        <time>2024-09-19T16:05:22Z</time>
      </trkpt>
      <trkpt lat="45.8574" lon="5.06889">
        <ele>241.4</ele>
        <time>2024-09-19T16:05:23Z</time>
      </trkpt>
      <trkpt lat="45.85743" lon="5.06886">
        <ele>241.8</ele>
        <time>2024-09-19T16:05:24Z</time>
      </trkpt>
      <trkpt lat="45.85746" lon="5.06884">
        <ele>241.8</ele>
        <time>2024-09-19T16:05:25Z</time>
      </trkpt>
      <trkpt lat="45.85748" lon="5.06881">
        <ele>242</ele>
        <time>2024-09-19T16:05:26Z</time>
      </trkpt>
      <trkpt lat="45.85751" lon="5.06877">
        <ele>242</ele>
        <time>2024-09-19T16:05:27Z</time>
      </trkpt>
      <trkpt lat="45.85754" lon="5.06874">
        <ele>242.4</ele>
        <time>2024-09-19T16:05:28Z</time>
      </trkpt>
      <trkpt lat="45.85756" lon="5.06871">
        <ele>242.4</ele>
        <time>2024-09-19T16:05:29Z</time>
      </trkpt>
      <trkpt lat="45.85759" lon="5.06869">
        <ele>242.6</ele>
        <time>2024-09-19T16:05:30Z</time>
      </trkpt>
      <trkpt lat="45.85761" lon="5.06866">
        <ele>242.6</ele>
        <time>2024-09-19T16:05:31Z</time>
      </trkpt>
      <trkpt lat="45.85764" lon="5.06863">
        <ele>242.6</ele>
        <time>2024-09-19T16:05:32Z</time>
      </trkpt>
      <trkpt lat="45.85766" lon="5.0686">
        <ele>242.8</ele>
        <time>2024-09-19T16:05:33Z</time>
      </trkpt>
      <trkpt lat="45.85769" lon="5.06858">
        <ele>242.8</ele>
        <time>2024-09-19T16:05:34Z</time>
      </trkpt>
      <trkpt lat="45.85772" lon="5.06857">
        <ele>242.8</ele>
        <time>2024-09-19T16:05:35Z</time>
      </trkpt>
      <trkpt lat="45.85775" lon="5.06856">
        <ele>243.2</ele>
        <time>2024-09-19T16:05:36Z</time>
      </trkpt>
      <trkpt lat="45.85777" lon="5.06854">
        <ele>243.4</ele>
        <time>2024-09-19T16:05:37Z</time>
      </trkpt>
      <trkpt lat="45.85777" lon="5.06854">
        <ele>243.6</ele>
        <time>2024-09-19T16:05:38Z</time>
      </trkpt>
      <trkpt lat="45.8578" lon="5.06853">
        <ele>243.6</ele>
        <time>2024-09-19T16:05:39Z</time>
      </trkpt>
      <trkpt lat="45.85782" lon="5.06852">
        <ele>244</ele>
        <time>2024-09-19T16:05:40Z</time>
      </trkpt>
      <trkpt lat="45.85785" lon="5.0685">
        <ele>244</ele>
        <time>2024-09-19T16:05:41Z</time>
      </trkpt>
      <trkpt lat="45.85787" lon="5.06849">
        <ele>244.2</ele>
        <time>2024-09-19T16:05:42Z</time>
      </trkpt>
      <trkpt lat="45.85789" lon="5.06848">
        <ele>244.4</ele>
        <time>2024-09-19T16:05:43Z</time>
      </trkpt>
      <trkpt lat="45.85791" lon="5.06847">
        <ele>244.6</ele>
        <time>2024-09-19T16:05:44Z</time>
      </trkpt>
      <trkpt lat="45.85793" lon="5.06846">
        <ele>244.8</ele>
        <time>2024-09-19T16:05:45Z</time>
      </trkpt>
      <trkpt lat="45.85795" lon="5.06845">
        <ele>245.2</ele>
        <time>2024-09-19T16:05:46Z</time>
      </trkpt>
      <trkpt lat="45.85796" lon="5.06844">
        <ele>245.4</ele>
        <time>2024-09-19T16:05:47Z</time>
      </trkpt>
      <trkpt lat="45.85798" lon="5.06842">
        <ele>245.4</ele>
        <time>2024-09-19T16:05:48Z</time>
      </trkpt>
      <trkpt lat="45.858" lon="5.06842">
        <ele>245.8</ele>
        <time>2024-09-19T16:05:49Z</time>
      </trkpt>
      <trkpt lat="45.85803" lon="5.06842">
        <ele>245.8</ele>
        <time>2024-09-19T16:05:50Z</time>
      </trkpt>
      <trkpt lat="45.85804" lon="5.06842">
        <ele>246.2</ele>
        <time>2024-09-19T16:05:51Z</time>
      </trkpt>
      <trkpt lat="45.85806" lon="5.06843">
        <ele>246.2</ele>
        <time>2024-09-19T16:05:52Z</time>
      </trkpt>
      <trkpt lat="45.85808" lon="5.06845">
        <ele>246.2</ele>
        <time>2024-09-19T16:05:53Z</time>
      </trkpt>
      <trkpt lat="45.85809" lon="5.06847">
        <ele>246.2</ele>
        <time>2024-09-19T16:05:54Z</time>
      </trkpt>
      <trkpt lat="45.8581" lon="5.06848">
        <ele>246.2</ele>
        <time>2024-09-19T16:05:55Z</time>
      </trkpt>
      <trkpt lat="45.85811" lon="5.0685">
        <ele>246.2</ele>
        <time>2024-09-19T16:05:56Z</time>
      </trkpt>
      <trkpt lat="45.85812" lon="5.06852">
        <ele>246.2</ele>
        <time>2024-09-19T16:05:57Z</time>
      </trkpt>
      <trkpt lat="45.85813" lon="5.06854">
        <ele>246.2</ele>
        <time>2024-09-19T16:05:58Z</time>
      </trkpt>
      <trkpt lat="45.85815" lon="5.06857">
        <ele>246.4</ele>
        <time>2024-09-19T16:05:59Z</time>
      </trkpt>
      <trkpt lat="45.85816" lon="5.0686">
        <ele>246.4</ele>
        <time>2024-09-19T16:06:00Z</time>
      </trkpt>
      <trkpt lat="45.85818" lon="5.06862">
        <ele>246.4</ele>
        <time>2024-09-19T16:06:01Z</time>
      </trkpt>
      <trkpt lat="45.85819" lon="5.06865">
        <ele>246.8</ele>
        <time>2024-09-19T16:06:02Z</time>
      </trkpt>
      <trkpt lat="45.8582" lon="5.06867">
        <ele>246.8</ele>
        <time>2024-09-19T16:06:03Z</time>
      </trkpt>
      <trkpt lat="45.85822" lon="5.0687">
        <ele>246.8</ele>
        <time>2024-09-19T16:06:04Z</time>
      </trkpt>
      <trkpt lat="45.85823" lon="5.06872">
        <ele>247</ele>
        <time>2024-09-19T16:06:05Z</time>
      </trkpt>
      <trkpt lat="45.85824" lon="5.06873">
        <ele>247</ele>
        <time>2024-09-19T16:06:06Z</time>
      </trkpt>
      <trkpt lat="45.85824" lon="5.06873">
        <ele>247</ele>
        <time>2024-09-19T16:06:07Z</time>
      </trkpt>
      <trkpt lat="45.85826" lon="5.06873">
        <ele>247</ele>
        <time>2024-09-19T16:06:08Z</time>
      </trkpt>
      <trkpt lat="45.85828" lon="5.06871">
        <ele>247</ele>
        <time>2024-09-19T16:06:09Z</time>
      </trkpt>
      <trkpt lat="45.85829" lon="5.06867">
        <ele>247</ele>
        <time>2024-09-19T16:06:10Z</time>
      </trkpt>
      <trkpt lat="45.85828" lon="5.06863">
        <ele>247</ele>
        <time>2024-09-19T16:06:11Z</time>
      </trkpt>
      <trkpt lat="45.85827" lon="5.0686">
        <ele>246.8</ele>
        <time>2024-09-19T16:06:12Z</time>
      </trkpt>
      <trkpt lat="45.85825" lon="5.06856">
        <ele>246.8</ele>
        <time>2024-09-19T16:06:13Z</time>
      </trkpt>
      <trkpt lat="45.85822" lon="5.06853">
        <ele>246.6</ele>
        <time>2024-09-19T16:06:14Z</time>
      </trkpt>
      <trkpt lat="45.85821" lon="5.06849">
        <ele>246.6</ele>
        <time>2024-09-19T16:06:15Z</time>
      </trkpt>
      <trkpt lat="45.8582" lon="5.06845">
        <ele>246.6</ele>
        <time>2024-09-19T16:06:16Z</time>
      </trkpt>
      <trkpt lat="45.85821" lon="5.06841">
        <ele>246.6</ele>
        <time>2024-09-19T16:06:17Z</time>
      </trkpt>
      <trkpt lat="45.85824" lon="5.06839">
        <ele>246.6</ele>
        <time>2024-09-19T16:06:18Z</time>
      </trkpt>
      <trkpt lat="45.85826" lon="5.06841">
        <ele>246.6</ele>
        <time>2024-09-19T16:06:19Z</time>
      </trkpt>
      <trkpt lat="45.85829" lon="5.06844">
        <ele>246.8</ele>
        <time>2024-09-19T16:06:20Z</time>
      </trkpt>
      <trkpt lat="45.8583" lon="5.06847">
        <ele>247</ele>
        <time>2024-09-19T16:06:21Z</time>
      </trkpt>
      <trkpt lat="45.85832" lon="5.0685">
        <ele>247</ele>
        <time>2024-09-19T16:06:22Z</time>
      </trkpt>
      <trkpt lat="45.85833" lon="5.06853">
        <ele>247.4</ele>
        <time>2024-09-19T16:06:23Z</time>
      </trkpt>
      <trkpt lat="45.85835" lon="5.06856">
        <ele>247.4</ele>
        <time>2024-09-19T16:06:24Z</time>
      </trkpt>
      <trkpt lat="45.85836" lon="5.06859">
        <ele>247.6</ele>
        <time>2024-09-19T16:06:25Z</time>
      </trkpt>
      <trkpt lat="45.85838" lon="5.06862">
        <ele>247.6</ele>
        <time>2024-09-19T16:06:26Z</time>
      </trkpt>
      <trkpt lat="45.85839" lon="5.06864">
        <ele>247.6</ele>
        <time>2024-09-19T16:06:27Z</time>
      </trkpt>
      <trkpt lat="45.8584" lon="5.06867">
        <ele>247.6</ele>
        <time>2024-09-19T16:06:28Z</time>
      </trkpt>
      <trkpt lat="45.85842" lon="5.0687">
        <ele>247.8</ele>
        <time>2024-09-19T16:06:29Z</time>
      </trkpt>
      <trkpt lat="45.85843" lon="5.06873">
        <ele>248.2</ele>
        <time>2024-09-19T16:06:30Z</time>
      </trkpt>
      <trkpt lat="45.85844" lon="5.06875">
        <ele>248.2</ele>
        <time>2024-09-19T16:06:31Z</time>
      </trkpt>
      <trkpt lat="45.85846" lon="5.06878">
        <ele>248.4</ele>
        <time>2024-09-19T16:06:32Z</time>
      </trkpt>
      <trkpt lat="45.85847" lon="5.0688">
        <ele>248.4</ele>
        <time>2024-09-19T16:06:33Z</time>
      </trkpt>
      <trkpt lat="45.85848" lon="5.06883">
        <ele>249</ele>
        <time>2024-09-19T16:06:34Z</time>
      </trkpt>
      <trkpt lat="45.8585" lon="5.06885">
        <ele>249.2</ele>
        <time>2024-09-19T16:06:35Z</time>
      </trkpt>
      <trkpt lat="45.85851" lon="5.06887">
        <ele>249.6</ele>
        <time>2024-09-19T16:06:36Z</time>
      </trkpt>
      <trkpt lat="45.85852" lon="5.0689">
        <ele>249.6</ele>
        <time>2024-09-19T16:06:37Z</time>
      </trkpt>
      <trkpt lat="45.85853" lon="5.06892">
        <ele>248.6</ele>
        <time>2024-09-19T16:06:38Z</time>
      </trkpt>
      <trkpt lat="45.85854" lon="5.06895">
        <ele>249.2</ele>
        <time>2024-09-19T16:06:39Z</time>
      </trkpt>
      <trkpt lat="45.85856" lon="5.06897">
        <ele>249.6</ele>
        <time>2024-09-19T16:06:40Z</time>
      </trkpt>
      <trkpt lat="45.85857" lon="5.069">
        <ele>249.8</ele>
        <time>2024-09-19T16:06:41Z</time>
      </trkpt>
      <trkpt lat="45.85858" lon="5.06902">
        <ele>250</ele>
        <time>2024-09-19T16:06:42Z</time>
      </trkpt>
      <trkpt lat="45.85859" lon="5.06905">
        <ele>250</ele>
        <time>2024-09-19T16:06:43Z</time>
      </trkpt>
      <trkpt lat="45.85861" lon="5.06907">
        <ele>250.4</ele>
        <time>2024-09-19T16:06:44Z</time>
      </trkpt>
      <trkpt lat="45.85862" lon="5.0691">
        <ele>250.6</ele>
        <time>2024-09-19T16:06:45Z</time>
      </trkpt>
      <trkpt lat="45.85864" lon="5.06912">
        <ele>250.8</ele>
        <time>2024-09-19T16:06:46Z</time>
      </trkpt>
      <trkpt lat="45.85865" lon="5.06914">
        <ele>250.8</ele>
        <time>2024-09-19T16:06:47Z</time>
      </trkpt>
      <trkpt lat="45.85867" lon="5.06917">
        <ele>251.2</ele>
        <time>2024-09-19T16:06:48Z</time>
      </trkpt>
      <trkpt lat="45.85868" lon="5.06918">
        <ele>251.2</ele>
        <time>2024-09-19T16:06:49Z</time>
      </trkpt>
      <trkpt lat="45.8587" lon="5.0692">
        <ele>251.6</ele>
        <time>2024-09-19T16:06:50Z</time>
      </trkpt>
      <trkpt lat="45.85872" lon="5.06922">
        <ele>251.8</ele>
        <time>2024-09-19T16:06:51Z</time>
      </trkpt>
      <trkpt lat="45.85874" lon="5.06924">
        <ele>252</ele>
        <time>2024-09-19T16:06:52Z</time>
      </trkpt>
      <trkpt lat="45.85875" lon="5.06927">
        <ele>252</ele>
        <time>2024-09-19T16:06:53Z</time>
      </trkpt>
      <trkpt lat="45.85876" lon="5.06929">
        <ele>252</ele>
        <time>2024-09-19T16:06:54Z</time>
      </trkpt>
      <trkpt lat="45.85878" lon="5.06931">
        <ele>252.4</ele>
        <time>2024-09-19T16:06:55Z</time>
      </trkpt>
      <trkpt lat="45.85879" lon="5.06933">
        <ele>252.4</ele>
        <time>2024-09-19T16:06:56Z</time>
      </trkpt>
      <trkpt lat="45.8588" lon="5.06936">
        <ele>252.8</ele>
        <time>2024-09-19T16:06:57Z</time>
      </trkpt>
      <trkpt lat="45.85882" lon="5.06938">
        <ele>252.8</ele>
        <time>2024-09-19T16:06:58Z</time>
      </trkpt>
      <trkpt lat="45.85883" lon="5.0694">
        <ele>253</ele>
        <time>2024-09-19T16:06:59Z</time>
      </trkpt>
      <trkpt lat="45.85884" lon="5.06942">
        <ele>253</ele>
        <time>2024-09-19T16:07:00Z</time>
      </trkpt>
      <trkpt lat="45.85886" lon="5.06944">
        <ele>253.4</ele>
        <time>2024-09-19T16:07:01Z</time>
      </trkpt>
      <trkpt lat="45.85888" lon="5.06947">
        <ele>253.4</ele>
        <time>2024-09-19T16:07:02Z</time>
      </trkpt>
      <trkpt lat="45.85889" lon="5.06949">
        <ele>253.8</ele>
        <time>2024-09-19T16:07:03Z</time>
      </trkpt>
      <trkpt lat="45.85891" lon="5.06951">
        <ele>253.8</ele>
        <time>2024-09-19T16:07:04Z</time>
      </trkpt>
      <trkpt lat="45.85892" lon="5.06953">
        <ele>254</ele>
        <time>2024-09-19T16:07:05Z</time>
      </trkpt>
      <trkpt lat="45.85893" lon="5.06955">
        <ele>254</ele>
        <time>2024-09-19T16:07:06Z</time>
      </trkpt>
      <trkpt lat="45.85895" lon="5.06957">
        <ele>254</ele>
        <time>2024-09-19T16:07:07Z</time>
      </trkpt>
      <trkpt lat="45.85897" lon="5.06959">
        <ele>254.2</ele>
        <time>2024-09-19T16:07:08Z</time>
      </trkpt>
      <trkpt lat="45.85898" lon="5.06961">
        <ele>254.4</ele>
        <time>2024-09-19T16:07:09Z</time>
      </trkpt>
      <trkpt lat="45.859" lon="5.06963">
        <ele>254.4</ele>
        <time>2024-09-19T16:07:10Z</time>
      </trkpt>
      <trkpt lat="45.85901" lon="5.06966">
        <ele>254.6</ele>
        <time>2024-09-19T16:07:11Z</time>
      </trkpt>
      <trkpt lat="45.85903" lon="5.06968">
        <ele>255</ele>
        <time>2024-09-19T16:07:12Z</time>
      </trkpt>
      <trkpt lat="45.85905" lon="5.0697">
        <ele>255</ele>
        <time>2024-09-19T16:07:13Z</time>
      </trkpt>
      <trkpt lat="45.85906" lon="5.06972">
        <ele>255.2</ele>
        <time>2024-09-19T16:07:14Z</time>
      </trkpt>
      <trkpt lat="45.85908" lon="5.06973">
        <ele>255.2</ele>
        <time>2024-09-19T16:07:15Z</time>
      </trkpt>
      <trkpt lat="45.8591" lon="5.06975">
        <ele>255.6</ele>
        <time>2024-09-19T16:07:16Z</time>
      </trkpt>
      <trkpt lat="45.85912" lon="5.06976">
        <ele>255.6</ele>
        <time>2024-09-19T16:07:17Z</time>
      </trkpt>
      <trkpt lat="45.85912" lon="5.06976">
        <ele>255.8</ele>
        <time>2024-09-19T16:07:18Z</time>
      </trkpt>
      <trkpt lat="45.85912" lon="5.06976">
        <ele>255.8</ele>
        <time>2024-09-19T16:07:19Z</time>
      </trkpt>
      <trkpt lat="45.85912" lon="5.06976">
        <ele>256.2</ele>
        <time>2024-09-19T16:07:20Z</time>
      </trkpt>
      <trkpt lat="45.85921" lon="5.06979">
        <ele>256.4</ele>
        <time>2024-09-19T16:07:21Z</time>
      </trkpt>
      <trkpt lat="45.85923" lon="5.06979">
        <ele>256.6</ele>
        <time>2024-09-19T16:07:22Z</time>
      </trkpt>
      <trkpt lat="45.85925" lon="5.06979">
        <ele>256.6</ele>
        <time>2024-09-19T16:07:23Z</time>
      </trkpt>
      <trkpt lat="45.85927" lon="5.06979">
        <ele>256.8</ele>
        <time>2024-09-19T16:07:24Z</time>
      </trkpt>
      <trkpt lat="45.85929" lon="5.06979">
        <ele>256.8</ele>
        <time>2024-09-19T16:07:25Z</time>
      </trkpt>
      <trkpt lat="45.85931" lon="5.06978">
        <ele>257.2</ele>
        <time>2024-09-19T16:07:26Z</time>
      </trkpt>
      <trkpt lat="45.85934" lon="5.06978">
        <ele>257.2</ele>
        <time>2024-09-19T16:07:27Z</time>
      </trkpt>
      <trkpt lat="45.85936" lon="5.06978">
        <ele>257.6</ele>
        <time>2024-09-19T16:07:28Z</time>
      </trkpt>
      <trkpt lat="45.85937" lon="5.06978">
        <ele>257.6</ele>
        <time>2024-09-19T16:07:29Z</time>
      </trkpt>
      <trkpt lat="45.8594" lon="5.06978">
        <ele>258</ele>
        <time>2024-09-19T16:07:30Z</time>
      </trkpt>
      <trkpt lat="45.85942" lon="5.06977">
        <ele>258</ele>
        <time>2024-09-19T16:07:31Z</time>
      </trkpt>
      <trkpt lat="45.85944" lon="5.06977">
        <ele>258.2</ele>
        <time>2024-09-19T16:07:32Z</time>
      </trkpt>
      <trkpt lat="45.85946" lon="5.06977">
        <ele>258.2</ele>
        <time>2024-09-19T16:07:33Z</time>
      </trkpt>
      <trkpt lat="45.85948" lon="5.06977">
        <ele>258.2</ele>
        <time>2024-09-19T16:07:34Z</time>
      </trkpt>
      <trkpt lat="45.8595" lon="5.06978">
        <ele>258.8</ele>
        <time>2024-09-19T16:07:35Z</time>
      </trkpt>
      <trkpt lat="45.85951" lon="5.06979">
        <ele>259</ele>
        <time>2024-09-19T16:07:36Z</time>
      </trkpt>
      <trkpt lat="45.85952" lon="5.06979">
        <ele>259</ele>
        <time>2024-09-19T16:07:37Z</time>
      </trkpt>
      <trkpt lat="45.85954" lon="5.06979">
        <ele>259</ele>
        <time>2024-09-19T16:07:38Z</time>
      </trkpt>
      <trkpt lat="45.85956" lon="5.0698">
        <ele>259.4</ele>
        <time>2024-09-19T16:07:39Z</time>
      </trkpt>
      <trkpt lat="45.85957" lon="5.06981">
        <ele>259.6</ele>
        <time>2024-09-19T16:07:40Z</time>
      </trkpt>
      <trkpt lat="45.85959" lon="5.06982">
        <ele>260</ele>
        <time>2024-09-19T16:07:41Z</time>
      </trkpt>
      <trkpt lat="45.85961" lon="5.06984">
        <ele>260</ele>
        <time>2024-09-19T16:07:42Z</time>
      </trkpt>
      <trkpt lat="45.85963" lon="5.06986">
        <ele>260.2</ele>
        <time>2024-09-19T16:07:43Z</time>
      </trkpt>
      <trkpt lat="45.85965" lon="5.06988">
        <ele>260.4</ele>
        <time>2024-09-19T16:07:44Z</time>
      </trkpt>
      <trkpt lat="45.85966" lon="5.06991">
        <ele>260.4</ele>
        <time>2024-09-19T16:07:45Z</time>
      </trkpt>
      <trkpt lat="45.85967" lon="5.06993">
        <ele>260.6</ele>
        <time>2024-09-19T16:07:46Z</time>
      </trkpt>
      <trkpt lat="45.85968" lon="5.06994">
        <ele>260.8</ele>
        <time>2024-09-19T16:07:47Z</time>
      </trkpt>
      <trkpt lat="45.85968" lon="5.06995">
        <ele>260.8</ele>
        <time>2024-09-19T16:07:48Z</time>
      </trkpt>
      <trkpt lat="45.85969" lon="5.06998">
        <ele>261.2</ele>
        <time>2024-09-19T16:07:49Z</time>
      </trkpt>
      <trkpt lat="45.8597" lon="5.07">
        <ele>261.2</ele>
        <time>2024-09-19T16:07:50Z</time>
      </trkpt>
      <trkpt lat="45.85972" lon="5.07002">
        <ele>261.2</ele>
        <time>2024-09-19T16:07:51Z</time>
      </trkpt>
      <trkpt lat="45.85972" lon="5.07006">
        <ele>261.6</ele>
        <time>2024-09-19T16:07:52Z</time>
      </trkpt>
      <trkpt lat="45.85973" lon="5.07008">
        <ele>261.6</ele>
        <time>2024-09-19T16:07:53Z</time>
      </trkpt>
      <trkpt lat="45.85974" lon="5.07011">
        <ele>261.6</ele>
        <time>2024-09-19T16:07:54Z</time>
      </trkpt>
      <trkpt lat="45.85975" lon="5.07013">
        <ele>262</ele>
        <time>2024-09-19T16:07:55Z</time>
      </trkpt>
      <trkpt lat="45.85976" lon="5.07015">
        <ele>262</ele>
        <time>2024-09-19T16:07:56Z</time>
      </trkpt>
      <trkpt lat="45.85977" lon="5.07017">
        <ele>262.4</ele>
        <time>2024-09-19T16:07:57Z</time>
      </trkpt>
      <trkpt lat="45.85977" lon="5.07019">
        <ele>262.4</ele>
        <time>2024-09-19T16:07:58Z</time>
      </trkpt>
      <trkpt lat="45.85978" lon="5.07022">
        <ele>262.6</ele>
        <time>2024-09-19T16:07:59Z</time>
      </trkpt>
      <trkpt lat="45.8598" lon="5.07024">
        <ele>263</ele>
        <time>2024-09-19T16:08:00Z</time>
      </trkpt>
      <trkpt lat="45.85981" lon="5.07026">
        <ele>263</ele>
        <time>2024-09-19T16:08:01Z</time>
      </trkpt>
      <trkpt lat="45.85982" lon="5.07028">
        <ele>263.2</ele>
        <time>2024-09-19T16:08:02Z</time>
      </trkpt>
      <trkpt lat="45.85983" lon="5.0703">
        <ele>263.4</ele>
        <time>2024-09-19T16:08:03Z</time>
      </trkpt>
      <trkpt lat="45.85984" lon="5.07032">
        <ele>263.4</ele>
        <time>2024-09-19T16:08:04Z</time>
      </trkpt>
      <trkpt lat="45.85986" lon="5.07034">
        <ele>263.6</ele>
        <time>2024-09-19T16:08:05Z</time>
      </trkpt>
      <trkpt lat="45.85987" lon="5.07037">
        <ele>263.6</ele>
        <time>2024-09-19T16:08:06Z</time>
      </trkpt>
      <trkpt lat="45.85988" lon="5.07039">
        <ele>263.8</ele>
        <time>2024-09-19T16:08:07Z</time>
      </trkpt>
      <trkpt lat="45.85989" lon="5.07041">
        <ele>263.8</ele>
        <time>2024-09-19T16:08:08Z</time>
      </trkpt>
      <trkpt lat="45.8599" lon="5.07043">
        <ele>264.2</ele>
        <time>2024-09-19T16:08:09Z</time>
      </trkpt>
      <trkpt lat="45.85992" lon="5.07045">
        <ele>264.2</ele>
        <time>2024-09-19T16:08:10Z</time>
      </trkpt>
      <trkpt lat="45.85993" lon="5.07047">
        <ele>264.2</ele>
        <time>2024-09-19T16:08:11Z</time>
      </trkpt>
      <trkpt lat="45.85994" lon="5.07049">
        <ele>264.6</ele>
        <time>2024-09-19T16:08:12Z</time>
      </trkpt>
      <trkpt lat="45.85996" lon="5.07051">
        <ele>264.6</ele>
        <time>2024-09-19T16:08:13Z</time>
      </trkpt>
      <trkpt lat="45.85998" lon="5.07053">
        <ele>265</ele>
        <time>2024-09-19T16:08:14Z</time>
      </trkpt>
      <trkpt lat="45.86" lon="5.07054">
        <ele>265</ele>
        <time>2024-09-19T16:08:15Z</time>
      </trkpt>
      <trkpt lat="45.86001" lon="5.07056">
        <ele>265</ele>
        <time>2024-09-19T16:08:16Z</time>
      </trkpt>
      <trkpt lat="45.86003" lon="5.07058">
        <ele>265.2</ele>
        <time>2024-09-19T16:08:17Z</time>
      </trkpt>
      <trkpt lat="45.86004" lon="5.0706">
        <ele>265.2</ele>
        <time>2024-09-19T16:08:18Z</time>
      </trkpt>
      <trkpt lat="45.86006" lon="5.07062">
        <ele>265.4</ele>
        <time>2024-09-19T16:08:19Z</time>
      </trkpt>
      <trkpt lat="45.86008" lon="5.07064">
        <ele>265.4</ele>
        <time>2024-09-19T16:08:20Z</time>
      </trkpt>
      <trkpt lat="45.86009" lon="5.07066">
        <ele>265.6</ele>
        <time>2024-09-19T16:08:21Z</time>
      </trkpt>
      <trkpt lat="45.86011" lon="5.07068">
        <ele>265.6</ele>
        <time>2024-09-19T16:08:22Z</time>
      </trkpt>
      <trkpt lat="45.86013" lon="5.0707">
        <ele>265.6</ele>
        <time>2024-09-19T16:08:23Z</time>
      </trkpt>
      <trkpt lat="45.86014" lon="5.07072">
        <ele>265.6</ele>
        <time>2024-09-19T16:08:24Z</time>
      </trkpt>
      <trkpt lat="45.86016" lon="5.07074">
        <ele>266</ele>
        <time>2024-09-19T16:08:25Z</time>
      </trkpt>
      <trkpt lat="45.86017" lon="5.07076">
        <ele>266</ele>
        <time>2024-09-19T16:08:26Z</time>
      </trkpt>
      <trkpt lat="45.86019" lon="5.07078">
        <ele>266.4</ele>
        <time>2024-09-19T16:08:27Z</time>
      </trkpt>
      <trkpt lat="45.86021" lon="5.07078">
        <ele>266.8</ele>
        <time>2024-09-19T16:08:28Z</time>
      </trkpt>
      <trkpt lat="45.86023" lon="5.07079">
        <ele>266.8</ele>
        <time>2024-09-19T16:08:29Z</time>
      </trkpt>
      <trkpt lat="45.86025" lon="5.07078">
        <ele>267.2</ele>
        <time>2024-09-19T16:08:30Z</time>
      </trkpt>
      <trkpt lat="45.86027" lon="5.07076">
        <ele>267.4</ele>
        <time>2024-09-19T16:08:31Z</time>
      </trkpt>
      <trkpt lat="45.86029" lon="5.07072">
        <ele>267.4</ele>
        <time>2024-09-19T16:08:32Z</time>
      </trkpt>
      <trkpt lat="45.86029" lon="5.07069">
        <ele>267.6</ele>
        <time>2024-09-19T16:08:33Z</time>
      </trkpt>
      <trkpt lat="45.86029" lon="5.07065">
        <ele>267.6</ele>
        <time>2024-09-19T16:08:34Z</time>
      </trkpt>
      <trkpt lat="45.86028" lon="5.07062">
        <ele>268</ele>
        <time>2024-09-19T16:08:35Z</time>
      </trkpt>
      <trkpt lat="45.86027" lon="5.07059">
        <ele>268</ele>
        <time>2024-09-19T16:08:36Z</time>
      </trkpt>
      <trkpt lat="45.86025" lon="5.07057">
        <ele>268.2</ele>
        <time>2024-09-19T16:08:37Z</time>
      </trkpt>
      <trkpt lat="45.86025" lon="5.07057">
        <ele>268.2</ele>
        <time>2024-09-19T16:08:38Z</time>
      </trkpt>
      <trkpt lat="45.86022" lon="5.07056">
        <ele>268.6</ele>
        <time>2024-09-19T16:08:39Z</time>
      </trkpt>
      <trkpt lat="45.8602" lon="5.07055">
        <ele>268.6</ele>
        <time>2024-09-19T16:08:40Z</time>
      </trkpt>
      <trkpt lat="45.86018" lon="5.07054">
        <ele>268.8</ele>
        <time>2024-09-19T16:08:41Z</time>
      </trkpt>
      <trkpt lat="45.86016" lon="5.07052">
        <ele>268.8</ele>
        <time>2024-09-19T16:08:42Z</time>
      </trkpt>
      <trkpt lat="45.86014" lon="5.0705">
        <ele>269.2</ele>
        <time>2024-09-19T16:08:43Z</time>
      </trkpt>
      <trkpt lat="45.86012" lon="5.07048">
        <ele>269.2</ele>
        <time>2024-09-19T16:08:44Z</time>
      </trkpt>
      <trkpt lat="45.8601" lon="5.07046">
        <ele>269.8</ele>
        <time>2024-09-19T16:08:45Z</time>
      </trkpt>
      <trkpt lat="45.86009" lon="5.07045">
        <ele>269.8</ele>
        <time>2024-09-19T16:08:46Z</time>
      </trkpt>
      <trkpt lat="45.86008" lon="5.07043">
        <ele>269.8</ele>
        <time>2024-09-19T16:08:47Z</time>
      </trkpt>
      <trkpt lat="45.86007" lon="5.0704">
        <ele>269.8</ele>
        <time>2024-09-19T16:08:48Z</time>
      </trkpt>
      <trkpt lat="45.86006" lon="5.07038">
        <ele>269.8</ele>
        <time>2024-09-19T16:08:49Z</time>
      </trkpt>
      <trkpt lat="45.86005" lon="5.07036">
        <ele>270</ele>
        <time>2024-09-19T16:08:50Z</time>
      </trkpt>
      <trkpt lat="45.86004" lon="5.07033">
        <ele>270</ele>
        <time>2024-09-19T16:08:51Z</time>
      </trkpt>
      <trkpt lat="45.86003" lon="5.07031">
        <ele>270.4</ele>
        <time>2024-09-19T16:08:52Z</time>
      </trkpt>
      <trkpt lat="45.86002" lon="5.07028">
        <ele>270.4</ele>
        <time>2024-09-19T16:08:53Z</time>
      </trkpt>
      <trkpt lat="45.86001" lon="5.07022">
        <ele>270.6</ele>
        <time>2024-09-19T16:08:54Z</time>
      </trkpt>
      <trkpt lat="45.86001" lon="5.0702">
        <ele>271</ele>
        <time>2024-09-19T16:08:55Z</time>
      </trkpt>
      <trkpt lat="45.86" lon="5.07017">
        <ele>271</ele>
        <time>2024-09-19T16:08:56Z</time>
      </trkpt>
      <trkpt lat="45.86" lon="5.07014">
        <ele>271.2</ele>
        <time>2024-09-19T16:08:57Z</time>
      </trkpt>
      <trkpt lat="45.86" lon="5.07011">
        <ele>271.4</ele>
        <time>2024-09-19T16:08:58Z</time>
      </trkpt>
      <trkpt lat="45.86" lon="5.07008">
        <ele>271.6</ele>
        <time>2024-09-19T16:08:59Z</time>
      </trkpt>
      <trkpt lat="45.86" lon="5.07005">
        <ele>271.6</ele>
        <time>2024-09-19T16:09:00Z</time>
      </trkpt>
      <trkpt lat="45.85999" lon="5.07002">
        <ele>272</ele>
        <time>2024-09-19T16:09:01Z</time>
      </trkpt>
      <trkpt lat="45.85999" lon="5.06999">
        <ele>272</ele>
        <time>2024-09-19T16:09:02Z</time>
      </trkpt>
      <trkpt lat="45.85999" lon="5.06996">
        <ele>272.2</ele>
        <time>2024-09-19T16:09:03Z</time>
      </trkpt>
      <trkpt lat="45.85999" lon="5.06993">
        <ele>272.2</ele>
        <time>2024-09-19T16:09:04Z</time>
      </trkpt>
      <trkpt lat="45.86" lon="5.0699">
        <ele>272.4</ele>
        <time>2024-09-19T16:09:05Z</time>
      </trkpt>
      <trkpt lat="45.86001" lon="5.06988">
        <ele>272.4</ele>
        <time>2024-09-19T16:09:06Z</time>
      </trkpt>
      <trkpt lat="45.86002" lon="5.06985">
        <ele>272.8</ele>
        <time>2024-09-19T16:09:07Z</time>
      </trkpt>
      <trkpt lat="45.86003" lon="5.06982">
        <ele>272.8</ele>
        <time>2024-09-19T16:09:08Z</time>
      </trkpt>
      <trkpt lat="45.86004" lon="5.06979">
        <ele>273</ele>
        <time>2024-09-19T16:09:09Z</time>
      </trkpt>
      <trkpt lat="45.86005" lon="5.06977">
        <ele>273</ele>
        <time>2024-09-19T16:09:10Z</time>
      </trkpt>
      <trkpt lat="45.86006" lon="5.06974">
        <ele>273.4</ele>
        <time>2024-09-19T16:09:11Z</time>
      </trkpt>
      <trkpt lat="45.86007" lon="5.06972">
        <ele>273.4</ele>
        <time>2024-09-19T16:09:12Z</time>
      </trkpt>
      <trkpt lat="45.86008" lon="5.0697">
        <ele>273.6</ele>
        <time>2024-09-19T16:09:13Z</time>
      </trkpt>
      <trkpt lat="45.8601" lon="5.06968">
        <ele>273.6</ele>
        <time>2024-09-19T16:09:14Z</time>
      </trkpt>
      <trkpt lat="45.86011" lon="5.06966">
        <ele>273.8</ele>
        <time>2024-09-19T16:09:15Z</time>
      </trkpt>
      <trkpt lat="45.86013" lon="5.06964">
        <ele>273.8</ele>
        <time>2024-09-19T16:09:16Z</time>
      </trkpt>
      <trkpt lat="45.86014" lon="5.06962">
        <ele>273.8</ele>
        <time>2024-09-19T16:09:17Z</time>
      </trkpt>
      <trkpt lat="45.86016" lon="5.0696">
        <ele>274</ele>
        <time>2024-09-19T16:09:18Z</time>
      </trkpt>
      <trkpt lat="45.86017" lon="5.06958">
        <ele>274</ele>
        <time>2024-09-19T16:09:19Z</time>
      </trkpt>
      <trkpt lat="45.86018" lon="5.06957">
        <ele>274</ele>
        <time>2024-09-19T16:09:20Z</time>
      </trkpt>
      <trkpt lat="45.8602" lon="5.06955">
        <ele>274.2</ele>
        <time>2024-09-19T16:09:21Z</time>
      </trkpt>
      <trkpt lat="45.86021" lon="5.06953">
        <ele>274.6</ele>
        <time>2024-09-19T16:09:22Z</time>
      </trkpt>
      <trkpt lat="45.86023" lon="5.06952">
        <ele>274.8</ele>
        <time>2024-09-19T16:09:23Z</time>
      </trkpt>
      <trkpt lat="45.86024" lon="5.0695">
        <ele>274.8</ele>
        <time>2024-09-19T16:09:24Z</time>
      </trkpt>
      <trkpt lat="45.86025" lon="5.06947">
        <ele>275</ele>
        <time>2024-09-19T16:09:25Z</time>
      </trkpt>
      <trkpt lat="45.86026" lon="5.06945">
        <ele>275</ele>
        <time>2024-09-19T16:09:26Z</time>
      </trkpt>
      <trkpt lat="45.86028" lon="5.06943">
        <ele>275.4</ele>
        <time>2024-09-19T16:09:27Z</time>
      </trkpt>
      <trkpt lat="45.86029" lon="5.0694">
        <ele>275.4</ele>
        <time>2024-09-19T16:09:28Z</time>
      </trkpt>
      <trkpt lat="45.8603" lon="5.06938">
        <ele>275.4</ele>
        <time>2024-09-19T16:09:29Z</time>
      </trkpt>
      <trkpt lat="45.8603" lon="5.06935">
        <ele>275.4</ele>
        <time>2024-09-19T16:09:30Z</time>
      </trkpt>
      <trkpt lat="45.86031" lon="5.06932">
        <ele>275.8</ele>
        <time>2024-09-19T16:09:31Z</time>
      </trkpt>
      <trkpt lat="45.86031" lon="5.0693">
        <ele>275.8</ele>
        <time>2024-09-19T16:09:32Z</time>
      </trkpt>
      <trkpt lat="45.86031" lon="5.06927">
        <ele>276</ele>
        <time>2024-09-19T16:09:33Z</time>
      </trkpt>
      <trkpt lat="45.86031" lon="5.06924">
        <ele>276</ele>
        <time>2024-09-19T16:09:34Z</time>
      </trkpt>
      <trkpt lat="45.86031" lon="5.06921">
        <ele>276.4</ele>
        <time>2024-09-19T16:09:35Z</time>
      </trkpt>
      <trkpt lat="45.86031" lon="5.06918">
        <ele>276.4</ele>
        <time>2024-09-19T16:09:36Z</time>
      </trkpt>
      <trkpt lat="45.8603" lon="5.06915">
        <ele>276.4</ele>
        <time>2024-09-19T16:09:37Z</time>
      </trkpt>
      <trkpt lat="45.8603" lon="5.06913">
        <ele>276.8</ele>
        <time>2024-09-19T16:09:38Z</time>
      </trkpt>
      <trkpt lat="45.86029" lon="5.0691">
        <ele>276.8</ele>
        <time>2024-09-19T16:09:39Z</time>
      </trkpt>
      <trkpt lat="45.86029" lon="5.06908">
        <ele>277</ele>
        <time>2024-09-19T16:09:40Z</time>
      </trkpt>
      <trkpt lat="45.86028" lon="5.06906">
        <ele>277</ele>
        <time>2024-09-19T16:09:41Z</time>
      </trkpt>
      <trkpt lat="45.86027" lon="5.06904">
        <ele>277.4</ele>
        <time>2024-09-19T16:09:42Z</time>
      </trkpt>
      <trkpt lat="45.86027" lon="5.06901">
        <ele>277.4</ele>
        <time>2024-09-19T16:09:43Z</time>
      </trkpt>
      <trkpt lat="45.86026" lon="5.06899">
        <ele>277.4</ele>
        <time>2024-09-19T16:09:44Z</time>
      </trkpt>
      <trkpt lat="45.86026" lon="5.06896">
        <ele>277.6</ele>
        <time>2024-09-19T16:09:45Z</time>
      </trkpt>
      <trkpt lat="45.86026" lon="5.06894">
        <ele>277.8</ele>
        <time>2024-09-19T16:09:46Z</time>
      </trkpt>
      <trkpt lat="45.86026" lon="5.06893">
        <ele>277.8</ele>
        <time>2024-09-19T16:09:47Z</time>
      </trkpt>
      <trkpt lat="45.86026" lon="5.06891">
        <ele>277.8</ele>
        <time>2024-09-19T16:09:48Z</time>
      </trkpt>
      <trkpt lat="45.86026" lon="5.06888">
        <ele>278.2</ele>
        <time>2024-09-19T16:09:49Z</time>
      </trkpt>
      <trkpt lat="45.86027" lon="5.06885">
        <ele>278.2</ele>
        <time>2024-09-19T16:09:50Z</time>
      </trkpt>
      <trkpt lat="45.86026" lon="5.06882">
        <ele>278.2</ele>
        <time>2024-09-19T16:09:51Z</time>
      </trkpt>
      <trkpt lat="45.86026" lon="5.06878">
        <ele>278.6</ele>
        <time>2024-09-19T16:09:52Z</time>
      </trkpt>
      <trkpt lat="45.86026" lon="5.06875">
        <ele>278.6</ele>
        <time>2024-09-19T16:09:53Z</time>
      </trkpt>
      <trkpt lat="45.86027" lon="5.06873">
        <ele>278.8</ele>
        <time>2024-09-19T16:09:54Z</time>
      </trkpt>
      <trkpt lat="45.86028" lon="5.0687">
        <ele>278.8</ele>
        <time>2024-09-19T16:09:55Z</time>
      </trkpt>
      <trkpt lat="45.86028" lon="5.06867">
        <ele>278.2</ele>
        <time>2024-09-19T16:09:56Z</time>
      </trkpt>
      <trkpt lat="45.86028" lon="5.06867">
        <ele>278.8</ele>
        <time>2024-09-19T16:09:57Z</time>
      </trkpt>
      <trkpt lat="45.86028" lon="5.06867">
        <ele>278.8</ele>
        <time>2024-09-19T16:09:58Z</time>
      </trkpt>
      <trkpt lat="45.8603" lon="5.06858">
        <ele>279</ele>
        <time>2024-09-19T16:09:59Z</time>
      </trkpt>
      <trkpt lat="45.8603" lon="5.06855">
        <ele>279</ele>
        <time>2024-09-19T16:10:00Z</time>
      </trkpt>
      <trkpt lat="45.86031" lon="5.06853">
        <ele>279.4</ele>
        <time>2024-09-19T16:10:01Z</time>
      </trkpt>
      <trkpt lat="45.86031" lon="5.0685">
        <ele>279.4</ele>
        <time>2024-09-19T16:10:02Z</time>
      </trkpt>
      <trkpt lat="45.86032" lon="5.06847">
        <ele>279.6</ele>
        <time>2024-09-19T16:10:03Z</time>
      </trkpt>
      <trkpt lat="45.86032" lon="5.06844">
        <ele>280</ele>
        <time>2024-09-19T16:10:04Z</time>
      </trkpt>
      <trkpt lat="45.86033" lon="5.06842">
        <ele>280</ele>
        <time>2024-09-19T16:10:05Z</time>
      </trkpt>
      <trkpt lat="45.86034" lon="5.06839">
        <ele>280.2</ele>
        <time>2024-09-19T16:10:06Z</time>
      </trkpt>
      <trkpt lat="45.86035" lon="5.06837">
        <ele>280.2</ele>
        <time>2024-09-19T16:10:07Z</time>
      </trkpt>
      <trkpt lat="45.86036" lon="5.06834">
        <ele>280.4</ele>
        <time>2024-09-19T16:10:08Z</time>
      </trkpt>
      <trkpt lat="45.86038" lon="5.06832">
        <ele>280.4</ele>
        <time>2024-09-19T16:10:09Z</time>
      </trkpt>
      <trkpt lat="45.86039" lon="5.0683">
        <ele>280.8</ele>
        <time>2024-09-19T16:10:10Z</time>
      </trkpt>
      <trkpt lat="45.86041" lon="5.06828">
        <ele>280.8</ele>
        <time>2024-09-19T16:10:11Z</time>
      </trkpt>
      <trkpt lat="45.86042" lon="5.06826">
        <ele>281.2</ele>
        <time>2024-09-19T16:10:12Z</time>
      </trkpt>
      <trkpt lat="45.86044" lon="5.06824">
        <ele>281.2</ele>
        <time>2024-09-19T16:10:13Z</time>
      </trkpt>
      <trkpt lat="45.86046" lon="5.06823">
        <ele>281.2</ele>
        <time>2024-09-19T16:10:14Z</time>
      </trkpt>
      <trkpt lat="45.86048" lon="5.06821">
        <ele>281.2</ele>
        <time>2024-09-19T16:10:15Z</time>
      </trkpt>
      <trkpt lat="45.86049" lon="5.0682">
        <ele>281.4</ele>
        <time>2024-09-19T16:10:16Z</time>
      </trkpt>
      <trkpt lat="45.86052" lon="5.06819">
        <ele>281.4</ele>
        <time>2024-09-19T16:10:17Z</time>
      </trkpt>
      <trkpt lat="45.86054" lon="5.06818">
        <ele>281.4</ele>
        <time>2024-09-19T16:10:18Z</time>
      </trkpt>
      <trkpt lat="45.86055" lon="5.06817">
        <ele>281.4</ele>
        <time>2024-09-19T16:10:19Z</time>
      </trkpt>
      <trkpt lat="45.86057" lon="5.06816">
        <ele>282</ele>
        <time>2024-09-19T16:10:20Z</time>
      </trkpt>
      <trkpt lat="45.86059" lon="5.06814">
        <ele>282.2</ele>
        <time>2024-09-19T16:10:21Z</time>
      </trkpt>
      <trkpt lat="45.86061" lon="5.06813">
        <ele>282.4</ele>
        <time>2024-09-19T16:10:22Z</time>
      </trkpt>
      <trkpt lat="45.86063" lon="5.06811">
        <ele>282.6</ele>
        <time>2024-09-19T16:10:23Z</time>
      </trkpt>
      <trkpt lat="45.86064" lon="5.0681">
        <ele>282.6</ele>
        <time>2024-09-19T16:10:24Z</time>
      </trkpt>
      <trkpt lat="45.86065" lon="5.06809">
        <ele>282.8</ele>
        <time>2024-09-19T16:10:25Z</time>
      </trkpt>
      <trkpt lat="45.86067" lon="5.06808">
        <ele>282.8</ele>
        <time>2024-09-19T16:10:26Z</time>
      </trkpt>
      <trkpt lat="45.86069" lon="5.06807">
        <ele>283.2</ele>
        <time>2024-09-19T16:10:27Z</time>
      </trkpt>
      <trkpt lat="45.86071" lon="5.06805">
        <ele>283.2</ele>
        <time>2024-09-19T16:10:28Z</time>
      </trkpt>
      <trkpt lat="45.86073" lon="5.06803">
        <ele>283.2</ele>
        <time>2024-09-19T16:10:29Z</time>
      </trkpt>
      <trkpt lat="45.86074" lon="5.06802">
        <ele>283.4</ele>
        <time>2024-09-19T16:10:30Z</time>
      </trkpt>
      <trkpt lat="45.86077" lon="5.068">
        <ele>283.4</ele>
        <time>2024-09-19T16:10:31Z</time>
      </trkpt>
      <trkpt lat="45.86079" lon="5.06799">
        <ele>283.4</ele>
        <time>2024-09-19T16:10:32Z</time>
      </trkpt>
      <trkpt lat="45.8608" lon="5.06798">
        <ele>283.6</ele>
        <time>2024-09-19T16:10:33Z</time>
      </trkpt>
      <trkpt lat="45.86082" lon="5.06797">
        <ele>283.6</ele>
        <time>2024-09-19T16:10:34Z</time>
      </trkpt>
      <trkpt lat="45.86084" lon="5.06796">
        <ele>284.2</ele>
        <time>2024-09-19T16:10:35Z</time>
      </trkpt>
      <trkpt lat="45.86086" lon="5.06796">
        <ele>284.2</ele>
        <time>2024-09-19T16:10:36Z</time>
      </trkpt>
      <trkpt lat="45.86088" lon="5.06794">
        <ele>284.6</ele>
        <time>2024-09-19T16:10:37Z</time>
      </trkpt>
      <trkpt lat="45.8609" lon="5.06793">
        <ele>285</ele>
        <time>2024-09-19T16:10:38Z</time>
      </trkpt>
      <trkpt lat="45.86092" lon="5.06792">
        <ele>285</ele>
        <time>2024-09-19T16:10:39Z</time>
      </trkpt>
      <trkpt lat="45.86094" lon="5.06791">
        <ele>285.4</ele>
        <time>2024-09-19T16:10:40Z</time>
      </trkpt>
      <trkpt lat="45.86096" lon="5.0679">
        <ele>285.6</ele>
        <time>2024-09-19T16:10:41Z</time>
      </trkpt>
      <trkpt lat="45.86098" lon="5.06789">
        <ele>285.6</ele>
        <time>2024-09-19T16:10:42Z</time>
      </trkpt>
      <trkpt lat="45.86099" lon="5.06788">
        <ele>285.8</ele>
        <time>2024-09-19T16:10:43Z</time>
      </trkpt>
      <trkpt lat="45.86101" lon="5.06787">
        <ele>286.2</ele>
        <time>2024-09-19T16:10:44Z</time>
      </trkpt>
      <trkpt lat="45.86103" lon="5.06786">
        <ele>286.2</ele>
        <time>2024-09-19T16:10:45Z</time>
      </trkpt>
      <trkpt lat="45.86105" lon="5.06785">
        <ele>286.4</ele>
        <time>2024-09-19T16:10:46Z</time>
      </trkpt>
      <trkpt lat="45.86106" lon="5.06784">
        <ele>286.6</ele>
        <time>2024-09-19T16:10:47Z</time>
      </trkpt>
      <trkpt lat="45.86108" lon="5.06784">
        <ele>286.6</ele>
        <time>2024-09-19T16:10:48Z</time>
      </trkpt>
      <trkpt lat="45.8611" lon="5.06784">
        <ele>286.8</ele>
        <time>2024-09-19T16:10:49Z</time>
      </trkpt>
      <trkpt lat="45.86112" lon="5.06784">
        <ele>286.8</ele>
        <time>2024-09-19T16:10:50Z</time>
      </trkpt>
      <trkpt lat="45.86114" lon="5.06784">
        <ele>287.2</ele>
        <time>2024-09-19T16:10:51Z</time>
      </trkpt>
      <trkpt lat="45.86116" lon="5.06784">
        <ele>287.2</ele>
        <time>2024-09-19T16:10:52Z</time>
      </trkpt>
      <trkpt lat="45.86117" lon="5.06784">
        <ele>287.6</ele>
        <time>2024-09-19T16:10:53Z</time>
      </trkpt>
      <trkpt lat="45.86119" lon="5.06785">
        <ele>287.8</ele>
        <time>2024-09-19T16:10:54Z</time>
      </trkpt>
      <trkpt lat="45.86121" lon="5.06785">
        <ele>287.8</ele>
        <time>2024-09-19T16:10:55Z</time>
      </trkpt>
      <trkpt lat="45.86123" lon="5.06786">
        <ele>288</ele>
        <time>2024-09-19T16:10:56Z</time>
      </trkpt>
      <trkpt lat="45.86125" lon="5.06787">
        <ele>288</ele>
        <time>2024-09-19T16:10:57Z</time>
      </trkpt>
      <trkpt lat="45.86127" lon="5.06788">
        <ele>288</ele>
        <time>2024-09-19T16:10:58Z</time>
      </trkpt>
      <trkpt lat="45.86128" lon="5.06788">
        <ele>288.6</ele>
        <time>2024-09-19T16:10:59Z</time>
      </trkpt>
      <trkpt lat="45.86129" lon="5.06788">
        <ele>288.8</ele>
        <time>2024-09-19T16:11:00Z</time>
      </trkpt>
      <trkpt lat="45.86131" lon="5.06789">
        <ele>288.8</ele>
        <time>2024-09-19T16:11:01Z</time>
      </trkpt>
      <trkpt lat="45.86133" lon="5.06789">
        <ele>289</ele>
        <time>2024-09-19T16:11:02Z</time>
      </trkpt>
      <trkpt lat="45.86135" lon="5.06789">
        <ele>289</ele>
        <time>2024-09-19T16:11:03Z</time>
      </trkpt>
      <trkpt lat="45.86138" lon="5.0679">
        <ele>289.4</ele>
        <time>2024-09-19T16:11:04Z</time>
      </trkpt>
      <trkpt lat="45.8614" lon="5.0679">
        <ele>289.6</ele>
        <time>2024-09-19T16:11:05Z</time>
      </trkpt>
      <trkpt lat="45.86142" lon="5.0679">
        <ele>289.6</ele>
        <time>2024-09-19T16:11:06Z</time>
      </trkpt>
      <trkpt lat="45.86144" lon="5.06791">
        <ele>290</ele>
        <time>2024-09-19T16:11:07Z</time>
      </trkpt>
      <trkpt lat="45.86146" lon="5.06792">
        <ele>290</ele>
        <time>2024-09-19T16:11:08Z</time>
      </trkpt>
      <trkpt lat="45.86148" lon="5.06793">
        <ele>290.2</ele>
        <time>2024-09-19T16:11:09Z</time>
      </trkpt>
      <trkpt lat="45.8615" lon="5.06794">
        <ele>290.2</ele>
        <time>2024-09-19T16:11:10Z</time>
      </trkpt>
      <trkpt lat="45.86152" lon="5.06794">
        <ele>290.4</ele>
        <time>2024-09-19T16:11:11Z</time>
      </trkpt>
      <trkpt lat="45.86154" lon="5.06794">
        <ele>290.8</ele>
        <time>2024-09-19T16:11:12Z</time>
      </trkpt>
      <trkpt lat="45.86156" lon="5.06794">
        <ele>290.8</ele>
        <time>2024-09-19T16:11:13Z</time>
      </trkpt>
      <trkpt lat="45.86158" lon="5.06795">
        <ele>291</ele>
        <time>2024-09-19T16:11:14Z</time>
      </trkpt>
      <trkpt lat="45.8616" lon="5.06795">
        <ele>291</ele>
        <time>2024-09-19T16:11:15Z</time>
      </trkpt>
      <trkpt lat="45.86161" lon="5.06796">
        <ele>291</ele>
        <time>2024-09-19T16:11:16Z</time>
      </trkpt>
      <trkpt lat="45.86163" lon="5.06796">
        <ele>291.4</ele>
        <time>2024-09-19T16:11:17Z</time>
      </trkpt>
      <trkpt lat="45.86165" lon="5.06797">
        <ele>291.4</ele>
        <time>2024-09-19T16:11:18Z</time>
      </trkpt>
      <trkpt lat="45.86167" lon="5.06797">
        <ele>291.8</ele>
        <time>2024-09-19T16:11:19Z</time>
      </trkpt>
      <trkpt lat="45.86169" lon="5.06797">
        <ele>292</ele>
        <time>2024-09-19T16:11:20Z</time>
      </trkpt>
      <trkpt lat="45.8617" lon="5.06796">
        <ele>292</ele>
        <time>2024-09-19T16:11:21Z</time>
      </trkpt>
      <trkpt lat="45.86172" lon="5.06796">
        <ele>292</ele>
        <time>2024-09-19T16:11:22Z</time>
      </trkpt>
      <trkpt lat="45.86174" lon="5.06796">
        <ele>292.2</ele>
        <time>2024-09-19T16:11:23Z</time>
      </trkpt>
      <trkpt lat="45.86176" lon="5.06795">
        <ele>292.2</ele>
        <time>2024-09-19T16:11:24Z</time>
      </trkpt>
      <trkpt lat="45.86178" lon="5.06795">
        <ele>292.6</ele>
        <time>2024-09-19T16:11:25Z</time>
      </trkpt>
      <trkpt lat="45.86181" lon="5.06794">
        <ele>292.6</ele>
        <time>2024-09-19T16:11:26Z</time>
      </trkpt>
      <trkpt lat="45.86183" lon="5.06793">
        <ele>292.8</ele>
        <time>2024-09-19T16:11:27Z</time>
      </trkpt>
      <trkpt lat="45.86185" lon="5.06793">
        <ele>292.8</ele>
        <time>2024-09-19T16:11:28Z</time>
      </trkpt>
      <trkpt lat="45.86187" lon="5.06792">
        <ele>293.2</ele>
        <time>2024-09-19T16:11:29Z</time>
      </trkpt>
      <trkpt lat="45.86189" lon="5.06791">
        <ele>293.2</ele>
        <time>2024-09-19T16:11:30Z</time>
      </trkpt>
      <trkpt lat="45.86191" lon="5.0679">
        <ele>293.6</ele>
        <time>2024-09-19T16:11:31Z</time>
      </trkpt>
      <trkpt lat="45.86193" lon="5.0679">
        <ele>293.6</ele>
        <time>2024-09-19T16:11:32Z</time>
      </trkpt>
      <trkpt lat="45.86195" lon="5.06789">
        <ele>293.8</ele>
        <time>2024-09-19T16:11:33Z</time>
      </trkpt>
      <trkpt lat="45.86197" lon="5.06788">
        <ele>293.8</ele>
        <time>2024-09-19T16:11:34Z</time>
      </trkpt>
      <trkpt lat="45.86199" lon="5.06788">
        <ele>294.2</ele>
        <time>2024-09-19T16:11:35Z</time>
      </trkpt>
      <trkpt lat="45.86202" lon="5.06787">
        <ele>294.2</ele>
        <time>2024-09-19T16:11:36Z</time>
      </trkpt>
      <trkpt lat="45.86204" lon="5.06786">
        <ele>294.6</ele>
        <time>2024-09-19T16:11:37Z</time>
      </trkpt>
      <trkpt lat="45.86205" lon="5.06786">
        <ele>294.6</ele>
        <time>2024-09-19T16:11:38Z</time>
      </trkpt>
      <trkpt lat="45.86207" lon="5.06785">
        <ele>294.6</ele>
        <time>2024-09-19T16:11:39Z</time>
      </trkpt>
      <trkpt lat="45.86209" lon="5.06784">
        <ele>295</ele>
        <time>2024-09-19T16:11:40Z</time>
      </trkpt>
      <trkpt lat="45.86211" lon="5.06784">
        <ele>295.2</ele>
        <time>2024-09-19T16:11:41Z</time>
      </trkpt>
      <trkpt lat="45.86214" lon="5.06784">
        <ele>295.2</ele>
        <time>2024-09-19T16:11:42Z</time>
      </trkpt>
      <trkpt lat="45.86216" lon="5.06784">
        <ele>295.2</ele>
        <time>2024-09-19T16:11:43Z</time>
      </trkpt>
      <trkpt lat="45.86218" lon="5.06783">
        <ele>295.6</ele>
        <time>2024-09-19T16:11:44Z</time>
      </trkpt>
      <trkpt lat="45.86221" lon="5.06783">
        <ele>295.6</ele>
        <time>2024-09-19T16:11:45Z</time>
      </trkpt>
      <trkpt lat="45.86223" lon="5.06783">
        <ele>296</ele>
        <time>2024-09-19T16:11:46Z</time>
      </trkpt>
      <trkpt lat="45.86225" lon="5.06782">
        <ele>296.2</ele>
        <time>2024-09-19T16:11:47Z</time>
      </trkpt>
      <trkpt lat="45.86227" lon="5.06782">
        <ele>296.2</ele>
        <time>2024-09-19T16:11:48Z</time>
      </trkpt>
      <trkpt lat="45.8623" lon="5.06782">
        <ele>296.4</ele>
        <time>2024-09-19T16:11:49Z</time>
      </trkpt>
      <trkpt lat="45.86232" lon="5.06782">
        <ele>296.4</ele>
        <time>2024-09-19T16:11:50Z</time>
      </trkpt>
      <trkpt lat="45.86235" lon="5.06782">
        <ele>296.4</ele>
        <time>2024-09-19T16:11:51Z</time>
      </trkpt>
      <trkpt lat="45.86237" lon="5.06782">
        <ele>296.4</ele>
        <time>2024-09-19T16:11:52Z</time>
      </trkpt>
      <trkpt lat="45.8624" lon="5.06783">
        <ele>296.4</ele>
        <time>2024-09-19T16:11:53Z</time>
      </trkpt>
      <trkpt lat="45.86242" lon="5.06784">
        <ele>296.4</ele>
        <time>2024-09-19T16:11:54Z</time>
      </trkpt>
      <trkpt lat="45.86245" lon="5.06785">
        <ele>296.8</ele>
        <time>2024-09-19T16:11:55Z</time>
      </trkpt>
      <trkpt lat="45.86248" lon="5.06786">
        <ele>296.8</ele>
        <time>2024-09-19T16:11:56Z</time>
      </trkpt>
      <trkpt lat="45.8625" lon="5.06786">
        <ele>296.6</ele>
        <time>2024-09-19T16:11:57Z</time>
      </trkpt>
      <trkpt lat="45.86252" lon="5.06787">
        <ele>296.6</ele>
        <time>2024-09-19T16:11:58Z</time>
      </trkpt>
      <trkpt lat="45.86254" lon="5.06788">
        <ele>296.6</ele>
        <time>2024-09-19T16:11:59Z</time>
      </trkpt>
      <trkpt lat="45.86256" lon="5.06789">
        <ele>296.6</ele>
        <time>2024-09-19T16:12:00Z</time>
      </trkpt>
      <trkpt lat="45.86257" lon="5.06789">
        <ele>296.6</ele>
        <time>2024-09-19T16:12:01Z</time>
      </trkpt>
      <trkpt lat="45.86259" lon="5.0679">
        <ele>296.6</ele>
        <time>2024-09-19T16:12:02Z</time>
      </trkpt>
      <trkpt lat="45.86261" lon="5.06791">
        <ele>296.6</ele>
        <time>2024-09-19T16:12:03Z</time>
      </trkpt>
      <trkpt lat="45.86263" lon="5.06792">
        <ele>296.4</ele>
        <time>2024-09-19T16:12:04Z</time>
      </trkpt>
      <trkpt lat="45.86265" lon="5.06793">
        <ele>296</ele>
        <time>2024-09-19T16:12:05Z</time>
      </trkpt>
      <trkpt lat="45.86267" lon="5.06794">
        <ele>296</ele>
        <time>2024-09-19T16:12:06Z</time>
      </trkpt>
      <trkpt lat="45.86269" lon="5.06795">
        <ele>296</ele>
        <time>2024-09-19T16:12:07Z</time>
      </trkpt>
      <trkpt lat="45.86271" lon="5.06796">
        <ele>296</ele>
        <time>2024-09-19T16:12:08Z</time>
      </trkpt>
      <trkpt lat="45.86273" lon="5.06797">
        <ele>295.8</ele>
        <time>2024-09-19T16:12:09Z</time>
      </trkpt>
      <trkpt lat="45.86274" lon="5.06798">
        <ele>295.8</ele>
        <time>2024-09-19T16:12:10Z</time>
      </trkpt>
      <trkpt lat="45.86275" lon="5.06799">
        <ele>295.8</ele>
        <time>2024-09-19T16:12:11Z</time>
      </trkpt>
      <trkpt lat="45.86276" lon="5.068">
        <ele>296</ele>
        <time>2024-09-19T16:12:12Z</time>
      </trkpt>
      <trkpt lat="45.86276" lon="5.068">
        <ele>296</ele>
        <time>2024-09-19T16:12:13Z</time>
      </trkpt>
      <trkpt lat="45.86277" lon="5.068">
        <ele>296</ele>
        <time>2024-09-19T16:12:14Z</time>
      </trkpt>
      <trkpt lat="45.86277" lon="5.068">
        <ele>296</ele>
        <time>2024-09-19T16:12:15Z</time>
      </trkpt>
      <trkpt lat="45.8628" lon="5.06798">
        <ele>296.4</ele>
        <time>2024-09-19T16:14:06Z</time>
      </trkpt>
      <trkpt lat="45.86282" lon="5.06799">
        <ele>296</ele>
        <time>2024-09-19T16:14:07Z</time>
      </trkpt>
      <trkpt lat="45.86284" lon="5.06799">
        <ele>295.4</ele>
        <time>2024-09-19T16:14:08Z</time>
      </trkpt>
      <trkpt lat="45.86286" lon="5.068">
        <ele>295.4</ele>
        <time>2024-09-19T16:14:09Z</time>
      </trkpt>
      <trkpt lat="45.86289" lon="5.06801">
        <ele>294.8</ele>
        <time>2024-09-19T16:14:10Z</time>
      </trkpt>
      <trkpt lat="45.86291" lon="5.06803">
        <ele>294.6</ele>
        <time>2024-09-19T16:14:11Z</time>
      </trkpt>
      <trkpt lat="45.86294" lon="5.06804">
        <ele>295</ele>
        <time>2024-09-19T16:14:12Z</time>
      </trkpt>
      <trkpt lat="45.86297" lon="5.06806">
        <ele>295</ele>
        <time>2024-09-19T16:14:13Z</time>
      </trkpt>
      <trkpt lat="45.863" lon="5.06807">
        <ele>295</ele>
        <time>2024-09-19T16:14:14Z</time>
      </trkpt>
      <trkpt lat="45.86304" lon="5.06809">
        <ele>294.8</ele>
        <time>2024-09-19T16:14:15Z</time>
      </trkpt>
      <trkpt lat="45.86306" lon="5.0681">
        <ele>294.2</ele>
        <time>2024-09-19T16:14:16Z</time>
      </trkpt>
      <trkpt lat="45.8631" lon="5.06812">
        <ele>293.6</ele>
        <time>2024-09-19T16:14:17Z</time>
      </trkpt>
      <trkpt lat="45.86313" lon="5.06813">
        <ele>293.2</ele>
        <time>2024-09-19T16:14:18Z</time>
      </trkpt>
      <trkpt lat="45.86316" lon="5.06815">
        <ele>293.6</ele>
        <time>2024-09-19T16:14:19Z</time>
      </trkpt>
      <trkpt lat="45.8632" lon="5.06816">
        <ele>293.2</ele>
        <time>2024-09-19T16:14:20Z</time>
      </trkpt>
      <trkpt lat="45.86323" lon="5.06817">
        <ele>293.6</ele>
        <time>2024-09-19T16:14:21Z</time>
      </trkpt>
      <trkpt lat="45.86327" lon="5.06818">
        <ele>294</ele>
        <time>2024-09-19T16:14:22Z</time>
      </trkpt>
      <trkpt lat="45.8633" lon="5.06819">
        <ele>294</ele>
        <time>2024-09-19T16:14:23Z</time>
      </trkpt>
      <trkpt lat="45.86334" lon="5.06819">
        <ele>293.6</ele>
        <time>2024-09-19T16:14:24Z</time>
      </trkpt>
      <trkpt lat="45.86338" lon="5.06821">
        <ele>293.6</ele>
        <time>2024-09-19T16:14:25Z</time>
      </trkpt>
      <trkpt lat="45.86342" lon="5.06822">
        <ele>293.6</ele>
        <time>2024-09-19T16:14:26Z</time>
      </trkpt>
      <trkpt lat="45.86346" lon="5.06825">
        <ele>293.2</ele>
        <time>2024-09-19T16:14:27Z</time>
      </trkpt>
      <trkpt lat="45.8635" lon="5.06827">
        <ele>293.2</ele>
        <time>2024-09-19T16:14:28Z</time>
      </trkpt>
      <trkpt lat="45.86355" lon="5.06828">
        <ele>293.6</ele>
        <time>2024-09-19T16:14:29Z</time>
      </trkpt>
      <trkpt lat="45.86359" lon="5.06831">
        <ele>293.2</ele>
        <time>2024-09-19T16:14:30Z</time>
      </trkpt>
      <trkpt lat="45.86365" lon="5.06833">
        <ele>293</ele>
        <time>2024-09-19T16:14:31Z</time>
      </trkpt>
      <trkpt lat="45.8637" lon="5.06836">
        <ele>292.4</ele>
        <time>2024-09-19T16:14:32Z</time>
      </trkpt>
      <trkpt lat="45.86376" lon="5.06839">
        <ele>291.6</ele>
        <time>2024-09-19T16:14:33Z</time>
      </trkpt>
      <trkpt lat="45.86382" lon="5.06841">
        <ele>291.4</ele>
        <time>2024-09-19T16:14:34Z</time>
      </trkpt>
      <trkpt lat="45.86388" lon="5.06844">
        <ele>291</ele>
        <time>2024-09-19T16:14:35Z</time>
      </trkpt>
      <trkpt lat="45.86393" lon="5.06847">
        <ele>291</ele>
        <time>2024-09-19T16:14:36Z</time>
      </trkpt>
      <trkpt lat="45.864" lon="5.06849">
        <ele>291.2</ele>
        <time>2024-09-19T16:14:37Z</time>
      </trkpt>
      <trkpt lat="45.86406" lon="5.06852">
        <ele>291.8</ele>
        <time>2024-09-19T16:14:38Z</time>
      </trkpt>
      <trkpt lat="45.86406" lon="5.06852">
        <ele>292.4</ele>
        <time>2024-09-19T16:14:39Z</time>
      </trkpt>
      <trkpt lat="45.86411" lon="5.06854">
        <ele>291.8</ele>
        <time>2024-09-19T16:14:40Z</time>
      </trkpt>
      <trkpt lat="45.86417" lon="5.06858">
        <ele>291.8</ele>
        <time>2024-09-19T16:14:41Z</time>
      </trkpt>
      <trkpt lat="45.86422" lon="5.0686">
        <ele>291.2</ele>
        <time>2024-09-19T16:14:42Z</time>
      </trkpt>
      <trkpt lat="45.86428" lon="5.06863">
        <ele>291.2</ele>
        <time>2024-09-19T16:14:43Z</time>
      </trkpt>
      <trkpt lat="45.86434" lon="5.06866">
        <ele>291.6</ele>
        <time>2024-09-19T16:14:44Z</time>
      </trkpt>
      <trkpt lat="45.86439" lon="5.06869">
        <ele>291.6</ele>
        <time>2024-09-19T16:14:45Z</time>
      </trkpt>
      <trkpt lat="45.86445" lon="5.06871">
        <ele>291.6</ele>
        <time>2024-09-19T16:14:46Z</time>
      </trkpt>
      <trkpt lat="45.86451" lon="5.06873">
        <ele>291.6</ele>
        <time>2024-09-19T16:14:47Z</time>
      </trkpt>
      <trkpt lat="45.86456" lon="5.06875">
        <ele>291</ele>
        <time>2024-09-19T16:14:48Z</time>
      </trkpt>
      <trkpt lat="45.86462" lon="5.06876">
        <ele>291</ele>
        <time>2024-09-19T16:14:49Z</time>
      </trkpt>
      <trkpt lat="45.86467" lon="5.06878">
        <ele>291</ele>
        <time>2024-09-19T16:14:50Z</time>
      </trkpt>
      <trkpt lat="45.86472" lon="5.0688">
        <ele>291.2</ele>
        <time>2024-09-19T16:14:51Z</time>
      </trkpt>
      <trkpt lat="45.86477" lon="5.06882">
        <ele>291.2</ele>
        <time>2024-09-19T16:14:52Z</time>
      </trkpt>
      <trkpt lat="45.86487" lon="5.06886">
        <ele>291.6</ele>
        <time>2024-09-19T16:14:53Z</time>
      </trkpt>
      <trkpt lat="45.86492" lon="5.06888">
        <ele>291.8</ele>
        <time>2024-09-19T16:14:54Z</time>
      </trkpt>
      <trkpt lat="45.86497" lon="5.0689">
        <ele>292.4</ele>
        <time>2024-09-19T16:14:55Z</time>
      </trkpt>
      <trkpt lat="45.86502" lon="5.06893">
        <ele>292.4</ele>
        <time>2024-09-19T16:14:56Z</time>
      </trkpt>
      <trkpt lat="45.86506" lon="5.06895">
        <ele>292.4</ele>
        <time>2024-09-19T16:14:57Z</time>
      </trkpt>
      <trkpt lat="45.8651" lon="5.06898">
        <ele>292.4</ele>
        <time>2024-09-19T16:14:58Z</time>
      </trkpt>
      <trkpt lat="45.86514" lon="5.06901">
        <ele>292.4</ele>
        <time>2024-09-19T16:14:59Z</time>
      </trkpt>
      <trkpt lat="45.86519" lon="5.06904">
        <ele>292.4</ele>
        <time>2024-09-19T16:15:00Z</time>
      </trkpt>
      <trkpt lat="45.86523" lon="5.06908">
        <ele>292</ele>
        <time>2024-09-19T16:15:01Z</time>
      </trkpt>
      <trkpt lat="45.86527" lon="5.06912">
        <ele>291.6</ele>
        <time>2024-09-19T16:15:02Z</time>
      </trkpt>
      <trkpt lat="45.86532" lon="5.06914">
        <ele>292.4</ele>
        <time>2024-09-19T16:15:03Z</time>
      </trkpt>
      <trkpt lat="45.86535" lon="5.06918">
        <ele>292.6</ele>
        <time>2024-09-19T16:15:04Z</time>
      </trkpt>
      <trkpt lat="45.86539" lon="5.06922">
        <ele>292</ele>
        <time>2024-09-19T16:15:05Z</time>
      </trkpt>
      <trkpt lat="45.86543" lon="5.06926">
        <ele>292</ele>
        <time>2024-09-19T16:15:06Z</time>
      </trkpt>
      <trkpt lat="45.86546" lon="5.0693">
        <ele>292.4</ele>
        <time>2024-09-19T16:15:07Z</time>
      </trkpt>
      <trkpt lat="45.8655" lon="5.06934">
        <ele>292.4</ele>
        <time>2024-09-19T16:15:08Z</time>
      </trkpt>
      <trkpt lat="45.86553" lon="5.06939">
        <ele>292.6</ele>
        <time>2024-09-19T16:15:09Z</time>
      </trkpt>
      <trkpt lat="45.86557" lon="5.06944">
        <ele>292.6</ele>
        <time>2024-09-19T16:15:10Z</time>
      </trkpt>
      <trkpt lat="45.8656" lon="5.06948">
        <ele>292.8</ele>
        <time>2024-09-19T16:15:11Z</time>
      </trkpt>
      <trkpt lat="45.86563" lon="5.06952">
        <ele>293.2</ele>
        <time>2024-09-19T16:15:12Z</time>
      </trkpt>
      <trkpt lat="45.86566" lon="5.06956">
        <ele>293.2</ele>
        <time>2024-09-19T16:15:13Z</time>
      </trkpt>
      <trkpt lat="45.8657" lon="5.0696">
        <ele>293.2</ele>
        <time>2024-09-19T16:15:14Z</time>
      </trkpt>
      <trkpt lat="45.86573" lon="5.06965">
        <ele>293.2</ele>
        <time>2024-09-19T16:15:15Z</time>
      </trkpt>
      <trkpt lat="45.86576" lon="5.06968">
        <ele>293.6</ele>
        <time>2024-09-19T16:15:16Z</time>
      </trkpt>
      <trkpt lat="45.86579" lon="5.06972">
        <ele>294</ele>
        <time>2024-09-19T16:15:17Z</time>
      </trkpt>
      <trkpt lat="45.86582" lon="5.06975">
        <ele>293.6</ele>
        <time>2024-09-19T16:15:18Z</time>
      </trkpt>
      <trkpt lat="45.86584" lon="5.06979">
        <ele>293.8</ele>
        <time>2024-09-19T16:15:19Z</time>
      </trkpt>
      <trkpt lat="45.86587" lon="5.06982">
        <ele>293.8</ele>
        <time>2024-09-19T16:15:20Z</time>
      </trkpt>
      <trkpt lat="45.8659" lon="5.06985">
        <ele>294.2</ele>
        <time>2024-09-19T16:15:21Z</time>
      </trkpt>
      <trkpt lat="45.86592" lon="5.06989">
        <ele>294.4</ele>
        <time>2024-09-19T16:15:22Z</time>
      </trkpt>
      <trkpt lat="45.86596" lon="5.06993">
        <ele>294.4</ele>
        <time>2024-09-19T16:15:23Z</time>
      </trkpt>
      <trkpt lat="45.86598" lon="5.06996">
        <ele>294.8</ele>
        <time>2024-09-19T16:15:24Z</time>
      </trkpt>
      <trkpt lat="45.866" lon="5.06999">
        <ele>295</ele>
        <time>2024-09-19T16:15:25Z</time>
      </trkpt>
      <trkpt lat="45.86603" lon="5.07002">
        <ele>294.6</ele>
        <time>2024-09-19T16:15:26Z</time>
      </trkpt>
      <trkpt lat="45.86606" lon="5.07006">
        <ele>294.6</ele>
        <time>2024-09-19T16:15:27Z</time>
      </trkpt>
      <trkpt lat="45.86608" lon="5.07009">
        <ele>295.2</ele>
        <time>2024-09-19T16:15:28Z</time>
      </trkpt>
      <trkpt lat="45.8661" lon="5.07012">
        <ele>295.2</ele>
        <time>2024-09-19T16:15:29Z</time>
      </trkpt>
      <trkpt lat="45.86613" lon="5.07015">
        <ele>295.2</ele>
        <time>2024-09-19T16:15:30Z</time>
      </trkpt>
      <trkpt lat="45.86614" lon="5.07018">
        <ele>295.2</ele>
        <time>2024-09-19T16:15:31Z</time>
      </trkpt>
      <trkpt lat="45.86616" lon="5.07022">
        <ele>295.4</ele>
        <time>2024-09-19T16:15:32Z</time>
      </trkpt>
      <trkpt lat="45.86618" lon="5.07024">
        <ele>295.4</ele>
        <time>2024-09-19T16:15:33Z</time>
      </trkpt>
      <trkpt lat="45.8662" lon="5.07027">
        <ele>295.4</ele>
        <time>2024-09-19T16:15:34Z</time>
      </trkpt>
      <trkpt lat="45.86622" lon="5.0703">
        <ele>295.8</ele>
        <time>2024-09-19T16:15:35Z</time>
      </trkpt>
      <trkpt lat="45.86624" lon="5.07033">
        <ele>295.8</ele>
        <time>2024-09-19T16:15:36Z</time>
      </trkpt>
      <trkpt lat="45.86626" lon="5.07036">
        <ele>295.8</ele>
        <time>2024-09-19T16:15:37Z</time>
      </trkpt>
      <trkpt lat="45.86627" lon="5.0704">
        <ele>295.8</ele>
        <time>2024-09-19T16:15:38Z</time>
      </trkpt>
      <trkpt lat="45.86629" lon="5.07043">
        <ele>295.8</ele>
        <time>2024-09-19T16:15:39Z</time>
      </trkpt>
      <trkpt lat="45.86631" lon="5.07046">
        <ele>296</ele>
        <time>2024-09-19T16:15:40Z</time>
      </trkpt>
      <trkpt lat="45.86632" lon="5.07049">
        <ele>296.2</ele>
        <time>2024-09-19T16:15:41Z</time>
      </trkpt>
      <trkpt lat="45.86634" lon="5.07052">
        <ele>296.4</ele>
        <time>2024-09-19T16:15:42Z</time>
      </trkpt>
      <trkpt lat="45.86635" lon="5.07055">
        <ele>296.4</ele>
        <time>2024-09-19T16:15:43Z</time>
      </trkpt>
      <trkpt lat="45.86637" lon="5.07058">
        <ele>296.4</ele>
        <time>2024-09-19T16:15:44Z</time>
      </trkpt>
      <trkpt lat="45.86639" lon="5.07061">
        <ele>296.4</ele>
        <time>2024-09-19T16:15:45Z</time>
      </trkpt>
      <trkpt lat="45.8664" lon="5.07065">
        <ele>296.6</ele>
        <time>2024-09-19T16:15:46Z</time>
      </trkpt>
      <trkpt lat="45.86641" lon="5.07068">
        <ele>296.6</ele>
        <time>2024-09-19T16:15:47Z</time>
      </trkpt>
      <trkpt lat="45.86643" lon="5.07071">
        <ele>297.6</ele>
        <time>2024-09-19T16:15:48Z</time>
      </trkpt>
      <trkpt lat="45.86644" lon="5.07074">
        <ele>297.6</ele>
        <time>2024-09-19T16:15:49Z</time>
      </trkpt>
      <trkpt lat="45.86645" lon="5.07078">
        <ele>298</ele>
        <time>2024-09-19T16:15:50Z</time>
      </trkpt>
      <trkpt lat="45.86647" lon="5.07081">
        <ele>298.2</ele>
        <time>2024-09-19T16:15:51Z</time>
      </trkpt>
      <trkpt lat="45.86648" lon="5.07084">
        <ele>298.2</ele>
        <time>2024-09-19T16:15:52Z</time>
      </trkpt>
      <trkpt lat="45.86649" lon="5.07088">
        <ele>298</ele>
        <time>2024-09-19T16:15:53Z</time>
      </trkpt>
      <trkpt lat="45.86651" lon="5.07091">
        <ele>298</ele>
        <time>2024-09-19T16:15:54Z</time>
      </trkpt>
      <trkpt lat="45.86653" lon="5.07094">
        <ele>298</ele>
        <time>2024-09-19T16:15:55Z</time>
      </trkpt>
      <trkpt lat="45.86655" lon="5.07098">
        <ele>298</ele>
        <time>2024-09-19T16:15:56Z</time>
      </trkpt>
      <trkpt lat="45.86657" lon="5.07102">
        <ele>298</ele>
        <time>2024-09-19T16:15:57Z</time>
      </trkpt>
      <trkpt lat="45.86659" lon="5.07106">
        <ele>298.2</ele>
        <time>2024-09-19T16:15:58Z</time>
      </trkpt>
      <trkpt lat="45.8666" lon="5.0711">
        <ele>298.2</ele>
        <time>2024-09-19T16:15:59Z</time>
      </trkpt>
      <trkpt lat="45.86662" lon="5.07114">
        <ele>298.2</ele>
        <time>2024-09-19T16:16:00Z</time>
      </trkpt>
      <trkpt lat="45.86665" lon="5.07117">
        <ele>298.4</ele>
        <time>2024-09-19T16:16:01Z</time>
      </trkpt>
      <trkpt lat="45.86667" lon="5.07121">
        <ele>298.4</ele>
        <time>2024-09-19T16:16:02Z</time>
      </trkpt>
      <trkpt lat="45.86669" lon="5.07124">
        <ele>298.4</ele>
        <time>2024-09-19T16:16:03Z</time>
      </trkpt>
      <trkpt lat="45.86671" lon="5.07127">
        <ele>298.8</ele>
        <time>2024-09-19T16:16:04Z</time>
      </trkpt>
      <trkpt lat="45.86674" lon="5.07131">
        <ele>298.4</ele>
        <time>2024-09-19T16:16:05Z</time>
      </trkpt>
      <trkpt lat="45.86676" lon="5.07134">
        <ele>298.4</ele>
        <time>2024-09-19T16:16:06Z</time>
      </trkpt>
      <trkpt lat="45.86679" lon="5.07138">
        <ele>298.8</ele>
        <time>2024-09-19T16:16:07Z</time>
      </trkpt>
      <trkpt lat="45.86682" lon="5.07142">
        <ele>299.2</ele>
        <time>2024-09-19T16:16:08Z</time>
      </trkpt>
      <trkpt lat="45.86685" lon="5.07145">
        <ele>299.2</ele>
        <time>2024-09-19T16:16:09Z</time>
      </trkpt>
      <trkpt lat="45.86688" lon="5.07149">
        <ele>299.2</ele>
        <time>2024-09-19T16:16:10Z</time>
      </trkpt>
      <trkpt lat="45.86691" lon="5.07152">
        <ele>299.2</ele>
        <time>2024-09-19T16:16:11Z</time>
      </trkpt>
      <trkpt lat="45.86694" lon="5.07156">
        <ele>298.8</ele>
        <time>2024-09-19T16:16:12Z</time>
      </trkpt>
      <trkpt lat="45.86697" lon="5.07159">
        <ele>298.8</ele>
        <time>2024-09-19T16:16:13Z</time>
      </trkpt>
      <trkpt lat="45.867" lon="5.07163">
        <ele>298.8</ele>
        <time>2024-09-19T16:16:14Z</time>
      </trkpt>
      <trkpt lat="45.86704" lon="5.07166">
        <ele>298.8</ele>
        <time>2024-09-19T16:16:15Z</time>
      </trkpt>
      <trkpt lat="45.86707" lon="5.07169">
        <ele>298.8</ele>
        <time>2024-09-19T16:16:16Z</time>
      </trkpt>
      <trkpt lat="45.86711" lon="5.07172">
        <ele>298.8</ele>
        <time>2024-09-19T16:16:17Z</time>
      </trkpt>
      <trkpt lat="45.86714" lon="5.07175">
        <ele>298.8</ele>
        <time>2024-09-19T16:16:18Z</time>
      </trkpt>
      <trkpt lat="45.86718" lon="5.07178">
        <ele>298.8</ele>
        <time>2024-09-19T16:16:19Z</time>
      </trkpt>
      <trkpt lat="45.86721" lon="5.07183">
        <ele>298.8</ele>
        <time>2024-09-19T16:16:20Z</time>
      </trkpt>
      <trkpt lat="45.86724" lon="5.07188">
        <ele>298.8</ele>
        <time>2024-09-19T16:16:21Z</time>
      </trkpt>
      <trkpt lat="45.86728" lon="5.07192">
        <ele>298.6</ele>
        <time>2024-09-19T16:16:22Z</time>
      </trkpt>
      <trkpt lat="45.86731" lon="5.07197">
        <ele>298</ele>
        <time>2024-09-19T16:16:23Z</time>
      </trkpt>
      <trkpt lat="45.86735" lon="5.07201">
        <ele>298</ele>
        <time>2024-09-19T16:16:24Z</time>
      </trkpt>
      <trkpt lat="45.86738" lon="5.07206">
        <ele>298</ele>
        <time>2024-09-19T16:16:25Z</time>
      </trkpt>
      <trkpt lat="45.86742" lon="5.07211">
        <ele>297.8</ele>
        <time>2024-09-19T16:16:26Z</time>
      </trkpt>
      <trkpt lat="45.86746" lon="5.07214">
        <ele>297.8</ele>
        <time>2024-09-19T16:16:27Z</time>
      </trkpt>
      <trkpt lat="45.86749" lon="5.07219">
        <ele>297.8</ele>
        <time>2024-09-19T16:16:28Z</time>
      </trkpt>
      <trkpt lat="45.86752" lon="5.07224">
        <ele>298.2</ele>
        <time>2024-09-19T16:16:29Z</time>
      </trkpt>
      <trkpt lat="45.86756" lon="5.07228">
        <ele>297.8</ele>
        <time>2024-09-19T16:16:30Z</time>
      </trkpt>
      <trkpt lat="45.86759" lon="5.07233">
        <ele>298</ele>
        <time>2024-09-19T16:16:31Z</time>
      </trkpt>
      <trkpt lat="45.86763" lon="5.07239">
        <ele>297.8</ele>
        <time>2024-09-19T16:16:32Z</time>
      </trkpt>
      <trkpt lat="45.86766" lon="5.07243">
        <ele>297.8</ele>
        <time>2024-09-19T16:16:33Z</time>
      </trkpt>
      <trkpt lat="45.8677" lon="5.07247">
        <ele>297.8</ele>
        <time>2024-09-19T16:16:34Z</time>
      </trkpt>
      <trkpt lat="45.86774" lon="5.07252">
        <ele>298.4</ele>
        <time>2024-09-19T16:16:35Z</time>
      </trkpt>
      <trkpt lat="45.86778" lon="5.07257">
        <ele>298</ele>
        <time>2024-09-19T16:16:36Z</time>
      </trkpt>
      <trkpt lat="45.86782" lon="5.0726">
        <ele>297.8</ele>
        <time>2024-09-19T16:16:37Z</time>
      </trkpt>
      <trkpt lat="45.86786" lon="5.07264">
        <ele>298.2</ele>
        <time>2024-09-19T16:16:38Z</time>
      </trkpt>
      <trkpt lat="45.86791" lon="5.07268">
        <ele>298</ele>
        <time>2024-09-19T16:16:39Z</time>
      </trkpt>
      <trkpt lat="45.86795" lon="5.07272">
        <ele>297.6</ele>
        <time>2024-09-19T16:16:40Z</time>
      </trkpt>
      <trkpt lat="45.86799" lon="5.07275">
        <ele>297.2</ele>
        <time>2024-09-19T16:16:41Z</time>
      </trkpt>
      <trkpt lat="45.86803" lon="5.07279">
        <ele>297.6</ele>
        <time>2024-09-19T16:16:42Z</time>
      </trkpt>
      <trkpt lat="45.86808" lon="5.07282">
        <ele>297.8</ele>
        <time>2024-09-19T16:16:43Z</time>
      </trkpt>
      <trkpt lat="45.86812" lon="5.07285">
        <ele>298.2</ele>
        <time>2024-09-19T16:16:44Z</time>
      </trkpt>
      <trkpt lat="45.86817" lon="5.07288">
        <ele>298.2</ele>
        <time>2024-09-19T16:16:45Z</time>
      </trkpt>
      <trkpt lat="45.86821" lon="5.07291">
        <ele>298.8</ele>
        <time>2024-09-19T16:16:46Z</time>
      </trkpt>
      <trkpt lat="45.86825" lon="5.07295">
        <ele>298.4</ele>
        <time>2024-09-19T16:16:47Z</time>
      </trkpt>
      <trkpt lat="45.86829" lon="5.07298">
        <ele>298.4</ele>
        <time>2024-09-19T16:16:48Z</time>
      </trkpt>
      <trkpt lat="45.86833" lon="5.07303">
        <ele>298.4</ele>
        <time>2024-09-19T16:16:49Z</time>
      </trkpt>
      <trkpt lat="45.86837" lon="5.07306">
        <ele>298.4</ele>
        <time>2024-09-19T16:16:50Z</time>
      </trkpt>
      <trkpt lat="45.86841" lon="5.07309">
        <ele>298.4</ele>
        <time>2024-09-19T16:16:51Z</time>
      </trkpt>
      <trkpt lat="45.86845" lon="5.07312">
        <ele>298</ele>
        <time>2024-09-19T16:16:52Z</time>
      </trkpt>
      <trkpt lat="45.86849" lon="5.07315">
        <ele>298</ele>
        <time>2024-09-19T16:16:53Z</time>
      </trkpt>
      <trkpt lat="45.86854" lon="5.07319">
        <ele>298.4</ele>
        <time>2024-09-19T16:16:54Z</time>
      </trkpt>
      <trkpt lat="45.86858" lon="5.07322">
        <ele>298.4</ele>
        <time>2024-09-19T16:16:55Z</time>
      </trkpt>
      <trkpt lat="45.86862" lon="5.07326">
        <ele>298.4</ele>
        <time>2024-09-19T16:16:56Z</time>
      </trkpt>
      <trkpt lat="45.86867" lon="5.07329">
        <ele>298.4</ele>
        <time>2024-09-19T16:16:57Z</time>
      </trkpt>
      <trkpt lat="45.86871" lon="5.07333">
        <ele>298</ele>
        <time>2024-09-19T16:16:58Z</time>
      </trkpt>
      <trkpt lat="45.86874" lon="5.07337">
        <ele>298</ele>
        <time>2024-09-19T16:16:59Z</time>
      </trkpt>
      <trkpt lat="45.86878" lon="5.0734">
        <ele>297.6</ele>
        <time>2024-09-19T16:17:00Z</time>
      </trkpt>
      <trkpt lat="45.86882" lon="5.07343">
        <ele>297.6</ele>
        <time>2024-09-19T16:17:01Z</time>
      </trkpt>
      <trkpt lat="45.86886" lon="5.07346">
        <ele>297.6</ele>
        <time>2024-09-19T16:17:02Z</time>
      </trkpt>
      <trkpt lat="45.8689" lon="5.07349">
        <ele>298.2</ele>
        <time>2024-09-19T16:17:03Z</time>
      </trkpt>
      <trkpt lat="45.86894" lon="5.07353">
        <ele>298.2</ele>
        <time>2024-09-19T16:17:04Z</time>
      </trkpt>
      <trkpt lat="45.86897" lon="5.07356">
        <ele>298.4</ele>
        <time>2024-09-19T16:17:05Z</time>
      </trkpt>
      <trkpt lat="45.86901" lon="5.07359">
        <ele>297.8</ele>
        <time>2024-09-19T16:17:06Z</time>
      </trkpt>
      <trkpt lat="45.86904" lon="5.07362">
        <ele>297.6</ele>
        <time>2024-09-19T16:17:07Z</time>
      </trkpt>
      <trkpt lat="45.86908" lon="5.07366">
        <ele>297.6</ele>
        <time>2024-09-19T16:17:08Z</time>
      </trkpt>
      <trkpt lat="45.86911" lon="5.07369">
        <ele>297.4</ele>
        <time>2024-09-19T16:17:09Z</time>
      </trkpt>
      <trkpt lat="45.86915" lon="5.07372">
        <ele>297.4</ele>
        <time>2024-09-19T16:17:10Z</time>
      </trkpt>
      <trkpt lat="45.86918" lon="5.07375">
        <ele>297.8</ele>
        <time>2024-09-19T16:17:11Z</time>
      </trkpt>
      <trkpt lat="45.86922" lon="5.07378">
        <ele>297.8</ele>
        <time>2024-09-19T16:17:12Z</time>
      </trkpt>
      <trkpt lat="45.86925" lon="5.07381">
        <ele>297.4</ele>
        <time>2024-09-19T16:17:13Z</time>
      </trkpt>
      <trkpt lat="45.86929" lon="5.07383">
        <ele>297.2</ele>
        <time>2024-09-19T16:17:14Z</time>
      </trkpt>
      <trkpt lat="45.86932" lon="5.07385">
        <ele>297.2</ele>
        <time>2024-09-19T16:17:15Z</time>
      </trkpt>
      <trkpt lat="45.86936" lon="5.07388">
        <ele>296.8</ele>
        <time>2024-09-19T16:17:16Z</time>
      </trkpt>
      <trkpt lat="45.86939" lon="5.0739">
        <ele>297.2</ele>
        <time>2024-09-19T16:17:17Z</time>
      </trkpt>
      <trkpt lat="45.86943" lon="5.07392">
        <ele>297.4</ele>
        <time>2024-09-19T16:17:18Z</time>
      </trkpt>
      <trkpt lat="45.86946" lon="5.07393">
        <ele>297.4</ele>
        <time>2024-09-19T16:17:19Z</time>
      </trkpt>
      <trkpt lat="45.8695" lon="5.07395">
        <ele>297.6</ele>
        <time>2024-09-19T16:17:20Z</time>
      </trkpt>
      <trkpt lat="45.86953" lon="5.07396">
        <ele>297.6</ele>
        <time>2024-09-19T16:17:21Z</time>
      </trkpt>
      <trkpt lat="45.86957" lon="5.07398">
        <ele>298</ele>
        <time>2024-09-19T16:17:22Z</time>
      </trkpt>
      <trkpt lat="45.8696" lon="5.07398">
        <ele>298.2</ele>
        <time>2024-09-19T16:17:23Z</time>
      </trkpt>
      <trkpt lat="45.86963" lon="5.07399">
        <ele>298.2</ele>
        <time>2024-09-19T16:17:24Z</time>
      </trkpt>
      <trkpt lat="45.86966" lon="5.07399">
        <ele>298.6</ele>
        <time>2024-09-19T16:17:25Z</time>
      </trkpt>
      <trkpt lat="45.8697" lon="5.074">
        <ele>298.8</ele>
        <time>2024-09-19T16:17:26Z</time>
      </trkpt>
      <trkpt lat="45.86973" lon="5.074">
        <ele>298.8</ele>
        <time>2024-09-19T16:17:27Z</time>
      </trkpt>
      <trkpt lat="45.86976" lon="5.07401">
        <ele>299.2</ele>
        <time>2024-09-19T16:17:28Z</time>
      </trkpt>
      <trkpt lat="45.86979" lon="5.07401">
        <ele>299.2</ele>
        <time>2024-09-19T16:17:29Z</time>
      </trkpt>
      <trkpt lat="45.86982" lon="5.07401">
        <ele>299.2</ele>
        <time>2024-09-19T16:17:30Z</time>
      </trkpt>
      <trkpt lat="45.86986" lon="5.07401">
        <ele>299.4</ele>
        <time>2024-09-19T16:17:31Z</time>
      </trkpt>
      <trkpt lat="45.8699" lon="5.07401">
        <ele>299</ele>
        <time>2024-09-19T16:17:32Z</time>
      </trkpt>
      <trkpt lat="45.86993" lon="5.07402">
        <ele>299</ele>
        <time>2024-09-19T16:17:33Z</time>
      </trkpt>
      <trkpt lat="45.86993" lon="5.07402">
        <ele>299</ele>
        <time>2024-09-19T16:17:34Z</time>
      </trkpt>
      <trkpt lat="45.86997" lon="5.07402">
        <ele>299</ele>
        <time>2024-09-19T16:17:35Z</time>
      </trkpt>
      <trkpt lat="45.87001" lon="5.07402">
        <ele>299.4</ele>
        <time>2024-09-19T16:17:36Z</time>
      </trkpt>
      <trkpt lat="45.87004" lon="5.07402">
        <ele>299</ele>
        <time>2024-09-19T16:17:37Z</time>
      </trkpt>
      <trkpt lat="45.87007" lon="5.07403">
        <ele>299.4</ele>
        <time>2024-09-19T16:17:38Z</time>
      </trkpt>
      <trkpt lat="45.8701" lon="5.07404">
        <ele>299.4</ele>
        <time>2024-09-19T16:17:39Z</time>
      </trkpt>
      <trkpt lat="45.87014" lon="5.07405">
        <ele>300</ele>
        <time>2024-09-19T16:17:40Z</time>
      </trkpt>
      <trkpt lat="45.87017" lon="5.07406">
        <ele>300</ele>
        <time>2024-09-19T16:17:41Z</time>
      </trkpt>
      <trkpt lat="45.87021" lon="5.07407">
        <ele>300.4</ele>
        <time>2024-09-19T16:17:42Z</time>
      </trkpt>
      <trkpt lat="45.87024" lon="5.07409">
        <ele>300.2</ele>
        <time>2024-09-19T16:17:43Z</time>
      </trkpt>
      <trkpt lat="45.87027" lon="5.07411">
        <ele>300.2</ele>
        <time>2024-09-19T16:17:44Z</time>
      </trkpt>
      <trkpt lat="45.8703" lon="5.07412">
        <ele>300.6</ele>
        <time>2024-09-19T16:17:45Z</time>
      </trkpt>
      <trkpt lat="45.87033" lon="5.07414">
        <ele>301.2</ele>
        <time>2024-09-19T16:17:46Z</time>
      </trkpt>
      <trkpt lat="45.87036" lon="5.07416">
        <ele>300.8</ele>
        <time>2024-09-19T16:17:47Z</time>
      </trkpt>
      <trkpt lat="45.87039" lon="5.07417">
        <ele>301.4</ele>
        <time>2024-09-19T16:17:48Z</time>
      </trkpt>
      <trkpt lat="45.87041" lon="5.07418">
        <ele>301.4</ele>
        <time>2024-09-19T16:17:49Z</time>
      </trkpt>
      <trkpt lat="45.87046" lon="5.07421">
        <ele>301.4</ele>
        <time>2024-09-19T16:17:50Z</time>
      </trkpt>
      <trkpt lat="45.87048" lon="5.07422">
        <ele>301.8</ele>
        <time>2024-09-19T16:17:51Z</time>
      </trkpt>
      <trkpt lat="45.87051" lon="5.07422">
        <ele>301.8</ele>
        <time>2024-09-19T16:17:52Z</time>
      </trkpt>
      <trkpt lat="45.87053" lon="5.07423">
        <ele>302.6</ele>
        <time>2024-09-19T16:17:53Z</time>
      </trkpt>
      <trkpt lat="45.87055" lon="5.07425">
        <ele>302.6</ele>
        <time>2024-09-19T16:17:54Z</time>
      </trkpt>
      <trkpt lat="45.87056" lon="5.07426">
        <ele>302.6</ele>
        <time>2024-09-19T16:17:55Z</time>
      </trkpt>
      <trkpt lat="45.87057" lon="5.07426">
        <ele>303</ele>
        <time>2024-09-19T16:17:56Z</time>
      </trkpt>
      <trkpt lat="45.87056" lon="5.07426">
        <ele>303</ele>
        <time>2024-09-19T16:17:57Z</time>
      </trkpt>
      <trkpt lat="45.87056" lon="5.07426">
        <ele>303</ele>
        <time>2024-09-19T16:17:58Z</time>
      </trkpt>
      <trkpt lat="45.87057" lon="5.07425">
        <ele>303.6</ele>
        <time>2024-09-19T16:19:23Z</time>
      </trkpt>
      <trkpt lat="45.87057" lon="5.07425">
        <ele>303.4</ele>
        <time>2024-09-19T16:19:24Z</time>
      </trkpt>
      <trkpt lat="45.87057" lon="5.07425">
        <ele>303.2</ele>
        <time>2024-09-19T16:19:25Z</time>
      </trkpt>
      <trkpt lat="45.87064" lon="5.07426">
        <ele>302.8</ele>
        <time>2024-09-19T16:19:26Z</time>
      </trkpt>
      <trkpt lat="45.87066" lon="5.07426">
        <ele>302.6</ele>
        <time>2024-09-19T16:19:27Z</time>
      </trkpt>
      <trkpt lat="45.87071" lon="5.0743">
        <ele>302.2</ele>
        <time>2024-09-19T16:19:28Z</time>
      </trkpt>
      <trkpt lat="45.87074" lon="5.07433">
        <ele>302.2</ele>
        <time>2024-09-19T16:19:29Z</time>
      </trkpt>
      <trkpt lat="45.87077" lon="5.07437">
        <ele>301.8</ele>
        <time>2024-09-19T16:19:30Z</time>
      </trkpt>
      <trkpt lat="45.87081" lon="5.07441">
        <ele>301.8</ele>
        <time>2024-09-19T16:19:31Z</time>
      </trkpt>
      <trkpt lat="45.87085" lon="5.07445">
        <ele>301.4</ele>
        <time>2024-09-19T16:19:32Z</time>
      </trkpt>
      <trkpt lat="45.87089" lon="5.0745">
        <ele>301.2</ele>
        <time>2024-09-19T16:19:33Z</time>
      </trkpt>
      <trkpt lat="45.87093" lon="5.07454">
        <ele>301.2</ele>
        <time>2024-09-19T16:19:34Z</time>
      </trkpt>
      <trkpt lat="45.87098" lon="5.07459">
        <ele>300.8</ele>
        <time>2024-09-19T16:19:35Z</time>
      </trkpt>
      <trkpt lat="45.87102" lon="5.07463">
        <ele>300.4</ele>
        <time>2024-09-19T16:19:36Z</time>
      </trkpt>
      <trkpt lat="45.87106" lon="5.07469">
        <ele>300.4</ele>
        <time>2024-09-19T16:19:37Z</time>
      </trkpt>
      <trkpt lat="45.8711" lon="5.07474">
        <ele>300.4</ele>
        <time>2024-09-19T16:19:38Z</time>
      </trkpt>
      <trkpt lat="45.87114" lon="5.0748">
        <ele>300.8</ele>
        <time>2024-09-19T16:19:39Z</time>
      </trkpt>
      <trkpt lat="45.87118" lon="5.07486">
        <ele>300.2</ele>
        <time>2024-09-19T16:19:40Z</time>
      </trkpt>
      <trkpt lat="45.87123" lon="5.0749">
        <ele>299.8</ele>
        <time>2024-09-19T16:19:41Z</time>
      </trkpt>
      <trkpt lat="45.87127" lon="5.07495">
        <ele>299.4</ele>
        <time>2024-09-19T16:19:42Z</time>
      </trkpt>
      <trkpt lat="45.87132" lon="5.075">
        <ele>299.4</ele>
        <time>2024-09-19T16:19:43Z</time>
      </trkpt>
      <trkpt lat="45.87136" lon="5.07505">
        <ele>299.4</ele>
        <time>2024-09-19T16:19:44Z</time>
      </trkpt>
      <trkpt lat="45.8714" lon="5.0751">
        <ele>299.4</ele>
        <time>2024-09-19T16:19:45Z</time>
      </trkpt>
      <trkpt lat="45.87144" lon="5.07515">
        <ele>299.4</ele>
        <time>2024-09-19T16:19:46Z</time>
      </trkpt>
      <trkpt lat="45.87148" lon="5.0752">
        <ele>299.4</ele>
        <time>2024-09-19T16:19:47Z</time>
      </trkpt>
      <trkpt lat="45.87152" lon="5.07526">
        <ele>299.4</ele>
        <time>2024-09-19T16:19:48Z</time>
      </trkpt>
      <trkpt lat="45.87156" lon="5.0753">
        <ele>299.4</ele>
        <time>2024-09-19T16:19:49Z</time>
      </trkpt>
      <trkpt lat="45.8716" lon="5.07535">
        <ele>299.4</ele>
        <time>2024-09-19T16:19:50Z</time>
      </trkpt>
      <trkpt lat="45.87165" lon="5.0754">
        <ele>299.4</ele>
        <time>2024-09-19T16:19:51Z</time>
      </trkpt>
      <trkpt lat="45.87169" lon="5.07545">
        <ele>299.4</ele>
        <time>2024-09-19T16:19:52Z</time>
      </trkpt>
      <trkpt lat="45.87172" lon="5.07549">
        <ele>299.8</ele>
        <time>2024-09-19T16:19:53Z</time>
      </trkpt>
      <trkpt lat="45.87176" lon="5.07554">
        <ele>298.6</ele>
        <time>2024-09-19T16:19:54Z</time>
      </trkpt>
      <trkpt lat="45.8718" lon="5.07558">
        <ele>299.2</ele>
        <time>2024-09-19T16:19:55Z</time>
      </trkpt>
      <trkpt lat="45.87183" lon="5.07563">
        <ele>299.6</ele>
        <time>2024-09-19T16:19:56Z</time>
      </trkpt>
      <trkpt lat="45.87187" lon="5.07568">
        <ele>299.8</ele>
        <time>2024-09-19T16:19:57Z</time>
      </trkpt>
      <trkpt lat="45.87191" lon="5.07573">
        <ele>299.8</ele>
        <time>2024-09-19T16:19:58Z</time>
      </trkpt>
      <trkpt lat="45.87195" lon="5.07578">
        <ele>300.2</ele>
        <time>2024-09-19T16:19:59Z</time>
      </trkpt>
      <trkpt lat="45.87199" lon="5.07582">
        <ele>300.2</ele>
        <time>2024-09-19T16:20:00Z</time>
      </trkpt>
      <trkpt lat="45.87202" lon="5.07587">
        <ele>300.4</ele>
        <time>2024-09-19T16:20:01Z</time>
      </trkpt>
      <trkpt lat="45.87206" lon="5.07591">
        <ele>300.4</ele>
        <time>2024-09-19T16:20:02Z</time>
      </trkpt>
      <trkpt lat="45.8721" lon="5.07595">
        <ele>300.4</ele>
        <time>2024-09-19T16:20:03Z</time>
      </trkpt>
      <trkpt lat="45.87214" lon="5.07599">
        <ele>300.6</ele>
        <time>2024-09-19T16:20:04Z</time>
      </trkpt>
      <trkpt lat="45.87217" lon="5.07603">
        <ele>300.6</ele>
        <time>2024-09-19T16:20:05Z</time>
      </trkpt>
      <trkpt lat="45.87221" lon="5.07607">
        <ele>300.6</ele>
        <time>2024-09-19T16:20:06Z</time>
      </trkpt>
      <trkpt lat="45.87224" lon="5.07611">
        <ele>300.6</ele>
        <time>2024-09-19T16:20:07Z</time>
      </trkpt>
      <trkpt lat="45.87228" lon="5.07615">
        <ele>301</ele>
        <time>2024-09-19T16:20:08Z</time>
      </trkpt>
      <trkpt lat="45.87232" lon="5.07619">
        <ele>301</ele>
        <time>2024-09-19T16:20:09Z</time>
      </trkpt>
      <trkpt lat="45.87235" lon="5.07624">
        <ele>301.2</ele>
        <time>2024-09-19T16:20:10Z</time>
      </trkpt>
      <trkpt lat="45.87238" lon="5.07628">
        <ele>301.2</ele>
        <time>2024-09-19T16:20:11Z</time>
      </trkpt>
      <trkpt lat="45.87242" lon="5.07633">
        <ele>301.2</ele>
        <time>2024-09-19T16:20:12Z</time>
      </trkpt>
      <trkpt lat="45.87245" lon="5.07636">
        <ele>301.2</ele>
        <time>2024-09-19T16:20:13Z</time>
      </trkpt>
      <trkpt lat="45.87248" lon="5.0764">
        <ele>301.6</ele>
        <time>2024-09-19T16:20:14Z</time>
      </trkpt>
      <trkpt lat="45.87251" lon="5.07645">
        <ele>301.6</ele>
        <time>2024-09-19T16:20:15Z</time>
      </trkpt>
      <trkpt lat="45.87254" lon="5.07649">
        <ele>301.6</ele>
        <time>2024-09-19T16:20:16Z</time>
      </trkpt>
      <trkpt lat="45.87256" lon="5.07653">
        <ele>301.8</ele>
        <time>2024-09-19T16:20:17Z</time>
      </trkpt>
      <trkpt lat="45.87259" lon="5.07657">
        <ele>302.2</ele>
        <time>2024-09-19T16:20:18Z</time>
      </trkpt>
      <trkpt lat="45.87262" lon="5.07661">
        <ele>302.2</ele>
        <time>2024-09-19T16:20:19Z</time>
      </trkpt>
      <trkpt lat="45.87265" lon="5.07665">
        <ele>302.2</ele>
        <time>2024-09-19T16:20:20Z</time>
      </trkpt>
      <trkpt lat="45.87267" lon="5.07668">
        <ele>302.2</ele>
        <time>2024-09-19T16:20:21Z</time>
      </trkpt>
      <trkpt lat="45.8727" lon="5.07672">
        <ele>302.4</ele>
        <time>2024-09-19T16:20:22Z</time>
      </trkpt>
      <trkpt lat="45.87273" lon="5.07676">
        <ele>302.4</ele>
        <time>2024-09-19T16:20:23Z</time>
      </trkpt>
      <trkpt lat="45.87275" lon="5.07681">
        <ele>302.4</ele>
        <time>2024-09-19T16:20:24Z</time>
      </trkpt>
      <trkpt lat="45.87278" lon="5.07685">
        <ele>302.6</ele>
        <time>2024-09-19T16:20:25Z</time>
      </trkpt>
      <trkpt lat="45.8728" lon="5.07689">
        <ele>302.6</ele>
        <time>2024-09-19T16:20:26Z</time>
      </trkpt>
      <trkpt lat="45.87283" lon="5.07692">
        <ele>303</ele>
        <time>2024-09-19T16:20:27Z</time>
      </trkpt>
      <trkpt lat="45.87286" lon="5.07696">
        <ele>302.6</ele>
        <time>2024-09-19T16:20:28Z</time>
      </trkpt>
      <trkpt lat="45.87289" lon="5.077">
        <ele>302.6</ele>
        <time>2024-09-19T16:20:29Z</time>
      </trkpt>
      <trkpt lat="45.87292" lon="5.07704">
        <ele>302.6</ele>
        <time>2024-09-19T16:20:30Z</time>
      </trkpt>
      <trkpt lat="45.87296" lon="5.07709">
        <ele>302.4</ele>
        <time>2024-09-19T16:20:31Z</time>
      </trkpt>
      <trkpt lat="45.87299" lon="5.07714">
        <ele>302.4</ele>
        <time>2024-09-19T16:20:32Z</time>
      </trkpt>
      <trkpt lat="45.87303" lon="5.07719">
        <ele>302</ele>
        <time>2024-09-19T16:20:33Z</time>
      </trkpt>
      <trkpt lat="45.87307" lon="5.07725">
        <ele>302</ele>
        <time>2024-09-19T16:20:34Z</time>
      </trkpt>
      <trkpt lat="45.87311" lon="5.0773">
        <ele>301.6</ele>
        <time>2024-09-19T16:20:35Z</time>
      </trkpt>
      <trkpt lat="45.87314" lon="5.07735">
        <ele>301.6</ele>
        <time>2024-09-19T16:20:36Z</time>
      </trkpt>
      <trkpt lat="45.87318" lon="5.0774">
        <ele>301.6</ele>
        <time>2024-09-19T16:20:37Z</time>
      </trkpt>
      <trkpt lat="45.87322" lon="5.07744">
        <ele>301.4</ele>
        <time>2024-09-19T16:20:38Z</time>
      </trkpt>
      <trkpt lat="45.87326" lon="5.07749">
        <ele>301.4</ele>
        <time>2024-09-19T16:20:39Z</time>
      </trkpt>
      <trkpt lat="45.87331" lon="5.07753">
        <ele>301.4</ele>
        <time>2024-09-19T16:20:40Z</time>
      </trkpt>
      <trkpt lat="45.87335" lon="5.07756">
        <ele>301</ele>
        <time>2024-09-19T16:20:41Z</time>
      </trkpt>
      <trkpt lat="45.8734" lon="5.0776">
        <ele>300.8</ele>
        <time>2024-09-19T16:20:42Z</time>
      </trkpt>
      <trkpt lat="45.87345" lon="5.07763">
        <ele>300.6</ele>
        <time>2024-09-19T16:20:43Z</time>
      </trkpt>
      <trkpt lat="45.87351" lon="5.07766">
        <ele>300.8</ele>
        <time>2024-09-19T16:20:44Z</time>
      </trkpt>
      <trkpt lat="45.87355" lon="5.07768">
        <ele>300.8</ele>
        <time>2024-09-19T16:20:45Z</time>
      </trkpt>
      <trkpt lat="45.87361" lon="5.07772">
        <ele>300.8</ele>
        <time>2024-09-19T16:20:46Z</time>
      </trkpt>
      <trkpt lat="45.87366" lon="5.07774">
        <ele>301.2</ele>
        <time>2024-09-19T16:20:47Z</time>
      </trkpt>
      <trkpt lat="45.87372" lon="5.07777">
        <ele>300.6</ele>
        <time>2024-09-19T16:20:48Z</time>
      </trkpt>
      <trkpt lat="45.87376" lon="5.07779">
        <ele>300.6</ele>
        <time>2024-09-19T16:20:49Z</time>
      </trkpt>
      <trkpt lat="45.87382" lon="5.07782">
        <ele>300.6</ele>
        <time>2024-09-19T16:20:50Z</time>
      </trkpt>
      <trkpt lat="45.87387" lon="5.07784">
        <ele>300.6</ele>
        <time>2024-09-19T16:20:51Z</time>
      </trkpt>
      <trkpt lat="45.87392" lon="5.07785">
        <ele>300.6</ele>
        <time>2024-09-19T16:20:52Z</time>
      </trkpt>
      <trkpt lat="45.87397" lon="5.07789">
        <ele>300.8</ele>
        <time>2024-09-19T16:20:53Z</time>
      </trkpt>
      <trkpt lat="45.87402" lon="5.07792">
        <ele>300.8</ele>
        <time>2024-09-19T16:20:54Z</time>
      </trkpt>
      <trkpt lat="45.87407" lon="5.07794">
        <ele>300.8</ele>
        <time>2024-09-19T16:20:55Z</time>
      </trkpt>
      <trkpt lat="45.87412" lon="5.07798">
        <ele>300.4</ele>
        <time>2024-09-19T16:20:56Z</time>
      </trkpt>
      <trkpt lat="45.87417" lon="5.078">
        <ele>300.8</ele>
        <time>2024-09-19T16:20:57Z</time>
      </trkpt>
      <trkpt lat="45.87422" lon="5.07802">
        <ele>300.8</ele>
        <time>2024-09-19T16:20:58Z</time>
        <extensions>
          <visugpx:TrkExtension xmlns:visugpx="https://www.visugpx.com/editgpx/">
            <visugpx:node>17</visugpx:node>
            </visugpx:TrkExtension>
        </extensions>
      </trkpt>
      <trkpt lat="45.87438" lon="5.07812">
        <ele>284.2</ele>
        <time>2024-09-19T07:51:15Z</time>
        <extensions>
          <visugpx:TrkExtension xmlns:visugpx="https://www.visugpx.com/editgpx/">
            <visugpx:node>18</visugpx:node>
            </visugpx:TrkExtension>
        </extensions>
      </trkpt>
      <trkpt lat="45.87441" lon="5.07813">
        <ele>283.8</ele>
        <time>2024-09-19T07:51:16Z</time>
      </trkpt>
      <trkpt lat="45.87445" lon="5.07815">
        <ele>283.4</ele>
        <time>2024-09-19T07:51:17Z</time>
      </trkpt>
      <trkpt lat="45.87449" lon="5.07817">
        <ele>283</ele>
        <time>2024-09-19T07:51:18Z</time>
      </trkpt>
      <trkpt lat="45.87454" lon="5.07819">
        <ele>283</ele>
        <time>2024-09-19T07:51:19Z</time>
      </trkpt>
      <trkpt lat="45.87458" lon="5.07821">
        <ele>282.8</ele>
        <time>2024-09-19T07:51:20Z</time>
      </trkpt>
      <trkpt lat="45.87463" lon="5.07824">
        <ele>282.8</ele>
        <time>2024-09-19T07:51:21Z</time>
      </trkpt>
      <trkpt lat="45.87467" lon="5.07826">
        <ele>282.8</ele>
        <time>2024-09-19T07:51:22Z</time>
      </trkpt>
      <trkpt lat="45.87472" lon="5.07828">
        <ele>282.8</ele>
        <time>2024-09-19T07:51:23Z</time>
      </trkpt>
      <trkpt lat="45.87476" lon="5.07831">
        <ele>282.6</ele>
        <time>2024-09-19T07:51:24Z</time>
      </trkpt>
      <trkpt lat="45.87481" lon="5.07833">
        <ele>282.2</ele>
        <time>2024-09-19T07:51:25Z</time>
      </trkpt>
      <trkpt lat="45.87486" lon="5.07835">
        <ele>282.2</ele>
        <time>2024-09-19T07:51:26Z</time>
      </trkpt>
      <trkpt lat="45.8749" lon="5.07837">
        <ele>282.2</ele>
        <time>2024-09-19T07:51:27Z</time>
      </trkpt>
      <trkpt lat="45.87493" lon="5.07839">
        <ele>282.2</ele>
        <time>2024-09-19T07:51:28Z</time>
      </trkpt>
      <trkpt lat="45.87495" lon="5.07843">
        <ele>282.2</ele>
        <time>2024-09-19T07:51:29Z</time>
      </trkpt>
      <trkpt lat="45.87496" lon="5.07848">
        <ele>282.8</ele>
        <time>2024-09-19T07:51:30Z</time>
      </trkpt>
      <trkpt lat="45.87496" lon="5.07853">
        <ele>282.8</ele>
        <time>2024-09-19T07:51:31Z</time>
      </trkpt>
      <trkpt lat="45.87496" lon="5.07856">
        <ele>282.8</ele>
        <time>2024-09-19T07:51:32Z</time>
      </trkpt>
      <trkpt lat="45.87492" lon="5.07861">
        <ele>283</ele>
        <time>2024-09-19T07:51:33Z</time>
      </trkpt>
      <trkpt lat="45.87491" lon="5.07866">
        <ele>283</ele>
        <time>2024-09-19T07:51:34Z</time>
      </trkpt>
      <trkpt lat="45.87489" lon="5.07871">
        <ele>283.8</ele>
        <time>2024-09-19T07:51:35Z</time>
      </trkpt>
      <trkpt lat="45.87488" lon="5.07876">
        <ele>283.4</ele>
        <time>2024-09-19T07:51:36Z</time>
      </trkpt>
      <trkpt lat="45.87486" lon="5.07881">
        <ele>283.6</ele>
        <time>2024-09-19T07:51:37Z</time>
      </trkpt>
      <trkpt lat="45.87485" lon="5.07887">
        <ele>283.6</ele>
        <time>2024-09-19T07:51:38Z</time>
      </trkpt>
      <trkpt lat="45.87483" lon="5.07892">
        <ele>283.6</ele>
        <time>2024-09-19T07:51:39Z</time>
      </trkpt>
      <trkpt lat="45.87481" lon="5.07897">
        <ele>283.6</ele>
        <time>2024-09-19T07:51:40Z</time>
      </trkpt>
      <trkpt lat="45.8748" lon="5.07903">
        <ele>283.6</ele>
        <time>2024-09-19T07:51:41Z</time>
      </trkpt>
      <trkpt lat="45.87478" lon="5.07909">
        <ele>284.2</ele>
        <time>2024-09-19T07:51:42Z</time>
      </trkpt>
      <trkpt lat="45.87476" lon="5.07916">
        <ele>283.8</ele>
        <time>2024-09-19T07:51:43Z</time>
      </trkpt>
      <trkpt lat="45.87474" lon="5.07922">
        <ele>283.8</ele>
        <time>2024-09-19T07:51:44Z</time>
      </trkpt>
      <trkpt lat="45.87473" lon="5.07928">
        <ele>284</ele>
        <time>2024-09-19T07:51:45Z</time>
      </trkpt>
      <trkpt lat="45.87471" lon="5.07934">
        <ele>284.6</ele>
        <time>2024-09-19T07:51:46Z</time>
      </trkpt>
      <trkpt lat="45.87468" lon="5.0794">
        <ele>284.6</ele>
        <time>2024-09-19T07:51:47Z</time>
      </trkpt>
      <trkpt lat="45.87467" lon="5.07947">
        <ele>284.6</ele>
        <time>2024-09-19T07:51:48Z</time>
      </trkpt>
      <trkpt lat="45.87465" lon="5.07954">
        <ele>284.6</ele>
        <time>2024-09-19T07:51:49Z</time>
      </trkpt>
      <trkpt lat="45.87463" lon="5.0796">
        <ele>284.2</ele>
        <time>2024-09-19T07:51:50Z</time>
      </trkpt>
      <trkpt lat="45.87461" lon="5.07967">
        <ele>284.2</ele>
        <time>2024-09-19T07:51:51Z</time>
      </trkpt>
      <trkpt lat="45.87459" lon="5.07974">
        <ele>284.2</ele>
        <time>2024-09-19T07:51:52Z</time>
      </trkpt>
      <trkpt lat="45.87457" lon="5.07982">
        <ele>283.6</ele>
        <time>2024-09-19T07:51:53Z</time>
      </trkpt>
      <trkpt lat="45.87455" lon="5.0799">
        <ele>283.6</ele>
        <time>2024-09-19T07:51:54Z</time>
      </trkpt>
      <trkpt lat="45.87453" lon="5.07997">
        <ele>283.2</ele>
        <time>2024-09-19T07:51:55Z</time>
      </trkpt>
      <trkpt lat="45.8745" lon="5.08004">
        <ele>283.2</ele>
        <time>2024-09-19T07:51:56Z</time>
      </trkpt>
      <trkpt lat="45.87448" lon="5.08012">
        <ele>282.8</ele>
        <time>2024-09-19T07:51:57Z</time>
      </trkpt>
      <trkpt lat="45.87446" lon="5.0802">
        <ele>283.2</ele>
        <time>2024-09-19T07:51:58Z</time>
      </trkpt>
      <trkpt lat="45.87443" lon="5.08027">
        <ele>283.6</ele>
        <time>2024-09-19T07:51:59Z</time>
      </trkpt>
      <trkpt lat="45.87441" lon="5.08034">
        <ele>283.2</ele>
        <time>2024-09-19T07:52:00Z</time>
      </trkpt>
      <trkpt lat="45.87439" lon="5.08041">
        <ele>282.8</ele>
        <time>2024-09-19T07:52:01Z</time>
      </trkpt>
      <trkpt lat="45.87437" lon="5.08048">
        <ele>283</ele>
        <time>2024-09-19T07:52:02Z</time>
      </trkpt>
      <trkpt lat="45.87435" lon="5.08054">
        <ele>283.4</ele>
        <time>2024-09-19T07:52:03Z</time>
      </trkpt>
      <trkpt lat="45.87433" lon="5.08061">
        <ele>283.4</ele>
        <time>2024-09-19T07:52:04Z</time>
      </trkpt>
      <trkpt lat="45.87432" lon="5.08068">
        <ele>283</ele>
        <time>2024-09-19T07:52:05Z</time>
      </trkpt>
      <trkpt lat="45.87429" lon="5.08075">
        <ele>283.4</ele>
        <time>2024-09-19T07:52:06Z</time>
      </trkpt>
      <trkpt lat="45.87427" lon="5.08082">
        <ele>283.4</ele>
        <time>2024-09-19T07:52:07Z</time>
      </trkpt>
      <trkpt lat="45.87425" lon="5.08089">
        <ele>282.8</ele>
        <time>2024-09-19T07:52:08Z</time>
      </trkpt>
      <trkpt lat="45.87423" lon="5.08096">
        <ele>283</ele>
        <time>2024-09-19T07:52:09Z</time>
      </trkpt>
      <trkpt lat="45.87421" lon="5.08103">
        <ele>282.8</ele>
        <time>2024-09-19T07:52:10Z</time>
      </trkpt>
      <trkpt lat="45.87419" lon="5.0811">
        <ele>283.2</ele>
        <time>2024-09-19T07:52:11Z</time>
      </trkpt>
      <trkpt lat="45.87418" lon="5.08117">
        <ele>283.2</ele>
        <time>2024-09-19T07:52:12Z</time>
      </trkpt>
      <trkpt lat="45.87416" lon="5.08125">
        <ele>282.8</ele>
        <time>2024-09-19T07:52:13Z</time>
      </trkpt>
      <trkpt lat="45.87414" lon="5.08132">
        <ele>283.2</ele>
        <time>2024-09-19T07:52:14Z</time>
      </trkpt>
      <trkpt lat="45.87412" lon="5.08138">
        <ele>283.8</ele>
        <time>2024-09-19T07:52:15Z</time>
      </trkpt>
      <trkpt lat="45.8741" lon="5.08144">
        <ele>283.4</ele>
        <time>2024-09-19T07:52:16Z</time>
      </trkpt>
      <trkpt lat="45.87408" lon="5.08151">
        <ele>283.4</ele>
        <time>2024-09-19T07:52:17Z</time>
      </trkpt>
      <trkpt lat="45.87406" lon="5.08157">
        <ele>282.4</ele>
        <time>2024-09-19T07:52:18Z</time>
      </trkpt>
      <trkpt lat="45.87404" lon="5.08163">
        <ele>282.2</ele>
        <time>2024-09-19T07:52:19Z</time>
      </trkpt>
      <trkpt lat="45.87402" lon="5.0817">
        <ele>282.2</ele>
        <time>2024-09-19T07:52:20Z</time>
      </trkpt>
      <trkpt lat="45.874" lon="5.08177">
        <ele>282.4</ele>
        <time>2024-09-19T07:52:21Z</time>
      </trkpt>
      <trkpt lat="45.87398" lon="5.08184">
        <ele>282</ele>
        <time>2024-09-19T07:52:22Z</time>
      </trkpt>
      <trkpt lat="45.87396" lon="5.08191">
        <ele>282</ele>
        <time>2024-09-19T07:52:23Z</time>
      </trkpt>
      <trkpt lat="45.87394" lon="5.08197">
        <ele>282.8</ele>
        <time>2024-09-19T07:52:24Z</time>
      </trkpt>
      <trkpt lat="45.87392" lon="5.08203">
        <ele>282.8</ele>
        <time>2024-09-19T07:52:25Z</time>
      </trkpt>
      <trkpt lat="45.87391" lon="5.0821">
        <ele>282.8</ele>
        <time>2024-09-19T07:52:26Z</time>
      </trkpt>
      <trkpt lat="45.87389" lon="5.08216">
        <ele>282.4</ele>
        <time>2024-09-19T07:52:27Z</time>
      </trkpt>
      <trkpt lat="45.87388" lon="5.08222">
        <ele>282.8</ele>
        <time>2024-09-19T07:52:28Z</time>
      </trkpt>
      <trkpt lat="45.87386" lon="5.08227">
        <ele>283</ele>
        <time>2024-09-19T07:52:29Z</time>
      </trkpt>
      <trkpt lat="45.87384" lon="5.08234">
        <ele>283</ele>
        <time>2024-09-19T07:52:30Z</time>
      </trkpt>
      <trkpt lat="45.87382" lon="5.0824">
        <ele>283</ele>
        <time>2024-09-19T07:52:31Z</time>
      </trkpt>
      <trkpt lat="45.8738" lon="5.08247">
        <ele>282.2</ele>
        <time>2024-09-19T07:52:32Z</time>
      </trkpt>
      <trkpt lat="45.87378" lon="5.08254">
        <ele>282.2</ele>
        <time>2024-09-19T07:52:33Z</time>
      </trkpt>
      <trkpt lat="45.87376" lon="5.0826">
        <ele>282.2</ele>
        <time>2024-09-19T07:52:34Z</time>
      </trkpt>
      <trkpt lat="45.87375" lon="5.08266">
        <ele>282.2</ele>
        <time>2024-09-19T07:52:35Z</time>
      </trkpt>
      <trkpt lat="45.87373" lon="5.08273">
        <ele>282.2</ele>
        <time>2024-09-19T07:52:36Z</time>
      </trkpt>
      <trkpt lat="45.87371" lon="5.08279">
        <ele>282.2</ele>
        <time>2024-09-19T07:52:37Z</time>
      </trkpt>
      <trkpt lat="45.8737" lon="5.08285">
        <ele>283</ele>
        <time>2024-09-19T07:52:38Z</time>
      </trkpt>
      <trkpt lat="45.87368" lon="5.08291">
        <ele>282.4</ele>
        <time>2024-09-19T07:52:39Z</time>
      </trkpt>
      <trkpt lat="45.87366" lon="5.08297">
        <ele>282.2</ele>
        <time>2024-09-19T07:52:40Z</time>
      </trkpt>
      <trkpt lat="45.87364" lon="5.08304">
        <ele>281.8</ele>
        <time>2024-09-19T07:52:41Z</time>
      </trkpt>
      <trkpt lat="45.87363" lon="5.0831">
        <ele>281.8</ele>
        <time>2024-09-19T07:52:42Z</time>
      </trkpt>
      <trkpt lat="45.87361" lon="5.08316">
        <ele>282.2</ele>
        <time>2024-09-19T07:52:43Z</time>
      </trkpt>
      <trkpt lat="45.87359" lon="5.08323">
        <ele>282</ele>
        <time>2024-09-19T07:52:44Z</time>
      </trkpt>
      <trkpt lat="45.87358" lon="5.08329">
        <ele>282.6</ele>
        <time>2024-09-19T07:52:45Z</time>
      </trkpt>
      <trkpt lat="45.87356" lon="5.08335">
        <ele>281.6</ele>
        <time>2024-09-19T07:52:46Z</time>
      </trkpt>
      <trkpt lat="45.87354" lon="5.08341">
        <ele>282.2</ele>
        <time>2024-09-19T07:52:47Z</time>
      </trkpt>
      <trkpt lat="45.87352" lon="5.08347">
        <ele>282.2</ele>
        <time>2024-09-19T07:52:48Z</time>
      </trkpt>
      <trkpt lat="45.8735" lon="5.08354">
        <ele>282.6</ele>
        <time>2024-09-19T07:52:49Z</time>
      </trkpt>
      <trkpt lat="45.87348" lon="5.08359">
        <ele>282.6</ele>
        <time>2024-09-19T07:52:50Z</time>
      </trkpt>
      <trkpt lat="45.87346" lon="5.08366">
        <ele>282</ele>
        <time>2024-09-19T07:52:51Z</time>
      </trkpt>
      <trkpt lat="45.87345" lon="5.08371">
        <ele>282</ele>
        <time>2024-09-19T07:52:52Z</time>
      </trkpt>
      <trkpt lat="45.87343" lon="5.08378">
        <ele>282</ele>
        <time>2024-09-19T07:52:53Z</time>
      </trkpt>
      <trkpt lat="45.87341" lon="5.08384">
        <ele>282</ele>
        <time>2024-09-19T07:52:54Z</time>
      </trkpt>
      <trkpt lat="45.87339" lon="5.0839">
        <ele>282</ele>
        <time>2024-09-19T07:52:55Z</time>
      </trkpt>
      <trkpt lat="45.87338" lon="5.08396">
        <ele>281.8</ele>
        <time>2024-09-19T07:52:56Z</time>
      </trkpt>
      <trkpt lat="45.87336" lon="5.08403">
        <ele>281.8</ele>
        <time>2024-09-19T07:52:57Z</time>
      </trkpt>
      <trkpt lat="45.87335" lon="5.08409">
        <ele>282.2</ele>
        <time>2024-09-19T07:52:58Z</time>
      </trkpt>
      <trkpt lat="45.87332" lon="5.08416">
        <ele>282.2</ele>
        <time>2024-09-19T07:52:59Z</time>
      </trkpt>
      <trkpt lat="45.87331" lon="5.08422">
        <ele>282.2</ele>
        <time>2024-09-19T07:53:00Z</time>
      </trkpt>
      <trkpt lat="45.87329" lon="5.08428">
        <ele>282</ele>
        <time>2024-09-19T07:53:01Z</time>
      </trkpt>
      <trkpt lat="45.87327" lon="5.08434">
        <ele>281.6</ele>
        <time>2024-09-19T07:53:02Z</time>
      </trkpt>
      <trkpt lat="45.87325" lon="5.0844">
        <ele>281.8</ele>
        <time>2024-09-19T07:53:03Z</time>
      </trkpt>
      <trkpt lat="45.87323" lon="5.08447">
        <ele>282.2</ele>
        <time>2024-09-19T07:53:04Z</time>
      </trkpt>
      <trkpt lat="45.87321" lon="5.08452">
        <ele>282.6</ele>
        <time>2024-09-19T07:53:05Z</time>
      </trkpt>
      <trkpt lat="45.87319" lon="5.08459">
        <ele>282.6</ele>
        <time>2024-09-19T07:53:06Z</time>
      </trkpt>
      <trkpt lat="45.87318" lon="5.08464">
        <ele>283</ele>
        <time>2024-09-19T07:53:07Z</time>
      </trkpt>
      <trkpt lat="45.87316" lon="5.0847">
        <ele>283</ele>
        <time>2024-09-19T07:53:08Z</time>
      </trkpt>
      <trkpt lat="45.87315" lon="5.08476">
        <ele>283</ele>
        <time>2024-09-19T07:53:09Z</time>
      </trkpt>
      <trkpt lat="45.87313" lon="5.08482">
        <ele>283.2</ele>
        <time>2024-09-19T07:53:10Z</time>
      </trkpt>
      <trkpt lat="45.87312" lon="5.08487">
        <ele>283.2</ele>
        <time>2024-09-19T07:53:11Z</time>
      </trkpt>
      <trkpt lat="45.8731" lon="5.08493">
        <ele>283.2</ele>
        <time>2024-09-19T07:53:12Z</time>
      </trkpt>
      <trkpt lat="45.87309" lon="5.08498">
        <ele>283.2</ele>
        <time>2024-09-19T07:53:13Z</time>
      </trkpt>
      <trkpt lat="45.87307" lon="5.08504">
        <ele>283.6</ele>
        <time>2024-09-19T07:53:14Z</time>
      </trkpt>
      <trkpt lat="45.87306" lon="5.08509">
        <ele>283.6</ele>
        <time>2024-09-19T07:53:15Z</time>
      </trkpt>
      <trkpt lat="45.87304" lon="5.08515">
        <ele>283.8</ele>
        <time>2024-09-19T07:53:16Z</time>
      </trkpt>
      <trkpt lat="45.87303" lon="5.08521">
        <ele>283.2</ele>
        <time>2024-09-19T07:53:17Z</time>
      </trkpt>
      <trkpt lat="45.87302" lon="5.08527">
        <ele>283</ele>
        <time>2024-09-19T07:53:18Z</time>
      </trkpt>
      <trkpt lat="45.87301" lon="5.08533">
        <ele>283.4</ele>
        <time>2024-09-19T07:53:19Z</time>
      </trkpt>
      <trkpt lat="45.873" lon="5.08539">
        <ele>283.4</ele>
        <time>2024-09-19T07:53:20Z</time>
      </trkpt>
      <trkpt lat="45.87299" lon="5.08545">
        <ele>283.8</ele>
        <time>2024-09-19T07:53:21Z</time>
      </trkpt>
      <trkpt lat="45.87299" lon="5.08551">
        <ele>283.4</ele>
        <time>2024-09-19T07:53:22Z</time>
      </trkpt>
      <trkpt lat="45.873" lon="5.08557">
        <ele>283</ele>
        <time>2024-09-19T07:53:23Z</time>
      </trkpt>
      <trkpt lat="45.87301" lon="5.08562">
        <ele>282.8</ele>
        <time>2024-09-19T07:53:24Z</time>
      </trkpt>
      <trkpt lat="45.87302" lon="5.08569">
        <ele>282.8</ele>
        <time>2024-09-19T07:53:25Z</time>
      </trkpt>
      <trkpt lat="45.87302" lon="5.08572">
        <ele>282.4</ele>
        <time>2024-09-19T07:53:26Z</time>
      </trkpt>
      <trkpt lat="45.87303" lon="5.08576">
        <ele>281.2</ele>
        <time>2024-09-19T07:53:27Z</time>
      </trkpt>
      <trkpt lat="45.87304" lon="5.08581">
        <ele>281.2</ele>
        <time>2024-09-19T07:53:28Z</time>
      </trkpt>
      <trkpt lat="45.87305" lon="5.08587">
        <ele>281.2</ele>
        <time>2024-09-19T07:53:29Z</time>
      </trkpt>
      <trkpt lat="45.87305" lon="5.08591">
        <ele>281.2</ele>
        <time>2024-09-19T07:53:30Z</time>
      </trkpt>
      <trkpt lat="45.87305" lon="5.08598">
        <ele>281.2</ele>
        <time>2024-09-19T07:53:31Z</time>
      </trkpt>
      <trkpt lat="45.87305" lon="5.08603">
        <ele>281.2</ele>
        <time>2024-09-19T07:53:32Z</time>
      </trkpt>
      <trkpt lat="45.87304" lon="5.08609">
        <ele>280.8</ele>
        <time>2024-09-19T07:53:33Z</time>
      </trkpt>
      <trkpt lat="45.87304" lon="5.08616">
        <ele>280.8</ele>
        <time>2024-09-19T07:53:34Z</time>
      </trkpt>
      <trkpt lat="45.87303" lon="5.08623">
        <ele>280.8</ele>
        <time>2024-09-19T07:53:35Z</time>
      </trkpt>
      <trkpt lat="45.87302" lon="5.08629">
        <ele>281.4</ele>
        <time>2024-09-19T07:53:36Z</time>
      </trkpt>
      <trkpt lat="45.87301" lon="5.08637">
        <ele>281.2</ele>
        <time>2024-09-19T07:53:37Z</time>
      </trkpt>
      <trkpt lat="45.87301" lon="5.08644">
        <ele>280</ele>
        <time>2024-09-19T07:53:38Z</time>
      </trkpt>
      <trkpt lat="45.87299" lon="5.08651">
        <ele>279</ele>
        <time>2024-09-19T07:53:39Z</time>
      </trkpt>
      <trkpt lat="45.87298" lon="5.08658">
        <ele>279</ele>
        <time>2024-09-19T07:53:40Z</time>
      </trkpt>
      <trkpt lat="45.87297" lon="5.08665">
        <ele>279</ele>
        <time>2024-09-19T07:53:41Z</time>
      </trkpt>
      <trkpt lat="45.87296" lon="5.08672">
        <ele>279.6</ele>
        <time>2024-09-19T07:53:42Z</time>
      </trkpt>
      <trkpt lat="45.87294" lon="5.08677">
        <ele>279</ele>
        <time>2024-09-19T07:53:43Z</time>
      </trkpt>
      <trkpt lat="45.87294" lon="5.08684">
        <ele>279</ele>
        <time>2024-09-19T07:53:44Z</time>
      </trkpt>
      <trkpt lat="45.87293" lon="5.08691">
        <ele>278.8</ele>
        <time>2024-09-19T07:53:45Z</time>
      </trkpt>
      <trkpt lat="45.87292" lon="5.08698">
        <ele>278.8</ele>
        <time>2024-09-19T07:53:46Z</time>
      </trkpt>
      <trkpt lat="45.87291" lon="5.08704">
        <ele>277.8</ele>
        <time>2024-09-19T07:53:47Z</time>
      </trkpt>
      <trkpt lat="45.87289" lon="5.08709">
        <ele>277.8</ele>
        <time>2024-09-19T07:53:48Z</time>
      </trkpt>
      <trkpt lat="45.87289" lon="5.08714">
        <ele>278</ele>
        <time>2024-09-19T07:53:49Z</time>
      </trkpt>
      <trkpt lat="45.87287" lon="5.08718">
        <ele>278</ele>
        <time>2024-09-19T07:53:50Z</time>
      </trkpt>
      <trkpt lat="45.87287" lon="5.08718">
        <ele>278.8</ele>
        <time>2024-09-19T07:53:51Z</time>
      </trkpt>
      <trkpt lat="45.87287" lon="5.08722">
        <ele>278.8</ele>
        <time>2024-09-19T07:53:52Z</time>
      </trkpt>
      <trkpt lat="45.87286" lon="5.08725">
        <ele>278.4</ele>
        <time>2024-09-19T07:53:53Z</time>
      </trkpt>
      <trkpt lat="45.87285" lon="5.08729">
        <ele>278.4</ele>
        <time>2024-09-19T07:53:54Z</time>
      </trkpt>
      <trkpt lat="45.87285" lon="5.08733">
        <ele>278</ele>
        <time>2024-09-19T07:53:55Z</time>
      </trkpt>
      <trkpt lat="45.87286" lon="5.08736">
        <ele>278</ele>
        <time>2024-09-19T07:53:56Z</time>
      </trkpt>
      <trkpt lat="45.87286" lon="5.08741">
        <ele>277.6</ele>
        <time>2024-09-19T07:53:57Z</time>
      </trkpt>
      <trkpt lat="45.87287" lon="5.08749">
        <ele>277.6</ele>
        <time>2024-09-19T07:53:58Z</time>
      </trkpt>
      <trkpt lat="45.87287" lon="5.08749">
        <ele>277.2</ele>
        <time>2024-09-19T07:53:59Z</time>
      </trkpt>
      <trkpt lat="45.87287" lon="5.08749">
        <ele>277</ele>
        <time>2024-09-19T07:54:00Z</time>
      </trkpt>
      <trkpt lat="45.87287" lon="5.08749">
        <ele>277</ele>
        <time>2024-09-19T07:54:01Z</time>
      </trkpt>
      <trkpt lat="45.87289" lon="5.08751">
        <ele>275.6</ele>
        <time>2024-09-19T07:54:35Z</time>
      </trkpt>
      <trkpt lat="45.87291" lon="5.08754">
        <ele>275.2</ele>
        <time>2024-09-19T07:54:36Z</time>
      </trkpt>
      <trkpt lat="45.87294" lon="5.08757">
        <ele>275.2</ele>
        <time>2024-09-19T07:54:37Z</time>
      </trkpt>
      <trkpt lat="45.87296" lon="5.08761">
        <ele>274.8</ele>
        <time>2024-09-19T07:54:38Z</time>
      </trkpt>
      <trkpt lat="45.87298" lon="5.08764">
        <ele>273.6</ele>
        <time>2024-09-19T07:54:39Z</time>
      </trkpt>
      <trkpt lat="45.87303" lon="5.08769">
        <ele>272.8</ele>
        <time>2024-09-19T07:54:40Z</time>
      </trkpt>
      <trkpt lat="45.87304" lon="5.08774">
        <ele>273</ele>
        <time>2024-09-19T07:54:41Z</time>
      </trkpt>
      <trkpt lat="45.87309" lon="5.0878">
        <ele>273.4</ele>
        <time>2024-09-19T07:54:42Z</time>
      </trkpt>
      <trkpt lat="45.87312" lon="5.08785">
        <ele>273.4</ele>
        <time>2024-09-19T07:54:43Z</time>
      </trkpt>
      <trkpt lat="45.87314" lon="5.08788">
        <ele>272.8</ele>
        <time>2024-09-19T07:54:44Z</time>
      </trkpt>
      <trkpt lat="45.87317" lon="5.08793">
        <ele>272</ele>
        <time>2024-09-19T07:54:45Z</time>
      </trkpt>
      <trkpt lat="45.8732" lon="5.08797">
        <ele>271.8</ele>
        <time>2024-09-19T07:54:46Z</time>
      </trkpt>
      <trkpt lat="45.87323" lon="5.08802">
        <ele>271.8</ele>
        <time>2024-09-19T07:54:47Z</time>
      </trkpt>
      <trkpt lat="45.87326" lon="5.08804">
        <ele>271.8</ele>
        <time>2024-09-19T07:54:48Z</time>
      </trkpt>
      <trkpt lat="45.87329" lon="5.0881">
        <ele>271.2</ele>
        <time>2024-09-19T07:54:49Z</time>
      </trkpt>
      <trkpt lat="45.87331" lon="5.08815">
        <ele>271.6</ele>
        <time>2024-09-19T07:54:50Z</time>
      </trkpt>
      <trkpt lat="45.87334" lon="5.08818">
        <ele>271.2</ele>
        <time>2024-09-19T07:54:51Z</time>
      </trkpt>
      <trkpt lat="45.87337" lon="5.08821">
        <ele>271.6</ele>
        <time>2024-09-19T07:54:52Z</time>
      </trkpt>
      <trkpt lat="45.8734" lon="5.08824">
        <ele>271</ele>
        <time>2024-09-19T07:54:53Z</time>
      </trkpt>
      <trkpt lat="45.87343" lon="5.08828">
        <ele>270.2</ele>
        <time>2024-09-19T07:54:54Z</time>
      </trkpt>
      <trkpt lat="45.87345" lon="5.08831">
        <ele>270</ele>
        <time>2024-09-19T07:54:55Z</time>
      </trkpt>
      <trkpt lat="45.87347" lon="5.08833">
        <ele>269.2</ele>
        <time>2024-09-19T07:54:56Z</time>
      </trkpt>
      <trkpt lat="45.87351" lon="5.08835">
        <ele>269.2</ele>
        <time>2024-09-19T07:54:57Z</time>
      </trkpt>
      <trkpt lat="45.87354" lon="5.08837">
        <ele>268.6</ele>
        <time>2024-09-19T07:54:58Z</time>
      </trkpt>
      <trkpt lat="45.87357" lon="5.0884">
        <ele>268</ele>
        <time>2024-09-19T07:54:59Z</time>
      </trkpt>
      <trkpt lat="45.87359" lon="5.08844">
        <ele>268.4</ele>
        <time>2024-09-19T07:55:00Z</time>
      </trkpt>
      <trkpt lat="45.87362" lon="5.08847">
        <ele>267</ele>
        <time>2024-09-19T07:55:01Z</time>
      </trkpt>
      <trkpt lat="45.87365" lon="5.08851">
        <ele>267</ele>
        <time>2024-09-19T07:55:02Z</time>
      </trkpt>
      <trkpt lat="45.87368" lon="5.08853">
        <ele>266.4</ele>
        <time>2024-09-19T07:55:03Z</time>
      </trkpt>
      <trkpt lat="45.87372" lon="5.08857">
        <ele>265.8</ele>
        <time>2024-09-19T07:55:04Z</time>
      </trkpt>
      <trkpt lat="45.87374" lon="5.08859">
        <ele>266</ele>
        <time>2024-09-19T07:55:05Z</time>
      </trkpt>
      <trkpt lat="45.87377" lon="5.08862">
        <ele>265.4</ele>
        <time>2024-09-19T07:55:06Z</time>
      </trkpt>
      <trkpt lat="45.87379" lon="5.08866">
        <ele>265.4</ele>
        <time>2024-09-19T07:55:07Z</time>
      </trkpt>
      <trkpt lat="45.87382" lon="5.08869">
        <ele>265.4</ele>
        <time>2024-09-19T07:55:08Z</time>
      </trkpt>
      <trkpt lat="45.87385" lon="5.08871">
        <ele>265.2</ele>
        <time>2024-09-19T07:55:09Z</time>
      </trkpt>
      <trkpt lat="45.87389" lon="5.08873">
        <ele>264.8</ele>
        <time>2024-09-19T07:55:10Z</time>
      </trkpt>
      <trkpt lat="45.87395" lon="5.08875">
        <ele>263.6</ele>
        <time>2024-09-19T07:55:11Z</time>
      </trkpt>
      <trkpt lat="45.874" lon="5.08877">
        <ele>263.6</ele>
        <time>2024-09-19T07:55:12Z</time>
      </trkpt>
      <trkpt lat="45.87404" lon="5.08877">
        <ele>263.6</ele>
        <time>2024-09-19T07:55:13Z</time>
      </trkpt>
      <trkpt lat="45.87409" lon="5.08878">
        <ele>263</ele>
        <time>2024-09-19T07:55:14Z</time>
      </trkpt>
      <trkpt lat="45.87414" lon="5.08879">
        <ele>263</ele>
        <time>2024-09-19T07:55:15Z</time>
      </trkpt>
      <trkpt lat="45.87418" lon="5.08878">
        <ele>262.4</ele>
        <time>2024-09-19T07:55:16Z</time>
      </trkpt>
      <trkpt lat="45.87422" lon="5.08878">
        <ele>262.4</ele>
        <time>2024-09-19T07:55:17Z</time>
      </trkpt>
      <trkpt lat="45.87425" lon="5.08875">
        <ele>262</ele>
        <time>2024-09-19T07:55:18Z</time>
      </trkpt>
      <trkpt lat="45.87428" lon="5.08875">
        <ele>261.4</ele>
        <time>2024-09-19T07:55:19Z</time>
      </trkpt>
      <trkpt lat="45.87431" lon="5.08876">
        <ele>261.4</ele>
        <time>2024-09-19T07:55:20Z</time>
      </trkpt>
      <trkpt lat="45.87434" lon="5.08877">
        <ele>260.8</ele>
        <time>2024-09-19T07:55:21Z</time>
      </trkpt>
      <trkpt lat="45.87438" lon="5.08876">
        <ele>260.6</ele>
        <time>2024-09-19T07:55:22Z</time>
      </trkpt>
      <trkpt lat="45.87441" lon="5.08875">
        <ele>260.8</ele>
        <time>2024-09-19T07:55:23Z</time>
      </trkpt>
      <trkpt lat="45.87444" lon="5.08874">
        <ele>260</ele>
        <time>2024-09-19T07:55:24Z</time>
      </trkpt>
      <trkpt lat="45.8745" lon="5.08872">
        <ele>259.8</ele>
        <time>2024-09-19T07:55:25Z</time>
      </trkpt>
      <trkpt lat="45.87452" lon="5.08872">
        <ele>259.4</ele>
        <time>2024-09-19T07:55:26Z</time>
      </trkpt>
      <trkpt lat="45.87455" lon="5.0887">
        <ele>259.4</ele>
        <time>2024-09-19T07:55:27Z</time>
      </trkpt>
      <trkpt lat="45.87457" lon="5.08866">
        <ele>259</ele>
        <time>2024-09-19T07:55:28Z</time>
      </trkpt>
      <trkpt lat="45.87456" lon="5.08864">
        <ele>258.8</ele>
        <time>2024-09-19T07:55:29Z</time>
      </trkpt>
      <trkpt lat="45.87457" lon="5.08862">
        <ele>258.8</ele>
        <time>2024-09-19T07:55:30Z</time>
      </trkpt>
      <trkpt lat="45.87456" lon="5.08858">
        <ele>258.4</ele>
        <time>2024-09-19T07:55:31Z</time>
      </trkpt>
      <trkpt lat="45.87454" lon="5.08857">
        <ele>258.4</ele>
        <time>2024-09-19T07:55:32Z</time>
      </trkpt>
      <trkpt lat="45.87454" lon="5.08858">
        <ele>257.8</ele>
        <time>2024-09-19T07:55:33Z</time>
      </trkpt>
      <trkpt lat="45.87454" lon="5.08857">
        <ele>258</ele>
        <time>2024-09-19T07:55:34Z</time>
      </trkpt>
      <trkpt lat="45.87451" lon="5.0885">
        <ele>257.4</ele>
        <time>2024-09-19T07:55:43Z</time>
      </trkpt>
      <trkpt lat="45.8745" lon="5.08847">
        <ele>257.4</ele>
        <time>2024-09-19T07:55:44Z</time>
      </trkpt>
      <trkpt lat="45.8745" lon="5.08844">
        <ele>257.4</ele>
        <time>2024-09-19T07:55:45Z</time>
      </trkpt>
      <trkpt lat="45.87449" lon="5.08841">
        <ele>256.8</ele>
        <time>2024-09-19T07:55:46Z</time>
      </trkpt>
      <trkpt lat="45.87448" lon="5.08837">
        <ele>256.6</ele>
        <time>2024-09-19T07:55:47Z</time>
      </trkpt>
      <trkpt lat="45.87447" lon="5.08832">
        <ele>256.2</ele>
        <time>2024-09-19T07:55:48Z</time>
      </trkpt>
      <trkpt lat="45.87446" lon="5.08827">
        <ele>256</ele>
        <time>2024-09-19T07:55:49Z</time>
      </trkpt>
      <trkpt lat="45.87446" lon="5.08822">
        <ele>256</ele>
        <time>2024-09-19T07:55:50Z</time>
      </trkpt>
      <trkpt lat="45.87447" lon="5.08817">
        <ele>255.2</ele>
        <time>2024-09-19T07:55:51Z</time>
      </trkpt>
      <trkpt lat="45.87447" lon="5.08812">
        <ele>254.4</ele>
        <time>2024-09-19T07:55:52Z</time>
      </trkpt>
      <trkpt lat="45.87447" lon="5.08806">
        <ele>254</ele>
        <time>2024-09-19T07:55:53Z</time>
      </trkpt>
      <trkpt lat="45.87447" lon="5.08802">
        <ele>252.8</ele>
        <time>2024-09-19T07:55:54Z</time>
      </trkpt>
      <trkpt lat="45.87447" lon="5.08798">
        <ele>253.2</ele>
        <time>2024-09-19T07:55:55Z</time>
      </trkpt>
      <trkpt lat="45.87446" lon="5.08794">
        <ele>253</ele>
        <time>2024-09-19T07:55:56Z</time>
      </trkpt>
      <trkpt lat="45.87446" lon="5.08792">
        <ele>253</ele>
        <time>2024-09-19T07:55:57Z</time>
      </trkpt>
      <trkpt lat="45.87446" lon="5.0879">
        <ele>252.8</ele>
        <time>2024-09-19T07:55:58Z</time>
      </trkpt>
      <trkpt lat="45.87445" lon="5.08787">
        <ele>252.4</ele>
        <time>2024-09-19T07:55:59Z</time>
      </trkpt>
      <trkpt lat="45.87446" lon="5.08785">
        <ele>252.4</ele>
        <time>2024-09-19T07:56:00Z</time>
      </trkpt>
      <trkpt lat="45.87449" lon="5.08785">
        <ele>252</ele>
        <time>2024-09-19T07:56:01Z</time>
      </trkpt>
      <trkpt lat="45.87453" lon="5.08788">
        <ele>252</ele>
        <time>2024-09-19T07:56:02Z</time>
      </trkpt>
      <trkpt lat="45.87455" lon="5.0879">
        <ele>251.6</ele>
        <time>2024-09-19T07:56:03Z</time>
      </trkpt>
      <trkpt lat="45.87457" lon="5.08793">
        <ele>251.6</ele>
        <time>2024-09-19T07:56:04Z</time>
      </trkpt>
      <trkpt lat="45.87459" lon="5.08797">
        <ele>251</ele>
        <time>2024-09-19T07:56:05Z</time>
      </trkpt>
      <trkpt lat="45.87463" lon="5.088">
        <ele>251</ele>
        <time>2024-09-19T07:56:06Z</time>
      </trkpt>
      <trkpt lat="45.87467" lon="5.08803">
        <ele>251</ele>
        <time>2024-09-19T07:56:07Z</time>
      </trkpt>
      <trkpt lat="45.8747" lon="5.08806">
        <ele>250.8</ele>
        <time>2024-09-19T07:56:08Z</time>
      </trkpt>
      <trkpt lat="45.87472" lon="5.08808">
        <ele>250.2</ele>
        <time>2024-09-19T07:56:09Z</time>
      </trkpt>
      <trkpt lat="45.87475" lon="5.08812">
        <ele>249.4</ele>
        <time>2024-09-19T07:56:10Z</time>
      </trkpt>
      <trkpt lat="45.87478" lon="5.08815">
        <ele>249.4</ele>
        <time>2024-09-19T07:56:11Z</time>
      </trkpt>
      <trkpt lat="45.87484" lon="5.08814">
        <ele>247.8</ele>
        <time>2024-09-19T07:56:12Z</time>
      </trkpt>
      <trkpt lat="45.87486" lon="5.08815">
        <ele>247</ele>
        <time>2024-09-19T07:56:13Z</time>
      </trkpt>
      <trkpt lat="45.87488" lon="5.08819">
        <ele>247</ele>
        <time>2024-09-19T07:56:14Z</time>
      </trkpt>
      <trkpt lat="45.87492" lon="5.08822">
        <ele>246.4</ele>
        <time>2024-09-19T07:56:15Z</time>
      </trkpt>
      <trkpt lat="45.87494" lon="5.08826">
        <ele>246.6</ele>
        <time>2024-09-19T07:56:16Z</time>
      </trkpt>
      <trkpt lat="45.87496" lon="5.08829">
        <ele>246.8</ele>
        <time>2024-09-19T07:56:17Z</time>
      </trkpt>
      <trkpt lat="45.87497" lon="5.08835">
        <ele>246.4</ele>
        <time>2024-09-19T07:56:18Z</time>
      </trkpt>
      <trkpt lat="45.87502" lon="5.08839">
        <ele>246.4</ele>
        <time>2024-09-19T07:56:19Z</time>
      </trkpt>
      <trkpt lat="45.87504" lon="5.08842">
        <ele>246.4</ele>
        <time>2024-09-19T07:56:20Z</time>
      </trkpt>
      <trkpt lat="45.87505" lon="5.08848">
        <ele>246.2</ele>
        <time>2024-09-19T07:56:21Z</time>
      </trkpt>
      <trkpt lat="45.87508" lon="5.08853">
        <ele>246.2</ele>
        <time>2024-09-19T07:56:22Z</time>
      </trkpt>
      <trkpt lat="45.87511" lon="5.08856">
        <ele>246.2</ele>
        <time>2024-09-19T07:56:23Z</time>
      </trkpt>
      <trkpt lat="45.87516" lon="5.0886">
        <ele>245.4</ele>
        <time>2024-09-19T07:56:24Z</time>
      </trkpt>
      <trkpt lat="45.87517" lon="5.08863">
        <ele>244.8</ele>
        <time>2024-09-19T07:56:25Z</time>
      </trkpt>
      <trkpt lat="45.87519" lon="5.08868">
        <ele>244.2</ele>
        <time>2024-09-19T07:56:26Z</time>
      </trkpt>
      <trkpt lat="45.87522" lon="5.08873">
        <ele>244</ele>
        <time>2024-09-19T07:56:27Z</time>
      </trkpt>
      <trkpt lat="45.87523" lon="5.08874">
        <ele>244</ele>
        <time>2024-09-19T07:56:28Z</time>
      </trkpt>
      <trkpt lat="45.87527" lon="5.08879">
        <ele>244.4</ele>
        <time>2024-09-19T07:56:29Z</time>
      </trkpt>
      <trkpt lat="45.87529" lon="5.08883">
        <ele>244.2</ele>
        <time>2024-09-19T07:56:30Z</time>
      </trkpt>
      <trkpt lat="45.87532" lon="5.08889">
        <ele>244.8</ele>
        <time>2024-09-19T07:56:31Z</time>
      </trkpt>
      <trkpt lat="45.87536" lon="5.08893">
        <ele>244.2</ele>
        <time>2024-09-19T07:56:32Z</time>
      </trkpt>
      <trkpt lat="45.87539" lon="5.08897">
        <ele>244.2</ele>
        <time>2024-09-19T07:56:33Z</time>
      </trkpt>
      <trkpt lat="45.87541" lon="5.089">
        <ele>244.2</ele>
        <time>2024-09-19T07:56:34Z</time>
      </trkpt>
      <trkpt lat="45.87543" lon="5.08904">
        <ele>244.6</ele>
        <time>2024-09-19T07:56:35Z</time>
      </trkpt>
      <trkpt lat="45.87545" lon="5.08907">
        <ele>243.8</ele>
        <time>2024-09-19T07:56:36Z</time>
      </trkpt>
      <trkpt lat="45.87545" lon="5.08908">
        <ele>243.4</ele>
        <time>2024-09-19T07:56:37Z</time>
      </trkpt>
      <trkpt lat="45.87546" lon="5.08908">
        <ele>243.2</ele>
        <time>2024-09-19T07:56:38Z</time>
      </trkpt>
      <trkpt lat="45.87546" lon="5.08911">
        <ele>243.2</ele>
        <time>2024-09-19T07:56:39Z</time>
      </trkpt>
      <trkpt lat="45.87547" lon="5.08911">
        <ele>243</ele>
        <time>2024-09-19T07:56:40Z</time>
      </trkpt>
      <trkpt lat="45.87546" lon="5.08911">
        <ele>243</ele>
        <time>2024-09-19T07:56:41Z</time>
      </trkpt>
      <trkpt lat="45.87546" lon="5.08911">
        <ele>243</ele>
        <time>2024-09-19T07:56:42Z</time>
      </trkpt>
      <trkpt lat="45.87547" lon="5.08912">
        <ele>243</ele>
        <time>2024-09-19T07:56:43Z</time>
      </trkpt>
      <trkpt lat="45.87549" lon="5.08914">
        <ele>242.6</ele>
        <time>2024-09-19T07:56:44Z</time>
      </trkpt>
      <trkpt lat="45.87551" lon="5.08917">
        <ele>242.6</ele>
        <time>2024-09-19T07:56:45Z</time>
      </trkpt>
      <trkpt lat="45.87554" lon="5.0892">
        <ele>242.6</ele>
        <time>2024-09-19T07:56:46Z</time>
      </trkpt>
      <trkpt lat="45.87558" lon="5.0892">
        <ele>242.6</ele>
        <time>2024-09-19T07:56:47Z</time>
      </trkpt>
      <trkpt lat="45.87562" lon="5.08921">
        <ele>242.4</ele>
        <time>2024-09-19T07:56:48Z</time>
      </trkpt>
      <trkpt lat="45.87565" lon="5.08923">
        <ele>242.4</ele>
        <time>2024-09-19T07:56:49Z</time>
      </trkpt>
      <trkpt lat="45.87568" lon="5.08926">
        <ele>242.2</ele>
        <time>2024-09-19T07:56:50Z</time>
      </trkpt>
      <trkpt lat="45.87571" lon="5.0893">
        <ele>242.2</ele>
        <time>2024-09-19T07:56:51Z</time>
      </trkpt>
      <trkpt lat="45.87574" lon="5.08935">
        <ele>242.2</ele>
        <time>2024-09-19T07:56:52Z</time>
      </trkpt>
      <trkpt lat="45.87578" lon="5.08937">
        <ele>242</ele>
        <time>2024-09-19T07:56:53Z</time>
      </trkpt>
      <trkpt lat="45.87583" lon="5.08937">
        <ele>242</ele>
        <time>2024-09-19T07:56:54Z</time>
      </trkpt>
      <trkpt lat="45.87583" lon="5.08937">
        <ele>241.8</ele>
        <time>2024-09-19T07:56:55Z</time>
      </trkpt>
      <trkpt lat="45.87588" lon="5.08935">
        <ele>241.8</ele>
        <time>2024-09-19T07:56:56Z</time>
      </trkpt>
      <trkpt lat="45.87592" lon="5.08933">
        <ele>241</ele>
        <time>2024-09-19T07:56:57Z</time>
      </trkpt>
      <trkpt lat="45.87597" lon="5.0893">
        <ele>241</ele>
        <time>2024-09-19T07:56:58Z</time>
      </trkpt>
      <trkpt lat="45.87603" lon="5.08927">
        <ele>240.6</ele>
        <time>2024-09-19T07:56:59Z</time>
      </trkpt>
      <trkpt lat="45.87608" lon="5.08926">
        <ele>240</ele>
        <time>2024-09-19T07:57:00Z</time>
      </trkpt>
      <trkpt lat="45.87614" lon="5.08926">
        <ele>239.8</ele>
        <time>2024-09-19T07:57:01Z</time>
      </trkpt>
      <trkpt lat="45.87627" lon="5.08926">
        <ele>240</ele>
        <time>2024-09-19T07:57:02Z</time>
      </trkpt>
      <trkpt lat="45.87633" lon="5.08925">
        <ele>240</ele>
        <time>2024-09-19T07:57:03Z</time>
      </trkpt>
      <trkpt lat="45.87639" lon="5.08925">
        <ele>240.2</ele>
        <time>2024-09-19T07:57:04Z</time>
      </trkpt>
      <trkpt lat="45.87644" lon="5.08925">
        <ele>239.6</ele>
        <time>2024-09-19T07:57:05Z</time>
      </trkpt>
      <trkpt lat="45.8765" lon="5.08925">
        <ele>239.2</ele>
        <time>2024-09-19T07:57:06Z</time>
      </trkpt>
      <trkpt lat="45.87656" lon="5.08925">
        <ele>239</ele>
        <time>2024-09-19T07:57:07Z</time>
      </trkpt>
      <trkpt lat="45.87661" lon="5.08924">
        <ele>239.2</ele>
        <time>2024-09-19T07:57:08Z</time>
      </trkpt>
      <trkpt lat="45.87667" lon="5.08924">
        <ele>239.8</ele>
        <time>2024-09-19T07:57:09Z</time>
      </trkpt>
      <trkpt lat="45.87672" lon="5.08925">
        <ele>239.6</ele>
        <time>2024-09-19T07:57:10Z</time>
      </trkpt>
      <trkpt lat="45.87678" lon="5.08925">
        <ele>239</ele>
        <time>2024-09-19T07:57:11Z</time>
      </trkpt>
      <trkpt lat="45.87683" lon="5.08925">
        <ele>239.2</ele>
        <time>2024-09-19T07:57:12Z</time>
      </trkpt>
      <trkpt lat="45.87689" lon="5.08926">
        <ele>239.2</ele>
        <time>2024-09-19T07:57:13Z</time>
      </trkpt>
      <trkpt lat="45.87694" lon="5.08926">
        <ele>239.2</ele>
        <time>2024-09-19T07:57:14Z</time>
      </trkpt>
      <trkpt lat="45.877" lon="5.08927">
        <ele>239.2</ele>
        <time>2024-09-19T07:57:15Z</time>
      </trkpt>
      <trkpt lat="45.87705" lon="5.08927">
        <ele>239.2</ele>
        <time>2024-09-19T07:57:16Z</time>
      </trkpt>
      <trkpt lat="45.8771" lon="5.08928">
        <ele>239.6</ele>
        <time>2024-09-19T07:57:17Z</time>
      </trkpt>
      <trkpt lat="45.87715" lon="5.08928">
        <ele>239.6</ele>
        <time>2024-09-19T07:57:18Z</time>
      </trkpt>
      <trkpt lat="45.8772" lon="5.08928">
        <ele>239.6</ele>
        <time>2024-09-19T07:57:19Z</time>
      </trkpt>
      <trkpt lat="45.87725" lon="5.0893">
        <ele>239.2</ele>
        <time>2024-09-19T07:57:20Z</time>
      </trkpt>
      <trkpt lat="45.8773" lon="5.08932">
        <ele>239.2</ele>
        <time>2024-09-19T07:57:21Z</time>
      </trkpt>
      <trkpt lat="45.87734" lon="5.08934">
        <ele>239.6</ele>
        <time>2024-09-19T07:57:22Z</time>
      </trkpt>
      <trkpt lat="45.87739" lon="5.08937">
        <ele>239.2</ele>
        <time>2024-09-19T07:57:23Z</time>
      </trkpt>
      <trkpt lat="45.87743" lon="5.08941">
        <ele>239.6</ele>
        <time>2024-09-19T07:57:24Z</time>
      </trkpt>
      <trkpt lat="45.87747" lon="5.08943">
        <ele>240.4</ele>
        <time>2024-09-19T07:57:25Z</time>
      </trkpt>
      <trkpt lat="45.87751" lon="5.08944">
        <ele>241</ele>
        <time>2024-09-19T07:57:26Z</time>
      </trkpt>
      <trkpt lat="45.87756" lon="5.08946">
        <ele>240.6</ele>
        <time>2024-09-19T07:57:27Z</time>
      </trkpt>
      <trkpt lat="45.87761" lon="5.08949">
        <ele>240.8</ele>
        <time>2024-09-19T07:57:28Z</time>
      </trkpt>
      <trkpt lat="45.87765" lon="5.0895">
        <ele>241.4</ele>
        <time>2024-09-19T07:57:29Z</time>
      </trkpt>
      <trkpt lat="45.8777" lon="5.08951">
        <ele>241.6</ele>
        <time>2024-09-19T07:57:30Z</time>
      </trkpt>
      <trkpt lat="45.87775" lon="5.08952">
        <ele>242</ele>
        <time>2024-09-19T07:57:31Z</time>
      </trkpt>
      <trkpt lat="45.87779" lon="5.08953">
        <ele>242</ele>
        <time>2024-09-19T07:57:32Z</time>
      </trkpt>
      <trkpt lat="45.87784" lon="5.08953">
        <ele>242</ele>
        <time>2024-09-19T07:57:33Z</time>
      </trkpt>
      <trkpt lat="45.87789" lon="5.08954">
        <ele>242</ele>
        <time>2024-09-19T07:57:34Z</time>
      </trkpt>
      <trkpt lat="45.87794" lon="5.08955">
        <ele>242</ele>
        <time>2024-09-19T07:57:35Z</time>
      </trkpt>
      <trkpt lat="45.87799" lon="5.08955">
        <ele>241.4</ele>
        <time>2024-09-19T07:57:36Z</time>
      </trkpt>
      <trkpt lat="45.87803" lon="5.08954">
        <ele>241</ele>
        <time>2024-09-19T07:57:37Z</time>
      </trkpt>
      <trkpt lat="45.87808" lon="5.08954">
        <ele>241.8</ele>
        <time>2024-09-19T07:57:38Z</time>
      </trkpt>
      <trkpt lat="45.87813" lon="5.08957">
        <ele>242.8</ele>
        <time>2024-09-19T07:57:39Z</time>
      </trkpt>
      <trkpt lat="45.87817" lon="5.08959">
        <ele>242</ele>
        <time>2024-09-19T07:57:40Z</time>
      </trkpt>
      <trkpt lat="45.87822" lon="5.08961">
        <ele>242</ele>
        <time>2024-09-19T07:57:41Z</time>
      </trkpt>
      <trkpt lat="45.87826" lon="5.08963">
        <ele>242</ele>
        <time>2024-09-19T07:57:42Z</time>
      </trkpt>
      <trkpt lat="45.87831" lon="5.08965">
        <ele>242</ele>
        <time>2024-09-19T07:57:43Z</time>
      </trkpt>
      <trkpt lat="45.87836" lon="5.08966">
        <ele>241.6</ele>
        <time>2024-09-19T07:57:44Z</time>
      </trkpt>
      <trkpt lat="45.87841" lon="5.08967">
        <ele>241.6</ele>
        <time>2024-09-19T07:57:45Z</time>
      </trkpt>
      <trkpt lat="45.87845" lon="5.08968">
        <ele>242</ele>
        <time>2024-09-19T07:57:46Z</time>
      </trkpt>
      <trkpt lat="45.87851" lon="5.08969">
        <ele>242</ele>
        <time>2024-09-19T07:57:47Z</time>
      </trkpt>
      <trkpt lat="45.87855" lon="5.0897">
        <ele>242.4</ele>
        <time>2024-09-19T07:57:48Z</time>
      </trkpt>
      <trkpt lat="45.8786" lon="5.08971">
        <ele>241.8</ele>
        <time>2024-09-19T07:57:49Z</time>
      </trkpt>
      <trkpt lat="45.87865" lon="5.08972">
        <ele>242</ele>
        <time>2024-09-19T07:57:50Z</time>
      </trkpt>
      <trkpt lat="45.87869" lon="5.08973">
        <ele>242.6</ele>
        <time>2024-09-19T07:57:51Z</time>
      </trkpt>
      <trkpt lat="45.87874" lon="5.08973">
        <ele>243</ele>
        <time>2024-09-19T07:57:52Z</time>
      </trkpt>
      <trkpt lat="45.87878" lon="5.08974">
        <ele>243</ele>
        <time>2024-09-19T07:57:53Z</time>
      </trkpt>
      <trkpt lat="45.87882" lon="5.08975">
        <ele>243.4</ele>
        <time>2024-09-19T07:57:54Z</time>
      </trkpt>
      <trkpt lat="45.87885" lon="5.08976">
        <ele>243.8</ele>
        <time>2024-09-19T07:57:55Z</time>
      </trkpt>
      <trkpt lat="45.87889" lon="5.08976">
        <ele>243.8</ele>
        <time>2024-09-19T07:57:56Z</time>
      </trkpt>
      <trkpt lat="45.87893" lon="5.08977">
        <ele>243.8</ele>
        <time>2024-09-19T07:57:57Z</time>
      </trkpt>
      <trkpt lat="45.87897" lon="5.08977">
        <ele>244.2</ele>
        <time>2024-09-19T07:57:58Z</time>
      </trkpt>
      <trkpt lat="45.879" lon="5.08977">
        <ele>244.2</ele>
        <time>2024-09-19T07:57:59Z</time>
      </trkpt>
      <trkpt lat="45.87904" lon="5.08977">
        <ele>244.2</ele>
        <time>2024-09-19T07:58:00Z</time>
      </trkpt>
      <trkpt lat="45.87907" lon="5.08977">
        <ele>244.6</ele>
        <time>2024-09-19T07:58:01Z</time>
      </trkpt>
      <trkpt lat="45.8791" lon="5.08977">
        <ele>244.8</ele>
        <time>2024-09-19T07:58:02Z</time>
      </trkpt>
      <trkpt lat="45.87914" lon="5.08977">
        <ele>244.8</ele>
        <time>2024-09-19T07:58:03Z</time>
      </trkpt>
      <trkpt lat="45.87917" lon="5.08978">
        <ele>245.2</ele>
        <time>2024-09-19T07:58:04Z</time>
      </trkpt>
      <trkpt lat="45.87921" lon="5.08978">
        <ele>245.2</ele>
        <time>2024-09-19T07:58:05Z</time>
      </trkpt>
      <trkpt lat="45.87924" lon="5.08978">
        <ele>245.4</ele>
        <time>2024-09-19T07:58:06Z</time>
      </trkpt>
      <trkpt lat="45.87927" lon="5.0898">
        <ele>245.4</ele>
        <time>2024-09-19T07:58:07Z</time>
      </trkpt>
      <trkpt lat="45.8793" lon="5.08982">
        <ele>244.2</ele>
        <time>2024-09-19T07:58:08Z</time>
      </trkpt>
      <trkpt lat="45.87933" lon="5.08986">
        <ele>244.2</ele>
        <time>2024-09-19T07:58:09Z</time>
      </trkpt>
      <trkpt lat="45.87936" lon="5.08991">
        <ele>245.6</ele>
        <time>2024-09-19T07:58:10Z</time>
      </trkpt>
      <trkpt lat="45.87939" lon="5.08994">
        <ele>245.6</ele>
        <time>2024-09-19T07:58:11Z</time>
      </trkpt>
      <trkpt lat="45.87942" lon="5.08999">
        <ele>245.6</ele>
        <time>2024-09-19T07:58:12Z</time>
      </trkpt>
      <trkpt lat="45.87945" lon="5.09003">
        <ele>245.6</ele>
        <time>2024-09-19T07:58:13Z</time>
      </trkpt>
      <trkpt lat="45.87948" lon="5.09008">
        <ele>245.6</ele>
        <time>2024-09-19T07:58:14Z</time>
      </trkpt>
      <trkpt lat="45.87951" lon="5.09012">
        <ele>246.2</ele>
        <time>2024-09-19T07:58:15Z</time>
      </trkpt>
      <trkpt lat="45.87954" lon="5.09017">
        <ele>245.6</ele>
        <time>2024-09-19T07:58:16Z</time>
      </trkpt>
      <trkpt lat="45.87956" lon="5.09022">
        <ele>245.6</ele>
        <time>2024-09-19T07:58:17Z</time>
      </trkpt>
      <trkpt lat="45.8796" lon="5.09027">
        <ele>245</ele>
        <time>2024-09-19T07:58:18Z</time>
      </trkpt>
      <trkpt lat="45.87962" lon="5.09033">
        <ele>244.4</ele>
        <time>2024-09-19T07:58:19Z</time>
      </trkpt>
      <trkpt lat="45.87965" lon="5.09038">
        <ele>244</ele>
        <time>2024-09-19T07:58:20Z</time>
      </trkpt>
      <trkpt lat="45.87969" lon="5.09043">
        <ele>245.2</ele>
        <time>2024-09-19T07:58:21Z</time>
      </trkpt>
      <trkpt lat="45.87971" lon="5.09049">
        <ele>245.2</ele>
        <time>2024-09-19T07:58:22Z</time>
      </trkpt>
      <trkpt lat="45.87975" lon="5.09054">
        <ele>244.4</ele>
        <time>2024-09-19T07:58:23Z</time>
      </trkpt>
      <trkpt lat="45.87979" lon="5.09059">
        <ele>244.2</ele>
        <time>2024-09-19T07:58:24Z</time>
      </trkpt>
      <trkpt lat="45.87983" lon="5.09064">
        <ele>243.6</ele>
        <time>2024-09-19T07:58:25Z</time>
      </trkpt>
      <trkpt lat="45.87987" lon="5.09068">
        <ele>242.8</ele>
        <time>2024-09-19T07:58:26Z</time>
      </trkpt>
      <trkpt lat="45.87992" lon="5.09072">
        <ele>243.4</ele>
        <time>2024-09-19T07:58:27Z</time>
      </trkpt>
      <trkpt lat="45.87996" lon="5.09077">
        <ele>243.4</ele>
        <time>2024-09-19T07:58:28Z</time>
      </trkpt>
      <trkpt lat="45.88" lon="5.09082">
        <ele>243.6</ele>
        <time>2024-09-19T07:58:29Z</time>
      </trkpt>
      <trkpt lat="45.88004" lon="5.09086">
        <ele>243.4</ele>
        <time>2024-09-19T07:58:30Z</time>
      </trkpt>
      <trkpt lat="45.88008" lon="5.09091">
        <ele>242.6</ele>
        <time>2024-09-19T07:58:31Z</time>
      </trkpt>
      <trkpt lat="45.88012" lon="5.09095">
        <ele>242.6</ele>
        <time>2024-09-19T07:58:32Z</time>
      </trkpt>
      <trkpt lat="45.88016" lon="5.09101">
        <ele>242.6</ele>
        <time>2024-09-19T07:58:33Z</time>
      </trkpt>
      <trkpt lat="45.88019" lon="5.09106">
        <ele>242.6</ele>
        <time>2024-09-19T07:58:34Z</time>
      </trkpt>
      <trkpt lat="45.88023" lon="5.09111">
        <ele>242.2</ele>
        <time>2024-09-19T07:58:35Z</time>
      </trkpt>
      <trkpt lat="45.88027" lon="5.09115">
        <ele>241.2</ele>
        <time>2024-09-19T07:58:36Z</time>
      </trkpt>
      <trkpt lat="45.88031" lon="5.0912">
        <ele>240</ele>
        <time>2024-09-19T07:58:37Z</time>
      </trkpt>
      <trkpt lat="45.88035" lon="5.09124">
        <ele>240.4</ele>
        <time>2024-09-19T07:58:38Z</time>
      </trkpt>
      <trkpt lat="45.88039" lon="5.09128">
        <ele>240.4</ele>
        <time>2024-09-19T07:58:39Z</time>
      </trkpt>
      <trkpt lat="45.88044" lon="5.09132">
        <ele>240.2</ele>
        <time>2024-09-19T07:58:40Z</time>
      </trkpt>
      <trkpt lat="45.88049" lon="5.09136">
        <ele>240.6</ele>
        <time>2024-09-19T07:58:41Z</time>
      </trkpt>
      <trkpt lat="45.88053" lon="5.0914">
        <ele>241</ele>
        <time>2024-09-19T07:58:42Z</time>
      </trkpt>
      <trkpt lat="45.88058" lon="5.09143">
        <ele>241</ele>
        <time>2024-09-19T07:58:43Z</time>
      </trkpt>
      <trkpt lat="45.88062" lon="5.09148">
        <ele>240.6</ele>
        <time>2024-09-19T07:58:44Z</time>
      </trkpt>
      <trkpt lat="45.88067" lon="5.09151">
        <ele>241</ele>
        <time>2024-09-19T07:58:45Z</time>
      </trkpt>
      <trkpt lat="45.88072" lon="5.09154">
        <ele>241</ele>
        <time>2024-09-19T07:58:46Z</time>
      </trkpt>
      <trkpt lat="45.88077" lon="5.09157">
        <ele>241.4</ele>
        <time>2024-09-19T07:58:47Z</time>
      </trkpt>
      <trkpt lat="45.88082" lon="5.0916">
        <ele>241</ele>
        <time>2024-09-19T07:58:48Z</time>
      </trkpt>
      <trkpt lat="45.88086" lon="5.09164">
        <ele>242</ele>
        <time>2024-09-19T07:58:49Z</time>
      </trkpt>
      <trkpt lat="45.88089" lon="5.09168">
        <ele>242</ele>
        <time>2024-09-19T07:58:50Z</time>
      </trkpt>
      <trkpt lat="45.88093" lon="5.09172">
        <ele>241.6</ele>
        <time>2024-09-19T07:58:51Z</time>
      </trkpt>
      <trkpt lat="45.88096" lon="5.09176">
        <ele>241.6</ele>
        <time>2024-09-19T07:58:52Z</time>
      </trkpt>
      <trkpt lat="45.88101" lon="5.0918">
        <ele>241.6</ele>
        <time>2024-09-19T07:58:53Z</time>
      </trkpt>
      <trkpt lat="45.88104" lon="5.09185">
        <ele>241.6</ele>
        <time>2024-09-19T07:58:54Z</time>
      </trkpt>
      <trkpt lat="45.88108" lon="5.0919">
        <ele>241.6</ele>
        <time>2024-09-19T07:58:55Z</time>
      </trkpt>
      <trkpt lat="45.88112" lon="5.09194">
        <ele>241.6</ele>
        <time>2024-09-19T07:58:56Z</time>
      </trkpt>
      <trkpt lat="45.88115" lon="5.092">
        <ele>242.2</ele>
        <time>2024-09-19T07:58:57Z</time>
      </trkpt>
      <trkpt lat="45.88118" lon="5.09204">
        <ele>242.2</ele>
        <time>2024-09-19T07:58:58Z</time>
      </trkpt>
      <trkpt lat="45.8812" lon="5.09208">
        <ele>241.8</ele>
        <time>2024-09-19T07:58:59Z</time>
      </trkpt>
      <trkpt lat="45.88123" lon="5.09213">
        <ele>242</ele>
        <time>2024-09-19T07:59:00Z</time>
      </trkpt>
      <trkpt lat="45.88125" lon="5.09218">
        <ele>242</ele>
        <time>2024-09-19T07:59:01Z</time>
      </trkpt>
      <trkpt lat="45.88129" lon="5.09222">
        <ele>242</ele>
        <time>2024-09-19T07:59:02Z</time>
      </trkpt>
      <trkpt lat="45.88132" lon="5.09227">
        <ele>242.4</ele>
        <time>2024-09-19T07:59:03Z</time>
      </trkpt>
      <trkpt lat="45.88135" lon="5.09231">
        <ele>242</ele>
        <time>2024-09-19T07:59:04Z</time>
      </trkpt>
      <trkpt lat="45.88138" lon="5.09235">
        <ele>242</ele>
        <time>2024-09-19T07:59:05Z</time>
      </trkpt>
      <trkpt lat="45.88141" lon="5.09239">
        <ele>242</ele>
        <time>2024-09-19T07:59:06Z</time>
      </trkpt>
      <trkpt lat="45.88144" lon="5.09243">
        <ele>241</ele>
        <time>2024-09-19T07:59:07Z</time>
      </trkpt>
      <trkpt lat="45.88149" lon="5.09247">
        <ele>241.4</ele>
        <time>2024-09-19T07:59:08Z</time>
      </trkpt>
      <trkpt lat="45.88152" lon="5.09251">
        <ele>242</ele>
        <time>2024-09-19T07:59:09Z</time>
      </trkpt>
      <trkpt lat="45.88156" lon="5.09254">
        <ele>242</ele>
        <time>2024-09-19T07:59:10Z</time>
      </trkpt>
      <trkpt lat="45.88161" lon="5.09257">
        <ele>242</ele>
        <time>2024-09-19T07:59:11Z</time>
      </trkpt>
      <trkpt lat="45.88164" lon="5.0926">
        <ele>242.6</ele>
        <time>2024-09-19T07:59:12Z</time>
      </trkpt>
      <trkpt lat="45.88169" lon="5.09263">
        <ele>242.6</ele>
        <time>2024-09-19T07:59:13Z</time>
      </trkpt>
      <trkpt lat="45.88173" lon="5.09265">
        <ele>242.2</ele>
        <time>2024-09-19T07:59:14Z</time>
      </trkpt>
      <trkpt lat="45.88178" lon="5.09268">
        <ele>242.6</ele>
        <time>2024-09-19T07:59:15Z</time>
      </trkpt>
      <trkpt lat="45.88182" lon="5.09272">
        <ele>243</ele>
        <time>2024-09-19T07:59:16Z</time>
      </trkpt>
      <trkpt lat="45.88186" lon="5.09275">
        <ele>242.8</ele>
        <time>2024-09-19T07:59:17Z</time>
      </trkpt>
      <trkpt lat="45.88189" lon="5.09277">
        <ele>243.2</ele>
        <time>2024-09-19T07:59:18Z</time>
      </trkpt>
      <trkpt lat="45.88193" lon="5.0928">
        <ele>243</ele>
        <time>2024-09-19T07:59:19Z</time>
      </trkpt>
      <trkpt lat="45.88196" lon="5.09283">
        <ele>242.6</ele>
        <time>2024-09-19T07:59:20Z</time>
      </trkpt>
      <trkpt lat="45.882" lon="5.09288">
        <ele>242.8</ele>
        <time>2024-09-19T07:59:21Z</time>
      </trkpt>
      <trkpt lat="45.88202" lon="5.09293">
        <ele>242.8</ele>
        <time>2024-09-19T07:59:22Z</time>
      </trkpt>
      <trkpt lat="45.88204" lon="5.09298">
        <ele>243.2</ele>
        <time>2024-09-19T07:59:23Z</time>
      </trkpt>
      <trkpt lat="45.88208" lon="5.09303">
        <ele>243.4</ele>
        <time>2024-09-19T07:59:24Z</time>
      </trkpt>
      <trkpt lat="45.88211" lon="5.09308">
        <ele>243.6</ele>
        <time>2024-09-19T07:59:25Z</time>
      </trkpt>
      <trkpt lat="45.88214" lon="5.09313">
        <ele>243.6</ele>
        <time>2024-09-19T07:59:26Z</time>
      </trkpt>
      <trkpt lat="45.88217" lon="5.09318">
        <ele>243.2</ele>
        <time>2024-09-19T07:59:27Z</time>
      </trkpt>
      <trkpt lat="45.88221" lon="5.09323">
        <ele>243</ele>
        <time>2024-09-19T07:59:28Z</time>
      </trkpt>
      <trkpt lat="45.88223" lon="5.09326">
        <ele>243</ele>
        <time>2024-09-19T07:59:29Z</time>
      </trkpt>
      <trkpt lat="45.88226" lon="5.0933">
        <ele>243</ele>
        <time>2024-09-19T07:59:30Z</time>
      </trkpt>
      <trkpt lat="45.88229" lon="5.09333">
        <ele>243.2</ele>
        <time>2024-09-19T07:59:31Z</time>
      </trkpt>
      <trkpt lat="45.88233" lon="5.09336">
        <ele>243.2</ele>
        <time>2024-09-19T07:59:32Z</time>
      </trkpt>
      <trkpt lat="45.88236" lon="5.09338">
        <ele>243</ele>
        <time>2024-09-19T07:59:33Z</time>
      </trkpt>
      <trkpt lat="45.8824" lon="5.0934">
        <ele>243.2</ele>
        <time>2024-09-19T07:59:34Z</time>
      </trkpt>
      <trkpt lat="45.88244" lon="5.09341">
        <ele>243.6</ele>
        <time>2024-09-19T07:59:35Z</time>
      </trkpt>
      <trkpt lat="45.88247" lon="5.09342">
        <ele>243.6</ele>
        <time>2024-09-19T07:59:36Z</time>
      </trkpt>
      <trkpt lat="45.88251" lon="5.09344">
        <ele>244</ele>
        <time>2024-09-19T07:59:37Z</time>
      </trkpt>
      <trkpt lat="45.88255" lon="5.09346">
        <ele>244</ele>
        <time>2024-09-19T07:59:38Z</time>
      </trkpt>
      <trkpt lat="45.88258" lon="5.09347">
        <ele>243</ele>
        <time>2024-09-19T07:59:39Z</time>
      </trkpt>
      <trkpt lat="45.88262" lon="5.09349">
        <ele>243</ele>
        <time>2024-09-19T07:59:40Z</time>
      </trkpt>
      <trkpt lat="45.88266" lon="5.09351">
        <ele>243.4</ele>
        <time>2024-09-19T07:59:41Z</time>
      </trkpt>
      <trkpt lat="45.8827" lon="5.09352">
        <ele>243.4</ele>
        <time>2024-09-19T07:59:42Z</time>
      </trkpt>
      <trkpt lat="45.88274" lon="5.09354">
        <ele>243.4</ele>
        <time>2024-09-19T07:59:43Z</time>
      </trkpt>
      <trkpt lat="45.88279" lon="5.09355">
        <ele>243.8</ele>
        <time>2024-09-19T07:59:44Z</time>
      </trkpt>
      <trkpt lat="45.88283" lon="5.09356">
        <ele>243.4</ele>
        <time>2024-09-19T07:59:45Z</time>
      </trkpt>
      <trkpt lat="45.88287" lon="5.09358">
        <ele>243.4</ele>
        <time>2024-09-19T07:59:46Z</time>
      </trkpt>
      <trkpt lat="45.88287" lon="5.09358">
        <ele>243.4</ele>
        <time>2024-09-19T07:59:47Z</time>
      </trkpt>
      <trkpt lat="45.88291" lon="5.09359">
        <ele>243.4</ele>
        <time>2024-09-19T07:59:48Z</time>
      </trkpt>
      <trkpt lat="45.88295" lon="5.09361">
        <ele>243.4</ele>
        <time>2024-09-19T07:59:49Z</time>
      </trkpt>
      <trkpt lat="45.88299" lon="5.09363">
        <ele>243.2</ele>
        <time>2024-09-19T07:59:50Z</time>
      </trkpt>
      <trkpt lat="45.88303" lon="5.09366">
        <ele>244</ele>
        <time>2024-09-19T07:59:51Z</time>
      </trkpt>
      <trkpt lat="45.88306" lon="5.09369">
        <ele>244.4</ele>
        <time>2024-09-19T07:59:52Z</time>
      </trkpt>
      <trkpt lat="45.8831" lon="5.09371">
        <ele>244.8</ele>
        <time>2024-09-19T07:59:53Z</time>
      </trkpt>
      <trkpt lat="45.88314" lon="5.09374">
        <ele>244.8</ele>
        <time>2024-09-19T07:59:54Z</time>
      </trkpt>
      <trkpt lat="45.88321" lon="5.09379">
        <ele>245</ele>
        <time>2024-09-19T07:59:55Z</time>
      </trkpt>
      <trkpt lat="45.88325" lon="5.09383">
        <ele>244.8</ele>
        <time>2024-09-19T07:59:56Z</time>
      </trkpt>
      <trkpt lat="45.88328" lon="5.09385">
        <ele>244.8</ele>
        <time>2024-09-19T07:59:57Z</time>
      </trkpt>
      <trkpt lat="45.88332" lon="5.09388">
        <ele>244.6</ele>
        <time>2024-09-19T07:59:58Z</time>
      </trkpt>
      <trkpt lat="45.88335" lon="5.09391">
        <ele>245</ele>
        <time>2024-09-19T07:59:59Z</time>
      </trkpt>
      <trkpt lat="45.88339" lon="5.09393">
        <ele>244.8</ele>
        <time>2024-09-19T08:00:00Z</time>
      </trkpt>
      <trkpt lat="45.88342" lon="5.09394">
        <ele>244.8</ele>
        <time>2024-09-19T08:00:01Z</time>
      </trkpt>
      <trkpt lat="45.88346" lon="5.09396">
        <ele>245</ele>
        <time>2024-09-19T08:00:02Z</time>
      </trkpt>
      <trkpt lat="45.8835" lon="5.09398">
        <ele>245</ele>
        <time>2024-09-19T08:00:03Z</time>
      </trkpt>
      <trkpt lat="45.88353" lon="5.09401">
        <ele>245.4</ele>
        <time>2024-09-19T08:00:04Z</time>
      </trkpt>
      <trkpt lat="45.88358" lon="5.09403">
        <ele>245.4</ele>
        <time>2024-09-19T08:00:05Z</time>
      </trkpt>
      <trkpt lat="45.88363" lon="5.09406">
        <ele>245.8</ele>
        <time>2024-09-19T08:00:06Z</time>
      </trkpt>
      <trkpt lat="45.88366" lon="5.09409">
        <ele>245.4</ele>
        <time>2024-09-19T08:00:07Z</time>
      </trkpt>
      <trkpt lat="45.88371" lon="5.09411">
        <ele>245.4</ele>
        <time>2024-09-19T08:00:08Z</time>
      </trkpt>
      <trkpt lat="45.88375" lon="5.09415">
        <ele>245.4</ele>
        <time>2024-09-19T08:00:09Z</time>
      </trkpt>
      <trkpt lat="45.8838" lon="5.09417">
        <ele>244.8</ele>
        <time>2024-09-19T08:00:10Z</time>
      </trkpt>
      <trkpt lat="45.88383" lon="5.0942">
        <ele>244.4</ele>
        <time>2024-09-19T08:00:11Z</time>
      </trkpt>
      <trkpt lat="45.88388" lon="5.09423">
        <ele>244.4</ele>
        <time>2024-09-19T08:00:12Z</time>
      </trkpt>
      <trkpt lat="45.88391" lon="5.09426">
        <ele>244.6</ele>
        <time>2024-09-19T08:00:13Z</time>
      </trkpt>
      <trkpt lat="45.88395" lon="5.09429">
        <ele>244.6</ele>
        <time>2024-09-19T08:00:14Z</time>
      </trkpt>
      <trkpt lat="45.88399" lon="5.09432">
        <ele>244.6</ele>
        <time>2024-09-19T08:00:15Z</time>
      </trkpt>
      <trkpt lat="45.88403" lon="5.09434">
        <ele>244.8</ele>
        <time>2024-09-19T08:00:16Z</time>
      </trkpt>
      <trkpt lat="45.88408" lon="5.09436">
        <ele>245.2</ele>
        <time>2024-09-19T08:00:17Z</time>
      </trkpt>
      <trkpt lat="45.88413" lon="5.09438">
        <ele>244.4</ele>
        <time>2024-09-19T08:00:18Z</time>
      </trkpt>
      <trkpt lat="45.88416" lon="5.09443">
        <ele>244.4</ele>
        <time>2024-09-19T08:00:19Z</time>
      </trkpt>
      <trkpt lat="45.88421" lon="5.09446">
        <ele>245</ele>
        <time>2024-09-19T08:00:20Z</time>
      </trkpt>
      <trkpt lat="45.88424" lon="5.09448">
        <ele>244.4</ele>
        <time>2024-09-19T08:00:21Z</time>
      </trkpt>
      <trkpt lat="45.88429" lon="5.0945">
        <ele>244.2</ele>
        <time>2024-09-19T08:00:22Z</time>
      </trkpt>
      <trkpt lat="45.88434" lon="5.09452">
        <ele>244.2</ele>
        <time>2024-09-19T08:00:23Z</time>
      </trkpt>
      <trkpt lat="45.88438" lon="5.09454">
        <ele>244.8</ele>
        <time>2024-09-19T08:00:24Z</time>
      </trkpt>
      <trkpt lat="45.88443" lon="5.09456">
        <ele>244.8</ele>
        <time>2024-09-19T08:00:25Z</time>
      </trkpt>
      <trkpt lat="45.88447" lon="5.09459">
        <ele>245</ele>
        <time>2024-09-19T08:00:26Z</time>
      </trkpt>
      <trkpt lat="45.88451" lon="5.09461">
        <ele>245</ele>
        <time>2024-09-19T08:00:27Z</time>
      </trkpt>
      <trkpt lat="45.88456" lon="5.09465">
        <ele>245</ele>
        <time>2024-09-19T08:00:28Z</time>
      </trkpt>
      <trkpt lat="45.8846" lon="5.09466">
        <ele>245.6</ele>
        <time>2024-09-19T08:00:29Z</time>
      </trkpt>
      <trkpt lat="45.88464" lon="5.09467">
        <ele>245.8</ele>
        <time>2024-09-19T08:00:30Z</time>
      </trkpt>
      <trkpt lat="45.88469" lon="5.09471">
        <ele>247</ele>
        <time>2024-09-19T08:00:31Z</time>
      </trkpt>
      <trkpt lat="45.88473" lon="5.09474">
        <ele>246.6</ele>
        <time>2024-09-19T08:00:32Z</time>
      </trkpt>
      <trkpt lat="45.88478" lon="5.09476">
        <ele>246.6</ele>
        <time>2024-09-19T08:00:33Z</time>
      </trkpt>
      <trkpt lat="45.88483" lon="5.09478">
        <ele>246.6</ele>
        <time>2024-09-19T08:00:34Z</time>
      </trkpt>
      <trkpt lat="45.88488" lon="5.09481">
        <ele>246.6</ele>
        <time>2024-09-19T08:00:35Z</time>
      </trkpt>
      <trkpt lat="45.88493" lon="5.09484">
        <ele>246.8</ele>
        <time>2024-09-19T08:00:36Z</time>
      </trkpt>
      <trkpt lat="45.88497" lon="5.09485">
        <ele>246.4</ele>
        <time>2024-09-19T08:00:37Z</time>
      </trkpt>
      <trkpt lat="45.88501" lon="5.09486">
        <ele>246.8</ele>
        <time>2024-09-19T08:00:38Z</time>
      </trkpt>
      <trkpt lat="45.88505" lon="5.09488">
        <ele>247</ele>
        <time>2024-09-19T08:00:39Z</time>
      </trkpt>
      <trkpt lat="45.88509" lon="5.09489">
        <ele>247.4</ele>
        <time>2024-09-19T08:00:40Z</time>
      </trkpt>
      <trkpt lat="45.88513" lon="5.0949">
        <ele>247.4</ele>
        <time>2024-09-19T08:00:41Z</time>
      </trkpt>
      <trkpt lat="45.88517" lon="5.0949">
        <ele>247.4</ele>
        <time>2024-09-19T08:00:42Z</time>
      </trkpt>
      <trkpt lat="45.8852" lon="5.09489">
        <ele>247.6</ele>
        <time>2024-09-19T08:00:43Z</time>
      </trkpt>
      <trkpt lat="45.88524" lon="5.09489">
        <ele>248</ele>
        <time>2024-09-19T08:00:44Z</time>
      </trkpt>
      <trkpt lat="45.88528" lon="5.09489">
        <ele>248</ele>
        <time>2024-09-19T08:00:45Z</time>
      </trkpt>
      <trkpt lat="45.88531" lon="5.09488">
        <ele>247.6</ele>
        <time>2024-09-19T08:00:46Z</time>
      </trkpt>
      <trkpt lat="45.88534" lon="5.09487">
        <ele>248</ele>
        <time>2024-09-19T08:00:47Z</time>
      </trkpt>
      <trkpt lat="45.88538" lon="5.09486">
        <ele>248.2</ele>
        <time>2024-09-19T08:00:48Z</time>
      </trkpt>
      <trkpt lat="45.88542" lon="5.09484">
        <ele>248.6</ele>
        <time>2024-09-19T08:00:49Z</time>
      </trkpt>
      <trkpt lat="45.88545" lon="5.09482">
        <ele>248.6</ele>
        <time>2024-09-19T08:00:50Z</time>
      </trkpt>
      <trkpt lat="45.88548" lon="5.0948">
        <ele>248</ele>
        <time>2024-09-19T08:00:51Z</time>
      </trkpt>
      <trkpt lat="45.88551" lon="5.09478">
        <ele>248.8</ele>
        <time>2024-09-19T08:00:52Z</time>
      </trkpt>
      <trkpt lat="45.88553" lon="5.09476">
        <ele>249.2</ele>
        <time>2024-09-19T08:00:53Z</time>
      </trkpt>
      <trkpt lat="45.88556" lon="5.09474">
        <ele>249.2</ele>
        <time>2024-09-19T08:00:54Z</time>
      </trkpt>
      <trkpt lat="45.88559" lon="5.09472">
        <ele>249.2</ele>
        <time>2024-09-19T08:00:55Z</time>
      </trkpt>
      <trkpt lat="45.88562" lon="5.0947">
        <ele>249</ele>
        <time>2024-09-19T08:00:56Z</time>
      </trkpt>
      <trkpt lat="45.88565" lon="5.09468">
        <ele>249.2</ele>
        <time>2024-09-19T08:00:57Z</time>
      </trkpt>
      <trkpt lat="45.88568" lon="5.09466">
        <ele>249.2</ele>
        <time>2024-09-19T08:00:58Z</time>
      </trkpt>
      <trkpt lat="45.88571" lon="5.09464">
        <ele>249.6</ele>
        <time>2024-09-19T08:00:59Z</time>
      </trkpt>
      <trkpt lat="45.88573" lon="5.09463">
        <ele>249.6</ele>
        <time>2024-09-19T08:01:00Z</time>
      </trkpt>
      <trkpt lat="45.88576" lon="5.09461">
        <ele>249.8</ele>
        <time>2024-09-19T08:01:01Z</time>
      </trkpt>
      <trkpt lat="45.88579" lon="5.09459">
        <ele>249.8</ele>
        <time>2024-09-19T08:01:02Z</time>
      </trkpt>
      <trkpt lat="45.88582" lon="5.09456">
        <ele>249.8</ele>
        <time>2024-09-19T08:01:03Z</time>
      </trkpt>
      <trkpt lat="45.88585" lon="5.09453">
        <ele>249.8</ele>
        <time>2024-09-19T08:01:04Z</time>
      </trkpt>
      <trkpt lat="45.88587" lon="5.0945">
        <ele>250.2</ele>
        <time>2024-09-19T08:01:05Z</time>
      </trkpt>
      <trkpt lat="45.88588" lon="5.09447">
        <ele>249.8</ele>
        <time>2024-09-19T08:01:06Z</time>
      </trkpt>
      <trkpt lat="45.8859" lon="5.09443">
        <ele>250</ele>
        <time>2024-09-19T08:01:07Z</time>
      </trkpt>
      <trkpt lat="45.88591" lon="5.0944">
        <ele>250.6</ele>
        <time>2024-09-19T08:01:08Z</time>
      </trkpt>
      <trkpt lat="45.88592" lon="5.09437">
        <ele>251</ele>
        <time>2024-09-19T08:01:09Z</time>
      </trkpt>
      <trkpt lat="45.88592" lon="5.09433">
        <ele>251.2</ele>
        <time>2024-09-19T08:01:10Z</time>
      </trkpt>
      <trkpt lat="45.88593" lon="5.09429">
        <ele>251</ele>
        <time>2024-09-19T08:01:11Z</time>
      </trkpt>
      <trkpt lat="45.88594" lon="5.09425">
        <ele>251</ele>
        <time>2024-09-19T08:01:12Z</time>
      </trkpt>
      <trkpt lat="45.88595" lon="5.09421">
        <ele>251</ele>
        <time>2024-09-19T08:01:13Z</time>
      </trkpt>
      <trkpt lat="45.88597" lon="5.09416">
        <ele>251</ele>
        <time>2024-09-19T08:01:14Z</time>
      </trkpt>
      <trkpt lat="45.88599" lon="5.09413">
        <ele>251.6</ele>
        <time>2024-09-19T08:01:15Z</time>
      </trkpt>
      <trkpt lat="45.88602" lon="5.09411">
        <ele>252</ele>
        <time>2024-09-19T08:01:16Z</time>
      </trkpt>
      <trkpt lat="45.88605" lon="5.09409">
        <ele>251.6</ele>
        <time>2024-09-19T08:01:17Z</time>
      </trkpt>
      <trkpt lat="45.88608" lon="5.09409">
        <ele>252</ele>
        <time>2024-09-19T08:01:18Z</time>
      </trkpt>
      <trkpt lat="45.88611" lon="5.0941">
        <ele>252.2</ele>
        <time>2024-09-19T08:01:19Z</time>
      </trkpt>
      <trkpt lat="45.88613" lon="5.09411">
        <ele>252</ele>
        <time>2024-09-19T08:01:20Z</time>
      </trkpt>
      <trkpt lat="45.88615" lon="5.09413">
        <ele>252</ele>
        <time>2024-09-19T08:01:21Z</time>
      </trkpt>
      <trkpt lat="45.88618" lon="5.09415">
        <ele>252</ele>
        <time>2024-09-19T08:01:22Z</time>
      </trkpt>
      <trkpt lat="45.8862" lon="5.09417">
        <ele>252</ele>
        <time>2024-09-19T08:01:23Z</time>
      </trkpt>
      <trkpt lat="45.88623" lon="5.09419">
        <ele>252.2</ele>
        <time>2024-09-19T08:01:24Z</time>
      </trkpt>
      <trkpt lat="45.88625" lon="5.09422">
        <ele>252.6</ele>
        <time>2024-09-19T08:01:25Z</time>
      </trkpt>
      <trkpt lat="45.88627" lon="5.09425">
        <ele>252.6</ele>
        <time>2024-09-19T08:01:26Z</time>
      </trkpt>
      <trkpt lat="45.8863" lon="5.09428">
        <ele>252.6</ele>
        <time>2024-09-19T08:01:27Z</time>
      </trkpt>
      <trkpt lat="45.88632" lon="5.0943">
        <ele>253</ele>
        <time>2024-09-19T08:01:28Z</time>
      </trkpt>
      <trkpt lat="45.88635" lon="5.09433">
        <ele>253</ele>
        <time>2024-09-19T08:01:29Z</time>
      </trkpt>
      <trkpt lat="45.88639" lon="5.09434">
        <ele>253.2</ele>
        <time>2024-09-19T08:01:30Z</time>
      </trkpt>
      <trkpt lat="45.88642" lon="5.09435">
        <ele>253</ele>
        <time>2024-09-19T08:01:31Z</time>
      </trkpt>
      <trkpt lat="45.88645" lon="5.09435">
        <ele>253.2</ele>
        <time>2024-09-19T08:01:32Z</time>
      </trkpt>
      <trkpt lat="45.88649" lon="5.09435">
        <ele>253.8</ele>
        <time>2024-09-19T08:01:33Z</time>
      </trkpt>
      <trkpt lat="45.88653" lon="5.09437">
        <ele>253.8</ele>
        <time>2024-09-19T08:01:34Z</time>
      </trkpt>
      <trkpt lat="45.88656" lon="5.09441">
        <ele>253.4</ele>
        <time>2024-09-19T08:01:35Z</time>
      </trkpt>
      <trkpt lat="45.88659" lon="5.09447">
        <ele>253.2</ele>
        <time>2024-09-19T08:01:36Z</time>
      </trkpt>
      <trkpt lat="45.88662" lon="5.09451">
        <ele>252.8</ele>
        <time>2024-09-19T08:01:37Z</time>
      </trkpt>
      <trkpt lat="45.88666" lon="5.09456">
        <ele>252.8</ele>
        <time>2024-09-19T08:01:38Z</time>
      </trkpt>
      <trkpt lat="45.88669" lon="5.09462">
        <ele>252.2</ele>
        <time>2024-09-19T08:01:39Z</time>
      </trkpt>
      <trkpt lat="45.88672" lon="5.09467">
        <ele>252.2</ele>
        <time>2024-09-19T08:01:40Z</time>
      </trkpt>
      <trkpt lat="45.88674" lon="5.09472">
        <ele>251.8</ele>
        <time>2024-09-19T08:01:41Z</time>
      </trkpt>
      <trkpt lat="45.88678" lon="5.09479">
        <ele>251.2</ele>
        <time>2024-09-19T08:01:42Z</time>
      </trkpt>
      <trkpt lat="45.88681" lon="5.09484">
        <ele>250.8</ele>
        <time>2024-09-19T08:01:43Z</time>
      </trkpt>
      <trkpt lat="45.88684" lon="5.09491">
        <ele>250.6</ele>
        <time>2024-09-19T08:01:44Z</time>
      </trkpt>
      <trkpt lat="45.88686" lon="5.09497">
        <ele>250.2</ele>
        <time>2024-09-19T08:01:45Z</time>
      </trkpt>
      <trkpt lat="45.88688" lon="5.09505">
        <ele>251.2</ele>
        <time>2024-09-19T08:01:46Z</time>
      </trkpt>
      <trkpt lat="45.88689" lon="5.09513">
        <ele>250.6</ele>
        <time>2024-09-19T08:01:47Z</time>
      </trkpt>
      <trkpt lat="45.8869" lon="5.09521">
        <ele>250.2</ele>
        <time>2024-09-19T08:01:48Z</time>
      </trkpt>
      <trkpt lat="45.8869" lon="5.0953">
        <ele>249.6</ele>
        <time>2024-09-19T08:01:49Z</time>
      </trkpt>
      <trkpt lat="45.88691" lon="5.09538">
        <ele>250</ele>
        <time>2024-09-19T08:01:50Z</time>
      </trkpt>
      <trkpt lat="45.88692" lon="5.09546">
        <ele>248.6</ele>
        <time>2024-09-19T08:01:51Z</time>
      </trkpt>
      <trkpt lat="45.88692" lon="5.09554">
        <ele>248.6</ele>
        <time>2024-09-19T08:01:52Z</time>
      </trkpt>
      <trkpt lat="45.88693" lon="5.09561">
        <ele>248</ele>
        <time>2024-09-19T08:01:53Z</time>
      </trkpt>
      <trkpt lat="45.88693" lon="5.09567">
        <ele>248.2</ele>
        <time>2024-09-19T08:01:54Z</time>
      </trkpt>
      <trkpt lat="45.88694" lon="5.09572">
        <ele>248.2</ele>
        <time>2024-09-19T08:01:55Z</time>
      </trkpt>
      <trkpt lat="45.88695" lon="5.09577">
        <ele>247.6</ele>
        <time>2024-09-19T08:01:56Z</time>
      </trkpt>
      <trkpt lat="45.88698" lon="5.09582">
        <ele>247.6</ele>
        <time>2024-09-19T08:01:57Z</time>
      </trkpt>
      <trkpt lat="45.887" lon="5.09586">
        <ele>248.2</ele>
        <time>2024-09-19T08:01:58Z</time>
      </trkpt>
      <trkpt lat="45.88703" lon="5.09591">
        <ele>247.6</ele>
        <time>2024-09-19T08:01:59Z</time>
      </trkpt>
      <trkpt lat="45.88706" lon="5.09594">
        <ele>247.6</ele>
        <time>2024-09-19T08:02:00Z</time>
      </trkpt>
      <trkpt lat="45.8871" lon="5.09597">
        <ele>247.2</ele>
        <time>2024-09-19T08:02:01Z</time>
      </trkpt>
      <trkpt lat="45.88714" lon="5.09601">
        <ele>246.6</ele>
        <time>2024-09-19T08:02:02Z</time>
      </trkpt>
      <trkpt lat="45.88718" lon="5.09606">
        <ele>246</ele>
        <time>2024-09-19T08:02:03Z</time>
      </trkpt>
      <trkpt lat="45.88721" lon="5.09609">
        <ele>246.4</ele>
        <time>2024-09-19T08:02:04Z</time>
      </trkpt>
      <trkpt lat="45.88724" lon="5.09615">
        <ele>246.6</ele>
        <time>2024-09-19T08:02:05Z</time>
      </trkpt>
      <trkpt lat="45.88726" lon="5.09621">
        <ele>246.4</ele>
        <time>2024-09-19T08:02:06Z</time>
      </trkpt>
      <trkpt lat="45.88728" lon="5.09627">
        <ele>246.6</ele>
        <time>2024-09-19T08:02:07Z</time>
      </trkpt>
      <trkpt lat="45.8873" lon="5.09632">
        <ele>246.6</ele>
        <time>2024-09-19T08:02:08Z</time>
      </trkpt>
      <trkpt lat="45.88734" lon="5.09636">
        <ele>246.4</ele>
        <time>2024-09-19T08:02:09Z</time>
      </trkpt>
      <trkpt lat="45.88737" lon="5.09643">
        <ele>246.4</ele>
        <time>2024-09-19T08:02:10Z</time>
      </trkpt>
      <trkpt lat="45.8874" lon="5.09648">
        <ele>247</ele>
        <time>2024-09-19T08:02:11Z</time>
      </trkpt>
      <trkpt lat="45.88744" lon="5.09654">
        <ele>247.2</ele>
        <time>2024-09-19T08:02:12Z</time>
      </trkpt>
      <trkpt lat="45.88746" lon="5.09659">
        <ele>246.6</ele>
        <time>2024-09-19T08:02:13Z</time>
      </trkpt>
      <trkpt lat="45.8875" lon="5.09665">
        <ele>247.2</ele>
        <time>2024-09-19T08:02:14Z</time>
      </trkpt>
      <trkpt lat="45.88754" lon="5.0967">
        <ele>247.6</ele>
        <time>2024-09-19T08:02:15Z</time>
      </trkpt>
      <trkpt lat="45.88756" lon="5.09676">
        <ele>247.6</ele>
        <time>2024-09-19T08:02:16Z</time>
      </trkpt>
      <trkpt lat="45.8876" lon="5.09682">
        <ele>247.4</ele>
        <time>2024-09-19T08:02:17Z</time>
      </trkpt>
      <trkpt lat="45.88762" lon="5.09688">
        <ele>247.4</ele>
        <time>2024-09-19T08:02:18Z</time>
      </trkpt>
      <trkpt lat="45.88764" lon="5.09694">
        <ele>247.4</ele>
        <time>2024-09-19T08:02:19Z</time>
      </trkpt>
      <trkpt lat="45.88767" lon="5.097">
        <ele>247.6</ele>
        <time>2024-09-19T08:02:20Z</time>
      </trkpt>
      <trkpt lat="45.8877" lon="5.09705">
        <ele>247.6</ele>
        <time>2024-09-19T08:02:21Z</time>
      </trkpt>
      <trkpt lat="45.88773" lon="5.09711">
        <ele>248</ele>
        <time>2024-09-19T08:02:22Z</time>
      </trkpt>
      <trkpt lat="45.88776" lon="5.09716">
        <ele>248.4</ele>
        <time>2024-09-19T08:02:23Z</time>
      </trkpt>
      <trkpt lat="45.88779" lon="5.09721">
        <ele>248.6</ele>
        <time>2024-09-19T08:02:24Z</time>
      </trkpt>
      <trkpt lat="45.88779" lon="5.09721">
        <ele>248.6</ele>
        <time>2024-09-19T08:02:25Z</time>
      </trkpt>
      <trkpt lat="45.88779" lon="5.09721">
        <ele>248.6</ele>
        <time>2024-09-19T08:02:26Z</time>
      </trkpt>
      <trkpt lat="45.88786" lon="5.09737">
        <ele>248.6</ele>
        <time>2024-09-19T08:02:27Z</time>
      </trkpt>
      <trkpt lat="45.88789" lon="5.09742">
        <ele>249</ele>
        <time>2024-09-19T08:02:28Z</time>
      </trkpt>
      <trkpt lat="45.88792" lon="5.09746">
        <ele>249.2</ele>
        <time>2024-09-19T08:02:29Z</time>
      </trkpt>
      <trkpt lat="45.88794" lon="5.09752">
        <ele>249.2</ele>
        <time>2024-09-19T08:02:30Z</time>
      </trkpt>
      <trkpt lat="45.88797" lon="5.09756">
        <ele>249.4</ele>
        <time>2024-09-19T08:02:31Z</time>
      </trkpt>
      <trkpt lat="45.88799" lon="5.09761">
        <ele>249.8</ele>
        <time>2024-09-19T08:02:32Z</time>
      </trkpt>
      <trkpt lat="45.88802" lon="5.09765">
        <ele>250.2</ele>
        <time>2024-09-19T08:02:33Z</time>
      </trkpt>
      <trkpt lat="45.88804" lon="5.09768">
        <ele>250.2</ele>
        <time>2024-09-19T08:02:34Z</time>
      </trkpt>
      <trkpt lat="45.88807" lon="5.09772">
        <ele>250.4</ele>
        <time>2024-09-19T08:02:35Z</time>
      </trkpt>
      <trkpt lat="45.88809" lon="5.09775">
        <ele>250.4</ele>
        <time>2024-09-19T08:02:36Z</time>
      </trkpt>
      <trkpt lat="45.88812" lon="5.09779">
        <ele>251</ele>
        <time>2024-09-19T08:02:37Z</time>
      </trkpt>
      <trkpt lat="45.88815" lon="5.09781">
        <ele>251.2</ele>
        <time>2024-09-19T08:02:38Z</time>
      </trkpt>
      <trkpt lat="45.88818" lon="5.09784">
        <ele>251.2</ele>
        <time>2024-09-19T08:02:39Z</time>
      </trkpt>
      <trkpt lat="45.8882" lon="5.09787">
        <ele>251.6</ele>
        <time>2024-09-19T08:02:40Z</time>
      </trkpt>
      <trkpt lat="45.88822" lon="5.0979">
        <ele>251.6</ele>
        <time>2024-09-19T08:02:41Z</time>
      </trkpt>
      <trkpt lat="45.88825" lon="5.09793">
        <ele>251.6</ele>
        <time>2024-09-19T08:02:42Z</time>
      </trkpt>
      <trkpt lat="45.88827" lon="5.09796">
        <ele>251.8</ele>
        <time>2024-09-19T08:02:43Z</time>
      </trkpt>
      <trkpt lat="45.88829" lon="5.09799">
        <ele>251.8</ele>
        <time>2024-09-19T08:02:44Z</time>
      </trkpt>
      <trkpt lat="45.88831" lon="5.09802">
        <ele>251.8</ele>
        <time>2024-09-19T08:02:45Z</time>
      </trkpt>
      <trkpt lat="45.88833" lon="5.09804">
        <ele>251.8</ele>
        <time>2024-09-19T08:02:46Z</time>
      </trkpt>
      <trkpt lat="45.88836" lon="5.09806">
        <ele>252.2</ele>
        <time>2024-09-19T08:02:47Z</time>
      </trkpt>
      <trkpt lat="45.88838" lon="5.09809">
        <ele>252.4</ele>
        <time>2024-09-19T08:02:48Z</time>
      </trkpt>
      <trkpt lat="45.88839" lon="5.09811">
        <ele>253</ele>
        <time>2024-09-19T08:02:49Z</time>
      </trkpt>
      <trkpt lat="45.88841" lon="5.09813">
        <ele>253</ele>
        <time>2024-09-19T08:02:50Z</time>
      </trkpt>
      <trkpt lat="45.88843" lon="5.09816">
        <ele>253.6</ele>
        <time>2024-09-19T08:02:51Z</time>
      </trkpt>
      <trkpt lat="45.88843" lon="5.09816">
        <ele>254</ele>
        <time>2024-09-19T08:02:52Z</time>
      </trkpt>
      <trkpt lat="45.88845" lon="5.09818">
        <ele>253.6</ele>
        <time>2024-09-19T08:02:53Z</time>
      </trkpt>
      <trkpt lat="45.88846" lon="5.09821">
        <ele>254</ele>
        <time>2024-09-19T08:02:54Z</time>
      </trkpt>
      <trkpt lat="45.88848" lon="5.09824">
        <ele>254</ele>
        <time>2024-09-19T08:02:55Z</time>
      </trkpt>
      <trkpt lat="45.8885" lon="5.09825">
        <ele>254.4</ele>
        <time>2024-09-19T08:02:56Z</time>
      </trkpt>
      <trkpt lat="45.88851" lon="5.09827">
        <ele>254.6</ele>
        <time>2024-09-19T08:02:57Z</time>
      </trkpt>
      <trkpt lat="45.88854" lon="5.09829">
        <ele>255</ele>
        <time>2024-09-19T08:02:58Z</time>
      </trkpt>
      <trkpt lat="45.88856" lon="5.0983">
        <ele>255</ele>
        <time>2024-09-19T08:02:59Z</time>
      </trkpt>
      <trkpt lat="45.88858" lon="5.09831">
        <ele>255.4</ele>
        <time>2024-09-19T08:03:00Z</time>
      </trkpt>
      <trkpt lat="45.88858" lon="5.09831">
        <ele>255</ele>
        <time>2024-09-19T08:03:01Z</time>
      </trkpt>
      <trkpt lat="45.88867" lon="5.0983">
        <ele>255.4</ele>
        <time>2024-09-19T08:03:02Z</time>
      </trkpt>
      <trkpt lat="45.88869" lon="5.0983">
        <ele>255.4</ele>
        <time>2024-09-19T08:03:03Z</time>
      </trkpt>
      <trkpt lat="45.88871" lon="5.09829">
        <ele>255.8</ele>
        <time>2024-09-19T08:03:04Z</time>
      </trkpt>
      <trkpt lat="45.88873" lon="5.09828">
        <ele>255.6</ele>
        <time>2024-09-19T08:03:05Z</time>
      </trkpt>
      <trkpt lat="45.88875" lon="5.09826">
        <ele>256.2</ele>
        <time>2024-09-19T08:03:06Z</time>
      </trkpt>
      <trkpt lat="45.88877" lon="5.09826">
        <ele>256.6</ele>
        <time>2024-09-19T08:03:07Z</time>
      </trkpt>
      <trkpt lat="45.88879" lon="5.09827">
        <ele>256.8</ele>
        <time>2024-09-19T08:03:08Z</time>
      </trkpt>
      <trkpt lat="45.88881" lon="5.09829">
        <ele>257.2</ele>
        <time>2024-09-19T08:03:09Z</time>
      </trkpt>
      <trkpt lat="45.88883" lon="5.09832">
        <ele>257.2</ele>
        <time>2024-09-19T08:03:10Z</time>
      </trkpt>
      <trkpt lat="45.88884" lon="5.09836">
        <ele>257.4</ele>
        <time>2024-09-19T08:03:11Z</time>
      </trkpt>
      <trkpt lat="45.88886" lon="5.0984">
        <ele>257.4</ele>
        <time>2024-09-19T08:03:12Z</time>
      </trkpt>
      <trkpt lat="45.88888" lon="5.09844">
        <ele>257.4</ele>
        <time>2024-09-19T08:03:13Z</time>
      </trkpt>
      <trkpt lat="45.8889" lon="5.09848">
        <ele>257</ele>
        <time>2024-09-19T08:03:14Z</time>
      </trkpt>
      <trkpt lat="45.88893" lon="5.09852">
        <ele>257.2</ele>
        <time>2024-09-19T08:03:15Z</time>
      </trkpt>
      <trkpt lat="45.88895" lon="5.09856">
        <ele>257.2</ele>
        <time>2024-09-19T08:03:16Z</time>
      </trkpt>
      <trkpt lat="45.88898" lon="5.0986">
        <ele>258</ele>
        <time>2024-09-19T08:03:17Z</time>
      </trkpt>
      <trkpt lat="45.889" lon="5.09865">
        <ele>258</ele>
        <time>2024-09-19T08:03:18Z</time>
      </trkpt>
      <trkpt lat="45.88902" lon="5.09871">
        <ele>258.2</ele>
        <time>2024-09-19T08:03:19Z</time>
      </trkpt>
      <trkpt lat="45.88904" lon="5.09876">
        <ele>257.6</ele>
        <time>2024-09-19T08:03:20Z</time>
      </trkpt>
      <trkpt lat="45.88906" lon="5.09882">
        <ele>257.6</ele>
        <time>2024-09-19T08:03:21Z</time>
      </trkpt>
      <trkpt lat="45.88908" lon="5.09888">
        <ele>257.6</ele>
        <time>2024-09-19T08:03:22Z</time>
      </trkpt>
      <trkpt lat="45.88909" lon="5.09894">
        <ele>257.4</ele>
        <time>2024-09-19T08:03:23Z</time>
      </trkpt>
      <trkpt lat="45.88911" lon="5.09898">
        <ele>256.6</ele>
        <time>2024-09-19T08:03:24Z</time>
      </trkpt>
      <trkpt lat="45.88913" lon="5.09905">
        <ele>256.2</ele>
        <time>2024-09-19T08:03:25Z</time>
      </trkpt>
      <trkpt lat="45.88915" lon="5.0991">
        <ele>256.8</ele>
        <time>2024-09-19T08:03:26Z</time>
      </trkpt>
      <trkpt lat="45.88918" lon="5.09914">
        <ele>256.8</ele>
        <time>2024-09-19T08:03:27Z</time>
      </trkpt>
      <trkpt lat="45.88921" lon="5.09917">
        <ele>256.4</ele>
        <time>2024-09-19T08:03:28Z</time>
      </trkpt>
      <trkpt lat="45.88924" lon="5.0992">
        <ele>256.4</ele>
        <time>2024-09-19T08:03:29Z</time>
      </trkpt>
      <trkpt lat="45.88926" lon="5.09922">
        <ele>256.8</ele>
        <time>2024-09-19T08:03:30Z</time>
      </trkpt>
      <trkpt lat="45.8893" lon="5.09925">
        <ele>256.8</ele>
        <time>2024-09-19T08:03:31Z</time>
      </trkpt>
      <trkpt lat="45.88932" lon="5.09928">
        <ele>256</ele>
        <time>2024-09-19T08:03:32Z</time>
      </trkpt>
      <trkpt lat="45.88936" lon="5.09936">
        <ele>256.6</ele>
        <time>2024-09-19T08:03:33Z</time>
      </trkpt>
      <trkpt lat="45.88938" lon="5.0994">
        <ele>256.8</ele>
        <time>2024-09-19T08:03:34Z</time>
      </trkpt>
      <trkpt lat="45.88939" lon="5.09945">
        <ele>256.8</ele>
        <time>2024-09-19T08:03:35Z</time>
      </trkpt>
      <trkpt lat="45.8894" lon="5.09951">
        <ele>256.4</ele>
        <time>2024-09-19T08:03:36Z</time>
      </trkpt>
      <trkpt lat="45.88942" lon="5.09956">
        <ele>255.6</ele>
        <time>2024-09-19T08:03:37Z</time>
      </trkpt>
      <trkpt lat="45.88943" lon="5.09962">
        <ele>255.8</ele>
        <time>2024-09-19T08:03:38Z</time>
      </trkpt>
      <trkpt lat="45.88945" lon="5.09969">
        <ele>256</ele>
        <time>2024-09-19T08:03:39Z</time>
      </trkpt>
      <trkpt lat="45.88947" lon="5.09976">
        <ele>256</ele>
        <time>2024-09-19T08:03:40Z</time>
      </trkpt>
      <trkpt lat="45.8895" lon="5.09981">
        <ele>256</ele>
        <time>2024-09-19T08:03:41Z</time>
      </trkpt>
      <trkpt lat="45.88951" lon="5.09989">
        <ele>256</ele>
        <time>2024-09-19T08:03:42Z</time>
      </trkpt>
      <trkpt lat="45.88952" lon="5.09995">
        <ele>255.6</ele>
        <time>2024-09-19T08:03:43Z</time>
      </trkpt>
      <trkpt lat="45.88953" lon="5.10002">
        <ele>255.4</ele>
        <time>2024-09-19T08:03:44Z</time>
      </trkpt>
      <trkpt lat="45.88953" lon="5.10009">
        <ele>255.4</ele>
        <time>2024-09-19T08:03:45Z</time>
      </trkpt>
      <trkpt lat="45.88955" lon="5.10017">
        <ele>254.8</ele>
        <time>2024-09-19T08:03:46Z</time>
      </trkpt>
      <trkpt lat="45.88956" lon="5.10023">
        <ele>254.8</ele>
        <time>2024-09-19T08:03:47Z</time>
      </trkpt>
      <trkpt lat="45.88958" lon="5.1003">
        <ele>254.8</ele>
        <time>2024-09-19T08:03:48Z</time>
      </trkpt>
      <trkpt lat="45.8896" lon="5.10037">
        <ele>254.8</ele>
        <time>2024-09-19T08:03:49Z</time>
      </trkpt>
      <trkpt lat="45.88962" lon="5.10044">
        <ele>255.2</ele>
        <time>2024-09-19T08:03:50Z</time>
      </trkpt>
      <trkpt lat="45.88965" lon="5.10052">
        <ele>255</ele>
        <time>2024-09-19T08:03:51Z</time>
      </trkpt>
      <trkpt lat="45.88967" lon="5.10059">
        <ele>255</ele>
        <time>2024-09-19T08:03:52Z</time>
      </trkpt>
      <trkpt lat="45.88968" lon="5.10066">
        <ele>254.6</ele>
        <time>2024-09-19T08:03:53Z</time>
      </trkpt>
      <trkpt lat="45.88971" lon="5.10071">
        <ele>254.4</ele>
        <time>2024-09-19T08:03:54Z</time>
      </trkpt>
      <trkpt lat="45.88972" lon="5.10076">
        <ele>255</ele>
        <time>2024-09-19T08:03:55Z</time>
      </trkpt>
      <trkpt lat="45.88973" lon="5.10079">
        <ele>255</ele>
        <time>2024-09-19T08:03:56Z</time>
      </trkpt>
      <trkpt lat="45.8897" lon="5.10079">
        <ele>255.4</ele>
        <time>2024-09-19T08:03:57Z</time>
      </trkpt>
      <trkpt lat="45.88971" lon="5.1008">
        <ele>255.4</ele>
        <time>2024-09-19T08:03:58Z</time>
      </trkpt>
      <trkpt lat="45.88971" lon="5.10081">
        <ele>255.4</ele>
        <time>2024-09-19T08:03:59Z</time>
      </trkpt>
      <trkpt lat="45.8897" lon="5.10081">
        <ele>255.6</ele>
        <time>2024-09-19T08:04:00Z</time>
      </trkpt>
      <trkpt lat="45.8897" lon="5.10087">
        <ele>255.4</ele>
        <time>2024-09-19T08:04:26Z</time>
      </trkpt>
      <trkpt lat="45.8897" lon="5.10089">
        <ele>255.4</ele>
        <time>2024-09-19T08:04:27Z</time>
      </trkpt>
      <trkpt lat="45.8897" lon="5.10093">
        <ele>254.8</ele>
        <time>2024-09-19T08:04:28Z</time>
      </trkpt>
      <trkpt lat="45.8897" lon="5.10098">
        <ele>254.8</ele>
        <time>2024-09-19T08:04:29Z</time>
      </trkpt>
      <trkpt lat="45.88971" lon="5.10103">
        <ele>255</ele>
        <time>2024-09-19T08:04:30Z</time>
      </trkpt>
      <trkpt lat="45.88971" lon="5.10109">
        <ele>255</ele>
        <time>2024-09-19T08:04:31Z</time>
      </trkpt>
      <trkpt lat="45.88972" lon="5.10115">
        <ele>255</ele>
        <time>2024-09-19T08:04:32Z</time>
      </trkpt>
      <trkpt lat="45.8897" lon="5.10122">
        <ele>254.8</ele>
        <time>2024-09-19T08:04:33Z</time>
      </trkpt>
      <trkpt lat="45.88972" lon="5.10128">
        <ele>254.4</ele>
        <time>2024-09-19T08:04:34Z</time>
      </trkpt>
      <trkpt lat="45.88972" lon="5.10134">
        <ele>254.8</ele>
        <time>2024-09-19T08:04:35Z</time>
      </trkpt>
      <trkpt lat="45.88973" lon="5.1014">
        <ele>254.8</ele>
        <time>2024-09-19T08:04:36Z</time>
      </trkpt>
      <trkpt lat="45.88973" lon="5.10147">
        <ele>255.2</ele>
        <time>2024-09-19T08:04:37Z</time>
      </trkpt>
      <trkpt lat="45.88974" lon="5.10152">
        <ele>255.4</ele>
        <time>2024-09-19T08:04:38Z</time>
      </trkpt>
      <trkpt lat="45.88975" lon="5.10157">
        <ele>254.4</ele>
        <time>2024-09-19T08:04:39Z</time>
      </trkpt>
      <trkpt lat="45.88976" lon="5.10162">
        <ele>255.4</ele>
        <time>2024-09-19T08:04:40Z</time>
      </trkpt>
      <trkpt lat="45.88976" lon="5.10168">
        <ele>256.4</ele>
        <time>2024-09-19T08:04:41Z</time>
      </trkpt>
      <trkpt lat="45.88977" lon="5.10175">
        <ele>257</ele>
        <time>2024-09-19T08:04:42Z</time>
      </trkpt>
      <trkpt lat="45.88977" lon="5.10181">
        <ele>257.2</ele>
        <time>2024-09-19T08:04:43Z</time>
      </trkpt>
      <trkpt lat="45.88978" lon="5.10189">
        <ele>255.8</ele>
        <time>2024-09-19T08:04:44Z</time>
      </trkpt>
      <trkpt lat="45.88979" lon="5.10194">
        <ele>255</ele>
        <time>2024-09-19T08:04:45Z</time>
      </trkpt>
      <trkpt lat="45.8898" lon="5.10202">
        <ele>255.6</ele>
        <time>2024-09-19T08:04:46Z</time>
      </trkpt>
      <trkpt lat="45.88982" lon="5.10209">
        <ele>256</ele>
        <time>2024-09-19T08:04:47Z</time>
      </trkpt>
      <trkpt lat="45.88983" lon="5.10216">
        <ele>256.6</ele>
        <time>2024-09-19T08:04:48Z</time>
      </trkpt>
      <trkpt lat="45.88983" lon="5.10222">
        <ele>256.6</ele>
        <time>2024-09-19T08:04:49Z</time>
      </trkpt>
      <trkpt lat="45.88985" lon="5.10227">
        <ele>256.6</ele>
        <time>2024-09-19T08:04:50Z</time>
      </trkpt>
      <trkpt lat="45.88986" lon="5.10232">
        <ele>257</ele>
        <time>2024-09-19T08:04:51Z</time>
      </trkpt>
      <trkpt lat="45.88987" lon="5.10239">
        <ele>257.4</ele>
        <time>2024-09-19T08:04:52Z</time>
      </trkpt>
      <trkpt lat="45.88988" lon="5.10245">
        <ele>258</ele>
        <time>2024-09-19T08:04:53Z</time>
      </trkpt>
      <trkpt lat="45.8899" lon="5.10252">
        <ele>258</ele>
        <time>2024-09-19T08:04:54Z</time>
      </trkpt>
      <trkpt lat="45.8899" lon="5.10259">
        <ele>258</ele>
        <time>2024-09-19T08:04:55Z</time>
      </trkpt>
      <trkpt lat="45.88991" lon="5.10265">
        <ele>258.6</ele>
        <time>2024-09-19T08:04:56Z</time>
      </trkpt>
      <trkpt lat="45.88993" lon="5.10275">
        <ele>259</ele>
        <time>2024-09-19T08:04:57Z</time>
      </trkpt>
      <trkpt lat="45.88995" lon="5.10281">
        <ele>259</ele>
        <time>2024-09-19T08:04:58Z</time>
      </trkpt>
      <trkpt lat="45.88995" lon="5.10284">
        <ele>258.6</ele>
        <time>2024-09-19T08:04:59Z</time>
      </trkpt>
      <trkpt lat="45.88998" lon="5.10292">
        <ele>258.6</ele>
        <time>2024-09-19T08:05:00Z</time>
      </trkpt>
      <trkpt lat="45.89" lon="5.10298">
        <ele>258.6</ele>
        <time>2024-09-19T08:05:01Z</time>
      </trkpt>
      <trkpt lat="45.89" lon="5.10303">
        <ele>259</ele>
        <time>2024-09-19T08:05:02Z</time>
      </trkpt>
      <trkpt lat="45.89" lon="5.10311">
        <ele>258.2</ele>
        <time>2024-09-19T08:05:03Z</time>
      </trkpt>
      <trkpt lat="45.88999" lon="5.10317">
        <ele>257.4</ele>
        <time>2024-09-19T08:05:04Z</time>
      </trkpt>
      <trkpt lat="45.88999" lon="5.10325">
        <ele>257.4</ele>
        <time>2024-09-19T08:05:05Z</time>
      </trkpt>
      <trkpt lat="45.88999" lon="5.10333">
        <ele>257.4</ele>
        <time>2024-09-19T08:05:06Z</time>
      </trkpt>
      <trkpt lat="45.88999" lon="5.1034">
        <ele>257.6</ele>
        <time>2024-09-19T08:05:07Z</time>
      </trkpt>
      <trkpt lat="45.88998" lon="5.10347">
        <ele>257.6</ele>
        <time>2024-09-19T08:05:08Z</time>
      </trkpt>
      <trkpt lat="45.88998" lon="5.10355">
        <ele>258</ele>
        <time>2024-09-19T08:05:09Z</time>
      </trkpt>
      <trkpt lat="45.89" lon="5.10363">
        <ele>258.2</ele>
        <time>2024-09-19T08:05:10Z</time>
      </trkpt>
      <trkpt lat="45.89" lon="5.10368">
        <ele>257.8</ele>
        <time>2024-09-19T08:05:11Z</time>
      </trkpt>
      <trkpt lat="45.89" lon="5.10378">
        <ele>256.6</ele>
        <time>2024-09-19T08:05:12Z</time>
      </trkpt>
      <trkpt lat="45.89001" lon="5.10385">
        <ele>255.8</ele>
        <time>2024-09-19T08:05:13Z</time>
      </trkpt>
      <trkpt lat="45.89001" lon="5.10394">
        <ele>255.4</ele>
        <time>2024-09-19T08:05:14Z</time>
      </trkpt>
      <trkpt lat="45.89" lon="5.10401">
        <ele>256.2</ele>
        <time>2024-09-19T08:05:15Z</time>
      </trkpt>
      <trkpt lat="45.89" lon="5.10408">
        <ele>256.2</ele>
        <time>2024-09-19T08:05:16Z</time>
      </trkpt>
      <trkpt lat="45.89" lon="5.10415">
        <ele>256.2</ele>
        <time>2024-09-19T08:05:17Z</time>
      </trkpt>
      <trkpt lat="45.88999" lon="5.10423">
        <ele>256.2</ele>
        <time>2024-09-19T08:05:18Z</time>
      </trkpt>
      <trkpt lat="45.88999" lon="5.1043">
        <ele>255.6</ele>
        <time>2024-09-19T08:05:19Z</time>
      </trkpt>
      <trkpt lat="45.88998" lon="5.10435">
        <ele>255</ele>
        <time>2024-09-19T08:05:20Z</time>
      </trkpt>
      <trkpt lat="45.88997" lon="5.10444">
        <ele>255</ele>
        <time>2024-09-19T08:05:21Z</time>
      </trkpt>
      <trkpt lat="45.88996" lon="5.10452">
        <ele>255</ele>
        <time>2024-09-19T08:05:22Z</time>
      </trkpt>
      <trkpt lat="45.88996" lon="5.10459">
        <ele>255</ele>
        <time>2024-09-19T08:05:23Z</time>
      </trkpt>
      <trkpt lat="45.88996" lon="5.10469">
        <ele>255.4</ele>
        <time>2024-09-19T08:05:24Z</time>
      </trkpt>
      <trkpt lat="45.88996" lon="5.10469">
        <ele>255.4</ele>
        <time>2024-09-19T08:05:25Z</time>
      </trkpt>
      <trkpt lat="45.88996" lon="5.10474">
        <ele>255.4</ele>
        <time>2024-09-19T08:05:26Z</time>
      </trkpt>
      <trkpt lat="45.88996" lon="5.10483">
        <ele>254.8</ele>
        <time>2024-09-19T08:05:27Z</time>
      </trkpt>
      <trkpt lat="45.88996" lon="5.1049">
        <ele>254.2</ele>
        <time>2024-09-19T08:05:28Z</time>
      </trkpt>
      <trkpt lat="45.88997" lon="5.10498">
        <ele>254.8</ele>
        <time>2024-09-19T08:05:29Z</time>
      </trkpt>
      <trkpt lat="45.88998" lon="5.10505">
        <ele>254.8</ele>
        <time>2024-09-19T08:05:30Z</time>
      </trkpt>
      <trkpt lat="45.88999" lon="5.10512">
        <ele>254</ele>
        <time>2024-09-19T08:05:31Z</time>
      </trkpt>
      <trkpt lat="45.89" lon="5.10518">
        <ele>253</ele>
        <time>2024-09-19T08:05:32Z</time>
      </trkpt>
      <trkpt lat="45.89002" lon="5.10523">
        <ele>253.2</ele>
        <time>2024-09-19T08:05:33Z</time>
      </trkpt>
      <trkpt lat="45.89003" lon="5.1053">
        <ele>253.8</ele>
        <time>2024-09-19T08:05:34Z</time>
      </trkpt>
      <trkpt lat="45.89003" lon="5.10535">
        <ele>254.4</ele>
        <time>2024-09-19T08:05:35Z</time>
      </trkpt>
      <trkpt lat="45.89" lon="5.1054">
        <ele>255.2</ele>
        <time>2024-09-19T08:05:36Z</time>
      </trkpt>
      <trkpt lat="45.89002" lon="5.10553">
        <ele>254.8</ele>
        <time>2024-09-19T08:05:37Z</time>
      </trkpt>
      <trkpt lat="45.89" lon="5.1056">
        <ele>253.2</ele>
        <time>2024-09-19T08:05:38Z</time>
      </trkpt>
      <trkpt lat="45.88999" lon="5.10567">
        <ele>254</ele>
        <time>2024-09-19T08:05:39Z</time>
      </trkpt>
      <trkpt lat="45.88998" lon="5.10573">
        <ele>254.4</ele>
        <time>2024-09-19T08:05:40Z</time>
      </trkpt>
      <trkpt lat="45.88997" lon="5.10578">
        <ele>254.6</ele>
        <time>2024-09-19T08:05:41Z</time>
      </trkpt>
      <trkpt lat="45.88996" lon="5.10584">
        <ele>255.4</ele>
        <time>2024-09-19T08:05:42Z</time>
      </trkpt>
      <trkpt lat="45.88993" lon="5.10588">
        <ele>255.4</ele>
        <time>2024-09-19T08:05:43Z</time>
      </trkpt>
      <trkpt lat="45.8899" lon="5.10594">
        <ele>254.8</ele>
        <time>2024-09-19T08:05:44Z</time>
      </trkpt>
      <trkpt lat="45.88987" lon="5.10601">
        <ele>255.8</ele>
        <time>2024-09-19T08:05:45Z</time>
      </trkpt>
      <trkpt lat="45.88985" lon="5.10606">
        <ele>254.6</ele>
        <time>2024-09-19T08:05:46Z</time>
      </trkpt>
      <trkpt lat="45.88982" lon="5.10613">
        <ele>254.6</ele>
        <time>2024-09-19T08:05:47Z</time>
      </trkpt>
      <trkpt lat="45.88979" lon="5.10619">
        <ele>255</ele>
        <time>2024-09-19T08:05:48Z</time>
      </trkpt>
      <trkpt lat="45.88977" lon="5.10628">
        <ele>255.4</ele>
        <time>2024-09-19T08:05:49Z</time>
      </trkpt>
      <trkpt lat="45.88977" lon="5.10635">
        <ele>254.8</ele>
        <time>2024-09-19T08:05:50Z</time>
      </trkpt>
      <trkpt lat="45.88976" lon="5.10642">
        <ele>254.8</ele>
        <time>2024-09-19T08:05:51Z</time>
      </trkpt>
      <trkpt lat="45.88976" lon="5.10649">
        <ele>254.8</ele>
        <time>2024-09-19T08:05:52Z</time>
      </trkpt>
      <trkpt lat="45.88975" lon="5.10656">
        <ele>254.6</ele>
        <time>2024-09-19T08:05:53Z</time>
      </trkpt>
      <trkpt lat="45.88975" lon="5.10663">
        <ele>254.6</ele>
        <time>2024-09-19T08:05:54Z</time>
      </trkpt>
      <trkpt lat="45.88974" lon="5.10671">
        <ele>254</ele>
        <time>2024-09-19T08:05:55Z</time>
      </trkpt>
      <trkpt lat="45.88974" lon="5.10678">
        <ele>254.4</ele>
        <time>2024-09-19T08:05:56Z</time>
      </trkpt>
      <trkpt lat="45.88974" lon="5.10685">
        <ele>254.4</ele>
        <time>2024-09-19T08:05:57Z</time>
      </trkpt>
      <trkpt lat="45.88976" lon="5.10692">
        <ele>254.2</ele>
        <time>2024-09-19T08:05:58Z</time>
      </trkpt>
      <trkpt lat="45.88978" lon="5.10698">
        <ele>254.4</ele>
        <time>2024-09-19T08:05:59Z</time>
      </trkpt>
      <trkpt lat="45.8898" lon="5.10705">
        <ele>253.8</ele>
        <time>2024-09-19T08:06:00Z</time>
      </trkpt>
      <trkpt lat="45.88982" lon="5.1071">
        <ele>254.4</ele>
        <time>2024-09-19T08:06:01Z</time>
      </trkpt>
      <trkpt lat="45.88986" lon="5.10715">
        <ele>255.4</ele>
        <time>2024-09-19T08:06:02Z</time>
      </trkpt>
      <trkpt lat="45.88989" lon="5.10719">
        <ele>255.2</ele>
        <time>2024-09-19T08:06:03Z</time>
      </trkpt>
      <trkpt lat="45.88993" lon="5.10724">
        <ele>254.6</ele>
        <time>2024-09-19T08:06:04Z</time>
      </trkpt>
      <trkpt lat="45.88996" lon="5.10727">
        <ele>255.4</ele>
        <time>2024-09-19T08:06:05Z</time>
      </trkpt>
      <trkpt lat="45.89" lon="5.10731">
        <ele>255.2</ele>
        <time>2024-09-19T08:06:06Z</time>
      </trkpt>
      <trkpt lat="45.89003" lon="5.10736">
        <ele>255.2</ele>
        <time>2024-09-19T08:06:07Z</time>
      </trkpt>
      <trkpt lat="45.89006" lon="5.10739">
        <ele>255.6</ele>
        <time>2024-09-19T08:06:08Z</time>
      </trkpt>
      <trkpt lat="45.89009" lon="5.10743">
        <ele>255.6</ele>
        <time>2024-09-19T08:06:09Z</time>
      </trkpt>
      <trkpt lat="45.89011" lon="5.10747">
        <ele>256.2</ele>
        <time>2024-09-19T08:06:10Z</time>
      </trkpt>
      <trkpt lat="45.89013" lon="5.1075">
        <ele>256.2</ele>
        <time>2024-09-19T08:06:11Z</time>
      </trkpt>
      <trkpt lat="45.89015" lon="5.10754">
        <ele>256.2</ele>
        <time>2024-09-19T08:06:12Z</time>
      </trkpt>
      <trkpt lat="45.89018" lon="5.10757">
        <ele>256.8</ele>
        <time>2024-09-19T08:06:13Z</time>
      </trkpt>
      <trkpt lat="45.8902" lon="5.1076">
        <ele>257.4</ele>
        <time>2024-09-19T08:06:14Z</time>
      </trkpt>
      <trkpt lat="45.89023" lon="5.10764">
        <ele>257.8</ele>
        <time>2024-09-19T08:06:15Z</time>
      </trkpt>
      <trkpt lat="45.89025" lon="5.10767">
        <ele>258.2</ele>
        <time>2024-09-19T08:06:16Z</time>
      </trkpt>
      <trkpt lat="45.89027" lon="5.1077">
        <ele>258.2</ele>
        <time>2024-09-19T08:06:17Z</time>
      </trkpt>
      <trkpt lat="45.89029" lon="5.10773">
        <ele>258.4</ele>
        <time>2024-09-19T08:06:18Z</time>
      </trkpt>
      <trkpt lat="45.89031" lon="5.10776">
        <ele>258.4</ele>
        <time>2024-09-19T08:06:19Z</time>
      </trkpt>
      <trkpt lat="45.89033" lon="5.10779">
        <ele>258.4</ele>
        <time>2024-09-19T08:06:20Z</time>
      </trkpt>
      <trkpt lat="45.89035" lon="5.10782">
        <ele>259</ele>
        <time>2024-09-19T08:06:21Z</time>
      </trkpt>
      <trkpt lat="45.89037" lon="5.10785">
        <ele>259</ele>
        <time>2024-09-19T08:06:22Z</time>
      </trkpt>
      <trkpt lat="45.89038" lon="5.10789">
        <ele>259</ele>
        <time>2024-09-19T08:06:23Z</time>
      </trkpt>
      <trkpt lat="45.8904" lon="5.10792">
        <ele>259</ele>
        <time>2024-09-19T08:06:24Z</time>
      </trkpt>
      <trkpt lat="45.89041" lon="5.10797">
        <ele>259.2</ele>
        <time>2024-09-19T08:06:25Z</time>
      </trkpt>
      <trkpt lat="45.89043" lon="5.10801">
        <ele>259</ele>
        <time>2024-09-19T08:06:26Z</time>
      </trkpt>
      <trkpt lat="45.89044" lon="5.10806">
        <ele>259</ele>
        <time>2024-09-19T08:06:27Z</time>
      </trkpt>
      <trkpt lat="45.89046" lon="5.10811">
        <ele>259</ele>
        <time>2024-09-19T08:06:28Z</time>
      </trkpt>
      <trkpt lat="45.89048" lon="5.10816">
        <ele>259</ele>
        <time>2024-09-19T08:06:29Z</time>
      </trkpt>
      <trkpt lat="45.8905" lon="5.10821">
        <ele>259</ele>
        <time>2024-09-19T08:06:30Z</time>
      </trkpt>
      <trkpt lat="45.89053" lon="5.10826">
        <ele>259</ele>
        <time>2024-09-19T08:06:31Z</time>
      </trkpt>
      <trkpt lat="45.89056" lon="5.10831">
        <ele>258.8</ele>
        <time>2024-09-19T08:06:32Z</time>
      </trkpt>
      <trkpt lat="45.89059" lon="5.10837">
        <ele>258.8</ele>
        <time>2024-09-19T08:06:33Z</time>
      </trkpt>
      <trkpt lat="45.89063" lon="5.10842">
        <ele>258</ele>
        <time>2024-09-19T08:06:34Z</time>
      </trkpt>
      <trkpt lat="45.89067" lon="5.10847">
        <ele>257.6</ele>
        <time>2024-09-19T08:06:35Z</time>
      </trkpt>
      <trkpt lat="45.89071" lon="5.10851">
        <ele>257.6</ele>
        <time>2024-09-19T08:06:36Z</time>
      </trkpt>
      <trkpt lat="45.89076" lon="5.10857">
        <ele>257.6</ele>
        <time>2024-09-19T08:06:37Z</time>
      </trkpt>
      <trkpt lat="45.8908" lon="5.10863">
        <ele>257.2</ele>
        <time>2024-09-19T08:06:38Z</time>
      </trkpt>
      <trkpt lat="45.89084" lon="5.10868">
        <ele>256.2</ele>
        <time>2024-09-19T08:06:39Z</time>
      </trkpt>
      <trkpt lat="45.89088" lon="5.10874">
        <ele>256.4</ele>
        <time>2024-09-19T08:06:40Z</time>
      </trkpt>
      <trkpt lat="45.89092" lon="5.10881">
        <ele>255.8</ele>
        <time>2024-09-19T08:06:41Z</time>
      </trkpt>
      <trkpt lat="45.89096" lon="5.10887">
        <ele>255.4</ele>
        <time>2024-09-19T08:06:42Z</time>
      </trkpt>
      <trkpt lat="45.89099" lon="5.10893">
        <ele>255</ele>
        <time>2024-09-19T08:06:43Z</time>
      </trkpt>
      <trkpt lat="45.89103" lon="5.109">
        <ele>255.4</ele>
        <time>2024-09-19T08:06:44Z</time>
      </trkpt>
      <trkpt lat="45.89106" lon="5.10906">
        <ele>255.4</ele>
        <time>2024-09-19T08:06:45Z</time>
      </trkpt>
      <trkpt lat="45.89109" lon="5.10913">
        <ele>255.4</ele>
        <time>2024-09-19T08:06:46Z</time>
      </trkpt>
      <trkpt lat="45.89112" lon="5.1092">
        <ele>255</ele>
        <time>2024-09-19T08:06:47Z</time>
      </trkpt>
      <trkpt lat="45.89114" lon="5.10927">
        <ele>255.4</ele>
        <time>2024-09-19T08:06:48Z</time>
      </trkpt>
      <trkpt lat="45.89117" lon="5.10933">
        <ele>255.4</ele>
        <time>2024-09-19T08:06:49Z</time>
      </trkpt>
      <trkpt lat="45.89119" lon="5.1094">
        <ele>254.8</ele>
        <time>2024-09-19T08:06:50Z</time>
      </trkpt>
      <trkpt lat="45.8912" lon="5.10947">
        <ele>254.8</ele>
        <time>2024-09-19T08:06:51Z</time>
      </trkpt>
      <trkpt lat="45.89121" lon="5.10956">
        <ele>255.8</ele>
        <time>2024-09-19T08:06:52Z</time>
      </trkpt>
      <trkpt lat="45.8912" lon="5.10964">
        <ele>255.8</ele>
        <time>2024-09-19T08:06:53Z</time>
      </trkpt>
      <trkpt lat="45.8912" lon="5.1097">
        <ele>256</ele>
        <time>2024-09-19T08:06:54Z</time>
      </trkpt>
      <trkpt lat="45.89119" lon="5.10979">
        <ele>255.8</ele>
        <time>2024-09-19T08:06:55Z</time>
      </trkpt>
      <trkpt lat="45.89119" lon="5.10984">
        <ele>255.8</ele>
        <time>2024-09-19T08:06:56Z</time>
      </trkpt>
      <trkpt lat="45.89117" lon="5.10991">
        <ele>256</ele>
        <time>2024-09-19T08:06:57Z</time>
      </trkpt>
      <trkpt lat="45.89115" lon="5.10997">
        <ele>255.8</ele>
        <time>2024-09-19T08:06:58Z</time>
      </trkpt>
      <trkpt lat="45.89114" lon="5.11004">
        <ele>255.8</ele>
        <time>2024-09-19T08:06:59Z</time>
      </trkpt>
      <trkpt lat="45.89113" lon="5.11011">
        <ele>256.2</ele>
        <time>2024-09-19T08:07:00Z</time>
      </trkpt>
      <trkpt lat="45.89111" lon="5.11018">
        <ele>256.8</ele>
        <time>2024-09-19T08:07:01Z</time>
      </trkpt>
      <trkpt lat="45.8911" lon="5.11025">
        <ele>256.8</ele>
        <time>2024-09-19T08:07:02Z</time>
      </trkpt>
      <trkpt lat="45.89108" lon="5.11033">
        <ele>256.6</ele>
        <time>2024-09-19T08:07:03Z</time>
      </trkpt>
      <trkpt lat="45.89107" lon="5.11039">
        <ele>256.2</ele>
        <time>2024-09-19T08:07:04Z</time>
      </trkpt>
      <trkpt lat="45.89104" lon="5.11046">
        <ele>256.8</ele>
        <time>2024-09-19T08:07:05Z</time>
      </trkpt>
      <trkpt lat="45.89103" lon="5.11053">
        <ele>256.8</ele>
        <time>2024-09-19T08:07:06Z</time>
      </trkpt>
      <trkpt lat="45.891" lon="5.1106">
        <ele>256</ele>
        <time>2024-09-19T08:07:07Z</time>
      </trkpt>
      <trkpt lat="45.89099" lon="5.11066">
        <ele>256</ele>
        <time>2024-09-19T08:07:08Z</time>
      </trkpt>
      <trkpt lat="45.89097" lon="5.11072">
        <ele>256</ele>
        <time>2024-09-19T08:07:09Z</time>
      </trkpt>
      <trkpt lat="45.89096" lon="5.11077">
        <ele>256.4</ele>
        <time>2024-09-19T08:07:10Z</time>
      </trkpt>
      <trkpt lat="45.89094" lon="5.11083">
        <ele>255.4</ele>
        <time>2024-09-19T08:07:11Z</time>
      </trkpt>
      <trkpt lat="45.89094" lon="5.11088">
        <ele>256.2</ele>
        <time>2024-09-19T08:07:12Z</time>
      </trkpt>
      <trkpt lat="45.89094" lon="5.11093">
        <ele>256.8</ele>
        <time>2024-09-19T08:07:13Z</time>
      </trkpt>
      <trkpt lat="45.89093" lon="5.11099">
        <ele>257</ele>
        <time>2024-09-19T08:07:14Z</time>
      </trkpt>
      <trkpt lat="45.89091" lon="5.11105">
        <ele>256.8</ele>
        <time>2024-09-19T08:07:15Z</time>
      </trkpt>
      <trkpt lat="45.89091" lon="5.1111">
        <ele>257.2</ele>
        <time>2024-09-19T08:07:16Z</time>
      </trkpt>
      <trkpt lat="45.8909" lon="5.11116">
        <ele>258</ele>
        <time>2024-09-19T08:07:17Z</time>
      </trkpt>
      <trkpt lat="45.89091" lon="5.11121">
        <ele>257.8</ele>
        <time>2024-09-19T08:07:18Z</time>
      </trkpt>
      <trkpt lat="45.89092" lon="5.11127">
        <ele>258.2</ele>
        <time>2024-09-19T08:07:19Z</time>
      </trkpt>
      <trkpt lat="45.89093" lon="5.11132">
        <ele>258.2</ele>
        <time>2024-09-19T08:07:20Z</time>
      </trkpt>
      <trkpt lat="45.89093" lon="5.11138">
        <ele>258.2</ele>
        <time>2024-09-19T08:07:21Z</time>
      </trkpt>
      <trkpt lat="45.89093" lon="5.11143">
        <ele>258.6</ele>
        <time>2024-09-19T08:07:22Z</time>
      </trkpt>
      <trkpt lat="45.89093" lon="5.11149">
        <ele>258.8</ele>
        <time>2024-09-19T08:07:23Z</time>
      </trkpt>
      <trkpt lat="45.89093" lon="5.11153">
        <ele>258.8</ele>
        <time>2024-09-19T08:07:24Z</time>
      </trkpt>
      <trkpt lat="45.89094" lon="5.11159">
        <ele>258.8</ele>
        <time>2024-09-19T08:07:25Z</time>
      </trkpt>
      <trkpt lat="45.89094" lon="5.11165">
        <ele>258.6</ele>
        <time>2024-09-19T08:07:26Z</time>
      </trkpt>
      <trkpt lat="45.89094" lon="5.11171">
        <ele>258.6</ele>
        <time>2024-09-19T08:07:27Z</time>
      </trkpt>
      <trkpt lat="45.89094" lon="5.11177">
        <ele>258.4</ele>
        <time>2024-09-19T08:07:28Z</time>
      </trkpt>
      <trkpt lat="45.89094" lon="5.11182">
        <ele>257.6</ele>
        <time>2024-09-19T08:07:29Z</time>
      </trkpt>
      <trkpt lat="45.89094" lon="5.11189">
        <ele>257.8</ele>
        <time>2024-09-19T08:07:30Z</time>
      </trkpt>
      <trkpt lat="45.89095" lon="5.11195">
        <ele>258</ele>
        <time>2024-09-19T08:07:31Z</time>
      </trkpt>
      <trkpt lat="45.89095" lon="5.11201">
        <ele>257.6</ele>
        <time>2024-09-19T08:07:32Z</time>
      </trkpt>
      <trkpt lat="45.89096" lon="5.11207">
        <ele>257</ele>
        <time>2024-09-19T08:07:33Z</time>
      </trkpt>
      <trkpt lat="45.89097" lon="5.11213">
        <ele>257</ele>
        <time>2024-09-19T08:07:34Z</time>
      </trkpt>
      <trkpt lat="45.89097" lon="5.11219">
        <ele>257.4</ele>
        <time>2024-09-19T08:07:35Z</time>
      </trkpt>
      <trkpt lat="45.89097" lon="5.11222">
        <ele>257.8</ele>
        <time>2024-09-19T08:07:36Z</time>
      </trkpt>
      <trkpt lat="45.89098" lon="5.11228">
        <ele>258.2</ele>
        <time>2024-09-19T08:07:37Z</time>
      </trkpt>
      <trkpt lat="45.89098" lon="5.11233">
        <ele>258.8</ele>
        <time>2024-09-19T08:07:38Z</time>
      </trkpt>
      <trkpt lat="45.891" lon="5.11238">
        <ele>257.8</ele>
        <time>2024-09-19T08:07:39Z</time>
      </trkpt>
      <trkpt lat="45.89102" lon="5.11244">
        <ele>257.8</ele>
        <time>2024-09-19T08:07:40Z</time>
      </trkpt>
      <trkpt lat="45.89104" lon="5.1125">
        <ele>257.6</ele>
        <time>2024-09-19T08:07:41Z</time>
      </trkpt>
      <trkpt lat="45.89106" lon="5.11256">
        <ele>258.2</ele>
        <time>2024-09-19T08:07:42Z</time>
      </trkpt>
      <trkpt lat="45.89109" lon="5.11261">
        <ele>258.2</ele>
        <time>2024-09-19T08:07:43Z</time>
      </trkpt>
      <trkpt lat="45.89111" lon="5.11267">
        <ele>258.2</ele>
        <time>2024-09-19T08:07:44Z</time>
      </trkpt>
      <trkpt lat="45.89113" lon="5.11273">
        <ele>257.6</ele>
        <time>2024-09-19T08:07:45Z</time>
      </trkpt>
      <trkpt lat="45.89115" lon="5.11278">
        <ele>257.6</ele>
        <time>2024-09-19T08:07:46Z</time>
      </trkpt>
      <trkpt lat="45.89117" lon="5.11284">
        <ele>257.6</ele>
        <time>2024-09-19T08:07:47Z</time>
      </trkpt>
      <trkpt lat="45.89119" lon="5.11291">
        <ele>258</ele>
        <time>2024-09-19T08:07:48Z</time>
      </trkpt>
      <trkpt lat="45.89122" lon="5.11298">
        <ele>258.4</ele>
        <time>2024-09-19T08:07:49Z</time>
      </trkpt>
      <trkpt lat="45.89123" lon="5.11304">
        <ele>258.2</ele>
        <time>2024-09-19T08:07:50Z</time>
      </trkpt>
      <trkpt lat="45.89124" lon="5.11311">
        <ele>258.2</ele>
        <time>2024-09-19T08:07:51Z</time>
      </trkpt>
      <trkpt lat="45.89125" lon="5.11317">
        <ele>258</ele>
        <time>2024-09-19T08:07:52Z</time>
      </trkpt>
      <trkpt lat="45.89125" lon="5.11325">
        <ele>258</ele>
        <time>2024-09-19T08:07:53Z</time>
      </trkpt>
      <trkpt lat="45.89126" lon="5.11331">
        <ele>258.2</ele>
        <time>2024-09-19T08:07:54Z</time>
      </trkpt>
      <trkpt lat="45.89128" lon="5.11338">
        <ele>258.2</ele>
        <time>2024-09-19T08:07:55Z</time>
      </trkpt>
      <trkpt lat="45.89129" lon="5.11344">
        <ele>258.2</ele>
        <time>2024-09-19T08:07:56Z</time>
      </trkpt>
      <trkpt lat="45.89132" lon="5.11349">
        <ele>257.6</ele>
        <time>2024-09-19T08:07:57Z</time>
      </trkpt>
      <trkpt lat="45.89134" lon="5.11355">
        <ele>258.2</ele>
        <time>2024-09-19T08:07:58Z</time>
      </trkpt>
      <trkpt lat="45.89136" lon="5.11362">
        <ele>258.2</ele>
        <time>2024-09-19T08:07:59Z</time>
      </trkpt>
      <trkpt lat="45.89137" lon="5.11367">
        <ele>258.2</ele>
        <time>2024-09-19T08:08:00Z</time>
      </trkpt>
      <trkpt lat="45.89137" lon="5.11371">
        <ele>258.6</ele>
        <time>2024-09-19T08:08:01Z</time>
      </trkpt>
      <trkpt lat="45.89136" lon="5.11371">
        <ele>258.6</ele>
        <time>2024-09-19T08:08:02Z</time>
      </trkpt>
      <trkpt lat="45.89136" lon="5.11372">
        <ele>258.6</ele>
        <time>2024-09-19T08:08:03Z</time>
      </trkpt>
      <trkpt lat="45.89136" lon="5.11371">
        <ele>259</ele>
        <time>2024-09-19T08:08:04Z</time>
      </trkpt>
      <trkpt lat="45.89136" lon="5.11371">
        <ele>259</ele>
        <time>2024-09-19T08:08:05Z</time>
      </trkpt>
      <trkpt lat="45.89136" lon="5.11374">
        <ele>258.2</ele>
        <time>2024-09-19T08:08:53Z</time>
      </trkpt>
      <trkpt lat="45.89135" lon="5.11377">
        <ele>258.4</ele>
        <time>2024-09-19T08:08:54Z</time>
      </trkpt>
      <trkpt lat="45.89133" lon="5.1138">
        <ele>258</ele>
        <time>2024-09-19T08:08:55Z</time>
      </trkpt>
      <trkpt lat="45.89132" lon="5.11383">
        <ele>257.6</ele>
        <time>2024-09-19T08:08:56Z</time>
      </trkpt>
      <trkpt lat="45.89131" lon="5.11388">
        <ele>257.6</ele>
        <time>2024-09-19T08:08:57Z</time>
      </trkpt>
      <trkpt lat="45.89131" lon="5.11393">
        <ele>258</ele>
        <time>2024-09-19T08:08:58Z</time>
      </trkpt>
      <trkpt lat="45.89129" lon="5.114">
        <ele>257.8</ele>
        <time>2024-09-19T08:08:59Z</time>
      </trkpt>
      <trkpt lat="45.89127" lon="5.11405">
        <ele>257.8</ele>
        <time>2024-09-19T08:09:00Z</time>
      </trkpt>
      <trkpt lat="45.89124" lon="5.11411">
        <ele>258.6</ele>
        <time>2024-09-19T08:09:01Z</time>
      </trkpt>
      <trkpt lat="45.89122" lon="5.11416">
        <ele>258.2</ele>
        <time>2024-09-19T08:09:02Z</time>
      </trkpt>
      <trkpt lat="45.89118" lon="5.1142">
        <ele>258.2</ele>
        <time>2024-09-19T08:09:03Z</time>
      </trkpt>
      <trkpt lat="45.89116" lon="5.11426">
        <ele>258.2</ele>
        <time>2024-09-19T08:09:04Z</time>
      </trkpt>
      <trkpt lat="45.89113" lon="5.11431">
        <ele>257.6</ele>
        <time>2024-09-19T08:09:05Z</time>
      </trkpt>
      <trkpt lat="45.89109" lon="5.11434">
        <ele>257.6</ele>
        <time>2024-09-19T08:09:06Z</time>
      </trkpt>
      <trkpt lat="45.89105" lon="5.11439">
        <ele>258</ele>
        <time>2024-09-19T08:09:07Z</time>
      </trkpt>
      <trkpt lat="45.89101" lon="5.11441">
        <ele>257.8</ele>
        <time>2024-09-19T08:09:08Z</time>
      </trkpt>
      <trkpt lat="45.89097" lon="5.11446">
        <ele>257.4</ele>
        <time>2024-09-19T08:09:09Z</time>
      </trkpt>
      <trkpt lat="45.89094" lon="5.11451">
        <ele>257.4</ele>
        <time>2024-09-19T08:09:10Z</time>
      </trkpt>
      <trkpt lat="45.8909" lon="5.11454">
        <ele>257.2</ele>
        <time>2024-09-19T08:09:11Z</time>
      </trkpt>
      <trkpt lat="45.89086" lon="5.11459">
        <ele>257.2</ele>
        <time>2024-09-19T08:09:12Z</time>
      </trkpt>
      <trkpt lat="45.89083" lon="5.11463">
        <ele>257.6</ele>
        <time>2024-09-19T08:09:13Z</time>
      </trkpt>
      <trkpt lat="45.8908" lon="5.11467">
        <ele>257</ele>
        <time>2024-09-19T08:09:14Z</time>
      </trkpt>
      <trkpt lat="45.89078" lon="5.11472">
        <ele>257.6</ele>
        <time>2024-09-19T08:09:15Z</time>
      </trkpt>
      <trkpt lat="45.89076" lon="5.11477">
        <ele>257.6</ele>
        <time>2024-09-19T08:09:16Z</time>
      </trkpt>
      <trkpt lat="45.89073" lon="5.11482">
        <ele>258.6</ele>
        <time>2024-09-19T08:09:17Z</time>
      </trkpt>
      <trkpt lat="45.8907" lon="5.11487">
        <ele>258.6</ele>
        <time>2024-09-19T08:09:18Z</time>
      </trkpt>
      <trkpt lat="45.89067" lon="5.11492">
        <ele>258.4</ele>
        <time>2024-09-19T08:09:19Z</time>
      </trkpt>
      <trkpt lat="45.89065" lon="5.115">
        <ele>259</ele>
        <time>2024-09-19T08:09:20Z</time>
      </trkpt>
      <trkpt lat="45.89063" lon="5.11505">
        <ele>258.6</ele>
        <time>2024-09-19T08:09:21Z</time>
      </trkpt>
      <trkpt lat="45.8906" lon="5.11509">
        <ele>258.6</ele>
        <time>2024-09-19T08:09:22Z</time>
      </trkpt>
      <trkpt lat="45.89057" lon="5.11514">
        <ele>258.6</ele>
        <time>2024-09-19T08:09:23Z</time>
      </trkpt>
      <trkpt lat="45.89055" lon="5.11519">
        <ele>258</ele>
        <time>2024-09-19T08:09:24Z</time>
      </trkpt>
      <trkpt lat="45.89053" lon="5.11525">
        <ele>258.4</ele>
        <time>2024-09-19T08:09:25Z</time>
      </trkpt>
      <trkpt lat="45.89051" lon="5.11531">
        <ele>258.6</ele>
        <time>2024-09-19T08:09:26Z</time>
      </trkpt>
      <trkpt lat="45.8905" lon="5.11538">
        <ele>258.4</ele>
        <time>2024-09-19T08:09:27Z</time>
      </trkpt>
      <trkpt lat="45.89049" lon="5.11541">
        <ele>258.8</ele>
        <time>2024-09-19T08:09:28Z</time>
      </trkpt>
      <trkpt lat="45.8905" lon="5.11546">
        <ele>259</ele>
        <time>2024-09-19T08:09:29Z</time>
      </trkpt>
      <trkpt lat="45.89052" lon="5.11549">
        <ele>259.4</ele>
        <time>2024-09-19T08:09:30Z</time>
      </trkpt>
      <trkpt lat="45.89054" lon="5.11553">
        <ele>259.4</ele>
        <time>2024-09-19T08:09:31Z</time>
      </trkpt>
      <trkpt lat="45.89057" lon="5.11558">
        <ele>260</ele>
        <time>2024-09-19T08:09:32Z</time>
      </trkpt>
      <trkpt lat="45.89059" lon="5.11562">
        <ele>259.6</ele>
        <time>2024-09-19T08:09:33Z</time>
      </trkpt>
      <trkpt lat="45.89062" lon="5.11566">
        <ele>260</ele>
        <time>2024-09-19T08:09:34Z</time>
      </trkpt>
      <trkpt lat="45.89065" lon="5.1157">
        <ele>260</ele>
        <time>2024-09-19T08:09:35Z</time>
      </trkpt>
      <trkpt lat="45.89069" lon="5.11575">
        <ele>260</ele>
        <time>2024-09-19T08:09:36Z</time>
      </trkpt>
      <trkpt lat="45.89071" lon="5.11579">
        <ele>259.8</ele>
        <time>2024-09-19T08:09:37Z</time>
      </trkpt>
      <trkpt lat="45.89076" lon="5.11582">
        <ele>259.8</ele>
        <time>2024-09-19T08:09:38Z</time>
      </trkpt>
      <trkpt lat="45.89079" lon="5.11588">
        <ele>259.8</ele>
        <time>2024-09-19T08:09:39Z</time>
      </trkpt>
      <trkpt lat="45.89082" lon="5.11592">
        <ele>259.6</ele>
        <time>2024-09-19T08:09:40Z</time>
      </trkpt>
      <trkpt lat="45.89086" lon="5.11596">
        <ele>259.4</ele>
        <time>2024-09-19T08:09:41Z</time>
      </trkpt>
      <trkpt lat="45.89089" lon="5.116">
        <ele>259.4</ele>
        <time>2024-09-19T08:09:42Z</time>
      </trkpt>
      <trkpt lat="45.89093" lon="5.11604">
        <ele>259.8</ele>
        <time>2024-09-19T08:09:43Z</time>
      </trkpt>
      <trkpt lat="45.89096" lon="5.11609">
        <ele>260.6</ele>
        <time>2024-09-19T08:09:44Z</time>
      </trkpt>
      <trkpt lat="45.891" lon="5.11613">
        <ele>260.4</ele>
        <time>2024-09-19T08:09:45Z</time>
      </trkpt>
      <trkpt lat="45.89103" lon="5.11617">
        <ele>260.2</ele>
        <time>2024-09-19T08:09:46Z</time>
      </trkpt>
      <trkpt lat="45.89107" lon="5.11621">
        <ele>259.8</ele>
        <time>2024-09-19T08:09:47Z</time>
      </trkpt>
      <trkpt lat="45.89111" lon="5.11625">
        <ele>259.8</ele>
        <time>2024-09-19T08:09:48Z</time>
      </trkpt>
      <trkpt lat="45.89114" lon="5.11629">
        <ele>260</ele>
        <time>2024-09-19T08:09:49Z</time>
      </trkpt>
      <trkpt lat="45.89118" lon="5.11633">
        <ele>260</ele>
        <time>2024-09-19T08:09:50Z</time>
      </trkpt>
      <trkpt lat="45.89122" lon="5.11637">
        <ele>260.4</ele>
        <time>2024-09-19T08:09:51Z</time>
      </trkpt>
      <trkpt lat="45.89125" lon="5.11641">
        <ele>260</ele>
        <time>2024-09-19T08:09:52Z</time>
      </trkpt>
      <trkpt lat="45.89128" lon="5.11647">
        <ele>260</ele>
        <time>2024-09-19T08:09:53Z</time>
      </trkpt>
      <trkpt lat="45.89131" lon="5.11652">
        <ele>260</ele>
        <time>2024-09-19T08:09:54Z</time>
      </trkpt>
      <trkpt lat="45.89132" lon="5.11658">
        <ele>260</ele>
        <time>2024-09-19T08:09:55Z</time>
      </trkpt>
      <trkpt lat="45.89134" lon="5.11665">
        <ele>260</ele>
        <time>2024-09-19T08:09:56Z</time>
      </trkpt>
      <trkpt lat="45.89135" lon="5.11671">
        <ele>259.6</ele>
        <time>2024-09-19T08:09:57Z</time>
      </trkpt>
      <trkpt lat="45.89136" lon="5.11678">
        <ele>260</ele>
        <time>2024-09-19T08:09:58Z</time>
      </trkpt>
      <trkpt lat="45.89136" lon="5.11684">
        <ele>259.4</ele>
        <time>2024-09-19T08:09:59Z</time>
      </trkpt>
      <trkpt lat="45.89137" lon="5.11691">
        <ele>260</ele>
        <time>2024-09-19T08:10:00Z</time>
      </trkpt>
      <trkpt lat="45.89138" lon="5.11697">
        <ele>260</ele>
        <time>2024-09-19T08:10:01Z</time>
      </trkpt>
      <trkpt lat="45.89139" lon="5.11703">
        <ele>260.8</ele>
        <time>2024-09-19T08:10:02Z</time>
      </trkpt>
      <trkpt lat="45.8914" lon="5.11709">
        <ele>261</ele>
        <time>2024-09-19T08:10:03Z</time>
      </trkpt>
      <trkpt lat="45.89142" lon="5.11716">
        <ele>261</ele>
        <time>2024-09-19T08:10:04Z</time>
      </trkpt>
      <trkpt lat="45.89143" lon="5.11722">
        <ele>261</ele>
        <time>2024-09-19T08:10:05Z</time>
      </trkpt>
      <trkpt lat="45.89144" lon="5.11727">
        <ele>261</ele>
        <time>2024-09-19T08:10:06Z</time>
      </trkpt>
      <trkpt lat="45.89145" lon="5.11733">
        <ele>261</ele>
        <time>2024-09-19T08:10:07Z</time>
      </trkpt>
      <trkpt lat="45.89146" lon="5.11739">
        <ele>261</ele>
        <time>2024-09-19T08:10:08Z</time>
      </trkpt>
      <trkpt lat="45.89147" lon="5.11745">
        <ele>261.4</ele>
        <time>2024-09-19T08:10:09Z</time>
      </trkpt>
      <trkpt lat="45.89148" lon="5.11749">
        <ele>261.4</ele>
        <time>2024-09-19T08:10:10Z</time>
      </trkpt>
      <trkpt lat="45.89149" lon="5.11754">
        <ele>261.4</ele>
        <time>2024-09-19T08:10:11Z</time>
      </trkpt>
      <trkpt lat="45.8915" lon="5.11759">
        <ele>261.8</ele>
        <time>2024-09-19T08:10:12Z</time>
      </trkpt>
      <trkpt lat="45.8915" lon="5.11764">
        <ele>261.8</ele>
        <time>2024-09-19T08:10:13Z</time>
      </trkpt>
      <trkpt lat="45.8915" lon="5.11769">
        <ele>261.8</ele>
        <time>2024-09-19T08:10:14Z</time>
      </trkpt>
      <trkpt lat="45.8915" lon="5.11774">
        <ele>261.6</ele>
        <time>2024-09-19T08:10:15Z</time>
      </trkpt>
      <trkpt lat="45.8915" lon="5.11778">
        <ele>261.6</ele>
        <time>2024-09-19T08:10:16Z</time>
      </trkpt>
      <trkpt lat="45.8915" lon="5.11783">
        <ele>262.2</ele>
        <time>2024-09-19T08:10:17Z</time>
      </trkpt>
      <trkpt lat="45.8915" lon="5.11788">
        <ele>262.2</ele>
        <time>2024-09-19T08:10:18Z</time>
      </trkpt>
      <trkpt lat="45.89149" lon="5.11793">
        <ele>262.4</ele>
        <time>2024-09-19T08:10:19Z</time>
      </trkpt>
      <trkpt lat="45.89147" lon="5.11798">
        <ele>262.4</ele>
        <time>2024-09-19T08:10:20Z</time>
      </trkpt>
      <trkpt lat="45.89146" lon="5.11803">
        <ele>262.4</ele>
        <time>2024-09-19T08:10:21Z</time>
      </trkpt>
      <trkpt lat="45.89145" lon="5.11808">
        <ele>262.4</ele>
        <time>2024-09-19T08:10:22Z</time>
      </trkpt>
      <trkpt lat="45.89143" lon="5.11814">
        <ele>262.4</ele>
        <time>2024-09-19T08:10:23Z</time>
      </trkpt>
      <trkpt lat="45.89142" lon="5.1182">
        <ele>262</ele>
        <time>2024-09-19T08:10:24Z</time>
      </trkpt>
      <trkpt lat="45.89141" lon="5.11826">
        <ele>262</ele>
        <time>2024-09-19T08:10:25Z</time>
      </trkpt>
      <trkpt lat="45.8914" lon="5.11832">
        <ele>262</ele>
        <time>2024-09-19T08:10:26Z</time>
      </trkpt>
      <trkpt lat="45.89141" lon="5.11838">
        <ele>262</ele>
        <time>2024-09-19T08:10:27Z</time>
      </trkpt>
      <trkpt lat="45.89141" lon="5.11843">
        <ele>261.6</ele>
        <time>2024-09-19T08:10:28Z</time>
      </trkpt>
      <trkpt lat="45.89143" lon="5.11848">
        <ele>262</ele>
        <time>2024-09-19T08:10:29Z</time>
      </trkpt>
      <trkpt lat="45.89146" lon="5.11853">
        <ele>261.6</ele>
        <time>2024-09-19T08:10:30Z</time>
      </trkpt>
      <trkpt lat="45.89149" lon="5.11857">
        <ele>262.2</ele>
        <time>2024-09-19T08:10:31Z</time>
      </trkpt>
      <trkpt lat="45.89152" lon="5.1186">
        <ele>262.4</ele>
        <time>2024-09-19T08:10:32Z</time>
      </trkpt>
      <trkpt lat="45.89156" lon="5.11863">
        <ele>262.4</ele>
        <time>2024-09-19T08:10:33Z</time>
      </trkpt>
      <trkpt lat="45.89159" lon="5.11865">
        <ele>262.2</ele>
        <time>2024-09-19T08:10:34Z</time>
      </trkpt>
      <trkpt lat="45.89162" lon="5.11868">
        <ele>262.2</ele>
        <time>2024-09-19T08:10:35Z</time>
      </trkpt>
      <trkpt lat="45.89166" lon="5.1187">
        <ele>262.8</ele>
        <time>2024-09-19T08:10:36Z</time>
      </trkpt>
      <trkpt lat="45.89169" lon="5.11873">
        <ele>262.8</ele>
        <time>2024-09-19T08:10:37Z</time>
      </trkpt>
      <trkpt lat="45.89173" lon="5.11876">
        <ele>262.8</ele>
        <time>2024-09-19T08:10:38Z</time>
      </trkpt>
      <trkpt lat="45.89175" lon="5.11878">
        <ele>262.8</ele>
        <time>2024-09-19T08:10:39Z</time>
      </trkpt>
      <trkpt lat="45.89179" lon="5.1188">
        <ele>262.8</ele>
        <time>2024-09-19T08:10:40Z</time>
      </trkpt>
      <trkpt lat="45.89182" lon="5.11883">
        <ele>262.8</ele>
        <time>2024-09-19T08:10:41Z</time>
      </trkpt>
      <trkpt lat="45.89186" lon="5.11888">
        <ele>263</ele>
        <time>2024-09-19T08:10:42Z</time>
      </trkpt>
      <trkpt lat="45.89189" lon="5.11892">
        <ele>263</ele>
        <time>2024-09-19T08:10:43Z</time>
      </trkpt>
      <trkpt lat="45.89192" lon="5.11896">
        <ele>263</ele>
        <time>2024-09-19T08:10:44Z</time>
      </trkpt>
      <trkpt lat="45.89196" lon="5.11899">
        <ele>262.6</ele>
        <time>2024-09-19T08:10:45Z</time>
      </trkpt>
      <trkpt lat="45.892" lon="5.11902">
        <ele>262.6</ele>
        <time>2024-09-19T08:10:46Z</time>
      </trkpt>
      <trkpt lat="45.89205" lon="5.11905">
        <ele>262.6</ele>
        <time>2024-09-19T08:10:47Z</time>
      </trkpt>
      <trkpt lat="45.8921" lon="5.11906">
        <ele>262.6</ele>
        <time>2024-09-19T08:10:48Z</time>
      </trkpt>
      <trkpt lat="45.89214" lon="5.11907">
        <ele>262.6</ele>
        <time>2024-09-19T08:10:49Z</time>
      </trkpt>
      <trkpt lat="45.89219" lon="5.11909">
        <ele>262.6</ele>
        <time>2024-09-19T08:10:50Z</time>
      </trkpt>
      <trkpt lat="45.89224" lon="5.1191">
        <ele>262.8</ele>
        <time>2024-09-19T08:10:51Z</time>
      </trkpt>
      <trkpt lat="45.89228" lon="5.11912">
        <ele>262.8</ele>
        <time>2024-09-19T08:10:52Z</time>
      </trkpt>
      <trkpt lat="45.89233" lon="5.11913">
        <ele>262.6</ele>
        <time>2024-09-19T08:10:53Z</time>
      </trkpt>
      <trkpt lat="45.89237" lon="5.11915">
        <ele>262.2</ele>
        <time>2024-09-19T08:10:54Z</time>
      </trkpt>
      <trkpt lat="45.89242" lon="5.11916">
        <ele>262.6</ele>
        <time>2024-09-19T08:10:55Z</time>
      </trkpt>
      <trkpt lat="45.89247" lon="5.11918">
        <ele>262.8</ele>
        <time>2024-09-19T08:10:56Z</time>
      </trkpt>
      <trkpt lat="45.89252" lon="5.11917">
        <ele>263.2</ele>
        <time>2024-09-19T08:10:57Z</time>
      </trkpt>
      <trkpt lat="45.89257" lon="5.11917">
        <ele>262.8</ele>
        <time>2024-09-19T08:10:58Z</time>
      </trkpt>
      <trkpt lat="45.89261" lon="5.11915">
        <ele>263.2</ele>
        <time>2024-09-19T08:10:59Z</time>
      </trkpt>
      <trkpt lat="45.89265" lon="5.11911">
        <ele>263.2</ele>
        <time>2024-09-19T08:11:00Z</time>
      </trkpt>
      <trkpt lat="45.8927" lon="5.11907">
        <ele>263</ele>
        <time>2024-09-19T08:11:01Z</time>
      </trkpt>
      <trkpt lat="45.89274" lon="5.11904">
        <ele>263</ele>
        <time>2024-09-19T08:11:02Z</time>
      </trkpt>
      <trkpt lat="45.89278" lon="5.11899">
        <ele>263</ele>
        <time>2024-09-19T08:11:03Z</time>
      </trkpt>
      <trkpt lat="45.89282" lon="5.11896">
        <ele>263.2</ele>
        <time>2024-09-19T08:11:04Z</time>
      </trkpt>
      <trkpt lat="45.89286" lon="5.11891">
        <ele>262.4</ele>
        <time>2024-09-19T08:11:05Z</time>
      </trkpt>
      <trkpt lat="45.8929" lon="5.11887">
        <ele>262.4</ele>
        <time>2024-09-19T08:11:06Z</time>
      </trkpt>
      <trkpt lat="45.89295" lon="5.11884">
        <ele>262.2</ele>
        <time>2024-09-19T08:11:07Z</time>
      </trkpt>
      <trkpt lat="45.893" lon="5.1188">
        <ele>262.2</ele>
        <time>2024-09-19T08:11:08Z</time>
      </trkpt>
      <trkpt lat="45.89304" lon="5.11877">
        <ele>262.2</ele>
        <time>2024-09-19T08:11:09Z</time>
      </trkpt>
      <trkpt lat="45.89309" lon="5.11875">
        <ele>262.2</ele>
        <time>2024-09-19T08:11:10Z</time>
      </trkpt>
      <trkpt lat="45.89313" lon="5.11873">
        <ele>262.8</ele>
        <time>2024-09-19T08:11:11Z</time>
      </trkpt>
      <trkpt lat="45.89318" lon="5.11871">
        <ele>263</ele>
        <time>2024-09-19T08:11:12Z</time>
      </trkpt>
      <trkpt lat="45.89323" lon="5.11868">
        <ele>263.6</ele>
        <time>2024-09-19T08:11:13Z</time>
      </trkpt>
      <trkpt lat="45.89328" lon="5.11867">
        <ele>263.2</ele>
        <time>2024-09-19T08:11:14Z</time>
      </trkpt>
      <trkpt lat="45.89334" lon="5.11867">
        <ele>263.2</ele>
        <time>2024-09-19T08:11:15Z</time>
      </trkpt>
      <trkpt lat="45.89339" lon="5.11866">
        <ele>263.2</ele>
        <time>2024-09-19T08:11:16Z</time>
      </trkpt>
      <trkpt lat="45.89345" lon="5.11866">
        <ele>263.2</ele>
        <time>2024-09-19T08:11:17Z</time>
      </trkpt>
      <trkpt lat="45.8935" lon="5.11867">
        <ele>263.2</ele>
        <time>2024-09-19T08:11:18Z</time>
      </trkpt>
      <trkpt lat="45.89356" lon="5.11867">
        <ele>262.8</ele>
        <time>2024-09-19T08:11:19Z</time>
      </trkpt>
      <trkpt lat="45.89356" lon="5.11867">
        <ele>262.8</ele>
        <time>2024-09-19T08:11:20Z</time>
      </trkpt>
      <trkpt lat="45.89361" lon="5.11869">
        <ele>262.6</ele>
        <time>2024-09-19T08:11:21Z</time>
      </trkpt>
      <trkpt lat="45.89366" lon="5.11871">
        <ele>262.6</ele>
        <time>2024-09-19T08:11:22Z</time>
      </trkpt>
      <trkpt lat="45.8937" lon="5.11872">
        <ele>262.4</ele>
        <time>2024-09-19T08:11:23Z</time>
      </trkpt>
      <trkpt lat="45.89376" lon="5.11876">
        <ele>262.4</ele>
        <time>2024-09-19T08:11:24Z</time>
      </trkpt>
      <trkpt lat="45.89381" lon="5.11877">
        <ele>262.4</ele>
        <time>2024-09-19T08:11:25Z</time>
      </trkpt>
      <trkpt lat="45.89386" lon="5.11878">
        <ele>262.8</ele>
        <time>2024-09-19T08:11:26Z</time>
      </trkpt>
      <trkpt lat="45.89391" lon="5.1188">
        <ele>262.8</ele>
        <time>2024-09-19T08:11:27Z</time>
      </trkpt>
      <trkpt lat="45.89396" lon="5.11882">
        <ele>261.6</ele>
        <time>2024-09-19T08:11:28Z</time>
      </trkpt>
      <trkpt lat="45.89407" lon="5.11886">
        <ele>262.4</ele>
        <time>2024-09-19T08:11:29Z</time>
      </trkpt>
      <trkpt lat="45.89411" lon="5.11888">
        <ele>262.4</ele>
        <time>2024-09-19T08:11:30Z</time>
      </trkpt>
      <trkpt lat="45.89417" lon="5.1189">
        <ele>262</ele>
        <time>2024-09-19T08:11:31Z</time>
      </trkpt>
      <trkpt lat="45.89421" lon="5.11893">
        <ele>262.4</ele>
        <time>2024-09-19T08:11:32Z</time>
      </trkpt>
      <trkpt lat="45.89426" lon="5.11895">
        <ele>262.4</ele>
        <time>2024-09-19T08:11:33Z</time>
      </trkpt>
      <trkpt lat="45.89431" lon="5.11897">
        <ele>262</ele>
        <time>2024-09-19T08:11:34Z</time>
      </trkpt>
      <trkpt lat="45.89436" lon="5.11899">
        <ele>261.6</ele>
        <time>2024-09-19T08:11:35Z</time>
      </trkpt>
      <trkpt lat="45.8944" lon="5.11902">
        <ele>262.4</ele>
        <time>2024-09-19T08:11:36Z</time>
      </trkpt>
      <trkpt lat="45.89444" lon="5.11904">
        <ele>262.6</ele>
        <time>2024-09-19T08:11:37Z</time>
      </trkpt>
      <trkpt lat="45.89449" lon="5.11908">
        <ele>262.6</ele>
        <time>2024-09-19T08:11:38Z</time>
      </trkpt>
      <trkpt lat="45.89453" lon="5.11912">
        <ele>263</ele>
        <time>2024-09-19T08:11:39Z</time>
      </trkpt>
      <trkpt lat="45.89457" lon="5.11915">
        <ele>263.2</ele>
        <time>2024-09-19T08:11:40Z</time>
      </trkpt>
      <trkpt lat="45.89461" lon="5.11918">
        <ele>263.2</ele>
        <time>2024-09-19T08:11:41Z</time>
      </trkpt>
      <trkpt lat="45.89465" lon="5.11922">
        <ele>262.8</ele>
        <time>2024-09-19T08:11:42Z</time>
      </trkpt>
      <trkpt lat="45.89469" lon="5.11926">
        <ele>262.8</ele>
        <time>2024-09-19T08:11:43Z</time>
      </trkpt>
      <trkpt lat="45.89473" lon="5.11929">
        <ele>263</ele>
        <time>2024-09-19T08:11:44Z</time>
      </trkpt>
      <trkpt lat="45.89478" lon="5.11934">
        <ele>263.2</ele>
        <time>2024-09-19T08:11:45Z</time>
      </trkpt>
      <trkpt lat="45.89481" lon="5.1194">
        <ele>263</ele>
        <time>2024-09-19T08:11:46Z</time>
      </trkpt>
      <trkpt lat="45.89484" lon="5.11947">
        <ele>263.4</ele>
        <time>2024-09-19T08:11:47Z</time>
      </trkpt>
      <trkpt lat="45.89486" lon="5.11953">
        <ele>263</ele>
        <time>2024-09-19T08:11:48Z</time>
      </trkpt>
      <trkpt lat="45.89489" lon="5.1196">
        <ele>263</ele>
        <time>2024-09-19T08:11:49Z</time>
      </trkpt>
      <trkpt lat="45.89492" lon="5.11967">
        <ele>263.4</ele>
        <time>2024-09-19T08:11:50Z</time>
      </trkpt>
      <trkpt lat="45.89495" lon="5.11973">
        <ele>263.8</ele>
        <time>2024-09-19T08:11:51Z</time>
      </trkpt>
      <trkpt lat="45.89497" lon="5.1198">
        <ele>264.2</ele>
        <time>2024-09-19T08:11:52Z</time>
      </trkpt>
      <trkpt lat="45.89499" lon="5.11987">
        <ele>263.8</ele>
        <time>2024-09-19T08:11:53Z</time>
      </trkpt>
      <trkpt lat="45.895" lon="5.11992">
        <ele>263.8</ele>
        <time>2024-09-19T08:11:54Z</time>
      </trkpt>
      <trkpt lat="45.89501" lon="5.12001">
        <ele>263.8</ele>
        <time>2024-09-19T08:11:55Z</time>
      </trkpt>
      <trkpt lat="45.89501" lon="5.12008">
        <ele>263.6</ele>
        <time>2024-09-19T08:11:56Z</time>
      </trkpt>
      <trkpt lat="45.89502" lon="5.12016">
        <ele>264</ele>
        <time>2024-09-19T08:11:57Z</time>
      </trkpt>
      <trkpt lat="45.89501" lon="5.12023">
        <ele>264</ele>
        <time>2024-09-19T08:11:58Z</time>
      </trkpt>
      <trkpt lat="45.89502" lon="5.12029">
        <ele>264</ele>
        <time>2024-09-19T08:11:59Z</time>
      </trkpt>
      <trkpt lat="45.89501" lon="5.12035">
        <ele>264</ele>
        <time>2024-09-19T08:12:00Z</time>
      </trkpt>
      <trkpt lat="45.89501" lon="5.12041">
        <ele>264.4</ele>
        <time>2024-09-19T08:12:01Z</time>
      </trkpt>
      <trkpt lat="45.895" lon="5.12047">
        <ele>264.2</ele>
        <time>2024-09-19T08:12:02Z</time>
      </trkpt>
      <trkpt lat="45.895" lon="5.12052">
        <ele>264.4</ele>
        <time>2024-09-19T08:12:03Z</time>
      </trkpt>
      <trkpt lat="45.89499" lon="5.12057">
        <ele>264.4</ele>
        <time>2024-09-19T08:12:04Z</time>
      </trkpt>
      <trkpt lat="45.89498" lon="5.12062">
        <ele>264.4</ele>
        <time>2024-09-19T08:12:05Z</time>
      </trkpt>
      <trkpt lat="45.89497" lon="5.12065">
        <ele>264.6</ele>
        <time>2024-09-19T08:12:06Z</time>
      </trkpt>
      <trkpt lat="45.89497" lon="5.12068">
        <ele>264.6</ele>
        <time>2024-09-19T08:12:07Z</time>
      </trkpt>
      <trkpt lat="45.89497" lon="5.12072">
        <ele>264.6</ele>
        <time>2024-09-19T08:12:08Z</time>
      </trkpt>
      <trkpt lat="45.89496" lon="5.12075">
        <ele>264.6</ele>
        <time>2024-09-19T08:12:09Z</time>
      </trkpt>
      <trkpt lat="45.89496" lon="5.12078">
        <ele>264.8</ele>
        <time>2024-09-19T08:12:10Z</time>
      </trkpt>
      <trkpt lat="45.89496" lon="5.1208">
        <ele>264.8</ele>
        <time>2024-09-19T08:12:11Z</time>
      </trkpt>
      <trkpt lat="45.89495" lon="5.12083">
        <ele>264.6</ele>
        <time>2024-09-19T08:12:12Z</time>
      </trkpt>
      <trkpt lat="45.89495" lon="5.12086">
        <ele>264.6</ele>
        <time>2024-09-19T08:12:13Z</time>
      </trkpt>
      <trkpt lat="45.89495" lon="5.12089">
        <ele>264.6</ele>
        <time>2024-09-19T08:12:14Z</time>
      </trkpt>
      <trkpt lat="45.89495" lon="5.12093">
        <ele>264.6</ele>
        <time>2024-09-19T08:12:15Z</time>
      </trkpt>
      <trkpt lat="45.89495" lon="5.12097">
        <ele>264.6</ele>
        <time>2024-09-19T08:12:16Z</time>
      </trkpt>
      <trkpt lat="45.89494" lon="5.12102">
        <ele>264.8</ele>
        <time>2024-09-19T08:12:17Z</time>
      </trkpt>
      <trkpt lat="45.89494" lon="5.12106">
        <ele>264.8</ele>
        <time>2024-09-19T08:12:18Z</time>
      </trkpt>
      <trkpt lat="45.89494" lon="5.12111">
        <ele>265.2</ele>
        <time>2024-09-19T08:12:19Z</time>
      </trkpt>
      <trkpt lat="45.89494" lon="5.12115">
        <ele>265.2</ele>
        <time>2024-09-19T08:12:20Z</time>
      </trkpt>
      <trkpt lat="45.89495" lon="5.12121">
        <ele>264.8</ele>
        <time>2024-09-19T08:12:21Z</time>
      </trkpt>
      <trkpt lat="45.89496" lon="5.12126">
        <ele>264.8</ele>
        <time>2024-09-19T08:12:22Z</time>
      </trkpt>
      <trkpt lat="45.89497" lon="5.12132">
        <ele>264.4</ele>
        <time>2024-09-19T08:12:23Z</time>
      </trkpt>
      <trkpt lat="45.89499" lon="5.12138">
        <ele>264.4</ele>
        <time>2024-09-19T08:12:24Z</time>
      </trkpt>
      <trkpt lat="45.89501" lon="5.12143">
        <ele>264.4</ele>
        <time>2024-09-19T08:12:25Z</time>
      </trkpt>
      <trkpt lat="45.89503" lon="5.12148">
        <ele>264.4</ele>
        <time>2024-09-19T08:12:26Z</time>
      </trkpt>
      <trkpt lat="45.89506" lon="5.12152">
        <ele>264.4</ele>
        <time>2024-09-19T08:12:27Z</time>
      </trkpt>
      <trkpt lat="45.8951" lon="5.12155">
        <ele>264.4</ele>
        <time>2024-09-19T08:12:28Z</time>
      </trkpt>
      <trkpt lat="45.89514" lon="5.12158">
        <ele>264.4</ele>
        <time>2024-09-19T08:12:29Z</time>
      </trkpt>
      <trkpt lat="45.89518" lon="5.12159">
        <ele>264.4</ele>
        <time>2024-09-19T08:12:30Z</time>
      </trkpt>
      <trkpt lat="45.89523" lon="5.1216">
        <ele>264.8</ele>
        <time>2024-09-19T08:12:31Z</time>
      </trkpt>
      <trkpt lat="45.89527" lon="5.1216">
        <ele>264.4</ele>
        <time>2024-09-19T08:12:32Z</time>
      </trkpt>
      <trkpt lat="45.89532" lon="5.1216">
        <ele>262.8</ele>
        <time>2024-09-19T08:12:33Z</time>
      </trkpt>
      <trkpt lat="45.89536" lon="5.1216">
        <ele>263.2</ele>
        <time>2024-09-19T08:12:34Z</time>
      </trkpt>
      <trkpt lat="45.8954" lon="5.1216">
        <ele>264</ele>
        <time>2024-09-19T08:12:35Z</time>
      </trkpt>
      <trkpt lat="45.89544" lon="5.12162">
        <ele>264.2</ele>
        <time>2024-09-19T08:12:36Z</time>
      </trkpt>
      <trkpt lat="45.89548" lon="5.12164">
        <ele>264.8</ele>
        <time>2024-09-19T08:12:37Z</time>
      </trkpt>
      <trkpt lat="45.89552" lon="5.12166">
        <ele>264.2</ele>
        <time>2024-09-19T08:12:38Z</time>
      </trkpt>
      <trkpt lat="45.89556" lon="5.12169">
        <ele>263.2</ele>
        <time>2024-09-19T08:12:39Z</time>
      </trkpt>
      <trkpt lat="45.89559" lon="5.12172">
        <ele>264</ele>
        <time>2024-09-19T08:12:40Z</time>
      </trkpt>
      <trkpt lat="45.89563" lon="5.12175">
        <ele>264.6</ele>
        <time>2024-09-19T08:12:41Z</time>
      </trkpt>
      <trkpt lat="45.89566" lon="5.12178">
        <ele>264.6</ele>
        <time>2024-09-19T08:12:42Z</time>
      </trkpt>
      <trkpt lat="45.89569" lon="5.12181">
        <ele>265.2</ele>
        <time>2024-09-19T08:12:43Z</time>
      </trkpt>
      <trkpt lat="45.89573" lon="5.12184">
        <ele>265.8</ele>
        <time>2024-09-19T08:12:44Z</time>
      </trkpt>
      <trkpt lat="45.89576" lon="5.12188">
        <ele>265.6</ele>
        <time>2024-09-19T08:12:45Z</time>
      </trkpt>
      <trkpt lat="45.89579" lon="5.12191">
        <ele>265</ele>
        <time>2024-09-19T08:12:46Z</time>
      </trkpt>
      <trkpt lat="45.89582" lon="5.12195">
        <ele>263.4</ele>
        <time>2024-09-19T08:12:47Z</time>
      </trkpt>
      <trkpt lat="45.89586" lon="5.12198">
        <ele>264.2</ele>
        <time>2024-09-19T08:12:48Z</time>
      </trkpt>
      <trkpt lat="45.8959" lon="5.12202">
        <ele>264.8</ele>
        <time>2024-09-19T08:12:49Z</time>
      </trkpt>
      <trkpt lat="45.89593" lon="5.12205">
        <ele>265.2</ele>
        <time>2024-09-19T08:12:50Z</time>
      </trkpt>
      <trkpt lat="45.89597" lon="5.12208">
        <ele>265.2</ele>
        <time>2024-09-19T08:12:51Z</time>
      </trkpt>
      <trkpt lat="45.896" lon="5.12211">
        <ele>265.6</ele>
        <time>2024-09-19T08:12:52Z</time>
      </trkpt>
      <trkpt lat="45.89604" lon="5.12215">
        <ele>265.6</ele>
        <time>2024-09-19T08:12:53Z</time>
      </trkpt>
      <trkpt lat="45.89608" lon="5.12218">
        <ele>265.8</ele>
        <time>2024-09-19T08:12:54Z</time>
      </trkpt>
      <trkpt lat="45.89612" lon="5.12222">
        <ele>265.8</ele>
        <time>2024-09-19T08:12:55Z</time>
      </trkpt>
      <trkpt lat="45.89615" lon="5.12225">
        <ele>265.8</ele>
        <time>2024-09-19T08:12:56Z</time>
      </trkpt>
      <trkpt lat="45.89619" lon="5.12229">
        <ele>265.8</ele>
        <time>2024-09-19T08:12:57Z</time>
      </trkpt>
      <trkpt lat="45.89623" lon="5.12232">
        <ele>266.6</ele>
        <time>2024-09-19T08:12:58Z</time>
      </trkpt>
      <trkpt lat="45.89627" lon="5.12235">
        <ele>266.8</ele>
        <time>2024-09-19T08:12:59Z</time>
      </trkpt>
      <trkpt lat="45.89631" lon="5.12239">
        <ele>267</ele>
        <time>2024-09-19T08:13:00Z</time>
      </trkpt>
      <trkpt lat="45.89635" lon="5.12242">
        <ele>266.8</ele>
        <time>2024-09-19T08:13:01Z</time>
      </trkpt>
      <trkpt lat="45.89638" lon="5.12245">
        <ele>267.2</ele>
        <time>2024-09-19T08:13:02Z</time>
      </trkpt>
      <trkpt lat="45.89642" lon="5.12248">
        <ele>267.2</ele>
        <time>2024-09-19T08:13:03Z</time>
      </trkpt>
      <trkpt lat="45.89647" lon="5.12252">
        <ele>267.2</ele>
        <time>2024-09-19T08:13:04Z</time>
      </trkpt>
      <trkpt lat="45.89651" lon="5.12256">
        <ele>267.2</ele>
        <time>2024-09-19T08:13:05Z</time>
      </trkpt>
      <trkpt lat="45.89655" lon="5.12258">
        <ele>267.2</ele>
        <time>2024-09-19T08:13:06Z</time>
      </trkpt>
      <trkpt lat="45.89659" lon="5.12261">
        <ele>267.2</ele>
        <time>2024-09-19T08:13:07Z</time>
      </trkpt>
      <trkpt lat="45.89663" lon="5.12264">
        <ele>267.8</ele>
        <time>2024-09-19T08:13:08Z</time>
      </trkpt>
      <trkpt lat="45.89667" lon="5.12266">
        <ele>267.8</ele>
        <time>2024-09-19T08:13:09Z</time>
      </trkpt>
      <trkpt lat="45.89672" lon="5.12267">
        <ele>267.4</ele>
        <time>2024-09-19T08:13:10Z</time>
      </trkpt>
      <trkpt lat="45.89677" lon="5.12269">
        <ele>267</ele>
        <time>2024-09-19T08:13:11Z</time>
      </trkpt>
      <trkpt lat="45.89681" lon="5.12269">
        <ele>266.6</ele>
        <time>2024-09-19T08:13:12Z</time>
      </trkpt>
      <trkpt lat="45.89686" lon="5.1227">
        <ele>267</ele>
        <time>2024-09-19T08:13:13Z</time>
      </trkpt>
      <trkpt lat="45.89691" lon="5.12271">
        <ele>266.6</ele>
        <time>2024-09-19T08:13:14Z</time>
      </trkpt>
      <trkpt lat="45.89695" lon="5.12272">
        <ele>266.6</ele>
        <time>2024-09-19T08:13:15Z</time>
      </trkpt>
      <trkpt lat="45.897" lon="5.12273">
        <ele>267</ele>
        <time>2024-09-19T08:13:16Z</time>
      </trkpt>
      <trkpt lat="45.89704" lon="5.12273">
        <ele>267.2</ele>
        <time>2024-09-19T08:13:17Z</time>
      </trkpt>
      <trkpt lat="45.89709" lon="5.12274">
        <ele>267.2</ele>
        <time>2024-09-19T08:13:18Z</time>
      </trkpt>
      <trkpt lat="45.89714" lon="5.12272">
        <ele>267.2</ele>
        <time>2024-09-19T08:13:19Z</time>
      </trkpt>
      <trkpt lat="45.89718" lon="5.1227">
        <ele>266.8</ele>
        <time>2024-09-19T08:13:20Z</time>
      </trkpt>
      <trkpt lat="45.89718" lon="5.1227">
        <ele>266.8</ele>
        <time>2024-09-19T08:13:21Z</time>
      </trkpt>
      <trkpt lat="45.89718" lon="5.1227">
        <ele>267.2</ele>
        <time>2024-09-19T08:13:22Z</time>
      </trkpt>
      <trkpt lat="45.89718" lon="5.1227">
        <ele>267</ele>
        <time>2024-09-19T08:13:23Z</time>
      </trkpt>
      <trkpt lat="45.89735" lon="5.12255">
        <ele>267</ele>
        <time>2024-09-19T08:13:25Z</time>
      </trkpt>
      <trkpt lat="45.89738" lon="5.12251">
        <ele>266.8</ele>
        <time>2024-09-19T08:13:26Z</time>
      </trkpt>
      <trkpt lat="45.89741" lon="5.12246">
        <ele>267</ele>
        <time>2024-09-19T08:13:27Z</time>
      </trkpt>
      <trkpt lat="45.89744" lon="5.12243">
        <ele>267</ele>
        <time>2024-09-19T08:13:28Z</time>
      </trkpt>
      <trkpt lat="45.89747" lon="5.12239">
        <ele>266.6</ele>
        <time>2024-09-19T08:13:29Z</time>
      </trkpt>
      <trkpt lat="45.89749" lon="5.12235">
        <ele>267</ele>
        <time>2024-09-19T08:13:30Z</time>
      </trkpt>
      <trkpt lat="45.89752" lon="5.12231">
        <ele>267</ele>
        <time>2024-09-19T08:13:31Z</time>
      </trkpt>
      <trkpt lat="45.89755" lon="5.12227">
        <ele>267</ele>
        <time>2024-09-19T08:13:32Z</time>
      </trkpt>
      <trkpt lat="45.89757" lon="5.12222">
        <ele>267.6</ele>
        <time>2024-09-19T08:13:33Z</time>
      </trkpt>
      <trkpt lat="45.89759" lon="5.12217">
        <ele>267.2</ele>
        <time>2024-09-19T08:13:34Z</time>
      </trkpt>
      <trkpt lat="45.89762" lon="5.12213">
        <ele>267.2</ele>
        <time>2024-09-19T08:13:35Z</time>
      </trkpt>
      <trkpt lat="45.89764" lon="5.12208">
        <ele>266.8</ele>
        <time>2024-09-19T08:13:36Z</time>
      </trkpt>
      <trkpt lat="45.89767" lon="5.12204">
        <ele>266.8</ele>
        <time>2024-09-19T08:13:37Z</time>
      </trkpt>
      <trkpt lat="45.8977" lon="5.122">
        <ele>266.8</ele>
        <time>2024-09-19T08:13:38Z</time>
      </trkpt>
      <trkpt lat="45.89773" lon="5.12197">
        <ele>267</ele>
        <time>2024-09-19T08:13:39Z</time>
      </trkpt>
      <trkpt lat="45.89777" lon="5.12195">
        <ele>267.6</ele>
        <time>2024-09-19T08:13:40Z</time>
      </trkpt>
      <trkpt lat="45.89781" lon="5.12192">
        <ele>267.6</ele>
        <time>2024-09-19T08:13:41Z</time>
      </trkpt>
      <trkpt lat="45.89785" lon="5.1219">
        <ele>267.2</ele>
        <time>2024-09-19T08:13:42Z</time>
      </trkpt>
      <trkpt lat="45.89789" lon="5.12188">
        <ele>267.2</ele>
        <time>2024-09-19T08:13:43Z</time>
      </trkpt>
      <trkpt lat="45.89793" lon="5.12187">
        <ele>267.8</ele>
        <time>2024-09-19T08:13:44Z</time>
      </trkpt>
      <trkpt lat="45.89798" lon="5.12187">
        <ele>267.8</ele>
        <time>2024-09-19T08:13:45Z</time>
      </trkpt>
      <trkpt lat="45.89802" lon="5.12186">
        <ele>267.6</ele>
        <time>2024-09-19T08:13:46Z</time>
      </trkpt>
      <trkpt lat="45.89807" lon="5.12185">
        <ele>267.6</ele>
        <time>2024-09-19T08:13:47Z</time>
      </trkpt>
      <trkpt lat="45.89812" lon="5.12185">
        <ele>267.2</ele>
        <time>2024-09-19T08:13:48Z</time>
      </trkpt>
      <trkpt lat="45.89816" lon="5.12185">
        <ele>267.6</ele>
        <time>2024-09-19T08:13:49Z</time>
      </trkpt>
      <trkpt lat="45.89821" lon="5.12186">
        <ele>267.2</ele>
        <time>2024-09-19T08:13:50Z</time>
      </trkpt>
      <trkpt lat="45.89825" lon="5.12187">
        <ele>267.2</ele>
        <time>2024-09-19T08:13:51Z</time>
      </trkpt>
      <trkpt lat="45.8983" lon="5.12188">
        <ele>267.2</ele>
        <time>2024-09-19T08:13:52Z</time>
      </trkpt>
      <trkpt lat="45.89834" lon="5.1219">
        <ele>267.2</ele>
        <time>2024-09-19T08:13:53Z</time>
      </trkpt>
      <trkpt lat="45.89839" lon="5.12191">
        <ele>267.2</ele>
        <time>2024-09-19T08:13:54Z</time>
      </trkpt>
      <trkpt lat="45.89843" lon="5.12194">
        <ele>267.2</ele>
        <time>2024-09-19T08:13:55Z</time>
      </trkpt>
      <trkpt lat="45.89847" lon="5.12197">
        <ele>267.2</ele>
        <time>2024-09-19T08:13:56Z</time>
      </trkpt>
      <trkpt lat="45.89852" lon="5.122">
        <ele>267.2</ele>
        <time>2024-09-19T08:13:57Z</time>
      </trkpt>
      <trkpt lat="45.89856" lon="5.12203">
        <ele>267.2</ele>
        <time>2024-09-19T08:13:58Z</time>
      </trkpt>
      <trkpt lat="45.8986" lon="5.12206">
        <ele>267.2</ele>
        <time>2024-09-19T08:13:59Z</time>
      </trkpt>
      <trkpt lat="45.8986" lon="5.12206">
        <ele>267.2</ele>
        <time>2024-09-19T08:14:00Z</time>
      </trkpt>
      <trkpt lat="45.8986" lon="5.12206">
        <ele>267.6</ele>
        <time>2024-09-19T08:14:01Z</time>
      </trkpt>
      <trkpt lat="45.89871" lon="5.12216">
        <ele>267.6</ele>
        <time>2024-09-19T08:14:02Z</time>
      </trkpt>
      <trkpt lat="45.89873" lon="5.12219">
        <ele>268.2</ele>
        <time>2024-09-19T08:14:03Z</time>
      </trkpt>
      <trkpt lat="45.89875" lon="5.12224">
        <ele>268.4</ele>
        <time>2024-09-19T08:14:04Z</time>
      </trkpt>
      <trkpt lat="45.89875" lon="5.12227">
        <ele>268.4</ele>
        <time>2024-09-19T08:14:05Z</time>
      </trkpt>
      <trkpt lat="45.89874" lon="5.12231">
        <ele>268.8</ele>
        <time>2024-09-19T08:14:06Z</time>
      </trkpt>
      <trkpt lat="45.89873" lon="5.12235">
        <ele>269</ele>
        <time>2024-09-19T08:14:07Z</time>
      </trkpt>
      <trkpt lat="45.89871" lon="5.12239">
        <ele>269</ele>
        <time>2024-09-19T08:14:08Z</time>
      </trkpt>
      <trkpt lat="45.89869" lon="5.12244">
        <ele>268.6</ele>
        <time>2024-09-19T08:14:09Z</time>
      </trkpt>
      <trkpt lat="45.89867" lon="5.12248">
        <ele>268.6</ele>
        <time>2024-09-19T08:14:10Z</time>
      </trkpt>
      <trkpt lat="45.89864" lon="5.12253">
        <ele>268.6</ele>
        <time>2024-09-19T08:14:11Z</time>
      </trkpt>
      <trkpt lat="45.89862" lon="5.12258">
        <ele>268.6</ele>
        <time>2024-09-19T08:14:12Z</time>
      </trkpt>
      <trkpt lat="45.8986" lon="5.12263">
        <ele>268.6</ele>
        <time>2024-09-19T08:14:13Z</time>
      </trkpt>
      <trkpt lat="45.89858" lon="5.12268">
        <ele>268.4</ele>
        <time>2024-09-19T08:14:14Z</time>
      </trkpt>
      <trkpt lat="45.89856" lon="5.12274">
        <ele>268.4</ele>
        <time>2024-09-19T08:14:15Z</time>
      </trkpt>
      <trkpt lat="45.89855" lon="5.1228">
        <ele>268.4</ele>
        <time>2024-09-19T08:14:16Z</time>
      </trkpt>
      <trkpt lat="45.89854" lon="5.12286">
        <ele>268.6</ele>
        <time>2024-09-19T08:14:17Z</time>
      </trkpt>
      <trkpt lat="45.89854" lon="5.12293">
        <ele>268.6</ele>
        <time>2024-09-19T08:14:18Z</time>
      </trkpt>
      <trkpt lat="45.89853" lon="5.12299">
        <ele>268.6</ele>
        <time>2024-09-19T08:14:19Z</time>
      </trkpt>
      <trkpt lat="45.89853" lon="5.12305">
        <ele>269</ele>
        <time>2024-09-19T08:14:20Z</time>
      </trkpt>
      <trkpt lat="45.89854" lon="5.12311">
        <ele>269</ele>
        <time>2024-09-19T08:14:21Z</time>
      </trkpt>
      <trkpt lat="45.89853" lon="5.12318">
        <ele>269.4</ele>
        <time>2024-09-19T08:14:22Z</time>
      </trkpt>
      <trkpt lat="45.89853" lon="5.12324">
        <ele>269.4</ele>
        <time>2024-09-19T08:14:23Z</time>
      </trkpt>
      <trkpt lat="45.89853" lon="5.1233">
        <ele>269.8</ele>
        <time>2024-09-19T08:14:24Z</time>
      </trkpt>
      <trkpt lat="45.8985" lon="5.12335">
        <ele>269.8</ele>
        <time>2024-09-19T08:14:25Z</time>
      </trkpt>
      <trkpt lat="45.89849" lon="5.12341">
        <ele>270</ele>
        <time>2024-09-19T08:14:26Z</time>
      </trkpt>
      <trkpt lat="45.89847" lon="5.12347">
        <ele>270</ele>
        <time>2024-09-19T08:14:27Z</time>
      </trkpt>
      <trkpt lat="45.89845" lon="5.12352">
        <ele>270.2</ele>
        <time>2024-09-19T08:14:28Z</time>
      </trkpt>
      <trkpt lat="45.89843" lon="5.12356">
        <ele>270.6</ele>
        <time>2024-09-19T08:14:29Z</time>
      </trkpt>
      <trkpt lat="45.89841" lon="5.12361">
        <ele>270.8</ele>
        <time>2024-09-19T08:14:30Z</time>
      </trkpt>
      <trkpt lat="45.89839" lon="5.12365">
        <ele>271</ele>
        <time>2024-09-19T08:14:31Z</time>
      </trkpt>
      <trkpt lat="45.89837" lon="5.1237">
        <ele>271.2</ele>
        <time>2024-09-19T08:14:32Z</time>
      </trkpt>
      <trkpt lat="45.89835" lon="5.12375">
        <ele>271.6</ele>
        <time>2024-09-19T08:14:33Z</time>
      </trkpt>
      <trkpt lat="45.89833" lon="5.1238">
        <ele>271.6</ele>
        <time>2024-09-19T08:14:34Z</time>
      </trkpt>
      <trkpt lat="45.89831" lon="5.12385">
        <ele>271.8</ele>
        <time>2024-09-19T08:14:35Z</time>
      </trkpt>
      <trkpt lat="45.89829" lon="5.1239">
        <ele>272</ele>
        <time>2024-09-19T08:14:36Z</time>
      </trkpt>
      <trkpt lat="45.89827" lon="5.12395">
        <ele>272</ele>
        <time>2024-09-19T08:14:37Z</time>
      </trkpt>
      <trkpt lat="45.89825" lon="5.12401">
        <ele>272</ele>
        <time>2024-09-19T08:14:38Z</time>
      </trkpt>
      <trkpt lat="45.89823" lon="5.12406">
        <ele>272</ele>
        <time>2024-09-19T08:14:39Z</time>
      </trkpt>
      <trkpt lat="45.8982" lon="5.12414">
        <ele>272</ele>
        <time>2024-09-19T08:14:40Z</time>
      </trkpt>
      <trkpt lat="45.89819" lon="5.1242">
        <ele>272</ele>
        <time>2024-09-19T08:14:41Z</time>
      </trkpt>
      <trkpt lat="45.89816" lon="5.12426">
        <ele>272</ele>
        <time>2024-09-19T08:14:42Z</time>
      </trkpt>
      <trkpt lat="45.89815" lon="5.12433">
        <ele>272</ele>
        <time>2024-09-19T08:14:43Z</time>
      </trkpt>
      <trkpt lat="45.89813" lon="5.12439">
        <ele>272</ele>
        <time>2024-09-19T08:14:44Z</time>
      </trkpt>
      <trkpt lat="45.89811" lon="5.12445">
        <ele>272</ele>
        <time>2024-09-19T08:14:45Z</time>
      </trkpt>
      <trkpt lat="45.8981" lon="5.12453">
        <ele>272</ele>
        <time>2024-09-19T08:14:46Z</time>
      </trkpt>
      <trkpt lat="45.89807" lon="5.12459">
        <ele>272</ele>
        <time>2024-09-19T08:14:47Z</time>
      </trkpt>
      <trkpt lat="45.89805" lon="5.12464">
        <ele>272</ele>
        <time>2024-09-19T08:14:48Z</time>
      </trkpt>
      <trkpt lat="45.89803" lon="5.1247">
        <ele>272</ele>
        <time>2024-09-19T08:14:49Z</time>
      </trkpt>
      <trkpt lat="45.89801" lon="5.12476">
        <ele>272</ele>
        <time>2024-09-19T08:14:50Z</time>
      </trkpt>
      <trkpt lat="45.898" lon="5.1248">
        <ele>272</ele>
        <time>2024-09-19T08:14:51Z</time>
      </trkpt>
      <trkpt lat="45.89799" lon="5.12485">
        <ele>272</ele>
        <time>2024-09-19T08:14:52Z</time>
      </trkpt>
      <trkpt lat="45.89797" lon="5.12488">
        <ele>272.4</ele>
        <time>2024-09-19T08:14:53Z</time>
      </trkpt>
      <trkpt lat="45.89796" lon="5.1249">
        <ele>272.8</ele>
        <time>2024-09-19T08:14:54Z</time>
      </trkpt>
      <trkpt lat="45.89795" lon="5.12492">
        <ele>272.8</ele>
        <time>2024-09-19T08:14:55Z</time>
      </trkpt>
      <trkpt lat="45.89793" lon="5.12495">
        <ele>272.8</ele>
        <time>2024-09-19T08:14:56Z</time>
      </trkpt>
      <trkpt lat="45.89792" lon="5.12497">
        <ele>273</ele>
        <time>2024-09-19T08:14:57Z</time>
      </trkpt>
      <trkpt lat="45.89791" lon="5.12501">
        <ele>273</ele>
        <time>2024-09-19T08:14:58Z</time>
      </trkpt>
      <trkpt lat="45.8979" lon="5.12506">
        <ele>273</ele>
        <time>2024-09-19T08:14:59Z</time>
      </trkpt>
      <trkpt lat="45.89788" lon="5.12511">
        <ele>273</ele>
        <time>2024-09-19T08:15:00Z</time>
      </trkpt>
      <trkpt lat="45.89786" lon="5.12516">
        <ele>273</ele>
        <time>2024-09-19T08:15:01Z</time>
      </trkpt>
      <trkpt lat="45.89784" lon="5.12521">
        <ele>272.6</ele>
        <time>2024-09-19T08:15:02Z</time>
      </trkpt>
      <trkpt lat="45.89782" lon="5.12527">
        <ele>272.6</ele>
        <time>2024-09-19T08:15:03Z</time>
      </trkpt>
      <trkpt lat="45.89781" lon="5.12533">
        <ele>272.4</ele>
        <time>2024-09-19T08:15:04Z</time>
      </trkpt>
      <trkpt lat="45.89779" lon="5.1254">
        <ele>272.4</ele>
        <time>2024-09-19T08:15:05Z</time>
      </trkpt>
      <trkpt lat="45.89776" lon="5.12546">
        <ele>272.4</ele>
        <time>2024-09-19T08:15:06Z</time>
      </trkpt>
      <trkpt lat="45.89774" lon="5.12552">
        <ele>272.4</ele>
        <time>2024-09-19T08:15:07Z</time>
      </trkpt>
      <trkpt lat="45.89772" lon="5.12558">
        <ele>272.4</ele>
        <time>2024-09-19T08:15:08Z</time>
      </trkpt>
      <trkpt lat="45.8977" lon="5.12564">
        <ele>272.4</ele>
        <time>2024-09-19T08:15:09Z</time>
      </trkpt>
      <trkpt lat="45.89768" lon="5.12571">
        <ele>272.4</ele>
        <time>2024-09-19T08:15:10Z</time>
      </trkpt>
      <trkpt lat="45.89766" lon="5.12577">
        <ele>272.4</ele>
        <time>2024-09-19T08:15:11Z</time>
      </trkpt>
      <trkpt lat="45.89763" lon="5.12584">
        <ele>272.4</ele>
        <time>2024-09-19T08:15:12Z</time>
      </trkpt>
      <trkpt lat="45.89762" lon="5.1259">
        <ele>272.2</ele>
        <time>2024-09-19T08:15:13Z</time>
      </trkpt>
      <trkpt lat="45.8976" lon="5.12598">
        <ele>272.2</ele>
        <time>2024-09-19T08:15:14Z</time>
      </trkpt>
      <trkpt lat="45.89758" lon="5.12605">
        <ele>272.2</ele>
        <time>2024-09-19T08:15:15Z</time>
      </trkpt>
      <trkpt lat="45.89756" lon="5.12612">
        <ele>271.8</ele>
        <time>2024-09-19T08:15:16Z</time>
      </trkpt>
      <trkpt lat="45.89754" lon="5.12619">
        <ele>271.8</ele>
        <time>2024-09-19T08:15:17Z</time>
      </trkpt>
      <trkpt lat="45.89753" lon="5.12627">
        <ele>271.8</ele>
        <time>2024-09-19T08:15:18Z</time>
      </trkpt>
      <trkpt lat="45.89752" lon="5.12634">
        <ele>272.2</ele>
        <time>2024-09-19T08:15:19Z</time>
      </trkpt>
      <trkpt lat="45.8975" lon="5.12642">
        <ele>272.2</ele>
        <time>2024-09-19T08:15:20Z</time>
      </trkpt>
      <trkpt lat="45.89749" lon="5.1265">
        <ele>272.2</ele>
        <time>2024-09-19T08:15:21Z</time>
      </trkpt>
      <trkpt lat="45.89748" lon="5.12657">
        <ele>272.2</ele>
        <time>2024-09-19T08:15:22Z</time>
      </trkpt>
      <trkpt lat="45.89747" lon="5.12664">
        <ele>272.4</ele>
        <time>2024-09-19T08:15:23Z</time>
      </trkpt>
      <trkpt lat="45.89747" lon="5.12672">
        <ele>272.4</ele>
        <time>2024-09-19T08:15:24Z</time>
      </trkpt>
      <trkpt lat="45.89746" lon="5.12679">
        <ele>272.4</ele>
        <time>2024-09-19T08:15:25Z</time>
      </trkpt>
      <trkpt lat="45.89746" lon="5.12688">
        <ele>272.4</ele>
        <time>2024-09-19T08:15:26Z</time>
      </trkpt>
      <trkpt lat="45.89746" lon="5.12695">
        <ele>272.4</ele>
        <time>2024-09-19T08:15:27Z</time>
      </trkpt>
      <trkpt lat="45.89746" lon="5.12702">
        <ele>272.4</ele>
        <time>2024-09-19T08:15:28Z</time>
      </trkpt>
      <trkpt lat="45.89746" lon="5.1271">
        <ele>272.4</ele>
        <time>2024-09-19T08:15:29Z</time>
      </trkpt>
      <trkpt lat="45.89747" lon="5.12717">
        <ele>272.4</ele>
        <time>2024-09-19T08:15:30Z</time>
      </trkpt>
      <trkpt lat="45.89747" lon="5.12725">
        <ele>272.4</ele>
        <time>2024-09-19T08:15:31Z</time>
      </trkpt>
      <trkpt lat="45.89748" lon="5.12732">
        <ele>272.4</ele>
        <time>2024-09-19T08:15:32Z</time>
      </trkpt>
      <trkpt lat="45.89748" lon="5.1274">
        <ele>272.6</ele>
        <time>2024-09-19T08:15:33Z</time>
      </trkpt>
      <trkpt lat="45.89749" lon="5.12747">
        <ele>272.6</ele>
        <time>2024-09-19T08:15:34Z</time>
      </trkpt>
      <trkpt lat="45.89749" lon="5.12754">
        <ele>272.8</ele>
        <time>2024-09-19T08:15:35Z</time>
      </trkpt>
      <trkpt lat="45.89749" lon="5.12762">
        <ele>272.8</ele>
        <time>2024-09-19T08:15:36Z</time>
      </trkpt>
      <trkpt lat="45.8975" lon="5.12769">
        <ele>272.8</ele>
        <time>2024-09-19T08:15:37Z</time>
      </trkpt>
      <trkpt lat="45.8975" lon="5.12777">
        <ele>272.8</ele>
        <time>2024-09-19T08:15:38Z</time>
      </trkpt>
      <trkpt lat="45.8975" lon="5.12785">
        <ele>273.2</ele>
        <time>2024-09-19T08:15:39Z</time>
      </trkpt>
      <trkpt lat="45.8975" lon="5.12792">
        <ele>273.2</ele>
        <time>2024-09-19T08:15:40Z</time>
      </trkpt>
      <trkpt lat="45.8975" lon="5.12799">
        <ele>273.2</ele>
        <time>2024-09-19T08:15:41Z</time>
      </trkpt>
      <trkpt lat="45.89751" lon="5.12807">
        <ele>273.2</ele>
        <time>2024-09-19T08:15:42Z</time>
      </trkpt>
      <trkpt lat="45.89751" lon="5.12814">
        <ele>273.4</ele>
        <time>2024-09-19T08:15:43Z</time>
      </trkpt>
      <trkpt lat="45.89751" lon="5.12822">
        <ele>273.4</ele>
        <time>2024-09-19T08:15:44Z</time>
      </trkpt>
      <trkpt lat="45.89752" lon="5.12829">
        <ele>273.6</ele>
        <time>2024-09-19T08:15:45Z</time>
      </trkpt>
      <trkpt lat="45.89752" lon="5.12837">
        <ele>273.6</ele>
        <time>2024-09-19T08:15:46Z</time>
      </trkpt>
      <trkpt lat="45.89753" lon="5.12844">
        <ele>273.6</ele>
        <time>2024-09-19T08:15:47Z</time>
      </trkpt>
      <trkpt lat="45.89753" lon="5.12851">
        <ele>273.6</ele>
        <time>2024-09-19T08:15:48Z</time>
      </trkpt>
      <trkpt lat="45.89753" lon="5.12858">
        <ele>273.6</ele>
        <time>2024-09-19T08:15:49Z</time>
      </trkpt>
      <trkpt lat="45.89753" lon="5.12865">
        <ele>274</ele>
        <time>2024-09-19T08:15:50Z</time>
      </trkpt>
      <trkpt lat="45.89753" lon="5.12874">
        <ele>274.2</ele>
        <time>2024-09-19T08:15:51Z</time>
      </trkpt>
      <trkpt lat="45.89754" lon="5.1288">
        <ele>274.2</ele>
        <time>2024-09-19T08:15:52Z</time>
      </trkpt>
      <trkpt lat="45.89754" lon="5.12887">
        <ele>274.6</ele>
        <time>2024-09-19T08:15:53Z</time>
      </trkpt>
      <trkpt lat="45.89754" lon="5.12895">
        <ele>274.6</ele>
        <time>2024-09-19T08:15:54Z</time>
      </trkpt>
      <trkpt lat="45.89755" lon="5.12902">
        <ele>274.6</ele>
        <time>2024-09-19T08:15:55Z</time>
      </trkpt>
      <trkpt lat="45.89755" lon="5.12909">
        <ele>274.8</ele>
        <time>2024-09-19T08:15:56Z</time>
      </trkpt>
      <trkpt lat="45.89756" lon="5.12916">
        <ele>274.8</ele>
        <time>2024-09-19T08:15:57Z</time>
      </trkpt>
      <trkpt lat="45.89758" lon="5.12922">
        <ele>275.2</ele>
        <time>2024-09-19T08:15:58Z</time>
      </trkpt>
      <trkpt lat="45.89759" lon="5.1293">
        <ele>275.2</ele>
        <time>2024-09-19T08:15:59Z</time>
      </trkpt>
      <trkpt lat="45.89761" lon="5.12936">
        <ele>275.4</ele>
        <time>2024-09-19T08:16:00Z</time>
      </trkpt>
      <trkpt lat="45.89763" lon="5.12942">
        <ele>275.4</ele>
        <time>2024-09-19T08:16:01Z</time>
      </trkpt>
      <trkpt lat="45.89765" lon="5.12949">
        <ele>275.8</ele>
        <time>2024-09-19T08:16:02Z</time>
      </trkpt>
      <trkpt lat="45.89767" lon="5.12955">
        <ele>275.8</ele>
        <time>2024-09-19T08:16:03Z</time>
      </trkpt>
      <trkpt lat="45.8977" lon="5.1296">
        <ele>275.8</ele>
        <time>2024-09-19T08:16:04Z</time>
      </trkpt>
      <trkpt lat="45.89772" lon="5.12965">
        <ele>275.8</ele>
        <time>2024-09-19T08:16:05Z</time>
      </trkpt>
      <trkpt lat="45.89774" lon="5.12969">
        <ele>275.8</ele>
        <time>2024-09-19T08:16:06Z</time>
      </trkpt>
      <trkpt lat="45.89775" lon="5.12975">
        <ele>275.8</ele>
        <time>2024-09-19T08:16:07Z</time>
      </trkpt>
      <trkpt lat="45.89778" lon="5.1298">
        <ele>275.8</ele>
        <time>2024-09-19T08:16:08Z</time>
      </trkpt>
      <trkpt lat="45.89781" lon="5.12986">
        <ele>275.8</ele>
        <time>2024-09-19T08:16:09Z</time>
      </trkpt>
      <trkpt lat="45.89783" lon="5.12992">
        <ele>275.8</ele>
        <time>2024-09-19T08:16:10Z</time>
      </trkpt>
      <trkpt lat="45.89785" lon="5.12998">
        <ele>275.8</ele>
        <time>2024-09-19T08:16:11Z</time>
      </trkpt>
      <trkpt lat="45.89788" lon="5.13005">
        <ele>275.8</ele>
        <time>2024-09-19T08:16:12Z</time>
      </trkpt>
      <trkpt lat="45.89791" lon="5.13011">
        <ele>275.8</ele>
        <time>2024-09-19T08:16:13Z</time>
      </trkpt>
      <trkpt lat="45.89794" lon="5.13017">
        <ele>275.8</ele>
        <time>2024-09-19T08:16:14Z</time>
      </trkpt>
      <trkpt lat="45.89796" lon="5.13023">
        <ele>275.8</ele>
        <time>2024-09-19T08:16:15Z</time>
      </trkpt>
      <trkpt lat="45.898" lon="5.13028">
        <ele>275.8</ele>
        <time>2024-09-19T08:16:16Z</time>
      </trkpt>
      <trkpt lat="45.89801" lon="5.13034">
        <ele>276</ele>
        <time>2024-09-19T08:16:17Z</time>
      </trkpt>
      <trkpt lat="45.89804" lon="5.13041">
        <ele>275.4</ele>
        <time>2024-09-19T08:16:18Z</time>
      </trkpt>
      <trkpt lat="45.89807" lon="5.13047">
        <ele>275.8</ele>
        <time>2024-09-19T08:16:19Z</time>
      </trkpt>
      <trkpt lat="45.89809" lon="5.13054">
        <ele>276</ele>
        <time>2024-09-19T08:16:20Z</time>
      </trkpt>
      <trkpt lat="45.89812" lon="5.13061">
        <ele>276.2</ele>
        <time>2024-09-19T08:16:21Z</time>
      </trkpt>
      <trkpt lat="45.89815" lon="5.13068">
        <ele>276.2</ele>
        <time>2024-09-19T08:16:22Z</time>
      </trkpt>
      <trkpt lat="45.89817" lon="5.13074">
        <ele>276.4</ele>
        <time>2024-09-19T08:16:23Z</time>
      </trkpt>
      <trkpt lat="45.89819" lon="5.1308">
        <ele>276.8</ele>
        <time>2024-09-19T08:16:24Z</time>
      </trkpt>
      <trkpt lat="45.8982" lon="5.13086">
        <ele>276.8</ele>
        <time>2024-09-19T08:16:25Z</time>
      </trkpt>
      <trkpt lat="45.89821" lon="5.13093">
        <ele>276.8</ele>
        <time>2024-09-19T08:16:26Z</time>
      </trkpt>
      <trkpt lat="45.89824" lon="5.131">
        <ele>276.8</ele>
        <time>2024-09-19T08:16:27Z</time>
      </trkpt>
      <trkpt lat="45.89824" lon="5.13107">
        <ele>276.8</ele>
        <time>2024-09-19T08:16:28Z</time>
      </trkpt>
      <trkpt lat="45.89825" lon="5.13113">
        <ele>276.8</ele>
        <time>2024-09-19T08:16:29Z</time>
      </trkpt>
      <trkpt lat="45.89826" lon="5.1312">
        <ele>276.8</ele>
        <time>2024-09-19T08:16:30Z</time>
      </trkpt>
      <trkpt lat="45.89827" lon="5.13127">
        <ele>276.8</ele>
        <time>2024-09-19T08:16:31Z</time>
      </trkpt>
      <trkpt lat="45.89828" lon="5.13134">
        <ele>276.8</ele>
        <time>2024-09-19T08:16:32Z</time>
      </trkpt>
      <trkpt lat="45.89829" lon="5.13141">
        <ele>277</ele>
        <time>2024-09-19T08:16:33Z</time>
      </trkpt>
      <trkpt lat="45.8983" lon="5.13148">
        <ele>277</ele>
        <time>2024-09-19T08:16:34Z</time>
      </trkpt>
      <trkpt lat="45.89832" lon="5.13155">
        <ele>277</ele>
        <time>2024-09-19T08:16:35Z</time>
      </trkpt>
      <trkpt lat="45.89832" lon="5.13162">
        <ele>277</ele>
        <time>2024-09-19T08:16:36Z</time>
      </trkpt>
      <trkpt lat="45.89833" lon="5.1317">
        <ele>277</ele>
        <time>2024-09-19T08:16:37Z</time>
      </trkpt>
      <trkpt lat="45.89834" lon="5.13177">
        <ele>277</ele>
        <time>2024-09-19T08:16:38Z</time>
      </trkpt>
      <trkpt lat="45.89836" lon="5.13184">
        <ele>277</ele>
        <time>2024-09-19T08:16:39Z</time>
      </trkpt>
      <trkpt lat="45.89837" lon="5.13192">
        <ele>276.8</ele>
        <time>2024-09-19T08:16:40Z</time>
      </trkpt>
      <trkpt lat="45.89837" lon="5.13199">
        <ele>276.8</ele>
        <time>2024-09-19T08:16:41Z</time>
      </trkpt>
      <trkpt lat="45.89838" lon="5.13206">
        <ele>276.8</ele>
        <time>2024-09-19T08:16:42Z</time>
      </trkpt>
      <trkpt lat="45.89839" lon="5.13213">
        <ele>277</ele>
        <time>2024-09-19T08:16:43Z</time>
      </trkpt>
      <trkpt lat="45.8984" lon="5.1322">
        <ele>277</ele>
        <time>2024-09-19T08:16:44Z</time>
      </trkpt>
      <trkpt lat="45.8984" lon="5.13227">
        <ele>277.4</ele>
        <time>2024-09-19T08:16:45Z</time>
      </trkpt>
      <trkpt lat="45.89841" lon="5.13234">
        <ele>277.4</ele>
        <time>2024-09-19T08:16:46Z</time>
      </trkpt>
      <trkpt lat="45.89841" lon="5.13241">
        <ele>277.6</ele>
        <time>2024-09-19T08:16:47Z</time>
      </trkpt>
      <trkpt lat="45.89841" lon="5.13248">
        <ele>277.6</ele>
        <time>2024-09-19T08:16:48Z</time>
      </trkpt>
      <trkpt lat="45.89842" lon="5.13255">
        <ele>277.6</ele>
        <time>2024-09-19T08:16:49Z</time>
      </trkpt>
      <trkpt lat="45.89843" lon="5.13262">
        <ele>277.8</ele>
        <time>2024-09-19T08:16:50Z</time>
      </trkpt>
      <trkpt lat="45.89844" lon="5.13269">
        <ele>277.8</ele>
        <time>2024-09-19T08:16:51Z</time>
      </trkpt>
      <trkpt lat="45.89844" lon="5.13276">
        <ele>277.8</ele>
        <time>2024-09-19T08:16:52Z</time>
      </trkpt>
      <trkpt lat="45.89845" lon="5.13283">
        <ele>277.8</ele>
        <time>2024-09-19T08:16:53Z</time>
      </trkpt>
      <trkpt lat="45.89846" lon="5.1329">
        <ele>277.8</ele>
        <time>2024-09-19T08:16:54Z</time>
      </trkpt>
      <trkpt lat="45.89847" lon="5.13296">
        <ele>278</ele>
        <time>2024-09-19T08:16:55Z</time>
      </trkpt>
      <trkpt lat="45.89848" lon="5.13303">
        <ele>278</ele>
        <time>2024-09-19T08:16:56Z</time>
      </trkpt>
      <trkpt lat="45.89848" lon="5.1331">
        <ele>278</ele>
        <time>2024-09-19T08:16:57Z</time>
      </trkpt>
      <trkpt lat="45.8985" lon="5.13316">
        <ele>278.4</ele>
        <time>2024-09-19T08:16:58Z</time>
      </trkpt>
      <trkpt lat="45.8985" lon="5.13322">
        <ele>278.4</ele>
        <time>2024-09-19T08:16:59Z</time>
      </trkpt>
      <trkpt lat="45.89851" lon="5.13328">
        <ele>278.6</ele>
        <time>2024-09-19T08:17:00Z</time>
      </trkpt>
      <trkpt lat="45.89852" lon="5.13335">
        <ele>278.6</ele>
        <time>2024-09-19T08:17:01Z</time>
      </trkpt>
      <trkpt lat="45.89853" lon="5.13341">
        <ele>278.6</ele>
        <time>2024-09-19T08:17:02Z</time>
      </trkpt>
      <trkpt lat="45.89854" lon="5.13346">
        <ele>279</ele>
        <time>2024-09-19T08:17:03Z</time>
      </trkpt>
      <trkpt lat="45.89855" lon="5.13352">
        <ele>279.2</ele>
        <time>2024-09-19T08:17:04Z</time>
      </trkpt>
      <trkpt lat="45.89856" lon="5.13357">
        <ele>279.2</ele>
        <time>2024-09-19T08:17:05Z</time>
      </trkpt>
      <trkpt lat="45.89857" lon="5.13362">
        <ele>279.4</ele>
        <time>2024-09-19T08:17:06Z</time>
      </trkpt>
      <trkpt lat="45.89858" lon="5.13366">
        <ele>279.4</ele>
        <time>2024-09-19T08:17:07Z</time>
      </trkpt>
      <trkpt lat="45.89859" lon="5.13371">
        <ele>279.4</ele>
        <time>2024-09-19T08:17:08Z</time>
      </trkpt>
      <trkpt lat="45.8986" lon="5.13375">
        <ele>279.4</ele>
        <time>2024-09-19T08:17:09Z</time>
      </trkpt>
      <trkpt lat="45.89861" lon="5.1338">
        <ele>279.4</ele>
        <time>2024-09-19T08:17:10Z</time>
      </trkpt>
      <trkpt lat="45.89862" lon="5.13385">
        <ele>279.4</ele>
        <time>2024-09-19T08:17:11Z</time>
      </trkpt>
      <trkpt lat="45.89863" lon="5.1339">
        <ele>279.4</ele>
        <time>2024-09-19T08:17:12Z</time>
      </trkpt>
      <trkpt lat="45.89864" lon="5.13395">
        <ele>279.6</ele>
        <time>2024-09-19T08:17:13Z</time>
      </trkpt>
      <trkpt lat="45.89865" lon="5.13399">
        <ele>280</ele>
        <time>2024-09-19T08:17:14Z</time>
      </trkpt>
      <trkpt lat="45.89865" lon="5.13404">
        <ele>280</ele>
        <time>2024-09-19T08:17:15Z</time>
      </trkpt>
      <trkpt lat="45.89866" lon="5.13408">
        <ele>280.2</ele>
        <time>2024-09-19T08:17:16Z</time>
      </trkpt>
      <trkpt lat="45.89868" lon="5.13413">
        <ele>280.2</ele>
        <time>2024-09-19T08:17:17Z</time>
      </trkpt>
      <trkpt lat="45.89869" lon="5.13418">
        <ele>280.6</ele>
        <time>2024-09-19T08:17:18Z</time>
      </trkpt>
      <trkpt lat="45.8987" lon="5.13422">
        <ele>280.6</ele>
        <time>2024-09-19T08:17:19Z</time>
      </trkpt>
      <trkpt lat="45.89871" lon="5.13427">
        <ele>280.8</ele>
        <time>2024-09-19T08:17:20Z</time>
      </trkpt>
      <trkpt lat="45.89872" lon="5.13432">
        <ele>280.8</ele>
        <time>2024-09-19T08:17:21Z</time>
      </trkpt>
      <trkpt lat="45.89872" lon="5.13432">
        <ele>281</ele>
        <time>2024-09-19T08:17:22Z</time>
      </trkpt>
      <trkpt lat="45.89873" lon="5.13436">
        <ele>281</ele>
        <time>2024-09-19T08:17:23Z</time>
      </trkpt>
      <trkpt lat="45.89875" lon="5.13441">
        <ele>281</ele>
        <time>2024-09-19T08:17:24Z</time>
      </trkpt>
      <trkpt lat="45.89876" lon="5.13444">
        <ele>281</ele>
        <time>2024-09-19T08:17:25Z</time>
      </trkpt>
      <trkpt lat="45.89877" lon="5.13448">
        <ele>281</ele>
        <time>2024-09-19T08:17:26Z</time>
      </trkpt>
      <trkpt lat="45.89878" lon="5.13453">
        <ele>281</ele>
        <time>2024-09-19T08:17:27Z</time>
      </trkpt>
      <trkpt lat="45.89879" lon="5.13458">
        <ele>281</ele>
        <time>2024-09-19T08:17:28Z</time>
      </trkpt>
      <trkpt lat="45.8988" lon="5.13463">
        <ele>281</ele>
        <time>2024-09-19T08:17:29Z</time>
      </trkpt>
      <trkpt lat="45.89881" lon="5.13468">
        <ele>281</ele>
        <time>2024-09-19T08:17:30Z</time>
      </trkpt>
      <trkpt lat="45.89882" lon="5.13472">
        <ele>281.2</ele>
        <time>2024-09-19T08:17:31Z</time>
      </trkpt>
      <trkpt lat="45.89885" lon="5.13481">
        <ele>281.2</ele>
        <time>2024-09-19T08:17:32Z</time>
      </trkpt>
      <trkpt lat="45.89886" lon="5.13485">
        <ele>281.2</ele>
        <time>2024-09-19T08:17:33Z</time>
      </trkpt>
      <trkpt lat="45.89887" lon="5.13489">
        <ele>281.4</ele>
        <time>2024-09-19T08:17:34Z</time>
      </trkpt>
      <trkpt lat="45.89888" lon="5.13492">
        <ele>281.4</ele>
        <time>2024-09-19T08:17:35Z</time>
      </trkpt>
      <trkpt lat="45.8989" lon="5.13495">
        <ele>281.4</ele>
        <time>2024-09-19T08:17:36Z</time>
      </trkpt>
      <trkpt lat="45.89891" lon="5.13498">
        <ele>281.4</ele>
        <time>2024-09-19T08:17:37Z</time>
      </trkpt>
      <trkpt lat="45.89892" lon="5.13501">
        <ele>281.4</ele>
        <time>2024-09-19T08:17:38Z</time>
      </trkpt>
      <trkpt lat="45.89893" lon="5.13503">
        <ele>281.8</ele>
        <time>2024-09-19T08:17:39Z</time>
      </trkpt>
      <trkpt lat="45.89894" lon="5.13505">
        <ele>281.8</ele>
        <time>2024-09-19T08:17:40Z</time>
      </trkpt>
      <trkpt lat="45.89894" lon="5.13507">
        <ele>281.8</ele>
        <time>2024-09-19T08:17:41Z</time>
      </trkpt>
      <trkpt lat="45.89894" lon="5.13508">
        <ele>281.8</ele>
        <time>2024-09-19T08:17:42Z</time>
      </trkpt>
      <trkpt lat="45.89894" lon="5.13508">
        <ele>281.8</ele>
        <time>2024-09-19T08:17:43Z</time>
      </trkpt>
      <trkpt lat="45.89894" lon="5.13507">
        <ele>281.8</ele>
        <time>2024-09-19T08:17:44Z</time>
      </trkpt>
      <trkpt lat="45.89896" lon="5.1351">
        <ele>282</ele>
        <time>2024-09-19T08:19:22Z</time>
      </trkpt>
      <trkpt lat="45.89898" lon="5.13512">
        <ele>282</ele>
        <time>2024-09-19T08:19:23Z</time>
      </trkpt>
      <trkpt lat="45.899" lon="5.13516">
        <ele>281.6</ele>
        <time>2024-09-19T08:19:24Z</time>
      </trkpt>
      <trkpt lat="45.89899" lon="5.13523">
        <ele>281.6</ele>
        <time>2024-09-19T08:19:25Z</time>
      </trkpt>
      <trkpt lat="45.89897" lon="5.13529">
        <ele>281.2</ele>
        <time>2024-09-19T08:19:26Z</time>
      </trkpt>
      <trkpt lat="45.89894" lon="5.13533">
        <ele>281</ele>
        <time>2024-09-19T08:19:27Z</time>
      </trkpt>
      <trkpt lat="45.89891" lon="5.13536">
        <ele>281</ele>
        <time>2024-09-19T08:19:28Z</time>
      </trkpt>
      <trkpt lat="45.89887" lon="5.13539">
        <ele>280.6</ele>
        <time>2024-09-19T08:19:29Z</time>
      </trkpt>
      <trkpt lat="45.89882" lon="5.13542">
        <ele>280.6</ele>
        <time>2024-09-19T08:19:30Z</time>
      </trkpt>
      <trkpt lat="45.89878" lon="5.13544">
        <ele>280.6</ele>
        <time>2024-09-19T08:19:31Z</time>
      </trkpt>
      <trkpt lat="45.89872" lon="5.13547">
        <ele>280.6</ele>
        <time>2024-09-19T08:19:32Z</time>
      </trkpt>
      <trkpt lat="45.89867" lon="5.13549">
        <ele>280</ele>
        <time>2024-09-19T08:19:33Z</time>
      </trkpt>
      <trkpt lat="45.89861" lon="5.1355">
        <ele>279.6</ele>
        <time>2024-09-19T08:19:34Z</time>
      </trkpt>
      <trkpt lat="45.89854" lon="5.13552">
        <ele>279.2</ele>
        <time>2024-09-19T08:19:35Z</time>
      </trkpt>
      <trkpt lat="45.89847" lon="5.13554">
        <ele>279</ele>
        <time>2024-09-19T08:19:36Z</time>
      </trkpt>
      <trkpt lat="45.8984" lon="5.13556">
        <ele>278.6</ele>
        <time>2024-09-19T08:19:37Z</time>
      </trkpt>
      <trkpt lat="45.89833" lon="5.13557">
        <ele>278.2</ele>
        <time>2024-09-19T08:19:38Z</time>
      </trkpt>
      <trkpt lat="45.89826" lon="5.13559">
        <ele>277.6</ele>
        <time>2024-09-19T08:19:39Z</time>
      </trkpt>
      <trkpt lat="45.89818" lon="5.13561">
        <ele>277.2</ele>
        <time>2024-09-19T08:19:40Z</time>
      </trkpt>
      <trkpt lat="45.8981" lon="5.13563">
        <ele>276.6</ele>
        <time>2024-09-19T08:19:41Z</time>
      </trkpt>
      <trkpt lat="45.89802" lon="5.13564">
        <ele>276.2</ele>
        <time>2024-09-19T08:19:42Z</time>
      </trkpt>
      <trkpt lat="45.89795" lon="5.13566">
        <ele>275.6</ele>
        <time>2024-09-19T08:19:43Z</time>
      </trkpt>
      <trkpt lat="45.89787" lon="5.13568">
        <ele>275.2</ele>
        <time>2024-09-19T08:19:44Z</time>
      </trkpt>
      <trkpt lat="45.89778" lon="5.1357">
        <ele>274.8</ele>
        <time>2024-09-19T08:19:45Z</time>
      </trkpt>
      <trkpt lat="45.8977" lon="5.13573">
        <ele>274.2</ele>
        <time>2024-09-19T08:19:46Z</time>
      </trkpt>
      <trkpt lat="45.89762" lon="5.13577">
        <ele>273.8</ele>
        <time>2024-09-19T08:19:47Z</time>
      </trkpt>
      <trkpt lat="45.89754" lon="5.1358">
        <ele>273.2</ele>
        <time>2024-09-19T08:19:48Z</time>
      </trkpt>
      <trkpt lat="45.89745" lon="5.13585">
        <ele>272.6</ele>
        <time>2024-09-19T08:19:49Z</time>
      </trkpt>
      <trkpt lat="45.89737" lon="5.13589">
        <ele>272</ele>
        <time>2024-09-19T08:19:50Z</time>
      </trkpt>
      <trkpt lat="45.89729" lon="5.13594">
        <ele>271.4</ele>
        <time>2024-09-19T08:19:51Z</time>
      </trkpt>
      <trkpt lat="45.89722" lon="5.13598">
        <ele>271.2</ele>
        <time>2024-09-19T08:19:52Z</time>
      </trkpt>
      <trkpt lat="45.89715" lon="5.13602">
        <ele>270.8</ele>
        <time>2024-09-19T08:19:53Z</time>
      </trkpt>
      <trkpt lat="45.89708" lon="5.13606">
        <ele>270.8</ele>
        <time>2024-09-19T08:19:54Z</time>
      </trkpt>
      <trkpt lat="45.89701" lon="5.1361">
        <ele>270.8</ele>
        <time>2024-09-19T08:19:55Z</time>
      </trkpt>
      <trkpt lat="45.89695" lon="5.13614">
        <ele>270.8</ele>
        <time>2024-09-19T08:19:56Z</time>
      </trkpt>
      <trkpt lat="45.8969" lon="5.13617">
        <ele>270.8</ele>
        <time>2024-09-19T08:19:57Z</time>
      </trkpt>
      <trkpt lat="45.89686" lon="5.13621">
        <ele>270.8</ele>
        <time>2024-09-19T08:19:58Z</time>
      </trkpt>
      <trkpt lat="45.89682" lon="5.13624">
        <ele>271</ele>
        <time>2024-09-19T08:19:59Z</time>
      </trkpt>
      <trkpt lat="45.8968" lon="5.13629">
        <ele>271</ele>
        <time>2024-09-19T08:20:00Z</time>
      </trkpt>
      <trkpt lat="45.8968" lon="5.13634">
        <ele>271.8</ele>
        <time>2024-09-19T08:20:01Z</time>
      </trkpt>
      <trkpt lat="45.8968" lon="5.1364">
        <ele>271.4</ele>
        <time>2024-09-19T08:20:02Z</time>
      </trkpt>
      <trkpt lat="45.89681" lon="5.13645">
        <ele>271.6</ele>
        <time>2024-09-19T08:20:03Z</time>
      </trkpt>
      <trkpt lat="45.89681" lon="5.1365">
        <ele>271.6</ele>
        <time>2024-09-19T08:20:04Z</time>
      </trkpt>
      <trkpt lat="45.89682" lon="5.13655">
        <ele>271.4</ele>
        <time>2024-09-19T08:20:05Z</time>
      </trkpt>
      <trkpt lat="45.89683" lon="5.13659">
        <ele>271.4</ele>
        <time>2024-09-19T08:20:06Z</time>
      </trkpt>
      <trkpt lat="45.89684" lon="5.13665">
        <ele>271</ele>
        <time>2024-09-19T08:20:07Z</time>
      </trkpt>
      <trkpt lat="45.89684" lon="5.1367">
        <ele>271</ele>
        <time>2024-09-19T08:20:08Z</time>
      </trkpt>
      <trkpt lat="45.89685" lon="5.13675">
        <ele>271</ele>
        <time>2024-09-19T08:20:09Z</time>
      </trkpt>
      <trkpt lat="45.89685" lon="5.13681">
        <ele>271</ele>
        <time>2024-09-19T08:20:10Z</time>
      </trkpt>
      <trkpt lat="45.89686" lon="5.13687">
        <ele>271</ele>
        <time>2024-09-19T08:20:11Z</time>
      </trkpt>
      <trkpt lat="45.89687" lon="5.13693">
        <ele>271</ele>
        <time>2024-09-19T08:20:12Z</time>
      </trkpt>
      <trkpt lat="45.89687" lon="5.13699">
        <ele>271</ele>
        <time>2024-09-19T08:20:13Z</time>
      </trkpt>
      <trkpt lat="45.89688" lon="5.13705">
        <ele>271.4</ele>
        <time>2024-09-19T08:20:14Z</time>
      </trkpt>
      <trkpt lat="45.89688" lon="5.13711">
        <ele>271.4</ele>
        <time>2024-09-19T08:20:15Z</time>
      </trkpt>
      <trkpt lat="45.89688" lon="5.13718">
        <ele>271.8</ele>
        <time>2024-09-19T08:20:16Z</time>
      </trkpt>
      <trkpt lat="45.89689" lon="5.13724">
        <ele>271.8</ele>
        <time>2024-09-19T08:20:17Z</time>
      </trkpt>
      <trkpt lat="45.89689" lon="5.13724">
        <ele>272</ele>
        <time>2024-09-19T08:20:18Z</time>
      </trkpt>
      <trkpt lat="45.89689" lon="5.1373">
        <ele>271.4</ele>
        <time>2024-09-19T08:20:19Z</time>
      </trkpt>
      <trkpt lat="45.89689" lon="5.13737">
        <ele>271</ele>
        <time>2024-09-19T08:20:20Z</time>
      </trkpt>
      <trkpt lat="45.8969" lon="5.13744">
        <ele>271.4</ele>
        <time>2024-09-19T08:20:21Z</time>
      </trkpt>
      <trkpt lat="45.8969" lon="5.1375">
        <ele>271.4</ele>
        <time>2024-09-19T08:20:22Z</time>
      </trkpt>
      <trkpt lat="45.89691" lon="5.13756">
        <ele>272.2</ele>
        <time>2024-09-19T08:20:23Z</time>
      </trkpt>
      <trkpt lat="45.89691" lon="5.13762">
        <ele>272.4</ele>
        <time>2024-09-19T08:20:24Z</time>
      </trkpt>
      <trkpt lat="45.89692" lon="5.13768">
        <ele>272.4</ele>
        <time>2024-09-19T08:20:25Z</time>
      </trkpt>
      <trkpt lat="45.89693" lon="5.13781">
        <ele>272.6</ele>
        <time>2024-09-19T08:20:26Z</time>
      </trkpt>
      <trkpt lat="45.89693" lon="5.13787">
        <ele>272.6</ele>
        <time>2024-09-19T08:20:27Z</time>
      </trkpt>
      <trkpt lat="45.89694" lon="5.13793">
        <ele>272.6</ele>
        <time>2024-09-19T08:20:28Z</time>
      </trkpt>
      <trkpt lat="45.89694" lon="5.13799">
        <ele>273</ele>
        <time>2024-09-19T08:20:29Z</time>
      </trkpt>
      <trkpt lat="45.89696" lon="5.13805">
        <ele>273</ele>
        <time>2024-09-19T08:20:30Z</time>
      </trkpt>
      <trkpt lat="45.89696" lon="5.13811">
        <ele>273.2</ele>
        <time>2024-09-19T08:20:31Z</time>
      </trkpt>
      <trkpt lat="45.89698" lon="5.13816">
        <ele>273.2</ele>
        <time>2024-09-19T08:20:32Z</time>
      </trkpt>
      <trkpt lat="45.897" lon="5.13821">
        <ele>274</ele>
        <time>2024-09-19T08:20:33Z</time>
      </trkpt>
      <trkpt lat="45.89702" lon="5.13825">
        <ele>274.2</ele>
        <time>2024-09-19T08:20:34Z</time>
      </trkpt>
      <trkpt lat="45.89704" lon="5.13829">
        <ele>274.8</ele>
        <time>2024-09-19T08:20:35Z</time>
      </trkpt>
      <trkpt lat="45.89705" lon="5.13833">
        <ele>275.2</ele>
        <time>2024-09-19T08:20:36Z</time>
      </trkpt>
      <trkpt lat="45.89707" lon="5.13837">
        <ele>275.8</ele>
        <time>2024-09-19T08:20:37Z</time>
      </trkpt>
      <trkpt lat="45.89708" lon="5.1384">
        <ele>275.8</ele>
        <time>2024-09-19T08:20:38Z</time>
      </trkpt>
      <trkpt lat="45.8971" lon="5.13844">
        <ele>275.8</ele>
        <time>2024-09-19T08:20:39Z</time>
      </trkpt>
      <trkpt lat="45.89711" lon="5.13847">
        <ele>275.8</ele>
        <time>2024-09-19T08:20:40Z</time>
      </trkpt>
      <trkpt lat="45.89713" lon="5.1385">
        <ele>276.2</ele>
        <time>2024-09-19T08:20:41Z</time>
      </trkpt>
      <trkpt lat="45.89715" lon="5.13854">
        <ele>276.2</ele>
        <time>2024-09-19T08:20:42Z</time>
      </trkpt>
      <trkpt lat="45.89716" lon="5.13857">
        <ele>276.2</ele>
        <time>2024-09-19T08:20:43Z</time>
      </trkpt>
      <trkpt lat="45.89717" lon="5.1386">
        <ele>276.6</ele>
        <time>2024-09-19T08:20:44Z</time>
      </trkpt>
      <trkpt lat="45.89718" lon="5.13863">
        <ele>276.6</ele>
        <time>2024-09-19T08:20:45Z</time>
      </trkpt>
      <trkpt lat="45.89719" lon="5.13866">
        <ele>276.8</ele>
        <time>2024-09-19T08:20:46Z</time>
      </trkpt>
      <trkpt lat="45.8972" lon="5.1387">
        <ele>276.8</ele>
        <time>2024-09-19T08:20:47Z</time>
      </trkpt>
      <trkpt lat="45.89722" lon="5.13873">
        <ele>277.2</ele>
        <time>2024-09-19T08:20:48Z</time>
      </trkpt>
      <trkpt lat="45.89723" lon="5.13877">
        <ele>277.6</ele>
        <time>2024-09-19T08:20:49Z</time>
      </trkpt>
      <trkpt lat="45.89724" lon="5.1388">
        <ele>277.6</ele>
        <time>2024-09-19T08:20:50Z</time>
      </trkpt>
      <trkpt lat="45.89725" lon="5.13884">
        <ele>277.6</ele>
        <time>2024-09-19T08:20:51Z</time>
      </trkpt>
      <trkpt lat="45.89726" lon="5.13888">
        <ele>277.8</ele>
        <time>2024-09-19T08:20:52Z</time>
      </trkpt>
      <trkpt lat="45.89727" lon="5.13892">
        <ele>278.2</ele>
        <time>2024-09-19T08:20:53Z</time>
      </trkpt>
      <trkpt lat="45.89728" lon="5.13897">
        <ele>278.4</ele>
        <time>2024-09-19T08:20:54Z</time>
      </trkpt>
      <trkpt lat="45.89729" lon="5.13902">
        <ele>278.2</ele>
        <time>2024-09-19T08:20:55Z</time>
      </trkpt>
      <trkpt lat="45.89731" lon="5.13908">
        <ele>278.2</ele>
        <time>2024-09-19T08:20:56Z</time>
      </trkpt>
      <trkpt lat="45.89732" lon="5.13914">
        <ele>278.2</ele>
        <time>2024-09-19T08:20:57Z</time>
      </trkpt>
      <trkpt lat="45.89733" lon="5.13919">
        <ele>277.4</ele>
        <time>2024-09-19T08:20:58Z</time>
      </trkpt>
      <trkpt lat="45.89735" lon="5.13925">
        <ele>278.2</ele>
        <time>2024-09-19T08:20:59Z</time>
      </trkpt>
      <trkpt lat="45.89736" lon="5.13931">
        <ele>277.6</ele>
        <time>2024-09-19T08:21:00Z</time>
      </trkpt>
      <trkpt lat="45.89737" lon="5.13937">
        <ele>277.4</ele>
        <time>2024-09-19T08:21:01Z</time>
      </trkpt>
      <trkpt lat="45.89739" lon="5.13942">
        <ele>277.6</ele>
        <time>2024-09-19T08:21:02Z</time>
      </trkpt>
      <trkpt lat="45.89741" lon="5.13949">
        <ele>277</ele>
        <time>2024-09-19T08:21:03Z</time>
      </trkpt>
      <trkpt lat="45.89742" lon="5.13956">
        <ele>276.8</ele>
        <time>2024-09-19T08:21:04Z</time>
      </trkpt>
      <trkpt lat="45.89744" lon="5.13961">
        <ele>276.8</ele>
        <time>2024-09-19T08:21:05Z</time>
      </trkpt>
      <trkpt lat="45.89746" lon="5.13967">
        <ele>276.8</ele>
        <time>2024-09-19T08:21:06Z</time>
      </trkpt>
      <trkpt lat="45.89749" lon="5.13973">
        <ele>276.8</ele>
        <time>2024-09-19T08:21:07Z</time>
      </trkpt>
      <trkpt lat="45.89751" lon="5.13978">
        <ele>276.4</ele>
        <time>2024-09-19T08:21:08Z</time>
      </trkpt>
      <trkpt lat="45.89754" lon="5.13984">
        <ele>276.4</ele>
        <time>2024-09-19T08:21:09Z</time>
      </trkpt>
      <trkpt lat="45.89756" lon="5.1399">
        <ele>276.4</ele>
        <time>2024-09-19T08:21:10Z</time>
      </trkpt>
      <trkpt lat="45.89758" lon="5.13995">
        <ele>276.4</ele>
        <time>2024-09-19T08:21:11Z</time>
      </trkpt>
      <trkpt lat="45.8976" lon="5.14">
        <ele>276.2</ele>
        <time>2024-09-19T08:21:12Z</time>
      </trkpt>
      <trkpt lat="45.89763" lon="5.14004">
        <ele>276.4</ele>
        <time>2024-09-19T08:21:13Z</time>
      </trkpt>
      <trkpt lat="45.89765" lon="5.14009">
        <ele>276.4</ele>
        <time>2024-09-19T08:21:14Z</time>
      </trkpt>
      <trkpt lat="45.89767" lon="5.14014">
        <ele>276.2</ele>
        <time>2024-09-19T08:21:15Z</time>
      </trkpt>
      <trkpt lat="45.89769" lon="5.14019">
        <ele>276.2</ele>
        <time>2024-09-19T08:21:16Z</time>
      </trkpt>
      <trkpt lat="45.89771" lon="5.14024">
        <ele>276.6</ele>
        <time>2024-09-19T08:21:17Z</time>
      </trkpt>
      <trkpt lat="45.89773" lon="5.14029">
        <ele>276.6</ele>
        <time>2024-09-19T08:21:18Z</time>
      </trkpt>
      <trkpt lat="45.89774" lon="5.14035">
        <ele>276.4</ele>
        <time>2024-09-19T08:21:19Z</time>
      </trkpt>
      <trkpt lat="45.89776" lon="5.14041">
        <ele>276.2</ele>
        <time>2024-09-19T08:21:20Z</time>
      </trkpt>
      <trkpt lat="45.89777" lon="5.14046">
        <ele>276.8</ele>
        <time>2024-09-19T08:21:21Z</time>
      </trkpt>
      <trkpt lat="45.89778" lon="5.14052">
        <ele>276.8</ele>
        <time>2024-09-19T08:21:22Z</time>
      </trkpt>
      <trkpt lat="45.89778" lon="5.14057">
        <ele>276.8</ele>
        <time>2024-09-19T08:21:23Z</time>
      </trkpt>
      <trkpt lat="45.89779" lon="5.14062">
        <ele>277.2</ele>
        <time>2024-09-19T08:21:24Z</time>
      </trkpt>
      <trkpt lat="45.89779" lon="5.14067">
        <ele>277.2</ele>
        <time>2024-09-19T08:21:25Z</time>
      </trkpt>
      <trkpt lat="45.8978" lon="5.14073">
        <ele>277.6</ele>
        <time>2024-09-19T08:21:26Z</time>
      </trkpt>
      <trkpt lat="45.8978" lon="5.14078">
        <ele>277.6</ele>
        <time>2024-09-19T08:21:27Z</time>
      </trkpt>
      <trkpt lat="45.89781" lon="5.14083">
        <ele>277.6</ele>
        <time>2024-09-19T08:21:28Z</time>
      </trkpt>
      <trkpt lat="45.89781" lon="5.14088">
        <ele>277.6</ele>
        <time>2024-09-19T08:21:29Z</time>
      </trkpt>
      <trkpt lat="45.89782" lon="5.14092">
        <ele>278.2</ele>
        <time>2024-09-19T08:21:30Z</time>
      </trkpt>
      <trkpt lat="45.89782" lon="5.14097">
        <ele>278.6</ele>
        <time>2024-09-19T08:21:31Z</time>
      </trkpt>
      <trkpt lat="45.89782" lon="5.14101">
        <ele>278.6</ele>
        <time>2024-09-19T08:21:32Z</time>
      </trkpt>
      <trkpt lat="45.89783" lon="5.14106">
        <ele>278.8</ele>
        <time>2024-09-19T08:21:33Z</time>
      </trkpt>
      <trkpt lat="45.89783" lon="5.1411">
        <ele>278.8</ele>
        <time>2024-09-19T08:21:34Z</time>
      </trkpt>
      <trkpt lat="45.89783" lon="5.14115">
        <ele>279</ele>
        <time>2024-09-19T08:21:35Z</time>
      </trkpt>
      <trkpt lat="45.89782" lon="5.14119">
        <ele>279</ele>
        <time>2024-09-19T08:21:36Z</time>
      </trkpt>
      <trkpt lat="45.89782" lon="5.14123">
        <ele>279.4</ele>
        <time>2024-09-19T08:21:37Z</time>
      </trkpt>
      <trkpt lat="45.89781" lon="5.14127">
        <ele>279.4</ele>
        <time>2024-09-19T08:21:38Z</time>
      </trkpt>
      <trkpt lat="45.8978" lon="5.14132">
        <ele>279</ele>
        <time>2024-09-19T08:21:39Z</time>
      </trkpt>
      <trkpt lat="45.89779" lon="5.14136">
        <ele>279</ele>
        <time>2024-09-19T08:21:40Z</time>
      </trkpt>
      <trkpt lat="45.89778" lon="5.1414">
        <ele>279.4</ele>
        <time>2024-09-19T08:21:41Z</time>
      </trkpt>
      <trkpt lat="45.89776" lon="5.14143">
        <ele>279.4</ele>
        <time>2024-09-19T08:21:42Z</time>
      </trkpt>
      <trkpt lat="45.89775" lon="5.14147">
        <ele>279.6</ele>
        <time>2024-09-19T08:21:43Z</time>
      </trkpt>
      <trkpt lat="45.89774" lon="5.1415">
        <ele>280.2</ele>
        <time>2024-09-19T08:21:44Z</time>
      </trkpt>
      <trkpt lat="45.89773" lon="5.14154">
        <ele>280.2</ele>
        <time>2024-09-19T08:21:45Z</time>
      </trkpt>
      <trkpt lat="45.89771" lon="5.14158">
        <ele>280.4</ele>
        <time>2024-09-19T08:21:46Z</time>
      </trkpt>
      <trkpt lat="45.8977" lon="5.14161">
        <ele>280.4</ele>
        <time>2024-09-19T08:21:47Z</time>
      </trkpt>
      <trkpt lat="45.89769" lon="5.14165">
        <ele>280.4</ele>
        <time>2024-09-19T08:21:48Z</time>
      </trkpt>
      <trkpt lat="45.89768" lon="5.14169">
        <ele>280.6</ele>
        <time>2024-09-19T08:21:49Z</time>
      </trkpt>
      <trkpt lat="45.89767" lon="5.14172">
        <ele>281</ele>
        <time>2024-09-19T08:21:50Z</time>
      </trkpt>
      <trkpt lat="45.89766" lon="5.14175">
        <ele>281.4</ele>
        <time>2024-09-19T08:21:51Z</time>
      </trkpt>
      <trkpt lat="45.89765" lon="5.14179">
        <ele>281.4</ele>
        <time>2024-09-19T08:21:52Z</time>
      </trkpt>
      <trkpt lat="45.89765" lon="5.14182">
        <ele>281.4</ele>
        <time>2024-09-19T08:21:53Z</time>
      </trkpt>
      <trkpt lat="45.89764" lon="5.14186">
        <ele>281.8</ele>
        <time>2024-09-19T08:21:54Z</time>
      </trkpt>
      <trkpt lat="45.89763" lon="5.14189">
        <ele>282.6</ele>
        <time>2024-09-19T08:21:55Z</time>
      </trkpt>
      <trkpt lat="45.89763" lon="5.14193">
        <ele>282.6</ele>
        <time>2024-09-19T08:21:56Z</time>
      </trkpt>
      <trkpt lat="45.89762" lon="5.14196">
        <ele>282.8</ele>
        <time>2024-09-19T08:21:57Z</time>
      </trkpt>
      <trkpt lat="45.89761" lon="5.142">
        <ele>282.8</ele>
        <time>2024-09-19T08:21:58Z</time>
      </trkpt>
      <trkpt lat="45.89761" lon="5.14204">
        <ele>282.8</ele>
        <time>2024-09-19T08:21:59Z</time>
      </trkpt>
      <trkpt lat="45.89761" lon="5.14207">
        <ele>283</ele>
        <time>2024-09-19T08:22:00Z</time>
      </trkpt>
      <trkpt lat="45.8976" lon="5.1421">
        <ele>283</ele>
        <time>2024-09-19T08:22:01Z</time>
      </trkpt>
      <trkpt lat="45.8976" lon="5.14214">
        <ele>283</ele>
        <time>2024-09-19T08:22:02Z</time>
      </trkpt>
      <trkpt lat="45.8976" lon="5.14218">
        <ele>283</ele>
        <time>2024-09-19T08:22:03Z</time>
      </trkpt>
      <trkpt lat="45.8976" lon="5.14222">
        <ele>283.6</ele>
        <time>2024-09-19T08:22:04Z</time>
      </trkpt>
      <trkpt lat="45.8976" lon="5.14225">
        <ele>283.6</ele>
        <time>2024-09-19T08:22:05Z</time>
      </trkpt>
      <trkpt lat="45.8976" lon="5.14229">
        <ele>284</ele>
        <time>2024-09-19T08:22:06Z</time>
      </trkpt>
      <trkpt lat="45.89759" lon="5.14232">
        <ele>284.4</ele>
        <time>2024-09-19T08:22:07Z</time>
      </trkpt>
      <trkpt lat="45.89759" lon="5.14236">
        <ele>284.8</ele>
        <time>2024-09-19T08:22:08Z</time>
      </trkpt>
      <trkpt lat="45.89759" lon="5.1424">
        <ele>284.8</ele>
        <time>2024-09-19T08:22:09Z</time>
      </trkpt>
      <trkpt lat="45.89759" lon="5.14243">
        <ele>284.8</ele>
        <time>2024-09-19T08:22:10Z</time>
      </trkpt>
      <trkpt lat="45.89759" lon="5.14247">
        <ele>284.8</ele>
        <time>2024-09-19T08:22:11Z</time>
      </trkpt>
      <trkpt lat="45.89759" lon="5.14251">
        <ele>285</ele>
        <time>2024-09-19T08:22:12Z</time>
      </trkpt>
      <trkpt lat="45.89759" lon="5.14255">
        <ele>285</ele>
        <time>2024-09-19T08:22:13Z</time>
      </trkpt>
      <trkpt lat="45.89759" lon="5.14259">
        <ele>285.2</ele>
        <time>2024-09-19T08:22:14Z</time>
      </trkpt>
      <trkpt lat="45.89759" lon="5.14263">
        <ele>285.6</ele>
        <time>2024-09-19T08:22:15Z</time>
      </trkpt>
      <trkpt lat="45.89759" lon="5.14267">
        <ele>285.6</ele>
        <time>2024-09-19T08:22:16Z</time>
      </trkpt>
      <trkpt lat="45.89759" lon="5.14271">
        <ele>285.6</ele>
        <time>2024-09-19T08:22:17Z</time>
      </trkpt>
      <trkpt lat="45.89759" lon="5.14275">
        <ele>285.6</ele>
        <time>2024-09-19T08:22:18Z</time>
      </trkpt>
      <trkpt lat="45.89759" lon="5.14279">
        <ele>285.6</ele>
        <time>2024-09-19T08:22:19Z</time>
      </trkpt>
      <trkpt lat="45.89759" lon="5.14283">
        <ele>285.6</ele>
        <time>2024-09-19T08:22:20Z</time>
      </trkpt>
      <trkpt lat="45.8976" lon="5.14287">
        <ele>285.8</ele>
        <time>2024-09-19T08:22:21Z</time>
      </trkpt>
      <trkpt lat="45.89761" lon="5.14292">
        <ele>285.8</ele>
        <time>2024-09-19T08:22:22Z</time>
      </trkpt>
      <trkpt lat="45.89762" lon="5.14296">
        <ele>285.6</ele>
        <time>2024-09-19T08:22:23Z</time>
      </trkpt>
      <trkpt lat="45.89762" lon="5.14301">
        <ele>285.6</ele>
        <time>2024-09-19T08:22:24Z</time>
      </trkpt>
      <trkpt lat="45.89761" lon="5.14305">
        <ele>285.6</ele>
        <time>2024-09-19T08:22:25Z</time>
      </trkpt>
      <trkpt lat="45.89761" lon="5.1431">
        <ele>286</ele>
        <time>2024-09-19T08:22:26Z</time>
      </trkpt>
      <trkpt lat="45.8976" lon="5.14314">
        <ele>286.2</ele>
        <time>2024-09-19T08:22:27Z</time>
      </trkpt>
      <trkpt lat="45.89759" lon="5.14319">
        <ele>286.2</ele>
        <time>2024-09-19T08:22:28Z</time>
      </trkpt>
      <trkpt lat="45.89757" lon="5.14324">
        <ele>286.8</ele>
        <time>2024-09-19T08:22:29Z</time>
      </trkpt>
      <trkpt lat="45.89755" lon="5.14329">
        <ele>286.8</ele>
        <time>2024-09-19T08:22:30Z</time>
      </trkpt>
      <trkpt lat="45.89753" lon="5.14334">
        <ele>286.4</ele>
        <time>2024-09-19T08:22:31Z</time>
      </trkpt>
      <trkpt lat="45.89751" lon="5.14339">
        <ele>286.2</ele>
        <time>2024-09-19T08:22:32Z</time>
      </trkpt>
      <trkpt lat="45.89748" lon="5.14345">
        <ele>285.8</ele>
        <time>2024-09-19T08:22:33Z</time>
      </trkpt>
      <trkpt lat="45.89745" lon="5.14349">
        <ele>286.2</ele>
        <time>2024-09-19T08:22:34Z</time>
      </trkpt>
      <trkpt lat="45.89743" lon="5.14355">
        <ele>286.2</ele>
        <time>2024-09-19T08:22:35Z</time>
      </trkpt>
      <trkpt lat="45.8974" lon="5.14361">
        <ele>285.4</ele>
        <time>2024-09-19T08:22:36Z</time>
      </trkpt>
      <trkpt lat="45.89738" lon="5.14366">
        <ele>285.4</ele>
        <time>2024-09-19T08:22:37Z</time>
      </trkpt>
      <trkpt lat="45.89735" lon="5.14372">
        <ele>285.4</ele>
        <time>2024-09-19T08:22:38Z</time>
      </trkpt>
      <trkpt lat="45.89733" lon="5.14377">
        <ele>285.4</ele>
        <time>2024-09-19T08:22:39Z</time>
      </trkpt>
      <trkpt lat="45.8973" lon="5.14381">
        <ele>285.6</ele>
        <time>2024-09-19T08:22:40Z</time>
      </trkpt>
      <trkpt lat="45.89728" lon="5.14387">
        <ele>285.6</ele>
        <time>2024-09-19T08:22:41Z</time>
      </trkpt>
      <trkpt lat="45.89725" lon="5.14391">
        <ele>285.4</ele>
        <time>2024-09-19T08:22:42Z</time>
      </trkpt>
      <trkpt lat="45.89723" lon="5.14396">
        <ele>285.4</ele>
        <time>2024-09-19T08:22:43Z</time>
      </trkpt>
      <trkpt lat="45.8972" lon="5.144">
        <ele>285.4</ele>
        <time>2024-09-19T08:22:44Z</time>
      </trkpt>
      <trkpt lat="45.89717" lon="5.14405">
        <ele>285</ele>
        <time>2024-09-19T08:22:45Z</time>
      </trkpt>
      <trkpt lat="45.89715" lon="5.1441">
        <ele>285.6</ele>
        <time>2024-09-19T08:22:46Z</time>
      </trkpt>
      <trkpt lat="45.89712" lon="5.14415">
        <ele>285.4</ele>
        <time>2024-09-19T08:22:47Z</time>
      </trkpt>
      <trkpt lat="45.8971" lon="5.1442">
        <ele>284.8</ele>
        <time>2024-09-19T08:22:48Z</time>
      </trkpt>
      <trkpt lat="45.89708" lon="5.14426">
        <ele>284.8</ele>
        <time>2024-09-19T08:22:49Z</time>
      </trkpt>
      <trkpt lat="45.89705" lon="5.14431">
        <ele>284.4</ele>
        <time>2024-09-19T08:22:50Z</time>
      </trkpt>
      <trkpt lat="45.89703" lon="5.14436">
        <ele>284.4</ele>
        <time>2024-09-19T08:22:51Z</time>
      </trkpt>
      <trkpt lat="45.89701" lon="5.14443">
        <ele>283.8</ele>
        <time>2024-09-19T08:22:52Z</time>
      </trkpt>
      <trkpt lat="45.89699" lon="5.14448">
        <ele>284</ele>
        <time>2024-09-19T08:22:53Z</time>
      </trkpt>
      <trkpt lat="45.89696" lon="5.14454">
        <ele>284</ele>
        <time>2024-09-19T08:22:54Z</time>
      </trkpt>
      <trkpt lat="45.89694" lon="5.1446">
        <ele>284.6</ele>
        <time>2024-09-19T08:22:55Z</time>
      </trkpt>
      <trkpt lat="45.89691" lon="5.14467">
        <ele>284.6</ele>
        <time>2024-09-19T08:22:56Z</time>
      </trkpt>
      <trkpt lat="45.89689" lon="5.14472">
        <ele>284.6</ele>
        <time>2024-09-19T08:22:57Z</time>
      </trkpt>
      <trkpt lat="45.89686" lon="5.14478">
        <ele>284.6</ele>
        <time>2024-09-19T08:22:58Z</time>
      </trkpt>
      <trkpt lat="45.89684" lon="5.14484">
        <ele>284.2</ele>
        <time>2024-09-19T08:22:59Z</time>
      </trkpt>
      <trkpt lat="45.89681" lon="5.1449">
        <ele>283.8</ele>
        <time>2024-09-19T08:23:00Z</time>
      </trkpt>
      <trkpt lat="45.89678" lon="5.14495">
        <ele>283.8</ele>
        <time>2024-09-19T08:23:01Z</time>
      </trkpt>
      <trkpt lat="45.89675" lon="5.145">
        <ele>283.6</ele>
        <time>2024-09-19T08:23:02Z</time>
      </trkpt>
      <trkpt lat="45.89673" lon="5.14506">
        <ele>283.6</ele>
        <time>2024-09-19T08:23:03Z</time>
      </trkpt>
      <trkpt lat="45.8967" lon="5.14511">
        <ele>283.6</ele>
        <time>2024-09-19T08:23:04Z</time>
      </trkpt>
      <trkpt lat="45.89668" lon="5.14517">
        <ele>283.6</ele>
        <time>2024-09-19T08:23:05Z</time>
      </trkpt>
      <trkpt lat="45.89665" lon="5.14523">
        <ele>284</ele>
        <time>2024-09-19T08:23:06Z</time>
      </trkpt>
      <trkpt lat="45.89662" lon="5.14528">
        <ele>284</ele>
        <time>2024-09-19T08:23:07Z</time>
      </trkpt>
      <trkpt lat="45.8966" lon="5.14535">
        <ele>283.6</ele>
        <time>2024-09-19T08:23:08Z</time>
      </trkpt>
      <trkpt lat="45.89658" lon="5.14542">
        <ele>283.4</ele>
        <time>2024-09-19T08:23:09Z</time>
      </trkpt>
      <trkpt lat="45.89658" lon="5.14542">
        <ele>282.8</ele>
        <time>2024-09-19T08:23:10Z</time>
      </trkpt>
      <trkpt lat="45.89657" lon="5.14549">
        <ele>282</ele>
        <time>2024-09-19T08:23:11Z</time>
      </trkpt>
      <trkpt lat="45.89655" lon="5.14557">
        <ele>282</ele>
        <time>2024-09-19T08:23:12Z</time>
      </trkpt>
      <trkpt lat="45.89655" lon="5.14564">
        <ele>281.8</ele>
        <time>2024-09-19T08:23:13Z</time>
      </trkpt>
      <trkpt lat="45.89656" lon="5.14572">
        <ele>281.8</ele>
        <time>2024-09-19T08:23:14Z</time>
      </trkpt>
      <trkpt lat="45.89656" lon="5.14579">
        <ele>282.2</ele>
        <time>2024-09-19T08:23:15Z</time>
      </trkpt>
      <trkpt lat="45.89657" lon="5.14586">
        <ele>282.2</ele>
        <time>2024-09-19T08:23:16Z</time>
      </trkpt>
      <trkpt lat="45.89658" lon="5.14593">
        <ele>281.8</ele>
        <time>2024-09-19T08:23:17Z</time>
      </trkpt>
      <trkpt lat="45.89659" lon="5.146">
        <ele>282.6</ele>
        <time>2024-09-19T08:23:18Z</time>
      </trkpt>
      <trkpt lat="45.89659" lon="5.14614">
        <ele>282.6</ele>
        <time>2024-09-19T08:23:19Z</time>
      </trkpt>
      <trkpt lat="45.8966" lon="5.1462">
        <ele>282</ele>
        <time>2024-09-19T08:23:20Z</time>
      </trkpt>
      <trkpt lat="45.8966" lon="5.14625">
        <ele>282</ele>
        <time>2024-09-19T08:23:21Z</time>
      </trkpt>
      <trkpt lat="45.8966" lon="5.14631">
        <ele>282</ele>
        <time>2024-09-19T08:23:22Z</time>
      </trkpt>
      <trkpt lat="45.8966" lon="5.14636">
        <ele>282</ele>
        <time>2024-09-19T08:23:23Z</time>
      </trkpt>
      <trkpt lat="45.89659" lon="5.14641">
        <ele>281.6</ele>
        <time>2024-09-19T08:23:24Z</time>
      </trkpt>
      <trkpt lat="45.89658" lon="5.14646">
        <ele>281.6</ele>
        <time>2024-09-19T08:23:25Z</time>
      </trkpt>
      <trkpt lat="45.89657" lon="5.14651">
        <ele>281.8</ele>
        <time>2024-09-19T08:23:26Z</time>
      </trkpt>
      <trkpt lat="45.89655" lon="5.14655">
        <ele>281.6</ele>
        <time>2024-09-19T08:23:27Z</time>
      </trkpt>
      <trkpt lat="45.89653" lon="5.1466">
        <ele>281.6</ele>
        <time>2024-09-19T08:23:28Z</time>
      </trkpt>
      <trkpt lat="45.89652" lon="5.14663">
        <ele>281.8</ele>
        <time>2024-09-19T08:23:29Z</time>
      </trkpt>
      <trkpt lat="45.8965" lon="5.14668">
        <ele>281.8</ele>
        <time>2024-09-19T08:23:30Z</time>
      </trkpt>
      <trkpt lat="45.89649" lon="5.14671">
        <ele>281.8</ele>
        <time>2024-09-19T08:23:31Z</time>
      </trkpt>
      <trkpt lat="45.89648" lon="5.14675">
        <ele>282</ele>
        <time>2024-09-19T08:23:32Z</time>
      </trkpt>
      <trkpt lat="45.89647" lon="5.14678">
        <ele>282</ele>
        <time>2024-09-19T08:23:33Z</time>
      </trkpt>
      <trkpt lat="45.89645" lon="5.14682">
        <ele>282.4</ele>
        <time>2024-09-19T08:23:34Z</time>
      </trkpt>
      <trkpt lat="45.89644" lon="5.14685">
        <ele>282.4</ele>
        <time>2024-09-19T08:23:35Z</time>
      </trkpt>
      <trkpt lat="45.89642" lon="5.14687">
        <ele>282.4</ele>
        <time>2024-09-19T08:23:36Z</time>
      </trkpt>
      <trkpt lat="45.89641" lon="5.1469">
        <ele>282.4</ele>
        <time>2024-09-19T08:23:37Z</time>
      </trkpt>
      <trkpt lat="45.89639" lon="5.14694">
        <ele>282.4</ele>
        <time>2024-09-19T08:23:38Z</time>
      </trkpt>
      <trkpt lat="45.89637" lon="5.14699">
        <ele>282.4</ele>
        <time>2024-09-19T08:23:39Z</time>
      </trkpt>
      <trkpt lat="45.89635" lon="5.14704">
        <ele>281.6</ele>
        <time>2024-09-19T08:23:40Z</time>
      </trkpt>
      <trkpt lat="45.89633" lon="5.14709">
        <ele>281.8</ele>
        <time>2024-09-19T08:23:41Z</time>
      </trkpt>
      <trkpt lat="45.8963" lon="5.14715">
        <ele>281.6</ele>
        <time>2024-09-19T08:23:42Z</time>
      </trkpt>
      <trkpt lat="45.89627" lon="5.14721">
        <ele>281.2</ele>
        <time>2024-09-19T08:23:43Z</time>
      </trkpt>
      <trkpt lat="45.89624" lon="5.14727">
        <ele>281.2</ele>
        <time>2024-09-19T08:23:44Z</time>
      </trkpt>
      <trkpt lat="45.89621" lon="5.14733">
        <ele>280.8</ele>
        <time>2024-09-19T08:23:45Z</time>
      </trkpt>
      <trkpt lat="45.89617" lon="5.1474">
        <ele>280.8</ele>
        <time>2024-09-19T08:23:46Z</time>
      </trkpt>
      <trkpt lat="45.89613" lon="5.14747">
        <ele>280.4</ele>
        <time>2024-09-19T08:23:47Z</time>
      </trkpt>
      <trkpt lat="45.89609" lon="5.14755">
        <ele>280</ele>
        <time>2024-09-19T08:23:48Z</time>
      </trkpt>
      <trkpt lat="45.89605" lon="5.14762">
        <ele>280</ele>
        <time>2024-09-19T08:23:49Z</time>
      </trkpt>
      <trkpt lat="45.896" lon="5.1477">
        <ele>279.6</ele>
        <time>2024-09-19T08:23:50Z</time>
      </trkpt>
      <trkpt lat="45.89596" lon="5.14778">
        <ele>279.2</ele>
        <time>2024-09-19T08:23:51Z</time>
      </trkpt>
      <trkpt lat="45.89591" lon="5.14786">
        <ele>278.6</ele>
        <time>2024-09-19T08:23:52Z</time>
      </trkpt>
      <trkpt lat="45.89587" lon="5.14794">
        <ele>278.2</ele>
        <time>2024-09-19T08:23:53Z</time>
      </trkpt>
      <trkpt lat="45.89583" lon="5.14802">
        <ele>278</ele>
        <time>2024-09-19T08:23:54Z</time>
      </trkpt>
      <trkpt lat="45.89579" lon="5.14811">
        <ele>277.8</ele>
        <time>2024-09-19T08:23:55Z</time>
      </trkpt>
      <trkpt lat="45.89576" lon="5.14819">
        <ele>277.4</ele>
        <time>2024-09-19T08:23:56Z</time>
      </trkpt>
      <trkpt lat="45.89573" lon="5.14827">
        <ele>277.4</ele>
        <time>2024-09-19T08:23:57Z</time>
      </trkpt>
      <trkpt lat="45.89569" lon="5.14836">
        <ele>277.2</ele>
        <time>2024-09-19T08:23:58Z</time>
      </trkpt>
      <trkpt lat="45.89566" lon="5.14845">
        <ele>277</ele>
        <time>2024-09-19T08:23:59Z</time>
      </trkpt>
      <trkpt lat="45.89563" lon="5.14854">
        <ele>277</ele>
        <time>2024-09-19T08:24:00Z</time>
      </trkpt>
      <trkpt lat="45.89559" lon="5.14863">
        <ele>276.6</ele>
        <time>2024-09-19T08:24:01Z</time>
      </trkpt>
      <trkpt lat="45.89555" lon="5.14871">
        <ele>276.6</ele>
        <time>2024-09-19T08:24:02Z</time>
      </trkpt>
      <trkpt lat="45.89551" lon="5.14879">
        <ele>276.4</ele>
        <time>2024-09-19T08:24:03Z</time>
      </trkpt>
      <trkpt lat="45.89547" lon="5.14889">
        <ele>276.4</ele>
        <time>2024-09-19T08:24:04Z</time>
      </trkpt>
      <trkpt lat="45.89544" lon="5.14897">
        <ele>276.4</ele>
        <time>2024-09-19T08:24:05Z</time>
      </trkpt>
      <trkpt lat="45.89539" lon="5.14907">
        <ele>276.4</ele>
        <time>2024-09-19T08:24:06Z</time>
      </trkpt>
      <trkpt lat="45.89535" lon="5.14917">
        <ele>275.2</ele>
        <time>2024-09-19T08:24:07Z</time>
      </trkpt>
      <trkpt lat="45.89531" lon="5.14926">
        <ele>274.6</ele>
        <time>2024-09-19T08:24:08Z</time>
      </trkpt>
      <trkpt lat="45.89527" lon="5.14936">
        <ele>274.2</ele>
        <time>2024-09-19T08:24:09Z</time>
      </trkpt>
      <trkpt lat="45.89522" lon="5.14945">
        <ele>273.4</ele>
        <time>2024-09-19T08:24:10Z</time>
      </trkpt>
      <trkpt lat="45.89518" lon="5.14954">
        <ele>273</ele>
        <time>2024-09-19T08:24:11Z</time>
      </trkpt>
      <trkpt lat="45.89513" lon="5.14964">
        <ele>273</ele>
        <time>2024-09-19T08:24:12Z</time>
      </trkpt>
      <trkpt lat="45.89508" lon="5.14973">
        <ele>272.8</ele>
        <time>2024-09-19T08:24:13Z</time>
      </trkpt>
      <trkpt lat="45.89503" lon="5.14983">
        <ele>272.8</ele>
        <time>2024-09-19T08:24:14Z</time>
      </trkpt>
      <trkpt lat="45.89499" lon="5.14992">
        <ele>272.4</ele>
        <time>2024-09-19T08:24:15Z</time>
      </trkpt>
      <trkpt lat="45.89495" lon="5.15001">
        <ele>272.4</ele>
        <time>2024-09-19T08:24:16Z</time>
      </trkpt>
      <trkpt lat="45.8949" lon="5.15011">
        <ele>272</ele>
        <time>2024-09-19T08:24:17Z</time>
      </trkpt>
      <trkpt lat="45.89485" lon="5.1502">
        <ele>272</ele>
        <time>2024-09-19T08:24:18Z</time>
      </trkpt>
      <trkpt lat="45.89485" lon="5.1502">
        <ele>271.8</ele>
        <time>2024-09-19T08:24:19Z</time>
      </trkpt>
      <trkpt lat="45.89485" lon="5.1502">
        <ele>271.8</ele>
        <time>2024-09-19T08:24:20Z</time>
      </trkpt>
      <trkpt lat="45.89468" lon="5.15043">
        <ele>271.4</ele>
        <time>2024-09-19T08:24:22Z</time>
      </trkpt>
      <trkpt lat="45.8946" lon="5.15059">
        <ele>270.4</ele>
        <time>2024-09-19T08:24:23Z</time>
      </trkpt>
      <trkpt lat="45.89454" lon="5.15068">
        <ele>270</ele>
        <time>2024-09-19T08:24:24Z</time>
      </trkpt>
      <trkpt lat="45.89447" lon="5.15076">
        <ele>269.2</ele>
        <time>2024-09-19T08:24:25Z</time>
      </trkpt>
      <trkpt lat="45.89439" lon="5.15082">
        <ele>268.8</ele>
        <time>2024-09-19T08:24:26Z</time>
      </trkpt>
      <trkpt lat="45.89432" lon="5.15091">
        <ele>268.4</ele>
        <time>2024-09-19T08:24:27Z</time>
      </trkpt>
      <trkpt lat="45.89423" lon="5.15097">
        <ele>268</ele>
        <time>2024-09-19T08:24:28Z</time>
      </trkpt>
      <trkpt lat="45.89415" lon="5.15103">
        <ele>267.8</ele>
        <time>2024-09-19T08:24:29Z</time>
      </trkpt>
      <trkpt lat="45.89407" lon="5.15107">
        <ele>267.2</ele>
        <time>2024-09-19T08:24:30Z</time>
      </trkpt>
      <trkpt lat="45.89398" lon="5.15115">
        <ele>266</ele>
        <time>2024-09-19T08:24:31Z</time>
      </trkpt>
      <trkpt lat="45.89391" lon="5.15119">
        <ele>265.6</ele>
        <time>2024-09-19T08:24:32Z</time>
      </trkpt>
      <trkpt lat="45.89383" lon="5.15123">
        <ele>265.2</ele>
        <time>2024-09-19T08:24:33Z</time>
      </trkpt>
      <trkpt lat="45.89375" lon="5.15128">
        <ele>264.6</ele>
        <time>2024-09-19T08:24:34Z</time>
      </trkpt>
      <trkpt lat="45.89367" lon="5.15132">
        <ele>264</ele>
        <time>2024-09-19T08:24:35Z</time>
      </trkpt>
      <trkpt lat="45.89357" lon="5.1513">
        <ele>263.4</ele>
        <time>2024-09-19T08:24:36Z</time>
      </trkpt>
      <trkpt lat="45.89349" lon="5.15129">
        <ele>262.4</ele>
        <time>2024-09-19T08:24:37Z</time>
      </trkpt>
      <trkpt lat="45.8934" lon="5.15129">
        <ele>261.4</ele>
        <time>2024-09-19T08:24:38Z</time>
      </trkpt>
      <trkpt lat="45.89333" lon="5.15129">
        <ele>261</ele>
        <time>2024-09-19T08:24:39Z</time>
      </trkpt>
      <trkpt lat="45.89326" lon="5.15129">
        <ele>260.8</ele>
        <time>2024-09-19T08:24:40Z</time>
      </trkpt>
      <trkpt lat="45.89318" lon="5.15129">
        <ele>260.2</ele>
        <time>2024-09-19T08:24:41Z</time>
      </trkpt>
      <trkpt lat="45.89312" lon="5.1513">
        <ele>260</ele>
        <time>2024-09-19T08:24:42Z</time>
      </trkpt>
      <trkpt lat="45.89306" lon="5.15132">
        <ele>260</ele>
        <time>2024-09-19T08:24:43Z</time>
      </trkpt>
      <trkpt lat="45.89299" lon="5.15133">
        <ele>259.8</ele>
        <time>2024-09-19T08:24:44Z</time>
      </trkpt>
      <trkpt lat="45.89294" lon="5.15135">
        <ele>259.4</ele>
        <time>2024-09-19T08:24:45Z</time>
      </trkpt>
      <trkpt lat="45.89289" lon="5.15136">
        <ele>259.2</ele>
        <time>2024-09-19T08:24:46Z</time>
      </trkpt>
      <trkpt lat="45.89286" lon="5.15138">
        <ele>259</ele>
        <time>2024-09-19T08:24:47Z</time>
      </trkpt>
      <trkpt lat="45.89282" lon="5.15138">
        <ele>259</ele>
        <time>2024-09-19T08:24:48Z</time>
      </trkpt>
      <trkpt lat="45.8928" lon="5.15139">
        <ele>258.8</ele>
        <time>2024-09-19T08:24:49Z</time>
      </trkpt>
      <trkpt lat="45.89279" lon="5.15139">
        <ele>258.8</ele>
        <time>2024-09-19T08:24:50Z</time>
      </trkpt>
      <trkpt lat="45.89277" lon="5.1514">
        <ele>258.8</ele>
        <time>2024-09-19T08:24:51Z</time>
      </trkpt>
      <trkpt lat="45.89276" lon="5.15141">
        <ele>258.8</ele>
        <time>2024-09-19T08:24:52Z</time>
      </trkpt>
      <trkpt lat="45.89275" lon="5.15142">
        <ele>258.8</ele>
        <time>2024-09-19T08:24:53Z</time>
      </trkpt>
      <trkpt lat="45.89276" lon="5.15142">
        <ele>258.2</ele>
        <time>2024-09-19T08:24:54Z</time>
      </trkpt>
      <trkpt lat="45.89276" lon="5.15142">
        <ele>258.2</ele>
        <time>2024-09-19T08:24:55Z</time>
      </trkpt>
      <trkpt lat="45.89276" lon="5.15143">
        <ele>258.2</ele>
        <time>2024-09-19T08:24:56Z</time>
      </trkpt>
      <trkpt lat="45.89273" lon="5.15141">
        <ele>258.6</ele>
        <time>2024-09-19T08:25:51Z</time>
      </trkpt>
      <trkpt lat="45.89271" lon="5.15143">
        <ele>258.6</ele>
        <time>2024-09-19T08:25:52Z</time>
      </trkpt>
      <trkpt lat="45.89269" lon="5.15146">
        <ele>258.4</ele>
        <time>2024-09-19T08:25:53Z</time>
      </trkpt>
      <trkpt lat="45.89267" lon="5.1515">
        <ele>258.4</ele>
        <time>2024-09-19T08:25:54Z</time>
      </trkpt>
      <trkpt lat="45.89266" lon="5.15155">
        <ele>257.8</ele>
        <time>2024-09-19T08:25:55Z</time>
      </trkpt>
      <trkpt lat="45.89265" lon="5.1516">
        <ele>257.8</ele>
        <time>2024-09-19T08:25:56Z</time>
      </trkpt>
      <trkpt lat="45.89265" lon="5.1516">
        <ele>257.8</ele>
        <time>2024-09-19T08:25:57Z</time>
      </trkpt>
      <trkpt lat="45.89265" lon="5.15166">
        <ele>257.8</ele>
        <time>2024-09-19T08:25:58Z</time>
      </trkpt>
      <trkpt lat="45.89265" lon="5.15171">
        <ele>257.8</ele>
        <time>2024-09-19T08:25:59Z</time>
      </trkpt>
      <trkpt lat="45.89265" lon="5.15176">
        <ele>257.8</ele>
        <time>2024-09-19T08:26:00Z</time>
      </trkpt>
      <trkpt lat="45.89265" lon="5.15182">
        <ele>257.8</ele>
        <time>2024-09-19T08:26:01Z</time>
      </trkpt>
      <trkpt lat="45.89265" lon="5.15188">
        <ele>258</ele>
        <time>2024-09-19T08:26:02Z</time>
      </trkpt>
      <trkpt lat="45.89265" lon="5.15193">
        <ele>258</ele>
        <time>2024-09-19T08:26:03Z</time>
      </trkpt>
      <trkpt lat="45.89264" lon="5.15199">
        <ele>258</ele>
        <time>2024-09-19T08:26:04Z</time>
      </trkpt>
      <trkpt lat="45.89264" lon="5.15205">
        <ele>258</ele>
        <time>2024-09-19T08:26:05Z</time>
      </trkpt>
      <trkpt lat="45.89264" lon="5.1521">
        <ele>258.4</ele>
        <time>2024-09-19T08:26:06Z</time>
      </trkpt>
      <trkpt lat="45.89264" lon="5.15214">
        <ele>258.6</ele>
        <time>2024-09-19T08:26:07Z</time>
      </trkpt>
      <trkpt lat="45.89264" lon="5.15218">
        <ele>258.6</ele>
        <time>2024-09-19T08:26:08Z</time>
      </trkpt>
      <trkpt lat="45.89265" lon="5.15221">
        <ele>258.6</ele>
        <time>2024-09-19T08:26:09Z</time>
      </trkpt>
      <trkpt lat="45.89267" lon="5.15225">
        <ele>258.2</ele>
        <time>2024-09-19T08:26:10Z</time>
      </trkpt>
      <trkpt lat="45.8927" lon="5.15228">
        <ele>258</ele>
        <time>2024-09-19T08:26:11Z</time>
      </trkpt>
      <trkpt lat="45.89274" lon="5.15231">
        <ele>258.2</ele>
        <time>2024-09-19T08:26:12Z</time>
      </trkpt>
      <trkpt lat="45.89278" lon="5.15234">
        <ele>257.8</ele>
        <time>2024-09-19T08:26:13Z</time>
      </trkpt>
      <trkpt lat="45.89281" lon="5.15236">
        <ele>257.8</ele>
        <time>2024-09-19T08:26:14Z</time>
      </trkpt>
      <trkpt lat="45.89287" lon="5.15247">
        <ele>257.4</ele>
        <time>2024-09-19T08:26:15Z</time>
      </trkpt>
      <trkpt lat="45.8929" lon="5.15252">
        <ele>257.8</ele>
        <time>2024-09-19T08:26:16Z</time>
      </trkpt>
      <trkpt lat="45.89292" lon="5.15257">
        <ele>257.8</ele>
        <time>2024-09-19T08:26:17Z</time>
      </trkpt>
      <trkpt lat="45.89297" lon="5.15263">
        <ele>257.8</ele>
        <time>2024-09-19T08:26:18Z</time>
      </trkpt>
      <trkpt lat="45.89298" lon="5.15269">
        <ele>257.4</ele>
        <time>2024-09-19T08:26:19Z</time>
      </trkpt>
      <trkpt lat="45.893" lon="5.15275">
        <ele>257.4</ele>
        <time>2024-09-19T08:26:20Z</time>
      </trkpt>
      <trkpt lat="45.89303" lon="5.15282">
        <ele>257.4</ele>
        <time>2024-09-19T08:26:21Z</time>
      </trkpt>
      <trkpt lat="45.89305" lon="5.15288">
        <ele>257.4</ele>
        <time>2024-09-19T08:26:22Z</time>
      </trkpt>
      <trkpt lat="45.89305" lon="5.15294">
        <ele>257.6</ele>
        <time>2024-09-19T08:26:23Z</time>
      </trkpt>
      <trkpt lat="45.89306" lon="5.153">
        <ele>257.6</ele>
        <time>2024-09-19T08:26:24Z</time>
      </trkpt>
      <trkpt lat="45.89306" lon="5.15302">
        <ele>257.8</ele>
        <time>2024-09-19T08:26:25Z</time>
      </trkpt>
      <trkpt lat="45.89307" lon="5.15307">
        <ele>257.8</ele>
        <time>2024-09-19T08:26:26Z</time>
      </trkpt>
      <trkpt lat="45.89308" lon="5.15309">
        <ele>258.2</ele>
        <time>2024-09-19T08:26:27Z</time>
      </trkpt>
      <trkpt lat="45.89308" lon="5.15313">
        <ele>258.4</ele>
        <time>2024-09-19T08:26:28Z</time>
      </trkpt>
      <trkpt lat="45.89309" lon="5.15314">
        <ele>258.4</ele>
        <time>2024-09-19T08:26:29Z</time>
      </trkpt>
      <trkpt lat="45.89309" lon="5.15314">
        <ele>258.8</ele>
        <time>2024-09-19T08:26:30Z</time>
      </trkpt>
      <trkpt lat="45.89309" lon="5.15315">
        <ele>258.8</ele>
        <time>2024-09-19T08:26:31Z</time>
      </trkpt>
      <trkpt lat="45.89309" lon="5.15315">
        <ele>258.8</ele>
        <time>2024-09-19T08:26:32Z</time>
      </trkpt>
      <trkpt lat="45.89309" lon="5.15315">
        <ele>258.8</ele>
        <time>2024-09-19T08:26:33Z</time>
      </trkpt>
      <trkpt lat="45.8931" lon="5.15318">
        <ele>259</ele>
        <time>2024-09-19T08:27:03Z</time>
      </trkpt>
      <trkpt lat="45.8931" lon="5.15321">
        <ele>259</ele>
        <time>2024-09-19T08:27:04Z</time>
      </trkpt>
      <trkpt lat="45.89311" lon="5.15323">
        <ele>258.8</ele>
        <time>2024-09-19T08:27:05Z</time>
      </trkpt>
      <trkpt lat="45.89313" lon="5.15326">
        <ele>258</ele>
        <time>2024-09-19T08:27:06Z</time>
      </trkpt>
      <trkpt lat="45.89315" lon="5.1533">
        <ele>258.8</ele>
        <time>2024-09-19T08:27:07Z</time>
      </trkpt>
      <trkpt lat="45.89317" lon="5.15333">
        <ele>258.8</ele>
        <time>2024-09-19T08:27:08Z</time>
      </trkpt>
      <trkpt lat="45.8932" lon="5.15336">
        <ele>259.2</ele>
        <time>2024-09-19T08:27:09Z</time>
      </trkpt>
      <trkpt lat="45.89324" lon="5.1534">
        <ele>259.2</ele>
        <time>2024-09-19T08:27:10Z</time>
      </trkpt>
      <trkpt lat="45.89332" lon="5.15347">
        <ele>259.2</ele>
        <time>2024-09-19T08:27:11Z</time>
      </trkpt>
      <trkpt lat="45.89335" lon="5.15349">
        <ele>258.8</ele>
        <time>2024-09-19T08:27:12Z</time>
      </trkpt>
      <trkpt lat="45.89336" lon="5.1535">
        <ele>258.8</ele>
        <time>2024-09-19T08:27:13Z</time>
      </trkpt>
      <trkpt lat="45.89341" lon="5.15351">
        <ele>258.8</ele>
        <time>2024-09-19T08:27:14Z</time>
      </trkpt>
      <trkpt lat="45.89348" lon="5.15354">
        <ele>258.4</ele>
        <time>2024-09-19T08:27:15Z</time>
      </trkpt>
      <trkpt lat="45.89354" lon="5.15358">
        <ele>257.8</ele>
        <time>2024-09-19T08:27:16Z</time>
      </trkpt>
      <trkpt lat="45.89359" lon="5.15362">
        <ele>257.4</ele>
        <time>2024-09-19T08:27:17Z</time>
      </trkpt>
      <trkpt lat="45.89365" lon="5.15368">
        <ele>257.4</ele>
        <time>2024-09-19T08:27:18Z</time>
      </trkpt>
      <trkpt lat="45.8937" lon="5.15374">
        <ele>257.6</ele>
        <time>2024-09-19T08:27:19Z</time>
      </trkpt>
      <trkpt lat="45.89374" lon="5.1538">
        <ele>258</ele>
        <time>2024-09-19T08:27:20Z</time>
      </trkpt>
      <trkpt lat="45.89377" lon="5.15385">
        <ele>257.8</ele>
        <time>2024-09-19T08:27:21Z</time>
      </trkpt>
      <trkpt lat="45.89379" lon="5.1539">
        <ele>257.8</ele>
        <time>2024-09-19T08:27:22Z</time>
      </trkpt>
      <trkpt lat="45.89383" lon="5.15396">
        <ele>258</ele>
        <time>2024-09-19T08:27:23Z</time>
      </trkpt>
      <trkpt lat="45.89386" lon="5.15399">
        <ele>257.8</ele>
        <time>2024-09-19T08:27:24Z</time>
      </trkpt>
      <trkpt lat="45.89388" lon="5.15403">
        <ele>257.8</ele>
        <time>2024-09-19T08:27:25Z</time>
      </trkpt>
      <trkpt lat="45.89393" lon="5.15409">
        <ele>257.8</ele>
        <time>2024-09-19T08:27:26Z</time>
      </trkpt>
      <trkpt lat="45.89396" lon="5.15412">
        <ele>258.4</ele>
        <time>2024-09-19T08:27:27Z</time>
      </trkpt>
      <trkpt lat="45.894" lon="5.15419">
        <ele>257.8</ele>
        <time>2024-09-19T08:27:28Z</time>
      </trkpt>
      <trkpt lat="45.89403" lon="5.15426">
        <ele>258.4</ele>
        <time>2024-09-19T08:27:29Z</time>
      </trkpt>
      <trkpt lat="45.89406" lon="5.1543">
        <ele>258.6</ele>
        <time>2024-09-19T08:27:30Z</time>
      </trkpt>
      <trkpt lat="45.89409" lon="5.15435">
        <ele>258.6</ele>
        <time>2024-09-19T08:27:31Z</time>
      </trkpt>
      <trkpt lat="45.89412" lon="5.15441">
        <ele>258.6</ele>
        <time>2024-09-19T08:27:32Z</time>
      </trkpt>
      <trkpt lat="45.89414" lon="5.15446">
        <ele>259</ele>
        <time>2024-09-19T08:27:33Z</time>
      </trkpt>
      <trkpt lat="45.89418" lon="5.1545">
        <ele>259.4</ele>
        <time>2024-09-19T08:27:34Z</time>
      </trkpt>
      <trkpt lat="45.8942" lon="5.15453">
        <ele>259.4</ele>
        <time>2024-09-19T08:27:35Z</time>
      </trkpt>
      <trkpt lat="45.89423" lon="5.15458">
        <ele>259.4</ele>
        <time>2024-09-19T08:27:36Z</time>
      </trkpt>
      <trkpt lat="45.89426" lon="5.15464">
        <ele>259.8</ele>
        <time>2024-09-19T08:27:37Z</time>
      </trkpt>
      <trkpt lat="45.89429" lon="5.15466">
        <ele>259.8</ele>
        <time>2024-09-19T08:27:38Z</time>
      </trkpt>
      <trkpt lat="45.89433" lon="5.15471">
        <ele>259.4</ele>
        <time>2024-09-19T08:27:39Z</time>
      </trkpt>
      <trkpt lat="45.89435" lon="5.15474">
        <ele>259.6</ele>
        <time>2024-09-19T08:27:40Z</time>
      </trkpt>
      <trkpt lat="45.89438" lon="5.15477">
        <ele>260</ele>
        <time>2024-09-19T08:27:41Z</time>
      </trkpt>
      <trkpt lat="45.8944" lon="5.15481">
        <ele>260.6</ele>
        <time>2024-09-19T08:27:42Z</time>
      </trkpt>
      <trkpt lat="45.89443" lon="5.15484">
        <ele>260.6</ele>
        <time>2024-09-19T08:27:43Z</time>
      </trkpt>
      <trkpt lat="45.89445" lon="5.15486">
        <ele>260.6</ele>
        <time>2024-09-19T08:27:44Z</time>
      </trkpt>
      <trkpt lat="45.89447" lon="5.1549">
        <ele>260.8</ele>
        <time>2024-09-19T08:27:45Z</time>
      </trkpt>
      <trkpt lat="45.8945" lon="5.15492">
        <ele>260.8</ele>
        <time>2024-09-19T08:27:46Z</time>
      </trkpt>
      <trkpt lat="45.89452" lon="5.15495">
        <ele>261</ele>
        <time>2024-09-19T08:27:47Z</time>
      </trkpt>
      <trkpt lat="45.89454" lon="5.15499">
        <ele>261.4</ele>
        <time>2024-09-19T08:27:48Z</time>
      </trkpt>
      <trkpt lat="45.89456" lon="5.15502">
        <ele>261.4</ele>
        <time>2024-09-19T08:27:49Z</time>
      </trkpt>
      <trkpt lat="45.89458" lon="5.15506">
        <ele>261.8</ele>
        <time>2024-09-19T08:27:50Z</time>
      </trkpt>
      <trkpt lat="45.8946" lon="5.15509">
        <ele>261.8</ele>
        <time>2024-09-19T08:27:51Z</time>
      </trkpt>
      <trkpt lat="45.89462" lon="5.15513">
        <ele>261.8</ele>
        <time>2024-09-19T08:27:52Z</time>
      </trkpt>
      <trkpt lat="45.89463" lon="5.15517">
        <ele>262.2</ele>
        <time>2024-09-19T08:27:53Z</time>
      </trkpt>
      <trkpt lat="45.89465" lon="5.15519">
        <ele>262.2</ele>
        <time>2024-09-19T08:27:54Z</time>
      </trkpt>
      <trkpt lat="45.89466" lon="5.15522">
        <ele>262.6</ele>
        <time>2024-09-19T08:27:55Z</time>
      </trkpt>
      <trkpt lat="45.89468" lon="5.15526">
        <ele>262.8</ele>
        <time>2024-09-19T08:27:56Z</time>
      </trkpt>
      <trkpt lat="45.8947" lon="5.15529">
        <ele>263</ele>
        <time>2024-09-19T08:27:57Z</time>
      </trkpt>
      <trkpt lat="45.89472" lon="5.15533">
        <ele>263</ele>
        <time>2024-09-19T08:27:58Z</time>
      </trkpt>
      <trkpt lat="45.89474" lon="5.15537">
        <ele>263</ele>
        <time>2024-09-19T08:27:59Z</time>
      </trkpt>
      <trkpt lat="45.89476" lon="5.1554">
        <ele>263.4</ele>
        <time>2024-09-19T08:28:00Z</time>
      </trkpt>
      <trkpt lat="45.89478" lon="5.15544">
        <ele>263.6</ele>
        <time>2024-09-19T08:28:01Z</time>
      </trkpt>
      <trkpt lat="45.8948" lon="5.15548">
        <ele>263.6</ele>
        <time>2024-09-19T08:28:02Z</time>
      </trkpt>
      <trkpt lat="45.89482" lon="5.15552">
        <ele>263.6</ele>
        <time>2024-09-19T08:28:03Z</time>
      </trkpt>
      <trkpt lat="45.89483" lon="5.15556">
        <ele>264</ele>
        <time>2024-09-19T08:28:04Z</time>
      </trkpt>
      <trkpt lat="45.89485" lon="5.1556">
        <ele>264</ele>
        <time>2024-09-19T08:28:05Z</time>
      </trkpt>
      <trkpt lat="45.89486" lon="5.15565">
        <ele>264</ele>
        <time>2024-09-19T08:28:06Z</time>
      </trkpt>
      <trkpt lat="45.89487" lon="5.15569">
        <ele>264.2</ele>
        <time>2024-09-19T08:28:07Z</time>
      </trkpt>
      <trkpt lat="45.89488" lon="5.15573">
        <ele>264.4</ele>
        <time>2024-09-19T08:28:08Z</time>
      </trkpt>
      <trkpt lat="45.89489" lon="5.15577">
        <ele>264.4</ele>
        <time>2024-09-19T08:28:09Z</time>
      </trkpt>
      <trkpt lat="45.8949" lon="5.1558">
        <ele>264.4</ele>
        <time>2024-09-19T08:28:10Z</time>
      </trkpt>
      <trkpt lat="45.89491" lon="5.15585">
        <ele>264.4</ele>
        <time>2024-09-19T08:28:11Z</time>
      </trkpt>
      <trkpt lat="45.89492" lon="5.15589">
        <ele>264.4</ele>
        <time>2024-09-19T08:28:12Z</time>
      </trkpt>
      <trkpt lat="45.89493" lon="5.15593">
        <ele>264</ele>
        <time>2024-09-19T08:28:13Z</time>
      </trkpt>
      <trkpt lat="45.89494" lon="5.15598">
        <ele>264.6</ele>
        <time>2024-09-19T08:28:14Z</time>
      </trkpt>
      <trkpt lat="45.89496" lon="5.15602">
        <ele>265</ele>
        <time>2024-09-19T08:28:15Z</time>
      </trkpt>
      <trkpt lat="45.89497" lon="5.15605">
        <ele>265</ele>
        <time>2024-09-19T08:28:16Z</time>
      </trkpt>
      <trkpt lat="45.89498" lon="5.15609">
        <ele>265</ele>
        <time>2024-09-19T08:28:17Z</time>
      </trkpt>
      <trkpt lat="45.89499" lon="5.15614">
        <ele>265.2</ele>
        <time>2024-09-19T08:28:18Z</time>
      </trkpt>
      <trkpt lat="45.895" lon="5.15618">
        <ele>265.6</ele>
        <time>2024-09-19T08:28:19Z</time>
      </trkpt>
      <trkpt lat="45.89501" lon="5.15623">
        <ele>265.6</ele>
        <time>2024-09-19T08:28:20Z</time>
      </trkpt>
      <trkpt lat="45.89502" lon="5.15628">
        <ele>265.6</ele>
        <time>2024-09-19T08:28:21Z</time>
      </trkpt>
      <trkpt lat="45.89502" lon="5.15633">
        <ele>265.6</ele>
        <time>2024-09-19T08:28:22Z</time>
      </trkpt>
      <trkpt lat="45.89503" lon="5.15637">
        <ele>265.6</ele>
        <time>2024-09-19T08:28:23Z</time>
      </trkpt>
      <trkpt lat="45.89503" lon="5.15642">
        <ele>265.6</ele>
        <time>2024-09-19T08:28:24Z</time>
      </trkpt>
      <trkpt lat="45.89505" lon="5.15646">
        <ele>265.8</ele>
        <time>2024-09-19T08:28:25Z</time>
      </trkpt>
      <trkpt lat="45.89506" lon="5.15651">
        <ele>265.6</ele>
        <time>2024-09-19T08:28:26Z</time>
      </trkpt>
      <trkpt lat="45.89508" lon="5.15656">
        <ele>266</ele>
        <time>2024-09-19T08:28:27Z</time>
      </trkpt>
      <trkpt lat="45.8951" lon="5.15661">
        <ele>264.8</ele>
        <time>2024-09-19T08:28:28Z</time>
      </trkpt>
      <trkpt lat="45.89513" lon="5.15667">
        <ele>264.8</ele>
        <time>2024-09-19T08:28:29Z</time>
      </trkpt>
      <trkpt lat="45.89515" lon="5.15673">
        <ele>265.4</ele>
        <time>2024-09-19T08:28:30Z</time>
      </trkpt>
      <trkpt lat="45.89517" lon="5.15681">
        <ele>264.6</ele>
        <time>2024-09-19T08:28:31Z</time>
      </trkpt>
      <trkpt lat="45.89517" lon="5.15688">
        <ele>264.6</ele>
        <time>2024-09-19T08:28:32Z</time>
      </trkpt>
      <trkpt lat="45.89518" lon="5.15694">
        <ele>264.2</ele>
        <time>2024-09-19T08:28:33Z</time>
      </trkpt>
      <trkpt lat="45.8952" lon="5.15701">
        <ele>264.2</ele>
        <time>2024-09-19T08:28:34Z</time>
      </trkpt>
      <trkpt lat="45.89521" lon="5.15708">
        <ele>263.8</ele>
        <time>2024-09-19T08:28:35Z</time>
      </trkpt>
      <trkpt lat="45.89522" lon="5.15713">
        <ele>263.4</ele>
        <time>2024-09-19T08:28:36Z</time>
      </trkpt>
      <trkpt lat="45.89524" lon="5.15719">
        <ele>263.4</ele>
        <time>2024-09-19T08:28:37Z</time>
      </trkpt>
      <trkpt lat="45.89524" lon="5.15723">
        <ele>263</ele>
        <time>2024-09-19T08:28:38Z</time>
      </trkpt>
      <trkpt lat="45.89525" lon="5.15729">
        <ele>263</ele>
        <time>2024-09-19T08:28:39Z</time>
      </trkpt>
      <trkpt lat="45.89527" lon="5.15734">
        <ele>263</ele>
        <time>2024-09-19T08:28:40Z</time>
      </trkpt>
      <trkpt lat="45.89528" lon="5.1574">
        <ele>263</ele>
        <time>2024-09-19T08:28:41Z</time>
      </trkpt>
      <trkpt lat="45.89529" lon="5.15746">
        <ele>263</ele>
        <time>2024-09-19T08:28:42Z</time>
      </trkpt>
      <trkpt lat="45.89531" lon="5.15753">
        <ele>262.8</ele>
        <time>2024-09-19T08:28:43Z</time>
      </trkpt>
      <trkpt lat="45.89533" lon="5.1576">
        <ele>262.4</ele>
        <time>2024-09-19T08:28:44Z</time>
      </trkpt>
      <trkpt lat="45.89535" lon="5.15766">
        <ele>262.4</ele>
        <time>2024-09-19T08:28:45Z</time>
      </trkpt>
      <trkpt lat="45.89537" lon="5.15773">
        <ele>262.4</ele>
        <time>2024-09-19T08:28:46Z</time>
      </trkpt>
      <trkpt lat="45.89539" lon="5.15777">
        <ele>262.4</ele>
        <time>2024-09-19T08:28:47Z</time>
      </trkpt>
      <trkpt lat="45.89541" lon="5.15784">
        <ele>262.4</ele>
        <time>2024-09-19T08:28:48Z</time>
      </trkpt>
      <trkpt lat="45.89543" lon="5.15792">
        <ele>262</ele>
        <time>2024-09-19T08:28:49Z</time>
      </trkpt>
      <trkpt lat="45.89544" lon="5.15798">
        <ele>261.2</ele>
        <time>2024-09-19T08:28:50Z</time>
      </trkpt>
      <trkpt lat="45.89545" lon="5.15806">
        <ele>261.2</ele>
        <time>2024-09-19T08:28:51Z</time>
      </trkpt>
      <trkpt lat="45.89545" lon="5.15812">
        <ele>261.8</ele>
        <time>2024-09-19T08:28:52Z</time>
      </trkpt>
      <trkpt lat="45.89545" lon="5.15814">
        <ele>262</ele>
        <time>2024-09-19T08:28:53Z</time>
      </trkpt>
      <trkpt lat="45.89546" lon="5.15817">
        <ele>262.4</ele>
        <time>2024-09-19T08:28:54Z</time>
      </trkpt>
      <trkpt lat="45.89546" lon="5.15819">
        <ele>262.4</ele>
        <time>2024-09-19T08:28:55Z</time>
      </trkpt>
      <trkpt lat="45.89547" lon="5.15819">
        <ele>262.4</ele>
        <time>2024-09-19T08:28:56Z</time>
      </trkpt>
      <trkpt lat="45.89547" lon="5.1582">
        <ele>262.6</ele>
        <time>2024-09-19T08:28:57Z</time>
      </trkpt>
      <trkpt lat="45.89547" lon="5.15822">
        <ele>262.8</ele>
        <time>2024-09-19T08:28:58Z</time>
      </trkpt>
      <trkpt lat="45.89547" lon="5.15821">
        <ele>262.8</ele>
        <time>2024-09-19T08:28:59Z</time>
      </trkpt>
      <trkpt lat="45.89548" lon="5.15822">
        <ele>263</ele>
        <time>2024-09-19T08:29:00Z</time>
      </trkpt>
      <trkpt lat="45.89548" lon="5.15822">
        <ele>263</ele>
        <time>2024-09-19T08:29:01Z</time>
      </trkpt>
      <trkpt lat="45.89548" lon="5.15822">
        <ele>263</ele>
        <time>2024-09-19T08:29:02Z</time>
      </trkpt>
      <trkpt lat="45.89549" lon="5.15826">
        <ele>262.2</ele>
        <time>2024-09-19T08:29:43Z</time>
      </trkpt>
      <trkpt lat="45.89549" lon="5.15829">
        <ele>262.4</ele>
        <time>2024-09-19T08:29:44Z</time>
      </trkpt>
      <trkpt lat="45.8955" lon="5.15831">
        <ele>263.2</ele>
        <time>2024-09-19T08:29:45Z</time>
      </trkpt>
      <trkpt lat="45.8955" lon="5.15831">
        <ele>263.2</ele>
        <time>2024-09-19T08:29:46Z</time>
      </trkpt>
      <trkpt lat="45.8955" lon="5.15834">
        <ele>262.4</ele>
        <time>2024-09-19T08:29:47Z</time>
      </trkpt>
      <trkpt lat="45.8955" lon="5.15836">
        <ele>262.6</ele>
        <time>2024-09-19T08:29:48Z</time>
      </trkpt>
      <trkpt lat="45.89551" lon="5.1584">
        <ele>262.6</ele>
        <time>2024-09-19T08:29:49Z</time>
      </trkpt>
      <trkpt lat="45.89551" lon="5.15842">
        <ele>262.6</ele>
        <time>2024-09-19T08:29:50Z</time>
      </trkpt>
      <trkpt lat="45.89552" lon="5.15845">
        <ele>262.4</ele>
        <time>2024-09-19T08:29:51Z</time>
      </trkpt>
      <trkpt lat="45.89552" lon="5.1585">
        <ele>262.4</ele>
        <time>2024-09-19T08:29:52Z</time>
      </trkpt>
      <trkpt lat="45.89553" lon="5.15855">
        <ele>262.6</ele>
        <time>2024-09-19T08:29:53Z</time>
      </trkpt>
      <trkpt lat="45.89553" lon="5.15859">
        <ele>262.2</ele>
        <time>2024-09-19T08:29:54Z</time>
      </trkpt>
      <trkpt lat="45.89554" lon="5.1587">
        <ele>262.2</ele>
        <time>2024-09-19T08:29:55Z</time>
      </trkpt>
      <trkpt lat="45.89554" lon="5.15876">
        <ele>262.2</ele>
        <time>2024-09-19T08:29:56Z</time>
      </trkpt>
      <trkpt lat="45.89555" lon="5.15881">
        <ele>262.4</ele>
        <time>2024-09-19T08:29:57Z</time>
      </trkpt>
      <trkpt lat="45.89556" lon="5.15887">
        <ele>262.4</ele>
        <time>2024-09-19T08:29:58Z</time>
      </trkpt>
      <trkpt lat="45.89557" lon="5.15892">
        <ele>262.2</ele>
        <time>2024-09-19T08:29:59Z</time>
      </trkpt>
      <trkpt lat="45.89558" lon="5.15898">
        <ele>262.2</ele>
        <time>2024-09-19T08:30:00Z</time>
      </trkpt>
      <trkpt lat="45.89559" lon="5.15902">
        <ele>261.8</ele>
        <time>2024-09-19T08:30:01Z</time>
      </trkpt>
      <trkpt lat="45.8956" lon="5.15908">
        <ele>261.8</ele>
        <time>2024-09-19T08:30:02Z</time>
      </trkpt>
      <trkpt lat="45.8956" lon="5.15914">
        <ele>261.8</ele>
        <time>2024-09-19T08:30:03Z</time>
      </trkpt>
      <trkpt lat="45.89562" lon="5.15918">
        <ele>262.2</ele>
        <time>2024-09-19T08:30:04Z</time>
      </trkpt>
      <trkpt lat="45.89562" lon="5.15923">
        <ele>261.6</ele>
        <time>2024-09-19T08:30:05Z</time>
      </trkpt>
      <trkpt lat="45.89563" lon="5.15927">
        <ele>261.4</ele>
        <time>2024-09-19T08:30:06Z</time>
      </trkpt>
      <trkpt lat="45.89563" lon="5.15933">
        <ele>261.6</ele>
        <time>2024-09-19T08:30:07Z</time>
      </trkpt>
      <trkpt lat="45.89563" lon="5.15936">
        <ele>261.6</ele>
        <time>2024-09-19T08:30:08Z</time>
      </trkpt>
      <trkpt lat="45.89563" lon="5.1594">
        <ele>261.8</ele>
        <time>2024-09-19T08:30:09Z</time>
      </trkpt>
      <trkpt lat="45.89562" lon="5.15942">
        <ele>261.8</ele>
        <time>2024-09-19T08:30:10Z</time>
      </trkpt>
      <trkpt lat="45.89564" lon="5.15947">
        <ele>261.8</ele>
        <time>2024-09-19T08:30:11Z</time>
      </trkpt>
      <trkpt lat="45.89565" lon="5.15953">
        <ele>261.8</ele>
        <time>2024-09-19T08:30:12Z</time>
      </trkpt>
      <trkpt lat="45.89567" lon="5.15959">
        <ele>262.2</ele>
        <time>2024-09-19T08:30:13Z</time>
      </trkpt>
      <trkpt lat="45.89569" lon="5.15964">
        <ele>261.8</ele>
        <time>2024-09-19T08:30:14Z</time>
      </trkpt>
      <trkpt lat="45.8957" lon="5.15967">
        <ele>262</ele>
        <time>2024-09-19T08:30:15Z</time>
      </trkpt>
      <trkpt lat="45.89571" lon="5.15971">
        <ele>262</ele>
        <time>2024-09-19T08:30:16Z</time>
      </trkpt>
      <trkpt lat="45.89573" lon="5.15974">
        <ele>262.2</ele>
        <time>2024-09-19T08:30:17Z</time>
      </trkpt>
      <trkpt lat="45.89574" lon="5.15978">
        <ele>262</ele>
        <time>2024-09-19T08:30:18Z</time>
      </trkpt>
      <trkpt lat="45.89577" lon="5.15987">
        <ele>262</ele>
        <time>2024-09-19T08:30:19Z</time>
      </trkpt>
      <trkpt lat="45.89579" lon="5.15993">
        <ele>262</ele>
        <time>2024-09-19T08:30:20Z</time>
      </trkpt>
      <trkpt lat="45.89582" lon="5.15999">
        <ele>262.4</ele>
        <time>2024-09-19T08:30:21Z</time>
      </trkpt>
      <trkpt lat="45.89585" lon="5.16004">
        <ele>262.4</ele>
        <time>2024-09-19T08:30:22Z</time>
      </trkpt>
      <trkpt lat="45.89587" lon="5.16007">
        <ele>262.4</ele>
        <time>2024-09-19T08:30:23Z</time>
      </trkpt>
      <trkpt lat="45.8959" lon="5.16011">
        <ele>262.4</ele>
        <time>2024-09-19T08:30:24Z</time>
      </trkpt>
      <trkpt lat="45.89593" lon="5.1601">
        <ele>262.4</ele>
        <time>2024-09-19T08:30:25Z</time>
      </trkpt>
      <trkpt lat="45.89596" lon="5.16012">
        <ele>262.4</ele>
        <time>2024-09-19T08:30:26Z</time>
      </trkpt>
      <trkpt lat="45.89601" lon="5.16016">
        <ele>263</ele>
        <time>2024-09-19T08:30:27Z</time>
      </trkpt>
      <trkpt lat="45.89606" lon="5.16019">
        <ele>263.4</ele>
        <time>2024-09-19T08:30:28Z</time>
      </trkpt>
      <trkpt lat="45.8961" lon="5.16022">
        <ele>263</ele>
        <time>2024-09-19T08:30:29Z</time>
      </trkpt>
      <trkpt lat="45.89614" lon="5.16024">
        <ele>263</ele>
        <time>2024-09-19T08:30:30Z</time>
      </trkpt>
      <trkpt lat="45.89619" lon="5.16025">
        <ele>263.4</ele>
        <time>2024-09-19T08:30:31Z</time>
      </trkpt>
      <trkpt lat="45.89622" lon="5.16025">
        <ele>263.4</ele>
        <time>2024-09-19T08:30:32Z</time>
      </trkpt>
      <trkpt lat="45.89626" lon="5.16025">
        <ele>263.8</ele>
        <time>2024-09-19T08:30:33Z</time>
      </trkpt>
      <trkpt lat="45.89628" lon="5.16025">
        <ele>264</ele>
        <time>2024-09-19T08:30:34Z</time>
      </trkpt>
      <trkpt lat="45.89631" lon="5.16024">
        <ele>264</ele>
        <time>2024-09-19T08:30:35Z</time>
      </trkpt>
      <trkpt lat="45.89634" lon="5.16027">
        <ele>264.4</ele>
        <time>2024-09-19T08:30:36Z</time>
      </trkpt>
      <trkpt lat="45.89636" lon="5.16029">
        <ele>264.6</ele>
        <time>2024-09-19T08:30:37Z</time>
      </trkpt>
      <trkpt lat="45.89638" lon="5.16029">
        <ele>265</ele>
        <time>2024-09-19T08:30:38Z</time>
      </trkpt>
      <trkpt lat="45.89639" lon="5.16029">
        <ele>265.2</ele>
        <time>2024-09-19T08:30:39Z</time>
      </trkpt>
      <trkpt lat="45.8964" lon="5.16029">
        <ele>265.2</ele>
        <time>2024-09-19T08:30:40Z</time>
      </trkpt>
      <trkpt lat="45.89641" lon="5.16027">
        <ele>265.6</ele>
        <time>2024-09-19T08:30:41Z</time>
      </trkpt>
      <trkpt lat="45.89643" lon="5.16025">
        <ele>265.6</ele>
        <time>2024-09-19T08:30:42Z</time>
      </trkpt>
      <trkpt lat="45.89645" lon="5.16024">
        <ele>265.4</ele>
        <time>2024-09-19T08:30:43Z</time>
      </trkpt>
      <trkpt lat="45.89646" lon="5.16023">
        <ele>265.6</ele>
        <time>2024-09-19T08:30:44Z</time>
      </trkpt>
      <trkpt lat="45.89647" lon="5.16021">
        <ele>265.6</ele>
        <time>2024-09-19T08:30:45Z</time>
      </trkpt>
      <trkpt lat="45.89648" lon="5.1602">
        <ele>265.6</ele>
        <time>2024-09-19T08:30:46Z</time>
      </trkpt>
      <trkpt lat="45.89648" lon="5.16019">
        <ele>265.6</ele>
        <time>2024-09-19T08:30:47Z</time>
      </trkpt>
      <trkpt lat="45.89648" lon="5.16019">
        <ele>265.8</ele>
        <time>2024-09-19T08:30:48Z</time>
      </trkpt>
      <trkpt lat="45.89649" lon="5.16016">
        <ele>265.8</ele>
        <time>2024-09-19T08:30:55Z</time>
      </trkpt>
      <trkpt lat="45.89651" lon="5.16015">
        <ele>265.8</ele>
        <time>2024-09-19T08:30:56Z</time>
      </trkpt>
      <trkpt lat="45.89653" lon="5.16014">
        <ele>265.8</ele>
        <time>2024-09-19T08:30:57Z</time>
      </trkpt>
      <trkpt lat="45.89655" lon="5.16014">
        <ele>265.8</ele>
        <time>2024-09-19T08:30:58Z</time>
      </trkpt>
      <trkpt lat="45.89657" lon="5.16014">
        <ele>266.2</ele>
        <time>2024-09-19T08:30:59Z</time>
      </trkpt>
      <trkpt lat="45.8966" lon="5.16013">
        <ele>266.2</ele>
        <time>2024-09-19T08:31:00Z</time>
      </trkpt>
      <trkpt lat="45.89662" lon="5.16011">
        <ele>266.4</ele>
        <time>2024-09-19T08:31:01Z</time>
      </trkpt>
      <trkpt lat="45.89664" lon="5.16009">
        <ele>266.4</ele>
        <time>2024-09-19T08:31:02Z</time>
      </trkpt>
      <trkpt lat="45.89665" lon="5.16007">
        <ele>266.4</ele>
        <time>2024-09-19T08:31:03Z</time>
      </trkpt>
      <trkpt lat="45.89666" lon="5.16004">
        <ele>266.4</ele>
        <time>2024-09-19T08:31:04Z</time>
      </trkpt>
      <trkpt lat="45.89667" lon="5.16001">
        <ele>266.6</ele>
        <time>2024-09-19T08:31:05Z</time>
      </trkpt>
      <trkpt lat="45.89668" lon="5.15998">
        <ele>266.6</ele>
        <time>2024-09-19T08:31:06Z</time>
      </trkpt>
      <trkpt lat="45.8967" lon="5.15994">
        <ele>267</ele>
        <time>2024-09-19T08:31:07Z</time>
      </trkpt>
      <trkpt lat="45.89672" lon="5.15991">
        <ele>267.4</ele>
        <time>2024-09-19T08:31:08Z</time>
      </trkpt>
      <trkpt lat="45.89674" lon="5.15988">
        <ele>267</ele>
        <time>2024-09-19T08:31:09Z</time>
      </trkpt>
      <trkpt lat="45.89677" lon="5.15984">
        <ele>267</ele>
        <time>2024-09-19T08:31:10Z</time>
      </trkpt>
      <trkpt lat="45.89679" lon="5.15981">
        <ele>267</ele>
        <time>2024-09-19T08:31:11Z</time>
      </trkpt>
      <trkpt lat="45.89681" lon="5.15977">
        <ele>267</ele>
        <time>2024-09-19T08:31:12Z</time>
      </trkpt>
      <trkpt lat="45.89683" lon="5.15973">
        <ele>267</ele>
        <time>2024-09-19T08:31:13Z</time>
      </trkpt>
      <trkpt lat="45.89685" lon="5.15969">
        <ele>267</ele>
        <time>2024-09-19T08:31:14Z</time>
      </trkpt>
      <trkpt lat="45.89687" lon="5.15965">
        <ele>267</ele>
        <time>2024-09-19T08:31:15Z</time>
      </trkpt>
      <trkpt lat="45.89689" lon="5.15961">
        <ele>267</ele>
        <time>2024-09-19T08:31:16Z</time>
      </trkpt>
      <trkpt lat="45.89691" lon="5.15957">
        <ele>267</ele>
        <time>2024-09-19T08:31:17Z</time>
      </trkpt>
      <trkpt lat="45.89693" lon="5.15952">
        <ele>267</ele>
        <time>2024-09-19T08:31:18Z</time>
      </trkpt>
      <trkpt lat="45.89694" lon="5.15947">
        <ele>267</ele>
        <time>2024-09-19T08:31:19Z</time>
      </trkpt>
      <trkpt lat="45.89696" lon="5.1594">
        <ele>267</ele>
        <time>2024-09-19T08:31:20Z</time>
      </trkpt>
      <trkpt lat="45.89697" lon="5.15933">
        <ele>266.6</ele>
        <time>2024-09-19T08:31:21Z</time>
      </trkpt>
      <trkpt lat="45.89699" lon="5.15926">
        <ele>266.6</ele>
        <time>2024-09-19T08:31:22Z</time>
      </trkpt>
      <trkpt lat="45.89702" lon="5.1591">
        <ele>267</ele>
        <time>2024-09-19T08:31:23Z</time>
      </trkpt>
      <trkpt lat="45.89703" lon="5.15906">
        <ele>267</ele>
        <time>2024-09-19T08:31:24Z</time>
      </trkpt>
      <trkpt lat="45.89706" lon="5.15898">
        <ele>267</ele>
        <time>2024-09-19T08:31:25Z</time>
      </trkpt>
      <trkpt lat="45.89707" lon="5.15894">
        <ele>267.2</ele>
        <time>2024-09-19T08:31:26Z</time>
      </trkpt>
      <trkpt lat="45.89709" lon="5.15889">
        <ele>267.6</ele>
        <time>2024-09-19T08:31:27Z</time>
      </trkpt>
      <trkpt lat="45.8971" lon="5.15884">
        <ele>267.8</ele>
        <time>2024-09-19T08:31:28Z</time>
      </trkpt>
      <trkpt lat="45.89711" lon="5.1588">
        <ele>268</ele>
        <time>2024-09-19T08:31:29Z</time>
      </trkpt>
      <trkpt lat="45.89712" lon="5.15875">
        <ele>268</ele>
        <time>2024-09-19T08:31:30Z</time>
      </trkpt>
      <trkpt lat="45.89713" lon="5.15873">
        <ele>268</ele>
        <time>2024-09-19T08:31:31Z</time>
      </trkpt>
      <trkpt lat="45.89714" lon="5.15869">
        <ele>268.2</ele>
        <time>2024-09-19T08:31:32Z</time>
      </trkpt>
      <trkpt lat="45.89717" lon="5.15866">
        <ele>268.4</ele>
        <time>2024-09-19T08:31:33Z</time>
      </trkpt>
      <trkpt lat="45.89718" lon="5.15863">
        <ele>268.8</ele>
        <time>2024-09-19T08:31:34Z</time>
      </trkpt>
      <trkpt lat="45.89721" lon="5.15863">
        <ele>269.2</ele>
        <time>2024-09-19T08:31:35Z</time>
      </trkpt>
      <trkpt lat="45.89723" lon="5.15864">
        <ele>269.2</ele>
        <time>2024-09-19T08:31:36Z</time>
      </trkpt>
      <trkpt lat="45.89725" lon="5.15864">
        <ele>270</ele>
        <time>2024-09-19T08:31:37Z</time>
      </trkpt>
      <trkpt lat="45.89727" lon="5.15864">
        <ele>270</ele>
        <time>2024-09-19T08:31:38Z</time>
      </trkpt>
      <trkpt lat="45.89729" lon="5.15864">
        <ele>270.6</ele>
        <time>2024-09-19T08:31:39Z</time>
      </trkpt>
      <trkpt lat="45.89731" lon="5.15864">
        <ele>271.2</ele>
        <time>2024-09-19T08:31:40Z</time>
      </trkpt>
      <trkpt lat="45.89732" lon="5.15864">
        <ele>271.2</ele>
        <time>2024-09-19T08:31:41Z</time>
      </trkpt>
      <trkpt lat="45.89734" lon="5.15865">
        <ele>271.2</ele>
        <time>2024-09-19T08:31:42Z</time>
      </trkpt>
      <trkpt lat="45.89737" lon="5.15866">
        <ele>271.4</ele>
        <time>2024-09-19T08:31:43Z</time>
      </trkpt>
      <trkpt lat="45.8974" lon="5.15868">
        <ele>271.4</ele>
        <time>2024-09-19T08:31:44Z</time>
      </trkpt>
      <trkpt lat="45.89743" lon="5.1587">
        <ele>272</ele>
        <time>2024-09-19T08:31:45Z</time>
      </trkpt>
      <trkpt lat="45.89745" lon="5.15871">
        <ele>272.2</ele>
        <time>2024-09-19T08:31:46Z</time>
      </trkpt>
      <trkpt lat="45.89746" lon="5.15872">
        <ele>272.8</ele>
        <time>2024-09-19T08:31:47Z</time>
      </trkpt>
      <trkpt lat="45.89747" lon="5.15871">
        <ele>272.8</ele>
        <time>2024-09-19T08:31:48Z</time>
      </trkpt>
      <trkpt lat="45.89747" lon="5.15871">
        <ele>273.4</ele>
        <time>2024-09-19T08:31:49Z</time>
      </trkpt>
      <trkpt lat="45.89747" lon="5.15871">
        <ele>273.4</ele>
        <time>2024-09-19T08:31:50Z</time>
      </trkpt>
      <trkpt lat="45.89762" lon="5.15986">
        <ele>271.8</ele>
        <time>2024-09-19T08:33:44Z</time>
      </trkpt>
      <trkpt lat="45.89762" lon="5.15989">
        <ele>272.2</ele>
        <time>2024-09-19T08:33:45Z</time>
      </trkpt>
      <trkpt lat="45.89762" lon="5.15992">
        <ele>272.6</ele>
        <time>2024-09-19T08:33:46Z</time>
      </trkpt>
      <trkpt lat="45.89762" lon="5.15995">
        <ele>272.6</ele>
        <time>2024-09-19T08:33:47Z</time>
      </trkpt>
      <trkpt lat="45.89761" lon="5.15997">
        <ele>272.8</ele>
        <time>2024-09-19T08:33:48Z</time>
      </trkpt>
      <trkpt lat="45.89761" lon="5.16">
        <ele>272.8</ele>
        <time>2024-09-19T08:33:49Z</time>
      </trkpt>
      <trkpt lat="45.89761" lon="5.16002">
        <ele>272.8</ele>
        <time>2024-09-19T08:33:50Z</time>
      </trkpt>
      <trkpt lat="45.89761" lon="5.16005">
        <ele>272.2</ele>
        <time>2024-09-19T08:33:51Z</time>
      </trkpt>
      <trkpt lat="45.8976" lon="5.16009">
        <ele>273</ele>
        <time>2024-09-19T08:33:52Z</time>
      </trkpt>
      <trkpt lat="45.8976" lon="5.16012">
        <ele>273</ele>
        <time>2024-09-19T08:33:53Z</time>
      </trkpt>
      <trkpt lat="45.89759" lon="5.16014">
        <ele>273.4</ele>
        <time>2024-09-19T08:33:54Z</time>
      </trkpt>
      <trkpt lat="45.89759" lon="5.16016">
        <ele>272.8</ele>
        <time>2024-09-19T08:33:55Z</time>
      </trkpt>
      <trkpt lat="45.89759" lon="5.16018">
        <ele>273.4</ele>
        <time>2024-09-19T08:33:56Z</time>
      </trkpt>
      <trkpt lat="45.89759" lon="5.1602">
        <ele>273.4</ele>
        <time>2024-09-19T08:33:57Z</time>
      </trkpt>
      <trkpt lat="45.89759" lon="5.16022">
        <ele>273.4</ele>
        <time>2024-09-19T08:33:58Z</time>
      </trkpt>
      <trkpt lat="45.89759" lon="5.16024">
        <ele>272.6</ele>
        <time>2024-09-19T08:33:59Z</time>
      </trkpt>
      <trkpt lat="45.89758" lon="5.16026">
        <ele>273.2</ele>
        <time>2024-09-19T08:34:00Z</time>
      </trkpt>
      <trkpt lat="45.89758" lon="5.16026">
        <ele>273.2</ele>
        <time>2024-09-19T08:34:01Z</time>
      </trkpt>
      <trkpt lat="45.89759" lon="5.16029">
        <ele>272</ele>
        <time>2024-09-19T08:34:02Z</time>
      </trkpt>
      <trkpt lat="45.89759" lon="5.16032">
        <ele>272.4</ele>
        <time>2024-09-19T08:34:03Z</time>
      </trkpt>
      <trkpt lat="45.8976" lon="5.16034">
        <ele>273</ele>
        <time>2024-09-19T08:34:04Z</time>
      </trkpt>
      <trkpt lat="45.89761" lon="5.16035">
        <ele>273</ele>
        <time>2024-09-19T08:34:05Z</time>
      </trkpt>
      <trkpt lat="45.89762" lon="5.16038">
        <ele>273.2</ele>
        <time>2024-09-19T08:34:06Z</time>
      </trkpt>
      <trkpt lat="45.89764" lon="5.16041">
        <ele>273</ele>
        <time>2024-09-19T08:34:07Z</time>
      </trkpt>
      <trkpt lat="45.89765" lon="5.16043">
        <ele>273</ele>
        <time>2024-09-19T08:34:08Z</time>
      </trkpt>
      <trkpt lat="45.89766" lon="5.16045">
        <ele>272.6</ele>
        <time>2024-09-19T08:34:09Z</time>
      </trkpt>
      <trkpt lat="45.89768" lon="5.16048">
        <ele>272.6</ele>
        <time>2024-09-19T08:34:10Z</time>
      </trkpt>
      <trkpt lat="45.89771" lon="5.16052">
        <ele>272.2</ele>
        <time>2024-09-19T08:34:11Z</time>
      </trkpt>
      <trkpt lat="45.89773" lon="5.16056">
        <ele>272.2</ele>
        <time>2024-09-19T08:34:12Z</time>
      </trkpt>
      <trkpt lat="45.89773" lon="5.16058">
        <ele>272</ele>
        <time>2024-09-19T08:34:13Z</time>
      </trkpt>
      <trkpt lat="45.89775" lon="5.1606">
        <ele>272</ele>
        <time>2024-09-19T08:34:14Z</time>
      </trkpt>
      <trkpt lat="45.89778" lon="5.16064">
        <ele>272</ele>
        <time>2024-09-19T08:34:15Z</time>
      </trkpt>
      <trkpt lat="45.89781" lon="5.16067">
        <ele>271.6</ele>
        <time>2024-09-19T08:34:16Z</time>
      </trkpt>
      <trkpt lat="45.89785" lon="5.16069">
        <ele>271.4</ele>
        <time>2024-09-19T08:34:17Z</time>
      </trkpt>
      <trkpt lat="45.89789" lon="5.16072">
        <ele>271.4</ele>
        <time>2024-09-19T08:34:18Z</time>
      </trkpt>
      <trkpt lat="45.89794" lon="5.16073">
        <ele>271.4</ele>
        <time>2024-09-19T08:34:19Z</time>
      </trkpt>
      <trkpt lat="45.89803" lon="5.16073">
        <ele>271.4</ele>
        <time>2024-09-19T08:34:20Z</time>
      </trkpt>
      <trkpt lat="45.89807" lon="5.16071">
        <ele>270.8</ele>
        <time>2024-09-19T08:34:21Z</time>
      </trkpt>
      <trkpt lat="45.8981" lon="5.16072">
        <ele>270.8</ele>
        <time>2024-09-19T08:34:22Z</time>
      </trkpt>
      <trkpt lat="45.89816" lon="5.16075">
        <ele>270.8</ele>
        <time>2024-09-19T08:34:23Z</time>
      </trkpt>
      <trkpt lat="45.8982" lon="5.16077">
        <ele>270.8</ele>
        <time>2024-09-19T08:34:24Z</time>
      </trkpt>
      <trkpt lat="45.89824" lon="5.16076">
        <ele>271.2</ele>
        <time>2024-09-19T08:34:25Z</time>
      </trkpt>
      <trkpt lat="45.89826" lon="5.16073">
        <ele>271.2</ele>
        <time>2024-09-19T08:34:26Z</time>
      </trkpt>
      <trkpt lat="45.89828" lon="5.1607">
        <ele>271.2</ele>
        <time>2024-09-19T08:34:27Z</time>
      </trkpt>
      <trkpt lat="45.89831" lon="5.16067">
        <ele>271.6</ele>
        <time>2024-09-19T08:34:28Z</time>
      </trkpt>
      <trkpt lat="45.89833" lon="5.16063">
        <ele>271.8</ele>
        <time>2024-09-19T08:34:29Z</time>
      </trkpt>
      <trkpt lat="45.89835" lon="5.16065">
        <ele>271.8</ele>
        <time>2024-09-19T08:34:30Z</time>
      </trkpt>
      <trkpt lat="45.89838" lon="5.16063">
        <ele>271.8</ele>
        <time>2024-09-19T08:34:31Z</time>
      </trkpt>
      <trkpt lat="45.89841" lon="5.16061">
        <ele>271.8</ele>
        <time>2024-09-19T08:34:32Z</time>
      </trkpt>
      <trkpt lat="45.89844" lon="5.1606">
        <ele>271.8</ele>
        <time>2024-09-19T08:34:33Z</time>
      </trkpt>
      <trkpt lat="45.89848" lon="5.1606">
        <ele>272</ele>
        <time>2024-09-19T08:34:34Z</time>
      </trkpt>
      <trkpt lat="45.89852" lon="5.1606">
        <ele>272</ele>
        <time>2024-09-19T08:34:35Z</time>
      </trkpt>
      <trkpt lat="45.89856" lon="5.1606">
        <ele>272.2</ele>
        <time>2024-09-19T08:34:36Z</time>
      </trkpt>
      <trkpt lat="45.89859" lon="5.16062">
        <ele>272.2</ele>
        <time>2024-09-19T08:34:37Z</time>
      </trkpt>
      <trkpt lat="45.89862" lon="5.16065">
        <ele>272.2</ele>
        <time>2024-09-19T08:34:38Z</time>
      </trkpt>
      <trkpt lat="45.89862" lon="5.16065">
        <ele>272.8</ele>
        <time>2024-09-19T08:34:39Z</time>
      </trkpt>
      <trkpt lat="45.89862" lon="5.16065">
        <ele>273</ele>
        <time>2024-09-19T08:34:40Z</time>
      </trkpt>
      <trkpt lat="45.89873" lon="5.16068">
        <ele>273.6</ele>
        <time>2024-09-19T08:34:42Z</time>
      </trkpt>
      <trkpt lat="45.89874" lon="5.16067">
        <ele>273.6</ele>
        <time>2024-09-19T08:34:43Z</time>
      </trkpt>
      <trkpt lat="45.89877" lon="5.16065">
        <ele>273.6</ele>
        <time>2024-09-19T08:34:44Z</time>
      </trkpt>
      <trkpt lat="45.89881" lon="5.16064">
        <ele>273.6</ele>
        <time>2024-09-19T08:34:45Z</time>
      </trkpt>
      <trkpt lat="45.89885" lon="5.16063">
        <ele>274</ele>
        <time>2024-09-19T08:34:46Z</time>
      </trkpt>
      <trkpt lat="45.89888" lon="5.16062">
        <ele>274</ele>
        <time>2024-09-19T08:34:47Z</time>
      </trkpt>
      <trkpt lat="45.89891" lon="5.16061">
        <ele>274</ele>
        <time>2024-09-19T08:34:48Z</time>
      </trkpt>
      <trkpt lat="45.89895" lon="5.16061">
        <ele>274.2</ele>
        <time>2024-09-19T08:34:49Z</time>
      </trkpt>
      <trkpt lat="45.89898" lon="5.16061">
        <ele>274.2</ele>
        <time>2024-09-19T08:34:50Z</time>
      </trkpt>
      <trkpt lat="45.89902" lon="5.1606">
        <ele>274.2</ele>
        <time>2024-09-19T08:34:51Z</time>
      </trkpt>
      <trkpt lat="45.89906" lon="5.1606">
        <ele>274.6</ele>
        <time>2024-09-19T08:34:52Z</time>
      </trkpt>
      <trkpt lat="45.89909" lon="5.16059">
        <ele>274.6</ele>
        <time>2024-09-19T08:34:53Z</time>
      </trkpt>
      <trkpt lat="45.89911" lon="5.16058">
        <ele>274.6</ele>
        <time>2024-09-19T08:34:54Z</time>
      </trkpt>
      <trkpt lat="45.89913" lon="5.16057">
        <ele>274.8</ele>
        <time>2024-09-19T08:34:55Z</time>
      </trkpt>
      <trkpt lat="45.89916" lon="5.16054">
        <ele>274.6</ele>
        <time>2024-09-19T08:34:56Z</time>
      </trkpt>
      <trkpt lat="45.89919" lon="5.16051">
        <ele>274.6</ele>
        <time>2024-09-19T08:34:57Z</time>
      </trkpt>
      <trkpt lat="45.89925" lon="5.16047">
        <ele>274.2</ele>
        <time>2024-09-19T08:34:58Z</time>
      </trkpt>
      <trkpt lat="45.89929" lon="5.16044">
        <ele>274.2</ele>
        <time>2024-09-19T08:34:59Z</time>
      </trkpt>
      <trkpt lat="45.89934" lon="5.16046">
        <ele>274.2</ele>
        <time>2024-09-19T08:35:00Z</time>
      </trkpt>
      <trkpt lat="45.89938" lon="5.16046">
        <ele>274</ele>
        <time>2024-09-19T08:35:01Z</time>
      </trkpt>
      <trkpt lat="45.89943" lon="5.1605">
        <ele>273.8</ele>
        <time>2024-09-19T08:35:02Z</time>
      </trkpt>
      <trkpt lat="45.89948" lon="5.16053">
        <ele>273.2</ele>
        <time>2024-09-19T08:35:03Z</time>
      </trkpt>
      <trkpt lat="45.89952" lon="5.16056">
        <ele>272.8</ele>
        <time>2024-09-19T08:35:04Z</time>
      </trkpt>
      <trkpt lat="45.89956" lon="5.16061">
        <ele>272.8</ele>
        <time>2024-09-19T08:35:05Z</time>
      </trkpt>
      <trkpt lat="45.89959" lon="5.16066">
        <ele>272.8</ele>
        <time>2024-09-19T08:35:06Z</time>
      </trkpt>
      <trkpt lat="45.89962" lon="5.16072">
        <ele>273</ele>
        <time>2024-09-19T08:35:07Z</time>
      </trkpt>
      <trkpt lat="45.89965" lon="5.16078">
        <ele>272.6</ele>
        <time>2024-09-19T08:35:08Z</time>
      </trkpt>
      <trkpt lat="45.89967" lon="5.16084">
        <ele>273.4</ele>
        <time>2024-09-19T08:35:09Z</time>
      </trkpt>
      <trkpt lat="45.89969" lon="5.1609">
        <ele>272.8</ele>
        <time>2024-09-19T08:35:10Z</time>
      </trkpt>
      <trkpt lat="45.89971" lon="5.16098">
        <ele>272.8</ele>
        <time>2024-09-19T08:35:11Z</time>
      </trkpt>
      <trkpt lat="45.89973" lon="5.16106">
        <ele>272.8</ele>
        <time>2024-09-19T08:35:12Z</time>
      </trkpt>
      <trkpt lat="45.89974" lon="5.16113">
        <ele>272.8</ele>
        <time>2024-09-19T08:35:13Z</time>
      </trkpt>
      <trkpt lat="45.89976" lon="5.1612">
        <ele>272.8</ele>
        <time>2024-09-19T08:35:14Z</time>
      </trkpt>
      <trkpt lat="45.89979" lon="5.16126">
        <ele>272.8</ele>
        <time>2024-09-19T08:35:15Z</time>
      </trkpt>
      <trkpt lat="45.89981" lon="5.16133">
        <ele>272.8</ele>
        <time>2024-09-19T08:35:16Z</time>
      </trkpt>
      <trkpt lat="45.89984" lon="5.16139">
        <ele>272.8</ele>
        <time>2024-09-19T08:35:17Z</time>
      </trkpt>
      <trkpt lat="45.89987" lon="5.16145">
        <ele>272.8</ele>
        <time>2024-09-19T08:35:18Z</time>
      </trkpt>
      <trkpt lat="45.8999" lon="5.1615">
        <ele>272.8</ele>
        <time>2024-09-19T08:35:19Z</time>
      </trkpt>
      <trkpt lat="45.89995" lon="5.16154">
        <ele>272.8</ele>
        <time>2024-09-19T08:35:20Z</time>
      </trkpt>
      <trkpt lat="45.9" lon="5.16159">
        <ele>272.8</ele>
        <time>2024-09-19T08:35:21Z</time>
      </trkpt>
      <trkpt lat="45.90004" lon="5.16163">
        <ele>273.6</ele>
        <time>2024-09-19T08:35:22Z</time>
      </trkpt>
      <trkpt lat="45.90009" lon="5.16165">
        <ele>273.2</ele>
        <time>2024-09-19T08:35:23Z</time>
      </trkpt>
      <trkpt lat="45.90014" lon="5.16169">
        <ele>273.2</ele>
        <time>2024-09-19T08:35:24Z</time>
      </trkpt>
      <trkpt lat="45.90018" lon="5.16171">
        <ele>273.2</ele>
        <time>2024-09-19T08:35:25Z</time>
      </trkpt>
      <trkpt lat="45.90023" lon="5.16173">
        <ele>273</ele>
        <time>2024-09-19T08:35:26Z</time>
      </trkpt>
      <trkpt lat="45.90028" lon="5.16175">
        <ele>273</ele>
        <time>2024-09-19T08:35:27Z</time>
      </trkpt>
      <trkpt lat="45.90033" lon="5.16177">
        <ele>273</ele>
        <time>2024-09-19T08:35:28Z</time>
      </trkpt>
      <trkpt lat="45.90038" lon="5.16179">
        <ele>272.6</ele>
        <time>2024-09-19T08:35:29Z</time>
      </trkpt>
      <trkpt lat="45.90042" lon="5.1618">
        <ele>271.4</ele>
        <time>2024-09-19T08:35:30Z</time>
      </trkpt>
      <trkpt lat="45.90047" lon="5.16181">
        <ele>271.8</ele>
        <time>2024-09-19T08:35:31Z</time>
      </trkpt>
      <trkpt lat="45.90052" lon="5.16183">
        <ele>271.8</ele>
        <time>2024-09-19T08:35:32Z</time>
      </trkpt>
      <trkpt lat="45.90057" lon="5.16186">
        <ele>271.8</ele>
        <time>2024-09-19T08:35:33Z</time>
      </trkpt>
      <trkpt lat="45.90061" lon="5.16188">
        <ele>272.2</ele>
        <time>2024-09-19T08:35:34Z</time>
      </trkpt>
      <trkpt lat="45.90066" lon="5.1619">
        <ele>272</ele>
        <time>2024-09-19T08:35:35Z</time>
      </trkpt>
      <trkpt lat="45.9007" lon="5.16192">
        <ele>272</ele>
        <time>2024-09-19T08:35:36Z</time>
      </trkpt>
      <trkpt lat="45.90075" lon="5.16194">
        <ele>272.4</ele>
        <time>2024-09-19T08:35:37Z</time>
      </trkpt>
      <trkpt lat="45.90079" lon="5.16196">
        <ele>272.4</ele>
        <time>2024-09-19T08:35:38Z</time>
      </trkpt>
      <trkpt lat="45.90083" lon="5.16197">
        <ele>272.4</ele>
        <time>2024-09-19T08:35:39Z</time>
      </trkpt>
      <trkpt lat="45.90087" lon="5.16201">
        <ele>272.8</ele>
        <time>2024-09-19T08:35:40Z</time>
      </trkpt>
      <trkpt lat="45.90091" lon="5.16201">
        <ele>272.8</ele>
        <time>2024-09-19T08:35:41Z</time>
      </trkpt>
      <trkpt lat="45.90096" lon="5.16204">
        <ele>272.6</ele>
        <time>2024-09-19T08:35:42Z</time>
      </trkpt>
      <trkpt lat="45.901" lon="5.16206">
        <ele>272.6</ele>
        <time>2024-09-19T08:35:43Z</time>
      </trkpt>
      <trkpt lat="45.90104" lon="5.16207">
        <ele>273</ele>
        <time>2024-09-19T08:35:44Z</time>
      </trkpt>
      <trkpt lat="45.90108" lon="5.16209">
        <ele>273</ele>
        <time>2024-09-19T08:35:45Z</time>
      </trkpt>
      <trkpt lat="45.90112" lon="5.16211">
        <ele>273</ele>
        <time>2024-09-19T08:35:46Z</time>
      </trkpt>
      <trkpt lat="45.90117" lon="5.16215">
        <ele>273.2</ele>
        <time>2024-09-19T08:35:47Z</time>
      </trkpt>
      <trkpt lat="45.9012" lon="5.16219">
        <ele>273.2</ele>
        <time>2024-09-19T08:35:48Z</time>
      </trkpt>
      <trkpt lat="45.90124" lon="5.16221">
        <ele>273.2</ele>
        <time>2024-09-19T08:35:49Z</time>
      </trkpt>
      <trkpt lat="45.90127" lon="5.16225">
        <ele>273.8</ele>
        <time>2024-09-19T08:35:50Z</time>
      </trkpt>
      <trkpt lat="45.9013" lon="5.16227">
        <ele>273.8</ele>
        <time>2024-09-19T08:35:51Z</time>
      </trkpt>
      <trkpt lat="45.90132" lon="5.1623">
        <ele>274.2</ele>
        <time>2024-09-19T08:35:52Z</time>
      </trkpt>
      <trkpt lat="45.90134" lon="5.16237">
        <ele>274.6</ele>
        <time>2024-09-19T08:35:53Z</time>
      </trkpt>
      <trkpt lat="45.90136" lon="5.16241">
        <ele>274.6</ele>
        <time>2024-09-19T08:35:54Z</time>
      </trkpt>
      <trkpt lat="45.90138" lon="5.16248">
        <ele>274.6</ele>
        <time>2024-09-19T08:35:55Z</time>
      </trkpt>
      <trkpt lat="45.9014" lon="5.16254">
        <ele>274</ele>
        <time>2024-09-19T08:35:56Z</time>
      </trkpt>
      <trkpt lat="45.90142" lon="5.1626">
        <ele>273.2</ele>
        <time>2024-09-19T08:35:57Z</time>
      </trkpt>
      <trkpt lat="45.90143" lon="5.16266">
        <ele>273.2</ele>
        <time>2024-09-19T08:35:58Z</time>
      </trkpt>
      <trkpt lat="45.90145" lon="5.16276">
        <ele>273.4</ele>
        <time>2024-09-19T08:35:59Z</time>
      </trkpt>
      <trkpt lat="45.90146" lon="5.16283">
        <ele>272.8</ele>
        <time>2024-09-19T08:36:00Z</time>
      </trkpt>
      <trkpt lat="45.90147" lon="5.16292">
        <ele>272.4</ele>
        <time>2024-09-19T08:36:01Z</time>
      </trkpt>
      <trkpt lat="45.90148" lon="5.163">
        <ele>273</ele>
        <time>2024-09-19T08:36:02Z</time>
      </trkpt>
      <trkpt lat="45.90148" lon="5.16308">
        <ele>272</ele>
        <time>2024-09-19T08:36:03Z</time>
      </trkpt>
      <trkpt lat="45.90148" lon="5.16312">
        <ele>272</ele>
        <time>2024-09-19T08:36:04Z</time>
      </trkpt>
      <trkpt lat="45.90146" lon="5.16317">
        <ele>272</ele>
        <time>2024-09-19T08:36:05Z</time>
      </trkpt>
      <trkpt lat="45.90146" lon="5.16317">
        <ele>271.4</ele>
        <time>2024-09-19T08:36:06Z</time>
      </trkpt>
      <trkpt lat="45.90146" lon="5.16317">
        <ele>271.8</ele>
        <time>2024-09-19T08:36:07Z</time>
      </trkpt>
      <trkpt lat="45.90143" lon="5.16328">
        <ele>271.2</ele>
        <time>2024-09-19T08:36:08Z</time>
      </trkpt>
      <trkpt lat="45.90143" lon="5.16331">
        <ele>271.2</ele>
        <time>2024-09-19T08:36:09Z</time>
      </trkpt>
      <trkpt lat="45.90142" lon="5.16334">
        <ele>271.2</ele>
        <time>2024-09-19T08:36:10Z</time>
      </trkpt>
      <trkpt lat="45.90143" lon="5.16337">
        <ele>271.2</ele>
        <time>2024-09-19T08:36:11Z</time>
      </trkpt>
      <trkpt lat="45.90144" lon="5.1634">
        <ele>271.2</ele>
        <time>2024-09-19T08:36:12Z</time>
      </trkpt>
      <trkpt lat="45.90148" lon="5.16342">
        <ele>271.2</ele>
        <time>2024-09-19T08:36:13Z</time>
      </trkpt>
      <trkpt lat="45.90151" lon="5.16343">
        <ele>271.2</ele>
        <time>2024-09-19T08:36:14Z</time>
      </trkpt>
      <trkpt lat="45.90154" lon="5.16344">
        <ele>271.2</ele>
        <time>2024-09-19T08:36:15Z</time>
      </trkpt>
      <trkpt lat="45.90158" lon="5.16346">
        <ele>270.8</ele>
        <time>2024-09-19T08:36:16Z</time>
      </trkpt>
      <trkpt lat="45.90161" lon="5.16346">
        <ele>270.8</ele>
        <time>2024-09-19T08:36:17Z</time>
      </trkpt>
      <trkpt lat="45.90164" lon="5.16348">
        <ele>270.8</ele>
        <time>2024-09-19T08:36:18Z</time>
      </trkpt>
      <trkpt lat="45.90168" lon="5.16349">
        <ele>271.2</ele>
        <time>2024-09-19T08:36:19Z</time>
      </trkpt>
      <trkpt lat="45.90171" lon="5.1635">
        <ele>271.2</ele>
        <time>2024-09-19T08:36:20Z</time>
      </trkpt>
      <trkpt lat="45.90174" lon="5.16352">
        <ele>271.2</ele>
        <time>2024-09-19T08:36:21Z</time>
      </trkpt>
      <trkpt lat="45.90178" lon="5.16355">
        <ele>271.2</ele>
        <time>2024-09-19T08:36:22Z</time>
      </trkpt>
      <trkpt lat="45.90181" lon="5.16357">
        <ele>271.2</ele>
        <time>2024-09-19T08:36:23Z</time>
      </trkpt>
      <trkpt lat="45.90184" lon="5.16359">
        <ele>271</ele>
        <time>2024-09-19T08:36:24Z</time>
      </trkpt>
      <trkpt lat="45.90188" lon="5.16361">
        <ele>271</ele>
        <time>2024-09-19T08:36:25Z</time>
      </trkpt>
      <trkpt lat="45.90191" lon="5.16364">
        <ele>271.2</ele>
        <time>2024-09-19T08:36:26Z</time>
      </trkpt>
      <trkpt lat="45.90195" lon="5.16366">
        <ele>271.2</ele>
        <time>2024-09-19T08:36:27Z</time>
      </trkpt>
      <trkpt lat="45.90199" lon="5.16369">
        <ele>271.2</ele>
        <time>2024-09-19T08:36:28Z</time>
      </trkpt>
      <trkpt lat="45.90202" lon="5.16371">
        <ele>271.2</ele>
        <time>2024-09-19T08:36:29Z</time>
      </trkpt>
      <trkpt lat="45.90205" lon="5.16373">
        <ele>271.2</ele>
        <time>2024-09-19T08:36:30Z</time>
      </trkpt>
      <trkpt lat="45.90208" lon="5.16374">
        <ele>271.2</ele>
        <time>2024-09-19T08:36:31Z</time>
      </trkpt>
      <trkpt lat="45.90211" lon="5.16375">
        <ele>271.2</ele>
        <time>2024-09-19T08:36:32Z</time>
      </trkpt>
      <trkpt lat="45.90213" lon="5.16375">
        <ele>271.2</ele>
        <time>2024-09-19T08:36:33Z</time>
      </trkpt>
      <trkpt lat="45.90215" lon="5.16376">
        <ele>272.2</ele>
        <time>2024-09-19T08:36:34Z</time>
      </trkpt>
      <trkpt lat="45.90218" lon="5.16376">
        <ele>272.2</ele>
        <time>2024-09-19T08:36:35Z</time>
      </trkpt>
      <trkpt lat="45.9022" lon="5.16377">
        <ele>272.6</ele>
        <time>2024-09-19T08:36:36Z</time>
      </trkpt>
      <trkpt lat="45.90222" lon="5.16379">
        <ele>272.6</ele>
        <time>2024-09-19T08:36:37Z</time>
      </trkpt>
      <trkpt lat="45.90224" lon="5.16382">
        <ele>272.6</ele>
        <time>2024-09-19T08:36:38Z</time>
      </trkpt>
      <trkpt lat="45.90225" lon="5.16386">
        <ele>272.6</ele>
        <time>2024-09-19T08:36:39Z</time>
      </trkpt>
      <trkpt lat="45.90225" lon="5.1639">
        <ele>272.6</ele>
        <time>2024-09-19T08:36:40Z</time>
      </trkpt>
      <trkpt lat="45.90226" lon="5.16395">
        <ele>272.8</ele>
        <time>2024-09-19T08:36:41Z</time>
      </trkpt>
      <trkpt lat="45.90226" lon="5.164">
        <ele>272.8</ele>
        <time>2024-09-19T08:36:42Z</time>
      </trkpt>
      <trkpt lat="45.90227" lon="5.16405">
        <ele>272.8</ele>
        <time>2024-09-19T08:36:43Z</time>
      </trkpt>
      <trkpt lat="45.90228" lon="5.1641">
        <ele>272.8</ele>
        <time>2024-09-19T08:36:44Z</time>
      </trkpt>
      <trkpt lat="45.90228" lon="5.16416">
        <ele>272.6</ele>
        <time>2024-09-19T08:36:45Z</time>
      </trkpt>
      <trkpt lat="45.90228" lon="5.16421">
        <ele>273</ele>
        <time>2024-09-19T08:36:46Z</time>
      </trkpt>
      <trkpt lat="45.90229" lon="5.16424">
        <ele>273</ele>
        <time>2024-09-19T08:36:47Z</time>
      </trkpt>
      <trkpt lat="45.9023" lon="5.16428">
        <ele>273</ele>
        <time>2024-09-19T08:36:48Z</time>
      </trkpt>
      <trkpt lat="45.90231" lon="5.16431">
        <ele>273</ele>
        <time>2024-09-19T08:36:49Z</time>
      </trkpt>
      <trkpt lat="45.90232" lon="5.16433">
        <ele>273.6</ele>
        <time>2024-09-19T08:36:50Z</time>
      </trkpt>
      <trkpt lat="45.90233" lon="5.16436">
        <ele>273.6</ele>
        <time>2024-09-19T08:36:51Z</time>
      </trkpt>
      <trkpt lat="45.90235" lon="5.16438">
        <ele>274.2</ele>
        <time>2024-09-19T08:36:52Z</time>
      </trkpt>
      <trkpt lat="45.90236" lon="5.1644">
        <ele>274.4</ele>
        <time>2024-09-19T08:36:53Z</time>
      </trkpt>
      <trkpt lat="45.90238" lon="5.16442">
        <ele>274.8</ele>
        <time>2024-09-19T08:36:54Z</time>
      </trkpt>
      <trkpt lat="45.90239" lon="5.16444">
        <ele>274.8</ele>
        <time>2024-09-19T08:36:55Z</time>
      </trkpt>
      <trkpt lat="45.9024" lon="5.16446">
        <ele>275.4</ele>
        <time>2024-09-19T08:36:56Z</time>
      </trkpt>
      <trkpt lat="45.90242" lon="5.16448">
        <ele>275.8</ele>
        <time>2024-09-19T08:36:57Z</time>
      </trkpt>
      <trkpt lat="45.90243" lon="5.1645">
        <ele>276</ele>
        <time>2024-09-19T08:36:58Z</time>
      </trkpt>
      <trkpt lat="45.90244" lon="5.16452">
        <ele>276.4</ele>
        <time>2024-09-19T08:36:59Z</time>
      </trkpt>
      <trkpt lat="45.90245" lon="5.16454">
        <ele>276.8</ele>
        <time>2024-09-19T08:37:00Z</time>
      </trkpt>
      <trkpt lat="45.90246" lon="5.16456">
        <ele>277.2</ele>
        <time>2024-09-19T08:37:01Z</time>
      </trkpt>
      <trkpt lat="45.90248" lon="5.16458">
        <ele>277.2</ele>
        <time>2024-09-19T08:37:02Z</time>
      </trkpt>
      <trkpt lat="45.90249" lon="5.1646">
        <ele>277.8</ele>
        <time>2024-09-19T08:37:03Z</time>
      </trkpt>
      <trkpt lat="45.9025" lon="5.16463">
        <ele>278.2</ele>
        <time>2024-09-19T08:37:04Z</time>
      </trkpt>
      <trkpt lat="45.90251" lon="5.16465">
        <ele>278.6</ele>
        <time>2024-09-19T08:37:05Z</time>
      </trkpt>
      <trkpt lat="45.90252" lon="5.16467">
        <ele>278.6</ele>
        <time>2024-09-19T08:37:06Z</time>
      </trkpt>
      <trkpt lat="45.90253" lon="5.16469">
        <ele>279</ele>
        <time>2024-09-19T08:37:07Z</time>
      </trkpt>
      <trkpt lat="45.90253" lon="5.16472">
        <ele>279</ele>
        <time>2024-09-19T08:37:08Z</time>
      </trkpt>
      <trkpt lat="45.90254" lon="5.16474">
        <ele>279.4</ele>
        <time>2024-09-19T08:37:09Z</time>
      </trkpt>
      <trkpt lat="45.90253" lon="5.16476">
        <ele>279.8</ele>
        <time>2024-09-19T08:37:10Z</time>
      </trkpt>
      <trkpt lat="45.90253" lon="5.16479">
        <ele>280.2</ele>
        <time>2024-09-19T08:37:11Z</time>
      </trkpt>
      <trkpt lat="45.90252" lon="5.16481">
        <ele>280.4</ele>
        <time>2024-09-19T08:37:12Z</time>
      </trkpt>
      <trkpt lat="45.90252" lon="5.16483">
        <ele>280.4</ele>
        <time>2024-09-19T08:37:13Z</time>
      </trkpt>
      <trkpt lat="45.90252" lon="5.16486">
        <ele>280.8</ele>
        <time>2024-09-19T08:37:14Z</time>
      </trkpt>
      <trkpt lat="45.90252" lon="5.16489">
        <ele>281</ele>
        <time>2024-09-19T08:37:15Z</time>
      </trkpt>
      <trkpt lat="45.90251" lon="5.16491">
        <ele>281.6</ele>
        <time>2024-09-19T08:37:16Z</time>
      </trkpt>
      <trkpt lat="45.90251" lon="5.16494">
        <ele>282</ele>
        <time>2024-09-19T08:37:17Z</time>
      </trkpt>
      <trkpt lat="45.9025" lon="5.16496">
        <ele>282.2</ele>
        <time>2024-09-19T08:37:18Z</time>
      </trkpt>
      <trkpt lat="45.9025" lon="5.16499">
        <ele>282.6</ele>
        <time>2024-09-19T08:37:19Z</time>
      </trkpt>
      <trkpt lat="45.90249" lon="5.16501">
        <ele>282.8</ele>
        <time>2024-09-19T08:37:20Z</time>
      </trkpt>
      <trkpt lat="45.90249" lon="5.16504">
        <ele>282.8</ele>
        <time>2024-09-19T08:37:21Z</time>
      </trkpt>
      <trkpt lat="45.90248" lon="5.16506">
        <ele>282.8</ele>
        <time>2024-09-19T08:37:22Z</time>
      </trkpt>
      <trkpt lat="45.90248" lon="5.16509">
        <ele>283</ele>
        <time>2024-09-19T08:37:23Z</time>
      </trkpt>
      <trkpt lat="45.90247" lon="5.16512">
        <ele>283</ele>
        <time>2024-09-19T08:37:24Z</time>
      </trkpt>
      <trkpt lat="45.90247" lon="5.16514">
        <ele>283.4</ele>
        <time>2024-09-19T08:37:25Z</time>
      </trkpt>
      <trkpt lat="45.90246" lon="5.16517">
        <ele>283.4</ele>
        <time>2024-09-19T08:37:26Z</time>
      </trkpt>
      <trkpt lat="45.90246" lon="5.16521">
        <ele>283.6</ele>
        <time>2024-09-19T08:37:27Z</time>
      </trkpt>
      <trkpt lat="45.90245" lon="5.16524">
        <ele>283.6</ele>
        <time>2024-09-19T08:37:28Z</time>
      </trkpt>
      <trkpt lat="45.90244" lon="5.16527">
        <ele>283.6</ele>
        <time>2024-09-19T08:37:29Z</time>
      </trkpt>
      <trkpt lat="45.90243" lon="5.16531">
        <ele>283.6</ele>
        <time>2024-09-19T08:37:30Z</time>
      </trkpt>
      <trkpt lat="45.90242" lon="5.16534">
        <ele>283.2</ele>
        <time>2024-09-19T08:37:31Z</time>
      </trkpt>
      <trkpt lat="45.90241" lon="5.16538">
        <ele>283.2</ele>
        <time>2024-09-19T08:37:32Z</time>
      </trkpt>
      <trkpt lat="45.9024" lon="5.16542">
        <ele>283.2</ele>
        <time>2024-09-19T08:37:33Z</time>
      </trkpt>
      <trkpt lat="45.90239" lon="5.16546">
        <ele>283.2</ele>
        <time>2024-09-19T08:37:34Z</time>
      </trkpt>
      <trkpt lat="45.90238" lon="5.1655">
        <ele>283.2</ele>
        <time>2024-09-19T08:37:35Z</time>
      </trkpt>
      <trkpt lat="45.90237" lon="5.16554">
        <ele>283.2</ele>
        <time>2024-09-19T08:37:36Z</time>
      </trkpt>
      <trkpt lat="45.90235" lon="5.16559">
        <ele>283.2</ele>
        <time>2024-09-19T08:37:37Z</time>
      </trkpt>
      <trkpt lat="45.90234" lon="5.16563">
        <ele>283.2</ele>
        <time>2024-09-19T08:37:38Z</time>
      </trkpt>
      <trkpt lat="45.90232" lon="5.16567">
        <ele>283</ele>
        <time>2024-09-19T08:37:39Z</time>
      </trkpt>
      <trkpt lat="45.90231" lon="5.16572">
        <ele>283</ele>
        <time>2024-09-19T08:37:40Z</time>
      </trkpt>
      <trkpt lat="45.90229" lon="5.16576">
        <ele>283</ele>
        <time>2024-09-19T08:37:41Z</time>
      </trkpt>
      <trkpt lat="45.90228" lon="5.16581">
        <ele>283</ele>
        <time>2024-09-19T08:37:42Z</time>
      </trkpt>
      <trkpt lat="45.90226" lon="5.16586">
        <ele>283</ele>
        <time>2024-09-19T08:37:43Z</time>
      </trkpt>
      <trkpt lat="45.90225" lon="5.1659">
        <ele>283</ele>
        <time>2024-09-19T08:37:44Z</time>
      </trkpt>
      <trkpt lat="45.90223" lon="5.16595">
        <ele>283</ele>
        <time>2024-09-19T08:37:45Z</time>
      </trkpt>
      <trkpt lat="45.90222" lon="5.166">
        <ele>283</ele>
        <time>2024-09-19T08:37:46Z</time>
      </trkpt>
      <trkpt lat="45.9022" lon="5.16604">
        <ele>283</ele>
        <time>2024-09-19T08:37:47Z</time>
      </trkpt>
      <trkpt lat="45.90219" lon="5.16609">
        <ele>283</ele>
        <time>2024-09-19T08:37:48Z</time>
      </trkpt>
      <trkpt lat="45.90218" lon="5.16613">
        <ele>283</ele>
        <time>2024-09-19T08:37:49Z</time>
      </trkpt>
      <trkpt lat="45.90216" lon="5.16618">
        <ele>283</ele>
        <time>2024-09-19T08:37:50Z</time>
      </trkpt>
      <trkpt lat="45.90215" lon="5.16623">
        <ele>283</ele>
        <time>2024-09-19T08:37:51Z</time>
      </trkpt>
      <trkpt lat="45.90213" lon="5.16629">
        <ele>283</ele>
        <time>2024-09-19T08:37:52Z</time>
      </trkpt>
      <trkpt lat="45.90211" lon="5.16635">
        <ele>282.8</ele>
        <time>2024-09-19T08:37:53Z</time>
      </trkpt>
      <trkpt lat="45.9021" lon="5.16641">
        <ele>282.6</ele>
        <time>2024-09-19T08:37:54Z</time>
      </trkpt>
      <trkpt lat="45.90208" lon="5.16647">
        <ele>282.2</ele>
        <time>2024-09-19T08:37:55Z</time>
      </trkpt>
      <trkpt lat="45.90206" lon="5.16654">
        <ele>281.8</ele>
        <time>2024-09-19T08:37:56Z</time>
      </trkpt>
      <trkpt lat="45.90205" lon="5.16661">
        <ele>281.8</ele>
        <time>2024-09-19T08:37:57Z</time>
      </trkpt>
      <trkpt lat="45.90204" lon="5.16667">
        <ele>281.8</ele>
        <time>2024-09-19T08:37:58Z</time>
      </trkpt>
      <trkpt lat="45.90203" lon="5.16674">
        <ele>281.8</ele>
        <time>2024-09-19T08:37:59Z</time>
      </trkpt>
      <trkpt lat="45.90202" lon="5.1668">
        <ele>281.4</ele>
        <time>2024-09-19T08:38:00Z</time>
      </trkpt>
      <trkpt lat="45.902" lon="5.16684">
        <ele>281.4</ele>
        <time>2024-09-19T08:38:01Z</time>
      </trkpt>
      <trkpt lat="45.902" lon="5.16691">
        <ele>281.4</ele>
        <time>2024-09-19T08:38:02Z</time>
      </trkpt>
      <trkpt lat="45.90199" lon="5.16697">
        <ele>281.4</ele>
        <time>2024-09-19T08:38:03Z</time>
      </trkpt>
      <trkpt lat="45.90198" lon="5.16702">
        <ele>281.4</ele>
        <time>2024-09-19T08:38:04Z</time>
      </trkpt>
      <trkpt lat="45.90198" lon="5.16707">
        <ele>281.8</ele>
        <time>2024-09-19T08:38:05Z</time>
      </trkpt>
      <trkpt lat="45.90197" lon="5.16712">
        <ele>281.8</ele>
        <time>2024-09-19T08:38:06Z</time>
      </trkpt>
      <trkpt lat="45.90198" lon="5.16717">
        <ele>282</ele>
        <time>2024-09-19T08:38:07Z</time>
      </trkpt>
      <trkpt lat="45.90198" lon="5.16722">
        <ele>281.8</ele>
        <time>2024-09-19T08:38:08Z</time>
      </trkpt>
      <trkpt lat="45.90198" lon="5.16728">
        <ele>281.6</ele>
        <time>2024-09-19T08:38:09Z</time>
      </trkpt>
      <trkpt lat="45.90198" lon="5.16733">
        <ele>282</ele>
        <time>2024-09-19T08:38:10Z</time>
      </trkpt>
      <trkpt lat="45.90198" lon="5.16738">
        <ele>282</ele>
        <time>2024-09-19T08:38:11Z</time>
      </trkpt>
      <trkpt lat="45.90197" lon="5.16742">
        <ele>282.2</ele>
        <time>2024-09-19T08:38:12Z</time>
      </trkpt>
      <trkpt lat="45.90197" lon="5.16747">
        <ele>282.4</ele>
        <time>2024-09-19T08:38:13Z</time>
      </trkpt>
      <trkpt lat="45.90197" lon="5.16752">
        <ele>282.4</ele>
        <time>2024-09-19T08:38:14Z</time>
      </trkpt>
      <trkpt lat="45.90197" lon="5.16757">
        <ele>282.4</ele>
        <time>2024-09-19T08:38:15Z</time>
      </trkpt>
      <trkpt lat="45.90197" lon="5.16762">
        <ele>282.4</ele>
        <time>2024-09-19T08:38:16Z</time>
      </trkpt>
      <trkpt lat="45.90197" lon="5.16767">
        <ele>282.4</ele>
        <time>2024-09-19T08:38:17Z</time>
      </trkpt>
      <trkpt lat="45.90198" lon="5.16773">
        <ele>282.8</ele>
        <time>2024-09-19T08:38:18Z</time>
      </trkpt>
      <trkpt lat="45.90198" lon="5.16778">
        <ele>283.2</ele>
        <time>2024-09-19T08:38:19Z</time>
      </trkpt>
      <trkpt lat="45.90199" lon="5.16783">
        <ele>283.2</ele>
        <time>2024-09-19T08:38:20Z</time>
      </trkpt>
      <trkpt lat="45.902" lon="5.16789">
        <ele>283.2</ele>
        <time>2024-09-19T08:38:21Z</time>
      </trkpt>
      <trkpt lat="45.90201" lon="5.16795">
        <ele>283.2</ele>
        <time>2024-09-19T08:38:22Z</time>
      </trkpt>
      <trkpt lat="45.90202" lon="5.168">
        <ele>282.8</ele>
        <time>2024-09-19T08:38:23Z</time>
      </trkpt>
      <trkpt lat="45.90204" lon="5.16806">
        <ele>282.6</ele>
        <time>2024-09-19T08:38:24Z</time>
      </trkpt>
      <trkpt lat="45.90206" lon="5.16811">
        <ele>282.6</ele>
        <time>2024-09-19T08:38:25Z</time>
      </trkpt>
      <trkpt lat="45.90208" lon="5.16816">
        <ele>282.6</ele>
        <time>2024-09-19T08:38:26Z</time>
      </trkpt>
      <trkpt lat="45.9021" lon="5.16821">
        <ele>282.6</ele>
        <time>2024-09-19T08:38:27Z</time>
      </trkpt>
      <trkpt lat="45.90212" lon="5.16826">
        <ele>283</ele>
        <time>2024-09-19T08:38:28Z</time>
      </trkpt>
      <trkpt lat="45.90215" lon="5.1683">
        <ele>283</ele>
        <time>2024-09-19T08:38:29Z</time>
      </trkpt>
      <trkpt lat="45.90217" lon="5.16835">
        <ele>283.4</ele>
        <time>2024-09-19T08:38:30Z</time>
      </trkpt>
      <trkpt lat="45.90219" lon="5.1684">
        <ele>283.4</ele>
        <time>2024-09-19T08:38:31Z</time>
      </trkpt>
      <trkpt lat="45.9022" lon="5.16844">
        <ele>283.8</ele>
        <time>2024-09-19T08:38:32Z</time>
      </trkpt>
      <trkpt lat="45.90221" lon="5.16849">
        <ele>283.8</ele>
        <time>2024-09-19T08:38:33Z</time>
      </trkpt>
      <trkpt lat="45.90222" lon="5.16853">
        <ele>284</ele>
        <time>2024-09-19T08:38:34Z</time>
      </trkpt>
      <trkpt lat="45.90223" lon="5.16857">
        <ele>284.4</ele>
        <time>2024-09-19T08:38:35Z</time>
      </trkpt>
      <trkpt lat="45.90224" lon="5.16861">
        <ele>284.8</ele>
        <time>2024-09-19T08:38:36Z</time>
      </trkpt>
      <trkpt lat="45.90226" lon="5.16864">
        <ele>284.8</ele>
        <time>2024-09-19T08:38:37Z</time>
      </trkpt>
      <trkpt lat="45.90228" lon="5.16869">
        <ele>284.8</ele>
        <time>2024-09-19T08:38:38Z</time>
      </trkpt>
      <trkpt lat="45.90229" lon="5.16873">
        <ele>285</ele>
        <time>2024-09-19T08:38:39Z</time>
      </trkpt>
      <trkpt lat="45.9023" lon="5.16878">
        <ele>285</ele>
        <time>2024-09-19T08:38:40Z</time>
      </trkpt>
      <trkpt lat="45.90231" lon="5.16883">
        <ele>285</ele>
        <time>2024-09-19T08:38:41Z</time>
      </trkpt>
      <trkpt lat="45.90232" lon="5.16889">
        <ele>285</ele>
        <time>2024-09-19T08:38:42Z</time>
      </trkpt>
      <trkpt lat="45.90232" lon="5.16894">
        <ele>285.4</ele>
        <time>2024-09-19T08:38:43Z</time>
      </trkpt>
      <trkpt lat="45.90232" lon="5.16899">
        <ele>285.4</ele>
        <time>2024-09-19T08:38:44Z</time>
      </trkpt>
      <trkpt lat="45.90233" lon="5.16905">
        <ele>285.6</ele>
        <time>2024-09-19T08:38:45Z</time>
      </trkpt>
      <trkpt lat="45.90234" lon="5.1691">
        <ele>285.8</ele>
        <time>2024-09-19T08:38:46Z</time>
      </trkpt>
      <trkpt lat="45.90235" lon="5.16914">
        <ele>285.8</ele>
        <time>2024-09-19T08:38:47Z</time>
      </trkpt>
      <trkpt lat="45.90235" lon="5.16919">
        <ele>285.8</ele>
        <time>2024-09-19T08:38:48Z</time>
      </trkpt>
      <trkpt lat="45.90236" lon="5.16924">
        <ele>286.2</ele>
        <time>2024-09-19T08:38:49Z</time>
      </trkpt>
      <trkpt lat="45.90237" lon="5.16929">
        <ele>286.2</ele>
        <time>2024-09-19T08:38:50Z</time>
      </trkpt>
      <trkpt lat="45.90239" lon="5.16934">
        <ele>286.4</ele>
        <time>2024-09-19T08:38:51Z</time>
      </trkpt>
      <trkpt lat="45.9024" lon="5.16939">
        <ele>286.4</ele>
        <time>2024-09-19T08:38:52Z</time>
      </trkpt>
      <trkpt lat="45.90242" lon="5.16945">
        <ele>286.4</ele>
        <time>2024-09-19T08:38:53Z</time>
      </trkpt>
      <trkpt lat="45.90243" lon="5.1695">
        <ele>286.6</ele>
        <time>2024-09-19T08:38:54Z</time>
      </trkpt>
      <trkpt lat="45.90245" lon="5.16955">
        <ele>286.6</ele>
        <time>2024-09-19T08:38:55Z</time>
      </trkpt>
      <trkpt lat="45.90248" lon="5.1696">
        <ele>286.6</ele>
        <time>2024-09-19T08:38:56Z</time>
      </trkpt>
      <trkpt lat="45.9025" lon="5.16965">
        <ele>286.4</ele>
        <time>2024-09-19T08:38:57Z</time>
      </trkpt>
      <trkpt lat="45.90253" lon="5.16971">
        <ele>286.4</ele>
        <time>2024-09-19T08:38:58Z</time>
      </trkpt>
      <trkpt lat="45.90255" lon="5.16977">
        <ele>286.2</ele>
        <time>2024-09-19T08:38:59Z</time>
      </trkpt>
      <trkpt lat="45.90258" lon="5.16983">
        <ele>286.2</ele>
        <time>2024-09-19T08:39:00Z</time>
      </trkpt>
      <trkpt lat="45.9026" lon="5.16988">
        <ele>286.2</ele>
        <time>2024-09-19T08:39:01Z</time>
      </trkpt>
      <trkpt lat="45.90263" lon="5.16995">
        <ele>286.2</ele>
        <time>2024-09-19T08:39:02Z</time>
      </trkpt>
      <trkpt lat="45.90265" lon="5.17002">
        <ele>286.2</ele>
        <time>2024-09-19T08:39:03Z</time>
      </trkpt>
      <trkpt lat="45.90268" lon="5.17009">
        <ele>285.6</ele>
        <time>2024-09-19T08:39:04Z</time>
      </trkpt>
      <trkpt lat="45.90271" lon="5.17016">
        <ele>285.4</ele>
        <time>2024-09-19T08:39:05Z</time>
      </trkpt>
      <trkpt lat="45.90274" lon="5.17022">
        <ele>285.4</ele>
        <time>2024-09-19T08:39:06Z</time>
      </trkpt>
      <trkpt lat="45.90277" lon="5.1703">
        <ele>285.4</ele>
        <time>2024-09-19T08:39:07Z</time>
      </trkpt>
      <trkpt lat="45.90279" lon="5.17037">
        <ele>285.4</ele>
        <time>2024-09-19T08:39:08Z</time>
      </trkpt>
      <trkpt lat="45.90282" lon="5.17044">
        <ele>285.2</ele>
        <time>2024-09-19T08:39:09Z</time>
      </trkpt>
      <trkpt lat="45.90285" lon="5.1705">
        <ele>285.2</ele>
        <time>2024-09-19T08:39:10Z</time>
      </trkpt>
      <trkpt lat="45.90288" lon="5.17057">
        <ele>285.2</ele>
        <time>2024-09-19T08:39:11Z</time>
      </trkpt>
      <trkpt lat="45.90292" lon="5.17062">
        <ele>285.2</ele>
        <time>2024-09-19T08:39:12Z</time>
      </trkpt>
      <trkpt lat="45.90295" lon="5.17068">
        <ele>285.2</ele>
        <time>2024-09-19T08:39:13Z</time>
      </trkpt>
      <trkpt lat="45.90299" lon="5.17072">
        <ele>285.2</ele>
        <time>2024-09-19T08:39:14Z</time>
      </trkpt>
      <trkpt lat="45.90303" lon="5.17076">
        <ele>285.2</ele>
        <time>2024-09-19T08:39:15Z</time>
      </trkpt>
      <trkpt lat="45.90308" lon="5.17079">
        <ele>285.2</ele>
        <time>2024-09-19T08:39:16Z</time>
      </trkpt>
      <trkpt lat="45.90313" lon="5.17083">
        <ele>284.8</ele>
        <time>2024-09-19T08:39:17Z</time>
      </trkpt>
      <trkpt lat="45.90318" lon="5.17086">
        <ele>284.8</ele>
        <time>2024-09-19T08:39:18Z</time>
      </trkpt>
      <trkpt lat="45.90323" lon="5.17089">
        <ele>284.8</ele>
        <time>2024-09-19T08:39:19Z</time>
      </trkpt>
      <trkpt lat="45.90328" lon="5.17092">
        <ele>284.8</ele>
        <time>2024-09-19T08:39:20Z</time>
      </trkpt>
      <trkpt lat="45.90333" lon="5.17096">
        <ele>284.8</ele>
        <time>2024-09-19T08:39:21Z</time>
      </trkpt>
      <trkpt lat="45.90338" lon="5.171">
        <ele>284.4</ele>
        <time>2024-09-19T08:39:22Z</time>
      </trkpt>
      <trkpt lat="45.90343" lon="5.17105">
        <ele>284.4</ele>
        <time>2024-09-19T08:39:23Z</time>
      </trkpt>
      <trkpt lat="45.90348" lon="5.1711">
        <ele>284.2</ele>
        <time>2024-09-19T08:39:24Z</time>
      </trkpt>
      <trkpt lat="45.90348" lon="5.1711">
        <ele>284.2</ele>
        <time>2024-09-19T08:39:25Z</time>
      </trkpt>
      <trkpt lat="45.90353" lon="5.17114">
        <ele>284</ele>
        <time>2024-09-19T08:39:26Z</time>
      </trkpt>
      <trkpt lat="45.90357" lon="5.17119">
        <ele>284</ele>
        <time>2024-09-19T08:39:27Z</time>
      </trkpt>
      <trkpt lat="45.90362" lon="5.17123">
        <ele>284</ele>
        <time>2024-09-19T08:39:28Z</time>
      </trkpt>
      <trkpt lat="45.90366" lon="5.17128">
        <ele>284.2</ele>
        <time>2024-09-19T08:39:29Z</time>
      </trkpt>
      <trkpt lat="45.9037" lon="5.17133">
        <ele>284.2</ele>
        <time>2024-09-19T08:39:30Z</time>
      </trkpt>
      <trkpt lat="45.90374" lon="5.17138">
        <ele>284.2</ele>
        <time>2024-09-19T08:39:31Z</time>
      </trkpt>
      <trkpt lat="45.9038" lon="5.17147">
        <ele>284.2</ele>
        <time>2024-09-19T08:39:32Z</time>
      </trkpt>
      <trkpt lat="45.90384" lon="5.17152">
        <ele>284.2</ele>
        <time>2024-09-19T08:39:33Z</time>
      </trkpt>
      <trkpt lat="45.90387" lon="5.17156">
        <ele>284.6</ele>
        <time>2024-09-19T08:39:34Z</time>
      </trkpt>
      <trkpt lat="45.9039" lon="5.17161">
        <ele>284.6</ele>
        <time>2024-09-19T08:39:35Z</time>
      </trkpt>
      <trkpt lat="45.90393" lon="5.17166">
        <ele>284.6</ele>
        <time>2024-09-19T08:39:36Z</time>
      </trkpt>
      <trkpt lat="45.90396" lon="5.1717">
        <ele>284.2</ele>
        <time>2024-09-19T08:39:37Z</time>
      </trkpt>
      <trkpt lat="45.90398" lon="5.17175">
        <ele>284.2</ele>
        <time>2024-09-19T08:39:38Z</time>
      </trkpt>
      <trkpt lat="45.90401" lon="5.1718">
        <ele>284</ele>
        <time>2024-09-19T08:39:39Z</time>
      </trkpt>
      <trkpt lat="45.90403" lon="5.17184">
        <ele>283.8</ele>
        <time>2024-09-19T08:39:40Z</time>
      </trkpt>
      <trkpt lat="45.90405" lon="5.17189">
        <ele>283.8</ele>
        <time>2024-09-19T08:39:41Z</time>
      </trkpt>
      <trkpt lat="45.90408" lon="5.17194">
        <ele>283.8</ele>
        <time>2024-09-19T08:39:42Z</time>
      </trkpt>
      <trkpt lat="45.9041" lon="5.172">
        <ele>283.8</ele>
        <time>2024-09-19T08:39:43Z</time>
      </trkpt>
      <trkpt lat="45.90413" lon="5.17205">
        <ele>283.4</ele>
        <time>2024-09-19T08:39:44Z</time>
      </trkpt>
      <trkpt lat="45.90416" lon="5.1721">
        <ele>283.4</ele>
        <time>2024-09-19T08:39:45Z</time>
      </trkpt>
      <trkpt lat="45.90419" lon="5.17216">
        <ele>283.2</ele>
        <time>2024-09-19T08:39:46Z</time>
      </trkpt>
      <trkpt lat="45.90422" lon="5.17221">
        <ele>283.2</ele>
        <time>2024-09-19T08:39:47Z</time>
      </trkpt>
      <trkpt lat="45.90425" lon="5.17227">
        <ele>283.2</ele>
        <time>2024-09-19T08:39:48Z</time>
      </trkpt>
      <trkpt lat="45.90428" lon="5.17233">
        <ele>282.8</ele>
        <time>2024-09-19T08:39:49Z</time>
      </trkpt>
      <trkpt lat="45.90431" lon="5.17239">
        <ele>282.8</ele>
        <time>2024-09-19T08:39:50Z</time>
      </trkpt>
      <trkpt lat="45.90434" lon="5.17245">
        <ele>282.4</ele>
        <time>2024-09-19T08:39:51Z</time>
      </trkpt>
      <trkpt lat="45.90437" lon="5.17251">
        <ele>282.4</ele>
        <time>2024-09-19T08:39:52Z</time>
      </trkpt>
      <trkpt lat="45.90441" lon="5.17257">
        <ele>282.2</ele>
        <time>2024-09-19T08:39:53Z</time>
      </trkpt>
      <trkpt lat="45.90444" lon="5.17262">
        <ele>282</ele>
        <time>2024-09-19T08:39:54Z</time>
      </trkpt>
      <trkpt lat="45.90447" lon="5.17268">
        <ele>281.8</ele>
        <time>2024-09-19T08:39:55Z</time>
      </trkpt>
      <trkpt lat="45.90451" lon="5.17274">
        <ele>281.8</ele>
        <time>2024-09-19T08:39:56Z</time>
      </trkpt>
      <trkpt lat="45.90454" lon="5.17281">
        <ele>281.4</ele>
        <time>2024-09-19T08:39:57Z</time>
      </trkpt>
      <trkpt lat="45.90457" lon="5.17286">
        <ele>281</ele>
        <time>2024-09-19T08:39:58Z</time>
      </trkpt>
      <trkpt lat="45.9046" lon="5.17292">
        <ele>281</ele>
        <time>2024-09-19T08:39:59Z</time>
      </trkpt>
      <trkpt lat="45.90462" lon="5.17297">
        <ele>280.8</ele>
        <time>2024-09-19T08:40:00Z</time>
      </trkpt>
      <trkpt lat="45.90465" lon="5.17303">
        <ele>280.4</ele>
        <time>2024-09-19T08:40:01Z</time>
      </trkpt>
      <trkpt lat="45.90468" lon="5.17308">
        <ele>280.2</ele>
        <time>2024-09-19T08:40:02Z</time>
      </trkpt>
      <trkpt lat="45.90471" lon="5.17315">
        <ele>280.2</ele>
        <time>2024-09-19T08:40:03Z</time>
      </trkpt>
      <trkpt lat="45.90475" lon="5.1732">
        <ele>280.2</ele>
        <time>2024-09-19T08:40:04Z</time>
      </trkpt>
      <trkpt lat="45.90478" lon="5.17326">
        <ele>279.8</ele>
        <time>2024-09-19T08:40:05Z</time>
      </trkpt>
      <trkpt lat="45.90481" lon="5.17331">
        <ele>279.8</ele>
        <time>2024-09-19T08:40:06Z</time>
      </trkpt>
      <trkpt lat="45.90484" lon="5.17336">
        <ele>279.8</ele>
        <time>2024-09-19T08:40:07Z</time>
      </trkpt>
      <trkpt lat="45.90487" lon="5.1734">
        <ele>279.8</ele>
        <time>2024-09-19T08:40:08Z</time>
      </trkpt>
      <trkpt lat="45.9049" lon="5.17344">
        <ele>280</ele>
        <time>2024-09-19T08:40:09Z</time>
      </trkpt>
      <trkpt lat="45.90492" lon="5.17348">
        <ele>280</ele>
        <time>2024-09-19T08:40:10Z</time>
      </trkpt>
      <trkpt lat="45.90495" lon="5.17352">
        <ele>280</ele>
        <time>2024-09-19T08:40:11Z</time>
      </trkpt>
      <trkpt lat="45.90497" lon="5.17355">
        <ele>280</ele>
        <time>2024-09-19T08:40:12Z</time>
      </trkpt>
      <trkpt lat="45.90498" lon="5.17357">
        <ele>280.2</ele>
        <time>2024-09-19T08:40:13Z</time>
      </trkpt>
      <trkpt lat="45.90499" lon="5.17358">
        <ele>280.4</ele>
        <time>2024-09-19T08:40:14Z</time>
      </trkpt>
      <trkpt lat="45.90499" lon="5.17359">
        <ele>280.4</ele>
        <time>2024-09-19T08:40:15Z</time>
      </trkpt>
      <trkpt lat="45.905" lon="5.17359">
        <ele>280.2</ele>
        <time>2024-09-19T08:40:16Z</time>
      </trkpt>
      <trkpt lat="45.905" lon="5.17359">
        <ele>280.4</ele>
        <time>2024-09-19T08:40:17Z</time>
      </trkpt>
      <trkpt lat="45.90503" lon="5.1736">
        <ele>280.4</ele>
        <time>2024-09-19T08:40:26Z</time>
      </trkpt>
      <trkpt lat="45.90504" lon="5.1736">
        <ele>280.4</ele>
        <time>2024-09-19T08:40:27Z</time>
      </trkpt>
      <trkpt lat="45.90507" lon="5.17362">
        <ele>280.4</ele>
        <time>2024-09-19T08:40:28Z</time>
      </trkpt>
      <trkpt lat="45.9051" lon="5.17365">
        <ele>280.4</ele>
        <time>2024-09-19T08:40:29Z</time>
      </trkpt>
      <trkpt lat="45.90512" lon="5.17369">
        <ele>280</ele>
        <time>2024-09-19T08:40:30Z</time>
      </trkpt>
      <trkpt lat="45.90515" lon="5.17374">
        <ele>280</ele>
        <time>2024-09-19T08:40:31Z</time>
      </trkpt>
      <trkpt lat="45.90519" lon="5.17377">
        <ele>279.6</ele>
        <time>2024-09-19T08:40:32Z</time>
      </trkpt>
      <trkpt lat="45.90523" lon="5.17381">
        <ele>279.6</ele>
        <time>2024-09-19T08:40:33Z</time>
      </trkpt>
      <trkpt lat="45.90527" lon="5.17384">
        <ele>279.2</ele>
        <time>2024-09-19T08:40:34Z</time>
      </trkpt>
      <trkpt lat="45.90531" lon="5.17388">
        <ele>279</ele>
        <time>2024-09-19T08:40:35Z</time>
      </trkpt>
      <trkpt lat="45.90537" lon="5.17392">
        <ele>278.6</ele>
        <time>2024-09-19T08:40:36Z</time>
      </trkpt>
      <trkpt lat="45.90541" lon="5.17395">
        <ele>278.4</ele>
        <time>2024-09-19T08:40:37Z</time>
      </trkpt>
      <trkpt lat="45.90545" lon="5.17398">
        <ele>278</ele>
        <time>2024-09-19T08:40:38Z</time>
      </trkpt>
      <trkpt lat="45.90548" lon="5.17401">
        <ele>278</ele>
        <time>2024-09-19T08:40:39Z</time>
      </trkpt>
      <trkpt lat="45.90549" lon="5.17403">
        <ele>277.6</ele>
        <time>2024-09-19T08:40:40Z</time>
      </trkpt>
      <trkpt lat="45.9055" lon="5.17405">
        <ele>277.6</ele>
        <time>2024-09-19T08:40:41Z</time>
      </trkpt>
      <trkpt lat="45.90551" lon="5.17406">
        <ele>277.4</ele>
        <time>2024-09-19T08:40:42Z</time>
      </trkpt>
      <trkpt lat="45.90551" lon="5.17406">
        <ele>277.4</ele>
        <time>2024-09-19T08:40:43Z</time>
      </trkpt>
      <trkpt lat="45.90551" lon="5.17406">
        <ele>277</ele>
        <time>2024-09-19T08:40:44Z</time>
      </trkpt>
      <trkpt lat="45.90551" lon="5.17407">
        <ele>277</ele>
        <time>2024-09-19T08:40:45Z</time>
      </trkpt>
      <trkpt lat="45.90553" lon="5.17413">
        <ele>276.8</ele>
        <time>2024-09-19T08:40:55Z</time>
      </trkpt>
      <trkpt lat="45.90555" lon="5.17416">
        <ele>276.8</ele>
        <time>2024-09-19T08:40:56Z</time>
      </trkpt>
      <trkpt lat="45.90557" lon="5.17419">
        <ele>276.8</ele>
        <time>2024-09-19T08:40:57Z</time>
      </trkpt>
      <trkpt lat="45.90561" lon="5.17422">
        <ele>276.8</ele>
        <time>2024-09-19T08:40:58Z</time>
      </trkpt>
      <trkpt lat="45.90564" lon="5.17424">
        <ele>276.8</ele>
        <time>2024-09-19T08:40:59Z</time>
      </trkpt>
      <trkpt lat="45.90568" lon="5.17426">
        <ele>276.6</ele>
        <time>2024-09-19T08:41:00Z</time>
      </trkpt>
      <trkpt lat="45.90571" lon="5.17428">
        <ele>276.6</ele>
        <time>2024-09-19T08:41:01Z</time>
      </trkpt>
      <trkpt lat="45.90575" lon="5.1743">
        <ele>276.8</ele>
        <time>2024-09-19T08:41:02Z</time>
      </trkpt>
      <trkpt lat="45.90579" lon="5.17433">
        <ele>276.8</ele>
        <time>2024-09-19T08:41:03Z</time>
      </trkpt>
      <trkpt lat="45.90583" lon="5.17437">
        <ele>276.8</ele>
        <time>2024-09-19T08:41:04Z</time>
      </trkpt>
      <trkpt lat="45.90588" lon="5.17441">
        <ele>276.4</ele>
        <time>2024-09-19T08:41:05Z</time>
      </trkpt>
      <trkpt lat="45.90593" lon="5.17445">
        <ele>276.2</ele>
        <time>2024-09-19T08:41:06Z</time>
      </trkpt>
      <trkpt lat="45.90598" lon="5.1745">
        <ele>275.8</ele>
        <time>2024-09-19T08:41:07Z</time>
      </trkpt>
      <trkpt lat="45.90604" lon="5.17455">
        <ele>275.2</ele>
        <time>2024-09-19T08:41:08Z</time>
      </trkpt>
      <trkpt lat="45.9061" lon="5.1746">
        <ele>274.8</ele>
        <time>2024-09-19T08:41:09Z</time>
      </trkpt>
      <trkpt lat="45.90616" lon="5.17465">
        <ele>274.4</ele>
        <time>2024-09-19T08:41:10Z</time>
      </trkpt>
      <trkpt lat="45.9062" lon="5.17472">
        <ele>274</ele>
        <time>2024-09-19T08:41:11Z</time>
      </trkpt>
      <trkpt lat="45.90621" lon="5.17479">
        <ele>273.6</ele>
        <time>2024-09-19T08:41:12Z</time>
      </trkpt>
      <trkpt lat="45.90621" lon="5.17487">
        <ele>273.2</ele>
        <time>2024-09-19T08:41:13Z</time>
      </trkpt>
      <trkpt lat="45.90618" lon="5.17494">
        <ele>272.8</ele>
        <time>2024-09-19T08:41:14Z</time>
      </trkpt>
      <trkpt lat="45.90613" lon="5.17501">
        <ele>272.4</ele>
        <time>2024-09-19T08:41:15Z</time>
      </trkpt>
      <trkpt lat="45.90608" lon="5.17506">
        <ele>271.8</ele>
        <time>2024-09-19T08:41:16Z</time>
      </trkpt>
      <trkpt lat="45.90602" lon="5.17511">
        <ele>271.4</ele>
        <time>2024-09-19T08:41:17Z</time>
      </trkpt>
      <trkpt lat="45.90596" lon="5.17515">
        <ele>271</ele>
        <time>2024-09-19T08:41:18Z</time>
      </trkpt>
      <trkpt lat="45.90591" lon="5.1752">
        <ele>271</ele>
        <time>2024-09-19T08:41:19Z</time>
      </trkpt>
      <trkpt lat="45.90585" lon="5.17525">
        <ele>270.6</ele>
        <time>2024-09-19T08:41:20Z</time>
      </trkpt>
      <trkpt lat="45.9058" lon="5.1753">
        <ele>270.4</ele>
        <time>2024-09-19T08:41:21Z</time>
      </trkpt>
      <trkpt lat="45.90576" lon="5.17536">
        <ele>270.4</ele>
        <time>2024-09-19T08:41:22Z</time>
      </trkpt>
      <trkpt lat="45.90571" lon="5.17541">
        <ele>270.4</ele>
        <time>2024-09-19T08:41:23Z</time>
      </trkpt>
      <trkpt lat="45.90566" lon="5.17546">
        <ele>270.8</ele>
        <time>2024-09-19T08:41:24Z</time>
      </trkpt>
      <trkpt lat="45.90563" lon="5.17552">
        <ele>271</ele>
        <time>2024-09-19T08:41:25Z</time>
      </trkpt>
      <trkpt lat="45.90559" lon="5.17558">
        <ele>271.4</ele>
        <time>2024-09-19T08:41:26Z</time>
      </trkpt>
      <trkpt lat="45.90556" lon="5.17564">
        <ele>271.6</ele>
        <time>2024-09-19T08:41:27Z</time>
      </trkpt>
      <trkpt lat="45.90553" lon="5.17569">
        <ele>271.8</ele>
        <time>2024-09-19T08:41:28Z</time>
      </trkpt>
      <trkpt lat="45.90549" lon="5.17575">
        <ele>272.2</ele>
        <time>2024-09-19T08:41:29Z</time>
      </trkpt>
      <trkpt lat="45.90546" lon="5.17582">
        <ele>272.4</ele>
        <time>2024-09-19T08:41:30Z</time>
      </trkpt>
      <trkpt lat="45.90542" lon="5.17587">
        <ele>272.6</ele>
        <time>2024-09-19T08:41:31Z</time>
      </trkpt>
      <trkpt lat="45.90539" lon="5.17593">
        <ele>273.2</ele>
        <time>2024-09-19T08:41:32Z</time>
      </trkpt>
      <trkpt lat="45.90536" lon="5.17599">
        <ele>273.4</ele>
        <time>2024-09-19T08:41:33Z</time>
      </trkpt>
      <trkpt lat="45.90534" lon="5.17604">
        <ele>273.6</ele>
        <time>2024-09-19T08:41:34Z</time>
      </trkpt>
      <trkpt lat="45.90531" lon="5.1761">
        <ele>273.6</ele>
        <time>2024-09-19T08:41:35Z</time>
      </trkpt>
      <trkpt lat="45.90528" lon="5.17615">
        <ele>273.6</ele>
        <time>2024-09-19T08:41:36Z</time>
      </trkpt>
      <trkpt lat="45.90525" lon="5.1762">
        <ele>274</ele>
        <time>2024-09-19T08:41:37Z</time>
      </trkpt>
      <trkpt lat="45.90522" lon="5.17626">
        <ele>274</ele>
        <time>2024-09-19T08:41:38Z</time>
      </trkpt>
      <trkpt lat="45.9052" lon="5.17632">
        <ele>274.4</ele>
        <time>2024-09-19T08:41:39Z</time>
      </trkpt>
      <trkpt lat="45.90516" lon="5.17636">
        <ele>274.4</ele>
        <time>2024-09-19T08:41:40Z</time>
      </trkpt>
      <trkpt lat="45.90512" lon="5.17642">
        <ele>274.6</ele>
        <time>2024-09-19T08:41:41Z</time>
      </trkpt>
      <trkpt lat="45.90509" lon="5.17646">
        <ele>275</ele>
        <time>2024-09-19T08:41:42Z</time>
      </trkpt>
      <trkpt lat="45.90506" lon="5.17651">
        <ele>275</ele>
        <time>2024-09-19T08:41:43Z</time>
      </trkpt>
      <trkpt lat="45.90502" lon="5.17655">
        <ele>275.2</ele>
        <time>2024-09-19T08:41:44Z</time>
      </trkpt>
      <trkpt lat="45.90498" lon="5.17659">
        <ele>275.2</ele>
        <time>2024-09-19T08:41:45Z</time>
      </trkpt>
      <trkpt lat="45.90493" lon="5.17663">
        <ele>275.2</ele>
        <time>2024-09-19T08:41:46Z</time>
      </trkpt>
      <trkpt lat="45.9049" lon="5.17666">
        <ele>274.8</ele>
        <time>2024-09-19T08:41:47Z</time>
      </trkpt>
      <trkpt lat="45.90486" lon="5.1767">
        <ele>275.2</ele>
        <time>2024-09-19T08:41:48Z</time>
      </trkpt>
      <trkpt lat="45.90482" lon="5.17673">
        <ele>275.4</ele>
        <time>2024-09-19T08:41:49Z</time>
      </trkpt>
      <trkpt lat="45.90478" lon="5.17677">
        <ele>275.4</ele>
        <time>2024-09-19T08:41:50Z</time>
      </trkpt>
      <trkpt lat="45.90474" lon="5.17681">
        <ele>275.8</ele>
        <time>2024-09-19T08:41:51Z</time>
      </trkpt>
      <trkpt lat="45.9047" lon="5.17684">
        <ele>275.8</ele>
        <time>2024-09-19T08:41:52Z</time>
      </trkpt>
      <trkpt lat="45.90465" lon="5.17687">
        <ele>275.8</ele>
        <time>2024-09-19T08:41:53Z</time>
      </trkpt>
      <trkpt lat="45.90461" lon="5.1769">
        <ele>275.8</ele>
        <time>2024-09-19T08:41:54Z</time>
      </trkpt>
      <trkpt lat="45.90456" lon="5.17693">
        <ele>275.8</ele>
        <time>2024-09-19T08:41:55Z</time>
      </trkpt>
      <trkpt lat="45.90451" lon="5.17696">
        <ele>275.8</ele>
        <time>2024-09-19T08:41:56Z</time>
      </trkpt>
      <trkpt lat="45.90446" lon="5.17698">
        <ele>275.8</ele>
        <time>2024-09-19T08:41:57Z</time>
      </trkpt>
      <trkpt lat="45.90441" lon="5.17699">
        <ele>275.8</ele>
        <time>2024-09-19T08:41:58Z</time>
      </trkpt>
      <trkpt lat="45.90436" lon="5.17701">
        <ele>275.6</ele>
        <time>2024-09-19T08:41:59Z</time>
      </trkpt>
      <trkpt lat="45.90431" lon="5.17701">
        <ele>275.2</ele>
        <time>2024-09-19T08:42:00Z</time>
      </trkpt>
      <trkpt lat="45.90425" lon="5.17701">
        <ele>274.8</ele>
        <time>2024-09-19T08:42:01Z</time>
      </trkpt>
      <trkpt lat="45.9042" lon="5.17701">
        <ele>274.8</ele>
        <time>2024-09-19T08:42:02Z</time>
      </trkpt>
      <trkpt lat="45.90415" lon="5.177">
        <ele>274.6</ele>
        <time>2024-09-19T08:42:03Z</time>
      </trkpt>
      <trkpt lat="45.90409" lon="5.177">
        <ele>274.6</ele>
        <time>2024-09-19T08:42:04Z</time>
      </trkpt>
      <trkpt lat="45.90404" lon="5.17701">
        <ele>274.4</ele>
        <time>2024-09-19T08:42:05Z</time>
      </trkpt>
      <trkpt lat="45.904" lon="5.17701">
        <ele>274.4</ele>
        <time>2024-09-19T08:42:06Z</time>
      </trkpt>
      <trkpt lat="45.90396" lon="5.17703">
        <ele>274.4</ele>
        <time>2024-09-19T08:42:07Z</time>
      </trkpt>
      <trkpt lat="45.90393" lon="5.17705">
        <ele>274.4</ele>
        <time>2024-09-19T08:42:08Z</time>
      </trkpt>
      <trkpt lat="45.9039" lon="5.17706">
        <ele>274.4</ele>
        <time>2024-09-19T08:42:09Z</time>
      </trkpt>
      <trkpt lat="45.90389" lon="5.17712">
        <ele>274.2</ele>
        <time>2024-09-19T08:42:10Z</time>
      </trkpt>
      <trkpt lat="45.90388" lon="5.17718">
        <ele>274.2</ele>
        <time>2024-09-19T08:42:11Z</time>
      </trkpt>
      <trkpt lat="45.90386" lon="5.17722">
        <ele>274.2</ele>
        <time>2024-09-19T08:42:12Z</time>
      </trkpt>
      <trkpt lat="45.90385" lon="5.17728">
        <ele>273.8</ele>
        <time>2024-09-19T08:42:13Z</time>
      </trkpt>
      <trkpt lat="45.90383" lon="5.17732">
        <ele>273.8</ele>
        <time>2024-09-19T08:42:14Z</time>
      </trkpt>
      <trkpt lat="45.90381" lon="5.17737">
        <ele>273.8</ele>
        <time>2024-09-19T08:42:15Z</time>
      </trkpt>
      <trkpt lat="45.90381" lon="5.17742">
        <ele>273.8</ele>
        <time>2024-09-19T08:42:16Z</time>
      </trkpt>
      <trkpt lat="45.9038" lon="5.17746">
        <ele>273.4</ele>
        <time>2024-09-19T08:42:17Z</time>
      </trkpt>
      <trkpt lat="45.9038" lon="5.17749">
        <ele>273.4</ele>
        <time>2024-09-19T08:42:18Z</time>
      </trkpt>
      <trkpt lat="45.90378" lon="5.17752">
        <ele>273.4</ele>
        <time>2024-09-19T08:42:19Z</time>
      </trkpt>
      <trkpt lat="45.90379" lon="5.17755">
        <ele>273.8</ele>
        <time>2024-09-19T08:42:20Z</time>
      </trkpt>
      <trkpt lat="45.9038" lon="5.17757">
        <ele>273.8</ele>
        <time>2024-09-19T08:42:21Z</time>
      </trkpt>
      <trkpt lat="45.90381" lon="5.17757">
        <ele>274</ele>
        <time>2024-09-19T08:42:22Z</time>
      </trkpt>
      <trkpt lat="45.90382" lon="5.17754">
        <ele>274</ele>
        <time>2024-09-19T08:42:23Z</time>
      </trkpt>
      <trkpt lat="45.90382" lon="5.17753">
        <ele>274.2</ele>
        <time>2024-09-19T08:42:24Z</time>
      </trkpt>
      <trkpt lat="45.90381" lon="5.1775">
        <ele>274.2</ele>
        <time>2024-09-19T08:42:25Z</time>
      </trkpt>
      <trkpt lat="45.9038" lon="5.17747">
        <ele>274.2</ele>
        <time>2024-09-19T08:42:26Z</time>
      </trkpt>
      <trkpt lat="45.90379" lon="5.17746">
        <ele>274.2</ele>
        <time>2024-09-19T08:42:27Z</time>
      </trkpt>
      <trkpt lat="45.90377" lon="5.17746">
        <ele>274.2</ele>
        <time>2024-09-19T08:42:28Z</time>
      </trkpt>
      <trkpt lat="45.90375" lon="5.17747">
        <ele>274.2</ele>
        <time>2024-09-19T08:42:29Z</time>
      </trkpt>
      <trkpt lat="45.90374" lon="5.1775">
        <ele>274.2</ele>
        <time>2024-09-19T08:42:30Z</time>
      </trkpt>
      <trkpt lat="45.90372" lon="5.17753">
        <ele>274.2</ele>
        <time>2024-09-19T08:42:31Z</time>
      </trkpt>
      <trkpt lat="45.90371" lon="5.17757">
        <ele>274.2</ele>
        <time>2024-09-19T08:42:32Z</time>
      </trkpt>
      <trkpt lat="45.9037" lon="5.17759">
        <ele>273.8</ele>
        <time>2024-09-19T08:42:33Z</time>
      </trkpt>
      <trkpt lat="45.90369" lon="5.1776">
        <ele>273.8</ele>
        <time>2024-09-19T08:42:34Z</time>
      </trkpt>
      <trkpt lat="45.90369" lon="5.1776">
        <ele>273.8</ele>
        <time>2024-09-19T08:42:35Z</time>
      </trkpt>
      <trkpt lat="45.90368" lon="5.1776">
        <ele>273.6</ele>
        <time>2024-09-19T08:42:36Z</time>
      </trkpt>
      <trkpt lat="45.90367" lon="5.1776">
        <ele>273.6</ele>
        <time>2024-09-19T08:42:37Z</time>
      </trkpt>
      <trkpt lat="45.90366" lon="5.1776">
        <ele>273.6</ele>
        <time>2024-09-19T08:42:38Z</time>
      </trkpt>
      <trkpt lat="45.90366" lon="5.17761">
        <ele>273.8</ele>
        <time>2024-09-19T08:42:39Z</time>
      </trkpt>
      <trkpt lat="45.90365" lon="5.17762">
        <ele>273.8</ele>
        <time>2024-09-19T08:42:40Z</time>
      </trkpt>
      <trkpt lat="45.90364" lon="5.17763">
        <ele>273.8</ele>
        <time>2024-09-19T08:42:41Z</time>
      </trkpt>
      <trkpt lat="45.90364" lon="5.17764">
        <ele>273.8</ele>
        <time>2024-09-19T08:42:42Z</time>
      </trkpt>
      <trkpt lat="45.90364" lon="5.17766">
        <ele>273.6</ele>
        <time>2024-09-19T08:42:43Z</time>
      </trkpt>
      <trkpt lat="45.90364" lon="5.17768">
        <ele>273.6</ele>
        <time>2024-09-19T08:42:44Z</time>
      </trkpt>
      <trkpt lat="45.90364" lon="5.17769">
        <ele>273.6</ele>
        <time>2024-09-19T08:42:45Z</time>
      </trkpt>
      <trkpt lat="45.90362" lon="5.17771">
        <ele>273.6</ele>
        <time>2024-09-19T08:42:46Z</time>
      </trkpt>
      <trkpt lat="45.9036" lon="5.17772">
        <ele>273.6</ele>
        <time>2024-09-19T08:42:47Z</time>
      </trkpt>
      <trkpt lat="45.9036" lon="5.17772">
        <ele>273.6</ele>
        <time>2024-09-19T08:42:48Z</time>
      </trkpt>
      <trkpt lat="45.90358" lon="5.17774">
        <ele>273.6</ele>
        <time>2024-09-19T08:42:49Z</time>
      </trkpt>
      <trkpt lat="45.90356" lon="5.17774">
        <ele>273.6</ele>
        <time>2024-09-19T08:42:50Z</time>
      </trkpt>
      <trkpt lat="45.90355" lon="5.17775">
        <ele>273.6</ele>
        <time>2024-09-19T08:42:51Z</time>
      </trkpt>
      <trkpt lat="45.90354" lon="5.17776">
        <ele>273.6</ele>
        <time>2024-09-19T08:42:52Z</time>
      </trkpt>
      <trkpt lat="45.90353" lon="5.17776">
        <ele>273.6</ele>
        <time>2024-09-19T08:42:53Z</time>
      </trkpt>
      <trkpt lat="45.90353" lon="5.17777">
        <ele>274</ele>
        <time>2024-09-19T08:42:54Z</time>
      </trkpt>
      <trkpt lat="45.90353" lon="5.17777">
        <ele>274</ele>
        <time>2024-09-19T08:42:55Z</time>
      </trkpt>
      <trkpt lat="45.90353" lon="5.17779">
        <ele>273.8</ele>
        <time>2024-09-19T08:42:56Z</time>
      </trkpt>
      <trkpt lat="45.90349" lon="5.17783">
        <ele>273.6</ele>
        <time>2024-09-19T08:42:57Z</time>
      </trkpt>
      <trkpt lat="45.90346" lon="5.17786">
        <ele>273.6</ele>
        <time>2024-09-19T08:42:58Z</time>
      </trkpt>
      <trkpt lat="45.90342" lon="5.17789">
        <ele>273.2</ele>
        <time>2024-09-19T08:42:59Z</time>
      </trkpt>
      <trkpt lat="45.90339" lon="5.17793">
        <ele>273.2</ele>
        <time>2024-09-19T08:43:00Z</time>
      </trkpt>
      <trkpt lat="45.90336" lon="5.17796">
        <ele>273</ele>
        <time>2024-09-19T08:43:01Z</time>
      </trkpt>
      <trkpt lat="45.90332" lon="5.17799">
        <ele>273</ele>
        <time>2024-09-19T08:43:02Z</time>
      </trkpt>
      <trkpt lat="45.90329" lon="5.17802">
        <ele>273.2</ele>
        <time>2024-09-19T08:43:03Z</time>
      </trkpt>
      <trkpt lat="45.90327" lon="5.17803">
        <ele>273.2</ele>
        <time>2024-09-19T08:43:04Z</time>
      </trkpt>
      <trkpt lat="45.90325" lon="5.17805">
        <ele>273.2</ele>
        <time>2024-09-19T08:43:05Z</time>
      </trkpt>
      <trkpt lat="45.90323" lon="5.17806">
        <ele>273.4</ele>
        <time>2024-09-19T08:43:06Z</time>
      </trkpt>
      <trkpt lat="45.90323" lon="5.17807">
        <ele>273.4</ele>
        <time>2024-09-19T08:43:07Z</time>
      </trkpt>
      <trkpt lat="45.90322" lon="5.17808">
        <ele>273.4</ele>
        <time>2024-09-19T08:43:08Z</time>
      </trkpt>
      <trkpt lat="45.90322" lon="5.17809">
        <ele>273.4</ele>
        <time>2024-09-19T08:43:09Z</time>
      </trkpt>
      <trkpt lat="45.90323" lon="5.17809">
        <ele>273.4</ele>
        <time>2024-09-19T08:43:10Z</time>
      </trkpt>
      <trkpt lat="45.90323" lon="5.17809">
        <ele>273.2</ele>
        <time>2024-09-19T08:43:11Z</time>
      </trkpt>
      <trkpt lat="45.90321" lon="5.17813">
        <ele>272.6</ele>
        <time>2024-09-19T08:43:39Z</time>
      </trkpt>
      <trkpt lat="45.90319" lon="5.17815">
        <ele>272.2</ele>
        <time>2024-09-19T08:43:40Z</time>
      </trkpt>
      <trkpt lat="45.90316" lon="5.17818">
        <ele>271.8</ele>
        <time>2024-09-19T08:43:41Z</time>
      </trkpt>
      <trkpt lat="45.90313" lon="5.17821">
        <ele>271.4</ele>
        <time>2024-09-19T08:43:42Z</time>
      </trkpt>
      <trkpt lat="45.90308" lon="5.17824">
        <ele>271</ele>
        <time>2024-09-19T08:43:43Z</time>
      </trkpt>
      <trkpt lat="45.90304" lon="5.17828">
        <ele>270.4</ele>
        <time>2024-09-19T08:43:44Z</time>
      </trkpt>
      <trkpt lat="45.903" lon="5.17831">
        <ele>270</ele>
        <time>2024-09-19T08:43:45Z</time>
      </trkpt>
      <trkpt lat="45.90296" lon="5.17836">
        <ele>270</ele>
        <time>2024-09-19T08:43:46Z</time>
      </trkpt>
      <trkpt lat="45.90292" lon="5.17839">
        <ele>269.6</ele>
        <time>2024-09-19T08:43:47Z</time>
      </trkpt>
      <trkpt lat="45.90289" lon="5.17845">
        <ele>268.8</ele>
        <time>2024-09-19T08:43:48Z</time>
      </trkpt>
      <trkpt lat="45.90286" lon="5.17851">
        <ele>268.4</ele>
        <time>2024-09-19T08:43:49Z</time>
      </trkpt>
      <trkpt lat="45.90282" lon="5.17857">
        <ele>267.8</ele>
        <time>2024-09-19T08:43:50Z</time>
      </trkpt>
      <trkpt lat="45.9028" lon="5.17864">
        <ele>267.2</ele>
        <time>2024-09-19T08:43:51Z</time>
      </trkpt>
      <trkpt lat="45.90277" lon="5.17872">
        <ele>266.8</ele>
        <time>2024-09-19T08:43:52Z</time>
      </trkpt>
      <trkpt lat="45.90274" lon="5.17879">
        <ele>266.2</ele>
        <time>2024-09-19T08:43:53Z</time>
      </trkpt>
      <trkpt lat="45.90272" lon="5.17885">
        <ele>266.6</ele>
        <time>2024-09-19T08:43:54Z</time>
      </trkpt>
      <trkpt lat="45.90271" lon="5.17887">
        <ele>266.2</ele>
        <time>2024-09-19T08:43:55Z</time>
      </trkpt>
      <trkpt lat="45.9027" lon="5.1789">
        <ele>266.2</ele>
        <time>2024-09-19T08:43:56Z</time>
      </trkpt>
      <trkpt lat="45.90269" lon="5.17891">
        <ele>266.2</ele>
        <time>2024-09-19T08:43:57Z</time>
      </trkpt>
      <trkpt lat="45.9027" lon="5.17892">
        <ele>266.6</ele>
        <time>2024-09-19T08:43:58Z</time>
      </trkpt>
      <trkpt lat="45.90269" lon="5.17891">
        <ele>266.6</ele>
        <time>2024-09-19T08:43:59Z</time>
      </trkpt>
      <trkpt lat="45.90266" lon="5.17896">
        <ele>266.8</ele>
        <time>2024-09-19T08:44:22Z</time>
      </trkpt>
      <trkpt lat="45.90264" lon="5.17898">
        <ele>266.8</ele>
        <time>2024-09-19T08:44:23Z</time>
      </trkpt>
      <trkpt lat="45.90263" lon="5.17902">
        <ele>266.8</ele>
        <time>2024-09-19T08:44:24Z</time>
      </trkpt>
      <trkpt lat="45.90262" lon="5.17907">
        <ele>266.4</ele>
        <time>2024-09-19T08:44:25Z</time>
      </trkpt>
      <trkpt lat="45.9026" lon="5.17911">
        <ele>266.4</ele>
        <time>2024-09-19T08:44:26Z</time>
      </trkpt>
      <trkpt lat="45.90258" lon="5.17917">
        <ele>266</ele>
        <time>2024-09-19T08:44:27Z</time>
      </trkpt>
      <trkpt lat="45.90255" lon="5.17922">
        <ele>266</ele>
        <time>2024-09-19T08:44:28Z</time>
      </trkpt>
      <trkpt lat="45.90255" lon="5.17929">
        <ele>265.6</ele>
        <time>2024-09-19T08:44:29Z</time>
      </trkpt>
      <trkpt lat="45.90255" lon="5.17933">
        <ele>264.8</ele>
        <time>2024-09-19T08:44:30Z</time>
      </trkpt>
      <trkpt lat="45.90253" lon="5.17943">
        <ele>265.2</ele>
        <time>2024-09-19T08:44:31Z</time>
      </trkpt>
      <trkpt lat="45.90251" lon="5.17949">
        <ele>265.2</ele>
        <time>2024-09-19T08:44:32Z</time>
      </trkpt>
      <trkpt lat="45.90249" lon="5.17957">
        <ele>264.8</ele>
        <time>2024-09-19T08:44:33Z</time>
      </trkpt>
      <trkpt lat="45.90249" lon="5.17965">
        <ele>265.2</ele>
        <time>2024-09-19T08:44:34Z</time>
      </trkpt>
      <trkpt lat="45.90249" lon="5.17973">
        <ele>265.2</ele>
        <time>2024-09-19T08:44:35Z</time>
      </trkpt>
      <trkpt lat="45.90249" lon="5.17979">
        <ele>264.8</ele>
        <time>2024-09-19T08:44:36Z</time>
      </trkpt>
      <trkpt lat="45.90248" lon="5.17987">
        <ele>265.2</ele>
        <time>2024-09-19T08:44:37Z</time>
      </trkpt>
      <trkpt lat="45.90248" lon="5.17995">
        <ele>265.2</ele>
        <time>2024-09-19T08:44:38Z</time>
      </trkpt>
      <trkpt lat="45.90246" lon="5.18002">
        <ele>265.6</ele>
        <time>2024-09-19T08:44:39Z</time>
      </trkpt>
      <trkpt lat="45.90245" lon="5.18009">
        <ele>266</ele>
        <time>2024-09-19T08:44:40Z</time>
      </trkpt>
      <trkpt lat="45.90245" lon="5.18015">
        <ele>266</ele>
        <time>2024-09-19T08:44:41Z</time>
      </trkpt>
      <trkpt lat="45.90245" lon="5.18022">
        <ele>266</ele>
        <time>2024-09-19T08:44:42Z</time>
      </trkpt>
      <trkpt lat="45.90246" lon="5.18028">
        <ele>266</ele>
        <time>2024-09-19T08:44:43Z</time>
      </trkpt>
      <trkpt lat="45.90247" lon="5.18034">
        <ele>266</ele>
        <time>2024-09-19T08:44:44Z</time>
      </trkpt>
      <trkpt lat="45.90248" lon="5.1804">
        <ele>266</ele>
        <time>2024-09-19T08:44:45Z</time>
      </trkpt>
      <trkpt lat="45.90249" lon="5.18047">
        <ele>266</ele>
        <time>2024-09-19T08:44:46Z</time>
      </trkpt>
      <trkpt lat="45.9025" lon="5.18053">
        <ele>266</ele>
        <time>2024-09-19T08:44:47Z</time>
      </trkpt>
      <trkpt lat="45.90252" lon="5.18059">
        <ele>266.2</ele>
        <time>2024-09-19T08:44:48Z</time>
      </trkpt>
      <trkpt lat="45.90254" lon="5.18064">
        <ele>266.2</ele>
        <time>2024-09-19T08:44:49Z</time>
      </trkpt>
      <trkpt lat="45.90256" lon="5.18069">
        <ele>266.2</ele>
        <time>2024-09-19T08:44:50Z</time>
      </trkpt>
      <trkpt lat="45.9026" lon="5.18073">
        <ele>266.6</ele>
        <time>2024-09-19T08:44:51Z</time>
      </trkpt>
      <trkpt lat="45.90263" lon="5.18076">
        <ele>266.6</ele>
        <time>2024-09-19T08:44:52Z</time>
      </trkpt>
      <trkpt lat="45.90266" lon="5.18079">
        <ele>266.6</ele>
        <time>2024-09-19T08:44:53Z</time>
      </trkpt>
      <trkpt lat="45.90269" lon="5.18082">
        <ele>266.6</ele>
        <time>2024-09-19T08:44:54Z</time>
      </trkpt>
      <trkpt lat="45.90271" lon="5.18084">
        <ele>267</ele>
        <time>2024-09-19T08:44:55Z</time>
      </trkpt>
      <trkpt lat="45.90273" lon="5.18087">
        <ele>267</ele>
        <time>2024-09-19T08:44:56Z</time>
      </trkpt>
      <trkpt lat="45.90275" lon="5.18088">
        <ele>267</ele>
        <time>2024-09-19T08:44:57Z</time>
      </trkpt>
      <trkpt lat="45.90277" lon="5.1809">
        <ele>267</ele>
        <time>2024-09-19T08:44:58Z</time>
      </trkpt>
      <trkpt lat="45.9028" lon="5.18092">
        <ele>267</ele>
        <time>2024-09-19T08:44:59Z</time>
      </trkpt>
      <trkpt lat="45.90283" lon="5.18095">
        <ele>266.6</ele>
        <time>2024-09-19T08:45:00Z</time>
      </trkpt>
      <trkpt lat="45.90283" lon="5.18095">
        <ele>266.4</ele>
        <time>2024-09-19T08:45:01Z</time>
      </trkpt>
      <trkpt lat="45.90283" lon="5.18095">
        <ele>266</ele>
        <time>2024-09-19T08:45:02Z</time>
      </trkpt>
      <trkpt lat="45.90299" lon="5.18106">
        <ele>265.2</ele>
        <time>2024-09-19T08:45:04Z</time>
      </trkpt>
      <trkpt lat="45.90302" lon="5.18109">
        <ele>265</ele>
        <time>2024-09-19T08:45:05Z</time>
      </trkpt>
      <trkpt lat="45.90306" lon="5.18111">
        <ele>265</ele>
        <time>2024-09-19T08:45:06Z</time>
      </trkpt>
      <trkpt lat="45.9031" lon="5.18112">
        <ele>265</ele>
        <time>2024-09-19T08:45:07Z</time>
      </trkpt>
      <trkpt lat="45.90313" lon="5.18113">
        <ele>265</ele>
        <time>2024-09-19T08:45:08Z</time>
      </trkpt>
      <trkpt lat="45.90317" lon="5.18111">
        <ele>264.6</ele>
        <time>2024-09-19T08:45:09Z</time>
      </trkpt>
      <trkpt lat="45.90322" lon="5.1811">
        <ele>264.6</ele>
        <time>2024-09-19T08:45:10Z</time>
      </trkpt>
      <trkpt lat="45.90326" lon="5.18107">
        <ele>264.6</ele>
        <time>2024-09-19T08:45:11Z</time>
      </trkpt>
      <trkpt lat="45.90329" lon="5.18106">
        <ele>264.6</ele>
        <time>2024-09-19T08:45:12Z</time>
      </trkpt>
      <trkpt lat="45.90333" lon="5.18103">
        <ele>264.8</ele>
        <time>2024-09-19T08:45:13Z</time>
      </trkpt>
      <trkpt lat="45.90336" lon="5.18103">
        <ele>264.4</ele>
        <time>2024-09-19T08:45:14Z</time>
      </trkpt>
      <trkpt lat="45.90338" lon="5.18102">
        <ele>264.4</ele>
        <time>2024-09-19T08:45:15Z</time>
      </trkpt>
      <trkpt lat="45.9034" lon="5.18101">
        <ele>264.2</ele>
        <time>2024-09-19T08:45:16Z</time>
      </trkpt>
      <trkpt lat="45.90341" lon="5.181">
        <ele>264.2</ele>
        <time>2024-09-19T08:45:17Z</time>
      </trkpt>
      <trkpt lat="45.90341" lon="5.18099">
        <ele>263.8</ele>
        <time>2024-09-19T08:45:18Z</time>
      </trkpt>
      <trkpt lat="45.90342" lon="5.18099">
        <ele>263.8</ele>
        <time>2024-09-19T08:45:19Z</time>
      </trkpt>
      <trkpt lat="45.90342" lon="5.18099">
        <ele>263.8</ele>
        <time>2024-09-19T08:45:20Z</time>
      </trkpt>
      <trkpt lat="45.90346" lon="5.18098">
        <ele>263.4</ele>
        <time>2024-09-19T08:45:40Z</time>
      </trkpt>
      <trkpt lat="45.90347" lon="5.18097">
        <ele>263.4</ele>
        <time>2024-09-19T08:45:41Z</time>
      </trkpt>
      <trkpt lat="45.90349" lon="5.18095">
        <ele>263</ele>
        <time>2024-09-19T08:45:42Z</time>
      </trkpt>
      <trkpt lat="45.90352" lon="5.18094">
        <ele>263</ele>
        <time>2024-09-19T08:45:43Z</time>
      </trkpt>
      <trkpt lat="45.90355" lon="5.18091">
        <ele>263</ele>
        <time>2024-09-19T08:45:44Z</time>
      </trkpt>
      <trkpt lat="45.90359" lon="5.18088">
        <ele>262.6</ele>
        <time>2024-09-19T08:45:45Z</time>
      </trkpt>
      <trkpt lat="45.90362" lon="5.18084">
        <ele>262.4</ele>
        <time>2024-09-19T08:45:46Z</time>
      </trkpt>
      <trkpt lat="45.90365" lon="5.18081">
        <ele>262.2</ele>
        <time>2024-09-19T08:45:47Z</time>
      </trkpt>
      <trkpt lat="45.90368" lon="5.18078">
        <ele>261.6</ele>
        <time>2024-09-19T08:45:48Z</time>
      </trkpt>
      <trkpt lat="45.90372" lon="5.18074">
        <ele>261.6</ele>
        <time>2024-09-19T08:45:49Z</time>
      </trkpt>
      <trkpt lat="45.90377" lon="5.18067">
        <ele>260.6</ele>
        <time>2024-09-19T08:45:50Z</time>
      </trkpt>
      <trkpt lat="45.90382" lon="5.18064">
        <ele>260</ele>
        <time>2024-09-19T08:45:51Z</time>
      </trkpt>
      <trkpt lat="45.90386" lon="5.18062">
        <ele>259.6</ele>
        <time>2024-09-19T08:45:52Z</time>
      </trkpt>
      <trkpt lat="45.90389" lon="5.1806">
        <ele>259</ele>
        <time>2024-09-19T08:45:53Z</time>
      </trkpt>
      <trkpt lat="45.90394" lon="5.18058">
        <ele>259</ele>
        <time>2024-09-19T08:45:54Z</time>
      </trkpt>
      <trkpt lat="45.90397" lon="5.18058">
        <ele>259</ele>
        <time>2024-09-19T08:45:55Z</time>
      </trkpt>
      <trkpt lat="45.904" lon="5.18055">
        <ele>259</ele>
        <time>2024-09-19T08:45:56Z</time>
      </trkpt>
      <trkpt lat="45.90403" lon="5.18054">
        <ele>258.8</ele>
        <time>2024-09-19T08:45:57Z</time>
      </trkpt>
      <trkpt lat="45.90407" lon="5.18054">
        <ele>258.8</ele>
        <time>2024-09-19T08:45:58Z</time>
      </trkpt>
      <trkpt lat="45.9041" lon="5.18052">
        <ele>258.8</ele>
        <time>2024-09-19T08:45:59Z</time>
      </trkpt>
      <trkpt lat="45.90413" lon="5.18051">
        <ele>258.2</ele>
        <time>2024-09-19T08:46:00Z</time>
      </trkpt>
      <trkpt lat="45.90415" lon="5.1805">
        <ele>258.2</ele>
        <time>2024-09-19T08:46:01Z</time>
      </trkpt>
      <trkpt lat="45.90418" lon="5.18049">
        <ele>257.8</ele>
        <time>2024-09-19T08:46:02Z</time>
      </trkpt>
      <trkpt lat="45.90421" lon="5.18049">
        <ele>257.8</ele>
        <time>2024-09-19T08:46:03Z</time>
      </trkpt>
      <trkpt lat="45.90423" lon="5.18049">
        <ele>257.4</ele>
        <time>2024-09-19T08:46:04Z</time>
      </trkpt>
      <trkpt lat="45.90425" lon="5.1805">
        <ele>257.2</ele>
        <time>2024-09-19T08:46:05Z</time>
      </trkpt>
      <trkpt lat="45.90427" lon="5.18052">
        <ele>256.6</ele>
        <time>2024-09-19T08:46:06Z</time>
      </trkpt>
      <trkpt lat="45.9043" lon="5.18054">
        <ele>256.2</ele>
        <time>2024-09-19T08:46:07Z</time>
      </trkpt>
      <trkpt lat="45.90432" lon="5.18057">
        <ele>256</ele>
        <time>2024-09-19T08:46:08Z</time>
      </trkpt>
      <trkpt lat="45.90435" lon="5.18061">
        <ele>255.6</ele>
        <time>2024-09-19T08:46:09Z</time>
      </trkpt>
      <trkpt lat="45.90439" lon="5.18065">
        <ele>255</ele>
        <time>2024-09-19T08:46:10Z</time>
      </trkpt>
      <trkpt lat="45.90442" lon="5.18068">
        <ele>255</ele>
        <time>2024-09-19T08:46:11Z</time>
      </trkpt>
      <trkpt lat="45.90445" lon="5.18071">
        <ele>254.6</ele>
        <time>2024-09-19T08:46:12Z</time>
      </trkpt>
      <trkpt lat="45.90448" lon="5.18073">
        <ele>254.6</ele>
        <time>2024-09-19T08:46:13Z</time>
      </trkpt>
      <trkpt lat="45.90451" lon="5.18075">
        <ele>254.6</ele>
        <time>2024-09-19T08:46:14Z</time>
      </trkpt>
      <trkpt lat="45.90454" lon="5.18076">
        <ele>254</ele>
        <time>2024-09-19T08:46:15Z</time>
      </trkpt>
      <trkpt lat="45.90458" lon="5.18075">
        <ele>254</ele>
        <time>2024-09-19T08:46:16Z</time>
      </trkpt>
      <trkpt lat="45.90463" lon="5.18075">
        <ele>253.4</ele>
        <time>2024-09-19T08:46:17Z</time>
      </trkpt>
      <trkpt lat="45.90467" lon="5.18074">
        <ele>253</ele>
        <time>2024-09-19T08:46:18Z</time>
      </trkpt>
      <trkpt lat="45.90471" lon="5.18073">
        <ele>252.4</ele>
        <time>2024-09-19T08:46:19Z</time>
      </trkpt>
      <trkpt lat="45.90475" lon="5.18072">
        <ele>252.2</ele>
        <time>2024-09-19T08:46:20Z</time>
      </trkpt>
      <trkpt lat="45.90478" lon="5.18071">
        <ele>252.2</ele>
        <time>2024-09-19T08:46:21Z</time>
      </trkpt>
      <trkpt lat="45.90481" lon="5.1807">
        <ele>252.2</ele>
        <time>2024-09-19T08:46:22Z</time>
      </trkpt>
      <trkpt lat="45.90483" lon="5.1807">
        <ele>251.8</ele>
        <time>2024-09-19T08:46:23Z</time>
      </trkpt>
      <trkpt lat="45.90484" lon="5.18071">
        <ele>251.2</ele>
        <time>2024-09-19T08:46:24Z</time>
      </trkpt>
      <trkpt lat="45.90486" lon="5.18073">
        <ele>251</ele>
        <time>2024-09-19T08:46:25Z</time>
      </trkpt>
      <trkpt lat="45.90486" lon="5.18077">
        <ele>250.6</ele>
        <time>2024-09-19T08:46:26Z</time>
      </trkpt>
      <trkpt lat="45.90487" lon="5.1808">
        <ele>249.8</ele>
        <time>2024-09-19T08:46:27Z</time>
      </trkpt>
      <trkpt lat="45.90487" lon="5.18084">
        <ele>250.2</ele>
        <time>2024-09-19T08:46:28Z</time>
      </trkpt>
      <trkpt lat="45.90488" lon="5.18089">
        <ele>249.2</ele>
        <time>2024-09-19T08:46:29Z</time>
      </trkpt>
      <trkpt lat="45.90489" lon="5.18094">
        <ele>248.6</ele>
        <time>2024-09-19T08:46:30Z</time>
      </trkpt>
      <trkpt lat="45.9049" lon="5.18099">
        <ele>249</ele>
        <time>2024-09-19T08:46:31Z</time>
      </trkpt>
      <trkpt lat="45.90491" lon="5.18105">
        <ele>248.2</ele>
        <time>2024-09-19T08:46:32Z</time>
      </trkpt>
      <trkpt lat="45.90494" lon="5.18113">
        <ele>246.8</ele>
        <time>2024-09-19T08:46:33Z</time>
      </trkpt>
      <trkpt lat="45.90495" lon="5.1812">
        <ele>245.2</ele>
        <time>2024-09-19T08:46:34Z</time>
      </trkpt>
      <trkpt lat="45.90496" lon="5.18128">
        <ele>243.6</ele>
        <time>2024-09-19T08:46:35Z</time>
      </trkpt>
      <trkpt lat="45.90499" lon="5.18136">
        <ele>243</ele>
        <time>2024-09-19T08:46:36Z</time>
      </trkpt>
      <trkpt lat="45.905" lon="5.18145">
        <ele>242.4</ele>
        <time>2024-09-19T08:46:37Z</time>
      </trkpt>
      <trkpt lat="45.90502" lon="5.18152">
        <ele>241</ele>
        <time>2024-09-19T08:46:38Z</time>
      </trkpt>
      <trkpt lat="45.90504" lon="5.1816">
        <ele>240.6</ele>
        <time>2024-09-19T08:46:39Z</time>
      </trkpt>
      <trkpt lat="45.90506" lon="5.18168">
        <ele>238.8</ele>
        <time>2024-09-19T08:46:40Z</time>
      </trkpt>
      <trkpt lat="45.90508" lon="5.18176">
        <ele>238.4</ele>
        <time>2024-09-19T08:46:41Z</time>
      </trkpt>
      <trkpt lat="45.9051" lon="5.18182">
        <ele>237.6</ele>
        <time>2024-09-19T08:46:42Z</time>
      </trkpt>
      <trkpt lat="45.90511" lon="5.18188">
        <ele>237</ele>
        <time>2024-09-19T08:46:43Z</time>
      </trkpt>
      <trkpt lat="45.90511" lon="5.18192">
        <ele>237</ele>
        <time>2024-09-19T08:46:44Z</time>
      </trkpt>
      <trkpt lat="45.90512" lon="5.18198">
        <ele>236.6</ele>
        <time>2024-09-19T08:46:45Z</time>
      </trkpt>
      <trkpt lat="45.90514" lon="5.18202">
        <ele>236.4</ele>
        <time>2024-09-19T08:46:46Z</time>
      </trkpt>
      <trkpt lat="45.90514" lon="5.18205">
        <ele>236.2</ele>
        <time>2024-09-19T08:46:47Z</time>
      </trkpt>
      <trkpt lat="45.90515" lon="5.18208">
        <ele>236</ele>
        <time>2024-09-19T08:46:48Z</time>
      </trkpt>
      <trkpt lat="45.90515" lon="5.1821">
        <ele>236</ele>
        <time>2024-09-19T08:46:49Z</time>
      </trkpt>
      <trkpt lat="45.90516" lon="5.18212">
        <ele>235.6</ele>
        <time>2024-09-19T08:46:50Z</time>
      </trkpt>
      <trkpt lat="45.90516" lon="5.18212">
        <ele>235.6</ele>
        <time>2024-09-19T08:46:51Z</time>
      </trkpt>
      <trkpt lat="45.90517" lon="5.18215">
        <ele>235.2</ele>
        <time>2024-09-19T08:46:52Z</time>
      </trkpt>
      <trkpt lat="45.9052" lon="5.18216">
        <ele>234.8</ele>
        <time>2024-09-19T08:46:53Z</time>
      </trkpt>
      <trkpt lat="45.90524" lon="5.18215">
        <ele>234.2</ele>
        <time>2024-09-19T08:46:54Z</time>
      </trkpt>
      <trkpt lat="45.90527" lon="5.18214">
        <ele>234</ele>
        <time>2024-09-19T08:46:55Z</time>
      </trkpt>
      <trkpt lat="45.90531" lon="5.18213">
        <ele>233.8</ele>
        <time>2024-09-19T08:46:56Z</time>
      </trkpt>
      <trkpt lat="45.90535" lon="5.18211">
        <ele>233.8</ele>
        <time>2024-09-19T08:46:57Z</time>
      </trkpt>
      <trkpt lat="45.9054" lon="5.1821">
        <ele>233.4</ele>
        <time>2024-09-19T08:46:58Z</time>
      </trkpt>
      <trkpt lat="45.90545" lon="5.18209">
        <ele>233</ele>
        <time>2024-09-19T08:46:59Z</time>
      </trkpt>
      <trkpt lat="45.9055" lon="5.18208">
        <ele>233</ele>
        <time>2024-09-19T08:47:00Z</time>
      </trkpt>
      <trkpt lat="45.90556" lon="5.18207">
        <ele>233</ele>
        <time>2024-09-19T08:47:01Z</time>
      </trkpt>
      <trkpt lat="45.90562" lon="5.18205">
        <ele>232.6</ele>
        <time>2024-09-19T08:47:02Z</time>
      </trkpt>
      <trkpt lat="45.90568" lon="5.18204">
        <ele>232</ele>
        <time>2024-09-19T08:47:03Z</time>
      </trkpt>
      <trkpt lat="45.90574" lon="5.18203">
        <ele>231.8</ele>
        <time>2024-09-19T08:47:04Z</time>
      </trkpt>
      <trkpt lat="45.9058" lon="5.18201">
        <ele>231.8</ele>
        <time>2024-09-19T08:47:05Z</time>
      </trkpt>
      <trkpt lat="45.90587" lon="5.182">
        <ele>231.4</ele>
        <time>2024-09-19T08:47:06Z</time>
      </trkpt>
      <trkpt lat="45.90593" lon="5.18199">
        <ele>231.2</ele>
        <time>2024-09-19T08:47:07Z</time>
      </trkpt>
      <trkpt lat="45.90599" lon="5.18197">
        <ele>231</ele>
        <time>2024-09-19T08:47:08Z</time>
      </trkpt>
      <trkpt lat="45.90605" lon="5.18196">
        <ele>231</ele>
        <time>2024-09-19T08:47:09Z</time>
      </trkpt>
      <trkpt lat="45.90609" lon="5.18196">
        <ele>231</ele>
        <time>2024-09-19T08:47:10Z</time>
      </trkpt>
      <trkpt lat="45.90613" lon="5.18199">
        <ele>231</ele>
        <time>2024-09-19T08:47:11Z</time>
      </trkpt>
      <trkpt lat="45.90616" lon="5.18203">
        <ele>231</ele>
        <time>2024-09-19T08:47:12Z</time>
      </trkpt>
      <trkpt lat="45.90619" lon="5.18207">
        <ele>230</ele>
        <time>2024-09-19T08:47:13Z</time>
      </trkpt>
      <trkpt lat="45.90622" lon="5.18214">
        <ele>230</ele>
        <time>2024-09-19T08:47:14Z</time>
      </trkpt>
      <trkpt lat="45.90625" lon="5.1822">
        <ele>229.8</ele>
        <time>2024-09-19T08:47:15Z</time>
      </trkpt>
      <trkpt lat="45.90629" lon="5.18224">
        <ele>229</ele>
        <time>2024-09-19T08:47:16Z</time>
      </trkpt>
      <trkpt lat="45.90632" lon="5.1823">
        <ele>228.2</ele>
        <time>2024-09-19T08:47:17Z</time>
      </trkpt>
      <trkpt lat="45.90636" lon="5.18237">
        <ele>228.2</ele>
        <time>2024-09-19T08:47:18Z</time>
      </trkpt>
      <trkpt lat="45.90638" lon="5.18242">
        <ele>227.6</ele>
        <time>2024-09-19T08:47:19Z</time>
      </trkpt>
      <trkpt lat="45.90641" lon="5.18247">
        <ele>227.4</ele>
        <time>2024-09-19T08:47:20Z</time>
      </trkpt>
      <trkpt lat="45.90643" lon="5.18252">
        <ele>227.4</ele>
        <time>2024-09-19T08:47:21Z</time>
      </trkpt>
      <trkpt lat="45.90646" lon="5.18254">
        <ele>227</ele>
        <time>2024-09-19T08:47:22Z</time>
      </trkpt>
      <trkpt lat="45.90648" lon="5.18256">
        <ele>227</ele>
        <time>2024-09-19T08:47:23Z</time>
      </trkpt>
      <trkpt lat="45.90649" lon="5.18256">
        <ele>226.8</ele>
        <time>2024-09-19T08:47:24Z</time>
      </trkpt>
      <trkpt lat="45.90651" lon="5.18256">
        <ele>226.8</ele>
        <time>2024-09-19T08:47:25Z</time>
      </trkpt>
      <trkpt lat="45.90652" lon="5.18256">
        <ele>226.6</ele>
        <time>2024-09-19T08:47:26Z</time>
      </trkpt>
      <trkpt lat="45.90653" lon="5.18256">
        <ele>226.6</ele>
        <time>2024-09-19T08:47:27Z</time>
      </trkpt>
      <trkpt lat="45.90654" lon="5.18257">
        <ele>226.6</ele>
        <time>2024-09-19T08:47:28Z</time>
      </trkpt>
      <trkpt lat="45.90656" lon="5.18257">
        <ele>226.6</ele>
        <time>2024-09-19T08:47:29Z</time>
      </trkpt>
      <trkpt lat="45.90657" lon="5.18256">
        <ele>226</ele>
        <time>2024-09-19T08:47:30Z</time>
      </trkpt>
      <trkpt lat="45.90659" lon="5.18256">
        <ele>226</ele>
        <time>2024-09-19T08:47:31Z</time>
      </trkpt>
      <trkpt lat="45.9066" lon="5.18256">
        <ele>226</ele>
        <time>2024-09-19T08:47:32Z</time>
      </trkpt>
      <trkpt lat="45.90662" lon="5.18257">
        <ele>225.6</ele>
        <time>2024-09-19T08:47:33Z</time>
      </trkpt>
      <trkpt lat="45.90664" lon="5.18258">
        <ele>225.2</ele>
        <time>2024-09-19T08:47:34Z</time>
      </trkpt>
      <trkpt lat="45.90664" lon="5.18258">
        <ele>225.2</ele>
        <time>2024-09-19T08:47:35Z</time>
      </trkpt>
      <trkpt lat="45.90666" lon="5.18259">
        <ele>225</ele>
        <time>2024-09-19T08:47:36Z</time>
      </trkpt>
      <trkpt lat="45.90667" lon="5.18262">
        <ele>225</ele>
        <time>2024-09-19T08:47:37Z</time>
      </trkpt>
      <trkpt lat="45.90667" lon="5.18264">
        <ele>225</ele>
        <time>2024-09-19T08:47:38Z</time>
      </trkpt>
      <trkpt lat="45.90667" lon="5.18265">
        <ele>225</ele>
        <time>2024-09-19T08:47:39Z</time>
      </trkpt>
      <trkpt lat="45.90666" lon="5.18265">
        <ele>225</ele>
        <time>2024-09-19T08:47:40Z</time>
      </trkpt>
      <trkpt lat="45.90666" lon="5.18265">
        <ele>225.4</ele>
        <time>2024-09-19T08:47:43Z</time>
      </trkpt>
      <trkpt lat="45.90666" lon="5.18266">
        <ele>225.4</ele>
        <time>2024-09-19T08:47:44Z</time>
      </trkpt>
      <trkpt lat="45.90667" lon="5.18266">
        <ele>225.4</ele>
        <time>2024-09-19T08:47:45Z</time>
      </trkpt>
      <trkpt lat="45.90666" lon="5.18266">
        <ele>225.4</ele>
        <time>2024-09-19T08:47:46Z</time>
      </trkpt>
      <trkpt lat="45.90666" lon="5.18267">
        <ele>225.6</ele>
        <time>2024-09-19T08:47:49Z</time>
      </trkpt>
      <trkpt lat="45.90666" lon="5.18268">
        <ele>225.6</ele>
        <time>2024-09-19T08:47:50Z</time>
      </trkpt>
      <trkpt lat="45.90666" lon="5.18269">
        <ele>225.6</ele>
        <time>2024-09-19T08:47:51Z</time>
      </trkpt>
      <trkpt lat="45.90666" lon="5.18269">
        <ele>225.8</ele>
        <time>2024-09-19T08:47:52Z</time>
      </trkpt>
      <trkpt lat="45.90666" lon="5.1827">
        <ele>226</ele>
        <time>2024-09-19T08:47:53Z</time>
      </trkpt>
      <trkpt lat="45.90667" lon="5.18272">
        <ele>226</ele>
        <time>2024-09-19T08:47:54Z</time>
      </trkpt>
      <trkpt lat="45.90667" lon="5.18273">
        <ele>226</ele>
        <time>2024-09-19T08:47:55Z</time>
      </trkpt>
      <trkpt lat="45.90667" lon="5.18274">
        <ele>226</ele>
        <time>2024-09-19T08:47:56Z</time>
      </trkpt>
      <trkpt lat="45.90667" lon="5.18275">
        <ele>226</ele>
        <time>2024-09-19T08:47:57Z</time>
      </trkpt>
      <trkpt lat="45.90667" lon="5.18276">
        <ele>225.4</ele>
        <time>2024-09-19T08:47:58Z</time>
      </trkpt>
      <trkpt lat="45.90668" lon="5.18277">
        <ele>225.4</ele>
        <time>2024-09-19T08:47:59Z</time>
      </trkpt>
      <trkpt lat="45.90668" lon="5.18278">
        <ele>225.4</ele>
        <time>2024-09-19T08:48:00Z</time>
      </trkpt>
      <trkpt lat="45.90669" lon="5.1828">
        <ele>225.2</ele>
        <time>2024-09-19T08:48:01Z</time>
      </trkpt>
      <trkpt lat="45.90669" lon="5.18281">
        <ele>225.2</ele>
        <time>2024-09-19T08:48:02Z</time>
      </trkpt>
      <trkpt lat="45.90669" lon="5.18281">
        <ele>225.2</ele>
        <time>2024-09-19T08:48:03Z</time>
      </trkpt>
      <trkpt lat="45.90669" lon="5.18281">
        <ele>225.2</ele>
        <time>2024-09-19T08:48:04Z</time>
      </trkpt>
      <trkpt lat="45.90669" lon="5.18285">
        <ele>225.6</ele>
        <time>2024-09-19T08:48:59Z</time>
      </trkpt>
      <trkpt lat="45.90669" lon="5.18286">
        <ele>225.6</ele>
        <time>2024-09-19T08:49:00Z</time>
      </trkpt>
      <trkpt lat="45.90669" lon="5.18287">
        <ele>225.6</ele>
        <time>2024-09-19T08:49:01Z</time>
      </trkpt>
      <trkpt lat="45.90669" lon="5.18288">
        <ele>225</ele>
        <time>2024-09-19T08:49:02Z</time>
      </trkpt>
      <trkpt lat="45.90669" lon="5.1829">
        <ele>225</ele>
        <time>2024-09-19T08:49:03Z</time>
      </trkpt>
      <trkpt lat="45.90668" lon="5.18292">
        <ele>225.2</ele>
        <time>2024-09-19T08:49:04Z</time>
      </trkpt>
      <trkpt lat="45.90667" lon="5.18293">
        <ele>225.2</ele>
        <time>2024-09-19T08:49:05Z</time>
      </trkpt>
      <trkpt lat="45.90667" lon="5.18294">
        <ele>225.2</ele>
        <time>2024-09-19T08:49:06Z</time>
      </trkpt>
      <trkpt lat="45.90667" lon="5.18295">
        <ele>225.2</ele>
        <time>2024-09-19T08:49:07Z</time>
      </trkpt>
      <trkpt lat="45.90667" lon="5.18295">
        <ele>225.2</ele>
        <time>2024-09-19T08:49:08Z</time>
      </trkpt>
      <trkpt lat="45.90667" lon="5.18295">
        <ele>225.2</ele>
        <time>2024-09-19T08:49:09Z</time>
      </trkpt>
      <trkpt lat="45.90666" lon="5.18295">
        <ele>225.2</ele>
        <time>2024-09-19T08:49:10Z</time>
      </trkpt>
      <trkpt lat="45.90664" lon="5.18296">
        <ele>225.4</ele>
        <time>2024-09-19T08:49:11Z</time>
      </trkpt>
      <trkpt lat="45.90662" lon="5.18297">
        <ele>225.4</ele>
        <time>2024-09-19T08:49:12Z</time>
      </trkpt>
      <trkpt lat="45.9066" lon="5.18297">
        <ele>225.4</ele>
        <time>2024-09-19T08:49:13Z</time>
      </trkpt>
      <trkpt lat="45.90658" lon="5.18297">
        <ele>225.4</ele>
        <time>2024-09-19T08:49:14Z</time>
      </trkpt>
      <trkpt lat="45.90656" lon="5.18297">
        <ele>225.4</ele>
        <time>2024-09-19T08:49:15Z</time>
      </trkpt>
      <trkpt lat="45.90654" lon="5.18295">
        <ele>225.4</ele>
        <time>2024-09-19T08:49:16Z</time>
      </trkpt>
      <trkpt lat="45.90652" lon="5.18295">
        <ele>225.4</ele>
        <time>2024-09-19T08:49:17Z</time>
      </trkpt>
      <trkpt lat="45.9065" lon="5.18295">
        <ele>225.4</ele>
        <time>2024-09-19T08:49:18Z</time>
      </trkpt>
      <trkpt lat="45.9065" lon="5.18297">
        <ele>225.4</ele>
        <time>2024-09-19T08:49:19Z</time>
      </trkpt>
      <trkpt lat="45.90651" lon="5.183">
        <ele>225.4</ele>
        <time>2024-09-19T08:49:20Z</time>
      </trkpt>
      <trkpt lat="45.90654" lon="5.18302">
        <ele>225.6</ele>
        <time>2024-09-19T08:49:21Z</time>
      </trkpt>
      <trkpt lat="45.90657" lon="5.18301">
        <ele>225.4</ele>
        <time>2024-09-19T08:49:22Z</time>
      </trkpt>
      <trkpt lat="45.90659" lon="5.183">
        <ele>225.4</ele>
        <time>2024-09-19T08:49:23Z</time>
      </trkpt>
      <trkpt lat="45.90662" lon="5.18299">
        <ele>225.2</ele>
        <time>2024-09-19T08:49:24Z</time>
      </trkpt>
      <trkpt lat="45.90664" lon="5.18301">
        <ele>225.2</ele>
        <time>2024-09-19T08:49:25Z</time>
      </trkpt>
      <trkpt lat="45.90664" lon="5.18304">
        <ele>225.4</ele>
        <time>2024-09-19T08:49:26Z</time>
      </trkpt>
      <trkpt lat="45.90663" lon="5.18305">
        <ele>225.6</ele>
        <time>2024-09-19T08:49:27Z</time>
      </trkpt>
      <trkpt lat="45.90661" lon="5.18306">
        <ele>225.6</ele>
        <time>2024-09-19T08:49:28Z</time>
      </trkpt>
      <trkpt lat="45.90658" lon="5.18306">
        <ele>225.6</ele>
        <time>2024-09-19T08:49:29Z</time>
      </trkpt>
      <trkpt lat="45.90656" lon="5.18305">
        <ele>225.8</ele>
        <time>2024-09-19T08:49:30Z</time>
      </trkpt>
      <trkpt lat="45.90654" lon="5.18304">
        <ele>225.8</ele>
        <time>2024-09-19T08:49:31Z</time>
      </trkpt>
      <trkpt lat="45.90652" lon="5.18304">
        <ele>225.8</ele>
        <time>2024-09-19T08:49:32Z</time>
      </trkpt>
      <trkpt lat="45.90649" lon="5.18304">
        <ele>225.8</ele>
        <time>2024-09-19T08:49:33Z</time>
      </trkpt>
      <trkpt lat="45.90648" lon="5.18305">
        <ele>225.8</ele>
        <time>2024-09-19T08:49:34Z</time>
      </trkpt>
      <trkpt lat="45.90647" lon="5.18305">
        <ele>225.8</ele>
        <time>2024-09-19T08:49:35Z</time>
      </trkpt>
      <trkpt lat="45.90646" lon="5.18305">
        <ele>226.2</ele>
        <time>2024-09-19T08:49:36Z</time>
      </trkpt>
      <trkpt lat="45.90646" lon="5.18305">
        <ele>226.2</ele>
        <time>2024-09-19T08:49:37Z</time>
      </trkpt>
      <trkpt lat="45.90646" lon="5.18305">
        <ele>226.2</ele>
        <time>2024-09-19T08:49:38Z</time>
      </trkpt>
      <trkpt lat="45.90647" lon="5.18308">
        <ele>226.4</ele>
        <time>2024-09-19T08:50:06Z</time>
      </trkpt>
      <trkpt lat="45.90645" lon="5.1831">
        <ele>226</ele>
        <time>2024-09-19T08:50:07Z</time>
      </trkpt>
      <trkpt lat="45.90642" lon="5.18313">
        <ele>225.6</ele>
        <time>2024-09-19T08:50:08Z</time>
      </trkpt>
      <trkpt lat="45.9064" lon="5.18315">
        <ele>225.6</ele>
        <time>2024-09-19T08:50:09Z</time>
      </trkpt>
      <trkpt lat="45.90636" lon="5.18318">
        <ele>225.6</ele>
        <time>2024-09-19T08:50:10Z</time>
      </trkpt>
      <trkpt lat="45.90632" lon="5.1832">
        <ele>225</ele>
        <time>2024-09-19T08:50:11Z</time>
      </trkpt>
      <trkpt lat="45.90628" lon="5.18322">
        <ele>225</ele>
        <time>2024-09-19T08:50:12Z</time>
      </trkpt>
      <trkpt lat="45.90625" lon="5.18324">
        <ele>224.8</ele>
        <time>2024-09-19T08:50:13Z</time>
      </trkpt>
      <trkpt lat="45.90621" lon="5.18327">
        <ele>225.2</ele>
        <time>2024-09-19T08:50:14Z</time>
      </trkpt>
      <trkpt lat="45.90617" lon="5.18329">
        <ele>225.2</ele>
        <time>2024-09-19T08:50:15Z</time>
      </trkpt>
      <trkpt lat="45.90613" lon="5.18331">
        <ele>225</ele>
        <time>2024-09-19T08:50:16Z</time>
      </trkpt>
      <trkpt lat="45.90609" lon="5.18333">
        <ele>225</ele>
        <time>2024-09-19T08:50:17Z</time>
      </trkpt>
      <trkpt lat="45.90604" lon="5.18336">
        <ele>225</ele>
        <time>2024-09-19T08:50:18Z</time>
      </trkpt>
      <trkpt lat="45.90601" lon="5.18336">
        <ele>225</ele>
        <time>2024-09-19T08:50:19Z</time>
      </trkpt>
      <trkpt lat="45.90597" lon="5.18337">
        <ele>225</ele>
        <time>2024-09-19T08:50:20Z</time>
      </trkpt>
      <trkpt lat="45.90593" lon="5.18338">
        <ele>225</ele>
        <time>2024-09-19T08:50:21Z</time>
      </trkpt>
      <trkpt lat="45.90589" lon="5.1834">
        <ele>225</ele>
        <time>2024-09-19T08:50:22Z</time>
      </trkpt>
      <trkpt lat="45.90585" lon="5.18339">
        <ele>225</ele>
        <time>2024-09-19T08:50:23Z</time>
      </trkpt>
      <trkpt lat="45.9058" lon="5.18341">
        <ele>225.2</ele>
        <time>2024-09-19T08:50:24Z</time>
      </trkpt>
      <trkpt lat="45.90576" lon="5.18342">
        <ele>225.2</ele>
        <time>2024-09-19T08:50:25Z</time>
      </trkpt>
      <trkpt lat="45.90571" lon="5.18342">
        <ele>225.2</ele>
        <time>2024-09-19T08:50:26Z</time>
      </trkpt>
      <trkpt lat="45.90567" lon="5.18343">
        <ele>226</ele>
        <time>2024-09-19T08:50:27Z</time>
      </trkpt>
      <trkpt lat="45.90562" lon="5.18344">
        <ele>226</ele>
        <time>2024-09-19T08:50:28Z</time>
      </trkpt>
      <trkpt lat="45.90557" lon="5.18345">
        <ele>225.4</ele>
        <time>2024-09-19T08:50:29Z</time>
      </trkpt>
      <trkpt lat="45.90553" lon="5.18348">
        <ele>225.4</ele>
        <time>2024-09-19T08:50:30Z</time>
      </trkpt>
      <trkpt lat="45.90548" lon="5.18349">
        <ele>225.2</ele>
        <time>2024-09-19T08:50:31Z</time>
      </trkpt>
      <trkpt lat="45.90543" lon="5.18352">
        <ele>225.2</ele>
        <time>2024-09-19T08:50:32Z</time>
      </trkpt>
      <trkpt lat="45.90539" lon="5.18356">
        <ele>224.6</ele>
        <time>2024-09-19T08:50:33Z</time>
      </trkpt>
      <trkpt lat="45.90535" lon="5.1836">
        <ele>224.6</ele>
        <time>2024-09-19T08:50:34Z</time>
      </trkpt>
      <trkpt lat="45.90531" lon="5.18364">
        <ele>224.4</ele>
        <time>2024-09-19T08:50:35Z</time>
      </trkpt>
      <trkpt lat="45.90527" lon="5.18368">
        <ele>224.4</ele>
        <time>2024-09-19T08:50:36Z</time>
      </trkpt>
      <trkpt lat="45.90524" lon="5.18373">
        <ele>223.8</ele>
        <time>2024-09-19T08:50:37Z</time>
      </trkpt>
      <trkpt lat="45.90521" lon="5.18378">
        <ele>223.8</ele>
        <time>2024-09-19T08:50:38Z</time>
      </trkpt>
      <trkpt lat="45.90517" lon="5.18382">
        <ele>222.8</ele>
        <time>2024-09-19T08:50:39Z</time>
      </trkpt>
      <trkpt lat="45.90512" lon="5.18386">
        <ele>222.2</ele>
        <time>2024-09-19T08:50:40Z</time>
      </trkpt>
      <trkpt lat="45.90507" lon="5.1839">
        <ele>222.2</ele>
        <time>2024-09-19T08:50:41Z</time>
      </trkpt>
      <trkpt lat="45.90502" lon="5.18392">
        <ele>222.2</ele>
        <time>2024-09-19T08:50:42Z</time>
      </trkpt>
      <trkpt lat="45.90497" lon="5.18395">
        <ele>222.2</ele>
        <time>2024-09-19T08:50:43Z</time>
      </trkpt>
      <trkpt lat="45.90492" lon="5.18397">
        <ele>222.4</ele>
        <time>2024-09-19T08:50:44Z</time>
      </trkpt>
      <trkpt lat="45.90487" lon="5.184">
        <ele>223.4</ele>
        <time>2024-09-19T08:50:45Z</time>
      </trkpt>
      <trkpt lat="45.90481" lon="5.18402">
        <ele>223.4</ele>
        <time>2024-09-19T08:50:46Z</time>
      </trkpt>
      <trkpt lat="45.90476" lon="5.18405">
        <ele>223.4</ele>
        <time>2024-09-19T08:50:47Z</time>
      </trkpt>
      <trkpt lat="45.90471" lon="5.18408">
        <ele>224.2</ele>
        <time>2024-09-19T08:50:48Z</time>
      </trkpt>
      <trkpt lat="45.90466" lon="5.1841">
        <ele>224.2</ele>
        <time>2024-09-19T08:50:49Z</time>
      </trkpt>
      <trkpt lat="45.90462" lon="5.18412">
        <ele>223.6</ele>
        <time>2024-09-19T08:50:50Z</time>
      </trkpt>
      <trkpt lat="45.90456" lon="5.18413">
        <ele>223</ele>
        <time>2024-09-19T08:50:51Z</time>
      </trkpt>
      <trkpt lat="45.90451" lon="5.18414">
        <ele>223</ele>
        <time>2024-09-19T08:50:52Z</time>
      </trkpt>
      <trkpt lat="45.90446" lon="5.18415">
        <ele>222.6</ele>
        <time>2024-09-19T08:50:53Z</time>
      </trkpt>
      <trkpt lat="45.9044" lon="5.18417">
        <ele>222.2</ele>
        <time>2024-09-19T08:50:54Z</time>
      </trkpt>
      <trkpt lat="45.90435" lon="5.18418">
        <ele>222.2</ele>
        <time>2024-09-19T08:50:55Z</time>
      </trkpt>
      <trkpt lat="45.9043" lon="5.1842">
        <ele>222.2</ele>
        <time>2024-09-19T08:50:56Z</time>
      </trkpt>
      <trkpt lat="45.90424" lon="5.18422">
        <ele>222.2</ele>
        <time>2024-09-19T08:50:57Z</time>
      </trkpt>
      <trkpt lat="45.9042" lon="5.18425">
        <ele>222.4</ele>
        <time>2024-09-19T08:50:58Z</time>
      </trkpt>
      <trkpt lat="45.90414" lon="5.18427">
        <ele>222.4</ele>
        <time>2024-09-19T08:50:59Z</time>
      </trkpt>
      <trkpt lat="45.90409" lon="5.1843">
        <ele>221.8</ele>
        <time>2024-09-19T08:51:00Z</time>
      </trkpt>
      <trkpt lat="45.90404" lon="5.18432">
        <ele>222.2</ele>
        <time>2024-09-19T08:51:01Z</time>
      </trkpt>
      <trkpt lat="45.90399" lon="5.18434">
        <ele>221.4</ele>
        <time>2024-09-19T08:51:02Z</time>
      </trkpt>
      <trkpt lat="45.90394" lon="5.18436">
        <ele>221.2</ele>
        <time>2024-09-19T08:51:03Z</time>
      </trkpt>
      <trkpt lat="45.90388" lon="5.18438">
        <ele>221.6</ele>
        <time>2024-09-19T08:51:04Z</time>
      </trkpt>
      <trkpt lat="45.90383" lon="5.1844">
        <ele>221.2</ele>
        <time>2024-09-19T08:51:05Z</time>
      </trkpt>
      <trkpt lat="45.90377" lon="5.18443">
        <ele>221.6</ele>
        <time>2024-09-19T08:51:06Z</time>
      </trkpt>
      <trkpt lat="45.90371" lon="5.18444">
        <ele>221.6</ele>
        <time>2024-09-19T08:51:07Z</time>
      </trkpt>
      <trkpt lat="45.90365" lon="5.18446">
        <ele>221.2</ele>
        <time>2024-09-19T08:51:08Z</time>
      </trkpt>
      <trkpt lat="45.9036" lon="5.18449">
        <ele>221</ele>
        <time>2024-09-19T08:51:09Z</time>
      </trkpt>
      <trkpt lat="45.90354" lon="5.18451">
        <ele>220.6</ele>
        <time>2024-09-19T08:51:10Z</time>
      </trkpt>
      <trkpt lat="45.90349" lon="5.18453">
        <ele>220.8</ele>
        <time>2024-09-19T08:51:11Z</time>
      </trkpt>
      <trkpt lat="45.90343" lon="5.18455">
        <ele>221.6</ele>
        <time>2024-09-19T08:51:12Z</time>
      </trkpt>
      <trkpt lat="45.90337" lon="5.18458">
        <ele>221.6</ele>
        <time>2024-09-19T08:51:13Z</time>
      </trkpt>
      <trkpt lat="45.90332" lon="5.18459">
        <ele>222</ele>
        <time>2024-09-19T08:51:14Z</time>
      </trkpt>
      <trkpt lat="45.90326" lon="5.18462">
        <ele>222</ele>
        <time>2024-09-19T08:51:15Z</time>
      </trkpt>
      <trkpt lat="45.90321" lon="5.18463">
        <ele>222</ele>
        <time>2024-09-19T08:51:16Z</time>
      </trkpt>
      <trkpt lat="45.90315" lon="5.18464">
        <ele>222.4</ele>
        <time>2024-09-19T08:51:17Z</time>
      </trkpt>
      <trkpt lat="45.90309" lon="5.18464">
        <ele>221.8</ele>
        <time>2024-09-19T08:51:18Z</time>
      </trkpt>
      <trkpt lat="45.90303" lon="5.18465">
        <ele>221.8</ele>
        <time>2024-09-19T08:51:19Z</time>
      </trkpt>
      <trkpt lat="45.90298" lon="5.18466">
        <ele>221.6</ele>
        <time>2024-09-19T08:51:20Z</time>
      </trkpt>
      <trkpt lat="45.90293" lon="5.18467">
        <ele>221.4</ele>
        <time>2024-09-19T08:51:21Z</time>
      </trkpt>
      <trkpt lat="45.90286" lon="5.18467">
        <ele>221.6</ele>
        <time>2024-09-19T08:51:22Z</time>
      </trkpt>
      <trkpt lat="45.90281" lon="5.18468">
        <ele>221.2</ele>
        <time>2024-09-19T08:51:23Z</time>
      </trkpt>
      <trkpt lat="45.90275" lon="5.1847">
        <ele>221.2</ele>
        <time>2024-09-19T08:51:24Z</time>
      </trkpt>
      <trkpt lat="45.90269" lon="5.18474">
        <ele>220.6</ele>
        <time>2024-09-19T08:51:25Z</time>
      </trkpt>
      <trkpt lat="45.90264" lon="5.18477">
        <ele>220.6</ele>
        <time>2024-09-19T08:51:26Z</time>
      </trkpt>
      <trkpt lat="45.90258" lon="5.1848">
        <ele>220.8</ele>
        <time>2024-09-19T08:51:27Z</time>
      </trkpt>
      <trkpt lat="45.90252" lon="5.18481">
        <ele>220.4</ele>
        <time>2024-09-19T08:51:28Z</time>
      </trkpt>
      <trkpt lat="45.90247" lon="5.18484">
        <ele>220.8</ele>
        <time>2024-09-19T08:51:29Z</time>
      </trkpt>
      <trkpt lat="45.90242" lon="5.18488">
        <ele>221</ele>
        <time>2024-09-19T08:51:30Z</time>
      </trkpt>
      <trkpt lat="45.90237" lon="5.18493">
        <ele>220.8</ele>
        <time>2024-09-19T08:51:31Z</time>
      </trkpt>
      <trkpt lat="45.90233" lon="5.18496">
        <ele>220.8</ele>
        <time>2024-09-19T08:51:32Z</time>
      </trkpt>
      <trkpt lat="45.9023" lon="5.18502">
        <ele>220.8</ele>
        <time>2024-09-19T08:51:33Z</time>
      </trkpt>
      <trkpt lat="45.90226" lon="5.18507">
        <ele>221.2</ele>
        <time>2024-09-19T08:51:34Z</time>
      </trkpt>
      <trkpt lat="45.90222" lon="5.18509">
        <ele>220.8</ele>
        <time>2024-09-19T08:51:35Z</time>
      </trkpt>
      <trkpt lat="45.90218" lon="5.18513">
        <ele>221.2</ele>
        <time>2024-09-19T08:51:36Z</time>
      </trkpt>
      <trkpt lat="45.90215" lon="5.18515">
        <ele>221.2</ele>
        <time>2024-09-19T08:51:37Z</time>
      </trkpt>
      <trkpt lat="45.90213" lon="5.18517">
        <ele>221.4</ele>
        <time>2024-09-19T08:51:38Z</time>
      </trkpt>
      <trkpt lat="45.9021" lon="5.18519">
        <ele>221.6</ele>
        <time>2024-09-19T08:51:39Z</time>
      </trkpt>
      <trkpt lat="45.90209" lon="5.1852">
        <ele>221.6</ele>
        <time>2024-09-19T08:51:40Z</time>
      </trkpt>
      <trkpt lat="45.90206" lon="5.18522">
        <ele>221.6</ele>
        <time>2024-09-19T08:51:41Z</time>
      </trkpt>
      <trkpt lat="45.90204" lon="5.18524">
        <ele>221.8</ele>
        <time>2024-09-19T08:51:42Z</time>
      </trkpt>
      <trkpt lat="45.90204" lon="5.18524">
        <ele>221.8</ele>
        <time>2024-09-19T08:51:43Z</time>
      </trkpt>
      <trkpt lat="45.90204" lon="5.18524">
        <ele>221.8</ele>
        <time>2024-09-19T08:51:44Z</time>
      </trkpt>
      <trkpt lat="45.90204" lon="5.18524">
        <ele>221.8</ele>
        <time>2024-09-19T08:51:45Z</time>
      </trkpt>
      <trkpt lat="45.90202" lon="5.18526">
        <ele>221.8</ele>
        <time>2024-09-19T08:51:57Z</time>
      </trkpt>
      <trkpt lat="45.902" lon="5.18528">
        <ele>221.8</ele>
        <time>2024-09-19T08:51:58Z</time>
      </trkpt>
      <trkpt lat="45.90198" lon="5.1853">
        <ele>221.4</ele>
        <time>2024-09-19T08:51:59Z</time>
      </trkpt>
      <trkpt lat="45.90195" lon="5.18533">
        <ele>221.4</ele>
        <time>2024-09-19T08:52:00Z</time>
      </trkpt>
      <trkpt lat="45.90192" lon="5.18536">
        <ele>221.4</ele>
        <time>2024-09-19T08:52:01Z</time>
      </trkpt>
      <trkpt lat="45.90189" lon="5.18539">
        <ele>221.4</ele>
        <time>2024-09-19T08:52:02Z</time>
      </trkpt>
      <trkpt lat="45.90186" lon="5.18544">
        <ele>221.4</ele>
        <time>2024-09-19T08:52:03Z</time>
      </trkpt>
      <trkpt lat="45.90183" lon="5.18548">
        <ele>221.6</ele>
        <time>2024-09-19T08:52:04Z</time>
      </trkpt>
      <trkpt lat="45.90179" lon="5.18552">
        <ele>221.6</ele>
        <time>2024-09-19T08:52:05Z</time>
      </trkpt>
      <trkpt lat="45.90175" lon="5.18556">
        <ele>221.4</ele>
        <time>2024-09-19T08:52:06Z</time>
      </trkpt>
      <trkpt lat="45.9017" lon="5.1856">
        <ele>221</ele>
        <time>2024-09-19T08:52:07Z</time>
      </trkpt>
      <trkpt lat="45.90166" lon="5.18564">
        <ele>221</ele>
        <time>2024-09-19T08:52:08Z</time>
      </trkpt>
      <trkpt lat="45.90161" lon="5.18566">
        <ele>221.4</ele>
        <time>2024-09-19T08:52:09Z</time>
      </trkpt>
      <trkpt lat="45.90156" lon="5.18571">
        <ele>221.2</ele>
        <time>2024-09-19T08:52:10Z</time>
      </trkpt>
      <trkpt lat="45.90151" lon="5.18574">
        <ele>220.8</ele>
        <time>2024-09-19T08:52:11Z</time>
      </trkpt>
      <trkpt lat="45.90147" lon="5.18578">
        <ele>220.8</ele>
        <time>2024-09-19T08:52:12Z</time>
      </trkpt>
      <trkpt lat="45.90142" lon="5.18582">
        <ele>220.8</ele>
        <time>2024-09-19T08:52:13Z</time>
      </trkpt>
      <trkpt lat="45.90138" lon="5.18584">
        <ele>220.6</ele>
        <time>2024-09-19T08:52:14Z</time>
      </trkpt>
      <trkpt lat="45.90134" lon="5.18588">
        <ele>220.8</ele>
        <time>2024-09-19T08:52:15Z</time>
      </trkpt>
      <trkpt lat="45.90131" lon="5.1859">
        <ele>220.8</ele>
        <time>2024-09-19T08:52:16Z</time>
      </trkpt>
      <trkpt lat="45.90128" lon="5.18592">
        <ele>220.8</ele>
        <time>2024-09-19T08:52:17Z</time>
      </trkpt>
      <trkpt lat="45.90125" lon="5.18594">
        <ele>220.8</ele>
        <time>2024-09-19T08:52:18Z</time>
      </trkpt>
      <trkpt lat="45.90124" lon="5.18595">
        <ele>221</ele>
        <time>2024-09-19T08:52:19Z</time>
      </trkpt>
      <trkpt lat="45.90122" lon="5.18596">
        <ele>221</ele>
        <time>2024-09-19T08:52:20Z</time>
      </trkpt>
      <trkpt lat="45.90122" lon="5.18597">
        <ele>221</ele>
        <time>2024-09-19T08:52:21Z</time>
      </trkpt>
      <trkpt lat="45.90122" lon="5.18599">
        <ele>221</ele>
        <time>2024-09-19T08:52:22Z</time>
      </trkpt>
      <trkpt lat="45.90123" lon="5.18602">
        <ele>221</ele>
        <time>2024-09-19T08:52:23Z</time>
      </trkpt>
      <trkpt lat="45.90124" lon="5.18605">
        <ele>220.8</ele>
        <time>2024-09-19T08:52:24Z</time>
      </trkpt>
      <trkpt lat="45.90126" lon="5.18608">
        <ele>221</ele>
        <time>2024-09-19T08:52:25Z</time>
      </trkpt>
      <trkpt lat="45.90128" lon="5.18611">
        <ele>221</ele>
        <time>2024-09-19T08:52:26Z</time>
      </trkpt>
      <trkpt lat="45.90129" lon="5.18614">
        <ele>221</ele>
        <time>2024-09-19T08:52:27Z</time>
      </trkpt>
      <trkpt lat="45.90129" lon="5.18618">
        <ele>221</ele>
        <time>2024-09-19T08:52:28Z</time>
      </trkpt>
      <trkpt lat="45.90129" lon="5.18622">
        <ele>221</ele>
        <time>2024-09-19T08:52:29Z</time>
      </trkpt>
      <trkpt lat="45.90128" lon="5.18626">
        <ele>221</ele>
        <time>2024-09-19T08:52:30Z</time>
      </trkpt>
      <trkpt lat="45.90127" lon="5.18628">
        <ele>221</ele>
        <time>2024-09-19T08:52:31Z</time>
      </trkpt>
      <trkpt lat="45.90126" lon="5.18631">
        <ele>221</ele>
        <time>2024-09-19T08:52:32Z</time>
      </trkpt>
      <trkpt lat="45.90125" lon="5.18634">
        <ele>221</ele>
        <time>2024-09-19T08:52:33Z</time>
      </trkpt>
      <trkpt lat="45.90124" lon="5.18639">
        <ele>221</ele>
        <time>2024-09-19T08:52:34Z</time>
      </trkpt>
      <trkpt lat="45.90125" lon="5.18644">
        <ele>221</ele>
        <time>2024-09-19T08:52:35Z</time>
      </trkpt>
      <trkpt lat="45.90126" lon="5.1865">
        <ele>221</ele>
        <time>2024-09-19T08:52:36Z</time>
      </trkpt>
      <trkpt lat="45.90128" lon="5.18656">
        <ele>220.2</ele>
        <time>2024-09-19T08:52:37Z</time>
      </trkpt>
      <trkpt lat="45.90132" lon="5.18662">
        <ele>220.4</ele>
        <time>2024-09-19T08:52:38Z</time>
      </trkpt>
      <trkpt lat="45.90134" lon="5.18667">
        <ele>220.4</ele>
        <time>2024-09-19T08:52:39Z</time>
      </trkpt>
      <trkpt lat="45.90136" lon="5.18673">
        <ele>220.4</ele>
        <time>2024-09-19T08:52:40Z</time>
      </trkpt>
      <trkpt lat="45.90139" lon="5.1868">
        <ele>220.2</ele>
        <time>2024-09-19T08:52:41Z</time>
      </trkpt>
      <trkpt lat="45.90141" lon="5.18687">
        <ele>220.2</ele>
        <time>2024-09-19T08:52:42Z</time>
      </trkpt>
      <trkpt lat="45.90141" lon="5.18687">
        <ele>220.2</ele>
        <time>2024-09-19T08:52:43Z</time>
      </trkpt>
      <trkpt lat="45.90143" lon="5.18693">
        <ele>220.2</ele>
        <time>2024-09-19T08:52:44Z</time>
      </trkpt>
      <trkpt lat="45.90145" lon="5.18701">
        <ele>220.2</ele>
        <time>2024-09-19T08:52:45Z</time>
      </trkpt>
      <trkpt lat="45.90147" lon="5.18707">
        <ele>220.2</ele>
        <time>2024-09-19T08:52:46Z</time>
      </trkpt>
      <trkpt lat="45.90149" lon="5.18713">
        <ele>220.4</ele>
        <time>2024-09-19T08:52:47Z</time>
      </trkpt>
      <trkpt lat="45.90152" lon="5.18719">
        <ele>220.6</ele>
        <time>2024-09-19T08:52:48Z</time>
      </trkpt>
      <trkpt lat="45.90154" lon="5.18725">
        <ele>220.8</ele>
        <time>2024-09-19T08:52:49Z</time>
      </trkpt>
      <trkpt lat="45.90156" lon="5.18731">
        <ele>220.8</ele>
        <time>2024-09-19T08:52:50Z</time>
      </trkpt>
      <trkpt lat="45.90158" lon="5.18737">
        <ele>221.2</ele>
        <time>2024-09-19T08:52:51Z</time>
      </trkpt>
      <trkpt lat="45.90162" lon="5.18748">
        <ele>221.2</ele>
        <time>2024-09-19T08:52:52Z</time>
      </trkpt>
      <trkpt lat="45.90164" lon="5.18754">
        <ele>221.4</ele>
        <time>2024-09-19T08:52:53Z</time>
      </trkpt>
      <trkpt lat="45.90165" lon="5.18758">
        <ele>221.4</ele>
        <time>2024-09-19T08:52:54Z</time>
      </trkpt>
      <trkpt lat="45.90164" lon="5.18762">
        <ele>221.4</ele>
        <time>2024-09-19T08:52:55Z</time>
      </trkpt>
      <trkpt lat="45.90163" lon="5.18767">
        <ele>221.4</ele>
        <time>2024-09-19T08:52:56Z</time>
      </trkpt>
      <trkpt lat="45.9016" lon="5.18771">
        <ele>221.4</ele>
        <time>2024-09-19T08:52:57Z</time>
      </trkpt>
      <trkpt lat="45.90156" lon="5.18774">
        <ele>220.6</ele>
        <time>2024-09-19T08:52:58Z</time>
      </trkpt>
      <trkpt lat="45.90152" lon="5.18777">
        <ele>220.6</ele>
        <time>2024-09-19T08:52:59Z</time>
      </trkpt>
      <trkpt lat="45.90148" lon="5.18781">
        <ele>220.4</ele>
        <time>2024-09-19T08:53:00Z</time>
      </trkpt>
      <trkpt lat="45.90144" lon="5.18786">
        <ele>220.4</ele>
        <time>2024-09-19T08:53:01Z</time>
      </trkpt>
      <trkpt lat="45.9014" lon="5.18791">
        <ele>220.4</ele>
        <time>2024-09-19T08:53:02Z</time>
      </trkpt>
      <trkpt lat="45.90136" lon="5.18793">
        <ele>220.8</ele>
        <time>2024-09-19T08:53:03Z</time>
      </trkpt>
      <trkpt lat="45.90132" lon="5.18795">
        <ele>220.8</ele>
        <time>2024-09-19T08:53:04Z</time>
      </trkpt>
      <trkpt lat="45.90128" lon="5.18796">
        <ele>220.4</ele>
        <time>2024-09-19T08:53:05Z</time>
      </trkpt>
      <trkpt lat="45.90124" lon="5.18799">
        <ele>220.4</ele>
        <time>2024-09-19T08:53:06Z</time>
      </trkpt>
      <trkpt lat="45.9012" lon="5.18802">
        <ele>220.4</ele>
        <time>2024-09-19T08:53:07Z</time>
      </trkpt>
      <trkpt lat="45.90117" lon="5.18806">
        <ele>220.4</ele>
        <time>2024-09-19T08:53:08Z</time>
      </trkpt>
      <trkpt lat="45.90113" lon="5.1881">
        <ele>220.4</ele>
        <time>2024-09-19T08:53:09Z</time>
      </trkpt>
      <trkpt lat="45.9011" lon="5.18813">
        <ele>220.2</ele>
        <time>2024-09-19T08:53:10Z</time>
      </trkpt>
      <trkpt lat="45.90106" lon="5.18815">
        <ele>220.2</ele>
        <time>2024-09-19T08:53:11Z</time>
      </trkpt>
      <trkpt lat="45.90102" lon="5.18817">
        <ele>219.8</ele>
        <time>2024-09-19T08:53:12Z</time>
      </trkpt>
      <trkpt lat="45.90098" lon="5.18819">
        <ele>219.2</ele>
        <time>2024-09-19T08:53:13Z</time>
      </trkpt>
      <trkpt lat="45.90094" lon="5.18821">
        <ele>219.6</ele>
        <time>2024-09-19T08:53:14Z</time>
      </trkpt>
      <trkpt lat="45.90091" lon="5.18825">
        <ele>219.6</ele>
        <time>2024-09-19T08:53:15Z</time>
      </trkpt>
      <trkpt lat="45.90087" lon="5.18828">
        <ele>219.8</ele>
        <time>2024-09-19T08:53:16Z</time>
      </trkpt>
      <trkpt lat="45.90084" lon="5.1883">
        <ele>219.8</ele>
        <time>2024-09-19T08:53:17Z</time>
      </trkpt>
      <trkpt lat="45.90081" lon="5.18834">
        <ele>219.8</ele>
        <time>2024-09-19T08:53:18Z</time>
      </trkpt>
      <trkpt lat="45.90077" lon="5.18837">
        <ele>220</ele>
        <time>2024-09-19T08:53:19Z</time>
      </trkpt>
      <trkpt lat="45.90076" lon="5.18839">
        <ele>220</ele>
        <time>2024-09-19T08:53:20Z</time>
      </trkpt>
      <trkpt lat="45.90074" lon="5.18842">
        <ele>220.4</ele>
        <time>2024-09-19T08:53:21Z</time>
      </trkpt>
      <trkpt lat="45.90073" lon="5.18844">
        <ele>220.4</ele>
        <time>2024-09-19T08:53:22Z</time>
      </trkpt>
      <trkpt lat="45.90074" lon="5.18846">
        <ele>220.6</ele>
        <time>2024-09-19T08:53:23Z</time>
      </trkpt>
      <trkpt lat="45.90075" lon="5.18846">
        <ele>221</ele>
        <time>2024-09-19T08:53:24Z</time>
      </trkpt>
      <trkpt lat="45.90076" lon="5.18845">
        <ele>221.2</ele>
        <time>2024-09-19T08:53:25Z</time>
      </trkpt>
      <trkpt lat="45.90077" lon="5.18843">
        <ele>221.2</ele>
        <time>2024-09-19T08:53:26Z</time>
      </trkpt>
      <trkpt lat="45.90078" lon="5.18841">
        <ele>221.2</ele>
        <time>2024-09-19T08:53:27Z</time>
      </trkpt>
      <trkpt lat="45.90079" lon="5.18838">
        <ele>221.2</ele>
        <time>2024-09-19T08:53:28Z</time>
      </trkpt>
      <trkpt lat="45.90081" lon="5.18834">
        <ele>220.8</ele>
        <time>2024-09-19T08:53:29Z</time>
      </trkpt>
      <trkpt lat="45.90084" lon="5.18829">
        <ele>220.8</ele>
        <time>2024-09-19T08:53:30Z</time>
      </trkpt>
      <trkpt lat="45.90087" lon="5.18826">
        <ele>220.8</ele>
        <time>2024-09-19T08:53:31Z</time>
      </trkpt>
      <trkpt lat="45.90091" lon="5.18823">
        <ele>220.6</ele>
        <time>2024-09-19T08:53:32Z</time>
      </trkpt>
      <trkpt lat="45.90095" lon="5.1882">
        <ele>220.6</ele>
        <time>2024-09-19T08:53:33Z</time>
      </trkpt>
      <trkpt lat="45.90098" lon="5.18817">
        <ele>220.6</ele>
        <time>2024-09-19T08:53:34Z</time>
      </trkpt>
      <trkpt lat="45.90104" lon="5.18817">
        <ele>220.6</ele>
        <time>2024-09-19T08:53:35Z</time>
      </trkpt>
      <trkpt lat="45.90108" lon="5.18815">
        <ele>220.6</ele>
        <time>2024-09-19T08:53:36Z</time>
      </trkpt>
      <trkpt lat="45.90112" lon="5.18813">
        <ele>220.6</ele>
        <time>2024-09-19T08:53:37Z</time>
      </trkpt>
      <trkpt lat="45.90115" lon="5.1881">
        <ele>220.8</ele>
        <time>2024-09-19T08:53:38Z</time>
      </trkpt>
      <trkpt lat="45.90119" lon="5.18807">
        <ele>220.6</ele>
        <time>2024-09-19T08:53:39Z</time>
      </trkpt>
      <trkpt lat="45.90121" lon="5.18803">
        <ele>220.6</ele>
        <time>2024-09-19T08:53:40Z</time>
      </trkpt>
      <trkpt lat="45.90124" lon="5.188">
        <ele>220.2</ele>
        <time>2024-09-19T08:53:41Z</time>
      </trkpt>
      <trkpt lat="45.90126" lon="5.18797">
        <ele>220.2</ele>
        <time>2024-09-19T08:53:42Z</time>
      </trkpt>
      <trkpt lat="45.90128" lon="5.18796">
        <ele>220.6</ele>
        <time>2024-09-19T08:53:43Z</time>
      </trkpt>
      <trkpt lat="45.90129" lon="5.18795">
        <ele>220.6</ele>
        <time>2024-09-19T08:53:44Z</time>
      </trkpt>
      <trkpt lat="45.9013" lon="5.18794">
        <ele>220.6</ele>
        <time>2024-09-19T08:53:45Z</time>
      </trkpt>
      <trkpt lat="45.90132" lon="5.18794">
        <ele>220.8</ele>
        <time>2024-09-19T08:53:46Z</time>
      </trkpt>
      <trkpt lat="45.90134" lon="5.18793">
        <ele>220.8</ele>
        <time>2024-09-19T08:53:47Z</time>
      </trkpt>
      <trkpt lat="45.90136" lon="5.18792">
        <ele>220.8</ele>
        <time>2024-09-19T08:53:48Z</time>
      </trkpt>
      <trkpt lat="45.90139" lon="5.18791">
        <ele>220.8</ele>
        <time>2024-09-19T08:53:49Z</time>
      </trkpt>
      <trkpt lat="45.90141" lon="5.1879">
        <ele>220.8</ele>
        <time>2024-09-19T08:53:50Z</time>
      </trkpt>
      <trkpt lat="45.90144" lon="5.18789">
        <ele>220.8</ele>
        <time>2024-09-19T08:53:51Z</time>
      </trkpt>
      <trkpt lat="45.90147" lon="5.18786">
        <ele>220.8</ele>
        <time>2024-09-19T08:53:52Z</time>
      </trkpt>
      <trkpt lat="45.9015" lon="5.18782">
        <ele>220.8</ele>
        <time>2024-09-19T08:53:53Z</time>
      </trkpt>
      <trkpt lat="45.90153" lon="5.18778">
        <ele>220.8</ele>
        <time>2024-09-19T08:53:54Z</time>
      </trkpt>
      <trkpt lat="45.90156" lon="5.18774">
        <ele>221.2</ele>
        <time>2024-09-19T08:53:55Z</time>
      </trkpt>
      <trkpt lat="45.90158" lon="5.18771">
        <ele>221.2</ele>
        <time>2024-09-19T08:53:56Z</time>
      </trkpt>
      <trkpt lat="45.90161" lon="5.18768">
        <ele>221</ele>
        <time>2024-09-19T08:53:57Z</time>
      </trkpt>
      <trkpt lat="45.90163" lon="5.18766">
        <ele>221</ele>
        <time>2024-09-19T08:53:58Z</time>
      </trkpt>
      <trkpt lat="45.90165" lon="5.18764">
        <ele>221.4</ele>
        <time>2024-09-19T08:53:59Z</time>
      </trkpt>
      <trkpt lat="45.90167" lon="5.18763">
        <ele>221.6</ele>
        <time>2024-09-19T08:54:00Z</time>
      </trkpt>
      <trkpt lat="45.90169" lon="5.18764">
        <ele>221.6</ele>
        <time>2024-09-19T08:54:01Z</time>
      </trkpt>
      <trkpt lat="45.90171" lon="5.18767">
        <ele>221.8</ele>
        <time>2024-09-19T08:54:02Z</time>
      </trkpt>
      <trkpt lat="45.90173" lon="5.18772">
        <ele>221.8</ele>
        <time>2024-09-19T08:54:03Z</time>
      </trkpt>
      <trkpt lat="45.90174" lon="5.18777">
        <ele>221.8</ele>
        <time>2024-09-19T08:54:04Z</time>
      </trkpt>
      <trkpt lat="45.90175" lon="5.18782">
        <ele>221.8</ele>
        <time>2024-09-19T08:54:05Z</time>
      </trkpt>
      <trkpt lat="45.90176" lon="5.18787">
        <ele>221.8</ele>
        <time>2024-09-19T08:54:06Z</time>
      </trkpt>
      <trkpt lat="45.90177" lon="5.18792">
        <ele>221.8</ele>
        <time>2024-09-19T08:54:07Z</time>
      </trkpt>
      <trkpt lat="45.90178" lon="5.18797">
        <ele>221.8</ele>
        <time>2024-09-19T08:54:08Z</time>
      </trkpt>
      <trkpt lat="45.90179" lon="5.18802">
        <ele>221.6</ele>
        <time>2024-09-19T08:54:09Z</time>
      </trkpt>
      <trkpt lat="45.9018" lon="5.18807">
        <ele>220.8</ele>
        <time>2024-09-19T08:54:10Z</time>
      </trkpt>
      <trkpt lat="45.9018" lon="5.18812">
        <ele>221.6</ele>
        <time>2024-09-19T08:54:11Z</time>
      </trkpt>
      <trkpt lat="45.90181" lon="5.18816">
        <ele>221.6</ele>
        <time>2024-09-19T08:54:12Z</time>
      </trkpt>
      <trkpt lat="45.90182" lon="5.1882">
        <ele>221.6</ele>
        <time>2024-09-19T08:54:13Z</time>
      </trkpt>
      <trkpt lat="45.90183" lon="5.18823">
        <ele>221.8</ele>
        <time>2024-09-19T08:54:14Z</time>
      </trkpt>
      <trkpt lat="45.90184" lon="5.18828">
        <ele>222.2</ele>
        <time>2024-09-19T08:54:15Z</time>
      </trkpt>
      <trkpt lat="45.90184" lon="5.18832">
        <ele>222.2</ele>
        <time>2024-09-19T08:54:16Z</time>
      </trkpt>
      <trkpt lat="45.90185" lon="5.18836">
        <ele>222.2</ele>
        <time>2024-09-19T08:54:17Z</time>
      </trkpt>
      <trkpt lat="45.90186" lon="5.18841">
        <ele>222.2</ele>
        <time>2024-09-19T08:54:18Z</time>
      </trkpt>
      <trkpt lat="45.90186" lon="5.18846">
        <ele>222.6</ele>
        <time>2024-09-19T08:54:19Z</time>
      </trkpt>
      <trkpt lat="45.90186" lon="5.18852">
        <ele>222.6</ele>
        <time>2024-09-19T08:54:20Z</time>
      </trkpt>
      <trkpt lat="45.90187" lon="5.18857">
        <ele>222.6</ele>
        <time>2024-09-19T08:54:21Z</time>
      </trkpt>
      <trkpt lat="45.90187" lon="5.18863">
        <ele>222.6</ele>
        <time>2024-09-19T08:54:22Z</time>
      </trkpt>
      <trkpt lat="45.90187" lon="5.18868">
        <ele>222.6</ele>
        <time>2024-09-19T08:54:23Z</time>
      </trkpt>
      <trkpt lat="45.90187" lon="5.18874">
        <ele>222.6</ele>
        <time>2024-09-19T08:54:24Z</time>
      </trkpt>
      <trkpt lat="45.90187" lon="5.18881">
        <ele>222.6</ele>
        <time>2024-09-19T08:54:25Z</time>
      </trkpt>
      <trkpt lat="45.90186" lon="5.18887">
        <ele>222.6</ele>
        <time>2024-09-19T08:54:26Z</time>
      </trkpt>
      <trkpt lat="45.90186" lon="5.18893">
        <ele>222.6</ele>
        <time>2024-09-19T08:54:27Z</time>
      </trkpt>
      <trkpt lat="45.90185" lon="5.18899">
        <ele>222.6</ele>
        <time>2024-09-19T08:54:28Z</time>
      </trkpt>
      <trkpt lat="45.90185" lon="5.18906">
        <ele>222.2</ele>
        <time>2024-09-19T08:54:29Z</time>
      </trkpt>
      <trkpt lat="45.90185" lon="5.18912">
        <ele>222</ele>
        <time>2024-09-19T08:54:30Z</time>
      </trkpt>
      <trkpt lat="45.90186" lon="5.18919">
        <ele>221.6</ele>
        <time>2024-09-19T08:54:31Z</time>
      </trkpt>
      <trkpt lat="45.90187" lon="5.18925">
        <ele>221.4</ele>
        <time>2024-09-19T08:54:32Z</time>
      </trkpt>
      <trkpt lat="45.90187" lon="5.18931">
        <ele>221.4</ele>
        <time>2024-09-19T08:54:33Z</time>
      </trkpt>
      <trkpt lat="45.90187" lon="5.18937">
        <ele>221</ele>
        <time>2024-09-19T08:54:34Z</time>
      </trkpt>
      <trkpt lat="45.90185" lon="5.18942">
        <ele>221</ele>
        <time>2024-09-19T08:54:35Z</time>
      </trkpt>
      <trkpt lat="45.90185" lon="5.18948">
        <ele>221</ele>
        <time>2024-09-19T08:54:36Z</time>
      </trkpt>
      <trkpt lat="45.90181" lon="5.18952">
        <ele>221</ele>
        <time>2024-09-19T08:54:37Z</time>
      </trkpt>
      <trkpt lat="45.9018" lon="5.18958">
        <ele>221</ele>
        <time>2024-09-19T08:54:38Z</time>
      </trkpt>
      <trkpt lat="45.90177" lon="5.18962">
        <ele>221</ele>
        <time>2024-09-19T08:54:39Z</time>
      </trkpt>
      <trkpt lat="45.90174" lon="5.18967">
        <ele>221</ele>
        <time>2024-09-19T08:54:40Z</time>
      </trkpt>
      <trkpt lat="45.90172" lon="5.18969">
        <ele>221</ele>
        <time>2024-09-19T08:54:41Z</time>
      </trkpt>
      <trkpt lat="45.9017" lon="5.18971">
        <ele>221</ele>
        <time>2024-09-19T08:54:42Z</time>
      </trkpt>
      <trkpt lat="45.90169" lon="5.18974">
        <ele>221.4</ele>
        <time>2024-09-19T08:54:43Z</time>
      </trkpt>
      <trkpt lat="45.90168" lon="5.18975">
        <ele>221.4</ele>
        <time>2024-09-19T08:54:44Z</time>
      </trkpt>
      <trkpt lat="45.90167" lon="5.18976">
        <ele>221.6</ele>
        <time>2024-09-19T08:54:45Z</time>
      </trkpt>
      <trkpt lat="45.90166" lon="5.18978">
        <ele>221.6</ele>
        <time>2024-09-19T08:54:46Z</time>
      </trkpt>
      <trkpt lat="45.90163" lon="5.18978">
        <ele>221.6</ele>
        <time>2024-09-19T08:54:47Z</time>
      </trkpt>
      <trkpt lat="45.9016" lon="5.18977">
        <ele>221.4</ele>
        <time>2024-09-19T08:54:48Z</time>
      </trkpt>
      <trkpt lat="45.90157" lon="5.18974">
        <ele>221.4</ele>
        <time>2024-09-19T08:54:49Z</time>
      </trkpt>
      <trkpt lat="45.90154" lon="5.18973">
        <ele>221.4</ele>
        <time>2024-09-19T08:54:50Z</time>
      </trkpt>
      <trkpt lat="45.9015" lon="5.18971">
        <ele>221.4</ele>
        <time>2024-09-19T08:54:51Z</time>
      </trkpt>
      <trkpt lat="45.90145" lon="5.18972">
        <ele>221.4</ele>
        <time>2024-09-19T08:54:52Z</time>
      </trkpt>
      <trkpt lat="45.90141" lon="5.18976">
        <ele>221.4</ele>
        <time>2024-09-19T08:54:53Z</time>
      </trkpt>
      <trkpt lat="45.90139" lon="5.18981">
        <ele>221.4</ele>
        <time>2024-09-19T08:54:54Z</time>
      </trkpt>
      <trkpt lat="45.90137" lon="5.18987">
        <ele>221.4</ele>
        <time>2024-09-19T08:54:55Z</time>
      </trkpt>
      <trkpt lat="45.90137" lon="5.18993">
        <ele>221.4</ele>
        <time>2024-09-19T08:54:56Z</time>
      </trkpt>
      <trkpt lat="45.90138" lon="5.19">
        <ele>221.2</ele>
        <time>2024-09-19T08:54:57Z</time>
      </trkpt>
      <trkpt lat="45.9014" lon="5.19007">
        <ele>221.2</ele>
        <time>2024-09-19T08:54:58Z</time>
      </trkpt>
      <trkpt lat="45.9014" lon="5.19015">
        <ele>220.6</ele>
        <time>2024-09-19T08:54:59Z</time>
      </trkpt>
      <trkpt lat="45.90138" lon="5.19022">
        <ele>220.4</ele>
        <time>2024-09-19T08:55:00Z</time>
      </trkpt>
      <trkpt lat="45.90136" lon="5.1903">
        <ele>220.4</ele>
        <time>2024-09-19T08:55:01Z</time>
      </trkpt>
      <trkpt lat="45.90133" lon="5.19036">
        <ele>220.2</ele>
        <time>2024-09-19T08:55:02Z</time>
      </trkpt>
      <trkpt lat="45.90129" lon="5.19041">
        <ele>220.2</ele>
        <time>2024-09-19T08:55:03Z</time>
      </trkpt>
      <trkpt lat="45.90126" lon="5.19046">
        <ele>219.8</ele>
        <time>2024-09-19T08:55:04Z</time>
      </trkpt>
      <trkpt lat="45.90122" lon="5.19052">
        <ele>219.6</ele>
        <time>2024-09-19T08:55:05Z</time>
      </trkpt>
      <trkpt lat="45.90119" lon="5.19058">
        <ele>219.6</ele>
        <time>2024-09-19T08:55:06Z</time>
      </trkpt>
      <trkpt lat="45.90115" lon="5.19063">
        <ele>219.2</ele>
        <time>2024-09-19T08:55:07Z</time>
      </trkpt>
      <trkpt lat="45.90112" lon="5.19068">
        <ele>219.2</ele>
        <time>2024-09-19T08:55:08Z</time>
      </trkpt>
      <trkpt lat="45.90108" lon="5.19074">
        <ele>219.2</ele>
        <time>2024-09-19T08:55:09Z</time>
      </trkpt>
      <trkpt lat="45.90104" lon="5.19078">
        <ele>219.2</ele>
        <time>2024-09-19T08:55:10Z</time>
      </trkpt>
      <trkpt lat="45.901" lon="5.19083">
        <ele>219</ele>
        <time>2024-09-19T08:55:11Z</time>
      </trkpt>
      <trkpt lat="45.90096" lon="5.19091">
        <ele>219</ele>
        <time>2024-09-19T08:55:12Z</time>
      </trkpt>
      <trkpt lat="45.90095" lon="5.19099">
        <ele>219</ele>
        <time>2024-09-19T08:55:13Z</time>
      </trkpt>
      <trkpt lat="45.90093" lon="5.19106">
        <ele>219</ele>
        <time>2024-09-19T08:55:14Z</time>
      </trkpt>
      <trkpt lat="45.90094" lon="5.19114">
        <ele>219.2</ele>
        <time>2024-09-19T08:55:15Z</time>
      </trkpt>
      <trkpt lat="45.90094" lon="5.19121">
        <ele>219.2</ele>
        <time>2024-09-19T08:55:16Z</time>
      </trkpt>
      <trkpt lat="45.90096" lon="5.19129">
        <ele>219.2</ele>
        <time>2024-09-19T08:55:17Z</time>
      </trkpt>
      <trkpt lat="45.90097" lon="5.19137">
        <ele>219.2</ele>
        <time>2024-09-19T08:55:18Z</time>
      </trkpt>
      <trkpt lat="45.901" lon="5.19145">
        <ele>218.8</ele>
        <time>2024-09-19T08:55:19Z</time>
      </trkpt>
      <trkpt lat="45.90102" lon="5.19153">
        <ele>218.6</ele>
        <time>2024-09-19T08:55:20Z</time>
      </trkpt>
      <trkpt lat="45.90106" lon="5.1916">
        <ele>218.6</ele>
        <time>2024-09-19T08:55:21Z</time>
      </trkpt>
      <trkpt lat="45.90109" lon="5.19168">
        <ele>218.4</ele>
        <time>2024-09-19T08:55:22Z</time>
      </trkpt>
      <trkpt lat="45.90112" lon="5.19175">
        <ele>218.8</ele>
        <time>2024-09-19T08:55:23Z</time>
      </trkpt>
      <trkpt lat="45.90115" lon="5.19183">
        <ele>218.4</ele>
        <time>2024-09-19T08:55:24Z</time>
      </trkpt>
      <trkpt lat="45.90119" lon="5.19189">
        <ele>218.6</ele>
        <time>2024-09-19T08:55:25Z</time>
      </trkpt>
      <trkpt lat="45.90122" lon="5.19196">
        <ele>219</ele>
        <time>2024-09-19T08:55:26Z</time>
      </trkpt>
      <trkpt lat="45.90126" lon="5.19203">
        <ele>218.8</ele>
        <time>2024-09-19T08:55:27Z</time>
      </trkpt>
      <trkpt lat="45.90129" lon="5.19211">
        <ele>218.8</ele>
        <time>2024-09-19T08:55:28Z</time>
      </trkpt>
      <trkpt lat="45.90131" lon="5.19219">
        <ele>218.8</ele>
        <time>2024-09-19T08:55:29Z</time>
      </trkpt>
      <trkpt lat="45.90135" lon="5.19227">
        <ele>218.8</ele>
        <time>2024-09-19T08:55:30Z</time>
      </trkpt>
      <trkpt lat="45.90138" lon="5.19235">
        <ele>218.8</ele>
        <time>2024-09-19T08:55:31Z</time>
      </trkpt>
      <trkpt lat="45.90141" lon="5.19242">
        <ele>218.8</ele>
        <time>2024-09-19T08:55:32Z</time>
      </trkpt>
      <trkpt lat="45.90144" lon="5.1925">
        <ele>218.8</ele>
        <time>2024-09-19T08:55:33Z</time>
      </trkpt>
      <trkpt lat="45.90147" lon="5.19258">
        <ele>218.8</ele>
        <time>2024-09-19T08:55:34Z</time>
      </trkpt>
      <trkpt lat="45.90151" lon="5.19265">
        <ele>218.8</ele>
        <time>2024-09-19T08:55:35Z</time>
      </trkpt>
      <trkpt lat="45.90154" lon="5.19272">
        <ele>218.8</ele>
        <time>2024-09-19T08:55:36Z</time>
      </trkpt>
      <trkpt lat="45.90158" lon="5.19279">
        <ele>218.8</ele>
        <time>2024-09-19T08:55:37Z</time>
      </trkpt>
      <trkpt lat="45.90161" lon="5.19286">
        <ele>218.8</ele>
        <time>2024-09-19T08:55:38Z</time>
      </trkpt>
      <trkpt lat="45.90166" lon="5.19293">
        <ele>219</ele>
        <time>2024-09-19T08:55:39Z</time>
      </trkpt>
      <trkpt lat="45.9017" lon="5.19297">
        <ele>219</ele>
        <time>2024-09-19T08:55:40Z</time>
      </trkpt>
      <trkpt lat="45.90176" lon="5.193">
        <ele>219</ele>
        <time>2024-09-19T08:55:41Z</time>
      </trkpt>
      <trkpt lat="45.90182" lon="5.19302">
        <ele>219</ele>
        <time>2024-09-19T08:55:42Z</time>
      </trkpt>
      <trkpt lat="45.90185" lon="5.19308">
        <ele>219</ele>
        <time>2024-09-19T08:55:43Z</time>
      </trkpt>
      <trkpt lat="45.90188" lon="5.19315">
        <ele>219.8</ele>
        <time>2024-09-19T08:55:44Z</time>
      </trkpt>
      <trkpt lat="45.9019" lon="5.19321">
        <ele>219.8</ele>
        <time>2024-09-19T08:55:45Z</time>
      </trkpt>
      <trkpt lat="45.90192" lon="5.19327">
        <ele>219.8</ele>
        <time>2024-09-19T08:55:46Z</time>
      </trkpt>
      <trkpt lat="45.90194" lon="5.19333">
        <ele>219.8</ele>
        <time>2024-09-19T08:55:47Z</time>
      </trkpt>
      <trkpt lat="45.90195" lon="5.19339">
        <ele>220</ele>
        <time>2024-09-19T08:55:48Z</time>
      </trkpt>
      <trkpt lat="45.90197" lon="5.19345">
        <ele>220</ele>
        <time>2024-09-19T08:55:49Z</time>
      </trkpt>
      <trkpt lat="45.90199" lon="5.19351">
        <ele>220</ele>
        <time>2024-09-19T08:55:50Z</time>
      </trkpt>
      <trkpt lat="45.90201" lon="5.19356">
        <ele>220.4</ele>
        <time>2024-09-19T08:55:51Z</time>
      </trkpt>
      <trkpt lat="45.90203" lon="5.19361">
        <ele>220.4</ele>
        <time>2024-09-19T08:55:52Z</time>
      </trkpt>
      <trkpt lat="45.90207" lon="5.19365">
        <ele>220.4</ele>
        <time>2024-09-19T08:55:53Z</time>
      </trkpt>
      <trkpt lat="45.90211" lon="5.19365">
        <ele>220.4</ele>
        <time>2024-09-19T08:55:54Z</time>
      </trkpt>
      <trkpt lat="45.90215" lon="5.19363">
        <ele>220.8</ele>
        <time>2024-09-19T08:55:55Z</time>
      </trkpt>
      <trkpt lat="45.90218" lon="5.19362">
        <ele>220.8</ele>
        <time>2024-09-19T08:55:56Z</time>
      </trkpt>
      <trkpt lat="45.90218" lon="5.19362">
        <ele>220.8</ele>
        <time>2024-09-19T08:55:57Z</time>
      </trkpt>
      <trkpt lat="45.90222" lon="5.19363">
        <ele>220.8</ele>
        <time>2024-09-19T08:55:58Z</time>
      </trkpt>
      <trkpt lat="45.90225" lon="5.19367">
        <ele>220.8</ele>
        <time>2024-09-19T08:55:59Z</time>
      </trkpt>
      <trkpt lat="45.90227" lon="5.19371">
        <ele>220.8</ele>
        <time>2024-09-19T08:56:00Z</time>
      </trkpt>
      <trkpt lat="45.90229" lon="5.19376">
        <ele>220.8</ele>
        <time>2024-09-19T08:56:01Z</time>
      </trkpt>
      <trkpt lat="45.90231" lon="5.19381">
        <ele>220.8</ele>
        <time>2024-09-19T08:56:02Z</time>
      </trkpt>
      <trkpt lat="45.90233" lon="5.19387">
        <ele>220.8</ele>
        <time>2024-09-19T08:56:03Z</time>
      </trkpt>
      <trkpt lat="45.90236" lon="5.19393">
        <ele>220.6</ele>
        <time>2024-09-19T08:56:04Z</time>
      </trkpt>
      <trkpt lat="45.90238" lon="5.19399">
        <ele>220.6</ele>
        <time>2024-09-19T08:56:05Z</time>
      </trkpt>
      <trkpt lat="45.90243" lon="5.19412">
        <ele>220.6</ele>
        <time>2024-09-19T08:56:06Z</time>
      </trkpt>
      <trkpt lat="45.90246" lon="5.19418">
        <ele>220.6</ele>
        <time>2024-09-19T08:56:07Z</time>
      </trkpt>
      <trkpt lat="45.90249" lon="5.19425">
        <ele>220.6</ele>
        <time>2024-09-19T08:56:08Z</time>
      </trkpt>
      <trkpt lat="45.90252" lon="5.19432">
        <ele>220.2</ele>
        <time>2024-09-19T08:56:09Z</time>
      </trkpt>
      <trkpt lat="45.90254" lon="5.19438">
        <ele>220.2</ele>
        <time>2024-09-19T08:56:10Z</time>
      </trkpt>
      <trkpt lat="45.90257" lon="5.19445">
        <ele>219.8</ele>
        <time>2024-09-19T08:56:11Z</time>
      </trkpt>
      <trkpt lat="45.90259" lon="5.19452">
        <ele>219.8</ele>
        <time>2024-09-19T08:56:12Z</time>
      </trkpt>
      <trkpt lat="45.90262" lon="5.1946">
        <ele>219.8</ele>
        <time>2024-09-19T08:56:13Z</time>
      </trkpt>
      <trkpt lat="45.90265" lon="5.19467">
        <ele>219.8</ele>
        <time>2024-09-19T08:56:14Z</time>
      </trkpt>
      <trkpt lat="45.90267" lon="5.19474">
        <ele>219.8</ele>
        <time>2024-09-19T08:56:15Z</time>
      </trkpt>
      <trkpt lat="45.9027" lon="5.19482">
        <ele>219.8</ele>
        <time>2024-09-19T08:56:16Z</time>
      </trkpt>
      <trkpt lat="45.90272" lon="5.19489">
        <ele>219.8</ele>
        <time>2024-09-19T08:56:17Z</time>
      </trkpt>
      <trkpt lat="45.90275" lon="5.19496">
        <ele>219.6</ele>
        <time>2024-09-19T08:56:18Z</time>
      </trkpt>
      <trkpt lat="45.90277" lon="5.19503">
        <ele>219.6</ele>
        <time>2024-09-19T08:56:19Z</time>
      </trkpt>
      <trkpt lat="45.9028" lon="5.19511">
        <ele>219.6</ele>
        <time>2024-09-19T08:56:20Z</time>
      </trkpt>
      <trkpt lat="45.90282" lon="5.19518">
        <ele>219.6</ele>
        <time>2024-09-19T08:56:21Z</time>
      </trkpt>
      <trkpt lat="45.90285" lon="5.19525">
        <ele>219.6</ele>
        <time>2024-09-19T08:56:22Z</time>
      </trkpt>
      <trkpt lat="45.90288" lon="5.19532">
        <ele>219.6</ele>
        <time>2024-09-19T08:56:23Z</time>
      </trkpt>
      <trkpt lat="45.90291" lon="5.1954">
        <ele>219.6</ele>
        <time>2024-09-19T08:56:24Z</time>
      </trkpt>
      <trkpt lat="45.90294" lon="5.19547">
        <ele>219.6</ele>
        <time>2024-09-19T08:56:25Z</time>
      </trkpt>
      <trkpt lat="45.90294" lon="5.19547">
        <ele>219.6</ele>
        <time>2024-09-19T08:56:26Z</time>
      </trkpt>
      <trkpt lat="45.90294" lon="5.19547">
        <ele>219.6</ele>
        <time>2024-09-19T08:56:27Z</time>
      </trkpt>
      <trkpt lat="45.90303" lon="5.19579">
        <ele>219.2</ele>
        <time>2024-09-19T08:56:29Z</time>
      </trkpt>
      <trkpt lat="45.90304" lon="5.19587">
        <ele>219.2</ele>
        <time>2024-09-19T08:56:30Z</time>
      </trkpt>
      <trkpt lat="45.90306" lon="5.19596">
        <ele>219.2</ele>
        <time>2024-09-19T08:56:31Z</time>
      </trkpt>
      <trkpt lat="45.90308" lon="5.19603">
        <ele>219.2</ele>
        <time>2024-09-19T08:56:32Z</time>
      </trkpt>
      <trkpt lat="45.90309" lon="5.19612">
        <ele>219.2</ele>
        <time>2024-09-19T08:56:33Z</time>
      </trkpt>
      <trkpt lat="45.90311" lon="5.1962">
        <ele>219.2</ele>
        <time>2024-09-19T08:56:34Z</time>
      </trkpt>
      <trkpt lat="45.90313" lon="5.19628">
        <ele>219.4</ele>
        <time>2024-09-19T08:56:35Z</time>
      </trkpt>
      <trkpt lat="45.90314" lon="5.19636">
        <ele>219.4</ele>
        <time>2024-09-19T08:56:36Z</time>
      </trkpt>
      <trkpt lat="45.90316" lon="5.19644">
        <ele>219.4</ele>
        <time>2024-09-19T08:56:37Z</time>
      </trkpt>
      <trkpt lat="45.90318" lon="5.19652">
        <ele>219.4</ele>
        <time>2024-09-19T08:56:38Z</time>
      </trkpt>
      <trkpt lat="45.9032" lon="5.19661">
        <ele>219.4</ele>
        <time>2024-09-19T08:56:39Z</time>
      </trkpt>
      <trkpt lat="45.90321" lon="5.19668">
        <ele>219.4</ele>
        <time>2024-09-19T08:56:40Z</time>
      </trkpt>
      <trkpt lat="45.90324" lon="5.19676">
        <ele>219.4</ele>
        <time>2024-09-19T08:56:41Z</time>
      </trkpt>
      <trkpt lat="45.90326" lon="5.19684">
        <ele>219.4</ele>
        <time>2024-09-19T08:56:42Z</time>
      </trkpt>
      <trkpt lat="45.90328" lon="5.19692">
        <ele>219.4</ele>
        <time>2024-09-19T08:56:43Z</time>
      </trkpt>
      <trkpt lat="45.9033" lon="5.19699">
        <ele>219.4</ele>
        <time>2024-09-19T08:56:44Z</time>
      </trkpt>
      <trkpt lat="45.90332" lon="5.19707">
        <ele>219.4</ele>
        <time>2024-09-19T08:56:45Z</time>
      </trkpt>
      <trkpt lat="45.90334" lon="5.19715">
        <ele>219.8</ele>
        <time>2024-09-19T08:56:46Z</time>
      </trkpt>
      <trkpt lat="45.90337" lon="5.19724">
        <ele>219.8</ele>
        <time>2024-09-19T08:56:47Z</time>
      </trkpt>
      <trkpt lat="45.90339" lon="5.19731">
        <ele>219.8</ele>
        <time>2024-09-19T08:56:48Z</time>
      </trkpt>
      <trkpt lat="45.90341" lon="5.19739">
        <ele>219.8</ele>
        <time>2024-09-19T08:56:49Z</time>
      </trkpt>
      <trkpt lat="45.90343" lon="5.19747">
        <ele>220</ele>
        <time>2024-09-19T08:56:50Z</time>
      </trkpt>
      <trkpt lat="45.90346" lon="5.19754">
        <ele>220</ele>
        <time>2024-09-19T08:56:51Z</time>
      </trkpt>
      <trkpt lat="45.90348" lon="5.19761">
        <ele>220</ele>
        <time>2024-09-19T08:56:52Z</time>
      </trkpt>
      <trkpt lat="45.90351" lon="5.19768">
        <ele>220</ele>
        <time>2024-09-19T08:56:53Z</time>
      </trkpt>
      <trkpt lat="45.90354" lon="5.19775">
        <ele>220</ele>
        <time>2024-09-19T08:56:54Z</time>
      </trkpt>
      <trkpt lat="45.90357" lon="5.19781">
        <ele>220</ele>
        <time>2024-09-19T08:56:55Z</time>
      </trkpt>
      <trkpt lat="45.9036" lon="5.19787">
        <ele>220.6</ele>
        <time>2024-09-19T08:56:56Z</time>
      </trkpt>
      <trkpt lat="45.90363" lon="5.19793">
        <ele>220.8</ele>
        <time>2024-09-19T08:56:57Z</time>
      </trkpt>
      <trkpt lat="45.90367" lon="5.198">
        <ele>221</ele>
        <time>2024-09-19T08:56:58Z</time>
      </trkpt>
      <trkpt lat="45.9037" lon="5.19805">
        <ele>221</ele>
        <time>2024-09-19T08:56:59Z</time>
      </trkpt>
      <trkpt lat="45.9037" lon="5.19805">
        <ele>221.4</ele>
        <time>2024-09-19T08:57:00Z</time>
      </trkpt>
      <trkpt lat="45.9037" lon="5.19805">
        <ele>221.4</ele>
        <time>2024-09-19T08:57:01Z</time>
      </trkpt>
      <trkpt lat="45.90382" lon="5.1982">
        <ele>221.4</ele>
        <time>2024-09-19T08:57:02Z</time>
      </trkpt>
      <trkpt lat="45.90387" lon="5.19824">
        <ele>221.4</ele>
        <time>2024-09-19T08:57:03Z</time>
      </trkpt>
      <trkpt lat="45.90392" lon="5.19826">
        <ele>221.4</ele>
        <time>2024-09-19T08:57:04Z</time>
      </trkpt>
      <trkpt lat="45.90396" lon="5.19826">
        <ele>221.4</ele>
        <time>2024-09-19T08:57:05Z</time>
      </trkpt>
      <trkpt lat="45.90401" lon="5.19827">
        <ele>221.4</ele>
        <time>2024-09-19T08:57:06Z</time>
      </trkpt>
      <trkpt lat="45.90406" lon="5.19828">
        <ele>221.6</ele>
        <time>2024-09-19T08:57:07Z</time>
      </trkpt>
      <trkpt lat="45.90409" lon="5.19831">
        <ele>221.6</ele>
        <time>2024-09-19T08:57:08Z</time>
      </trkpt>
      <trkpt lat="45.90411" lon="5.19836">
        <ele>221.6</ele>
        <time>2024-09-19T08:57:09Z</time>
      </trkpt>
      <trkpt lat="45.9041" lon="5.19843">
        <ele>221.6</ele>
        <time>2024-09-19T08:57:10Z</time>
      </trkpt>
      <trkpt lat="45.90408" lon="5.19849">
        <ele>221</ele>
        <time>2024-09-19T08:57:11Z</time>
      </trkpt>
      <trkpt lat="45.90403" lon="5.19855">
        <ele>220.4</ele>
        <time>2024-09-19T08:57:12Z</time>
      </trkpt>
      <trkpt lat="45.90398" lon="5.19863">
        <ele>219.6</ele>
        <time>2024-09-19T08:57:13Z</time>
      </trkpt>
      <trkpt lat="45.90394" lon="5.1987">
        <ele>218.6</ele>
        <time>2024-09-19T08:57:14Z</time>
      </trkpt>
      <trkpt lat="45.90388" lon="5.1988">
        <ele>217.8</ele>
        <time>2024-09-19T08:57:15Z</time>
      </trkpt>
      <trkpt lat="45.90383" lon="5.1989">
        <ele>216.8</ele>
        <time>2024-09-19T08:57:16Z</time>
      </trkpt>
      <trkpt lat="45.90378" lon="5.19898">
        <ele>215.4</ele>
        <time>2024-09-19T08:57:17Z</time>
      </trkpt>
      <trkpt lat="45.90371" lon="5.19906">
        <ele>215.4</ele>
        <time>2024-09-19T08:57:18Z</time>
      </trkpt>
      <trkpt lat="45.90366" lon="5.19915">
        <ele>215.4</ele>
        <time>2024-09-19T08:57:19Z</time>
      </trkpt>
      <trkpt lat="45.9036" lon="5.19922">
        <ele>215.8</ele>
        <time>2024-09-19T08:57:20Z</time>
      </trkpt>
      <trkpt lat="45.90355" lon="5.19928">
        <ele>216.2</ele>
        <time>2024-09-19T08:57:21Z</time>
      </trkpt>
      <trkpt lat="45.9035" lon="5.19934">
        <ele>217</ele>
        <time>2024-09-19T08:57:22Z</time>
      </trkpt>
      <trkpt lat="45.90345" lon="5.19943">
        <ele>217.4</ele>
        <time>2024-09-19T08:57:23Z</time>
      </trkpt>
      <trkpt lat="45.90341" lon="5.19946">
        <ele>218.2</ele>
        <time>2024-09-19T08:57:24Z</time>
      </trkpt>
      <trkpt lat="45.90337" lon="5.19951">
        <ele>218.2</ele>
        <time>2024-09-19T08:57:25Z</time>
      </trkpt>
      <trkpt lat="45.90333" lon="5.19955">
        <ele>218.8</ele>
        <time>2024-09-19T08:57:26Z</time>
      </trkpt>
      <trkpt lat="45.90329" lon="5.19958">
        <ele>218.8</ele>
        <time>2024-09-19T08:57:27Z</time>
      </trkpt>
      <trkpt lat="45.90325" lon="5.19962">
        <ele>219.4</ele>
        <time>2024-09-19T08:57:28Z</time>
      </trkpt>
      <trkpt lat="45.9032" lon="5.19965">
        <ele>219.4</ele>
        <time>2024-09-19T08:57:29Z</time>
      </trkpt>
      <trkpt lat="45.90315" lon="5.19969">
        <ele>219.6</ele>
        <time>2024-09-19T08:57:30Z</time>
      </trkpt>
      <trkpt lat="45.9031" lon="5.19973">
        <ele>220</ele>
        <time>2024-09-19T08:57:31Z</time>
      </trkpt>
      <trkpt lat="45.90305" lon="5.19977">
        <ele>220</ele>
        <time>2024-09-19T08:57:32Z</time>
      </trkpt>
      <trkpt lat="45.90301" lon="5.19981">
        <ele>220</ele>
        <time>2024-09-19T08:57:33Z</time>
      </trkpt>
      <trkpt lat="45.90296" lon="5.19984">
        <ele>220</ele>
        <time>2024-09-19T08:57:34Z</time>
      </trkpt>
      <trkpt lat="45.9029" lon="5.19988">
        <ele>220</ele>
        <time>2024-09-19T08:57:35Z</time>
      </trkpt>
      <trkpt lat="45.90285" lon="5.1999">
        <ele>220</ele>
        <time>2024-09-19T08:57:36Z</time>
      </trkpt>
      <trkpt lat="45.9028" lon="5.19994">
        <ele>220</ele>
        <time>2024-09-19T08:57:37Z</time>
      </trkpt>
      <trkpt lat="45.90274" lon="5.19997">
        <ele>220</ele>
        <time>2024-09-19T08:57:38Z</time>
      </trkpt>
      <trkpt lat="45.90268" lon="5.19999">
        <ele>220</ele>
        <time>2024-09-19T08:57:39Z</time>
      </trkpt>
      <trkpt lat="45.90262" lon="5.20002">
        <ele>220</ele>
        <time>2024-09-19T08:57:40Z</time>
      </trkpt>
      <trkpt lat="45.90256" lon="5.20003">
        <ele>220</ele>
        <time>2024-09-19T08:57:41Z</time>
      </trkpt>
      <trkpt lat="45.9025" lon="5.2">
        <ele>220</ele>
        <time>2024-09-19T08:57:42Z</time>
      </trkpt>
      <trkpt lat="45.90245" lon="5.19998">
        <ele>220</ele>
        <time>2024-09-19T08:57:43Z</time>
      </trkpt>
      <trkpt lat="45.90239" lon="5.19996">
        <ele>220</ele>
        <time>2024-09-19T08:57:44Z</time>
      </trkpt>
      <trkpt lat="45.90233" lon="5.19998">
        <ele>219.6</ele>
        <time>2024-09-19T08:57:45Z</time>
      </trkpt>
      <trkpt lat="45.90227" lon="5.20002">
        <ele>219.4</ele>
        <time>2024-09-19T08:57:46Z</time>
      </trkpt>
      <trkpt lat="45.90223" lon="5.20008">
        <ele>219.4</ele>
        <time>2024-09-19T08:57:47Z</time>
      </trkpt>
      <trkpt lat="45.9022" lon="5.20016">
        <ele>219.4</ele>
        <time>2024-09-19T08:57:48Z</time>
      </trkpt>
      <trkpt lat="45.90216" lon="5.20023">
        <ele>219.4</ele>
        <time>2024-09-19T08:57:49Z</time>
      </trkpt>
      <trkpt lat="45.90213" lon="5.20031">
        <ele>219.4</ele>
        <time>2024-09-19T08:57:50Z</time>
      </trkpt>
      <trkpt lat="45.90207" lon="5.20036">
        <ele>219.2</ele>
        <time>2024-09-19T08:57:51Z</time>
      </trkpt>
      <trkpt lat="45.90202" lon="5.20041">
        <ele>218.8</ele>
        <time>2024-09-19T08:57:52Z</time>
      </trkpt>
      <trkpt lat="45.90196" lon="5.20046">
        <ele>218.8</ele>
        <time>2024-09-19T08:57:53Z</time>
      </trkpt>
      <trkpt lat="45.90191" lon="5.20053">
        <ele>218.8</ele>
        <time>2024-09-19T08:57:54Z</time>
      </trkpt>
      <trkpt lat="45.90186" lon="5.20058">
        <ele>218.6</ele>
        <time>2024-09-19T08:57:55Z</time>
      </trkpt>
      <trkpt lat="45.9018" lon="5.20063">
        <ele>218.8</ele>
        <time>2024-09-19T08:57:56Z</time>
      </trkpt>
      <trkpt lat="45.90174" lon="5.20067">
        <ele>218.8</ele>
        <time>2024-09-19T08:57:57Z</time>
      </trkpt>
      <trkpt lat="45.90169" lon="5.20071">
        <ele>219</ele>
        <time>2024-09-19T08:57:58Z</time>
      </trkpt>
      <trkpt lat="45.90163" lon="5.20075">
        <ele>219</ele>
        <time>2024-09-19T08:57:59Z</time>
      </trkpt>
      <trkpt lat="45.90157" lon="5.20078">
        <ele>219.2</ele>
        <time>2024-09-19T08:58:00Z</time>
      </trkpt>
      <trkpt lat="45.90151" lon="5.20082">
        <ele>219.2</ele>
        <time>2024-09-19T08:58:01Z</time>
      </trkpt>
      <trkpt lat="45.90145" lon="5.20085">
        <ele>219.4</ele>
        <time>2024-09-19T08:58:02Z</time>
      </trkpt>
      <trkpt lat="45.9014" lon="5.20089">
        <ele>219.4</ele>
        <time>2024-09-19T08:58:03Z</time>
      </trkpt>
      <trkpt lat="45.90134" lon="5.20093">
        <ele>219.4</ele>
        <time>2024-09-19T08:58:04Z</time>
      </trkpt>
      <trkpt lat="45.90128" lon="5.20097">
        <ele>219.4</ele>
        <time>2024-09-19T08:58:05Z</time>
      </trkpt>
      <trkpt lat="45.90122" lon="5.201">
        <ele>219.8</ele>
        <time>2024-09-19T08:58:06Z</time>
      </trkpt>
      <trkpt lat="45.90117" lon="5.20104">
        <ele>219.8</ele>
        <time>2024-09-19T08:58:07Z</time>
      </trkpt>
      <trkpt lat="45.90112" lon="5.20107">
        <ele>219.8</ele>
        <time>2024-09-19T08:58:08Z</time>
      </trkpt>
      <trkpt lat="45.90106" lon="5.2011">
        <ele>220.2</ele>
        <time>2024-09-19T08:58:09Z</time>
      </trkpt>
      <trkpt lat="45.90101" lon="5.20113">
        <ele>220.2</ele>
        <time>2024-09-19T08:58:10Z</time>
      </trkpt>
      <trkpt lat="45.90096" lon="5.20116">
        <ele>220.2</ele>
        <time>2024-09-19T08:58:11Z</time>
      </trkpt>
      <trkpt lat="45.9009" lon="5.20119">
        <ele>220.2</ele>
        <time>2024-09-19T08:58:12Z</time>
      </trkpt>
      <trkpt lat="45.90085" lon="5.20123">
        <ele>220.2</ele>
        <time>2024-09-19T08:58:13Z</time>
      </trkpt>
      <trkpt lat="45.90079" lon="5.20128">
        <ele>220.2</ele>
        <time>2024-09-19T08:58:14Z</time>
      </trkpt>
      <trkpt lat="45.90074" lon="5.20132">
        <ele>220.4</ele>
        <time>2024-09-19T08:58:15Z</time>
      </trkpt>
      <trkpt lat="45.90068" lon="5.20135">
        <ele>220.4</ele>
        <time>2024-09-19T08:58:16Z</time>
      </trkpt>
      <trkpt lat="45.90062" lon="5.20139">
        <ele>220.4</ele>
        <time>2024-09-19T08:58:17Z</time>
      </trkpt>
      <trkpt lat="45.90057" lon="5.20143">
        <ele>220.6</ele>
        <time>2024-09-19T08:58:18Z</time>
      </trkpt>
      <trkpt lat="45.90051" lon="5.20147">
        <ele>220.6</ele>
        <time>2024-09-19T08:58:19Z</time>
      </trkpt>
      <trkpt lat="45.90046" lon="5.20151">
        <ele>220.6</ele>
        <time>2024-09-19T08:58:20Z</time>
      </trkpt>
      <trkpt lat="45.9004" lon="5.20156">
        <ele>220.6</ele>
        <time>2024-09-19T08:58:21Z</time>
      </trkpt>
      <trkpt lat="45.90035" lon="5.2016">
        <ele>220.6</ele>
        <time>2024-09-19T08:58:22Z</time>
      </trkpt>
      <trkpt lat="45.9003" lon="5.20164">
        <ele>220.6</ele>
        <time>2024-09-19T08:58:23Z</time>
      </trkpt>
      <trkpt lat="45.90024" lon="5.20168">
        <ele>220.6</ele>
        <time>2024-09-19T08:58:24Z</time>
      </trkpt>
      <trkpt lat="45.90019" lon="5.20172">
        <ele>220.6</ele>
        <time>2024-09-19T08:58:25Z</time>
      </trkpt>
      <trkpt lat="45.90013" lon="5.20176">
        <ele>220.6</ele>
        <time>2024-09-19T08:58:26Z</time>
      </trkpt>
      <trkpt lat="45.90008" lon="5.2018">
        <ele>220.6</ele>
        <time>2024-09-19T08:58:27Z</time>
      </trkpt>
      <trkpt lat="45.90002" lon="5.20184">
        <ele>220.8</ele>
        <time>2024-09-19T08:58:28Z</time>
      </trkpt>
      <trkpt lat="45.89997" lon="5.20188">
        <ele>220.8</ele>
        <time>2024-09-19T08:58:29Z</time>
      </trkpt>
      <trkpt lat="45.89991" lon="5.20192">
        <ele>220.8</ele>
        <time>2024-09-19T08:58:30Z</time>
      </trkpt>
      <trkpt lat="45.89986" lon="5.20196">
        <ele>221</ele>
        <time>2024-09-19T08:58:31Z</time>
      </trkpt>
      <trkpt lat="45.89981" lon="5.202">
        <ele>221</ele>
        <time>2024-09-19T08:58:32Z</time>
      </trkpt>
      <trkpt lat="45.89977" lon="5.20205">
        <ele>221</ele>
        <time>2024-09-19T08:58:33Z</time>
      </trkpt>
      <trkpt lat="45.89972" lon="5.20209">
        <ele>221</ele>
        <time>2024-09-19T08:58:34Z</time>
      </trkpt>
      <trkpt lat="45.89967" lon="5.20213">
        <ele>221</ele>
        <time>2024-09-19T08:58:35Z</time>
      </trkpt>
      <trkpt lat="45.89962" lon="5.20218">
        <ele>221.2</ele>
        <time>2024-09-19T08:58:36Z</time>
      </trkpt>
      <trkpt lat="45.89958" lon="5.20222">
        <ele>221.2</ele>
        <time>2024-09-19T08:58:37Z</time>
      </trkpt>
      <trkpt lat="45.89953" lon="5.20226">
        <ele>221.2</ele>
        <time>2024-09-19T08:58:38Z</time>
      </trkpt>
      <trkpt lat="45.89948" lon="5.2023">
        <ele>221.2</ele>
        <time>2024-09-19T08:58:39Z</time>
      </trkpt>
      <trkpt lat="45.89944" lon="5.20234">
        <ele>221.2</ele>
        <time>2024-09-19T08:58:40Z</time>
      </trkpt>
      <trkpt lat="45.8994" lon="5.20239">
        <ele>221.6</ele>
        <time>2024-09-19T08:58:41Z</time>
      </trkpt>
      <trkpt lat="45.89936" lon="5.20243">
        <ele>221.6</ele>
        <time>2024-09-19T08:58:42Z</time>
      </trkpt>
      <trkpt lat="45.89931" lon="5.20247">
        <ele>221.6</ele>
        <time>2024-09-19T08:58:43Z</time>
      </trkpt>
      <trkpt lat="45.89927" lon="5.20251">
        <ele>221.6</ele>
        <time>2024-09-19T08:58:44Z</time>
      </trkpt>
      <trkpt lat="45.89922" lon="5.20255">
        <ele>221.6</ele>
        <time>2024-09-19T08:58:45Z</time>
      </trkpt>
      <trkpt lat="45.89918" lon="5.2026">
        <ele>221.8</ele>
        <time>2024-09-19T08:58:46Z</time>
      </trkpt>
      <trkpt lat="45.89913" lon="5.20264">
        <ele>221.8</ele>
        <time>2024-09-19T08:58:47Z</time>
      </trkpt>
      <trkpt lat="45.89908" lon="5.20268">
        <ele>221.8</ele>
        <time>2024-09-19T08:58:48Z</time>
      </trkpt>
      <trkpt lat="45.89903" lon="5.20273">
        <ele>221.6</ele>
        <time>2024-09-19T08:58:49Z</time>
      </trkpt>
      <trkpt lat="45.89897" lon="5.20278">
        <ele>221.6</ele>
        <time>2024-09-19T08:58:50Z</time>
      </trkpt>
      <trkpt lat="45.89892" lon="5.20283">
        <ele>221.4</ele>
        <time>2024-09-19T08:58:51Z</time>
      </trkpt>
      <trkpt lat="45.89887" lon="5.20287">
        <ele>221.4</ele>
        <time>2024-09-19T08:58:52Z</time>
      </trkpt>
      <trkpt lat="45.89882" lon="5.20292">
        <ele>221.4</ele>
        <time>2024-09-19T08:58:53Z</time>
      </trkpt>
      <trkpt lat="45.89876" lon="5.20297">
        <ele>221</ele>
        <time>2024-09-19T08:58:54Z</time>
      </trkpt>
      <trkpt lat="45.89871" lon="5.20302">
        <ele>221</ele>
        <time>2024-09-19T08:58:55Z</time>
      </trkpt>
      <trkpt lat="45.89867" lon="5.20307">
        <ele>221</ele>
        <time>2024-09-19T08:58:56Z</time>
      </trkpt>
      <trkpt lat="45.89862" lon="5.20313">
        <ele>221</ele>
        <time>2024-09-19T08:58:57Z</time>
      </trkpt>
      <trkpt lat="45.89857" lon="5.20318">
        <ele>221</ele>
        <time>2024-09-19T08:58:58Z</time>
      </trkpt>
      <trkpt lat="45.89852" lon="5.20324">
        <ele>221.2</ele>
        <time>2024-09-19T08:58:59Z</time>
      </trkpt>
      <trkpt lat="45.89848" lon="5.2033">
        <ele>221.2</ele>
        <time>2024-09-19T08:59:00Z</time>
      </trkpt>
      <trkpt lat="45.89843" lon="5.20336">
        <ele>221.2</ele>
        <time>2024-09-19T08:59:01Z</time>
      </trkpt>
      <trkpt lat="45.89839" lon="5.20343">
        <ele>221.2</ele>
        <time>2024-09-19T08:59:02Z</time>
      </trkpt>
      <trkpt lat="45.89835" lon="5.20348">
        <ele>221.2</ele>
        <time>2024-09-19T08:59:03Z</time>
      </trkpt>
      <trkpt lat="45.89831" lon="5.20354">
        <ele>221.6</ele>
        <time>2024-09-19T08:59:04Z</time>
      </trkpt>
      <trkpt lat="45.89826" lon="5.2036">
        <ele>221.6</ele>
        <time>2024-09-19T08:59:05Z</time>
      </trkpt>
      <trkpt lat="45.89822" lon="5.20367">
        <ele>221.6</ele>
        <time>2024-09-19T08:59:06Z</time>
      </trkpt>
      <trkpt lat="45.89818" lon="5.20373">
        <ele>221.6</ele>
        <time>2024-09-19T08:59:07Z</time>
      </trkpt>
      <trkpt lat="45.89815" lon="5.20379">
        <ele>221.8</ele>
        <time>2024-09-19T08:59:08Z</time>
      </trkpt>
      <trkpt lat="45.89811" lon="5.20386">
        <ele>221.8</ele>
        <time>2024-09-19T08:59:09Z</time>
      </trkpt>
      <trkpt lat="45.89811" lon="5.20386">
        <ele>221.8</ele>
        <time>2024-09-19T08:59:10Z</time>
      </trkpt>
      <trkpt lat="45.89807" lon="5.20392">
        <ele>221.8</ele>
        <time>2024-09-19T08:59:11Z</time>
      </trkpt>
      <trkpt lat="45.89803" lon="5.20399">
        <ele>221.8</ele>
        <time>2024-09-19T08:59:12Z</time>
      </trkpt>
      <trkpt lat="45.89799" lon="5.20405">
        <ele>221.8</ele>
        <time>2024-09-19T08:59:13Z</time>
      </trkpt>
      <trkpt lat="45.89795" lon="5.20411">
        <ele>221.8</ele>
        <time>2024-09-19T08:59:14Z</time>
      </trkpt>
      <trkpt lat="45.89791" lon="5.20417">
        <ele>221.8</ele>
        <time>2024-09-19T08:59:15Z</time>
      </trkpt>
      <trkpt lat="45.89787" lon="5.20423">
        <ele>221.8</ele>
        <time>2024-09-19T08:59:16Z</time>
      </trkpt>
      <trkpt lat="45.89783" lon="5.20429">
        <ele>221.4</ele>
        <time>2024-09-19T08:59:17Z</time>
      </trkpt>
      <trkpt lat="45.89779" lon="5.20435">
        <ele>221.4</ele>
        <time>2024-09-19T08:59:18Z</time>
      </trkpt>
      <trkpt lat="45.89775" lon="5.20441">
        <ele>221.4</ele>
        <time>2024-09-19T08:59:19Z</time>
      </trkpt>
      <trkpt lat="45.89771" lon="5.20447">
        <ele>221.4</ele>
        <time>2024-09-19T08:59:20Z</time>
      </trkpt>
      <trkpt lat="45.89762" lon="5.2046">
        <ele>221</ele>
        <time>2024-09-19T08:59:21Z</time>
      </trkpt>
      <trkpt lat="45.8976" lon="5.20466">
        <ele>220.6</ele>
        <time>2024-09-19T08:59:22Z</time>
      </trkpt>
      <trkpt lat="45.89755" lon="5.20472">
        <ele>220.4</ele>
        <time>2024-09-19T08:59:23Z</time>
      </trkpt>
      <trkpt lat="45.8975" lon="5.2048">
        <ele>220.4</ele>
        <time>2024-09-19T08:59:24Z</time>
      </trkpt>
      <trkpt lat="45.89746" lon="5.20487">
        <ele>220.4</ele>
        <time>2024-09-19T08:59:25Z</time>
      </trkpt>
      <trkpt lat="45.8974" lon="5.20494">
        <ele>220</ele>
        <time>2024-09-19T08:59:26Z</time>
      </trkpt>
      <trkpt lat="45.89735" lon="5.20502">
        <ele>219.6</ele>
        <time>2024-09-19T08:59:27Z</time>
      </trkpt>
      <trkpt lat="45.8973" lon="5.2051">
        <ele>219.2</ele>
        <time>2024-09-19T08:59:28Z</time>
      </trkpt>
      <trkpt lat="45.89725" lon="5.20518">
        <ele>218.8</ele>
        <time>2024-09-19T08:59:29Z</time>
      </trkpt>
      <trkpt lat="45.89719" lon="5.20526">
        <ele>218.6</ele>
        <time>2024-09-19T08:59:30Z</time>
      </trkpt>
      <trkpt lat="45.89713" lon="5.20533">
        <ele>218.2</ele>
        <time>2024-09-19T08:59:31Z</time>
      </trkpt>
      <trkpt lat="45.89708" lon="5.20542">
        <ele>217.8</ele>
        <time>2024-09-19T08:59:32Z</time>
      </trkpt>
      <trkpt lat="45.89703" lon="5.20549">
        <ele>217.6</ele>
        <time>2024-09-19T08:59:33Z</time>
      </trkpt>
      <trkpt lat="45.89697" lon="5.20557">
        <ele>217.6</ele>
        <time>2024-09-19T08:59:34Z</time>
      </trkpt>
      <trkpt lat="45.89692" lon="5.20564">
        <ele>217.4</ele>
        <time>2024-09-19T08:59:35Z</time>
      </trkpt>
      <trkpt lat="45.89687" lon="5.20571">
        <ele>217.4</ele>
        <time>2024-09-19T08:59:36Z</time>
      </trkpt>
      <trkpt lat="45.89682" lon="5.20579">
        <ele>217.4</ele>
        <time>2024-09-19T08:59:37Z</time>
      </trkpt>
      <trkpt lat="45.89678" lon="5.20586">
        <ele>215.6</ele>
        <time>2024-09-19T08:59:38Z</time>
      </trkpt>
      <trkpt lat="45.89673" lon="5.20593">
        <ele>216.2</ele>
        <time>2024-09-19T08:59:39Z</time>
      </trkpt>
      <trkpt lat="45.8967" lon="5.206">
        <ele>216.8</ele>
        <time>2024-09-19T08:59:40Z</time>
      </trkpt>
      <trkpt lat="45.89667" lon="5.20607">
        <ele>217.4</ele>
        <time>2024-09-19T08:59:41Z</time>
      </trkpt>
      <trkpt lat="45.89665" lon="5.20614">
        <ele>217.4</ele>
        <time>2024-09-19T08:59:42Z</time>
      </trkpt>
      <trkpt lat="45.89663" lon="5.20622">
        <ele>217.6</ele>
        <time>2024-09-19T08:59:43Z</time>
      </trkpt>
      <trkpt lat="45.89661" lon="5.2063">
        <ele>217.6</ele>
        <time>2024-09-19T08:59:44Z</time>
      </trkpt>
      <trkpt lat="45.89659" lon="5.20637">
        <ele>217.6</ele>
        <time>2024-09-19T08:59:45Z</time>
      </trkpt>
      <trkpt lat="45.89657" lon="5.20645">
        <ele>217</ele>
        <time>2024-09-19T08:59:46Z</time>
      </trkpt>
      <trkpt lat="45.89656" lon="5.20653">
        <ele>217</ele>
        <time>2024-09-19T08:59:47Z</time>
      </trkpt>
      <trkpt lat="45.89655" lon="5.2066">
        <ele>218</ele>
        <time>2024-09-19T08:59:48Z</time>
      </trkpt>
      <trkpt lat="45.89653" lon="5.20666">
        <ele>218.6</ele>
        <time>2024-09-19T08:59:49Z</time>
      </trkpt>
      <trkpt lat="45.89652" lon="5.20672">
        <ele>219</ele>
        <time>2024-09-19T08:59:50Z</time>
      </trkpt>
      <trkpt lat="45.89651" lon="5.20678">
        <ele>219.4</ele>
        <time>2024-09-19T08:59:51Z</time>
      </trkpt>
      <trkpt lat="45.8965" lon="5.20683">
        <ele>219.4</ele>
        <time>2024-09-19T08:59:52Z</time>
      </trkpt>
      <trkpt lat="45.89649" lon="5.20689">
        <ele>220</ele>
        <time>2024-09-19T08:59:53Z</time>
      </trkpt>
      <trkpt lat="45.89647" lon="5.20694">
        <ele>220.4</ele>
        <time>2024-09-19T08:59:54Z</time>
      </trkpt>
      <trkpt lat="45.89646" lon="5.20699">
        <ele>220.8</ele>
        <time>2024-09-19T08:59:55Z</time>
      </trkpt>
      <trkpt lat="45.89645" lon="5.20704">
        <ele>221</ele>
        <time>2024-09-19T08:59:56Z</time>
      </trkpt>
      <trkpt lat="45.89643" lon="5.2071">
        <ele>221.4</ele>
        <time>2024-09-19T08:59:57Z</time>
      </trkpt>
      <trkpt lat="45.89642" lon="5.20716">
        <ele>221.4</ele>
        <time>2024-09-19T08:59:58Z</time>
      </trkpt>
      <trkpt lat="45.89641" lon="5.20721">
        <ele>221.8</ele>
        <time>2024-09-19T08:59:59Z</time>
      </trkpt>
      <trkpt lat="45.89639" lon="5.20727">
        <ele>221.8</ele>
        <time>2024-09-19T09:00:00Z</time>
      </trkpt>
      <trkpt lat="45.89638" lon="5.20732">
        <ele>222</ele>
        <time>2024-09-19T09:00:01Z</time>
      </trkpt>
      <trkpt lat="45.89636" lon="5.20738">
        <ele>222</ele>
        <time>2024-09-19T09:00:02Z</time>
      </trkpt>
      <trkpt lat="45.89635" lon="5.20744">
        <ele>222</ele>
        <time>2024-09-19T09:00:03Z</time>
      </trkpt>
      <trkpt lat="45.89633" lon="5.20749">
        <ele>222.4</ele>
        <time>2024-09-19T09:00:04Z</time>
      </trkpt>
      <trkpt lat="45.89632" lon="5.20756">
        <ele>222.4</ele>
        <time>2024-09-19T09:00:05Z</time>
      </trkpt>
      <trkpt lat="45.89631" lon="5.20762">
        <ele>222.4</ele>
        <time>2024-09-19T09:00:06Z</time>
      </trkpt>
      <trkpt lat="45.8963" lon="5.20768">
        <ele>222.6</ele>
        <time>2024-09-19T09:00:07Z</time>
      </trkpt>
      <trkpt lat="45.89628" lon="5.20774">
        <ele>222.6</ele>
        <time>2024-09-19T09:00:08Z</time>
      </trkpt>
      <trkpt lat="45.89626" lon="5.20779">
        <ele>222.6</ele>
        <time>2024-09-19T09:00:09Z</time>
      </trkpt>
      <trkpt lat="45.89625" lon="5.20785">
        <ele>222.6</ele>
        <time>2024-09-19T09:00:10Z</time>
      </trkpt>
      <trkpt lat="45.89624" lon="5.20792">
        <ele>222.6</ele>
        <time>2024-09-19T09:00:11Z</time>
      </trkpt>
      <trkpt lat="45.89623" lon="5.20798">
        <ele>222.6</ele>
        <time>2024-09-19T09:00:12Z</time>
      </trkpt>
      <trkpt lat="45.89621" lon="5.20804">
        <ele>222.6</ele>
        <time>2024-09-19T09:00:13Z</time>
      </trkpt>
      <trkpt lat="45.89619" lon="5.20811">
        <ele>222.8</ele>
        <time>2024-09-19T09:00:14Z</time>
      </trkpt>
      <trkpt lat="45.89618" lon="5.20817">
        <ele>222.8</ele>
        <time>2024-09-19T09:00:15Z</time>
      </trkpt>
      <trkpt lat="45.89616" lon="5.20823">
        <ele>222.8</ele>
        <time>2024-09-19T09:00:16Z</time>
      </trkpt>
      <trkpt lat="45.89614" lon="5.20829">
        <ele>222.8</ele>
        <time>2024-09-19T09:00:17Z</time>
      </trkpt>
      <trkpt lat="45.89612" lon="5.20835">
        <ele>222.8</ele>
        <time>2024-09-19T09:00:18Z</time>
      </trkpt>
      <trkpt lat="45.8961" lon="5.20842">
        <ele>222.8</ele>
        <time>2024-09-19T09:00:19Z</time>
      </trkpt>
      <trkpt lat="45.89608" lon="5.20849">
        <ele>223</ele>
        <time>2024-09-19T09:00:20Z</time>
      </trkpt>
      <trkpt lat="45.89605" lon="5.20856">
        <ele>223</ele>
        <time>2024-09-19T09:00:21Z</time>
      </trkpt>
      <trkpt lat="45.89603" lon="5.20863">
        <ele>223</ele>
        <time>2024-09-19T09:00:22Z</time>
      </trkpt>
      <trkpt lat="45.89601" lon="5.20869">
        <ele>223</ele>
        <time>2024-09-19T09:00:23Z</time>
      </trkpt>
      <trkpt lat="45.89598" lon="5.20876">
        <ele>223</ele>
        <time>2024-09-19T09:00:24Z</time>
      </trkpt>
      <trkpt lat="45.89595" lon="5.20883">
        <ele>223</ele>
        <time>2024-09-19T09:00:25Z</time>
      </trkpt>
      <trkpt lat="45.89593" lon="5.2089">
        <ele>223</ele>
        <time>2024-09-19T09:00:26Z</time>
      </trkpt>
      <trkpt lat="45.89591" lon="5.20899">
        <ele>222.8</ele>
        <time>2024-09-19T09:00:27Z</time>
      </trkpt>
      <trkpt lat="45.89588" lon="5.20905">
        <ele>222.8</ele>
        <time>2024-09-19T09:00:28Z</time>
      </trkpt>
      <trkpt lat="45.89585" lon="5.20912">
        <ele>222.8</ele>
        <time>2024-09-19T09:00:29Z</time>
      </trkpt>
      <trkpt lat="45.89582" lon="5.20919">
        <ele>222.8</ele>
        <time>2024-09-19T09:00:30Z</time>
      </trkpt>
      <trkpt lat="45.8958" lon="5.20927">
        <ele>222.8</ele>
        <time>2024-09-19T09:00:31Z</time>
      </trkpt>
      <trkpt lat="45.89577" lon="5.20935">
        <ele>222.8</ele>
        <time>2024-09-19T09:00:32Z</time>
      </trkpt>
      <trkpt lat="45.89574" lon="5.20942">
        <ele>222.8</ele>
        <time>2024-09-19T09:00:33Z</time>
      </trkpt>
      <trkpt lat="45.8957" lon="5.20949">
        <ele>222.8</ele>
        <time>2024-09-19T09:00:34Z</time>
      </trkpt>
      <trkpt lat="45.89567" lon="5.20956">
        <ele>222.8</ele>
        <time>2024-09-19T09:00:35Z</time>
      </trkpt>
      <trkpt lat="45.89564" lon="5.20963">
        <ele>222.6</ele>
        <time>2024-09-19T09:00:36Z</time>
      </trkpt>
      <trkpt lat="45.89561" lon="5.20971">
        <ele>222.6</ele>
        <time>2024-09-19T09:00:37Z</time>
      </trkpt>
      <trkpt lat="45.89557" lon="5.20978">
        <ele>222.6</ele>
        <time>2024-09-19T09:00:38Z</time>
      </trkpt>
      <trkpt lat="45.89554" lon="5.20985">
        <ele>222.6</ele>
        <time>2024-09-19T09:00:39Z</time>
      </trkpt>
      <trkpt lat="45.89552" lon="5.20992">
        <ele>222.6</ele>
        <time>2024-09-19T09:00:40Z</time>
      </trkpt>
      <trkpt lat="45.89548" lon="5.20999">
        <ele>222.6</ele>
        <time>2024-09-19T09:00:41Z</time>
      </trkpt>
      <trkpt lat="45.89545" lon="5.21006">
        <ele>222.8</ele>
        <time>2024-09-19T09:00:42Z</time>
      </trkpt>
      <trkpt lat="45.89542" lon="5.21013">
        <ele>223.2</ele>
        <time>2024-09-19T09:00:43Z</time>
      </trkpt>
      <trkpt lat="45.89539" lon="5.21021">
        <ele>223.2</ele>
        <time>2024-09-19T09:00:44Z</time>
      </trkpt>
      <trkpt lat="45.89536" lon="5.21028">
        <ele>223.2</ele>
        <time>2024-09-19T09:00:45Z</time>
      </trkpt>
      <trkpt lat="45.89533" lon="5.21035">
        <ele>223.2</ele>
        <time>2024-09-19T09:00:46Z</time>
      </trkpt>
      <trkpt lat="45.8953" lon="5.21042">
        <ele>223.2</ele>
        <time>2024-09-19T09:00:47Z</time>
      </trkpt>
      <trkpt lat="45.89527" lon="5.2105">
        <ele>222.8</ele>
        <time>2024-09-19T09:00:48Z</time>
      </trkpt>
      <trkpt lat="45.89524" lon="5.21058">
        <ele>222.8</ele>
        <time>2024-09-19T09:00:49Z</time>
      </trkpt>
      <trkpt lat="45.89521" lon="5.21066">
        <ele>222.6</ele>
        <time>2024-09-19T09:00:50Z</time>
      </trkpt>
      <trkpt lat="45.89518" lon="5.21075">
        <ele>222.6</ele>
        <time>2024-09-19T09:00:51Z</time>
      </trkpt>
      <trkpt lat="45.89514" lon="5.21083">
        <ele>222.6</ele>
        <time>2024-09-19T09:00:52Z</time>
      </trkpt>
      <trkpt lat="45.89511" lon="5.21092">
        <ele>222</ele>
        <time>2024-09-19T09:00:53Z</time>
      </trkpt>
      <trkpt lat="45.89508" lon="5.21101">
        <ele>221.8</ele>
        <time>2024-09-19T09:00:54Z</time>
      </trkpt>
      <trkpt lat="45.89505" lon="5.21109">
        <ele>221.8</ele>
        <time>2024-09-19T09:00:55Z</time>
      </trkpt>
      <trkpt lat="45.89502" lon="5.21118">
        <ele>221.6</ele>
        <time>2024-09-19T09:00:56Z</time>
      </trkpt>
      <trkpt lat="45.89498" lon="5.21126">
        <ele>221.4</ele>
        <time>2024-09-19T09:00:57Z</time>
      </trkpt>
      <trkpt lat="45.89495" lon="5.21135">
        <ele>221</ele>
        <time>2024-09-19T09:00:58Z</time>
      </trkpt>
      <trkpt lat="45.89492" lon="5.21144">
        <ele>220.6</ele>
        <time>2024-09-19T09:00:59Z</time>
      </trkpt>
      <trkpt lat="45.89489" lon="5.21153">
        <ele>220.2</ele>
        <time>2024-09-19T09:01:00Z</time>
      </trkpt>
      <trkpt lat="45.89485" lon="5.21162">
        <ele>220.2</ele>
        <time>2024-09-19T09:01:01Z</time>
      </trkpt>
      <trkpt lat="45.89482" lon="5.2117">
        <ele>220.2</ele>
        <time>2024-09-19T09:01:02Z</time>
      </trkpt>
      <trkpt lat="45.89479" lon="5.21179">
        <ele>220.2</ele>
        <time>2024-09-19T09:01:03Z</time>
      </trkpt>
      <trkpt lat="45.89476" lon="5.21187">
        <ele>219.8</ele>
        <time>2024-09-19T09:01:04Z</time>
      </trkpt>
      <trkpt lat="45.89473" lon="5.21196">
        <ele>219.8</ele>
        <time>2024-09-19T09:01:05Z</time>
      </trkpt>
      <trkpt lat="45.8947" lon="5.21204">
        <ele>219.6</ele>
        <time>2024-09-19T09:01:06Z</time>
      </trkpt>
      <trkpt lat="45.89467" lon="5.21212">
        <ele>219.6</ele>
        <time>2024-09-19T09:01:07Z</time>
      </trkpt>
      <trkpt lat="45.89464" lon="5.2122">
        <ele>219.8</ele>
        <time>2024-09-19T09:01:08Z</time>
      </trkpt>
      <trkpt lat="45.89461" lon="5.21228">
        <ele>219.6</ele>
        <time>2024-09-19T09:01:09Z</time>
      </trkpt>
      <trkpt lat="45.89458" lon="5.21236">
        <ele>219.6</ele>
        <time>2024-09-19T09:01:10Z</time>
      </trkpt>
      <trkpt lat="45.89455" lon="5.21244">
        <ele>219.6</ele>
        <time>2024-09-19T09:01:11Z</time>
      </trkpt>
      <trkpt lat="45.89453" lon="5.21252">
        <ele>219.6</ele>
        <time>2024-09-19T09:01:12Z</time>
      </trkpt>
      <trkpt lat="45.8945" lon="5.21259">
        <ele>219.8</ele>
        <time>2024-09-19T09:01:13Z</time>
      </trkpt>
      <trkpt lat="45.89447" lon="5.21266">
        <ele>220.2</ele>
        <time>2024-09-19T09:01:14Z</time>
      </trkpt>
      <trkpt lat="45.89445" lon="5.21272">
        <ele>220.6</ele>
        <time>2024-09-19T09:01:15Z</time>
      </trkpt>
      <trkpt lat="45.89443" lon="5.21279">
        <ele>220.6</ele>
        <time>2024-09-19T09:01:16Z</time>
      </trkpt>
      <trkpt lat="45.89441" lon="5.21285">
        <ele>220.8</ele>
        <time>2024-09-19T09:01:17Z</time>
      </trkpt>
      <trkpt lat="45.8944" lon="5.2129">
        <ele>221.2</ele>
        <time>2024-09-19T09:01:18Z</time>
      </trkpt>
      <trkpt lat="45.8944" lon="5.21295">
        <ele>221.4</ele>
        <time>2024-09-19T09:01:19Z</time>
      </trkpt>
      <trkpt lat="45.89442" lon="5.213">
        <ele>221.2</ele>
        <time>2024-09-19T09:01:20Z</time>
      </trkpt>
      <trkpt lat="45.89444" lon="5.21304">
        <ele>221.4</ele>
        <time>2024-09-19T09:01:21Z</time>
      </trkpt>
      <trkpt lat="45.89447" lon="5.21306">
        <ele>221.4</ele>
        <time>2024-09-19T09:01:22Z</time>
      </trkpt>
      <trkpt lat="45.8945" lon="5.2131">
        <ele>221.4</ele>
        <time>2024-09-19T09:01:23Z</time>
      </trkpt>
      <trkpt lat="45.89454" lon="5.21313">
        <ele>221.4</ele>
        <time>2024-09-19T09:01:24Z</time>
      </trkpt>
      <trkpt lat="45.89458" lon="5.21316">
        <ele>221.6</ele>
        <time>2024-09-19T09:01:25Z</time>
      </trkpt>
      <trkpt lat="45.89462" lon="5.21319">
        <ele>221.8</ele>
        <time>2024-09-19T09:01:26Z</time>
      </trkpt>
      <trkpt lat="45.89466" lon="5.21323">
        <ele>222.2</ele>
        <time>2024-09-19T09:01:27Z</time>
      </trkpt>
      <trkpt lat="45.8947" lon="5.21327">
        <ele>222.2</ele>
        <time>2024-09-19T09:01:28Z</time>
      </trkpt>
      <trkpt lat="45.89473" lon="5.2133">
        <ele>222.2</ele>
        <time>2024-09-19T09:01:29Z</time>
      </trkpt>
      <trkpt lat="45.89478" lon="5.21334">
        <ele>222.4</ele>
        <time>2024-09-19T09:01:30Z</time>
      </trkpt>
      <trkpt lat="45.89481" lon="5.21337">
        <ele>222.4</ele>
        <time>2024-09-19T09:01:31Z</time>
      </trkpt>
      <trkpt lat="45.89485" lon="5.2134">
        <ele>222.4</ele>
        <time>2024-09-19T09:01:32Z</time>
      </trkpt>
      <trkpt lat="45.8949" lon="5.21343">
        <ele>222.4</ele>
        <time>2024-09-19T09:01:33Z</time>
      </trkpt>
      <trkpt lat="45.89494" lon="5.21347">
        <ele>222.4</ele>
        <time>2024-09-19T09:01:34Z</time>
      </trkpt>
      <trkpt lat="45.89497" lon="5.21351">
        <ele>222.4</ele>
        <time>2024-09-19T09:01:35Z</time>
      </trkpt>
      <trkpt lat="45.89501" lon="5.21355">
        <ele>222.2</ele>
        <time>2024-09-19T09:01:36Z</time>
      </trkpt>
      <trkpt lat="45.89505" lon="5.21358">
        <ele>222.2</ele>
        <time>2024-09-19T09:01:37Z</time>
      </trkpt>
      <trkpt lat="45.89509" lon="5.21362">
        <ele>222.2</ele>
        <time>2024-09-19T09:01:38Z</time>
      </trkpt>
      <trkpt lat="45.89513" lon="5.21365">
        <ele>222.2</ele>
        <time>2024-09-19T09:01:39Z</time>
      </trkpt>
      <trkpt lat="45.89517" lon="5.21369">
        <ele>222.2</ele>
        <time>2024-09-19T09:01:40Z</time>
      </trkpt>
      <trkpt lat="45.89521" lon="5.21373">
        <ele>222.6</ele>
        <time>2024-09-19T09:01:41Z</time>
      </trkpt>
      <trkpt lat="45.89525" lon="5.21377">
        <ele>222.8</ele>
        <time>2024-09-19T09:01:42Z</time>
      </trkpt>
      <trkpt lat="45.8953" lon="5.21381">
        <ele>222.8</ele>
        <time>2024-09-19T09:01:43Z</time>
      </trkpt>
      <trkpt lat="45.89534" lon="5.21385">
        <ele>223.2</ele>
        <time>2024-09-19T09:01:44Z</time>
      </trkpt>
      <trkpt lat="45.89539" lon="5.21389">
        <ele>223.4</ele>
        <time>2024-09-19T09:01:45Z</time>
      </trkpt>
      <trkpt lat="45.89543" lon="5.21394">
        <ele>223.2</ele>
        <time>2024-09-19T09:01:46Z</time>
      </trkpt>
      <trkpt lat="45.89547" lon="5.21398">
        <ele>223.6</ele>
        <time>2024-09-19T09:01:47Z</time>
      </trkpt>
      <trkpt lat="45.89552" lon="5.21402">
        <ele>223.6</ele>
        <time>2024-09-19T09:01:48Z</time>
      </trkpt>
      <trkpt lat="45.89556" lon="5.21407">
        <ele>223.6</ele>
        <time>2024-09-19T09:01:49Z</time>
      </trkpt>
      <trkpt lat="45.8956" lon="5.21411">
        <ele>223.8</ele>
        <time>2024-09-19T09:01:50Z</time>
      </trkpt>
      <trkpt lat="45.89564" lon="5.21416">
        <ele>223.6</ele>
        <time>2024-09-19T09:01:51Z</time>
      </trkpt>
      <trkpt lat="45.89568" lon="5.21422">
        <ele>223.2</ele>
        <time>2024-09-19T09:01:52Z</time>
      </trkpt>
      <trkpt lat="45.89572" lon="5.21427">
        <ele>223.2</ele>
        <time>2024-09-19T09:01:53Z</time>
      </trkpt>
      <trkpt lat="45.89577" lon="5.21431">
        <ele>223.2</ele>
        <time>2024-09-19T09:01:54Z</time>
      </trkpt>
      <trkpt lat="45.89581" lon="5.21436">
        <ele>223.6</ele>
        <time>2024-09-19T09:01:55Z</time>
      </trkpt>
      <trkpt lat="45.89585" lon="5.2144">
        <ele>223.6</ele>
        <time>2024-09-19T09:01:56Z</time>
      </trkpt>
      <trkpt lat="45.89589" lon="5.21445">
        <ele>223.6</ele>
        <time>2024-09-19T09:01:57Z</time>
      </trkpt>
      <trkpt lat="45.89594" lon="5.21449">
        <ele>223.2</ele>
        <time>2024-09-19T09:01:58Z</time>
      </trkpt>
      <trkpt lat="45.89598" lon="5.21453">
        <ele>223.2</ele>
        <time>2024-09-19T09:01:59Z</time>
      </trkpt>
      <trkpt lat="45.89602" lon="5.21456">
        <ele>222.8</ele>
        <time>2024-09-19T09:02:00Z</time>
      </trkpt>
      <trkpt lat="45.89607" lon="5.21459">
        <ele>222.8</ele>
        <time>2024-09-19T09:02:01Z</time>
      </trkpt>
      <trkpt lat="45.89612" lon="5.21462">
        <ele>222.8</ele>
        <time>2024-09-19T09:02:02Z</time>
      </trkpt>
      <trkpt lat="45.89617" lon="5.21465">
        <ele>222.8</ele>
        <time>2024-09-19T09:02:03Z</time>
      </trkpt>
      <trkpt lat="45.89622" lon="5.21469">
        <ele>222.6</ele>
        <time>2024-09-19T09:02:04Z</time>
      </trkpt>
      <trkpt lat="45.89626" lon="5.21472">
        <ele>222.6</ele>
        <time>2024-09-19T09:02:05Z</time>
      </trkpt>
      <trkpt lat="45.89631" lon="5.21475">
        <ele>222.6</ele>
        <time>2024-09-19T09:02:06Z</time>
      </trkpt>
      <trkpt lat="45.89635" lon="5.21478">
        <ele>222</ele>
        <time>2024-09-19T09:02:07Z</time>
      </trkpt>
      <trkpt lat="45.8964" lon="5.21482">
        <ele>221.8</ele>
        <time>2024-09-19T09:02:08Z</time>
      </trkpt>
      <trkpt lat="45.89644" lon="5.21485">
        <ele>221.8</ele>
        <time>2024-09-19T09:02:09Z</time>
      </trkpt>
      <trkpt lat="45.89648" lon="5.21488">
        <ele>222.2</ele>
        <time>2024-09-19T09:02:10Z</time>
      </trkpt>
      <trkpt lat="45.89653" lon="5.21492">
        <ele>222.6</ele>
        <time>2024-09-19T09:02:11Z</time>
      </trkpt>
      <trkpt lat="45.89658" lon="5.21495">
        <ele>222.6</ele>
        <time>2024-09-19T09:02:12Z</time>
      </trkpt>
      <trkpt lat="45.89663" lon="5.21499">
        <ele>223</ele>
        <time>2024-09-19T09:02:13Z</time>
      </trkpt>
      <trkpt lat="45.89668" lon="5.21502">
        <ele>223</ele>
        <time>2024-09-19T09:02:14Z</time>
      </trkpt>
      <trkpt lat="45.89672" lon="5.21505">
        <ele>223</ele>
        <time>2024-09-19T09:02:15Z</time>
      </trkpt>
      <trkpt lat="45.89677" lon="5.21509">
        <ele>222.4</ele>
        <time>2024-09-19T09:02:16Z</time>
      </trkpt>
      <trkpt lat="45.89681" lon="5.21512">
        <ele>222.4</ele>
        <time>2024-09-19T09:02:17Z</time>
      </trkpt>
      <trkpt lat="45.89685" lon="5.21515">
        <ele>222.4</ele>
        <time>2024-09-19T09:02:18Z</time>
      </trkpt>
      <trkpt lat="45.8969" lon="5.21518">
        <ele>222.4</ele>
        <time>2024-09-19T09:02:19Z</time>
      </trkpt>
      <trkpt lat="45.89694" lon="5.21522">
        <ele>222</ele>
        <time>2024-09-19T09:02:20Z</time>
      </trkpt>
      <trkpt lat="45.89699" lon="5.21525">
        <ele>221.8</ele>
        <time>2024-09-19T09:02:21Z</time>
      </trkpt>
      <trkpt lat="45.89703" lon="5.21529">
        <ele>221.8</ele>
        <time>2024-09-19T09:02:22Z</time>
      </trkpt>
      <trkpt lat="45.89708" lon="5.21532">
        <ele>222</ele>
        <time>2024-09-19T09:02:23Z</time>
      </trkpt>
      <trkpt lat="45.89712" lon="5.21535">
        <ele>222.6</ele>
        <time>2024-09-19T09:02:24Z</time>
      </trkpt>
      <trkpt lat="45.89716" lon="5.21537">
        <ele>222.6</ele>
        <time>2024-09-19T09:02:25Z</time>
      </trkpt>
      <trkpt lat="45.89721" lon="5.21541">
        <ele>222.6</ele>
        <time>2024-09-19T09:02:26Z</time>
      </trkpt>
      <trkpt lat="45.89725" lon="5.21544">
        <ele>223</ele>
        <time>2024-09-19T09:02:27Z</time>
      </trkpt>
      <trkpt lat="45.89725" lon="5.21544">
        <ele>223</ele>
        <time>2024-09-19T09:02:28Z</time>
      </trkpt>
      <trkpt lat="45.8973" lon="5.21548">
        <ele>223.2</ele>
        <time>2024-09-19T09:02:29Z</time>
      </trkpt>
      <trkpt lat="45.89734" lon="5.21552">
        <ele>223.2</ele>
        <time>2024-09-19T09:02:30Z</time>
      </trkpt>
      <trkpt lat="45.89739" lon="5.21556">
        <ele>223</ele>
        <time>2024-09-19T09:02:31Z</time>
      </trkpt>
      <trkpt lat="45.89743" lon="5.2156">
        <ele>223</ele>
        <time>2024-09-19T09:02:32Z</time>
      </trkpt>
      <trkpt lat="45.89747" lon="5.21563">
        <ele>223</ele>
        <time>2024-09-19T09:02:33Z</time>
      </trkpt>
      <trkpt lat="45.89751" lon="5.21568">
        <ele>223</ele>
        <time>2024-09-19T09:02:34Z</time>
      </trkpt>
      <trkpt lat="45.89755" lon="5.21572">
        <ele>223</ele>
        <time>2024-09-19T09:02:35Z</time>
      </trkpt>
      <trkpt lat="45.89759" lon="5.21576">
        <ele>223</ele>
        <time>2024-09-19T09:02:36Z</time>
      </trkpt>
      <trkpt lat="45.89768" lon="5.21584">
        <ele>223</ele>
        <time>2024-09-19T09:02:37Z</time>
      </trkpt>
      <trkpt lat="45.89772" lon="5.21589">
        <ele>223</ele>
        <time>2024-09-19T09:02:38Z</time>
      </trkpt>
      <trkpt lat="45.89776" lon="5.21594">
        <ele>223</ele>
        <time>2024-09-19T09:02:39Z</time>
      </trkpt>
      <trkpt lat="45.8978" lon="5.21599">
        <ele>223</ele>
        <time>2024-09-19T09:02:40Z</time>
      </trkpt>
      <trkpt lat="45.89784" lon="5.21603">
        <ele>223</ele>
        <time>2024-09-19T09:02:41Z</time>
      </trkpt>
      <trkpt lat="45.89788" lon="5.21608">
        <ele>223.6</ele>
        <time>2024-09-19T09:02:42Z</time>
      </trkpt>
      <trkpt lat="45.89792" lon="5.21612">
        <ele>223.2</ele>
        <time>2024-09-19T09:02:43Z</time>
      </trkpt>
      <trkpt lat="45.89796" lon="5.21617">
        <ele>223</ele>
        <time>2024-09-19T09:02:44Z</time>
      </trkpt>
      <trkpt lat="45.898" lon="5.21621">
        <ele>222.6</ele>
        <time>2024-09-19T09:02:45Z</time>
      </trkpt>
      <trkpt lat="45.89804" lon="5.21626">
        <ele>222.6</ele>
        <time>2024-09-19T09:02:46Z</time>
      </trkpt>
      <trkpt lat="45.89808" lon="5.21631">
        <ele>223</ele>
        <time>2024-09-19T09:02:47Z</time>
      </trkpt>
      <trkpt lat="45.89812" lon="5.21635">
        <ele>223</ele>
        <time>2024-09-19T09:02:48Z</time>
      </trkpt>
      <trkpt lat="45.89816" lon="5.2164">
        <ele>223</ele>
        <time>2024-09-19T09:02:49Z</time>
      </trkpt>
      <trkpt lat="45.8982" lon="5.21644">
        <ele>222.6</ele>
        <time>2024-09-19T09:02:50Z</time>
      </trkpt>
      <trkpt lat="45.89825" lon="5.21648">
        <ele>223</ele>
        <time>2024-09-19T09:02:51Z</time>
      </trkpt>
      <trkpt lat="45.89829" lon="5.21652">
        <ele>223</ele>
        <time>2024-09-19T09:02:52Z</time>
      </trkpt>
      <trkpt lat="45.89833" lon="5.21656">
        <ele>222.6</ele>
        <time>2024-09-19T09:02:53Z</time>
      </trkpt>
      <trkpt lat="45.89837" lon="5.2166">
        <ele>222.6</ele>
        <time>2024-09-19T09:02:54Z</time>
      </trkpt>
      <trkpt lat="45.89841" lon="5.21663">
        <ele>223</ele>
        <time>2024-09-19T09:02:55Z</time>
      </trkpt>
      <trkpt lat="45.89845" lon="5.21667">
        <ele>223</ele>
        <time>2024-09-19T09:02:56Z</time>
      </trkpt>
      <trkpt lat="45.89848" lon="5.21671">
        <ele>223.4</ele>
        <time>2024-09-19T09:02:57Z</time>
      </trkpt>
      <trkpt lat="45.89851" lon="5.21674">
        <ele>223.4</ele>
        <time>2024-09-19T09:02:58Z</time>
      </trkpt>
      <trkpt lat="45.89853" lon="5.21676">
        <ele>223.8</ele>
        <time>2024-09-19T09:02:59Z</time>
      </trkpt>
      <trkpt lat="45.89855" lon="5.21677">
        <ele>224</ele>
        <time>2024-09-19T09:03:00Z</time>
      </trkpt>
      <trkpt lat="45.89855" lon="5.21677">
        <ele>224</ele>
        <time>2024-09-19T09:03:01Z</time>
      </trkpt>
      <trkpt lat="45.89855" lon="5.21677">
        <ele>224.4</ele>
        <time>2024-09-19T09:03:02Z</time>
      </trkpt>
      <trkpt lat="45.89855" lon="5.21677">
        <ele>224.4</ele>
        <time>2024-09-19T09:03:03Z</time>
      </trkpt>
      <trkpt lat="45.89858" lon="5.21679">
        <ele>224</ele>
        <time>2024-09-19T09:04:16Z</time>
      </trkpt>
      <trkpt lat="45.89859" lon="5.21681">
        <ele>223.8</ele>
        <time>2024-09-19T09:04:17Z</time>
      </trkpt>
      <trkpt lat="45.89861" lon="5.21682">
        <ele>223.8</ele>
        <time>2024-09-19T09:04:18Z</time>
      </trkpt>
      <trkpt lat="45.89863" lon="5.21684">
        <ele>223.8</ele>
        <time>2024-09-19T09:04:19Z</time>
      </trkpt>
      <trkpt lat="45.89865" lon="5.21687">
        <ele>223.8</ele>
        <time>2024-09-19T09:04:20Z</time>
      </trkpt>
      <trkpt lat="45.89867" lon="5.2169">
        <ele>223.8</ele>
        <time>2024-09-19T09:04:21Z</time>
      </trkpt>
      <trkpt lat="45.8987" lon="5.21692">
        <ele>223.4</ele>
        <time>2024-09-19T09:04:22Z</time>
      </trkpt>
      <trkpt lat="45.89873" lon="5.21696">
        <ele>223.4</ele>
        <time>2024-09-19T09:04:23Z</time>
      </trkpt>
      <trkpt lat="45.89877" lon="5.21699">
        <ele>223.6</ele>
        <time>2024-09-19T09:04:24Z</time>
      </trkpt>
      <trkpt lat="45.8988" lon="5.21702">
        <ele>223.6</ele>
        <time>2024-09-19T09:04:25Z</time>
      </trkpt>
      <trkpt lat="45.89884" lon="5.21706">
        <ele>223.6</ele>
        <time>2024-09-19T09:04:26Z</time>
      </trkpt>
      <trkpt lat="45.89887" lon="5.2171">
        <ele>223.6</ele>
        <time>2024-09-19T09:04:27Z</time>
      </trkpt>
      <trkpt lat="45.89891" lon="5.21714">
        <ele>223.6</ele>
        <time>2024-09-19T09:04:28Z</time>
      </trkpt>
      <trkpt lat="45.89895" lon="5.21718">
        <ele>223.6</ele>
        <time>2024-09-19T09:04:29Z</time>
      </trkpt>
      <trkpt lat="45.899" lon="5.21723">
        <ele>223.6</ele>
        <time>2024-09-19T09:04:30Z</time>
      </trkpt>
      <trkpt lat="45.89904" lon="5.21727">
        <ele>223.6</ele>
        <time>2024-09-19T09:04:31Z</time>
      </trkpt>
      <trkpt lat="45.89908" lon="5.21731">
        <ele>223.6</ele>
        <time>2024-09-19T09:04:32Z</time>
      </trkpt>
      <trkpt lat="45.89912" lon="5.21735">
        <ele>223.2</ele>
        <time>2024-09-19T09:04:33Z</time>
      </trkpt>
      <trkpt lat="45.89916" lon="5.21739">
        <ele>223.6</ele>
        <time>2024-09-19T09:04:34Z</time>
      </trkpt>
      <trkpt lat="45.8992" lon="5.21743">
        <ele>223.6</ele>
        <time>2024-09-19T09:04:35Z</time>
      </trkpt>
      <trkpt lat="45.89925" lon="5.21747">
        <ele>223.6</ele>
        <time>2024-09-19T09:04:36Z</time>
      </trkpt>
      <trkpt lat="45.89929" lon="5.21752">
        <ele>223.8</ele>
        <time>2024-09-19T09:04:37Z</time>
      </trkpt>
      <trkpt lat="45.89933" lon="5.21757">
        <ele>223.4</ele>
        <time>2024-09-19T09:04:38Z</time>
      </trkpt>
      <trkpt lat="45.89937" lon="5.21762">
        <ele>223</ele>
        <time>2024-09-19T09:04:39Z</time>
      </trkpt>
      <trkpt lat="45.89941" lon="5.21767">
        <ele>223</ele>
        <time>2024-09-19T09:04:40Z</time>
      </trkpt>
      <trkpt lat="45.89945" lon="5.21771">
        <ele>223</ele>
        <time>2024-09-19T09:04:41Z</time>
      </trkpt>
      <trkpt lat="45.8995" lon="5.21776">
        <ele>222.6</ele>
        <time>2024-09-19T09:04:42Z</time>
      </trkpt>
      <trkpt lat="45.89954" lon="5.21781">
        <ele>222.6</ele>
        <time>2024-09-19T09:04:43Z</time>
      </trkpt>
      <trkpt lat="45.89958" lon="5.21786">
        <ele>222.6</ele>
        <time>2024-09-19T09:04:44Z</time>
      </trkpt>
      <trkpt lat="45.89963" lon="5.21791">
        <ele>223</ele>
        <time>2024-09-19T09:04:45Z</time>
      </trkpt>
      <trkpt lat="45.89968" lon="5.21796">
        <ele>223.4</ele>
        <time>2024-09-19T09:04:46Z</time>
      </trkpt>
      <trkpt lat="45.89971" lon="5.21801">
        <ele>223.2</ele>
        <time>2024-09-19T09:04:47Z</time>
      </trkpt>
      <trkpt lat="45.89976" lon="5.21806">
        <ele>222.8</ele>
        <time>2024-09-19T09:04:48Z</time>
      </trkpt>
      <trkpt lat="45.8998" lon="5.21811">
        <ele>223.4</ele>
        <time>2024-09-19T09:04:49Z</time>
      </trkpt>
      <trkpt lat="45.89984" lon="5.21817">
        <ele>223</ele>
        <time>2024-09-19T09:04:50Z</time>
      </trkpt>
      <trkpt lat="45.89988" lon="5.21823">
        <ele>223.4</ele>
        <time>2024-09-19T09:04:51Z</time>
      </trkpt>
      <trkpt lat="45.89992" lon="5.21829">
        <ele>223</ele>
        <time>2024-09-19T09:04:52Z</time>
      </trkpt>
      <trkpt lat="45.89997" lon="5.21835">
        <ele>223</ele>
        <time>2024-09-19T09:04:53Z</time>
      </trkpt>
      <trkpt lat="45.90002" lon="5.2184">
        <ele>222</ele>
        <time>2024-09-19T09:04:54Z</time>
      </trkpt>
      <trkpt lat="45.90007" lon="5.21845">
        <ele>221.2</ele>
        <time>2024-09-19T09:04:55Z</time>
      </trkpt>
      <trkpt lat="45.90011" lon="5.21851">
        <ele>221.2</ele>
        <time>2024-09-19T09:04:56Z</time>
      </trkpt>
      <trkpt lat="45.90016" lon="5.21856">
        <ele>221.8</ele>
        <time>2024-09-19T09:04:57Z</time>
      </trkpt>
      <trkpt lat="45.9002" lon="5.21862">
        <ele>221.6</ele>
        <time>2024-09-19T09:04:58Z</time>
      </trkpt>
      <trkpt lat="45.90024" lon="5.21867">
        <ele>221.8</ele>
        <time>2024-09-19T09:04:59Z</time>
      </trkpt>
      <trkpt lat="45.90027" lon="5.21874">
        <ele>221.8</ele>
        <time>2024-09-19T09:05:00Z</time>
      </trkpt>
      <trkpt lat="45.90031" lon="5.21879">
        <ele>222.2</ele>
        <time>2024-09-19T09:05:01Z</time>
      </trkpt>
      <trkpt lat="45.90034" lon="5.21885">
        <ele>222.2</ele>
        <time>2024-09-19T09:05:02Z</time>
      </trkpt>
      <trkpt lat="45.90038" lon="5.21891">
        <ele>222.2</ele>
        <time>2024-09-19T09:05:03Z</time>
      </trkpt>
      <trkpt lat="45.90042" lon="5.21896">
        <ele>222.2</ele>
        <time>2024-09-19T09:05:04Z</time>
      </trkpt>
      <trkpt lat="45.90046" lon="5.21902">
        <ele>222.2</ele>
        <time>2024-09-19T09:05:05Z</time>
      </trkpt>
      <trkpt lat="45.90049" lon="5.21907">
        <ele>221.2</ele>
        <time>2024-09-19T09:05:06Z</time>
      </trkpt>
      <trkpt lat="45.90054" lon="5.21913">
        <ele>221.2</ele>
        <time>2024-09-19T09:05:07Z</time>
      </trkpt>
      <trkpt lat="45.90057" lon="5.21919">
        <ele>221</ele>
        <time>2024-09-19T09:05:08Z</time>
      </trkpt>
      <trkpt lat="45.90061" lon="5.21925">
        <ele>222.2</ele>
        <time>2024-09-19T09:05:09Z</time>
      </trkpt>
      <trkpt lat="45.90066" lon="5.21931">
        <ele>221.4</ele>
        <time>2024-09-19T09:05:10Z</time>
      </trkpt>
      <trkpt lat="45.9007" lon="5.21936">
        <ele>221.4</ele>
        <time>2024-09-19T09:05:11Z</time>
      </trkpt>
      <trkpt lat="45.90073" lon="5.21943">
        <ele>221.4</ele>
        <time>2024-09-19T09:05:12Z</time>
      </trkpt>
      <trkpt lat="45.90077" lon="5.21948">
        <ele>221.4</ele>
        <time>2024-09-19T09:05:13Z</time>
      </trkpt>
      <trkpt lat="45.9008" lon="5.21954">
        <ele>221.8</ele>
        <time>2024-09-19T09:05:14Z</time>
      </trkpt>
      <trkpt lat="45.90084" lon="5.2196">
        <ele>222</ele>
        <time>2024-09-19T09:05:15Z</time>
      </trkpt>
      <trkpt lat="45.90088" lon="5.21965">
        <ele>222</ele>
        <time>2024-09-19T09:05:16Z</time>
      </trkpt>
      <trkpt lat="45.90092" lon="5.2197">
        <ele>222</ele>
        <time>2024-09-19T09:05:17Z</time>
      </trkpt>
      <trkpt lat="45.90095" lon="5.21976">
        <ele>222</ele>
        <time>2024-09-19T09:05:18Z</time>
      </trkpt>
      <trkpt lat="45.90099" lon="5.21982">
        <ele>221.8</ele>
        <time>2024-09-19T09:05:19Z</time>
      </trkpt>
      <trkpt lat="45.90103" lon="5.21987">
        <ele>222</ele>
        <time>2024-09-19T09:05:20Z</time>
      </trkpt>
      <trkpt lat="45.90107" lon="5.21993">
        <ele>221.8</ele>
        <time>2024-09-19T09:05:21Z</time>
      </trkpt>
      <trkpt lat="45.9011" lon="5.21999">
        <ele>222.2</ele>
        <time>2024-09-19T09:05:22Z</time>
      </trkpt>
      <trkpt lat="45.90115" lon="5.22005">
        <ele>221.8</ele>
        <time>2024-09-19T09:05:23Z</time>
      </trkpt>
      <trkpt lat="45.90118" lon="5.22011">
        <ele>221.8</ele>
        <time>2024-09-19T09:05:24Z</time>
      </trkpt>
      <trkpt lat="45.90122" lon="5.22017">
        <ele>222.8</ele>
        <time>2024-09-19T09:05:25Z</time>
      </trkpt>
      <trkpt lat="45.90126" lon="5.22022">
        <ele>223</ele>
        <time>2024-09-19T09:05:26Z</time>
      </trkpt>
      <trkpt lat="45.9013" lon="5.22028">
        <ele>223.4</ele>
        <time>2024-09-19T09:05:27Z</time>
      </trkpt>
      <trkpt lat="45.90134" lon="5.22034">
        <ele>222.8</ele>
        <time>2024-09-19T09:05:28Z</time>
      </trkpt>
      <trkpt lat="45.90137" lon="5.2204">
        <ele>223</ele>
        <time>2024-09-19T09:05:29Z</time>
      </trkpt>
      <trkpt lat="45.90142" lon="5.22046">
        <ele>223.4</ele>
        <time>2024-09-19T09:05:30Z</time>
      </trkpt>
      <trkpt lat="45.90145" lon="5.22052">
        <ele>223.4</ele>
        <time>2024-09-19T09:05:31Z</time>
      </trkpt>
      <trkpt lat="45.90149" lon="5.22057">
        <ele>222.8</ele>
        <time>2024-09-19T09:05:32Z</time>
      </trkpt>
      <trkpt lat="45.90153" lon="5.22063">
        <ele>222.6</ele>
        <time>2024-09-19T09:05:33Z</time>
      </trkpt>
      <trkpt lat="45.90157" lon="5.22068">
        <ele>222.6</ele>
        <time>2024-09-19T09:05:34Z</time>
      </trkpt>
      <trkpt lat="45.9016" lon="5.22074">
        <ele>222.2</ele>
        <time>2024-09-19T09:05:35Z</time>
      </trkpt>
      <trkpt lat="45.90164" lon="5.22079">
        <ele>222.4</ele>
        <time>2024-09-19T09:05:36Z</time>
      </trkpt>
      <trkpt lat="45.90168" lon="5.22085">
        <ele>222.4</ele>
        <time>2024-09-19T09:05:37Z</time>
      </trkpt>
      <trkpt lat="45.90171" lon="5.22091">
        <ele>221.4</ele>
        <time>2024-09-19T09:05:38Z</time>
      </trkpt>
      <trkpt lat="45.90175" lon="5.22096">
        <ele>221.8</ele>
        <time>2024-09-19T09:05:39Z</time>
      </trkpt>
      <trkpt lat="45.90178" lon="5.22102">
        <ele>221.8</ele>
        <time>2024-09-19T09:05:40Z</time>
      </trkpt>
      <trkpt lat="45.90182" lon="5.22106">
        <ele>221.6</ele>
        <time>2024-09-19T09:05:41Z</time>
      </trkpt>
      <trkpt lat="45.90187" lon="5.2211">
        <ele>221.8</ele>
        <time>2024-09-19T09:05:42Z</time>
      </trkpt>
      <trkpt lat="45.90191" lon="5.22113">
        <ele>222.6</ele>
        <time>2024-09-19T09:05:43Z</time>
      </trkpt>
      <trkpt lat="45.90194" lon="5.22118">
        <ele>222.6</ele>
        <time>2024-09-19T09:05:44Z</time>
      </trkpt>
      <trkpt lat="45.90198" lon="5.22122">
        <ele>222.2</ele>
        <time>2024-09-19T09:05:45Z</time>
      </trkpt>
      <trkpt lat="45.90202" lon="5.22126">
        <ele>223</ele>
        <time>2024-09-19T09:05:46Z</time>
      </trkpt>
      <trkpt lat="45.90206" lon="5.22131">
        <ele>222.6</ele>
        <time>2024-09-19T09:05:47Z</time>
      </trkpt>
      <trkpt lat="45.90208" lon="5.22135">
        <ele>221.6</ele>
        <time>2024-09-19T09:05:48Z</time>
      </trkpt>
      <trkpt lat="45.90208" lon="5.22135">
        <ele>221.6</ele>
        <time>2024-09-19T09:05:49Z</time>
      </trkpt>
      <trkpt lat="45.90211" lon="5.2214">
        <ele>221.6</ele>
        <time>2024-09-19T09:05:50Z</time>
      </trkpt>
      <trkpt lat="45.90214" lon="5.22145">
        <ele>221.6</ele>
        <time>2024-09-19T09:05:51Z</time>
      </trkpt>
      <trkpt lat="45.90217" lon="5.2215">
        <ele>221.8</ele>
        <time>2024-09-19T09:05:52Z</time>
      </trkpt>
      <trkpt lat="45.90219" lon="5.22156">
        <ele>222</ele>
        <time>2024-09-19T09:05:53Z</time>
      </trkpt>
      <trkpt lat="45.90222" lon="5.22161">
        <ele>222</ele>
        <time>2024-09-19T09:05:54Z</time>
      </trkpt>
      <trkpt lat="45.90224" lon="5.22167">
        <ele>222.4</ele>
        <time>2024-09-19T09:05:55Z</time>
      </trkpt>
      <trkpt lat="45.90226" lon="5.22173">
        <ele>222.4</ele>
        <time>2024-09-19T09:05:56Z</time>
      </trkpt>
      <trkpt lat="45.90228" lon="5.22179">
        <ele>222</ele>
        <time>2024-09-19T09:05:57Z</time>
      </trkpt>
      <trkpt lat="45.90233" lon="5.22192">
        <ele>221.6</ele>
        <time>2024-09-19T09:05:58Z</time>
      </trkpt>
      <trkpt lat="45.90236" lon="5.22198">
        <ele>222.4</ele>
        <time>2024-09-19T09:05:59Z</time>
      </trkpt>
      <trkpt lat="45.90239" lon="5.22204">
        <ele>222</ele>
        <time>2024-09-19T09:06:00Z</time>
      </trkpt>
      <trkpt lat="45.90242" lon="5.22211">
        <ele>221.4</ele>
        <time>2024-09-19T09:06:01Z</time>
      </trkpt>
      <trkpt lat="45.90244" lon="5.22217">
        <ele>221.8</ele>
        <time>2024-09-19T09:06:02Z</time>
      </trkpt>
      <trkpt lat="45.90246" lon="5.22224">
        <ele>222.4</ele>
        <time>2024-09-19T09:06:03Z</time>
      </trkpt>
      <trkpt lat="45.90248" lon="5.2223">
        <ele>222.4</ele>
        <time>2024-09-19T09:06:04Z</time>
      </trkpt>
      <trkpt lat="45.9025" lon="5.22237">
        <ele>222</ele>
        <time>2024-09-19T09:06:05Z</time>
      </trkpt>
      <trkpt lat="45.90252" lon="5.22244">
        <ele>222</ele>
        <time>2024-09-19T09:06:06Z</time>
      </trkpt>
      <trkpt lat="45.90254" lon="5.22251">
        <ele>222.2</ele>
        <time>2024-09-19T09:06:07Z</time>
      </trkpt>
      <trkpt lat="45.90255" lon="5.22258">
        <ele>222.2</ele>
        <time>2024-09-19T09:06:08Z</time>
      </trkpt>
      <trkpt lat="45.90257" lon="5.22265">
        <ele>222.2</ele>
        <time>2024-09-19T09:06:09Z</time>
      </trkpt>
      <trkpt lat="45.90259" lon="5.22272">
        <ele>222.2</ele>
        <time>2024-09-19T09:06:10Z</time>
      </trkpt>
      <trkpt lat="45.90261" lon="5.22279">
        <ele>222.2</ele>
        <time>2024-09-19T09:06:11Z</time>
      </trkpt>
      <trkpt lat="45.90263" lon="5.22286">
        <ele>222.2</ele>
        <time>2024-09-19T09:06:12Z</time>
      </trkpt>
      <trkpt lat="45.90266" lon="5.22293">
        <ele>221.8</ele>
        <time>2024-09-19T09:06:13Z</time>
      </trkpt>
      <trkpt lat="45.90268" lon="5.223">
        <ele>221.4</ele>
        <time>2024-09-19T09:06:14Z</time>
      </trkpt>
      <trkpt lat="45.9027" lon="5.22308">
        <ele>221.8</ele>
        <time>2024-09-19T09:06:15Z</time>
      </trkpt>
      <trkpt lat="45.90273" lon="5.22314">
        <ele>221.8</ele>
        <time>2024-09-19T09:06:16Z</time>
      </trkpt>
      <trkpt lat="45.90275" lon="5.22321">
        <ele>221.8</ele>
        <time>2024-09-19T09:06:17Z</time>
      </trkpt>
      <trkpt lat="45.90277" lon="5.22328">
        <ele>221.8</ele>
        <time>2024-09-19T09:06:18Z</time>
      </trkpt>
      <trkpt lat="45.90279" lon="5.22334">
        <ele>222.2</ele>
        <time>2024-09-19T09:06:19Z</time>
      </trkpt>
      <trkpt lat="45.90281" lon="5.22341">
        <ele>222.2</ele>
        <time>2024-09-19T09:06:20Z</time>
      </trkpt>
      <trkpt lat="45.90283" lon="5.22348">
        <ele>222.2</ele>
        <time>2024-09-19T09:06:21Z</time>
      </trkpt>
      <trkpt lat="45.90286" lon="5.22354">
        <ele>222.2</ele>
        <time>2024-09-19T09:06:22Z</time>
      </trkpt>
      <trkpt lat="45.90288" lon="5.22361">
        <ele>222.2</ele>
        <time>2024-09-19T09:06:23Z</time>
      </trkpt>
      <trkpt lat="45.9029" lon="5.22366">
        <ele>222.4</ele>
        <time>2024-09-19T09:06:24Z</time>
      </trkpt>
      <trkpt lat="45.90293" lon="5.22373">
        <ele>222.4</ele>
        <time>2024-09-19T09:06:25Z</time>
      </trkpt>
      <trkpt lat="45.90295" lon="5.2238">
        <ele>222.6</ele>
        <time>2024-09-19T09:06:26Z</time>
      </trkpt>
      <trkpt lat="45.90297" lon="5.22387">
        <ele>222.6</ele>
        <time>2024-09-19T09:06:27Z</time>
      </trkpt>
      <trkpt lat="45.903" lon="5.22394">
        <ele>222</ele>
        <time>2024-09-19T09:06:28Z</time>
      </trkpt>
      <trkpt lat="45.90302" lon="5.22401">
        <ele>222</ele>
        <time>2024-09-19T09:06:29Z</time>
      </trkpt>
      <trkpt lat="45.90305" lon="5.22408">
        <ele>221.2</ele>
        <time>2024-09-19T09:06:30Z</time>
      </trkpt>
      <trkpt lat="45.90307" lon="5.22415">
        <ele>221.4</ele>
        <time>2024-09-19T09:06:31Z</time>
      </trkpt>
      <trkpt lat="45.9031" lon="5.22422">
        <ele>222</ele>
        <time>2024-09-19T09:06:32Z</time>
      </trkpt>
      <trkpt lat="45.90312" lon="5.22429">
        <ele>222.8</ele>
        <time>2024-09-19T09:06:33Z</time>
      </trkpt>
      <trkpt lat="45.90314" lon="5.22435">
        <ele>222.8</ele>
        <time>2024-09-19T09:06:34Z</time>
      </trkpt>
      <trkpt lat="45.90316" lon="5.22442">
        <ele>222.8</ele>
        <time>2024-09-19T09:06:35Z</time>
      </trkpt>
      <trkpt lat="45.90319" lon="5.22449">
        <ele>222.2</ele>
        <time>2024-09-19T09:06:36Z</time>
      </trkpt>
      <trkpt lat="45.90321" lon="5.22455">
        <ele>222.6</ele>
        <time>2024-09-19T09:06:37Z</time>
      </trkpt>
      <trkpt lat="45.90323" lon="5.22462">
        <ele>222.2</ele>
        <time>2024-09-19T09:06:38Z</time>
      </trkpt>
      <trkpt lat="45.90326" lon="5.22468">
        <ele>222.6</ele>
        <time>2024-09-19T09:06:39Z</time>
      </trkpt>
      <trkpt lat="45.90328" lon="5.22475">
        <ele>223.2</ele>
        <time>2024-09-19T09:06:40Z</time>
      </trkpt>
      <trkpt lat="45.90331" lon="5.22481">
        <ele>223</ele>
        <time>2024-09-19T09:06:41Z</time>
      </trkpt>
      <trkpt lat="45.90333" lon="5.22489">
        <ele>223</ele>
        <time>2024-09-19T09:06:42Z</time>
      </trkpt>
      <trkpt lat="45.90336" lon="5.22496">
        <ele>222.8</ele>
        <time>2024-09-19T09:06:43Z</time>
      </trkpt>
      <trkpt lat="45.90339" lon="5.22502">
        <ele>222.8</ele>
        <time>2024-09-19T09:06:44Z</time>
      </trkpt>
      <trkpt lat="45.90342" lon="5.22508">
        <ele>222.4</ele>
        <time>2024-09-19T09:06:45Z</time>
      </trkpt>
      <trkpt lat="45.90345" lon="5.22513">
        <ele>222.4</ele>
        <time>2024-09-19T09:06:46Z</time>
      </trkpt>
      <trkpt lat="45.90348" lon="5.22519">
        <ele>222.4</ele>
        <time>2024-09-19T09:06:47Z</time>
      </trkpt>
      <trkpt lat="45.90351" lon="5.22525">
        <ele>222.4</ele>
        <time>2024-09-19T09:06:48Z</time>
      </trkpt>
      <trkpt lat="45.90353" lon="5.22531">
        <ele>222.4</ele>
        <time>2024-09-19T09:06:49Z</time>
      </trkpt>
      <trkpt lat="45.90355" lon="5.22536">
        <ele>222.4</ele>
        <time>2024-09-19T09:06:50Z</time>
      </trkpt>
      <trkpt lat="45.90358" lon="5.22543">
        <ele>222.4</ele>
        <time>2024-09-19T09:06:51Z</time>
      </trkpt>
      <trkpt lat="45.9036" lon="5.22549">
        <ele>222.4</ele>
        <time>2024-09-19T09:06:52Z</time>
      </trkpt>
      <trkpt lat="45.90362" lon="5.22555">
        <ele>222.4</ele>
        <time>2024-09-19T09:06:53Z</time>
      </trkpt>
      <trkpt lat="45.90365" lon="5.22561">
        <ele>222.2</ele>
        <time>2024-09-19T09:06:54Z</time>
      </trkpt>
      <trkpt lat="45.90367" lon="5.22568">
        <ele>222.2</ele>
        <time>2024-09-19T09:06:55Z</time>
      </trkpt>
      <trkpt lat="45.9037" lon="5.22574">
        <ele>222</ele>
        <time>2024-09-19T09:06:56Z</time>
      </trkpt>
      <trkpt lat="45.90372" lon="5.2258">
        <ele>221.6</ele>
        <time>2024-09-19T09:06:57Z</time>
      </trkpt>
      <trkpt lat="45.90373" lon="5.22586">
        <ele>221.2</ele>
        <time>2024-09-19T09:06:58Z</time>
      </trkpt>
      <trkpt lat="45.90374" lon="5.22593">
        <ele>221.2</ele>
        <time>2024-09-19T09:06:59Z</time>
      </trkpt>
      <trkpt lat="45.90375" lon="5.22599">
        <ele>222.2</ele>
        <time>2024-09-19T09:07:00Z</time>
      </trkpt>
      <trkpt lat="45.90376" lon="5.22603">
        <ele>222.2</ele>
        <time>2024-09-19T09:07:01Z</time>
      </trkpt>
      <trkpt lat="45.90378" lon="5.22607">
        <ele>221.6</ele>
        <time>2024-09-19T09:07:02Z</time>
      </trkpt>
      <trkpt lat="45.9038" lon="5.22609">
        <ele>220.8</ele>
        <time>2024-09-19T09:07:03Z</time>
      </trkpt>
      <trkpt lat="45.9038" lon="5.22609">
        <ele>221.6</ele>
        <time>2024-09-19T09:07:04Z</time>
      </trkpt>
      <trkpt lat="45.9038" lon="5.22609">
        <ele>222.2</ele>
        <time>2024-09-19T09:07:05Z</time>
      </trkpt>
      <trkpt lat="45.90384" lon="5.22615">
        <ele>222.4</ele>
        <time>2024-09-19T09:07:07Z</time>
      </trkpt>
      <trkpt lat="45.90385" lon="5.22618">
        <ele>222.6</ele>
        <time>2024-09-19T09:07:08Z</time>
      </trkpt>
      <trkpt lat="45.90385" lon="5.22621">
        <ele>222</ele>
        <time>2024-09-19T09:07:09Z</time>
      </trkpt>
      <trkpt lat="45.90385" lon="5.22624">
        <ele>222.2</ele>
        <time>2024-09-19T09:07:10Z</time>
      </trkpt>
      <trkpt lat="45.90385" lon="5.22625">
        <ele>222.6</ele>
        <time>2024-09-19T09:07:11Z</time>
      </trkpt>
      <trkpt lat="45.90385" lon="5.22627">
        <ele>222.6</ele>
        <time>2024-09-19T09:07:12Z</time>
      </trkpt>
      <trkpt lat="45.90386" lon="5.22629">
        <ele>222.8</ele>
        <time>2024-09-19T09:07:13Z</time>
      </trkpt>
      <trkpt lat="45.90386" lon="5.22631">
        <ele>222.4</ele>
        <time>2024-09-19T09:07:14Z</time>
      </trkpt>
      <trkpt lat="45.90388" lon="5.22634">
        <ele>222.4</ele>
        <time>2024-09-19T09:07:15Z</time>
      </trkpt>
      <trkpt lat="45.9039" lon="5.22638">
        <ele>222.4</ele>
        <time>2024-09-19T09:07:16Z</time>
      </trkpt>
      <trkpt lat="45.90392" lon="5.22642">
        <ele>222.4</ele>
        <time>2024-09-19T09:07:17Z</time>
      </trkpt>
      <trkpt lat="45.90394" lon="5.22646">
        <ele>222</ele>
        <time>2024-09-19T09:07:18Z</time>
      </trkpt>
      <trkpt lat="45.90396" lon="5.22651">
        <ele>222</ele>
        <time>2024-09-19T09:07:19Z</time>
      </trkpt>
      <trkpt lat="45.90397" lon="5.22656">
        <ele>222</ele>
        <time>2024-09-19T09:07:20Z</time>
      </trkpt>
      <trkpt lat="45.90398" lon="5.22663">
        <ele>222</ele>
        <time>2024-09-19T09:07:21Z</time>
      </trkpt>
      <trkpt lat="45.904" lon="5.22668">
        <ele>221.8</ele>
        <time>2024-09-19T09:07:22Z</time>
      </trkpt>
      <trkpt lat="45.90401" lon="5.22674">
        <ele>222</ele>
        <time>2024-09-19T09:07:23Z</time>
      </trkpt>
      <trkpt lat="45.90402" lon="5.2268">
        <ele>222.4</ele>
        <time>2024-09-19T09:07:24Z</time>
      </trkpt>
      <trkpt lat="45.90403" lon="5.22686">
        <ele>222</ele>
        <time>2024-09-19T09:07:25Z</time>
      </trkpt>
      <trkpt lat="45.90405" lon="5.22692">
        <ele>222</ele>
        <time>2024-09-19T09:07:26Z</time>
      </trkpt>
      <trkpt lat="45.90407" lon="5.22699">
        <ele>222</ele>
        <time>2024-09-19T09:07:27Z</time>
      </trkpt>
      <trkpt lat="45.90409" lon="5.22705">
        <ele>221.8</ele>
        <time>2024-09-19T09:07:28Z</time>
      </trkpt>
      <trkpt lat="45.9041" lon="5.22711">
        <ele>221.8</ele>
        <time>2024-09-19T09:07:29Z</time>
      </trkpt>
      <trkpt lat="45.90412" lon="5.22717">
        <ele>221.8</ele>
        <time>2024-09-19T09:07:30Z</time>
      </trkpt>
      <trkpt lat="45.90415" lon="5.22724">
        <ele>221.4</ele>
        <time>2024-09-19T09:07:31Z</time>
      </trkpt>
      <trkpt lat="45.90416" lon="5.2273">
        <ele>221.8</ele>
        <time>2024-09-19T09:07:32Z</time>
      </trkpt>
      <trkpt lat="45.90417" lon="5.22736">
        <ele>222.2</ele>
        <time>2024-09-19T09:07:33Z</time>
      </trkpt>
      <trkpt lat="45.90419" lon="5.22742">
        <ele>222.6</ele>
        <time>2024-09-19T09:07:34Z</time>
      </trkpt>
      <trkpt lat="45.9042" lon="5.22748">
        <ele>221.8</ele>
        <time>2024-09-19T09:07:35Z</time>
      </trkpt>
      <trkpt lat="45.90422" lon="5.22755">
        <ele>221.8</ele>
        <time>2024-09-19T09:07:36Z</time>
      </trkpt>
      <trkpt lat="45.90423" lon="5.22761">
        <ele>221.8</ele>
        <time>2024-09-19T09:07:37Z</time>
      </trkpt>
      <trkpt lat="45.90425" lon="5.22767">
        <ele>221.8</ele>
        <time>2024-09-19T09:07:38Z</time>
      </trkpt>
      <trkpt lat="45.90427" lon="5.22774">
        <ele>221</ele>
        <time>2024-09-19T09:07:39Z</time>
      </trkpt>
      <trkpt lat="45.90428" lon="5.2278">
        <ele>220.6</ele>
        <time>2024-09-19T09:07:40Z</time>
      </trkpt>
      <trkpt lat="45.9043" lon="5.22787">
        <ele>220.8</ele>
        <time>2024-09-19T09:07:41Z</time>
      </trkpt>
      <trkpt lat="45.90432" lon="5.22793">
        <ele>221.8</ele>
        <time>2024-09-19T09:07:42Z</time>
      </trkpt>
      <trkpt lat="45.90434" lon="5.228">
        <ele>221.8</ele>
        <time>2024-09-19T09:07:43Z</time>
      </trkpt>
      <trkpt lat="45.90435" lon="5.22807">
        <ele>222.2</ele>
        <time>2024-09-19T09:07:44Z</time>
      </trkpt>
      <trkpt lat="45.90437" lon="5.22814">
        <ele>222.2</ele>
        <time>2024-09-19T09:07:45Z</time>
      </trkpt>
      <trkpt lat="45.90439" lon="5.2282">
        <ele>222.2</ele>
        <time>2024-09-19T09:07:46Z</time>
      </trkpt>
      <trkpt lat="45.9044" lon="5.22826">
        <ele>222.4</ele>
        <time>2024-09-19T09:07:47Z</time>
      </trkpt>
      <trkpt lat="45.90442" lon="5.22833">
        <ele>222.4</ele>
        <time>2024-09-19T09:07:48Z</time>
      </trkpt>
      <trkpt lat="45.90442" lon="5.22833">
        <ele>222.4</ele>
        <time>2024-09-19T09:07:49Z</time>
      </trkpt>
      <trkpt lat="45.90445" lon="5.22846">
        <ele>222.2</ele>
        <time>2024-09-19T09:07:50Z</time>
      </trkpt>
      <trkpt lat="45.90447" lon="5.22853">
        <ele>222.2</ele>
        <time>2024-09-19T09:07:51Z</time>
      </trkpt>
      <trkpt lat="45.90449" lon="5.22859">
        <ele>222</ele>
        <time>2024-09-19T09:07:52Z</time>
      </trkpt>
      <trkpt lat="45.90451" lon="5.22865">
        <ele>222</ele>
        <time>2024-09-19T09:07:53Z</time>
      </trkpt>
      <trkpt lat="45.90453" lon="5.22872">
        <ele>222.4</ele>
        <time>2024-09-19T09:07:54Z</time>
      </trkpt>
      <trkpt lat="45.90455" lon="5.22878">
        <ele>222.4</ele>
        <time>2024-09-19T09:07:55Z</time>
      </trkpt>
      <trkpt lat="45.90457" lon="5.22884">
        <ele>222.4</ele>
        <time>2024-09-19T09:07:56Z</time>
      </trkpt>
      <trkpt lat="45.90459" lon="5.22891">
        <ele>222.4</ele>
        <time>2024-09-19T09:07:57Z</time>
      </trkpt>
      <trkpt lat="45.9046" lon="5.22897">
        <ele>223</ele>
        <time>2024-09-19T09:07:58Z</time>
      </trkpt>
      <trkpt lat="45.90462" lon="5.22904">
        <ele>222.6</ele>
        <time>2024-09-19T09:07:59Z</time>
      </trkpt>
      <trkpt lat="45.90464" lon="5.2291">
        <ele>222.6</ele>
        <time>2024-09-19T09:08:00Z</time>
      </trkpt>
      <trkpt lat="45.90466" lon="5.22916">
        <ele>222.8</ele>
        <time>2024-09-19T09:08:01Z</time>
      </trkpt>
      <trkpt lat="45.90468" lon="5.22923">
        <ele>222.4</ele>
        <time>2024-09-19T09:08:02Z</time>
      </trkpt>
      <trkpt lat="45.9047" lon="5.22928">
        <ele>221.8</ele>
        <time>2024-09-19T09:08:03Z</time>
      </trkpt>
      <trkpt lat="45.90473" lon="5.22934">
        <ele>222</ele>
        <time>2024-09-19T09:08:04Z</time>
      </trkpt>
      <trkpt lat="45.90476" lon="5.2294">
        <ele>222.2</ele>
        <time>2024-09-19T09:08:05Z</time>
      </trkpt>
      <trkpt lat="45.90478" lon="5.22946">
        <ele>222.2</ele>
        <time>2024-09-19T09:08:06Z</time>
      </trkpt>
      <trkpt lat="45.90481" lon="5.22952">
        <ele>222.2</ele>
        <time>2024-09-19T09:08:07Z</time>
      </trkpt>
      <trkpt lat="45.90485" lon="5.22958">
        <ele>222.2</ele>
        <time>2024-09-19T09:08:08Z</time>
      </trkpt>
      <trkpt lat="45.90488" lon="5.22963">
        <ele>222.6</ele>
        <time>2024-09-19T09:08:09Z</time>
      </trkpt>
      <trkpt lat="45.9049" lon="5.22969">
        <ele>222.2</ele>
        <time>2024-09-19T09:08:10Z</time>
      </trkpt>
      <trkpt lat="45.90493" lon="5.22975">
        <ele>222.2</ele>
        <time>2024-09-19T09:08:11Z</time>
      </trkpt>
      <trkpt lat="45.90496" lon="5.22982">
        <ele>222.2</ele>
        <time>2024-09-19T09:08:12Z</time>
      </trkpt>
      <trkpt lat="45.90499" lon="5.22988">
        <ele>221.8</ele>
        <time>2024-09-19T09:08:13Z</time>
      </trkpt>
      <trkpt lat="45.90502" lon="5.22994">
        <ele>221.4</ele>
        <time>2024-09-19T09:08:14Z</time>
      </trkpt>
      <trkpt lat="45.90506" lon="5.23">
        <ele>221.2</ele>
        <time>2024-09-19T09:08:15Z</time>
      </trkpt>
      <trkpt lat="45.90509" lon="5.23006">
        <ele>221.6</ele>
        <time>2024-09-19T09:08:16Z</time>
      </trkpt>
      <trkpt lat="45.90511" lon="5.23012">
        <ele>221.6</ele>
        <time>2024-09-19T09:08:17Z</time>
      </trkpt>
      <trkpt lat="45.90514" lon="5.23019">
        <ele>222</ele>
        <time>2024-09-19T09:08:18Z</time>
      </trkpt>
      <trkpt lat="45.90517" lon="5.23024">
        <ele>221.4</ele>
        <time>2024-09-19T09:08:19Z</time>
      </trkpt>
      <trkpt lat="45.9052" lon="5.2303">
        <ele>221.4</ele>
        <time>2024-09-19T09:08:20Z</time>
      </trkpt>
      <trkpt lat="45.90523" lon="5.23037">
        <ele>221.4</ele>
        <time>2024-09-19T09:08:21Z</time>
      </trkpt>
      <trkpt lat="45.90526" lon="5.23042">
        <ele>221.4</ele>
        <time>2024-09-19T09:08:22Z</time>
      </trkpt>
      <trkpt lat="45.90529" lon="5.23048">
        <ele>221.4</ele>
        <time>2024-09-19T09:08:23Z</time>
      </trkpt>
      <trkpt lat="45.90532" lon="5.23054">
        <ele>221.4</ele>
        <time>2024-09-19T09:08:24Z</time>
      </trkpt>
      <trkpt lat="45.90535" lon="5.2306">
        <ele>221.2</ele>
        <time>2024-09-19T09:08:25Z</time>
      </trkpt>
      <trkpt lat="45.90537" lon="5.23067">
        <ele>221.8</ele>
        <time>2024-09-19T09:08:26Z</time>
      </trkpt>
      <trkpt lat="45.9054" lon="5.23072">
        <ele>221.8</ele>
        <time>2024-09-19T09:08:27Z</time>
      </trkpt>
      <trkpt lat="45.90543" lon="5.23079">
        <ele>221.2</ele>
        <time>2024-09-19T09:08:28Z</time>
      </trkpt>
      <trkpt lat="45.90546" lon="5.23085">
        <ele>221</ele>
        <time>2024-09-19T09:08:29Z</time>
      </trkpt>
      <trkpt lat="45.90549" lon="5.23091">
        <ele>221</ele>
        <time>2024-09-19T09:08:30Z</time>
      </trkpt>
      <trkpt lat="45.90552" lon="5.23097">
        <ele>221</ele>
        <time>2024-09-19T09:08:31Z</time>
      </trkpt>
      <trkpt lat="45.90555" lon="5.23103">
        <ele>221.8</ele>
        <time>2024-09-19T09:08:32Z</time>
      </trkpt>
      <trkpt lat="45.90558" lon="5.23109">
        <ele>221.4</ele>
        <time>2024-09-19T09:08:33Z</time>
      </trkpt>
      <trkpt lat="45.90562" lon="5.23115">
        <ele>221.4</ele>
        <time>2024-09-19T09:08:34Z</time>
      </trkpt>
      <trkpt lat="45.90566" lon="5.2312">
        <ele>221.4</ele>
        <time>2024-09-19T09:08:35Z</time>
      </trkpt>
      <trkpt lat="45.90568" lon="5.23123">
        <ele>221</ele>
        <time>2024-09-19T09:08:36Z</time>
      </trkpt>
      <trkpt lat="45.9057" lon="5.23126">
        <ele>221.6</ele>
        <time>2024-09-19T09:08:37Z</time>
      </trkpt>
      <trkpt lat="45.9057" lon="5.23129">
        <ele>221.6</ele>
        <time>2024-09-19T09:08:38Z</time>
      </trkpt>
      <trkpt lat="45.9057" lon="5.23133">
        <ele>221.8</ele>
        <time>2024-09-19T09:08:39Z</time>
      </trkpt>
      <trkpt lat="45.90571" lon="5.23136">
        <ele>221.6</ele>
        <time>2024-09-19T09:08:40Z</time>
      </trkpt>
      <trkpt lat="45.90571" lon="5.23136">
        <ele>221.6</ele>
        <time>2024-09-19T09:08:41Z</time>
      </trkpt>
      <trkpt lat="45.90572" lon="5.2314">
        <ele>221.8</ele>
        <time>2024-09-19T09:08:42Z</time>
      </trkpt>
      <trkpt lat="45.90572" lon="5.23146">
        <ele>221.8</ele>
        <time>2024-09-19T09:08:43Z</time>
      </trkpt>
      <trkpt lat="45.90574" lon="5.23152">
        <ele>221.6</ele>
        <time>2024-09-19T09:08:44Z</time>
      </trkpt>
      <trkpt lat="45.90574" lon="5.23157">
        <ele>221.6</ele>
        <time>2024-09-19T09:08:45Z</time>
      </trkpt>
      <trkpt lat="45.90575" lon="5.23163">
        <ele>221.4</ele>
        <time>2024-09-19T09:08:46Z</time>
      </trkpt>
      <trkpt lat="45.90575" lon="5.23169">
        <ele>221.4</ele>
        <time>2024-09-19T09:08:47Z</time>
      </trkpt>
      <trkpt lat="45.90576" lon="5.23175">
        <ele>221.4</ele>
        <time>2024-09-19T09:08:48Z</time>
      </trkpt>
      <trkpt lat="45.90576" lon="5.23181">
        <ele>221</ele>
        <time>2024-09-19T09:08:49Z</time>
      </trkpt>
      <trkpt lat="45.90576" lon="5.23193">
        <ele>220.4</ele>
        <time>2024-09-19T09:08:50Z</time>
      </trkpt>
      <trkpt lat="45.90576" lon="5.23199">
        <ele>220.8</ele>
        <time>2024-09-19T09:08:51Z</time>
      </trkpt>
      <trkpt lat="45.90576" lon="5.23205">
        <ele>220.8</ele>
        <time>2024-09-19T09:08:52Z</time>
      </trkpt>
      <trkpt lat="45.90577" lon="5.23211">
        <ele>220.8</ele>
        <time>2024-09-19T09:08:53Z</time>
      </trkpt>
      <trkpt lat="45.90577" lon="5.23217">
        <ele>220.8</ele>
        <time>2024-09-19T09:08:54Z</time>
      </trkpt>
      <trkpt lat="45.90578" lon="5.23222">
        <ele>220.8</ele>
        <time>2024-09-19T09:08:55Z</time>
      </trkpt>
      <trkpt lat="45.90578" lon="5.23228">
        <ele>220.8</ele>
        <time>2024-09-19T09:08:56Z</time>
      </trkpt>
      <trkpt lat="45.90578" lon="5.23233">
        <ele>221.2</ele>
        <time>2024-09-19T09:08:57Z</time>
      </trkpt>
      <trkpt lat="45.90579" lon="5.23239">
        <ele>221.2</ele>
        <time>2024-09-19T09:08:58Z</time>
      </trkpt>
      <trkpt lat="45.90579" lon="5.23244">
        <ele>221.2</ele>
        <time>2024-09-19T09:08:59Z</time>
      </trkpt>
      <trkpt lat="45.90579" lon="5.2325">
        <ele>221.6</ele>
        <time>2024-09-19T09:09:00Z</time>
      </trkpt>
      <trkpt lat="45.90579" lon="5.23256">
        <ele>221.6</ele>
        <time>2024-09-19T09:09:01Z</time>
      </trkpt>
      <trkpt lat="45.90579" lon="5.23261">
        <ele>221</ele>
        <time>2024-09-19T09:09:02Z</time>
      </trkpt>
      <trkpt lat="45.90579" lon="5.23266">
        <ele>221</ele>
        <time>2024-09-19T09:09:03Z</time>
      </trkpt>
      <trkpt lat="45.90579" lon="5.2327">
        <ele>221.4</ele>
        <time>2024-09-19T09:09:04Z</time>
      </trkpt>
      <trkpt lat="45.90579" lon="5.23271">
        <ele>221.4</ele>
        <time>2024-09-19T09:09:05Z</time>
      </trkpt>
      <trkpt lat="45.90579" lon="5.23272">
        <ele>222</ele>
        <time>2024-09-19T09:09:06Z</time>
      </trkpt>
      <trkpt lat="45.90579" lon="5.23275">
        <ele>222</ele>
        <time>2024-09-19T09:09:07Z</time>
      </trkpt>
      <trkpt lat="45.90581" lon="5.23277">
        <ele>222</ele>
        <time>2024-09-19T09:09:08Z</time>
      </trkpt>
      <trkpt lat="45.90583" lon="5.2328">
        <ele>222.2</ele>
        <time>2024-09-19T09:09:09Z</time>
      </trkpt>
      <trkpt lat="45.90586" lon="5.23282">
        <ele>222.2</ele>
        <time>2024-09-19T09:09:10Z</time>
      </trkpt>
      <trkpt lat="45.90589" lon="5.23283">
        <ele>222.2</ele>
        <time>2024-09-19T09:09:11Z</time>
      </trkpt>
      <trkpt lat="45.90593" lon="5.23285">
        <ele>222.2</ele>
        <time>2024-09-19T09:09:12Z</time>
      </trkpt>
      <trkpt lat="45.90597" lon="5.23286">
        <ele>221.8</ele>
        <time>2024-09-19T09:09:13Z</time>
      </trkpt>
      <trkpt lat="45.906" lon="5.23288">
        <ele>221.8</ele>
        <time>2024-09-19T09:09:14Z</time>
      </trkpt>
      <trkpt lat="45.90604" lon="5.2329">
        <ele>221.8</ele>
        <time>2024-09-19T09:09:15Z</time>
      </trkpt>
      <trkpt lat="45.90608" lon="5.23292">
        <ele>221.8</ele>
        <time>2024-09-19T09:09:16Z</time>
      </trkpt>
      <trkpt lat="45.90612" lon="5.23294">
        <ele>221.8</ele>
        <time>2024-09-19T09:09:17Z</time>
      </trkpt>
      <trkpt lat="45.90617" lon="5.23295">
        <ele>221.6</ele>
        <time>2024-09-19T09:09:18Z</time>
      </trkpt>
      <trkpt lat="45.90621" lon="5.23296">
        <ele>221.6</ele>
        <time>2024-09-19T09:09:19Z</time>
      </trkpt>
      <trkpt lat="45.90625" lon="5.23296">
        <ele>221.6</ele>
        <time>2024-09-19T09:09:20Z</time>
      </trkpt>
      <trkpt lat="45.90629" lon="5.23297">
        <ele>221.6</ele>
        <time>2024-09-19T09:09:21Z</time>
      </trkpt>
      <trkpt lat="45.90632" lon="5.23298">
        <ele>222</ele>
        <time>2024-09-19T09:09:22Z</time>
      </trkpt>
      <trkpt lat="45.90635" lon="5.23299">
        <ele>222.2</ele>
        <time>2024-09-19T09:09:23Z</time>
      </trkpt>
      <trkpt lat="45.90638" lon="5.233">
        <ele>222.2</ele>
        <time>2024-09-19T09:09:24Z</time>
      </trkpt>
      <trkpt lat="45.90641" lon="5.23301">
        <ele>222.2</ele>
        <time>2024-09-19T09:09:25Z</time>
      </trkpt>
      <trkpt lat="45.90645" lon="5.23303">
        <ele>222.2</ele>
        <time>2024-09-19T09:09:26Z</time>
      </trkpt>
      <trkpt lat="45.90648" lon="5.23304">
        <ele>222.6</ele>
        <time>2024-09-19T09:09:27Z</time>
      </trkpt>
      <trkpt lat="45.90652" lon="5.23305">
        <ele>222.6</ele>
        <time>2024-09-19T09:09:28Z</time>
      </trkpt>
      <trkpt lat="45.90656" lon="5.23305">
        <ele>222.6</ele>
        <time>2024-09-19T09:09:29Z</time>
      </trkpt>
      <trkpt lat="45.9066" lon="5.23305">
        <ele>222.6</ele>
        <time>2024-09-19T09:09:30Z</time>
      </trkpt>
      <trkpt lat="45.90664" lon="5.23305">
        <ele>222.6</ele>
        <time>2024-09-19T09:09:31Z</time>
      </trkpt>
      <trkpt lat="45.90668" lon="5.23304">
        <ele>222.4</ele>
        <time>2024-09-19T09:09:32Z</time>
      </trkpt>
      <trkpt lat="45.90672" lon="5.23304">
        <ele>222.4</ele>
        <time>2024-09-19T09:09:33Z</time>
      </trkpt>
      <trkpt lat="45.90676" lon="5.23304">
        <ele>222.4</ele>
        <time>2024-09-19T09:09:34Z</time>
      </trkpt>
      <trkpt lat="45.9068" lon="5.23304">
        <ele>222.6</ele>
        <time>2024-09-19T09:09:35Z</time>
      </trkpt>
      <trkpt lat="45.90683" lon="5.23304">
        <ele>223</ele>
        <time>2024-09-19T09:09:36Z</time>
      </trkpt>
      <trkpt lat="45.90686" lon="5.23303">
        <ele>223</ele>
        <time>2024-09-19T09:09:37Z</time>
      </trkpt>
      <trkpt lat="45.90689" lon="5.23303">
        <ele>222.8</ele>
        <time>2024-09-19T09:09:38Z</time>
      </trkpt>
      <trkpt lat="45.90691" lon="5.23303">
        <ele>223</ele>
        <time>2024-09-19T09:09:39Z</time>
      </trkpt>
      <trkpt lat="45.90694" lon="5.23306">
        <ele>223</ele>
        <time>2024-09-19T09:09:40Z</time>
      </trkpt>
      <trkpt lat="45.90695" lon="5.2331">
        <ele>223.4</ele>
        <time>2024-09-19T09:09:41Z</time>
      </trkpt>
      <trkpt lat="45.90695" lon="5.23315">
        <ele>223.4</ele>
        <time>2024-09-19T09:09:42Z</time>
      </trkpt>
      <trkpt lat="45.90695" lon="5.23321">
        <ele>223.4</ele>
        <time>2024-09-19T09:09:43Z</time>
      </trkpt>
      <trkpt lat="45.90695" lon="5.23327">
        <ele>223.4</ele>
        <time>2024-09-19T09:09:44Z</time>
      </trkpt>
      <trkpt lat="45.90695" lon="5.23333">
        <ele>223.4</ele>
        <time>2024-09-19T09:09:45Z</time>
      </trkpt>
      <trkpt lat="45.90695" lon="5.23338">
        <ele>223.4</ele>
        <time>2024-09-19T09:09:46Z</time>
      </trkpt>
      <trkpt lat="45.90695" lon="5.23342">
        <ele>223.4</ele>
        <time>2024-09-19T09:09:47Z</time>
      </trkpt>
      <trkpt lat="45.90695" lon="5.23345">
        <ele>223.4</ele>
        <time>2024-09-19T09:09:48Z</time>
      </trkpt>
      <trkpt lat="45.90695" lon="5.23345">
        <ele>223.4</ele>
        <time>2024-09-19T09:09:49Z</time>
      </trkpt>
      <trkpt lat="45.90695" lon="5.23345">
        <ele>223.4</ele>
        <time>2024-09-19T09:09:50Z</time>
      </trkpt>
      <trkpt lat="45.90696" lon="5.23345">
        <ele>223.4</ele>
        <time>2024-09-19T09:09:51Z</time>
      </trkpt>
      <trkpt lat="45.90696" lon="5.23347">
        <ele>223.6</ele>
        <time>2024-09-19T09:09:57Z</time>
      </trkpt>
      <trkpt lat="45.90697" lon="5.2335">
        <ele>223.6</ele>
        <time>2024-09-19T09:09:58Z</time>
      </trkpt>
      <trkpt lat="45.90697" lon="5.23352">
        <ele>223.6</ele>
        <time>2024-09-19T09:09:59Z</time>
      </trkpt>
      <trkpt lat="45.90697" lon="5.23356">
        <ele>223.6</ele>
        <time>2024-09-19T09:10:00Z</time>
      </trkpt>
      <trkpt lat="45.90698" lon="5.23361">
        <ele>223.6</ele>
        <time>2024-09-19T09:10:01Z</time>
      </trkpt>
      <trkpt lat="45.90698" lon="5.23366">
        <ele>223.6</ele>
        <time>2024-09-19T09:10:02Z</time>
      </trkpt>
      <trkpt lat="45.90699" lon="5.23371">
        <ele>223.6</ele>
        <time>2024-09-19T09:10:03Z</time>
      </trkpt>
      <trkpt lat="45.90699" lon="5.23376">
        <ele>223.6</ele>
        <time>2024-09-19T09:10:04Z</time>
      </trkpt>
      <trkpt lat="45.90699" lon="5.23381">
        <ele>223.6</ele>
        <time>2024-09-19T09:10:05Z</time>
      </trkpt>
      <trkpt lat="45.90699" lon="5.23387">
        <ele>223.6</ele>
        <time>2024-09-19T09:10:06Z</time>
      </trkpt>
      <trkpt lat="45.907" lon="5.23393">
        <ele>223.6</ele>
        <time>2024-09-19T09:10:07Z</time>
      </trkpt>
      <trkpt lat="45.907" lon="5.23399">
        <ele>223.6</ele>
        <time>2024-09-19T09:10:08Z</time>
      </trkpt>
      <trkpt lat="45.907" lon="5.23405">
        <ele>223.2</ele>
        <time>2024-09-19T09:10:09Z</time>
      </trkpt>
      <trkpt lat="45.90701" lon="5.23411">
        <ele>223.2</ele>
        <time>2024-09-19T09:10:10Z</time>
      </trkpt>
      <trkpt lat="45.90701" lon="5.23418">
        <ele>223.2</ele>
        <time>2024-09-19T09:10:11Z</time>
      </trkpt>
      <trkpt lat="45.90701" lon="5.23424">
        <ele>223.2</ele>
        <time>2024-09-19T09:10:12Z</time>
      </trkpt>
      <trkpt lat="45.90701" lon="5.23431">
        <ele>223.2</ele>
        <time>2024-09-19T09:10:13Z</time>
      </trkpt>
      <trkpt lat="45.90702" lon="5.23438">
        <ele>223.2</ele>
        <time>2024-09-19T09:10:14Z</time>
      </trkpt>
      <trkpt lat="45.90702" lon="5.23444">
        <ele>223.2</ele>
        <time>2024-09-19T09:10:15Z</time>
      </trkpt>
      <trkpt lat="45.90702" lon="5.23451">
        <ele>223.2</ele>
        <time>2024-09-19T09:10:16Z</time>
      </trkpt>
      <trkpt lat="45.90702" lon="5.23458">
        <ele>223.2</ele>
        <time>2024-09-19T09:10:17Z</time>
      </trkpt>
      <trkpt lat="45.90702" lon="5.23465">
        <ele>223.6</ele>
        <time>2024-09-19T09:10:18Z</time>
      </trkpt>
      <trkpt lat="45.90703" lon="5.23472">
        <ele>223.2</ele>
        <time>2024-09-19T09:10:19Z</time>
      </trkpt>
      <trkpt lat="45.90703" lon="5.23479">
        <ele>223.2</ele>
        <time>2024-09-19T09:10:20Z</time>
      </trkpt>
      <trkpt lat="45.90704" lon="5.23486">
        <ele>223.2</ele>
        <time>2024-09-19T09:10:21Z</time>
      </trkpt>
      <trkpt lat="45.90704" lon="5.23493">
        <ele>223</ele>
        <time>2024-09-19T09:10:22Z</time>
      </trkpt>
      <trkpt lat="45.90705" lon="5.235">
        <ele>223</ele>
        <time>2024-09-19T09:10:23Z</time>
      </trkpt>
      <trkpt lat="45.90705" lon="5.23507">
        <ele>223</ele>
        <time>2024-09-19T09:10:24Z</time>
      </trkpt>
      <trkpt lat="45.90706" lon="5.23512">
        <ele>223</ele>
        <time>2024-09-19T09:10:25Z</time>
      </trkpt>
      <trkpt lat="45.90706" lon="5.23516">
        <ele>223.2</ele>
        <time>2024-09-19T09:10:26Z</time>
      </trkpt>
      <trkpt lat="45.90706" lon="5.2352">
        <ele>223.2</ele>
        <time>2024-09-19T09:10:27Z</time>
      </trkpt>
      <trkpt lat="45.90706" lon="5.23524">
        <ele>223.2</ele>
        <time>2024-09-19T09:10:28Z</time>
      </trkpt>
      <trkpt lat="45.90707" lon="5.23527">
        <ele>223.2</ele>
        <time>2024-09-19T09:10:29Z</time>
      </trkpt>
      <trkpt lat="45.90707" lon="5.23531">
        <ele>223.2</ele>
        <time>2024-09-19T09:10:30Z</time>
      </trkpt>
      <trkpt lat="45.90706" lon="5.23534">
        <ele>223.2</ele>
        <time>2024-09-19T09:10:31Z</time>
      </trkpt>
      <trkpt lat="45.90708" lon="5.23538">
        <ele>222</ele>
        <time>2024-09-19T09:10:32Z</time>
      </trkpt>
      <trkpt lat="45.90708" lon="5.23543">
        <ele>222.6</ele>
        <time>2024-09-19T09:10:33Z</time>
      </trkpt>
      <trkpt lat="45.90708" lon="5.23548">
        <ele>222.8</ele>
        <time>2024-09-19T09:10:34Z</time>
      </trkpt>
      <trkpt lat="45.90708" lon="5.23552">
        <ele>222.8</ele>
        <time>2024-09-19T09:10:35Z</time>
      </trkpt>
      <trkpt lat="45.90707" lon="5.23557">
        <ele>223</ele>
        <time>2024-09-19T09:10:36Z</time>
      </trkpt>
      <trkpt lat="45.90706" lon="5.23561">
        <ele>223</ele>
        <time>2024-09-19T09:10:37Z</time>
      </trkpt>
      <trkpt lat="45.90705" lon="5.23565">
        <ele>223</ele>
        <time>2024-09-19T09:10:38Z</time>
      </trkpt>
      <trkpt lat="45.90703" lon="5.23568">
        <ele>223.4</ele>
        <time>2024-09-19T09:10:39Z</time>
      </trkpt>
      <trkpt lat="45.90702" lon="5.2357">
        <ele>223.4</ele>
        <time>2024-09-19T09:10:40Z</time>
      </trkpt>
      <trkpt lat="45.907" lon="5.23572">
        <ele>223.4</ele>
        <time>2024-09-19T09:10:41Z</time>
      </trkpt>
      <trkpt lat="45.90699" lon="5.23573">
        <ele>223.4</ele>
        <time>2024-09-19T09:10:42Z</time>
      </trkpt>
      <trkpt lat="45.90697" lon="5.23573">
        <ele>223.4</ele>
        <time>2024-09-19T09:10:43Z</time>
      </trkpt>
      <trkpt lat="45.90695" lon="5.23573">
        <ele>223</ele>
        <time>2024-09-19T09:10:44Z</time>
      </trkpt>
      <trkpt lat="45.90692" lon="5.23573">
        <ele>223</ele>
        <time>2024-09-19T09:10:45Z</time>
      </trkpt>
      <trkpt lat="45.90689" lon="5.23572">
        <ele>222.8</ele>
        <time>2024-09-19T09:10:46Z</time>
      </trkpt>
      <trkpt lat="45.90686" lon="5.23571">
        <ele>222.8</ele>
        <time>2024-09-19T09:10:47Z</time>
      </trkpt>
      <trkpt lat="45.90685" lon="5.2357">
        <ele>222.8</ele>
        <time>2024-09-19T09:10:48Z</time>
      </trkpt>
      <trkpt lat="45.90684" lon="5.23569">
        <ele>222.8</ele>
        <time>2024-09-19T09:10:49Z</time>
      </trkpt>
      <trkpt lat="45.90684" lon="5.23569">
        <ele>222.8</ele>
        <time>2024-09-19T09:10:50Z</time>
      </trkpt>
      <trkpt lat="45.90684" lon="5.23568">
        <ele>222.8</ele>
        <time>2024-09-19T09:10:51Z</time>
      </trkpt>
      <trkpt lat="45.90684" lon="5.23567">
        <ele>222.8</ele>
        <time>2024-09-19T09:10:52Z</time>
      </trkpt>
      <trkpt lat="45.90683" lon="5.23564">
        <ele>222.4</ele>
        <time>2024-09-19T09:10:53Z</time>
      </trkpt>
      <trkpt lat="45.90683" lon="5.23561">
        <ele>222.4</ele>
        <time>2024-09-19T09:10:54Z</time>
      </trkpt>
      <trkpt lat="45.90682" lon="5.23557">
        <ele>222.4</ele>
        <time>2024-09-19T09:10:55Z</time>
      </trkpt>
      <trkpt lat="45.90681" lon="5.23553">
        <ele>222</ele>
        <time>2024-09-19T09:10:56Z</time>
      </trkpt>
      <trkpt lat="45.9068" lon="5.23549">
        <ele>222</ele>
        <time>2024-09-19T09:10:57Z</time>
      </trkpt>
      <trkpt lat="45.90678" lon="5.23545">
        <ele>221.6</ele>
        <time>2024-09-19T09:10:58Z</time>
      </trkpt>
      <trkpt lat="45.90675" lon="5.2354">
        <ele>221</ele>
        <time>2024-09-19T09:10:59Z</time>
      </trkpt>
      <trkpt lat="45.90671" lon="5.23535">
        <ele>221</ele>
        <time>2024-09-19T09:11:00Z</time>
      </trkpt>
      <trkpt lat="45.90667" lon="5.23529">
        <ele>220.6</ele>
        <time>2024-09-19T09:11:01Z</time>
      </trkpt>
      <trkpt lat="45.90664" lon="5.23523">
        <ele>219.8</ele>
        <time>2024-09-19T09:11:02Z</time>
      </trkpt>
      <trkpt lat="45.90661" lon="5.23518">
        <ele>219.8</ele>
        <time>2024-09-19T09:11:03Z</time>
      </trkpt>
      <trkpt lat="45.90658" lon="5.23513">
        <ele>219.2</ele>
        <time>2024-09-19T09:11:04Z</time>
      </trkpt>
      <trkpt lat="45.90654" lon="5.23509">
        <ele>219.2</ele>
        <time>2024-09-19T09:11:05Z</time>
      </trkpt>
      <trkpt lat="45.90651" lon="5.23505">
        <ele>218.8</ele>
        <time>2024-09-19T09:11:06Z</time>
      </trkpt>
      <trkpt lat="45.90648" lon="5.23502">
        <ele>218.6</ele>
        <time>2024-09-19T09:11:07Z</time>
      </trkpt>
      <trkpt lat="45.90644" lon="5.23498">
        <ele>218.6</ele>
        <time>2024-09-19T09:11:08Z</time>
      </trkpt>
      <trkpt lat="45.90641" lon="5.23493">
        <ele>218.2</ele>
        <time>2024-09-19T09:11:09Z</time>
      </trkpt>
      <trkpt lat="45.90638" lon="5.23489">
        <ele>218.8</ele>
        <time>2024-09-19T09:11:10Z</time>
      </trkpt>
      <trkpt lat="45.90635" lon="5.23484">
        <ele>218.8</ele>
        <time>2024-09-19T09:11:11Z</time>
      </trkpt>
      <trkpt lat="45.90632" lon="5.23482">
        <ele>217.8</ele>
        <time>2024-09-19T09:11:12Z</time>
      </trkpt>
      <trkpt lat="45.90627" lon="5.23479">
        <ele>217.4</ele>
        <time>2024-09-19T09:11:13Z</time>
      </trkpt>
      <trkpt lat="45.90622" lon="5.23476">
        <ele>217</ele>
        <time>2024-09-19T09:11:14Z</time>
      </trkpt>
      <trkpt lat="45.90617" lon="5.23473">
        <ele>215.8</ele>
        <time>2024-09-19T09:11:15Z</time>
      </trkpt>
      <trkpt lat="45.90612" lon="5.23471">
        <ele>215.8</ele>
        <time>2024-09-19T09:11:16Z</time>
      </trkpt>
      <trkpt lat="45.90608" lon="5.23469">
        <ele>215.8</ele>
        <time>2024-09-19T09:11:17Z</time>
      </trkpt>
      <trkpt lat="45.90605" lon="5.23468">
        <ele>215.8</ele>
        <time>2024-09-19T09:11:18Z</time>
      </trkpt>
      <trkpt lat="45.906" lon="5.23467">
        <ele>215.8</ele>
        <time>2024-09-19T09:11:19Z</time>
      </trkpt>
      <trkpt lat="45.90596" lon="5.23467">
        <ele>215.2</ele>
        <time>2024-09-19T09:11:20Z</time>
      </trkpt>
      <trkpt lat="45.9059" lon="5.23468">
        <ele>215.2</ele>
        <time>2024-09-19T09:11:21Z</time>
      </trkpt>
      <trkpt lat="45.90587" lon="5.23467">
        <ele>215</ele>
        <time>2024-09-19T09:11:22Z</time>
      </trkpt>
      <trkpt lat="45.90582" lon="5.23468">
        <ele>215</ele>
        <time>2024-09-19T09:11:23Z</time>
      </trkpt>
      <trkpt lat="45.90578" lon="5.2347">
        <ele>215</ele>
        <time>2024-09-19T09:11:24Z</time>
      </trkpt>
      <trkpt lat="45.90574" lon="5.23472">
        <ele>215.2</ele>
        <time>2024-09-19T09:11:25Z</time>
      </trkpt>
      <trkpt lat="45.9057" lon="5.23474">
        <ele>215.2</ele>
        <time>2024-09-19T09:11:26Z</time>
      </trkpt>
      <trkpt lat="45.90567" lon="5.23473">
        <ele>215</ele>
        <time>2024-09-19T09:11:27Z</time>
      </trkpt>
      <trkpt lat="45.90564" lon="5.23474">
        <ele>215</ele>
        <time>2024-09-19T09:11:28Z</time>
      </trkpt>
      <trkpt lat="45.90562" lon="5.23473">
        <ele>215.4</ele>
        <time>2024-09-19T09:11:29Z</time>
      </trkpt>
      <trkpt lat="45.90557" lon="5.23476">
        <ele>215.6</ele>
        <time>2024-09-19T09:11:30Z</time>
      </trkpt>
      <trkpt lat="45.90549" lon="5.23479">
        <ele>215.2</ele>
        <time>2024-09-19T09:11:31Z</time>
      </trkpt>
      <trkpt lat="45.90546" lon="5.23475">
        <ele>215.4</ele>
        <time>2024-09-19T09:11:32Z</time>
      </trkpt>
      <trkpt lat="45.90542" lon="5.23476">
        <ele>215.4</ele>
        <time>2024-09-19T09:11:33Z</time>
      </trkpt>
      <trkpt lat="45.90539" lon="5.23478">
        <ele>215.4</ele>
        <time>2024-09-19T09:11:34Z</time>
      </trkpt>
      <trkpt lat="45.90536" lon="5.23478">
        <ele>215.6</ele>
        <time>2024-09-19T09:11:35Z</time>
      </trkpt>
      <trkpt lat="45.90533" lon="5.23479">
        <ele>215.6</ele>
        <time>2024-09-19T09:11:36Z</time>
      </trkpt>
      <trkpt lat="45.90528" lon="5.2348">
        <ele>215.6</ele>
        <time>2024-09-19T09:11:37Z</time>
      </trkpt>
      <trkpt lat="45.90526" lon="5.2348">
        <ele>215.6</ele>
        <time>2024-09-19T09:11:38Z</time>
      </trkpt>
      <trkpt lat="45.90522" lon="5.23481">
        <ele>215.6</ele>
        <time>2024-09-19T09:11:39Z</time>
      </trkpt>
      <trkpt lat="45.90518" lon="5.23483">
        <ele>216</ele>
        <time>2024-09-19T09:11:40Z</time>
      </trkpt>
      <trkpt lat="45.90516" lon="5.23486">
        <ele>216.2</ele>
        <time>2024-09-19T09:11:41Z</time>
      </trkpt>
      <trkpt lat="45.90513" lon="5.23488">
        <ele>216.6</ele>
        <time>2024-09-19T09:11:42Z</time>
      </trkpt>
      <trkpt lat="45.9051" lon="5.2349">
        <ele>216</ele>
        <time>2024-09-19T09:11:43Z</time>
      </trkpt>
      <trkpt lat="45.90508" lon="5.23493">
        <ele>215.8</ele>
        <time>2024-09-19T09:11:44Z</time>
      </trkpt>
      <trkpt lat="45.90505" lon="5.23495">
        <ele>215.8</ele>
        <time>2024-09-19T09:11:45Z</time>
      </trkpt>
      <trkpt lat="45.90501" lon="5.23497">
        <ele>216.4</ele>
        <time>2024-09-19T09:11:46Z</time>
      </trkpt>
      <trkpt lat="45.90498" lon="5.23499">
        <ele>216.8</ele>
        <time>2024-09-19T09:11:47Z</time>
      </trkpt>
      <trkpt lat="45.90495" lon="5.235">
        <ele>216.8</ele>
        <time>2024-09-19T09:11:48Z</time>
      </trkpt>
      <trkpt lat="45.90495" lon="5.235">
        <ele>217.2</ele>
        <time>2024-09-19T09:11:49Z</time>
      </trkpt>
      <trkpt lat="45.90492" lon="5.23501">
        <ele>217.2</ele>
        <time>2024-09-19T09:11:50Z</time>
      </trkpt>
      <trkpt lat="45.9049" lon="5.23502">
        <ele>217.2</ele>
        <time>2024-09-19T09:11:51Z</time>
      </trkpt>
      <trkpt lat="45.90488" lon="5.23503">
        <ele>217.6</ele>
        <time>2024-09-19T09:11:52Z</time>
      </trkpt>
      <trkpt lat="45.90487" lon="5.23504">
        <ele>217.8</ele>
        <time>2024-09-19T09:11:53Z</time>
      </trkpt>
      <trkpt lat="45.90487" lon="5.23504">
        <ele>217.8</ele>
        <time>2024-09-19T09:11:54Z</time>
      </trkpt>
      <trkpt lat="45.90485" lon="5.23504">
        <ele>217.6</ele>
        <time>2024-09-19T09:12:29Z</time>
      </trkpt>
      <trkpt lat="45.90483" lon="5.23504">
        <ele>217.6</ele>
        <time>2024-09-19T09:12:30Z</time>
      </trkpt>
      <trkpt lat="45.90482" lon="5.23504">
        <ele>217.6</ele>
        <time>2024-09-19T09:12:31Z</time>
      </trkpt>
      <trkpt lat="45.90479" lon="5.23504">
        <ele>217.6</ele>
        <time>2024-09-19T09:12:32Z</time>
      </trkpt>
      <trkpt lat="45.90475" lon="5.23504">
        <ele>217.6</ele>
        <time>2024-09-19T09:12:33Z</time>
      </trkpt>
      <trkpt lat="45.90472" lon="5.23503">
        <ele>217.6</ele>
        <time>2024-09-19T09:12:34Z</time>
      </trkpt>
      <trkpt lat="45.90468" lon="5.23501">
        <ele>217.6</ele>
        <time>2024-09-19T09:12:35Z</time>
      </trkpt>
      <trkpt lat="45.90464" lon="5.235">
        <ele>217.2</ele>
        <time>2024-09-19T09:12:36Z</time>
      </trkpt>
      <trkpt lat="45.90461" lon="5.235">
        <ele>217.4</ele>
        <time>2024-09-19T09:12:37Z</time>
      </trkpt>
      <trkpt lat="45.90458" lon="5.23501">
        <ele>217.4</ele>
        <time>2024-09-19T09:12:38Z</time>
      </trkpt>
      <trkpt lat="45.90455" lon="5.23501">
        <ele>217</ele>
        <time>2024-09-19T09:12:39Z</time>
      </trkpt>
      <trkpt lat="45.90451" lon="5.23501">
        <ele>217</ele>
        <time>2024-09-19T09:12:40Z</time>
      </trkpt>
      <trkpt lat="45.90449" lon="5.23501">
        <ele>217.2</ele>
        <time>2024-09-19T09:12:41Z</time>
      </trkpt>
      <trkpt lat="45.90447" lon="5.23501">
        <ele>217.2</ele>
        <time>2024-09-19T09:12:42Z</time>
      </trkpt>
      <trkpt lat="45.90445" lon="5.235">
        <ele>217.2</ele>
        <time>2024-09-19T09:12:43Z</time>
      </trkpt>
      <trkpt lat="45.90442" lon="5.23499">
        <ele>216.8</ele>
        <time>2024-09-19T09:12:44Z</time>
      </trkpt>
      <trkpt lat="45.9044" lon="5.23497">
        <ele>216.8</ele>
        <time>2024-09-19T09:12:45Z</time>
      </trkpt>
      <trkpt lat="45.90437" lon="5.23497">
        <ele>216.6</ele>
        <time>2024-09-19T09:12:46Z</time>
      </trkpt>
      <trkpt lat="45.90432" lon="5.23498">
        <ele>216.6</ele>
        <time>2024-09-19T09:12:47Z</time>
      </trkpt>
      <trkpt lat="45.90428" lon="5.235">
        <ele>216.4</ele>
        <time>2024-09-19T09:12:48Z</time>
      </trkpt>
      <trkpt lat="45.90424" lon="5.23502">
        <ele>216.4</ele>
        <time>2024-09-19T09:12:49Z</time>
      </trkpt>
      <trkpt lat="45.90421" lon="5.23503">
        <ele>216</ele>
        <time>2024-09-19T09:12:50Z</time>
      </trkpt>
      <trkpt lat="45.90419" lon="5.23503">
        <ele>216</ele>
        <time>2024-09-19T09:12:51Z</time>
      </trkpt>
      <trkpt lat="45.90417" lon="5.23504">
        <ele>216.4</ele>
        <time>2024-09-19T09:12:52Z</time>
      </trkpt>
      <trkpt lat="45.90413" lon="5.23506">
        <ele>216.4</ele>
        <time>2024-09-19T09:12:53Z</time>
      </trkpt>
      <trkpt lat="45.90407" lon="5.23511">
        <ele>216.4</ele>
        <time>2024-09-19T09:12:54Z</time>
      </trkpt>
      <trkpt lat="45.90404" lon="5.23514">
        <ele>216.4</ele>
        <time>2024-09-19T09:12:55Z</time>
      </trkpt>
      <trkpt lat="45.90402" lon="5.23516">
        <ele>216.4</ele>
        <time>2024-09-19T09:12:56Z</time>
      </trkpt>
      <trkpt lat="45.90398" lon="5.23518">
        <ele>216.4</ele>
        <time>2024-09-19T09:12:57Z</time>
      </trkpt>
      <trkpt lat="45.90395" lon="5.23518">
        <ele>216.4</ele>
        <time>2024-09-19T09:12:58Z</time>
      </trkpt>
      <trkpt lat="45.90393" lon="5.23519">
        <ele>216.4</ele>
        <time>2024-09-19T09:12:59Z</time>
      </trkpt>
      <trkpt lat="45.9039" lon="5.23521">
        <ele>216.4</ele>
        <time>2024-09-19T09:13:00Z</time>
      </trkpt>
      <trkpt lat="45.90387" lon="5.23521">
        <ele>216.4</ele>
        <time>2024-09-19T09:13:01Z</time>
      </trkpt>
      <trkpt lat="45.90384" lon="5.23522">
        <ele>216.4</ele>
        <time>2024-09-19T09:13:02Z</time>
      </trkpt>
      <trkpt lat="45.9038" lon="5.23524">
        <ele>216.4</ele>
        <time>2024-09-19T09:13:03Z</time>
      </trkpt>
      <trkpt lat="45.90377" lon="5.23528">
        <ele>216.4</ele>
        <time>2024-09-19T09:13:04Z</time>
      </trkpt>
      <trkpt lat="45.90374" lon="5.23531">
        <ele>216.4</ele>
        <time>2024-09-19T09:13:05Z</time>
      </trkpt>
      <trkpt lat="45.90371" lon="5.23535">
        <ele>216.6</ele>
        <time>2024-09-19T09:13:06Z</time>
      </trkpt>
      <trkpt lat="45.9037" lon="5.23537">
        <ele>216.8</ele>
        <time>2024-09-19T09:13:07Z</time>
      </trkpt>
      <trkpt lat="45.90369" lon="5.23539">
        <ele>217</ele>
        <time>2024-09-19T09:13:08Z</time>
      </trkpt>
      <trkpt lat="45.90367" lon="5.23541">
        <ele>217</ele>
        <time>2024-09-19T09:13:09Z</time>
      </trkpt>
      <trkpt lat="45.90364" lon="5.23542">
        <ele>217</ele>
        <time>2024-09-19T09:13:10Z</time>
      </trkpt>
      <trkpt lat="45.90361" lon="5.23543">
        <ele>217</ele>
        <time>2024-09-19T09:13:11Z</time>
      </trkpt>
      <trkpt lat="45.90358" lon="5.23543">
        <ele>217</ele>
        <time>2024-09-19T09:13:12Z</time>
      </trkpt>
      <trkpt lat="45.90355" lon="5.23545">
        <ele>217</ele>
        <time>2024-09-19T09:13:13Z</time>
      </trkpt>
      <trkpt lat="45.90352" lon="5.23548">
        <ele>217</ele>
        <time>2024-09-19T09:13:14Z</time>
      </trkpt>
      <trkpt lat="45.9035" lon="5.23551">
        <ele>217.2</ele>
        <time>2024-09-19T09:13:15Z</time>
      </trkpt>
      <trkpt lat="45.90349" lon="5.23554">
        <ele>217.2</ele>
        <time>2024-09-19T09:13:16Z</time>
      </trkpt>
      <trkpt lat="45.90348" lon="5.23558">
        <ele>217.2</ele>
        <time>2024-09-19T09:13:17Z</time>
      </trkpt>
      <trkpt lat="45.90345" lon="5.2356">
        <ele>217.2</ele>
        <time>2024-09-19T09:13:18Z</time>
      </trkpt>
      <trkpt lat="45.90343" lon="5.23562">
        <ele>217.2</ele>
        <time>2024-09-19T09:13:19Z</time>
      </trkpt>
      <trkpt lat="45.9034" lon="5.23563">
        <ele>217.2</ele>
        <time>2024-09-19T09:13:20Z</time>
      </trkpt>
      <trkpt lat="45.90337" lon="5.23565">
        <ele>217.2</ele>
        <time>2024-09-19T09:13:21Z</time>
      </trkpt>
      <trkpt lat="45.90334" lon="5.23567">
        <ele>216.8</ele>
        <time>2024-09-19T09:13:22Z</time>
      </trkpt>
      <trkpt lat="45.90331" lon="5.2357">
        <ele>216.8</ele>
        <time>2024-09-19T09:13:23Z</time>
      </trkpt>
      <trkpt lat="45.90327" lon="5.23573">
        <ele>216.8</ele>
        <time>2024-09-19T09:13:24Z</time>
      </trkpt>
      <trkpt lat="45.90324" lon="5.23577">
        <ele>216.8</ele>
        <time>2024-09-19T09:13:25Z</time>
      </trkpt>
      <trkpt lat="45.90321" lon="5.2358">
        <ele>216.6</ele>
        <time>2024-09-19T09:13:26Z</time>
      </trkpt>
      <trkpt lat="45.90319" lon="5.23582">
        <ele>216.6</ele>
        <time>2024-09-19T09:13:27Z</time>
      </trkpt>
      <trkpt lat="45.90317" lon="5.23584">
        <ele>216.6</ele>
        <time>2024-09-19T09:13:28Z</time>
      </trkpt>
      <trkpt lat="45.90311" lon="5.23585">
        <ele>216.6</ele>
        <time>2024-09-19T09:13:29Z</time>
      </trkpt>
      <trkpt lat="45.90306" lon="5.23586">
        <ele>216.6</ele>
        <time>2024-09-19T09:13:30Z</time>
      </trkpt>
      <trkpt lat="45.90302" lon="5.23587">
        <ele>216.6</ele>
        <time>2024-09-19T09:13:31Z</time>
      </trkpt>
      <trkpt lat="45.90299" lon="5.23588">
        <ele>216.6</ele>
        <time>2024-09-19T09:13:32Z</time>
      </trkpt>
      <trkpt lat="45.90298" lon="5.23591">
        <ele>216.6</ele>
        <time>2024-09-19T09:13:33Z</time>
      </trkpt>
      <trkpt lat="45.90294" lon="5.23595">
        <ele>216.6</ele>
        <time>2024-09-19T09:13:34Z</time>
      </trkpt>
      <trkpt lat="45.90292" lon="5.23599">
        <ele>216.6</ele>
        <time>2024-09-19T09:13:35Z</time>
      </trkpt>
      <trkpt lat="45.90288" lon="5.236">
        <ele>216.6</ele>
        <time>2024-09-19T09:13:36Z</time>
      </trkpt>
      <trkpt lat="45.90285" lon="5.23604">
        <ele>216.6</ele>
        <time>2024-09-19T09:13:37Z</time>
      </trkpt>
      <trkpt lat="45.90281" lon="5.23606">
        <ele>216.6</ele>
        <time>2024-09-19T09:13:38Z</time>
      </trkpt>
      <trkpt lat="45.90277" lon="5.23609">
        <ele>216.6</ele>
        <time>2024-09-19T09:13:39Z</time>
      </trkpt>
      <trkpt lat="45.90274" lon="5.23612">
        <ele>216.6</ele>
        <time>2024-09-19T09:13:40Z</time>
      </trkpt>
      <trkpt lat="45.90271" lon="5.23615">
        <ele>216.4</ele>
        <time>2024-09-19T09:13:41Z</time>
      </trkpt>
      <trkpt lat="45.90269" lon="5.23618">
        <ele>216.4</ele>
        <time>2024-09-19T09:13:42Z</time>
      </trkpt>
      <trkpt lat="45.90266" lon="5.23621">
        <ele>216.4</ele>
        <time>2024-09-19T09:13:43Z</time>
      </trkpt>
      <trkpt lat="45.90264" lon="5.23624">
        <ele>216.4</ele>
        <time>2024-09-19T09:13:44Z</time>
      </trkpt>
      <trkpt lat="45.90262" lon="5.23628">
        <ele>216.6</ele>
        <time>2024-09-19T09:13:45Z</time>
      </trkpt>
      <trkpt lat="45.90259" lon="5.23632">
        <ele>217</ele>
        <time>2024-09-19T09:13:46Z</time>
      </trkpt>
      <trkpt lat="45.90257" lon="5.23636">
        <ele>216.6</ele>
        <time>2024-09-19T09:13:47Z</time>
      </trkpt>
      <trkpt lat="45.90257" lon="5.23639">
        <ele>216.6</ele>
        <time>2024-09-19T09:13:48Z</time>
      </trkpt>
      <trkpt lat="45.90256" lon="5.23643">
        <ele>216.6</ele>
        <time>2024-09-19T09:13:49Z</time>
      </trkpt>
      <trkpt lat="45.90256" lon="5.23647">
        <ele>216.8</ele>
        <time>2024-09-19T09:13:50Z</time>
      </trkpt>
      <trkpt lat="45.90255" lon="5.23651">
        <ele>216.8</ele>
        <time>2024-09-19T09:13:51Z</time>
      </trkpt>
      <trkpt lat="45.90253" lon="5.23655">
        <ele>216.8</ele>
        <time>2024-09-19T09:13:52Z</time>
      </trkpt>
      <trkpt lat="45.9025" lon="5.2366">
        <ele>216.6</ele>
        <time>2024-09-19T09:13:53Z</time>
      </trkpt>
      <trkpt lat="45.90248" lon="5.23664">
        <ele>216.4</ele>
        <time>2024-09-19T09:13:54Z</time>
      </trkpt>
      <trkpt lat="45.90245" lon="5.23669">
        <ele>216.4</ele>
        <time>2024-09-19T09:13:55Z</time>
      </trkpt>
      <trkpt lat="45.90243" lon="5.23673">
        <ele>216.4</ele>
        <time>2024-09-19T09:13:56Z</time>
      </trkpt>
      <trkpt lat="45.90242" lon="5.23676">
        <ele>216.8</ele>
        <time>2024-09-19T09:13:57Z</time>
      </trkpt>
      <trkpt lat="45.90239" lon="5.23682">
        <ele>216.8</ele>
        <time>2024-09-19T09:13:58Z</time>
      </trkpt>
      <trkpt lat="45.90238" lon="5.23686">
        <ele>216.8</ele>
        <time>2024-09-19T09:13:59Z</time>
      </trkpt>
      <trkpt lat="45.90237" lon="5.23691">
        <ele>216.8</ele>
        <time>2024-09-19T09:14:00Z</time>
      </trkpt>
      <trkpt lat="45.90235" lon="5.23695">
        <ele>216.8</ele>
        <time>2024-09-19T09:14:01Z</time>
      </trkpt>
      <trkpt lat="45.90234" lon="5.23697">
        <ele>216.6</ele>
        <time>2024-09-19T09:14:02Z</time>
      </trkpt>
      <trkpt lat="45.90232" lon="5.23701">
        <ele>217</ele>
        <time>2024-09-19T09:14:03Z</time>
      </trkpt>
      <trkpt lat="45.90229" lon="5.23704">
        <ele>217</ele>
        <time>2024-09-19T09:14:04Z</time>
      </trkpt>
      <trkpt lat="45.90226" lon="5.23707">
        <ele>217</ele>
        <time>2024-09-19T09:14:05Z</time>
      </trkpt>
      <trkpt lat="45.90222" lon="5.2371">
        <ele>217</ele>
        <time>2024-09-19T09:14:06Z</time>
      </trkpt>
      <trkpt lat="45.90218" lon="5.23714">
        <ele>217</ele>
        <time>2024-09-19T09:14:07Z</time>
      </trkpt>
      <trkpt lat="45.90215" lon="5.23718">
        <ele>217</ele>
        <time>2024-09-19T09:14:08Z</time>
      </trkpt>
      <trkpt lat="45.90211" lon="5.23723">
        <ele>217</ele>
        <time>2024-09-19T09:14:09Z</time>
      </trkpt>
      <trkpt lat="45.90208" lon="5.23727">
        <ele>217</ele>
        <time>2024-09-19T09:14:10Z</time>
      </trkpt>
      <trkpt lat="45.90205" lon="5.23732">
        <ele>216.6</ele>
        <time>2024-09-19T09:14:11Z</time>
      </trkpt>
      <trkpt lat="45.90202" lon="5.23736">
        <ele>216.6</ele>
        <time>2024-09-19T09:14:12Z</time>
      </trkpt>
      <trkpt lat="45.90199" lon="5.23742">
        <ele>216.6</ele>
        <time>2024-09-19T09:14:13Z</time>
      </trkpt>
      <trkpt lat="45.90196" lon="5.23746">
        <ele>216.6</ele>
        <time>2024-09-19T09:14:14Z</time>
      </trkpt>
      <trkpt lat="45.90193" lon="5.23749">
        <ele>216.6</ele>
        <time>2024-09-19T09:14:15Z</time>
      </trkpt>
      <trkpt lat="45.9019" lon="5.23752">
        <ele>216.8</ele>
        <time>2024-09-19T09:14:16Z</time>
      </trkpt>
      <trkpt lat="45.90187" lon="5.23755">
        <ele>216.8</ele>
        <time>2024-09-19T09:14:17Z</time>
      </trkpt>
      <trkpt lat="45.90184" lon="5.23757">
        <ele>216.8</ele>
        <time>2024-09-19T09:14:18Z</time>
      </trkpt>
      <trkpt lat="45.90181" lon="5.23759">
        <ele>217.2</ele>
        <time>2024-09-19T09:14:19Z</time>
      </trkpt>
      <trkpt lat="45.90177" lon="5.23762">
        <ele>217.2</ele>
        <time>2024-09-19T09:14:20Z</time>
      </trkpt>
      <trkpt lat="45.90174" lon="5.23765">
        <ele>216.8</ele>
        <time>2024-09-19T09:14:21Z</time>
      </trkpt>
      <trkpt lat="45.90171" lon="5.23768">
        <ele>216.8</ele>
        <time>2024-09-19T09:14:22Z</time>
      </trkpt>
      <trkpt lat="45.90168" lon="5.23774">
        <ele>216.6</ele>
        <time>2024-09-19T09:14:23Z</time>
      </trkpt>
      <trkpt lat="45.90165" lon="5.23779">
        <ele>216.6</ele>
        <time>2024-09-19T09:14:24Z</time>
      </trkpt>
      <trkpt lat="45.90163" lon="5.23784">
        <ele>216.6</ele>
        <time>2024-09-19T09:14:25Z</time>
      </trkpt>
      <trkpt lat="45.90159" lon="5.23787">
        <ele>216.6</ele>
        <time>2024-09-19T09:14:26Z</time>
      </trkpt>
      <trkpt lat="45.90154" lon="5.2379">
        <ele>217</ele>
        <time>2024-09-19T09:14:27Z</time>
      </trkpt>
      <trkpt lat="45.90152" lon="5.23793">
        <ele>217</ele>
        <time>2024-09-19T09:14:28Z</time>
      </trkpt>
      <trkpt lat="45.90149" lon="5.23795">
        <ele>217</ele>
        <time>2024-09-19T09:14:29Z</time>
      </trkpt>
      <trkpt lat="45.90145" lon="5.23794">
        <ele>216.6</ele>
        <time>2024-09-19T09:14:30Z</time>
      </trkpt>
      <trkpt lat="45.90141" lon="5.23795">
        <ele>216.6</ele>
        <time>2024-09-19T09:14:31Z</time>
      </trkpt>
      <trkpt lat="45.9014" lon="5.23796">
        <ele>216.6</ele>
        <time>2024-09-19T09:14:32Z</time>
      </trkpt>
      <trkpt lat="45.90139" lon="5.23796">
        <ele>216.4</ele>
        <time>2024-09-19T09:14:33Z</time>
      </trkpt>
      <trkpt lat="45.90138" lon="5.23797">
        <ele>216.4</ele>
        <time>2024-09-19T09:14:34Z</time>
      </trkpt>
      <trkpt lat="45.90138" lon="5.238">
        <ele>214.6</ele>
        <time>2024-09-19T09:14:35Z</time>
      </trkpt>
      <trkpt lat="45.90133" lon="5.23806">
        <ele>215</ele>
        <time>2024-09-19T09:14:36Z</time>
      </trkpt>
      <trkpt lat="45.9013" lon="5.2381">
        <ele>215</ele>
        <time>2024-09-19T09:14:37Z</time>
      </trkpt>
      <trkpt lat="45.90128" lon="5.23814">
        <ele>215</ele>
        <time>2024-09-19T09:14:38Z</time>
      </trkpt>
      <trkpt lat="45.90125" lon="5.23818">
        <ele>215</ele>
        <time>2024-09-19T09:14:39Z</time>
      </trkpt>
      <trkpt lat="45.90122" lon="5.23823">
        <ele>215</ele>
        <time>2024-09-19T09:14:40Z</time>
      </trkpt>
      <trkpt lat="45.9012" lon="5.23827">
        <ele>215</ele>
        <time>2024-09-19T09:14:41Z</time>
      </trkpt>
      <trkpt lat="45.90117" lon="5.23831">
        <ele>215</ele>
        <time>2024-09-19T09:14:42Z</time>
      </trkpt>
      <trkpt lat="45.90115" lon="5.23835">
        <ele>215.4</ele>
        <time>2024-09-19T09:14:43Z</time>
      </trkpt>
      <trkpt lat="45.90112" lon="5.23838">
        <ele>215.6</ele>
        <time>2024-09-19T09:14:44Z</time>
      </trkpt>
      <trkpt lat="45.90108" lon="5.23841">
        <ele>215.6</ele>
        <time>2024-09-19T09:14:45Z</time>
      </trkpt>
      <trkpt lat="45.90108" lon="5.23844">
        <ele>215.6</ele>
        <time>2024-09-19T09:14:46Z</time>
      </trkpt>
      <trkpt lat="45.90106" lon="5.23846">
        <ele>215.6</ele>
        <time>2024-09-19T09:14:47Z</time>
      </trkpt>
      <trkpt lat="45.90106" lon="5.23847">
        <ele>216</ele>
        <time>2024-09-19T09:14:48Z</time>
      </trkpt>
      <trkpt lat="45.90105" lon="5.2385">
        <ele>215.2</ele>
        <time>2024-09-19T09:14:49Z</time>
      </trkpt>
      <trkpt lat="45.90105" lon="5.23855">
        <ele>215.4</ele>
        <time>2024-09-19T09:14:50Z</time>
      </trkpt>
      <trkpt lat="45.90105" lon="5.23859">
        <ele>215.4</ele>
        <time>2024-09-19T09:14:51Z</time>
      </trkpt>
      <trkpt lat="45.90105" lon="5.23863">
        <ele>215.4</ele>
        <time>2024-09-19T09:14:52Z</time>
      </trkpt>
      <trkpt lat="45.90105" lon="5.23866">
        <ele>215.4</ele>
        <time>2024-09-19T09:14:53Z</time>
      </trkpt>
      <trkpt lat="45.90105" lon="5.23868">
        <ele>215.8</ele>
        <time>2024-09-19T09:14:54Z</time>
      </trkpt>
      <trkpt lat="45.90105" lon="5.23871">
        <ele>215.8</ele>
        <time>2024-09-19T09:14:55Z</time>
      </trkpt>
      <trkpt lat="45.90105" lon="5.23873">
        <ele>216.2</ele>
        <time>2024-09-19T09:14:56Z</time>
      </trkpt>
      <trkpt lat="45.90105" lon="5.23873">
        <ele>216.2</ele>
        <time>2024-09-19T09:14:57Z</time>
      </trkpt>
      <trkpt lat="45.90106" lon="5.23876">
        <ele>216.2</ele>
        <time>2024-09-19T09:14:58Z</time>
      </trkpt>
      <trkpt lat="45.90107" lon="5.23878">
        <ele>216.2</ele>
        <time>2024-09-19T09:14:59Z</time>
      </trkpt>
      <trkpt lat="45.90107" lon="5.23882">
        <ele>216.8</ele>
        <time>2024-09-19T09:15:00Z</time>
      </trkpt>
      <trkpt lat="45.90106" lon="5.23885">
        <ele>216.6</ele>
        <time>2024-09-19T09:15:01Z</time>
      </trkpt>
      <trkpt lat="45.90105" lon="5.23887">
        <ele>216.4</ele>
        <time>2024-09-19T09:15:02Z</time>
      </trkpt>
      <trkpt lat="45.90104" lon="5.23889">
        <ele>216.4</ele>
        <time>2024-09-19T09:15:03Z</time>
      </trkpt>
      <trkpt lat="45.90102" lon="5.23889">
        <ele>216</ele>
        <time>2024-09-19T09:15:04Z</time>
      </trkpt>
      <trkpt lat="45.901" lon="5.2389">
        <ele>215.6</ele>
        <time>2024-09-19T09:15:05Z</time>
      </trkpt>
      <trkpt lat="45.9009" lon="5.23898">
        <ele>215.6</ele>
        <time>2024-09-19T09:15:06Z</time>
      </trkpt>
      <trkpt lat="45.90088" lon="5.23902">
        <ele>215.6</ele>
        <time>2024-09-19T09:15:07Z</time>
      </trkpt>
      <trkpt lat="45.90081" lon="5.23914">
        <ele>215.6</ele>
        <time>2024-09-19T09:15:08Z</time>
      </trkpt>
      <trkpt lat="45.90083" lon="5.23912">
        <ele>215.6</ele>
        <time>2024-09-19T09:15:09Z</time>
      </trkpt>
      <trkpt lat="45.90084" lon="5.23911">
        <ele>215.8</ele>
        <time>2024-09-19T09:15:10Z</time>
      </trkpt>
      <trkpt lat="45.90081" lon="5.23914">
        <ele>215.8</ele>
        <time>2024-09-19T09:15:11Z</time>
      </trkpt>
      <trkpt lat="45.9008" lon="5.23915">
        <ele>215.8</ele>
        <time>2024-09-19T09:15:12Z</time>
      </trkpt>
      <trkpt lat="45.90079" lon="5.23915">
        <ele>215.8</ele>
        <time>2024-09-19T09:15:13Z</time>
      </trkpt>
      <trkpt lat="45.9008" lon="5.23914">
        <ele>215.8</ele>
        <time>2024-09-19T09:15:14Z</time>
      </trkpt>
      <trkpt lat="45.90077" lon="5.23915">
        <ele>215.8</ele>
        <time>2024-09-19T09:15:19Z</time>
      </trkpt>
      <trkpt lat="45.90077" lon="5.23915">
        <ele>215.8</ele>
        <time>2024-09-19T09:15:20Z</time>
      </trkpt>
      <trkpt lat="45.90076" lon="5.23915">
        <ele>216.2</ele>
        <time>2024-09-19T09:15:21Z</time>
      </trkpt>
      <trkpt lat="45.90076" lon="5.23917">
        <ele>215.8</ele>
        <time>2024-09-19T09:15:24Z</time>
      </trkpt>
      <trkpt lat="45.90076" lon="5.23917">
        <ele>215.8</ele>
        <time>2024-09-19T09:15:25Z</time>
      </trkpt>
      <trkpt lat="45.90074" lon="5.23919">
        <ele>215.8</ele>
        <time>2024-09-19T09:15:26Z</time>
      </trkpt>
      <trkpt lat="45.90072" lon="5.23921">
        <ele>215.8</ele>
        <time>2024-09-19T09:15:27Z</time>
      </trkpt>
      <trkpt lat="45.90072" lon="5.23922">
        <ele>216.2</ele>
        <time>2024-09-19T09:15:28Z</time>
      </trkpt>
      <trkpt lat="45.90071" lon="5.23924">
        <ele>216.2</ele>
        <time>2024-09-19T09:15:29Z</time>
      </trkpt>
      <trkpt lat="45.90069" lon="5.23927">
        <ele>216.2</ele>
        <time>2024-09-19T09:15:30Z</time>
      </trkpt>
      <trkpt lat="45.90068" lon="5.2393">
        <ele>216.2</ele>
        <time>2024-09-19T09:15:31Z</time>
      </trkpt>
      <trkpt lat="45.90067" lon="5.23931">
        <ele>216.2</ele>
        <time>2024-09-19T09:15:32Z</time>
      </trkpt>
      <trkpt lat="45.90066" lon="5.23933">
        <ele>216.2</ele>
        <time>2024-09-19T09:15:33Z</time>
      </trkpt>
      <trkpt lat="45.90065" lon="5.23936">
        <ele>216.2</ele>
        <time>2024-09-19T09:15:34Z</time>
      </trkpt>
      <trkpt lat="45.90064" lon="5.23938">
        <ele>216.2</ele>
        <time>2024-09-19T09:15:35Z</time>
      </trkpt>
      <trkpt lat="45.90063" lon="5.2394">
        <ele>216</ele>
        <time>2024-09-19T09:15:36Z</time>
      </trkpt>
      <trkpt lat="45.90062" lon="5.23944">
        <ele>216</ele>
        <time>2024-09-19T09:15:37Z</time>
      </trkpt>
      <trkpt lat="45.9006" lon="5.23948">
        <ele>215.8</ele>
        <time>2024-09-19T09:15:38Z</time>
      </trkpt>
      <trkpt lat="45.90059" lon="5.23953">
        <ele>215.6</ele>
        <time>2024-09-19T09:15:39Z</time>
      </trkpt>
      <trkpt lat="45.90058" lon="5.23957">
        <ele>215.6</ele>
        <time>2024-09-19T09:15:40Z</time>
      </trkpt>
      <trkpt lat="45.90057" lon="5.23961">
        <ele>215.6</ele>
        <time>2024-09-19T09:15:41Z</time>
      </trkpt>
      <trkpt lat="45.90055" lon="5.23965">
        <ele>216</ele>
        <time>2024-09-19T09:15:42Z</time>
      </trkpt>
      <trkpt lat="45.90052" lon="5.23969">
        <ele>216</ele>
        <time>2024-09-19T09:15:43Z</time>
      </trkpt>
      <trkpt lat="45.9005" lon="5.23972">
        <ele>215.8</ele>
        <time>2024-09-19T09:15:44Z</time>
      </trkpt>
      <trkpt lat="45.90048" lon="5.23975">
        <ele>215.8</ele>
        <time>2024-09-19T09:15:45Z</time>
      </trkpt>
      <trkpt lat="45.90045" lon="5.23978">
        <ele>215.8</ele>
        <time>2024-09-19T09:15:46Z</time>
      </trkpt>
      <trkpt lat="45.90043" lon="5.23982">
        <ele>215.8</ele>
        <time>2024-09-19T09:15:47Z</time>
      </trkpt>
      <trkpt lat="45.9004" lon="5.23986">
        <ele>215.8</ele>
        <time>2024-09-19T09:15:48Z</time>
      </trkpt>
      <trkpt lat="45.90038" lon="5.2399">
        <ele>215.8</ele>
        <time>2024-09-19T09:15:49Z</time>
      </trkpt>
      <trkpt lat="45.90036" lon="5.23994">
        <ele>215.8</ele>
        <time>2024-09-19T09:15:50Z</time>
      </trkpt>
      <trkpt lat="45.90034" lon="5.23999">
        <ele>215.8</ele>
        <time>2024-09-19T09:15:51Z</time>
      </trkpt>
      <trkpt lat="45.90032" lon="5.24004">
        <ele>215.8</ele>
        <time>2024-09-19T09:15:52Z</time>
      </trkpt>
      <trkpt lat="45.90031" lon="5.24008">
        <ele>216</ele>
        <time>2024-09-19T09:15:53Z</time>
      </trkpt>
      <trkpt lat="45.90026" lon="5.24016">
        <ele>216</ele>
        <time>2024-09-19T09:15:54Z</time>
      </trkpt>
      <trkpt lat="45.90025" lon="5.24022">
        <ele>216</ele>
        <time>2024-09-19T09:15:55Z</time>
      </trkpt>
      <trkpt lat="45.90022" lon="5.24028">
        <ele>216</ele>
        <time>2024-09-19T09:15:56Z</time>
      </trkpt>
      <trkpt lat="45.90019" lon="5.24036">
        <ele>216</ele>
        <time>2024-09-19T09:15:57Z</time>
      </trkpt>
      <trkpt lat="45.90017" lon="5.24039">
        <ele>216</ele>
        <time>2024-09-19T09:15:58Z</time>
      </trkpt>
      <trkpt lat="45.90015" lon="5.24046">
        <ele>216</ele>
        <time>2024-09-19T09:15:59Z</time>
      </trkpt>
      <trkpt lat="45.90013" lon="5.24054">
        <ele>216</ele>
        <time>2024-09-19T09:16:00Z</time>
      </trkpt>
      <trkpt lat="45.90011" lon="5.24063">
        <ele>216</ele>
        <time>2024-09-19T09:16:01Z</time>
      </trkpt>
      <trkpt lat="45.90009" lon="5.2407">
        <ele>216</ele>
        <time>2024-09-19T09:16:02Z</time>
      </trkpt>
      <trkpt lat="45.90008" lon="5.24076">
        <ele>215.6</ele>
        <time>2024-09-19T09:16:03Z</time>
      </trkpt>
      <trkpt lat="45.9001" lon="5.24084">
        <ele>215.6</ele>
        <time>2024-09-19T09:16:04Z</time>
      </trkpt>
      <trkpt lat="45.9001" lon="5.24089">
        <ele>215.8</ele>
        <time>2024-09-19T09:16:05Z</time>
      </trkpt>
      <trkpt lat="45.90007" lon="5.24096">
        <ele>215.6</ele>
        <time>2024-09-19T09:16:06Z</time>
      </trkpt>
      <trkpt lat="45.90007" lon="5.24103">
        <ele>215.4</ele>
        <time>2024-09-19T09:16:07Z</time>
      </trkpt>
      <trkpt lat="45.90003" lon="5.2411">
        <ele>215.4</ele>
        <time>2024-09-19T09:16:08Z</time>
      </trkpt>
      <trkpt lat="45.90001" lon="5.24117">
        <ele>215.4</ele>
        <time>2024-09-19T09:16:09Z</time>
      </trkpt>
      <trkpt lat="45.90001" lon="5.24123">
        <ele>215.6</ele>
        <time>2024-09-19T09:16:10Z</time>
      </trkpt>
      <trkpt lat="45.9" lon="5.24125">
        <ele>216</ele>
        <time>2024-09-19T09:16:11Z</time>
      </trkpt>
      <trkpt lat="45.89999" lon="5.24133">
        <ele>216</ele>
        <time>2024-09-19T09:16:12Z</time>
      </trkpt>
      <trkpt lat="45.89999" lon="5.24137">
        <ele>215.4</ele>
        <time>2024-09-19T09:16:13Z</time>
      </trkpt>
      <trkpt lat="45.89995" lon="5.24142">
        <ele>215.4</ele>
        <time>2024-09-19T09:16:14Z</time>
      </trkpt>
      <trkpt lat="45.89992" lon="5.24148">
        <ele>215.4</ele>
        <time>2024-09-19T09:16:15Z</time>
      </trkpt>
      <trkpt lat="45.89989" lon="5.24153">
        <ele>215.2</ele>
        <time>2024-09-19T09:16:16Z</time>
      </trkpt>
      <trkpt lat="45.89987" lon="5.24159">
        <ele>215.2</ele>
        <time>2024-09-19T09:16:17Z</time>
      </trkpt>
      <trkpt lat="45.89982" lon="5.24166">
        <ele>215.2</ele>
        <time>2024-09-19T09:16:18Z</time>
      </trkpt>
      <trkpt lat="45.8998" lon="5.24172">
        <ele>214.8</ele>
        <time>2024-09-19T09:16:19Z</time>
      </trkpt>
      <trkpt lat="45.89979" lon="5.24178">
        <ele>214.8</ele>
        <time>2024-09-19T09:16:20Z</time>
      </trkpt>
      <trkpt lat="45.89974" lon="5.24183">
        <ele>214.8</ele>
        <time>2024-09-19T09:16:21Z</time>
      </trkpt>
      <trkpt lat="45.89971" lon="5.24189">
        <ele>215.2</ele>
        <time>2024-09-19T09:16:22Z</time>
      </trkpt>
      <trkpt lat="45.8997" lon="5.24193">
        <ele>215.2</ele>
        <time>2024-09-19T09:16:23Z</time>
      </trkpt>
      <trkpt lat="45.89968" lon="5.24198">
        <ele>214.2</ele>
        <time>2024-09-19T09:16:24Z</time>
      </trkpt>
      <trkpt lat="45.89965" lon="5.24203">
        <ele>214.8</ele>
        <time>2024-09-19T09:16:25Z</time>
      </trkpt>
      <trkpt lat="45.89964" lon="5.24207">
        <ele>214.8</ele>
        <time>2024-09-19T09:16:26Z</time>
      </trkpt>
      <trkpt lat="45.89963" lon="5.24211">
        <ele>214.8</ele>
        <time>2024-09-19T09:16:27Z</time>
      </trkpt>
      <trkpt lat="45.89962" lon="5.24214">
        <ele>215.4</ele>
        <time>2024-09-19T09:16:28Z</time>
      </trkpt>
      <trkpt lat="45.8996" lon="5.24218">
        <ele>215.4</ele>
        <time>2024-09-19T09:16:29Z</time>
      </trkpt>
      <trkpt lat="45.89959" lon="5.24224">
        <ele>215.4</ele>
        <time>2024-09-19T09:16:30Z</time>
      </trkpt>
      <trkpt lat="45.89957" lon="5.24229">
        <ele>215.4</ele>
        <time>2024-09-19T09:16:31Z</time>
      </trkpt>
      <trkpt lat="45.89956" lon="5.24233">
        <ele>215.8</ele>
        <time>2024-09-19T09:16:32Z</time>
      </trkpt>
      <trkpt lat="45.89954" lon="5.24237">
        <ele>215.8</ele>
        <time>2024-09-19T09:16:33Z</time>
      </trkpt>
      <trkpt lat="45.89952" lon="5.24241">
        <ele>215.8</ele>
        <time>2024-09-19T09:16:34Z</time>
      </trkpt>
      <trkpt lat="45.8995" lon="5.24245">
        <ele>215.8</ele>
        <time>2024-09-19T09:16:35Z</time>
      </trkpt>
      <trkpt lat="45.89948" lon="5.24249">
        <ele>215.8</ele>
        <time>2024-09-19T09:16:36Z</time>
      </trkpt>
      <trkpt lat="45.89947" lon="5.24253">
        <ele>215.8</ele>
        <time>2024-09-19T09:16:37Z</time>
      </trkpt>
      <trkpt lat="45.89946" lon="5.24257">
        <ele>215.8</ele>
        <time>2024-09-19T09:16:38Z</time>
      </trkpt>
      <trkpt lat="45.89945" lon="5.24262">
        <ele>215.8</ele>
        <time>2024-09-19T09:16:39Z</time>
      </trkpt>
      <trkpt lat="45.89944" lon="5.24267">
        <ele>215.8</ele>
        <time>2024-09-19T09:16:40Z</time>
      </trkpt>
      <trkpt lat="45.89943" lon="5.24273">
        <ele>215.8</ele>
        <time>2024-09-19T09:16:41Z</time>
      </trkpt>
      <trkpt lat="45.89942" lon="5.24277">
        <ele>216</ele>
        <time>2024-09-19T09:16:42Z</time>
      </trkpt>
      <trkpt lat="45.89941" lon="5.24282">
        <ele>216</ele>
        <time>2024-09-19T09:16:43Z</time>
      </trkpt>
      <trkpt lat="45.8994" lon="5.24287">
        <ele>216</ele>
        <time>2024-09-19T09:16:44Z</time>
      </trkpt>
      <trkpt lat="45.89939" lon="5.24292">
        <ele>216.2</ele>
        <time>2024-09-19T09:16:45Z</time>
      </trkpt>
      <trkpt lat="45.89938" lon="5.24296">
        <ele>216.2</ele>
        <time>2024-09-19T09:16:46Z</time>
      </trkpt>
      <trkpt lat="45.89937" lon="5.24301">
        <ele>216.2</ele>
        <time>2024-09-19T09:16:47Z</time>
      </trkpt>
      <trkpt lat="45.89937" lon="5.24306">
        <ele>216.2</ele>
        <time>2024-09-19T09:16:48Z</time>
      </trkpt>
      <trkpt lat="45.89937" lon="5.24312">
        <ele>216</ele>
        <time>2024-09-19T09:16:49Z</time>
      </trkpt>
      <trkpt lat="45.89937" lon="5.24318">
        <ele>216</ele>
        <time>2024-09-19T09:16:50Z</time>
      </trkpt>
      <trkpt lat="45.89937" lon="5.24324">
        <ele>215.6</ele>
        <time>2024-09-19T09:16:51Z</time>
      </trkpt>
      <trkpt lat="45.89937" lon="5.2433">
        <ele>216</ele>
        <time>2024-09-19T09:16:52Z</time>
      </trkpt>
      <trkpt lat="45.89937" lon="5.24336">
        <ele>215.6</ele>
        <time>2024-09-19T09:16:53Z</time>
      </trkpt>
      <trkpt lat="45.89936" lon="5.2434">
        <ele>215.6</ele>
        <time>2024-09-19T09:16:54Z</time>
      </trkpt>
      <trkpt lat="45.89935" lon="5.24344">
        <ele>215.6</ele>
        <time>2024-09-19T09:16:55Z</time>
      </trkpt>
      <trkpt lat="45.89934" lon="5.24348">
        <ele>215.6</ele>
        <time>2024-09-19T09:16:56Z</time>
      </trkpt>
      <trkpt lat="45.89933" lon="5.24353">
        <ele>215.4</ele>
        <time>2024-09-19T09:16:57Z</time>
      </trkpt>
      <trkpt lat="45.89932" lon="5.24357">
        <ele>215.4</ele>
        <time>2024-09-19T09:16:58Z</time>
      </trkpt>
      <trkpt lat="45.89931" lon="5.24362">
        <ele>215.6</ele>
        <time>2024-09-19T09:16:59Z</time>
      </trkpt>
      <trkpt lat="45.89931" lon="5.24366">
        <ele>215.6</ele>
        <time>2024-09-19T09:17:00Z</time>
      </trkpt>
      <trkpt lat="45.8993" lon="5.2437">
        <ele>215.6</ele>
        <time>2024-09-19T09:17:01Z</time>
      </trkpt>
      <trkpt lat="45.89929" lon="5.24376">
        <ele>215.6</ele>
        <time>2024-09-19T09:17:02Z</time>
      </trkpt>
      <trkpt lat="45.89929" lon="5.24382">
        <ele>215.6</ele>
        <time>2024-09-19T09:17:03Z</time>
      </trkpt>
      <trkpt lat="45.89928" lon="5.24387">
        <ele>215.6</ele>
        <time>2024-09-19T09:17:04Z</time>
      </trkpt>
      <trkpt lat="45.89927" lon="5.24392">
        <ele>215.6</ele>
        <time>2024-09-19T09:17:05Z</time>
      </trkpt>
      <trkpt lat="45.89926" lon="5.24398">
        <ele>215.6</ele>
        <time>2024-09-19T09:17:06Z</time>
      </trkpt>
      <trkpt lat="45.89925" lon="5.24402">
        <ele>215.6</ele>
        <time>2024-09-19T09:17:07Z</time>
      </trkpt>
      <trkpt lat="45.89924" lon="5.24407">
        <ele>215.6</ele>
        <time>2024-09-19T09:17:08Z</time>
      </trkpt>
      <trkpt lat="45.89923" lon="5.24412">
        <ele>215.6</ele>
        <time>2024-09-19T09:17:09Z</time>
      </trkpt>
      <trkpt lat="45.89921" lon="5.24419">
        <ele>215.4</ele>
        <time>2024-09-19T09:17:10Z</time>
      </trkpt>
      <trkpt lat="45.8992" lon="5.24425">
        <ele>215.4</ele>
        <time>2024-09-19T09:17:11Z</time>
      </trkpt>
      <trkpt lat="45.8992" lon="5.24431">
        <ele>215.4</ele>
        <time>2024-09-19T09:17:12Z</time>
      </trkpt>
      <trkpt lat="45.89921" lon="5.24436">
        <ele>215.4</ele>
        <time>2024-09-19T09:17:13Z</time>
      </trkpt>
      <trkpt lat="45.8992" lon="5.24442">
        <ele>215.4</ele>
        <time>2024-09-19T09:17:14Z</time>
      </trkpt>
      <trkpt lat="45.8992" lon="5.24448">
        <ele>215.4</ele>
        <time>2024-09-19T09:17:15Z</time>
      </trkpt>
      <trkpt lat="45.8992" lon="5.24452">
        <ele>215.4</ele>
        <time>2024-09-19T09:17:16Z</time>
      </trkpt>
      <trkpt lat="45.8992" lon="5.24458">
        <ele>215.4</ele>
        <time>2024-09-19T09:17:17Z</time>
      </trkpt>
      <trkpt lat="45.89922" lon="5.24464">
        <ele>215.4</ele>
        <time>2024-09-19T09:17:18Z</time>
      </trkpt>
      <trkpt lat="45.89922" lon="5.2447">
        <ele>215.4</ele>
        <time>2024-09-19T09:17:19Z</time>
      </trkpt>
      <trkpt lat="45.89923" lon="5.24472">
        <ele>215.4</ele>
        <time>2024-09-19T09:17:20Z</time>
      </trkpt>
      <trkpt lat="45.89925" lon="5.24476">
        <ele>215.4</ele>
        <time>2024-09-19T09:17:21Z</time>
      </trkpt>
      <trkpt lat="45.89926" lon="5.24481">
        <ele>215.4</ele>
        <time>2024-09-19T09:17:22Z</time>
      </trkpt>
      <trkpt lat="45.89928" lon="5.24487">
        <ele>215.2</ele>
        <time>2024-09-19T09:17:23Z</time>
      </trkpt>
      <trkpt lat="45.89929" lon="5.24492">
        <ele>215.2</ele>
        <time>2024-09-19T09:17:24Z</time>
      </trkpt>
      <trkpt lat="45.89931" lon="5.24496">
        <ele>215.2</ele>
        <time>2024-09-19T09:17:25Z</time>
      </trkpt>
      <trkpt lat="45.89933" lon="5.24501">
        <ele>215.2</ele>
        <time>2024-09-19T09:17:26Z</time>
      </trkpt>
      <trkpt lat="45.89935" lon="5.24506">
        <ele>215.2</ele>
        <time>2024-09-19T09:17:27Z</time>
      </trkpt>
      <trkpt lat="45.89937" lon="5.24511">
        <ele>215.2</ele>
        <time>2024-09-19T09:17:28Z</time>
      </trkpt>
      <trkpt lat="45.89937" lon="5.24516">
        <ele>215</ele>
        <time>2024-09-19T09:17:29Z</time>
      </trkpt>
      <trkpt lat="45.89937" lon="5.24516">
        <ele>214.4</ele>
        <time>2024-09-19T09:17:30Z</time>
      </trkpt>
      <trkpt lat="45.89937" lon="5.24516">
        <ele>215</ele>
        <time>2024-09-19T09:17:31Z</time>
      </trkpt>
      <trkpt lat="45.89938" lon="5.24528">
        <ele>215.4</ele>
        <time>2024-09-19T09:17:33Z</time>
      </trkpt>
      <trkpt lat="45.89938" lon="5.24531">
        <ele>215.8</ele>
        <time>2024-09-19T09:17:34Z</time>
      </trkpt>
      <trkpt lat="45.89937" lon="5.24534">
        <ele>215.8</ele>
        <time>2024-09-19T09:17:35Z</time>
      </trkpt>
      <trkpt lat="45.89935" lon="5.24538">
        <ele>215.8</ele>
        <time>2024-09-19T09:17:36Z</time>
      </trkpt>
      <trkpt lat="45.89932" lon="5.24542">
        <ele>215.8</ele>
        <time>2024-09-19T09:17:37Z</time>
      </trkpt>
      <trkpt lat="45.89929" lon="5.24545">
        <ele>215.2</ele>
        <time>2024-09-19T09:17:38Z</time>
      </trkpt>
      <trkpt lat="45.89926" lon="5.24548">
        <ele>215.4</ele>
        <time>2024-09-19T09:17:39Z</time>
      </trkpt>
      <trkpt lat="45.89924" lon="5.24552">
        <ele>215.4</ele>
        <time>2024-09-19T09:17:40Z</time>
      </trkpt>
      <trkpt lat="45.8992" lon="5.24557">
        <ele>215.4</ele>
        <time>2024-09-19T09:17:41Z</time>
      </trkpt>
      <trkpt lat="45.89917" lon="5.24562">
        <ele>215.8</ele>
        <time>2024-09-19T09:17:42Z</time>
      </trkpt>
      <trkpt lat="45.89914" lon="5.24566">
        <ele>215.8</ele>
        <time>2024-09-19T09:17:43Z</time>
      </trkpt>
      <trkpt lat="45.89911" lon="5.24571">
        <ele>215.8</ele>
        <time>2024-09-19T09:17:44Z</time>
      </trkpt>
      <trkpt lat="45.89908" lon="5.24576">
        <ele>215.8</ele>
        <time>2024-09-19T09:17:45Z</time>
      </trkpt>
      <trkpt lat="45.89904" lon="5.24581">
        <ele>215.8</ele>
        <time>2024-09-19T09:17:46Z</time>
      </trkpt>
      <trkpt lat="45.89901" lon="5.24586">
        <ele>215.8</ele>
        <time>2024-09-19T09:17:47Z</time>
      </trkpt>
      <trkpt lat="45.89897" lon="5.2459">
        <ele>215.8</ele>
        <time>2024-09-19T09:17:48Z</time>
      </trkpt>
      <trkpt lat="45.89893" lon="5.24595">
        <ele>215.8</ele>
        <time>2024-09-19T09:17:49Z</time>
      </trkpt>
      <trkpt lat="45.8989" lon="5.246">
        <ele>215.4</ele>
        <time>2024-09-19T09:17:50Z</time>
      </trkpt>
      <trkpt lat="45.89887" lon="5.24604">
        <ele>215.2</ele>
        <time>2024-09-19T09:17:51Z</time>
      </trkpt>
      <trkpt lat="45.89883" lon="5.24608">
        <ele>215.2</ele>
        <time>2024-09-19T09:17:52Z</time>
      </trkpt>
      <trkpt lat="45.89879" lon="5.24613">
        <ele>215.2</ele>
        <time>2024-09-19T09:17:53Z</time>
      </trkpt>
      <trkpt lat="45.89874" lon="5.24617">
        <ele>215.6</ele>
        <time>2024-09-19T09:17:54Z</time>
      </trkpt>
      <trkpt lat="45.8987" lon="5.24621">
        <ele>215.6</ele>
        <time>2024-09-19T09:17:55Z</time>
      </trkpt>
      <trkpt lat="45.89865" lon="5.24625">
        <ele>215.6</ele>
        <time>2024-09-19T09:17:56Z</time>
      </trkpt>
      <trkpt lat="45.89861" lon="5.24629">
        <ele>215.4</ele>
        <time>2024-09-19T09:17:57Z</time>
      </trkpt>
      <trkpt lat="45.89856" lon="5.24633">
        <ele>215.4</ele>
        <time>2024-09-19T09:17:58Z</time>
      </trkpt>
      <trkpt lat="45.89853" lon="5.24639">
        <ele>214.8</ele>
        <time>2024-09-19T09:17:59Z</time>
      </trkpt>
      <trkpt lat="45.89853" lon="5.24639">
        <ele>214.6</ele>
        <time>2024-09-19T09:18:00Z</time>
      </trkpt>
      <trkpt lat="45.89853" lon="5.24639">
        <ele>214.8</ele>
        <time>2024-09-19T09:18:01Z</time>
      </trkpt>
      <trkpt lat="45.89844" lon="5.24659">
        <ele>214.8</ele>
        <time>2024-09-19T09:18:02Z</time>
      </trkpt>
      <trkpt lat="45.89842" lon="5.24666">
        <ele>214.8</ele>
        <time>2024-09-19T09:18:03Z</time>
      </trkpt>
      <trkpt lat="45.8984" lon="5.24673">
        <ele>215</ele>
        <time>2024-09-19T09:18:04Z</time>
      </trkpt>
      <trkpt lat="45.89837" lon="5.2468">
        <ele>215</ele>
        <time>2024-09-19T09:18:05Z</time>
      </trkpt>
      <trkpt lat="45.89836" lon="5.24687">
        <ele>215</ele>
        <time>2024-09-19T09:18:06Z</time>
      </trkpt>
      <trkpt lat="45.89835" lon="5.24694">
        <ele>215.2</ele>
        <time>2024-09-19T09:18:07Z</time>
      </trkpt>
      <trkpt lat="45.89836" lon="5.247">
        <ele>215.2</ele>
        <time>2024-09-19T09:18:08Z</time>
      </trkpt>
      <trkpt lat="45.89836" lon="5.24701">
        <ele>215.8</ele>
        <time>2024-09-19T09:18:09Z</time>
      </trkpt>
      <trkpt lat="45.89837" lon="5.24702">
        <ele>215.8</ele>
        <time>2024-09-19T09:18:10Z</time>
      </trkpt>
      <trkpt lat="45.89837" lon="5.24702">
        <ele>216.2</ele>
        <time>2024-09-19T09:18:11Z</time>
      </trkpt>
      <trkpt lat="45.89837" lon="5.24702">
        <ele>216.2</ele>
        <time>2024-09-19T09:18:12Z</time>
      </trkpt>
      <trkpt lat="45.89836" lon="5.24701">
        <ele>217.4</ele>
        <time>2024-09-19T09:21:31Z</time>
      </trkpt>
      <trkpt lat="45.89837" lon="5.24703">
        <ele>217.4</ele>
        <time>2024-09-19T09:21:32Z</time>
      </trkpt>
      <trkpt lat="45.89838" lon="5.24705">
        <ele>217.4</ele>
        <time>2024-09-19T09:21:33Z</time>
      </trkpt>
      <trkpt lat="45.8984" lon="5.24707">
        <ele>217.4</ele>
        <time>2024-09-19T09:21:34Z</time>
      </trkpt>
      <trkpt lat="45.89842" lon="5.24708">
        <ele>217.4</ele>
        <time>2024-09-19T09:21:35Z</time>
      </trkpt>
      <trkpt lat="45.89844" lon="5.24711">
        <ele>217.4</ele>
        <time>2024-09-19T09:21:36Z</time>
      </trkpt>
      <trkpt lat="45.89846" lon="5.24714">
        <ele>217.4</ele>
        <time>2024-09-19T09:21:37Z</time>
      </trkpt>
      <trkpt lat="45.89849" lon="5.24717">
        <ele>217.4</ele>
        <time>2024-09-19T09:21:38Z</time>
      </trkpt>
      <trkpt lat="45.89853" lon="5.2472">
        <ele>217.4</ele>
        <time>2024-09-19T09:21:39Z</time>
      </trkpt>
      <trkpt lat="45.89856" lon="5.24722">
        <ele>217.4</ele>
        <time>2024-09-19T09:21:40Z</time>
      </trkpt>
      <trkpt lat="45.8986" lon="5.24725">
        <ele>217.2</ele>
        <time>2024-09-19T09:21:41Z</time>
      </trkpt>
      <trkpt lat="45.89864" lon="5.24728">
        <ele>217.2</ele>
        <time>2024-09-19T09:21:42Z</time>
      </trkpt>
      <trkpt lat="45.89868" lon="5.24731">
        <ele>217.2</ele>
        <time>2024-09-19T09:21:43Z</time>
      </trkpt>
      <trkpt lat="45.89873" lon="5.24733">
        <ele>217.2</ele>
        <time>2024-09-19T09:21:44Z</time>
      </trkpt>
      <trkpt lat="45.89877" lon="5.24736">
        <ele>217.2</ele>
        <time>2024-09-19T09:21:45Z</time>
      </trkpt>
      <trkpt lat="45.89882" lon="5.24739">
        <ele>217.2</ele>
        <time>2024-09-19T09:21:46Z</time>
      </trkpt>
      <trkpt lat="45.89887" lon="5.24743">
        <ele>217.2</ele>
        <time>2024-09-19T09:21:47Z</time>
      </trkpt>
      <trkpt lat="45.89891" lon="5.24745">
        <ele>217.2</ele>
        <time>2024-09-19T09:21:48Z</time>
      </trkpt>
      <trkpt lat="45.89895" lon="5.24749">
        <ele>217.2</ele>
        <time>2024-09-19T09:21:49Z</time>
      </trkpt>
      <trkpt lat="45.89899" lon="5.24752">
        <ele>217.4</ele>
        <time>2024-09-19T09:21:50Z</time>
      </trkpt>
      <trkpt lat="45.89904" lon="5.24756">
        <ele>217.6</ele>
        <time>2024-09-19T09:21:51Z</time>
      </trkpt>
      <trkpt lat="45.89908" lon="5.2476">
        <ele>217.4</ele>
        <time>2024-09-19T09:21:52Z</time>
      </trkpt>
      <trkpt lat="45.89912" lon="5.24764">
        <ele>217.4</ele>
        <time>2024-09-19T09:21:53Z</time>
      </trkpt>
      <trkpt lat="45.89916" lon="5.24769">
        <ele>217.4</ele>
        <time>2024-09-19T09:21:54Z</time>
      </trkpt>
      <trkpt lat="45.8992" lon="5.24773">
        <ele>217.4</ele>
        <time>2024-09-19T09:21:55Z</time>
      </trkpt>
      <trkpt lat="45.89924" lon="5.24778">
        <ele>217.4</ele>
        <time>2024-09-19T09:21:56Z</time>
      </trkpt>
      <trkpt lat="45.89928" lon="5.24782">
        <ele>217.4</ele>
        <time>2024-09-19T09:21:57Z</time>
      </trkpt>
      <trkpt lat="45.89932" lon="5.24786">
        <ele>217.2</ele>
        <time>2024-09-19T09:21:58Z</time>
      </trkpt>
      <trkpt lat="45.89936" lon="5.24791">
        <ele>217.4</ele>
        <time>2024-09-19T09:21:59Z</time>
      </trkpt>
      <trkpt lat="45.89939" lon="5.24796">
        <ele>217.6</ele>
        <time>2024-09-19T09:22:00Z</time>
      </trkpt>
      <trkpt lat="45.89943" lon="5.248">
        <ele>217.6</ele>
        <time>2024-09-19T09:22:01Z</time>
      </trkpt>
      <trkpt lat="45.89947" lon="5.24804">
        <ele>217.6</ele>
        <time>2024-09-19T09:22:02Z</time>
      </trkpt>
      <trkpt lat="45.8995" lon="5.24809">
        <ele>218</ele>
        <time>2024-09-19T09:22:03Z</time>
      </trkpt>
      <trkpt lat="45.89954" lon="5.24813">
        <ele>218</ele>
        <time>2024-09-19T09:22:04Z</time>
      </trkpt>
      <trkpt lat="45.89958" lon="5.24817">
        <ele>218</ele>
        <time>2024-09-19T09:22:05Z</time>
      </trkpt>
      <trkpt lat="45.89962" lon="5.24821">
        <ele>218.4</ele>
        <time>2024-09-19T09:22:06Z</time>
      </trkpt>
      <trkpt lat="45.89965" lon="5.24826">
        <ele>218.6</ele>
        <time>2024-09-19T09:22:07Z</time>
      </trkpt>
      <trkpt lat="45.89968" lon="5.2483">
        <ele>218.6</ele>
        <time>2024-09-19T09:22:08Z</time>
      </trkpt>
      <trkpt lat="45.89971" lon="5.24835">
        <ele>218.6</ele>
        <time>2024-09-19T09:22:09Z</time>
      </trkpt>
      <trkpt lat="45.89975" lon="5.24838">
        <ele>219</ele>
        <time>2024-09-19T09:22:10Z</time>
      </trkpt>
      <trkpt lat="45.89979" lon="5.24842">
        <ele>219</ele>
        <time>2024-09-19T09:22:11Z</time>
      </trkpt>
      <trkpt lat="45.89982" lon="5.24845">
        <ele>219</ele>
        <time>2024-09-19T09:22:12Z</time>
      </trkpt>
      <trkpt lat="45.89985" lon="5.24848">
        <ele>219</ele>
        <time>2024-09-19T09:22:13Z</time>
      </trkpt>
      <trkpt lat="45.89988" lon="5.24851">
        <ele>218.6</ele>
        <time>2024-09-19T09:22:14Z</time>
      </trkpt>
      <trkpt lat="45.89992" lon="5.24854">
        <ele>219.2</ele>
        <time>2024-09-19T09:22:15Z</time>
      </trkpt>
      <trkpt lat="45.89995" lon="5.24856">
        <ele>219.4</ele>
        <time>2024-09-19T09:22:16Z</time>
      </trkpt>
      <trkpt lat="45.89997" lon="5.24858">
        <ele>219.4</ele>
        <time>2024-09-19T09:22:17Z</time>
      </trkpt>
      <trkpt lat="45.9" lon="5.2486">
        <ele>219.2</ele>
        <time>2024-09-19T09:22:18Z</time>
      </trkpt>
      <trkpt lat="45.90003" lon="5.2486">
        <ele>220.4</ele>
        <time>2024-09-19T09:22:19Z</time>
      </trkpt>
      <trkpt lat="45.90006" lon="5.2486">
        <ele>220.6</ele>
        <time>2024-09-19T09:22:20Z</time>
      </trkpt>
      <trkpt lat="45.90008" lon="5.2486">
        <ele>221</ele>
        <time>2024-09-19T09:22:21Z</time>
      </trkpt>
      <trkpt lat="45.90009" lon="5.24859">
        <ele>220.4</ele>
        <time>2024-09-19T09:22:22Z</time>
      </trkpt>
      <trkpt lat="45.9001" lon="5.24858">
        <ele>221</ele>
        <time>2024-09-19T09:22:23Z</time>
      </trkpt>
      <trkpt lat="45.90011" lon="5.24857">
        <ele>221.4</ele>
        <time>2024-09-19T09:22:24Z</time>
      </trkpt>
      <trkpt lat="45.90012" lon="5.24856">
        <ele>221.4</ele>
        <time>2024-09-19T09:22:25Z</time>
      </trkpt>
      <trkpt lat="45.90014" lon="5.24855">
        <ele>221.4</ele>
        <time>2024-09-19T09:22:26Z</time>
      </trkpt>
      <trkpt lat="45.90015" lon="5.24854">
        <ele>221.4</ele>
        <time>2024-09-19T09:22:27Z</time>
      </trkpt>
      <trkpt lat="45.90016" lon="5.24852">
        <ele>221.4</ele>
        <time>2024-09-19T09:22:28Z</time>
      </trkpt>
      <trkpt lat="45.90017" lon="5.2485">
        <ele>221.4</ele>
        <time>2024-09-19T09:22:29Z</time>
      </trkpt>
      <trkpt lat="45.90018" lon="5.24848">
        <ele>222.2</ele>
        <time>2024-09-19T09:22:30Z</time>
      </trkpt>
      <trkpt lat="45.9002" lon="5.24846">
        <ele>222.2</ele>
        <time>2024-09-19T09:22:31Z</time>
      </trkpt>
      <trkpt lat="45.90021" lon="5.24845">
        <ele>222.2</ele>
        <time>2024-09-19T09:22:32Z</time>
      </trkpt>
      <trkpt lat="45.90024" lon="5.24843">
        <ele>222.2</ele>
        <time>2024-09-19T09:22:33Z</time>
      </trkpt>
      <trkpt lat="45.90026" lon="5.24841">
        <ele>221.8</ele>
        <time>2024-09-19T09:22:34Z</time>
      </trkpt>
      <trkpt lat="45.90029" lon="5.24839">
        <ele>222.2</ele>
        <time>2024-09-19T09:22:35Z</time>
      </trkpt>
      <trkpt lat="45.90032" lon="5.24836">
        <ele>222.2</ele>
        <time>2024-09-19T09:22:36Z</time>
      </trkpt>
      <trkpt lat="45.90035" lon="5.24833">
        <ele>222.2</ele>
        <time>2024-09-19T09:22:37Z</time>
      </trkpt>
      <trkpt lat="45.90037" lon="5.24831">
        <ele>222.2</ele>
        <time>2024-09-19T09:22:38Z</time>
      </trkpt>
      <trkpt lat="45.9004" lon="5.24829">
        <ele>222.4</ele>
        <time>2024-09-19T09:22:39Z</time>
      </trkpt>
      <trkpt lat="45.90043" lon="5.24826">
        <ele>222.4</ele>
        <time>2024-09-19T09:22:40Z</time>
      </trkpt>
      <trkpt lat="45.90046" lon="5.24824">
        <ele>222.4</ele>
        <time>2024-09-19T09:22:41Z</time>
      </trkpt>
      <trkpt lat="45.90049" lon="5.24821">
        <ele>222.6</ele>
        <time>2024-09-19T09:22:42Z</time>
      </trkpt>
      <trkpt lat="45.90052" lon="5.24819">
        <ele>222.8</ele>
        <time>2024-09-19T09:22:43Z</time>
      </trkpt>
      <trkpt lat="45.90055" lon="5.24817">
        <ele>222.8</ele>
        <time>2024-09-19T09:22:44Z</time>
      </trkpt>
      <trkpt lat="45.90058" lon="5.24815">
        <ele>223.4</ele>
        <time>2024-09-19T09:22:45Z</time>
      </trkpt>
      <trkpt lat="45.9006" lon="5.24814">
        <ele>223.4</ele>
        <time>2024-09-19T09:22:46Z</time>
      </trkpt>
      <trkpt lat="45.90063" lon="5.24814">
        <ele>223.4</ele>
        <time>2024-09-19T09:22:47Z</time>
      </trkpt>
      <trkpt lat="45.90065" lon="5.24814">
        <ele>223.6</ele>
        <time>2024-09-19T09:22:48Z</time>
      </trkpt>
      <trkpt lat="45.90068" lon="5.24815">
        <ele>223.8</ele>
        <time>2024-09-19T09:22:49Z</time>
      </trkpt>
      <trkpt lat="45.90071" lon="5.24815">
        <ele>223.8</ele>
        <time>2024-09-19T09:22:50Z</time>
      </trkpt>
      <trkpt lat="45.90074" lon="5.24814">
        <ele>223.8</ele>
        <time>2024-09-19T09:22:51Z</time>
      </trkpt>
      <trkpt lat="45.90077" lon="5.24812">
        <ele>224.2</ele>
        <time>2024-09-19T09:22:52Z</time>
      </trkpt>
      <trkpt lat="45.90081" lon="5.2481">
        <ele>224.2</ele>
        <time>2024-09-19T09:22:53Z</time>
      </trkpt>
      <trkpt lat="45.90084" lon="5.24807">
        <ele>224.2</ele>
        <time>2024-09-19T09:22:54Z</time>
      </trkpt>
      <trkpt lat="45.90087" lon="5.24804">
        <ele>223.8</ele>
        <time>2024-09-19T09:22:55Z</time>
      </trkpt>
      <trkpt lat="45.9009" lon="5.24802">
        <ele>223.8</ele>
        <time>2024-09-19T09:22:56Z</time>
      </trkpt>
      <trkpt lat="45.90093" lon="5.248">
        <ele>223.6</ele>
        <time>2024-09-19T09:22:57Z</time>
      </trkpt>
      <trkpt lat="45.90094" lon="5.24799">
        <ele>223.6</ele>
        <time>2024-09-19T09:22:58Z</time>
      </trkpt>
      <trkpt lat="45.90096" lon="5.24798">
        <ele>223.6</ele>
        <time>2024-09-19T09:22:59Z</time>
      </trkpt>
      <trkpt lat="45.90099" lon="5.24799">
        <ele>223.6</ele>
        <time>2024-09-19T09:23:00Z</time>
      </trkpt>
      <trkpt lat="45.90102" lon="5.24801">
        <ele>223.6</ele>
        <time>2024-09-19T09:23:01Z</time>
      </trkpt>
      <trkpt lat="45.90105" lon="5.24803">
        <ele>223.4</ele>
        <time>2024-09-19T09:23:02Z</time>
      </trkpt>
      <trkpt lat="45.90109" lon="5.24803">
        <ele>223.4</ele>
        <time>2024-09-19T09:23:03Z</time>
      </trkpt>
      <trkpt lat="45.90112" lon="5.24803">
        <ele>223.6</ele>
        <time>2024-09-19T09:23:04Z</time>
      </trkpt>
      <trkpt lat="45.90116" lon="5.24803">
        <ele>223.6</ele>
        <time>2024-09-19T09:23:05Z</time>
      </trkpt>
      <trkpt lat="45.90119" lon="5.24804">
        <ele>223.6</ele>
        <time>2024-09-19T09:23:06Z</time>
      </trkpt>
      <trkpt lat="45.90123" lon="5.24804">
        <ele>223.6</ele>
        <time>2024-09-19T09:23:07Z</time>
      </trkpt>
      <trkpt lat="45.90127" lon="5.24806">
        <ele>223.6</ele>
        <time>2024-09-19T09:23:08Z</time>
      </trkpt>
      <trkpt lat="45.9013" lon="5.24807">
        <ele>223.6</ele>
        <time>2024-09-19T09:23:09Z</time>
      </trkpt>
      <trkpt lat="45.90133" lon="5.2481">
        <ele>223.6</ele>
        <time>2024-09-19T09:23:10Z</time>
      </trkpt>
      <trkpt lat="45.90136" lon="5.24812">
        <ele>223.6</ele>
        <time>2024-09-19T09:23:11Z</time>
      </trkpt>
      <trkpt lat="45.90137" lon="5.24814">
        <ele>223.6</ele>
        <time>2024-09-19T09:23:12Z</time>
      </trkpt>
      <trkpt lat="45.90138" lon="5.24815">
        <ele>223.6</ele>
        <time>2024-09-19T09:23:13Z</time>
      </trkpt>
      <trkpt lat="45.90139" lon="5.24816">
        <ele>223.8</ele>
        <time>2024-09-19T09:23:14Z</time>
      </trkpt>
      <trkpt lat="45.90139" lon="5.24816">
        <ele>224.2</ele>
        <time>2024-09-19T09:23:15Z</time>
      </trkpt>
      <trkpt lat="45.90139" lon="5.24817">
        <ele>224.4</ele>
        <time>2024-09-19T09:23:16Z</time>
      </trkpt>
      <trkpt lat="45.90141" lon="5.24819">
        <ele>224.4</ele>
        <time>2024-09-19T09:23:22Z</time>
      </trkpt>
      <trkpt lat="45.90143" lon="5.24821">
        <ele>224.2</ele>
        <time>2024-09-19T09:23:23Z</time>
      </trkpt>
      <trkpt lat="45.90145" lon="5.24822">
        <ele>224.2</ele>
        <time>2024-09-19T09:23:24Z</time>
      </trkpt>
      <trkpt lat="45.90149" lon="5.24823">
        <ele>224.2</ele>
        <time>2024-09-19T09:23:25Z</time>
      </trkpt>
      <trkpt lat="45.90152" lon="5.24824">
        <ele>223.8</ele>
        <time>2024-09-19T09:23:26Z</time>
      </trkpt>
      <trkpt lat="45.90155" lon="5.24826">
        <ele>223.6</ele>
        <time>2024-09-19T09:23:27Z</time>
      </trkpt>
      <trkpt lat="45.90158" lon="5.24829">
        <ele>223.8</ele>
        <time>2024-09-19T09:23:28Z</time>
      </trkpt>
      <trkpt lat="45.90162" lon="5.24831">
        <ele>223.8</ele>
        <time>2024-09-19T09:23:29Z</time>
      </trkpt>
      <trkpt lat="45.90166" lon="5.24834">
        <ele>223.6</ele>
        <time>2024-09-19T09:23:30Z</time>
      </trkpt>
      <trkpt lat="45.90171" lon="5.24835">
        <ele>223.6</ele>
        <time>2024-09-19T09:23:31Z</time>
      </trkpt>
      <trkpt lat="45.90175" lon="5.24837">
        <ele>223</ele>
        <time>2024-09-19T09:23:32Z</time>
      </trkpt>
      <trkpt lat="45.90179" lon="5.2484">
        <ele>222.8</ele>
        <time>2024-09-19T09:23:33Z</time>
      </trkpt>
      <trkpt lat="45.90183" lon="5.24843">
        <ele>221.8</ele>
        <time>2024-09-19T09:23:34Z</time>
      </trkpt>
      <trkpt lat="45.90187" lon="5.24846">
        <ele>221.8</ele>
        <time>2024-09-19T09:23:35Z</time>
      </trkpt>
      <trkpt lat="45.9019" lon="5.2485">
        <ele>221.6</ele>
        <time>2024-09-19T09:23:36Z</time>
      </trkpt>
      <trkpt lat="45.90194" lon="5.24854">
        <ele>221.8</ele>
        <time>2024-09-19T09:23:37Z</time>
      </trkpt>
      <trkpt lat="45.90196" lon="5.24858">
        <ele>221.8</ele>
        <time>2024-09-19T09:23:38Z</time>
      </trkpt>
      <trkpt lat="45.90199" lon="5.24864">
        <ele>221.8</ele>
        <time>2024-09-19T09:23:39Z</time>
      </trkpt>
      <trkpt lat="45.90201" lon="5.2487">
        <ele>221</ele>
        <time>2024-09-19T09:23:40Z</time>
      </trkpt>
      <trkpt lat="45.90204" lon="5.24876">
        <ele>221.4</ele>
        <time>2024-09-19T09:23:41Z</time>
      </trkpt>
      <trkpt lat="45.90206" lon="5.24881">
        <ele>221.4</ele>
        <time>2024-09-19T09:23:42Z</time>
      </trkpt>
      <trkpt lat="45.90209" lon="5.24887">
        <ele>221</ele>
        <time>2024-09-19T09:23:43Z</time>
      </trkpt>
      <trkpt lat="45.90211" lon="5.24893">
        <ele>220.8</ele>
        <time>2024-09-19T09:23:44Z</time>
      </trkpt>
      <trkpt lat="45.90213" lon="5.24899">
        <ele>220.6</ele>
        <time>2024-09-19T09:23:45Z</time>
      </trkpt>
      <trkpt lat="45.90216" lon="5.24905">
        <ele>220.6</ele>
        <time>2024-09-19T09:23:46Z</time>
      </trkpt>
      <trkpt lat="45.90218" lon="5.24911">
        <ele>220.8</ele>
        <time>2024-09-19T09:23:47Z</time>
      </trkpt>
      <trkpt lat="45.9022" lon="5.24917">
        <ele>220.8</ele>
        <time>2024-09-19T09:23:48Z</time>
      </trkpt>
      <trkpt lat="45.90223" lon="5.24923">
        <ele>221.4</ele>
        <time>2024-09-19T09:23:49Z</time>
      </trkpt>
      <trkpt lat="45.90225" lon="5.24929">
        <ele>221.4</ele>
        <time>2024-09-19T09:23:50Z</time>
      </trkpt>
      <trkpt lat="45.90228" lon="5.24935">
        <ele>221.4</ele>
        <time>2024-09-19T09:23:51Z</time>
      </trkpt>
      <trkpt lat="45.90231" lon="5.24942">
        <ele>221.4</ele>
        <time>2024-09-19T09:23:52Z</time>
      </trkpt>
      <trkpt lat="45.90234" lon="5.24948">
        <ele>220.2</ele>
        <time>2024-09-19T09:23:53Z</time>
      </trkpt>
      <trkpt lat="45.90236" lon="5.24954">
        <ele>220.6</ele>
        <time>2024-09-19T09:23:54Z</time>
      </trkpt>
      <trkpt lat="45.90239" lon="5.2496">
        <ele>219.6</ele>
        <time>2024-09-19T09:23:55Z</time>
      </trkpt>
      <trkpt lat="45.9024" lon="5.24968">
        <ele>220</ele>
        <time>2024-09-19T09:23:56Z</time>
      </trkpt>
      <trkpt lat="45.90242" lon="5.24975">
        <ele>221</ele>
        <time>2024-09-19T09:23:57Z</time>
      </trkpt>
      <trkpt lat="45.90244" lon="5.24983">
        <ele>220.8</ele>
        <time>2024-09-19T09:23:58Z</time>
      </trkpt>
      <trkpt lat="45.90246" lon="5.2499">
        <ele>221</ele>
        <time>2024-09-19T09:23:59Z</time>
      </trkpt>
      <trkpt lat="45.90248" lon="5.24996">
        <ele>220.8</ele>
        <time>2024-09-19T09:24:00Z</time>
      </trkpt>
      <trkpt lat="45.9025" lon="5.25002">
        <ele>220.8</ele>
        <time>2024-09-19T09:24:01Z</time>
      </trkpt>
      <trkpt lat="45.90251" lon="5.25009">
        <ele>221</ele>
        <time>2024-09-19T09:24:02Z</time>
      </trkpt>
      <trkpt lat="45.90253" lon="5.25015">
        <ele>221.4</ele>
        <time>2024-09-19T09:24:03Z</time>
      </trkpt>
      <trkpt lat="45.90255" lon="5.25021">
        <ele>221.6</ele>
        <time>2024-09-19T09:24:04Z</time>
      </trkpt>
      <trkpt lat="45.90258" lon="5.25026">
        <ele>221.6</ele>
        <time>2024-09-19T09:24:05Z</time>
      </trkpt>
      <trkpt lat="45.9026" lon="5.25031">
        <ele>221.8</ele>
        <time>2024-09-19T09:24:06Z</time>
      </trkpt>
      <trkpt lat="45.90263" lon="5.25035">
        <ele>222.8</ele>
        <time>2024-09-19T09:24:07Z</time>
      </trkpt>
      <trkpt lat="45.90266" lon="5.2504">
        <ele>222.8</ele>
        <time>2024-09-19T09:24:08Z</time>
      </trkpt>
      <trkpt lat="45.90269" lon="5.25046">
        <ele>222.4</ele>
        <time>2024-09-19T09:24:09Z</time>
      </trkpt>
      <trkpt lat="45.90272" lon="5.25051">
        <ele>222</ele>
        <time>2024-09-19T09:24:10Z</time>
      </trkpt>
      <trkpt lat="45.90275" lon="5.25056">
        <ele>222</ele>
        <time>2024-09-19T09:24:11Z</time>
      </trkpt>
      <trkpt lat="45.90279" lon="5.2506">
        <ele>222.2</ele>
        <time>2024-09-19T09:24:12Z</time>
      </trkpt>
      <trkpt lat="45.90282" lon="5.25064">
        <ele>222.2</ele>
        <time>2024-09-19T09:24:13Z</time>
      </trkpt>
      <trkpt lat="45.90286" lon="5.25069">
        <ele>222.8</ele>
        <time>2024-09-19T09:24:14Z</time>
      </trkpt>
      <trkpt lat="45.9029" lon="5.25072">
        <ele>223</ele>
        <time>2024-09-19T09:24:15Z</time>
      </trkpt>
      <trkpt lat="45.9029" lon="5.25072">
        <ele>222.6</ele>
        <time>2024-09-19T09:24:16Z</time>
      </trkpt>
      <trkpt lat="45.90293" lon="5.25076">
        <ele>223</ele>
        <time>2024-09-19T09:24:17Z</time>
      </trkpt>
      <trkpt lat="45.90296" lon="5.2508">
        <ele>223</ele>
        <time>2024-09-19T09:24:18Z</time>
      </trkpt>
      <trkpt lat="45.90299" lon="5.25083">
        <ele>223.6</ele>
        <time>2024-09-19T09:24:19Z</time>
      </trkpt>
      <trkpt lat="45.90303" lon="5.25086">
        <ele>223.6</ele>
        <time>2024-09-19T09:24:20Z</time>
      </trkpt>
      <trkpt lat="45.90306" lon="5.25088">
        <ele>223.8</ele>
        <time>2024-09-19T09:24:21Z</time>
      </trkpt>
      <trkpt lat="45.9031" lon="5.25091">
        <ele>224.2</ele>
        <time>2024-09-19T09:24:22Z</time>
      </trkpt>
      <trkpt lat="45.90313" lon="5.25093">
        <ele>224.2</ele>
        <time>2024-09-19T09:24:23Z</time>
      </trkpt>
      <trkpt lat="45.90316" lon="5.25095">
        <ele>224.4</ele>
        <time>2024-09-19T09:24:24Z</time>
      </trkpt>
      <trkpt lat="45.9032" lon="5.25097">
        <ele>224</ele>
        <time>2024-09-19T09:24:25Z</time>
      </trkpt>
      <trkpt lat="45.90325" lon="5.25103">
        <ele>224.4</ele>
        <time>2024-09-19T09:24:26Z</time>
      </trkpt>
      <trkpt lat="45.90327" lon="5.25107">
        <ele>224.4</ele>
        <time>2024-09-19T09:24:27Z</time>
      </trkpt>
      <trkpt lat="45.90329" lon="5.2511">
        <ele>224.6</ele>
        <time>2024-09-19T09:24:28Z</time>
      </trkpt>
      <trkpt lat="45.90332" lon="5.25114">
        <ele>225.2</ele>
        <time>2024-09-19T09:24:29Z</time>
      </trkpt>
      <trkpt lat="45.90334" lon="5.25118">
        <ele>225.6</ele>
        <time>2024-09-19T09:24:30Z</time>
      </trkpt>
      <trkpt lat="45.90337" lon="5.25122">
        <ele>225.6</ele>
        <time>2024-09-19T09:24:31Z</time>
      </trkpt>
      <trkpt lat="45.90339" lon="5.25126">
        <ele>225.6</ele>
        <time>2024-09-19T09:24:32Z</time>
      </trkpt>
      <trkpt lat="45.90341" lon="5.25131">
        <ele>225.6</ele>
        <time>2024-09-19T09:24:33Z</time>
      </trkpt>
      <trkpt lat="45.90344" lon="5.25136">
        <ele>225.6</ele>
        <time>2024-09-19T09:24:34Z</time>
      </trkpt>
      <trkpt lat="45.90346" lon="5.25141">
        <ele>225.6</ele>
        <time>2024-09-19T09:24:35Z</time>
      </trkpt>
      <trkpt lat="45.90348" lon="5.25146">
        <ele>225.6</ele>
        <time>2024-09-19T09:24:36Z</time>
      </trkpt>
      <trkpt lat="45.9035" lon="5.25151">
        <ele>225.4</ele>
        <time>2024-09-19T09:24:37Z</time>
      </trkpt>
      <trkpt lat="45.90353" lon="5.25156">
        <ele>225.4</ele>
        <time>2024-09-19T09:24:38Z</time>
      </trkpt>
      <trkpt lat="45.90354" lon="5.25161">
        <ele>225.4</ele>
        <time>2024-09-19T09:24:39Z</time>
      </trkpt>
      <trkpt lat="45.90357" lon="5.25167">
        <ele>224.6</ele>
        <time>2024-09-19T09:24:40Z</time>
      </trkpt>
      <trkpt lat="45.90359" lon="5.25172">
        <ele>224.6</ele>
        <time>2024-09-19T09:24:41Z</time>
      </trkpt>
      <trkpt lat="45.90361" lon="5.25178">
        <ele>224.6</ele>
        <time>2024-09-19T09:24:42Z</time>
      </trkpt>
      <trkpt lat="45.90364" lon="5.25184">
        <ele>224.8</ele>
        <time>2024-09-19T09:24:43Z</time>
      </trkpt>
      <trkpt lat="45.90366" lon="5.2519">
        <ele>224.8</ele>
        <time>2024-09-19T09:24:44Z</time>
      </trkpt>
      <trkpt lat="45.90368" lon="5.25196">
        <ele>225.4</ele>
        <time>2024-09-19T09:24:45Z</time>
      </trkpt>
      <trkpt lat="45.9037" lon="5.25202">
        <ele>225.6</ele>
        <time>2024-09-19T09:24:46Z</time>
      </trkpt>
      <trkpt lat="45.90373" lon="5.25207">
        <ele>225.6</ele>
        <time>2024-09-19T09:24:47Z</time>
      </trkpt>
      <trkpt lat="45.90375" lon="5.25213">
        <ele>225.6</ele>
        <time>2024-09-19T09:24:48Z</time>
      </trkpt>
      <trkpt lat="45.90378" lon="5.25219">
        <ele>225.6</ele>
        <time>2024-09-19T09:24:49Z</time>
      </trkpt>
      <trkpt lat="45.9038" lon="5.25224">
        <ele>225.4</ele>
        <time>2024-09-19T09:24:50Z</time>
      </trkpt>
      <trkpt lat="45.90382" lon="5.25229">
        <ele>225.4</ele>
        <time>2024-09-19T09:24:51Z</time>
      </trkpt>
      <trkpt lat="45.90384" lon="5.25235">
        <ele>225.2</ele>
        <time>2024-09-19T09:24:52Z</time>
      </trkpt>
      <trkpt lat="45.90386" lon="5.25241">
        <ele>224.6</ele>
        <time>2024-09-19T09:24:53Z</time>
      </trkpt>
      <trkpt lat="45.90388" lon="5.25247">
        <ele>224.6</ele>
        <time>2024-09-19T09:24:54Z</time>
      </trkpt>
      <trkpt lat="45.9039" lon="5.25253">
        <ele>224.2</ele>
        <time>2024-09-19T09:24:55Z</time>
      </trkpt>
      <trkpt lat="45.90392" lon="5.25259">
        <ele>225</ele>
        <time>2024-09-19T09:24:56Z</time>
      </trkpt>
      <trkpt lat="45.90394" lon="5.25266">
        <ele>225</ele>
        <time>2024-09-19T09:24:57Z</time>
      </trkpt>
      <trkpt lat="45.90396" lon="5.25272">
        <ele>225</ele>
        <time>2024-09-19T09:24:58Z</time>
      </trkpt>
      <trkpt lat="45.90397" lon="5.25279">
        <ele>224.6</ele>
        <time>2024-09-19T09:24:59Z</time>
      </trkpt>
      <trkpt lat="45.90399" lon="5.25286">
        <ele>225.2</ele>
        <time>2024-09-19T09:25:00Z</time>
      </trkpt>
      <trkpt lat="45.90401" lon="5.25292">
        <ele>225.6</ele>
        <time>2024-09-19T09:25:01Z</time>
      </trkpt>
      <trkpt lat="45.90403" lon="5.25299">
        <ele>225.6</ele>
        <time>2024-09-19T09:25:02Z</time>
      </trkpt>
      <trkpt lat="45.90404" lon="5.25307">
        <ele>225.2</ele>
        <time>2024-09-19T09:25:03Z</time>
      </trkpt>
      <trkpt lat="45.90405" lon="5.25314">
        <ele>224.8</ele>
        <time>2024-09-19T09:25:04Z</time>
      </trkpt>
      <trkpt lat="45.90406" lon="5.2532">
        <ele>223.6</ele>
        <time>2024-09-19T09:25:05Z</time>
      </trkpt>
      <trkpt lat="45.90407" lon="5.25326">
        <ele>224.2</ele>
        <time>2024-09-19T09:25:06Z</time>
      </trkpt>
      <trkpt lat="45.90408" lon="5.25331">
        <ele>224.4</ele>
        <time>2024-09-19T09:25:07Z</time>
      </trkpt>
      <trkpt lat="45.90409" lon="5.25337">
        <ele>224.4</ele>
        <time>2024-09-19T09:25:08Z</time>
      </trkpt>
      <trkpt lat="45.90409" lon="5.25342">
        <ele>224.8</ele>
        <time>2024-09-19T09:25:09Z</time>
      </trkpt>
      <trkpt lat="45.90409" lon="5.25347">
        <ele>224.8</ele>
        <time>2024-09-19T09:25:10Z</time>
      </trkpt>
      <trkpt lat="45.90409" lon="5.25352">
        <ele>224.8</ele>
        <time>2024-09-19T09:25:11Z</time>
      </trkpt>
      <trkpt lat="45.9041" lon="5.25358">
        <ele>224.8</ele>
        <time>2024-09-19T09:25:12Z</time>
      </trkpt>
      <trkpt lat="45.90409" lon="5.25364">
        <ele>225</ele>
        <time>2024-09-19T09:25:13Z</time>
      </trkpt>
      <trkpt lat="45.9041" lon="5.25369">
        <ele>225</ele>
        <time>2024-09-19T09:25:14Z</time>
      </trkpt>
      <trkpt lat="45.9041" lon="5.25374">
        <ele>225.4</ele>
        <time>2024-09-19T09:25:15Z</time>
      </trkpt>
      <trkpt lat="45.9041" lon="5.2538">
        <ele>225</ele>
        <time>2024-09-19T09:25:16Z</time>
      </trkpt>
      <trkpt lat="45.9041" lon="5.25385">
        <ele>225</ele>
        <time>2024-09-19T09:25:17Z</time>
      </trkpt>
      <trkpt lat="45.90409" lon="5.25391">
        <ele>225.4</ele>
        <time>2024-09-19T09:25:18Z</time>
      </trkpt>
      <trkpt lat="45.90409" lon="5.25396">
        <ele>225.2</ele>
        <time>2024-09-19T09:25:19Z</time>
      </trkpt>
      <trkpt lat="45.90409" lon="5.25402">
        <ele>225.6</ele>
        <time>2024-09-19T09:25:20Z</time>
      </trkpt>
      <trkpt lat="45.90409" lon="5.25408">
        <ele>225.2</ele>
        <time>2024-09-19T09:25:21Z</time>
      </trkpt>
      <trkpt lat="45.90409" lon="5.25414">
        <ele>225.2</ele>
        <time>2024-09-19T09:25:22Z</time>
      </trkpt>
      <trkpt lat="45.9041" lon="5.2542">
        <ele>225.6</ele>
        <time>2024-09-19T09:25:23Z</time>
      </trkpt>
      <trkpt lat="45.90409" lon="5.25427">
        <ele>225.6</ele>
        <time>2024-09-19T09:25:24Z</time>
      </trkpt>
      <trkpt lat="45.90411" lon="5.25433">
        <ele>225.8</ele>
        <time>2024-09-19T09:25:25Z</time>
      </trkpt>
      <trkpt lat="45.90411" lon="5.25439">
        <ele>225.8</ele>
        <time>2024-09-19T09:25:26Z</time>
      </trkpt>
      <trkpt lat="45.90412" lon="5.25446">
        <ele>225.8</ele>
        <time>2024-09-19T09:25:27Z</time>
      </trkpt>
      <trkpt lat="45.90413" lon="5.25453">
        <ele>225.4</ele>
        <time>2024-09-19T09:25:28Z</time>
      </trkpt>
      <trkpt lat="45.90414" lon="5.25459">
        <ele>224.8</ele>
        <time>2024-09-19T09:25:29Z</time>
      </trkpt>
      <trkpt lat="45.90415" lon="5.25467">
        <ele>224.8</ele>
        <time>2024-09-19T09:25:30Z</time>
      </trkpt>
      <trkpt lat="45.90415" lon="5.25476">
        <ele>224.4</ele>
        <time>2024-09-19T09:25:31Z</time>
      </trkpt>
      <trkpt lat="45.90416" lon="5.25484">
        <ele>224.4</ele>
        <time>2024-09-19T09:25:32Z</time>
      </trkpt>
      <trkpt lat="45.90417" lon="5.25493">
        <ele>223.2</ele>
        <time>2024-09-19T09:25:33Z</time>
      </trkpt>
      <trkpt lat="45.9042" lon="5.25503">
        <ele>222.8</ele>
        <time>2024-09-19T09:25:34Z</time>
      </trkpt>
      <trkpt lat="45.90419" lon="5.25512">
        <ele>222</ele>
        <time>2024-09-19T09:25:35Z</time>
      </trkpt>
      <trkpt lat="45.9042" lon="5.2552">
        <ele>222.2</ele>
        <time>2024-09-19T09:25:36Z</time>
      </trkpt>
      <trkpt lat="45.90421" lon="5.25529">
        <ele>222.8</ele>
        <time>2024-09-19T09:25:37Z</time>
      </trkpt>
      <trkpt lat="45.90423" lon="5.25538">
        <ele>222.2</ele>
        <time>2024-09-19T09:25:38Z</time>
      </trkpt>
      <trkpt lat="45.90424" lon="5.25546">
        <ele>223.2</ele>
        <time>2024-09-19T09:25:39Z</time>
      </trkpt>
      <trkpt lat="45.90424" lon="5.25554">
        <ele>223.2</ele>
        <time>2024-09-19T09:25:40Z</time>
      </trkpt>
      <trkpt lat="45.90425" lon="5.25562">
        <ele>224</ele>
        <time>2024-09-19T09:25:41Z</time>
      </trkpt>
      <trkpt lat="45.90426" lon="5.25569">
        <ele>224</ele>
        <time>2024-09-19T09:25:42Z</time>
      </trkpt>
      <trkpt lat="45.90427" lon="5.25577">
        <ele>223.8</ele>
        <time>2024-09-19T09:25:43Z</time>
      </trkpt>
      <trkpt lat="45.90428" lon="5.25584">
        <ele>223.4</ele>
        <time>2024-09-19T09:25:44Z</time>
      </trkpt>
      <trkpt lat="45.90429" lon="5.25592">
        <ele>223.6</ele>
        <time>2024-09-19T09:25:45Z</time>
      </trkpt>
      <trkpt lat="45.90431" lon="5.256">
        <ele>222.8</ele>
        <time>2024-09-19T09:25:46Z</time>
      </trkpt>
      <trkpt lat="45.90432" lon="5.25607">
        <ele>222.8</ele>
        <time>2024-09-19T09:25:47Z</time>
      </trkpt>
      <trkpt lat="45.90432" lon="5.25615">
        <ele>222.8</ele>
        <time>2024-09-19T09:25:48Z</time>
      </trkpt>
      <trkpt lat="45.90434" lon="5.25623">
        <ele>222.8</ele>
        <time>2024-09-19T09:25:49Z</time>
      </trkpt>
      <trkpt lat="45.90435" lon="5.25631">
        <ele>222.8</ele>
        <time>2024-09-19T09:25:50Z</time>
      </trkpt>
      <trkpt lat="45.90436" lon="5.25639">
        <ele>222.8</ele>
        <time>2024-09-19T09:25:51Z</time>
      </trkpt>
      <trkpt lat="45.90438" lon="5.25648">
        <ele>222.8</ele>
        <time>2024-09-19T09:25:52Z</time>
      </trkpt>
      <trkpt lat="45.90439" lon="5.25656">
        <ele>221.8</ele>
        <time>2024-09-19T09:25:53Z</time>
      </trkpt>
      <trkpt lat="45.9044" lon="5.25665">
        <ele>222.4</ele>
        <time>2024-09-19T09:25:54Z</time>
      </trkpt>
      <trkpt lat="45.90441" lon="5.25673">
        <ele>221.6</ele>
        <time>2024-09-19T09:25:55Z</time>
      </trkpt>
      <trkpt lat="45.90443" lon="5.25682">
        <ele>222.2</ele>
        <time>2024-09-19T09:25:56Z</time>
      </trkpt>
      <trkpt lat="45.90444" lon="5.25691">
        <ele>221</ele>
        <time>2024-09-19T09:25:57Z</time>
      </trkpt>
      <trkpt lat="45.90445" lon="5.25699">
        <ele>221</ele>
        <time>2024-09-19T09:25:58Z</time>
      </trkpt>
      <trkpt lat="45.90447" lon="5.25708">
        <ele>221</ele>
        <time>2024-09-19T09:25:59Z</time>
      </trkpt>
      <trkpt lat="45.90448" lon="5.25716">
        <ele>220.6</ele>
        <time>2024-09-19T09:26:00Z</time>
      </trkpt>
      <trkpt lat="45.9045" lon="5.25725">
        <ele>220.8</ele>
        <time>2024-09-19T09:26:01Z</time>
      </trkpt>
      <trkpt lat="45.90451" lon="5.25734">
        <ele>221.4</ele>
        <time>2024-09-19T09:26:02Z</time>
      </trkpt>
      <trkpt lat="45.90452" lon="5.25742">
        <ele>220.8</ele>
        <time>2024-09-19T09:26:03Z</time>
      </trkpt>
      <trkpt lat="45.90454" lon="5.2575">
        <ele>221.4</ele>
        <time>2024-09-19T09:26:04Z</time>
      </trkpt>
      <trkpt lat="45.90455" lon="5.25758">
        <ele>221.4</ele>
        <time>2024-09-19T09:26:05Z</time>
      </trkpt>
      <trkpt lat="45.90457" lon="5.25764">
        <ele>221.4</ele>
        <time>2024-09-19T09:26:06Z</time>
      </trkpt>
      <trkpt lat="45.90458" lon="5.25771">
        <ele>221.2</ele>
        <time>2024-09-19T09:26:07Z</time>
      </trkpt>
      <trkpt lat="45.9046" lon="5.25778">
        <ele>221.2</ele>
        <time>2024-09-19T09:26:08Z</time>
      </trkpt>
      <trkpt lat="45.90462" lon="5.25784">
        <ele>221.8</ele>
        <time>2024-09-19T09:26:09Z</time>
      </trkpt>
      <trkpt lat="45.90463" lon="5.25791">
        <ele>222</ele>
        <time>2024-09-19T09:26:10Z</time>
      </trkpt>
      <trkpt lat="45.90466" lon="5.25798">
        <ele>222</ele>
        <time>2024-09-19T09:26:11Z</time>
      </trkpt>
      <trkpt lat="45.90467" lon="5.25805">
        <ele>222.4</ele>
        <time>2024-09-19T09:26:12Z</time>
      </trkpt>
      <trkpt lat="45.90469" lon="5.25812">
        <ele>222.4</ele>
        <time>2024-09-19T09:26:13Z</time>
      </trkpt>
      <trkpt lat="45.90471" lon="5.2582">
        <ele>222.4</ele>
        <time>2024-09-19T09:26:14Z</time>
      </trkpt>
      <trkpt lat="45.90473" lon="5.25827">
        <ele>222.4</ele>
        <time>2024-09-19T09:26:15Z</time>
      </trkpt>
      <trkpt lat="45.90475" lon="5.25834">
        <ele>222</ele>
        <time>2024-09-19T09:26:16Z</time>
      </trkpt>
      <trkpt lat="45.90477" lon="5.25841">
        <ele>222</ele>
        <time>2024-09-19T09:26:17Z</time>
      </trkpt>
      <trkpt lat="45.90479" lon="5.25849">
        <ele>222.4</ele>
        <time>2024-09-19T09:26:18Z</time>
      </trkpt>
      <trkpt lat="45.90481" lon="5.25856">
        <ele>222</ele>
        <time>2024-09-19T09:26:19Z</time>
      </trkpt>
      <trkpt lat="45.90483" lon="5.25863">
        <ele>222.4</ele>
        <time>2024-09-19T09:26:20Z</time>
      </trkpt>
      <trkpt lat="45.90485" lon="5.25869">
        <ele>222.4</ele>
        <time>2024-09-19T09:26:21Z</time>
      </trkpt>
      <trkpt lat="45.90487" lon="5.25876">
        <ele>222.4</ele>
        <time>2024-09-19T09:26:22Z</time>
      </trkpt>
      <trkpt lat="45.90488" lon="5.25883">
        <ele>222.4</ele>
        <time>2024-09-19T09:26:23Z</time>
      </trkpt>
      <trkpt lat="45.9049" lon="5.2589">
        <ele>222</ele>
        <time>2024-09-19T09:26:24Z</time>
      </trkpt>
      <trkpt lat="45.90492" lon="5.25897">
        <ele>222.6</ele>
        <time>2024-09-19T09:26:25Z</time>
      </trkpt>
      <trkpt lat="45.90495" lon="5.25903">
        <ele>222.6</ele>
        <time>2024-09-19T09:26:26Z</time>
      </trkpt>
      <trkpt lat="45.90497" lon="5.25911">
        <ele>222.6</ele>
        <time>2024-09-19T09:26:27Z</time>
      </trkpt>
      <trkpt lat="45.90499" lon="5.25917">
        <ele>222.6</ele>
        <time>2024-09-19T09:26:28Z</time>
      </trkpt>
      <trkpt lat="45.905" lon="5.25925">
        <ele>222.6</ele>
        <time>2024-09-19T09:26:29Z</time>
      </trkpt>
      <trkpt lat="45.90503" lon="5.25932">
        <ele>222.6</ele>
        <time>2024-09-19T09:26:30Z</time>
      </trkpt>
      <trkpt lat="45.90504" lon="5.25939">
        <ele>222.6</ele>
        <time>2024-09-19T09:26:31Z</time>
      </trkpt>
      <trkpt lat="45.90506" lon="5.25947">
        <ele>223</ele>
        <time>2024-09-19T09:26:32Z</time>
      </trkpt>
      <trkpt lat="45.90508" lon="5.25954">
        <ele>223.4</ele>
        <time>2024-09-19T09:26:33Z</time>
      </trkpt>
      <trkpt lat="45.9051" lon="5.25961">
        <ele>223.4</ele>
        <time>2024-09-19T09:26:34Z</time>
      </trkpt>
      <trkpt lat="45.90512" lon="5.25968">
        <ele>223.6</ele>
        <time>2024-09-19T09:26:35Z</time>
      </trkpt>
      <trkpt lat="45.90514" lon="5.25976">
        <ele>222.8</ele>
        <time>2024-09-19T09:26:36Z</time>
      </trkpt>
      <trkpt lat="45.90515" lon="5.25983">
        <ele>223.2</ele>
        <time>2024-09-19T09:26:37Z</time>
      </trkpt>
      <trkpt lat="45.90518" lon="5.2599">
        <ele>223.2</ele>
        <time>2024-09-19T09:26:38Z</time>
      </trkpt>
      <trkpt lat="45.9052" lon="5.25997">
        <ele>223.8</ele>
        <time>2024-09-19T09:26:39Z</time>
      </trkpt>
      <trkpt lat="45.90522" lon="5.26005">
        <ele>224</ele>
        <time>2024-09-19T09:26:40Z</time>
      </trkpt>
      <trkpt lat="45.90525" lon="5.26011">
        <ele>224</ele>
        <time>2024-09-19T09:26:41Z</time>
      </trkpt>
      <trkpt lat="45.90526" lon="5.26017">
        <ele>224</ele>
        <time>2024-09-19T09:26:42Z</time>
      </trkpt>
      <trkpt lat="45.90528" lon="5.26024">
        <ele>224</ele>
        <time>2024-09-19T09:26:43Z</time>
      </trkpt>
      <trkpt lat="45.9053" lon="5.26031">
        <ele>224.4</ele>
        <time>2024-09-19T09:26:44Z</time>
      </trkpt>
      <trkpt lat="45.90532" lon="5.26038">
        <ele>224.4</ele>
        <time>2024-09-19T09:26:45Z</time>
      </trkpt>
      <trkpt lat="45.90533" lon="5.26046">
        <ele>224.2</ele>
        <time>2024-09-19T09:26:46Z</time>
      </trkpt>
      <trkpt lat="45.90534" lon="5.26053">
        <ele>224.2</ele>
        <time>2024-09-19T09:26:47Z</time>
      </trkpt>
      <trkpt lat="45.90535" lon="5.2606">
        <ele>224.2</ele>
        <time>2024-09-19T09:26:48Z</time>
      </trkpt>
      <trkpt lat="45.90537" lon="5.26068">
        <ele>224</ele>
        <time>2024-09-19T09:26:49Z</time>
      </trkpt>
      <trkpt lat="45.90537" lon="5.26075">
        <ele>224.4</ele>
        <time>2024-09-19T09:26:50Z</time>
      </trkpt>
      <trkpt lat="45.90538" lon="5.26082">
        <ele>225</ele>
        <time>2024-09-19T09:26:51Z</time>
      </trkpt>
      <trkpt lat="45.90538" lon="5.26089">
        <ele>225</ele>
        <time>2024-09-19T09:26:52Z</time>
      </trkpt>
      <trkpt lat="45.90539" lon="5.26097">
        <ele>224.8</ele>
        <time>2024-09-19T09:26:53Z</time>
      </trkpt>
      <trkpt lat="45.90539" lon="5.26105">
        <ele>224.2</ele>
        <time>2024-09-19T09:26:54Z</time>
      </trkpt>
      <trkpt lat="45.9054" lon="5.26112">
        <ele>224.2</ele>
        <time>2024-09-19T09:26:55Z</time>
      </trkpt>
      <trkpt lat="45.9054" lon="5.2612">
        <ele>224.2</ele>
        <time>2024-09-19T09:26:56Z</time>
      </trkpt>
      <trkpt lat="45.9054" lon="5.26128">
        <ele>223.8</ele>
        <time>2024-09-19T09:26:57Z</time>
      </trkpt>
      <trkpt lat="45.9054" lon="5.26135">
        <ele>223.4</ele>
        <time>2024-09-19T09:26:58Z</time>
      </trkpt>
      <trkpt lat="45.9054" lon="5.26142">
        <ele>223.8</ele>
        <time>2024-09-19T09:26:59Z</time>
      </trkpt>
      <trkpt lat="45.9054" lon="5.26151">
        <ele>223.4</ele>
        <time>2024-09-19T09:27:00Z</time>
      </trkpt>
      <trkpt lat="45.9054" lon="5.26158">
        <ele>223</ele>
        <time>2024-09-19T09:27:01Z</time>
      </trkpt>
      <trkpt lat="45.9054" lon="5.26166">
        <ele>223.2</ele>
        <time>2024-09-19T09:27:02Z</time>
      </trkpt>
      <trkpt lat="45.90539" lon="5.26173">
        <ele>223.4</ele>
        <time>2024-09-19T09:27:03Z</time>
      </trkpt>
      <trkpt lat="45.90539" lon="5.2618">
        <ele>223.4</ele>
        <time>2024-09-19T09:27:04Z</time>
      </trkpt>
      <trkpt lat="45.90539" lon="5.26187">
        <ele>223.8</ele>
        <time>2024-09-19T09:27:05Z</time>
      </trkpt>
      <trkpt lat="45.90539" lon="5.26194">
        <ele>223.4</ele>
        <time>2024-09-19T09:27:06Z</time>
      </trkpt>
      <trkpt lat="45.90539" lon="5.26202">
        <ele>223.4</ele>
        <time>2024-09-19T09:27:07Z</time>
      </trkpt>
      <trkpt lat="45.90539" lon="5.26209">
        <ele>223.4</ele>
        <time>2024-09-19T09:27:08Z</time>
      </trkpt>
      <trkpt lat="45.90539" lon="5.26217">
        <ele>223.4</ele>
        <time>2024-09-19T09:27:09Z</time>
      </trkpt>
      <trkpt lat="45.90538" lon="5.26224">
        <ele>223.6</ele>
        <time>2024-09-19T09:27:10Z</time>
      </trkpt>
      <trkpt lat="45.90538" lon="5.26231">
        <ele>223.6</ele>
        <time>2024-09-19T09:27:11Z</time>
      </trkpt>
      <trkpt lat="45.90537" lon="5.26238">
        <ele>223.6</ele>
        <time>2024-09-19T09:27:12Z</time>
      </trkpt>
      <trkpt lat="45.90537" lon="5.26245">
        <ele>223.6</ele>
        <time>2024-09-19T09:27:13Z</time>
      </trkpt>
      <trkpt lat="45.90537" lon="5.26253">
        <ele>224.8</ele>
        <time>2024-09-19T09:27:14Z</time>
      </trkpt>
      <trkpt lat="45.90537" lon="5.2626">
        <ele>224.4</ele>
        <time>2024-09-19T09:27:15Z</time>
      </trkpt>
      <trkpt lat="45.90537" lon="5.2626">
        <ele>224</ele>
        <time>2024-09-19T09:27:16Z</time>
      </trkpt>
      <trkpt lat="45.90537" lon="5.26267">
        <ele>223.8</ele>
        <time>2024-09-19T09:27:17Z</time>
      </trkpt>
      <trkpt lat="45.90538" lon="5.26274">
        <ele>223.8</ele>
        <time>2024-09-19T09:27:18Z</time>
      </trkpt>
      <trkpt lat="45.90538" lon="5.26282">
        <ele>223.8</ele>
        <time>2024-09-19T09:27:19Z</time>
      </trkpt>
      <trkpt lat="45.90538" lon="5.26289">
        <ele>223.8</ele>
        <time>2024-09-19T09:27:20Z</time>
      </trkpt>
      <trkpt lat="45.90538" lon="5.26296">
        <ele>223.8</ele>
        <time>2024-09-19T09:27:21Z</time>
      </trkpt>
      <trkpt lat="45.90538" lon="5.26303">
        <ele>223.4</ele>
        <time>2024-09-19T09:27:22Z</time>
      </trkpt>
      <trkpt lat="45.90539" lon="5.26311">
        <ele>223.8</ele>
        <time>2024-09-19T09:27:23Z</time>
      </trkpt>
      <trkpt lat="45.90539" lon="5.26318">
        <ele>223.8</ele>
        <time>2024-09-19T09:27:24Z</time>
      </trkpt>
      <trkpt lat="45.90539" lon="5.26325">
        <ele>224.4</ele>
        <time>2024-09-19T09:27:25Z</time>
      </trkpt>
      <trkpt lat="45.9054" lon="5.26332">
        <ele>224.4</ele>
        <time>2024-09-19T09:27:26Z</time>
      </trkpt>
      <trkpt lat="45.90539" lon="5.26339">
        <ele>224.4</ele>
        <time>2024-09-19T09:27:27Z</time>
      </trkpt>
      <trkpt lat="45.90539" lon="5.26353">
        <ele>224.4</ele>
        <time>2024-09-19T09:27:28Z</time>
      </trkpt>
      <trkpt lat="45.90539" lon="5.2636">
        <ele>224.4</ele>
        <time>2024-09-19T09:27:29Z</time>
      </trkpt>
      <trkpt lat="45.90539" lon="5.26367">
        <ele>224.4</ele>
        <time>2024-09-19T09:27:30Z</time>
      </trkpt>
      <trkpt lat="45.90539" lon="5.26374">
        <ele>224.4</ele>
        <time>2024-09-19T09:27:31Z</time>
      </trkpt>
      <trkpt lat="45.9054" lon="5.26381">
        <ele>224.8</ele>
        <time>2024-09-19T09:27:32Z</time>
      </trkpt>
      <trkpt lat="45.9054" lon="5.26387">
        <ele>225</ele>
        <time>2024-09-19T09:27:33Z</time>
      </trkpt>
      <trkpt lat="45.9054" lon="5.26394">
        <ele>224.8</ele>
        <time>2024-09-19T09:27:34Z</time>
      </trkpt>
      <trkpt lat="45.9054" lon="5.26401">
        <ele>224.6</ele>
        <time>2024-09-19T09:27:35Z</time>
      </trkpt>
      <trkpt lat="45.9054" lon="5.26408">
        <ele>224.8</ele>
        <time>2024-09-19T09:27:36Z</time>
      </trkpt>
      <trkpt lat="45.9054" lon="5.26414">
        <ele>224.8</ele>
        <time>2024-09-19T09:27:37Z</time>
      </trkpt>
      <trkpt lat="45.9054" lon="5.2642">
        <ele>224.6</ele>
        <time>2024-09-19T09:27:38Z</time>
      </trkpt>
      <trkpt lat="45.9054" lon="5.26427">
        <ele>224.6</ele>
        <time>2024-09-19T09:27:39Z</time>
      </trkpt>
      <trkpt lat="45.90541" lon="5.26434">
        <ele>224.6</ele>
        <time>2024-09-19T09:27:40Z</time>
      </trkpt>
      <trkpt lat="45.90541" lon="5.26442">
        <ele>223.8</ele>
        <time>2024-09-19T09:27:41Z</time>
      </trkpt>
      <trkpt lat="45.90541" lon="5.26449">
        <ele>224</ele>
        <time>2024-09-19T09:27:42Z</time>
      </trkpt>
      <trkpt lat="45.90541" lon="5.26456">
        <ele>224</ele>
        <time>2024-09-19T09:27:43Z</time>
      </trkpt>
      <trkpt lat="45.90541" lon="5.26463">
        <ele>224</ele>
        <time>2024-09-19T09:27:44Z</time>
      </trkpt>
      <trkpt lat="45.90542" lon="5.26471">
        <ele>224</ele>
        <time>2024-09-19T09:27:45Z</time>
      </trkpt>
      <trkpt lat="45.90542" lon="5.26478">
        <ele>224.4</ele>
        <time>2024-09-19T09:27:46Z</time>
      </trkpt>
      <trkpt lat="45.90543" lon="5.26485">
        <ele>224.6</ele>
        <time>2024-09-19T09:27:47Z</time>
      </trkpt>
      <trkpt lat="45.90543" lon="5.26493">
        <ele>224.6</ele>
        <time>2024-09-19T09:27:48Z</time>
      </trkpt>
      <trkpt lat="45.90543" lon="5.265">
        <ele>224.6</ele>
        <time>2024-09-19T09:27:49Z</time>
      </trkpt>
      <trkpt lat="45.90544" lon="5.26508">
        <ele>224.6</ele>
        <time>2024-09-19T09:27:50Z</time>
      </trkpt>
      <trkpt lat="45.90543" lon="5.26515">
        <ele>224.6</ele>
        <time>2024-09-19T09:27:51Z</time>
      </trkpt>
      <trkpt lat="45.90544" lon="5.26522">
        <ele>224.6</ele>
        <time>2024-09-19T09:27:52Z</time>
      </trkpt>
      <trkpt lat="45.90544" lon="5.26529">
        <ele>225.4</ele>
        <time>2024-09-19T09:27:53Z</time>
      </trkpt>
      <trkpt lat="45.90544" lon="5.26536">
        <ele>224.8</ele>
        <time>2024-09-19T09:27:54Z</time>
      </trkpt>
      <trkpt lat="45.90544" lon="5.26543">
        <ele>224.8</ele>
        <time>2024-09-19T09:27:55Z</time>
      </trkpt>
      <trkpt lat="45.90544" lon="5.2655">
        <ele>225.2</ele>
        <time>2024-09-19T09:27:56Z</time>
      </trkpt>
      <trkpt lat="45.90544" lon="5.26556">
        <ele>225.2</ele>
        <time>2024-09-19T09:27:57Z</time>
      </trkpt>
      <trkpt lat="45.90544" lon="5.26563">
        <ele>225.4</ele>
        <time>2024-09-19T09:27:58Z</time>
      </trkpt>
      <trkpt lat="45.90544" lon="5.2657">
        <ele>225.4</ele>
        <time>2024-09-19T09:27:59Z</time>
      </trkpt>
      <trkpt lat="45.90545" lon="5.26577">
        <ele>225.2</ele>
        <time>2024-09-19T09:28:00Z</time>
      </trkpt>
      <trkpt lat="45.90545" lon="5.26583">
        <ele>225.2</ele>
        <time>2024-09-19T09:28:01Z</time>
      </trkpt>
      <trkpt lat="45.90545" lon="5.26591">
        <ele>225.2</ele>
        <time>2024-09-19T09:28:02Z</time>
      </trkpt>
      <trkpt lat="45.90545" lon="5.26598">
        <ele>224.2</ele>
        <time>2024-09-19T09:28:03Z</time>
      </trkpt>
      <trkpt lat="45.90545" lon="5.26605">
        <ele>224.2</ele>
        <time>2024-09-19T09:28:04Z</time>
      </trkpt>
      <trkpt lat="45.90545" lon="5.26612">
        <ele>224.2</ele>
        <time>2024-09-19T09:28:05Z</time>
      </trkpt>
      <trkpt lat="45.90546" lon="5.2662">
        <ele>224.6</ele>
        <time>2024-09-19T09:28:06Z</time>
      </trkpt>
      <trkpt lat="45.90547" lon="5.26627">
        <ele>224.6</ele>
        <time>2024-09-19T09:28:07Z</time>
      </trkpt>
      <trkpt lat="45.90547" lon="5.26633">
        <ele>224.6</ele>
        <time>2024-09-19T09:28:08Z</time>
      </trkpt>
      <trkpt lat="45.90547" lon="5.26633">
        <ele>224.6</ele>
        <time>2024-09-19T09:28:09Z</time>
      </trkpt>
      <trkpt lat="45.90547" lon="5.26633">
        <ele>224.6</ele>
        <time>2024-09-19T09:28:10Z</time>
      </trkpt>
      <trkpt lat="45.90552" lon="5.26659">
        <ele>224.4</ele>
        <time>2024-09-19T09:28:12Z</time>
      </trkpt>
      <trkpt lat="45.90553" lon="5.26666">
        <ele>224.4</ele>
        <time>2024-09-19T09:28:13Z</time>
      </trkpt>
      <trkpt lat="45.90554" lon="5.26671">
        <ele>224.4</ele>
        <time>2024-09-19T09:28:14Z</time>
      </trkpt>
      <trkpt lat="45.90555" lon="5.26677">
        <ele>224.6</ele>
        <time>2024-09-19T09:28:15Z</time>
      </trkpt>
      <trkpt lat="45.90555" lon="5.26683">
        <ele>224.4</ele>
        <time>2024-09-19T09:28:16Z</time>
      </trkpt>
      <trkpt lat="45.90556" lon="5.26689">
        <ele>224.4</ele>
        <time>2024-09-19T09:28:17Z</time>
      </trkpt>
      <trkpt lat="45.90558" lon="5.26697">
        <ele>224.4</ele>
        <time>2024-09-19T09:28:18Z</time>
      </trkpt>
      <trkpt lat="45.90559" lon="5.26703">
        <ele>224.4</ele>
        <time>2024-09-19T09:28:19Z</time>
      </trkpt>
      <trkpt lat="45.90561" lon="5.26709">
        <ele>224.4</ele>
        <time>2024-09-19T09:28:20Z</time>
      </trkpt>
      <trkpt lat="45.90563" lon="5.26716">
        <ele>224.4</ele>
        <time>2024-09-19T09:28:21Z</time>
      </trkpt>
      <trkpt lat="45.90564" lon="5.26723">
        <ele>224.4</ele>
        <time>2024-09-19T09:28:22Z</time>
      </trkpt>
      <trkpt lat="45.90566" lon="5.2673">
        <ele>224.4</ele>
        <time>2024-09-19T09:28:23Z</time>
      </trkpt>
      <trkpt lat="45.90568" lon="5.26737">
        <ele>224.4</ele>
        <time>2024-09-19T09:28:24Z</time>
      </trkpt>
      <trkpt lat="45.90569" lon="5.26744">
        <ele>224.4</ele>
        <time>2024-09-19T09:28:25Z</time>
      </trkpt>
      <trkpt lat="45.9057" lon="5.26752">
        <ele>224.4</ele>
        <time>2024-09-19T09:28:26Z</time>
      </trkpt>
      <trkpt lat="45.90572" lon="5.26759">
        <ele>224.8</ele>
        <time>2024-09-19T09:28:27Z</time>
      </trkpt>
      <trkpt lat="45.90571" lon="5.26766">
        <ele>224.8</ele>
        <time>2024-09-19T09:28:28Z</time>
      </trkpt>
      <trkpt lat="45.90574" lon="5.26773">
        <ele>224.8</ele>
        <time>2024-09-19T09:28:29Z</time>
      </trkpt>
      <trkpt lat="45.90575" lon="5.26778">
        <ele>224.8</ele>
        <time>2024-09-19T09:28:30Z</time>
      </trkpt>
      <trkpt lat="45.90577" lon="5.26784">
        <ele>224.8</ele>
        <time>2024-09-19T09:28:31Z</time>
      </trkpt>
      <trkpt lat="45.90578" lon="5.2679">
        <ele>224.8</ele>
        <time>2024-09-19T09:28:32Z</time>
      </trkpt>
      <trkpt lat="45.9058" lon="5.26797">
        <ele>224.8</ele>
        <time>2024-09-19T09:28:33Z</time>
      </trkpt>
      <trkpt lat="45.9058" lon="5.26803">
        <ele>224.8</ele>
        <time>2024-09-19T09:28:34Z</time>
      </trkpt>
      <trkpt lat="45.90582" lon="5.26809">
        <ele>225</ele>
        <time>2024-09-19T09:28:35Z</time>
      </trkpt>
      <trkpt lat="45.90582" lon="5.26814">
        <ele>225</ele>
        <time>2024-09-19T09:28:36Z</time>
      </trkpt>
      <trkpt lat="45.90583" lon="5.26818">
        <ele>225</ele>
        <time>2024-09-19T09:28:37Z</time>
      </trkpt>
      <trkpt lat="45.90586" lon="5.26821">
        <ele>225</ele>
        <time>2024-09-19T09:28:38Z</time>
      </trkpt>
      <trkpt lat="45.90588" lon="5.26824">
        <ele>225</ele>
        <time>2024-09-19T09:28:39Z</time>
      </trkpt>
      <trkpt lat="45.90589" lon="5.26827">
        <ele>225</ele>
        <time>2024-09-19T09:28:40Z</time>
      </trkpt>
      <trkpt lat="45.9059" lon="5.26829">
        <ele>225.4</ele>
        <time>2024-09-19T09:28:41Z</time>
      </trkpt>
      <trkpt lat="45.9059" lon="5.26829">
        <ele>225.4</ele>
        <time>2024-09-19T09:28:42Z</time>
      </trkpt>
      <trkpt lat="45.90591" lon="5.26829">
        <ele>225.4</ele>
        <time>2024-09-19T09:28:43Z</time>
      </trkpt>
      <trkpt lat="45.90591" lon="5.26829">
        <ele>225.8</ele>
        <time>2024-09-19T09:28:44Z</time>
      </trkpt>
      <trkpt lat="45.9059" lon="5.26829">
        <ele>225.8</ele>
        <time>2024-09-19T09:28:45Z</time>
      </trkpt>
      <trkpt lat="45.90592" lon="5.26831">
        <ele>226.4</ele>
        <time>2024-09-19T09:29:35Z</time>
      </trkpt>
      <trkpt lat="45.90593" lon="5.26833">
        <ele>226.4</ele>
        <time>2024-09-19T09:29:36Z</time>
      </trkpt>
      <trkpt lat="45.90594" lon="5.26836">
        <ele>226</ele>
        <time>2024-09-19T09:29:37Z</time>
      </trkpt>
      <trkpt lat="45.90596" lon="5.26839">
        <ele>226</ele>
        <time>2024-09-19T09:29:38Z</time>
      </trkpt>
      <trkpt lat="45.90598" lon="5.26841">
        <ele>226</ele>
        <time>2024-09-19T09:29:39Z</time>
      </trkpt>
      <trkpt lat="45.906" lon="5.26844">
        <ele>225.8</ele>
        <time>2024-09-19T09:29:40Z</time>
      </trkpt>
      <trkpt lat="45.90602" lon="5.26847">
        <ele>225.6</ele>
        <time>2024-09-19T09:29:41Z</time>
      </trkpt>
      <trkpt lat="45.90604" lon="5.2685">
        <ele>226</ele>
        <time>2024-09-19T09:29:42Z</time>
      </trkpt>
      <trkpt lat="45.90607" lon="5.26854">
        <ele>225.4</ele>
        <time>2024-09-19T09:29:43Z</time>
      </trkpt>
      <trkpt lat="45.90609" lon="5.26859">
        <ele>225.4</ele>
        <time>2024-09-19T09:29:44Z</time>
      </trkpt>
      <trkpt lat="45.90611" lon="5.26864">
        <ele>226</ele>
        <time>2024-09-19T09:29:45Z</time>
      </trkpt>
      <trkpt lat="45.90612" lon="5.26869">
        <ele>225.6</ele>
        <time>2024-09-19T09:29:46Z</time>
      </trkpt>
      <trkpt lat="45.90614" lon="5.26875">
        <ele>225</ele>
        <time>2024-09-19T09:29:47Z</time>
      </trkpt>
      <trkpt lat="45.90616" lon="5.26881">
        <ele>225.4</ele>
        <time>2024-09-19T09:29:48Z</time>
      </trkpt>
      <trkpt lat="45.90617" lon="5.26887">
        <ele>225.6</ele>
        <time>2024-09-19T09:29:49Z</time>
      </trkpt>
      <trkpt lat="45.90619" lon="5.26893">
        <ele>225.2</ele>
        <time>2024-09-19T09:29:50Z</time>
      </trkpt>
      <trkpt lat="45.90621" lon="5.269">
        <ele>225.2</ele>
        <time>2024-09-19T09:29:51Z</time>
      </trkpt>
      <trkpt lat="45.90623" lon="5.26906">
        <ele>225.2</ele>
        <time>2024-09-19T09:29:52Z</time>
      </trkpt>
      <trkpt lat="45.90625" lon="5.26912">
        <ele>225.4</ele>
        <time>2024-09-19T09:29:53Z</time>
      </trkpt>
      <trkpt lat="45.90627" lon="5.26919">
        <ele>225.4</ele>
        <time>2024-09-19T09:29:54Z</time>
      </trkpt>
      <trkpt lat="45.90629" lon="5.26926">
        <ele>225.8</ele>
        <time>2024-09-19T09:29:55Z</time>
      </trkpt>
      <trkpt lat="45.90631" lon="5.26933">
        <ele>225.4</ele>
        <time>2024-09-19T09:29:56Z</time>
      </trkpt>
      <trkpt lat="45.90633" lon="5.2694">
        <ele>225.4</ele>
        <time>2024-09-19T09:29:57Z</time>
      </trkpt>
      <trkpt lat="45.90635" lon="5.26947">
        <ele>225</ele>
        <time>2024-09-19T09:29:58Z</time>
      </trkpt>
      <trkpt lat="45.90637" lon="5.26953">
        <ele>225</ele>
        <time>2024-09-19T09:29:59Z</time>
      </trkpt>
      <trkpt lat="45.90639" lon="5.2696">
        <ele>225</ele>
        <time>2024-09-19T09:30:00Z</time>
      </trkpt>
      <trkpt lat="45.90641" lon="5.26967">
        <ele>225</ele>
        <time>2024-09-19T09:30:01Z</time>
      </trkpt>
      <trkpt lat="45.90643" lon="5.26974">
        <ele>224.6</ele>
        <time>2024-09-19T09:30:02Z</time>
      </trkpt>
      <trkpt lat="45.90645" lon="5.26981">
        <ele>224.6</ele>
        <time>2024-09-19T09:30:03Z</time>
      </trkpt>
      <trkpt lat="45.90647" lon="5.26989">
        <ele>224.8</ele>
        <time>2024-09-19T09:30:04Z</time>
      </trkpt>
      <trkpt lat="45.90649" lon="5.26995">
        <ele>224.4</ele>
        <time>2024-09-19T09:30:05Z</time>
      </trkpt>
      <trkpt lat="45.9065" lon="5.27003">
        <ele>224</ele>
        <time>2024-09-19T09:30:06Z</time>
      </trkpt>
      <trkpt lat="45.90652" lon="5.2701">
        <ele>224.8</ele>
        <time>2024-09-19T09:30:07Z</time>
      </trkpt>
      <trkpt lat="45.90654" lon="5.27017">
        <ele>225.2</ele>
        <time>2024-09-19T09:30:08Z</time>
      </trkpt>
      <trkpt lat="45.90656" lon="5.27025">
        <ele>225.6</ele>
        <time>2024-09-19T09:30:09Z</time>
      </trkpt>
      <trkpt lat="45.90658" lon="5.27032">
        <ele>225.6</ele>
        <time>2024-09-19T09:30:10Z</time>
      </trkpt>
      <trkpt lat="45.9066" lon="5.27039">
        <ele>225.4</ele>
        <time>2024-09-19T09:30:11Z</time>
      </trkpt>
      <trkpt lat="45.90662" lon="5.27047">
        <ele>225.4</ele>
        <time>2024-09-19T09:30:12Z</time>
      </trkpt>
      <trkpt lat="45.90664" lon="5.27054">
        <ele>226</ele>
        <time>2024-09-19T09:30:13Z</time>
      </trkpt>
      <trkpt lat="45.90667" lon="5.27061">
        <ele>226</ele>
        <time>2024-09-19T09:30:14Z</time>
      </trkpt>
      <trkpt lat="45.90669" lon="5.27069">
        <ele>226</ele>
        <time>2024-09-19T09:30:15Z</time>
      </trkpt>
      <trkpt lat="45.90672" lon="5.27076">
        <ele>226.6</ele>
        <time>2024-09-19T09:30:16Z</time>
      </trkpt>
      <trkpt lat="45.90674" lon="5.27083">
        <ele>225.8</ele>
        <time>2024-09-19T09:30:17Z</time>
      </trkpt>
      <trkpt lat="45.90678" lon="5.27091">
        <ele>226.6</ele>
        <time>2024-09-19T09:30:18Z</time>
      </trkpt>
      <trkpt lat="45.90681" lon="5.27098">
        <ele>226.4</ele>
        <time>2024-09-19T09:30:19Z</time>
      </trkpt>
      <trkpt lat="45.90685" lon="5.27104">
        <ele>225.8</ele>
        <time>2024-09-19T09:30:20Z</time>
      </trkpt>
      <trkpt lat="45.90688" lon="5.27111">
        <ele>226.2</ele>
        <time>2024-09-19T09:30:21Z</time>
      </trkpt>
      <trkpt lat="45.90692" lon="5.27118">
        <ele>225.6</ele>
        <time>2024-09-19T09:30:22Z</time>
      </trkpt>
      <trkpt lat="45.90695" lon="5.27125">
        <ele>225.6</ele>
        <time>2024-09-19T09:30:23Z</time>
      </trkpt>
      <trkpt lat="45.90699" lon="5.27133">
        <ele>226</ele>
        <time>2024-09-19T09:30:24Z</time>
      </trkpt>
      <trkpt lat="45.90702" lon="5.27137">
        <ele>226.6</ele>
        <time>2024-09-19T09:30:25Z</time>
      </trkpt>
      <trkpt lat="45.90706" lon="5.27143">
        <ele>226.6</ele>
        <time>2024-09-19T09:30:26Z</time>
      </trkpt>
      <trkpt lat="45.90709" lon="5.27148">
        <ele>226.6</ele>
        <time>2024-09-19T09:30:27Z</time>
      </trkpt>
      <trkpt lat="45.90714" lon="5.27154">
        <ele>226.6</ele>
        <time>2024-09-19T09:30:28Z</time>
      </trkpt>
      <trkpt lat="45.90718" lon="5.27158">
        <ele>226.6</ele>
        <time>2024-09-19T09:30:29Z</time>
      </trkpt>
      <trkpt lat="45.90723" lon="5.27161">
        <ele>226.2</ele>
        <time>2024-09-19T09:30:30Z</time>
      </trkpt>
      <trkpt lat="45.90728" lon="5.27164">
        <ele>226.2</ele>
        <time>2024-09-19T09:30:31Z</time>
      </trkpt>
      <trkpt lat="45.90733" lon="5.27167">
        <ele>226.2</ele>
        <time>2024-09-19T09:30:32Z</time>
      </trkpt>
      <trkpt lat="45.90738" lon="5.2717">
        <ele>226.2</ele>
        <time>2024-09-19T09:30:33Z</time>
      </trkpt>
      <trkpt lat="45.90743" lon="5.27172">
        <ele>227</ele>
        <time>2024-09-19T09:30:34Z</time>
      </trkpt>
      <trkpt lat="45.90749" lon="5.27175">
        <ele>227.4</ele>
        <time>2024-09-19T09:30:35Z</time>
      </trkpt>
      <trkpt lat="45.90755" lon="5.27176">
        <ele>227.8</ele>
        <time>2024-09-19T09:30:36Z</time>
      </trkpt>
      <trkpt lat="45.9076" lon="5.27179">
        <ele>227.8</ele>
        <time>2024-09-19T09:30:37Z</time>
      </trkpt>
      <trkpt lat="45.90765" lon="5.27181">
        <ele>227.2</ele>
        <time>2024-09-19T09:30:38Z</time>
      </trkpt>
      <trkpt lat="45.90771" lon="5.27184">
        <ele>226.6</ele>
        <time>2024-09-19T09:30:39Z</time>
      </trkpt>
      <trkpt lat="45.90776" lon="5.27187">
        <ele>226.6</ele>
        <time>2024-09-19T09:30:40Z</time>
      </trkpt>
      <trkpt lat="45.9078" lon="5.27191">
        <ele>226.4</ele>
        <time>2024-09-19T09:30:41Z</time>
      </trkpt>
      <trkpt lat="45.90785" lon="5.27195">
        <ele>226.6</ele>
        <time>2024-09-19T09:30:42Z</time>
      </trkpt>
      <trkpt lat="45.90789" lon="5.272">
        <ele>226.6</ele>
        <time>2024-09-19T09:30:43Z</time>
      </trkpt>
      <trkpt lat="45.90792" lon="5.27206">
        <ele>226.2</ele>
        <time>2024-09-19T09:30:44Z</time>
      </trkpt>
      <trkpt lat="45.90796" lon="5.27212">
        <ele>226.6</ele>
        <time>2024-09-19T09:30:45Z</time>
      </trkpt>
      <trkpt lat="45.90799" lon="5.27218">
        <ele>227</ele>
        <time>2024-09-19T09:30:46Z</time>
      </trkpt>
      <trkpt lat="45.90802" lon="5.27224">
        <ele>227.4</ele>
        <time>2024-09-19T09:30:47Z</time>
      </trkpt>
      <trkpt lat="45.90805" lon="5.27231">
        <ele>227.4</ele>
        <time>2024-09-19T09:30:48Z</time>
      </trkpt>
      <trkpt lat="45.90808" lon="5.27237">
        <ele>227.4</ele>
        <time>2024-09-19T09:30:49Z</time>
      </trkpt>
      <trkpt lat="45.9081" lon="5.27243">
        <ele>227.4</ele>
        <time>2024-09-19T09:30:50Z</time>
      </trkpt>
      <trkpt lat="45.90813" lon="5.2725">
        <ele>228</ele>
        <time>2024-09-19T09:30:51Z</time>
      </trkpt>
      <trkpt lat="45.90816" lon="5.27256">
        <ele>228.6</ele>
        <time>2024-09-19T09:30:52Z</time>
      </trkpt>
      <trkpt lat="45.90818" lon="5.27262">
        <ele>228.2</ele>
        <time>2024-09-19T09:30:53Z</time>
      </trkpt>
      <trkpt lat="45.90821" lon="5.27269">
        <ele>228.2</ele>
        <time>2024-09-19T09:30:54Z</time>
      </trkpt>
      <trkpt lat="45.90823" lon="5.27275">
        <ele>228.2</ele>
        <time>2024-09-19T09:30:55Z</time>
      </trkpt>
      <trkpt lat="45.90825" lon="5.27282">
        <ele>228.2</ele>
        <time>2024-09-19T09:30:56Z</time>
      </trkpt>
      <trkpt lat="45.90828" lon="5.27289">
        <ele>228.6</ele>
        <time>2024-09-19T09:30:57Z</time>
      </trkpt>
      <trkpt lat="45.90831" lon="5.27295">
        <ele>227.6</ele>
        <time>2024-09-19T09:30:58Z</time>
      </trkpt>
      <trkpt lat="45.90834" lon="5.27301">
        <ele>227.6</ele>
        <time>2024-09-19T09:30:59Z</time>
      </trkpt>
      <trkpt lat="45.90837" lon="5.27308">
        <ele>227.6</ele>
        <time>2024-09-19T09:31:00Z</time>
      </trkpt>
      <trkpt lat="45.90839" lon="5.27314">
        <ele>227.6</ele>
        <time>2024-09-19T09:31:01Z</time>
      </trkpt>
      <trkpt lat="45.90842" lon="5.27321">
        <ele>227.6</ele>
        <time>2024-09-19T09:31:02Z</time>
      </trkpt>
      <trkpt lat="45.90845" lon="5.27327">
        <ele>228.2</ele>
        <time>2024-09-19T09:31:03Z</time>
      </trkpt>
      <trkpt lat="45.90847" lon="5.27334">
        <ele>227.8</ele>
        <time>2024-09-19T09:31:04Z</time>
      </trkpt>
      <trkpt lat="45.9085" lon="5.2734">
        <ele>227.8</ele>
        <time>2024-09-19T09:31:05Z</time>
      </trkpt>
      <trkpt lat="45.90853" lon="5.27347">
        <ele>227.8</ele>
        <time>2024-09-19T09:31:06Z</time>
      </trkpt>
      <trkpt lat="45.90856" lon="5.27353">
        <ele>228.2</ele>
        <time>2024-09-19T09:31:07Z</time>
      </trkpt>
      <trkpt lat="45.90858" lon="5.27361">
        <ele>228.2</ele>
        <time>2024-09-19T09:31:08Z</time>
      </trkpt>
      <trkpt lat="45.90861" lon="5.27367">
        <ele>228</ele>
        <time>2024-09-19T09:31:09Z</time>
      </trkpt>
      <trkpt lat="45.90863" lon="5.27374">
        <ele>228</ele>
        <time>2024-09-19T09:31:10Z</time>
      </trkpt>
      <trkpt lat="45.90865" lon="5.27381">
        <ele>228</ele>
        <time>2024-09-19T09:31:11Z</time>
      </trkpt>
      <trkpt lat="45.90868" lon="5.27388">
        <ele>228.2</ele>
        <time>2024-09-19T09:31:12Z</time>
      </trkpt>
      <trkpt lat="45.9087" lon="5.27394">
        <ele>227.8</ele>
        <time>2024-09-19T09:31:13Z</time>
      </trkpt>
      <trkpt lat="45.90873" lon="5.27401">
        <ele>226.8</ele>
        <time>2024-09-19T09:31:14Z</time>
      </trkpt>
      <trkpt lat="45.90876" lon="5.27408">
        <ele>226.8</ele>
        <time>2024-09-19T09:31:15Z</time>
      </trkpt>
      <trkpt lat="45.90879" lon="5.27414">
        <ele>227.2</ele>
        <time>2024-09-19T09:31:16Z</time>
      </trkpt>
      <trkpt lat="45.90882" lon="5.2742">
        <ele>227.2</ele>
        <time>2024-09-19T09:31:17Z</time>
      </trkpt>
      <trkpt lat="45.90885" lon="5.27426">
        <ele>227.2</ele>
        <time>2024-09-19T09:31:18Z</time>
      </trkpt>
      <trkpt lat="45.90889" lon="5.27432">
        <ele>227.6</ele>
        <time>2024-09-19T09:31:19Z</time>
      </trkpt>
      <trkpt lat="45.90892" lon="5.27438">
        <ele>227.6</ele>
        <time>2024-09-19T09:31:20Z</time>
      </trkpt>
      <trkpt lat="45.90895" lon="5.27444">
        <ele>227.4</ele>
        <time>2024-09-19T09:31:21Z</time>
      </trkpt>
      <trkpt lat="45.90899" lon="5.27449">
        <ele>227.4</ele>
        <time>2024-09-19T09:31:22Z</time>
      </trkpt>
      <trkpt lat="45.90902" lon="5.27454">
        <ele>227.4</ele>
        <time>2024-09-19T09:31:23Z</time>
      </trkpt>
      <trkpt lat="45.90906" lon="5.2746">
        <ele>227</ele>
        <time>2024-09-19T09:31:24Z</time>
      </trkpt>
      <trkpt lat="45.9091" lon="5.27464">
        <ele>227.2</ele>
        <time>2024-09-19T09:31:25Z</time>
      </trkpt>
      <trkpt lat="45.90914" lon="5.2747">
        <ele>227.4</ele>
        <time>2024-09-19T09:31:26Z</time>
      </trkpt>
      <trkpt lat="45.90918" lon="5.27475">
        <ele>227.4</ele>
        <time>2024-09-19T09:31:27Z</time>
      </trkpt>
      <trkpt lat="45.90921" lon="5.2748">
        <ele>227.2</ele>
        <time>2024-09-19T09:31:28Z</time>
      </trkpt>
      <trkpt lat="45.90925" lon="5.27485">
        <ele>227.8</ele>
        <time>2024-09-19T09:31:29Z</time>
      </trkpt>
      <trkpt lat="45.90929" lon="5.2749">
        <ele>227.8</ele>
        <time>2024-09-19T09:31:30Z</time>
      </trkpt>
      <trkpt lat="45.90935" lon="5.27494">
        <ele>228.4</ele>
        <time>2024-09-19T09:31:31Z</time>
      </trkpt>
      <trkpt lat="45.90939" lon="5.27499">
        <ele>228.4</ele>
        <time>2024-09-19T09:31:32Z</time>
      </trkpt>
      <trkpt lat="45.90943" lon="5.27503">
        <ele>228.2</ele>
        <time>2024-09-19T09:31:33Z</time>
      </trkpt>
      <trkpt lat="45.90947" lon="5.27508">
        <ele>227.8</ele>
        <time>2024-09-19T09:31:34Z</time>
      </trkpt>
      <trkpt lat="45.90951" lon="5.27512">
        <ele>227.6</ele>
        <time>2024-09-19T09:31:35Z</time>
      </trkpt>
      <trkpt lat="45.90956" lon="5.27517">
        <ele>227.6</ele>
        <time>2024-09-19T09:31:36Z</time>
      </trkpt>
      <trkpt lat="45.90961" lon="5.27521">
        <ele>227.6</ele>
        <time>2024-09-19T09:31:37Z</time>
      </trkpt>
      <trkpt lat="45.90966" lon="5.27525">
        <ele>227</ele>
        <time>2024-09-19T09:31:38Z</time>
      </trkpt>
      <trkpt lat="45.9097" lon="5.27527">
        <ele>227.6</ele>
        <time>2024-09-19T09:31:39Z</time>
      </trkpt>
      <trkpt lat="45.90975" lon="5.2753">
        <ele>227.2</ele>
        <time>2024-09-19T09:31:40Z</time>
      </trkpt>
      <trkpt lat="45.9098" lon="5.27534">
        <ele>227.2</ele>
        <time>2024-09-19T09:31:41Z</time>
      </trkpt>
      <trkpt lat="45.90985" lon="5.27538">
        <ele>227.2</ele>
        <time>2024-09-19T09:31:42Z</time>
      </trkpt>
      <trkpt lat="45.9099" lon="5.27541">
        <ele>227.2</ele>
        <time>2024-09-19T09:31:43Z</time>
      </trkpt>
      <trkpt lat="45.90994" lon="5.27545">
        <ele>227.2</ele>
        <time>2024-09-19T09:31:44Z</time>
      </trkpt>
      <trkpt lat="45.90999" lon="5.27549">
        <ele>226.8</ele>
        <time>2024-09-19T09:31:45Z</time>
      </trkpt>
      <trkpt lat="45.91003" lon="5.27552">
        <ele>227.4</ele>
        <time>2024-09-19T09:31:46Z</time>
      </trkpt>
      <trkpt lat="45.91007" lon="5.27556">
        <ele>227.4</ele>
        <time>2024-09-19T09:31:47Z</time>
      </trkpt>
      <trkpt lat="45.91011" lon="5.27558">
        <ele>227.6</ele>
        <time>2024-09-19T09:31:48Z</time>
      </trkpt>
      <trkpt lat="45.91013" lon="5.27562">
        <ele>228</ele>
        <time>2024-09-19T09:31:49Z</time>
      </trkpt>
      <trkpt lat="45.91016" lon="5.27566">
        <ele>228</ele>
        <time>2024-09-19T09:31:50Z</time>
      </trkpt>
      <trkpt lat="45.91013" lon="5.27569">
        <ele>228.2</ele>
        <time>2024-09-19T09:31:51Z</time>
      </trkpt>
      <trkpt lat="45.91013" lon="5.27572">
        <ele>228.4</ele>
        <time>2024-09-19T09:31:52Z</time>
      </trkpt>
      <trkpt lat="45.91013" lon="5.27573">
        <ele>228.4</ele>
        <time>2024-09-19T09:31:53Z</time>
      </trkpt>
      <trkpt lat="45.91012" lon="5.27573">
        <ele>228.4</ele>
        <time>2024-09-19T09:31:54Z</time>
      </trkpt>
      <trkpt lat="45.91013" lon="5.27573">
        <ele>228.4</ele>
        <time>2024-09-19T09:31:55Z</time>
      </trkpt>
      <trkpt lat="45.91012" lon="5.27575">
        <ele>229.2</ele>
        <time>2024-09-19T09:35:39Z</time>
      </trkpt>
      <trkpt lat="45.91011" lon="5.27577">
        <ele>229.2</ele>
        <time>2024-09-19T09:35:40Z</time>
      </trkpt>
      <trkpt lat="45.91011" lon="5.27578">
        <ele>229.2</ele>
        <time>2024-09-19T09:35:41Z</time>
      </trkpt>
      <trkpt lat="45.91011" lon="5.2758">
        <ele>229.2</ele>
        <time>2024-09-19T09:35:42Z</time>
      </trkpt>
      <trkpt lat="45.9101" lon="5.27581">
        <ele>229</ele>
        <time>2024-09-19T09:35:43Z</time>
      </trkpt>
      <trkpt lat="45.9101" lon="5.27583">
        <ele>229</ele>
        <time>2024-09-19T09:35:44Z</time>
      </trkpt>
      <trkpt lat="45.91009" lon="5.27584">
        <ele>229</ele>
        <time>2024-09-19T09:35:45Z</time>
      </trkpt>
      <trkpt lat="45.91007" lon="5.27586">
        <ele>229</ele>
        <time>2024-09-19T09:35:46Z</time>
      </trkpt>
      <trkpt lat="45.91005" lon="5.27589">
        <ele>229</ele>
        <time>2024-09-19T09:35:47Z</time>
      </trkpt>
      <trkpt lat="45.91004" lon="5.27592">
        <ele>228.6</ele>
        <time>2024-09-19T09:35:48Z</time>
      </trkpt>
      <trkpt lat="45.91002" lon="5.27594">
        <ele>228.6</ele>
        <time>2024-09-19T09:35:49Z</time>
      </trkpt>
      <trkpt lat="45.91" lon="5.27597">
        <ele>228.6</ele>
        <time>2024-09-19T09:35:50Z</time>
      </trkpt>
      <trkpt lat="45.90998" lon="5.27601">
        <ele>229</ele>
        <time>2024-09-19T09:35:51Z</time>
      </trkpt>
      <trkpt lat="45.90995" lon="5.27605">
        <ele>228.8</ele>
        <time>2024-09-19T09:35:52Z</time>
      </trkpt>
      <trkpt lat="45.90993" lon="5.27609">
        <ele>229</ele>
        <time>2024-09-19T09:35:53Z</time>
      </trkpt>
      <trkpt lat="45.90991" lon="5.27612">
        <ele>229</ele>
        <time>2024-09-19T09:35:54Z</time>
      </trkpt>
      <trkpt lat="45.90988" lon="5.27616">
        <ele>228.8</ele>
        <time>2024-09-19T09:35:55Z</time>
      </trkpt>
      <trkpt lat="45.90986" lon="5.2762">
        <ele>228.8</ele>
        <time>2024-09-19T09:35:56Z</time>
      </trkpt>
      <trkpt lat="45.90983" lon="5.27624">
        <ele>228.8</ele>
        <time>2024-09-19T09:35:57Z</time>
      </trkpt>
      <trkpt lat="45.90981" lon="5.27628">
        <ele>229.2</ele>
        <time>2024-09-19T09:35:58Z</time>
      </trkpt>
      <trkpt lat="45.90979" lon="5.27632">
        <ele>229.2</ele>
        <time>2024-09-19T09:35:59Z</time>
      </trkpt>
      <trkpt lat="45.90977" lon="5.27636">
        <ele>229.6</ele>
        <time>2024-09-19T09:36:00Z</time>
      </trkpt>
      <trkpt lat="45.90975" lon="5.2764">
        <ele>229.6</ele>
        <time>2024-09-19T09:36:01Z</time>
      </trkpt>
      <trkpt lat="45.90973" lon="5.27643">
        <ele>229.6</ele>
        <time>2024-09-19T09:36:02Z</time>
      </trkpt>
      <trkpt lat="45.90971" lon="5.27646">
        <ele>229.8</ele>
        <time>2024-09-19T09:36:03Z</time>
      </trkpt>
      <trkpt lat="45.90969" lon="5.27649">
        <ele>229.8</ele>
        <time>2024-09-19T09:36:04Z</time>
      </trkpt>
      <trkpt lat="45.90967" lon="5.27651">
        <ele>230</ele>
        <time>2024-09-19T09:36:05Z</time>
      </trkpt>
      <trkpt lat="45.90964" lon="5.27654">
        <ele>230</ele>
        <time>2024-09-19T09:36:06Z</time>
      </trkpt>
      <trkpt lat="45.90963" lon="5.27657">
        <ele>230.4</ele>
        <time>2024-09-19T09:36:07Z</time>
      </trkpt>
      <trkpt lat="45.90961" lon="5.2766">
        <ele>230.4</ele>
        <time>2024-09-19T09:36:08Z</time>
      </trkpt>
      <trkpt lat="45.9096" lon="5.27663">
        <ele>231</ele>
        <time>2024-09-19T09:36:09Z</time>
      </trkpt>
      <trkpt lat="45.90958" lon="5.27665">
        <ele>231</ele>
        <time>2024-09-19T09:36:10Z</time>
      </trkpt>
      <trkpt lat="45.90956" lon="5.27667">
        <ele>231.4</ele>
        <time>2024-09-19T09:36:11Z</time>
      </trkpt>
      <trkpt lat="45.90954" lon="5.27669">
        <ele>231.8</ele>
        <time>2024-09-19T09:36:12Z</time>
      </trkpt>
      <trkpt lat="45.90952" lon="5.27672">
        <ele>232.2</ele>
        <time>2024-09-19T09:36:13Z</time>
      </trkpt>
      <trkpt lat="45.90951" lon="5.27675">
        <ele>232.2</ele>
        <time>2024-09-19T09:36:14Z</time>
      </trkpt>
      <trkpt lat="45.9095" lon="5.27678">
        <ele>232.2</ele>
        <time>2024-09-19T09:36:15Z</time>
      </trkpt>
      <trkpt lat="45.90949" lon="5.2768">
        <ele>232.4</ele>
        <time>2024-09-19T09:36:16Z</time>
      </trkpt>
      <trkpt lat="45.9095" lon="5.27682">
        <ele>232.6</ele>
        <time>2024-09-19T09:36:17Z</time>
      </trkpt>
      <trkpt lat="45.9095" lon="5.27684">
        <ele>232.6</ele>
        <time>2024-09-19T09:36:18Z</time>
      </trkpt>
      <trkpt lat="45.9095" lon="5.27686">
        <ele>232.8</ele>
        <time>2024-09-19T09:36:19Z</time>
      </trkpt>
      <trkpt lat="45.9095" lon="5.27687">
        <ele>232.8</ele>
        <time>2024-09-19T09:36:20Z</time>
      </trkpt>
      <trkpt lat="45.90948" lon="5.2769">
        <ele>233.4</ele>
        <time>2024-09-19T09:36:21Z</time>
      </trkpt>
      <trkpt lat="45.90946" lon="5.27692">
        <ele>233.6</ele>
        <time>2024-09-19T09:36:22Z</time>
      </trkpt>
      <trkpt lat="45.90945" lon="5.27693">
        <ele>233.6</ele>
        <time>2024-09-19T09:36:23Z</time>
      </trkpt>
      <trkpt lat="45.90944" lon="5.27695">
        <ele>234</ele>
        <time>2024-09-19T09:36:24Z</time>
      </trkpt>
      <trkpt lat="45.90944" lon="5.27698">
        <ele>234</ele>
        <time>2024-09-19T09:36:25Z</time>
      </trkpt>
      <trkpt lat="45.90944" lon="5.277">
        <ele>234.4</ele>
        <time>2024-09-19T09:36:26Z</time>
      </trkpt>
      <trkpt lat="45.90944" lon="5.27702">
        <ele>234.8</ele>
        <time>2024-09-19T09:36:27Z</time>
      </trkpt>
      <trkpt lat="45.90945" lon="5.27704">
        <ele>234.8</ele>
        <time>2024-09-19T09:36:28Z</time>
      </trkpt>
      <trkpt lat="45.90945" lon="5.27707">
        <ele>235.2</ele>
        <time>2024-09-19T09:36:29Z</time>
      </trkpt>
      <trkpt lat="45.90945" lon="5.27709">
        <ele>235.2</ele>
        <time>2024-09-19T09:36:30Z</time>
      </trkpt>
      <trkpt lat="45.90945" lon="5.27711">
        <ele>235.4</ele>
        <time>2024-09-19T09:36:31Z</time>
      </trkpt>
      <trkpt lat="45.90945" lon="5.27713">
        <ele>235.6</ele>
        <time>2024-09-19T09:36:32Z</time>
      </trkpt>
      <trkpt lat="45.90945" lon="5.27716">
        <ele>235.8</ele>
        <time>2024-09-19T09:36:33Z</time>
      </trkpt>
      <trkpt lat="45.90945" lon="5.27718">
        <ele>236.2</ele>
        <time>2024-09-19T09:36:34Z</time>
      </trkpt>
      <trkpt lat="45.90945" lon="5.27718">
        <ele>236.4</ele>
        <time>2024-09-19T09:36:35Z</time>
      </trkpt>
      <trkpt lat="45.90946" lon="5.2772">
        <ele>236.6</ele>
        <time>2024-09-19T09:36:36Z</time>
      </trkpt>
      <trkpt lat="45.90947" lon="5.27722">
        <ele>237</ele>
        <time>2024-09-19T09:36:37Z</time>
      </trkpt>
      <trkpt lat="45.90947" lon="5.27724">
        <ele>237.4</ele>
        <time>2024-09-19T09:36:38Z</time>
      </trkpt>
      <trkpt lat="45.90948" lon="5.27725">
        <ele>237.6</ele>
        <time>2024-09-19T09:36:39Z</time>
      </trkpt>
      <trkpt lat="45.90948" lon="5.27727">
        <ele>237.6</ele>
        <time>2024-09-19T09:36:40Z</time>
      </trkpt>
      <trkpt lat="45.90949" lon="5.27729">
        <ele>238</ele>
        <time>2024-09-19T09:36:41Z</time>
      </trkpt>
      <trkpt lat="45.9095" lon="5.27731">
        <ele>238</ele>
        <time>2024-09-19T09:36:42Z</time>
      </trkpt>
      <trkpt lat="45.90951" lon="5.27732">
        <ele>238.4</ele>
        <time>2024-09-19T09:36:43Z</time>
      </trkpt>
      <trkpt lat="45.90952" lon="5.27734">
        <ele>238.8</ele>
        <time>2024-09-19T09:36:44Z</time>
      </trkpt>
      <trkpt lat="45.90954" lon="5.27737">
        <ele>238.8</ele>
        <time>2024-09-19T09:36:45Z</time>
      </trkpt>
      <trkpt lat="45.90954" lon="5.27738">
        <ele>239.2</ele>
        <time>2024-09-19T09:36:46Z</time>
      </trkpt>
      <trkpt lat="45.90955" lon="5.27739">
        <ele>239.4</ele>
        <time>2024-09-19T09:36:47Z</time>
      </trkpt>
      <trkpt lat="45.90955" lon="5.27741">
        <ele>239.4</ele>
        <time>2024-09-19T09:36:48Z</time>
      </trkpt>
      <trkpt lat="45.90956" lon="5.27743">
        <ele>239.8</ele>
        <time>2024-09-19T09:36:49Z</time>
      </trkpt>
      <trkpt lat="45.90957" lon="5.27745">
        <ele>240</ele>
        <time>2024-09-19T09:36:50Z</time>
      </trkpt>
      <trkpt lat="45.90958" lon="5.27746">
        <ele>240</ele>
        <time>2024-09-19T09:36:51Z</time>
      </trkpt>
      <trkpt lat="45.90958" lon="5.27748">
        <ele>240.2</ele>
        <time>2024-09-19T09:36:52Z</time>
      </trkpt>
      <trkpt lat="45.90959" lon="5.27749">
        <ele>240.6</ele>
        <time>2024-09-19T09:36:53Z</time>
      </trkpt>
      <trkpt lat="45.90961" lon="5.27751">
        <ele>240.6</ele>
        <time>2024-09-19T09:36:54Z</time>
      </trkpt>
      <trkpt lat="45.90962" lon="5.27752">
        <ele>240.8</ele>
        <time>2024-09-19T09:36:55Z</time>
      </trkpt>
      <trkpt lat="45.90963" lon="5.27754">
        <ele>241.2</ele>
        <time>2024-09-19T09:36:56Z</time>
      </trkpt>
      <trkpt lat="45.90964" lon="5.27755">
        <ele>241.2</ele>
        <time>2024-09-19T09:36:57Z</time>
      </trkpt>
      <trkpt lat="45.90965" lon="5.27757">
        <ele>241.4</ele>
        <time>2024-09-19T09:36:58Z</time>
      </trkpt>
      <trkpt lat="45.90967" lon="5.27758">
        <ele>241.6</ele>
        <time>2024-09-19T09:36:59Z</time>
      </trkpt>
      <trkpt lat="45.90968" lon="5.2776">
        <ele>241.8</ele>
        <time>2024-09-19T09:37:00Z</time>
      </trkpt>
      <trkpt lat="45.90969" lon="5.27762">
        <ele>241.8</ele>
        <time>2024-09-19T09:37:01Z</time>
      </trkpt>
      <trkpt lat="45.9097" lon="5.27764">
        <ele>242.2</ele>
        <time>2024-09-19T09:37:02Z</time>
      </trkpt>
      <trkpt lat="45.90971" lon="5.27766">
        <ele>242.2</ele>
        <time>2024-09-19T09:37:03Z</time>
      </trkpt>
      <trkpt lat="45.90971" lon="5.27767">
        <ele>242.2</ele>
        <time>2024-09-19T09:37:04Z</time>
      </trkpt>
      <trkpt lat="45.90973" lon="5.27769">
        <ele>242.4</ele>
        <time>2024-09-19T09:37:05Z</time>
      </trkpt>
      <trkpt lat="45.90974" lon="5.27772">
        <ele>242.4</ele>
        <time>2024-09-19T09:37:06Z</time>
      </trkpt>
      <trkpt lat="45.90975" lon="5.27773">
        <ele>242.6</ele>
        <time>2024-09-19T09:37:07Z</time>
      </trkpt>
      <trkpt lat="45.90976" lon="5.27775">
        <ele>242.6</ele>
        <time>2024-09-19T09:37:08Z</time>
      </trkpt>
      <trkpt lat="45.90977" lon="5.27777">
        <ele>242.8</ele>
        <time>2024-09-19T09:37:09Z</time>
      </trkpt>
      <trkpt lat="45.90978" lon="5.27778">
        <ele>243</ele>
        <time>2024-09-19T09:37:10Z</time>
      </trkpt>
      <trkpt lat="45.90979" lon="5.2778">
        <ele>243</ele>
        <time>2024-09-19T09:37:11Z</time>
      </trkpt>
      <trkpt lat="45.9098" lon="5.27782">
        <ele>243.6</ele>
        <time>2024-09-19T09:37:12Z</time>
      </trkpt>
      <trkpt lat="45.90981" lon="5.27784">
        <ele>243.6</ele>
        <time>2024-09-19T09:37:13Z</time>
      </trkpt>
      <trkpt lat="45.90982" lon="5.27786">
        <ele>243.8</ele>
        <time>2024-09-19T09:37:14Z</time>
      </trkpt>
      <trkpt lat="45.90983" lon="5.27788">
        <ele>243.8</ele>
        <time>2024-09-19T09:37:15Z</time>
      </trkpt>
      <trkpt lat="45.90984" lon="5.2779">
        <ele>244</ele>
        <time>2024-09-19T09:37:16Z</time>
      </trkpt>
      <trkpt lat="45.90985" lon="5.27792">
        <ele>244.4</ele>
        <time>2024-09-19T09:37:17Z</time>
      </trkpt>
      <trkpt lat="45.90986" lon="5.27794">
        <ele>244.4</ele>
        <time>2024-09-19T09:37:18Z</time>
      </trkpt>
      <trkpt lat="45.90987" lon="5.27796">
        <ele>244.4</ele>
        <time>2024-09-19T09:37:19Z</time>
      </trkpt>
      <trkpt lat="45.90988" lon="5.27798">
        <ele>244.6</ele>
        <time>2024-09-19T09:37:20Z</time>
      </trkpt>
      <trkpt lat="45.90988" lon="5.278">
        <ele>245</ele>
        <time>2024-09-19T09:37:21Z</time>
      </trkpt>
      <trkpt lat="45.90989" lon="5.27802">
        <ele>245.2</ele>
        <time>2024-09-19T09:37:22Z</time>
      </trkpt>
      <trkpt lat="45.9099" lon="5.27803">
        <ele>245.4</ele>
        <time>2024-09-19T09:37:23Z</time>
      </trkpt>
      <trkpt lat="45.9099" lon="5.27805">
        <ele>245.8</ele>
        <time>2024-09-19T09:37:24Z</time>
      </trkpt>
      <trkpt lat="45.90991" lon="5.27806">
        <ele>246.2</ele>
        <time>2024-09-19T09:37:25Z</time>
      </trkpt>
      <trkpt lat="45.90992" lon="5.27808">
        <ele>246.4</ele>
        <time>2024-09-19T09:37:26Z</time>
      </trkpt>
      <trkpt lat="45.90993" lon="5.27809">
        <ele>246.4</ele>
        <time>2024-09-19T09:37:27Z</time>
      </trkpt>
      <trkpt lat="45.90993" lon="5.27811">
        <ele>246.8</ele>
        <time>2024-09-19T09:37:28Z</time>
      </trkpt>
      <trkpt lat="45.90994" lon="5.27812">
        <ele>246.8</ele>
        <time>2024-09-19T09:37:29Z</time>
      </trkpt>
      <trkpt lat="45.90995" lon="5.27814">
        <ele>246.8</ele>
        <time>2024-09-19T09:37:30Z</time>
      </trkpt>
      <trkpt lat="45.90997" lon="5.27816">
        <ele>246.8</ele>
        <time>2024-09-19T09:37:31Z</time>
      </trkpt>
      <trkpt lat="45.90997" lon="5.27817">
        <ele>246.8</ele>
        <time>2024-09-19T09:37:32Z</time>
      </trkpt>
      <trkpt lat="45.90998" lon="5.27818">
        <ele>247</ele>
        <time>2024-09-19T09:37:33Z</time>
      </trkpt>
      <trkpt lat="45.90999" lon="5.2782">
        <ele>247</ele>
        <time>2024-09-19T09:37:34Z</time>
      </trkpt>
      <trkpt lat="45.91" lon="5.27821">
        <ele>247.2</ele>
        <time>2024-09-19T09:37:35Z</time>
      </trkpt>
      <trkpt lat="45.91001" lon="5.27822">
        <ele>247.6</ele>
        <time>2024-09-19T09:37:36Z</time>
      </trkpt>
      <trkpt lat="45.91003" lon="5.27824">
        <ele>247.6</ele>
        <time>2024-09-19T09:37:37Z</time>
      </trkpt>
      <trkpt lat="45.91004" lon="5.27826">
        <ele>247.8</ele>
        <time>2024-09-19T09:37:38Z</time>
      </trkpt>
      <trkpt lat="45.91005" lon="5.27827">
        <ele>247.8</ele>
        <time>2024-09-19T09:37:39Z</time>
      </trkpt>
      <trkpt lat="45.91005" lon="5.27828">
        <ele>248.4</ele>
        <time>2024-09-19T09:37:40Z</time>
      </trkpt>
      <trkpt lat="45.91006" lon="5.2783">
        <ele>248.4</ele>
        <time>2024-09-19T09:37:41Z</time>
      </trkpt>
      <trkpt lat="45.91008" lon="5.27833">
        <ele>249</ele>
        <time>2024-09-19T09:37:42Z</time>
      </trkpt>
      <trkpt lat="45.91009" lon="5.27835">
        <ele>249.2</ele>
        <time>2024-09-19T09:37:43Z</time>
      </trkpt>
      <trkpt lat="45.9101" lon="5.27838">
        <ele>249.2</ele>
        <time>2024-09-19T09:37:44Z</time>
      </trkpt>
      <trkpt lat="45.91011" lon="5.2784">
        <ele>249.6</ele>
        <time>2024-09-19T09:37:45Z</time>
      </trkpt>
      <trkpt lat="45.91013" lon="5.27843">
        <ele>249.6</ele>
        <time>2024-09-19T09:37:46Z</time>
      </trkpt>
      <trkpt lat="45.91014" lon="5.27845">
        <ele>249.6</ele>
        <time>2024-09-19T09:37:47Z</time>
      </trkpt>
      <trkpt lat="45.91015" lon="5.27848">
        <ele>249.6</ele>
        <time>2024-09-19T09:37:48Z</time>
      </trkpt>
      <trkpt lat="45.91016" lon="5.2785">
        <ele>249.2</ele>
        <time>2024-09-19T09:37:49Z</time>
      </trkpt>
      <trkpt lat="45.91016" lon="5.27853">
        <ele>249.2</ele>
        <time>2024-09-19T09:37:50Z</time>
      </trkpt>
      <trkpt lat="45.91017" lon="5.27856">
        <ele>249.6</ele>
        <time>2024-09-19T09:37:51Z</time>
      </trkpt>
      <trkpt lat="45.91018" lon="5.27859">
        <ele>249.6</ele>
        <time>2024-09-19T09:37:52Z</time>
      </trkpt>
      <trkpt lat="45.91019" lon="5.27861">
        <ele>249.6</ele>
        <time>2024-09-19T09:37:53Z</time>
      </trkpt>
      <trkpt lat="45.91019" lon="5.27864">
        <ele>249.6</ele>
        <time>2024-09-19T09:37:54Z</time>
      </trkpt>
      <trkpt lat="45.9102" lon="5.27867">
        <ele>249.6</ele>
        <time>2024-09-19T09:37:55Z</time>
      </trkpt>
      <trkpt lat="45.9102" lon="5.2787">
        <ele>250</ele>
        <time>2024-09-19T09:37:56Z</time>
      </trkpt>
      <trkpt lat="45.91021" lon="5.27874">
        <ele>250</ele>
        <time>2024-09-19T09:37:57Z</time>
      </trkpt>
      <trkpt lat="45.91022" lon="5.27878">
        <ele>250</ele>
        <time>2024-09-19T09:37:58Z</time>
      </trkpt>
      <trkpt lat="45.91023" lon="5.27881">
        <ele>250.2</ele>
        <time>2024-09-19T09:37:59Z</time>
      </trkpt>
      <trkpt lat="45.91024" lon="5.27884">
        <ele>250.2</ele>
        <time>2024-09-19T09:38:00Z</time>
      </trkpt>
      <trkpt lat="45.91026" lon="5.27888">
        <ele>250.6</ele>
        <time>2024-09-19T09:38:01Z</time>
      </trkpt>
      <trkpt lat="45.91027" lon="5.27893">
        <ele>250.6</ele>
        <time>2024-09-19T09:38:02Z</time>
      </trkpt>
      <trkpt lat="45.91028" lon="5.27897">
        <ele>250.6</ele>
        <time>2024-09-19T09:38:03Z</time>
      </trkpt>
      <trkpt lat="45.91029" lon="5.27902">
        <ele>249.6</ele>
        <time>2024-09-19T09:38:04Z</time>
      </trkpt>
      <trkpt lat="45.9103" lon="5.27906">
        <ele>250.2</ele>
        <time>2024-09-19T09:38:05Z</time>
      </trkpt>
      <trkpt lat="45.91031" lon="5.27911">
        <ele>250.2</ele>
        <time>2024-09-19T09:38:06Z</time>
      </trkpt>
      <trkpt lat="45.91032" lon="5.27916">
        <ele>250.2</ele>
        <time>2024-09-19T09:38:07Z</time>
      </trkpt>
      <trkpt lat="45.91034" lon="5.2792">
        <ele>250.2</ele>
        <time>2024-09-19T09:38:08Z</time>
      </trkpt>
      <trkpt lat="45.91035" lon="5.27925">
        <ele>250</ele>
        <time>2024-09-19T09:38:09Z</time>
      </trkpt>
      <trkpt lat="45.91037" lon="5.2793">
        <ele>249.8</ele>
        <time>2024-09-19T09:38:10Z</time>
      </trkpt>
      <trkpt lat="45.91039" lon="5.27935">
        <ele>249.8</ele>
        <time>2024-09-19T09:38:11Z</time>
      </trkpt>
      <trkpt lat="45.91042" lon="5.2794">
        <ele>249.8</ele>
        <time>2024-09-19T09:38:12Z</time>
      </trkpt>
      <trkpt lat="45.91044" lon="5.27945">
        <ele>249.8</ele>
        <time>2024-09-19T09:38:13Z</time>
      </trkpt>
      <trkpt lat="45.91046" lon="5.27951">
        <ele>250</ele>
        <time>2024-09-19T09:38:14Z</time>
      </trkpt>
      <trkpt lat="45.91048" lon="5.27957">
        <ele>250</ele>
        <time>2024-09-19T09:38:15Z</time>
      </trkpt>
      <trkpt lat="45.91049" lon="5.27962">
        <ele>250.4</ele>
        <time>2024-09-19T09:38:16Z</time>
      </trkpt>
      <trkpt lat="45.91051" lon="5.27968">
        <ele>250.4</ele>
        <time>2024-09-19T09:38:17Z</time>
      </trkpt>
      <trkpt lat="45.91053" lon="5.27973">
        <ele>250</ele>
        <time>2024-09-19T09:38:18Z</time>
      </trkpt>
      <trkpt lat="45.91056" lon="5.27981">
        <ele>250</ele>
        <time>2024-09-19T09:38:19Z</time>
      </trkpt>
      <trkpt lat="45.91059" lon="5.27989">
        <ele>250</ele>
        <time>2024-09-19T09:38:20Z</time>
      </trkpt>
      <trkpt lat="45.91061" lon="5.27995">
        <ele>250</ele>
        <time>2024-09-19T09:38:21Z</time>
      </trkpt>
      <trkpt lat="45.91063" lon="5.28">
        <ele>250</ele>
        <time>2024-09-19T09:38:22Z</time>
      </trkpt>
      <trkpt lat="45.91064" lon="5.28005">
        <ele>250</ele>
        <time>2024-09-19T09:38:23Z</time>
      </trkpt>
      <trkpt lat="45.91065" lon="5.2801">
        <ele>250</ele>
        <time>2024-09-19T09:38:24Z</time>
      </trkpt>
      <trkpt lat="45.91068" lon="5.28016">
        <ele>250.4</ele>
        <time>2024-09-19T09:38:25Z</time>
      </trkpt>
      <trkpt lat="45.91069" lon="5.28022">
        <ele>250.4</ele>
        <time>2024-09-19T09:38:26Z</time>
      </trkpt>
      <trkpt lat="45.91071" lon="5.28028">
        <ele>250.4</ele>
        <time>2024-09-19T09:38:27Z</time>
      </trkpt>
      <trkpt lat="45.91073" lon="5.28035">
        <ele>250.4</ele>
        <time>2024-09-19T09:38:28Z</time>
      </trkpt>
      <trkpt lat="45.91075" lon="5.28041">
        <ele>250.4</ele>
        <time>2024-09-19T09:38:29Z</time>
      </trkpt>
      <trkpt lat="45.91077" lon="5.28047">
        <ele>250</ele>
        <time>2024-09-19T09:38:30Z</time>
      </trkpt>
      <trkpt lat="45.91078" lon="5.28052">
        <ele>249.6</ele>
        <time>2024-09-19T09:38:31Z</time>
      </trkpt>
      <trkpt lat="45.9108" lon="5.28059">
        <ele>250</ele>
        <time>2024-09-19T09:38:32Z</time>
      </trkpt>
      <trkpt lat="45.91081" lon="5.28065">
        <ele>250</ele>
        <time>2024-09-19T09:38:33Z</time>
      </trkpt>
      <trkpt lat="45.91083" lon="5.28072">
        <ele>250</ele>
        <time>2024-09-19T09:38:34Z</time>
      </trkpt>
      <trkpt lat="45.91083" lon="5.28072">
        <ele>250</ele>
        <time>2024-09-19T09:38:35Z</time>
      </trkpt>
      <trkpt lat="45.91083" lon="5.28072">
        <ele>250</ele>
        <time>2024-09-19T09:38:36Z</time>
      </trkpt>
      <trkpt lat="45.91085" lon="5.28092">
        <ele>250.6</ele>
        <time>2024-09-19T09:38:38Z</time>
      </trkpt>
      <trkpt lat="45.91085" lon="5.28096">
        <ele>250.6</ele>
        <time>2024-09-19T09:38:39Z</time>
      </trkpt>
      <trkpt lat="45.91085" lon="5.28101">
        <ele>250.6</ele>
        <time>2024-09-19T09:38:40Z</time>
      </trkpt>
      <trkpt lat="45.91085" lon="5.28106">
        <ele>250.6</ele>
        <time>2024-09-19T09:38:41Z</time>
      </trkpt>
      <trkpt lat="45.91087" lon="5.2811">
        <ele>251.4</ele>
        <time>2024-09-19T09:38:42Z</time>
      </trkpt>
      <trkpt lat="45.91087" lon="5.28115">
        <ele>251</ele>
        <time>2024-09-19T09:38:43Z</time>
      </trkpt>
      <trkpt lat="45.91087" lon="5.28119">
        <ele>251</ele>
        <time>2024-09-19T09:38:44Z</time>
      </trkpt>
      <trkpt lat="45.91087" lon="5.28123">
        <ele>250.8</ele>
        <time>2024-09-19T09:38:45Z</time>
      </trkpt>
      <trkpt lat="45.91087" lon="5.28128">
        <ele>250.8</ele>
        <time>2024-09-19T09:38:46Z</time>
      </trkpt>
      <trkpt lat="45.91087" lon="5.28132">
        <ele>250.6</ele>
        <time>2024-09-19T09:38:47Z</time>
      </trkpt>
      <trkpt lat="45.91087" lon="5.28137">
        <ele>250.6</ele>
        <time>2024-09-19T09:38:48Z</time>
      </trkpt>
      <trkpt lat="45.91087" lon="5.28142">
        <ele>250.6</ele>
        <time>2024-09-19T09:38:49Z</time>
      </trkpt>
      <trkpt lat="45.91086" lon="5.28148">
        <ele>250.6</ele>
        <time>2024-09-19T09:38:50Z</time>
      </trkpt>
      <trkpt lat="45.91085" lon="5.28153">
        <ele>250.6</ele>
        <time>2024-09-19T09:38:51Z</time>
      </trkpt>
      <trkpt lat="45.91084" lon="5.28159">
        <ele>250.6</ele>
        <time>2024-09-19T09:38:52Z</time>
      </trkpt>
      <trkpt lat="45.91083" lon="5.28165">
        <ele>250.6</ele>
        <time>2024-09-19T09:38:53Z</time>
      </trkpt>
      <trkpt lat="45.91082" lon="5.28171">
        <ele>250.6</ele>
        <time>2024-09-19T09:38:54Z</time>
      </trkpt>
      <trkpt lat="45.91081" lon="5.28176">
        <ele>250.2</ele>
        <time>2024-09-19T09:38:55Z</time>
      </trkpt>
      <trkpt lat="45.9108" lon="5.28183">
        <ele>250.2</ele>
        <time>2024-09-19T09:38:56Z</time>
      </trkpt>
      <trkpt lat="45.9108" lon="5.28189">
        <ele>249.8</ele>
        <time>2024-09-19T09:38:57Z</time>
      </trkpt>
      <trkpt lat="45.9108" lon="5.28196">
        <ele>249.6</ele>
        <time>2024-09-19T09:38:58Z</time>
      </trkpt>
      <trkpt lat="45.91079" lon="5.28202">
        <ele>249.2</ele>
        <time>2024-09-19T09:38:59Z</time>
      </trkpt>
      <trkpt lat="45.91079" lon="5.28202">
        <ele>249</ele>
        <time>2024-09-19T09:39:00Z</time>
      </trkpt>
      <trkpt lat="45.91077" lon="5.28216">
        <ele>249</ele>
        <time>2024-09-19T09:39:01Z</time>
      </trkpt>
      <trkpt lat="45.91076" lon="5.28223">
        <ele>249.2</ele>
        <time>2024-09-19T09:39:02Z</time>
      </trkpt>
      <trkpt lat="45.91074" lon="5.28229">
        <ele>249.2</ele>
        <time>2024-09-19T09:39:03Z</time>
      </trkpt>
      <trkpt lat="45.91073" lon="5.28236">
        <ele>249.6</ele>
        <time>2024-09-19T09:39:04Z</time>
      </trkpt>
      <trkpt lat="45.91072" lon="5.28244">
        <ele>249.6</ele>
        <time>2024-09-19T09:39:05Z</time>
      </trkpt>
      <trkpt lat="45.91071" lon="5.28251">
        <ele>249</ele>
        <time>2024-09-19T09:39:06Z</time>
      </trkpt>
      <trkpt lat="45.91069" lon="5.28258">
        <ele>249.2</ele>
        <time>2024-09-19T09:39:07Z</time>
      </trkpt>
      <trkpt lat="45.91067" lon="5.28265">
        <ele>249.8</ele>
        <time>2024-09-19T09:39:08Z</time>
      </trkpt>
      <trkpt lat="45.91065" lon="5.28272">
        <ele>249.8</ele>
        <time>2024-09-19T09:39:09Z</time>
      </trkpt>
      <trkpt lat="45.91063" lon="5.28279">
        <ele>249.6</ele>
        <time>2024-09-19T09:39:10Z</time>
      </trkpt>
      <trkpt lat="45.91061" lon="5.28286">
        <ele>249</ele>
        <time>2024-09-19T09:39:11Z</time>
      </trkpt>
      <trkpt lat="45.9106" lon="5.28294">
        <ele>248.4</ele>
        <time>2024-09-19T09:39:12Z</time>
      </trkpt>
      <trkpt lat="45.91058" lon="5.28301">
        <ele>249</ele>
        <time>2024-09-19T09:39:13Z</time>
      </trkpt>
      <trkpt lat="45.91056" lon="5.28308">
        <ele>248.6</ele>
        <time>2024-09-19T09:39:14Z</time>
      </trkpt>
      <trkpt lat="45.91055" lon="5.28315">
        <ele>248.6</ele>
        <time>2024-09-19T09:39:15Z</time>
      </trkpt>
      <trkpt lat="45.91053" lon="5.28323">
        <ele>249</ele>
        <time>2024-09-19T09:39:16Z</time>
      </trkpt>
      <trkpt lat="45.91052" lon="5.2833">
        <ele>249</ele>
        <time>2024-09-19T09:39:17Z</time>
      </trkpt>
      <trkpt lat="45.91051" lon="5.28337">
        <ele>249</ele>
        <time>2024-09-19T09:39:18Z</time>
      </trkpt>
      <trkpt lat="45.9105" lon="5.28344">
        <ele>249.4</ele>
        <time>2024-09-19T09:39:19Z</time>
      </trkpt>
      <trkpt lat="45.91049" lon="5.28351">
        <ele>248.8</ele>
        <time>2024-09-19T09:39:20Z</time>
      </trkpt>
      <trkpt lat="45.91048" lon="5.28358">
        <ele>248.8</ele>
        <time>2024-09-19T09:39:21Z</time>
      </trkpt>
      <trkpt lat="45.91046" lon="5.28365">
        <ele>249.6</ele>
        <time>2024-09-19T09:39:22Z</time>
      </trkpt>
      <trkpt lat="45.91045" lon="5.28373">
        <ele>249.6</ele>
        <time>2024-09-19T09:39:23Z</time>
      </trkpt>
      <trkpt lat="45.91043" lon="5.2838">
        <ele>249.6</ele>
        <time>2024-09-19T09:39:24Z</time>
      </trkpt>
      <trkpt lat="45.91042" lon="5.28388">
        <ele>249.6</ele>
        <time>2024-09-19T09:39:25Z</time>
      </trkpt>
      <trkpt lat="45.9104" lon="5.28395">
        <ele>251</ele>
        <time>2024-09-19T09:39:26Z</time>
      </trkpt>
      <trkpt lat="45.91039" lon="5.28403">
        <ele>250.4</ele>
        <time>2024-09-19T09:39:27Z</time>
      </trkpt>
      <trkpt lat="45.91038" lon="5.2841">
        <ele>250</ele>
        <time>2024-09-19T09:39:28Z</time>
      </trkpt>
      <trkpt lat="45.91036" lon="5.28418">
        <ele>249.4</ele>
        <time>2024-09-19T09:39:29Z</time>
      </trkpt>
      <trkpt lat="45.91034" lon="5.28425">
        <ele>248.8</ele>
        <time>2024-09-19T09:39:30Z</time>
      </trkpt>
      <trkpt lat="45.91032" lon="5.28431">
        <ele>248.8</ele>
        <time>2024-09-19T09:39:31Z</time>
      </trkpt>
      <trkpt lat="45.91029" lon="5.28437">
        <ele>248.8</ele>
        <time>2024-09-19T09:39:32Z</time>
      </trkpt>
      <trkpt lat="45.91025" lon="5.28441">
        <ele>248.8</ele>
        <time>2024-09-19T09:39:33Z</time>
      </trkpt>
      <trkpt lat="45.9102" lon="5.28444">
        <ele>248.8</ele>
        <time>2024-09-19T09:39:34Z</time>
      </trkpt>
      <trkpt lat="45.91015" lon="5.28446">
        <ele>249</ele>
        <time>2024-09-19T09:39:35Z</time>
      </trkpt>
      <trkpt lat="45.9101" lon="5.28447">
        <ele>249</ele>
        <time>2024-09-19T09:39:36Z</time>
      </trkpt>
      <trkpt lat="45.91005" lon="5.28448">
        <ele>249.4</ele>
        <time>2024-09-19T09:39:37Z</time>
      </trkpt>
      <trkpt lat="45.91" lon="5.2845">
        <ele>249.4</ele>
        <time>2024-09-19T09:39:38Z</time>
      </trkpt>
      <trkpt lat="45.90996" lon="5.28451">
        <ele>249.4</ele>
        <time>2024-09-19T09:39:39Z</time>
      </trkpt>
      <trkpt lat="45.90991" lon="5.28452">
        <ele>249.4</ele>
        <time>2024-09-19T09:39:40Z</time>
      </trkpt>
      <trkpt lat="45.90986" lon="5.28451">
        <ele>249.4</ele>
        <time>2024-09-19T09:39:41Z</time>
      </trkpt>
      <trkpt lat="45.90981" lon="5.28451">
        <ele>249.4</ele>
        <time>2024-09-19T09:39:42Z</time>
      </trkpt>
      <trkpt lat="45.90977" lon="5.28449">
        <ele>249.6</ele>
        <time>2024-09-19T09:39:43Z</time>
      </trkpt>
      <trkpt lat="45.90972" lon="5.28445">
        <ele>249.6</ele>
        <time>2024-09-19T09:39:44Z</time>
      </trkpt>
      <trkpt lat="45.90968" lon="5.28441">
        <ele>249.2</ele>
        <time>2024-09-19T09:39:45Z</time>
      </trkpt>
      <trkpt lat="45.90964" lon="5.28437">
        <ele>248.8</ele>
        <time>2024-09-19T09:39:46Z</time>
      </trkpt>
      <trkpt lat="45.90959" lon="5.28434">
        <ele>248.8</ele>
        <time>2024-09-19T09:39:47Z</time>
      </trkpt>
      <trkpt lat="45.90955" lon="5.28434">
        <ele>248.8</ele>
        <time>2024-09-19T09:39:48Z</time>
      </trkpt>
      <trkpt lat="45.90951" lon="5.28435">
        <ele>249</ele>
        <time>2024-09-19T09:39:49Z</time>
      </trkpt>
      <trkpt lat="45.90947" lon="5.28435">
        <ele>249</ele>
        <time>2024-09-19T09:39:50Z</time>
      </trkpt>
      <trkpt lat="45.90944" lon="5.28436">
        <ele>249.4</ele>
        <time>2024-09-19T09:39:51Z</time>
      </trkpt>
      <trkpt lat="45.90941" lon="5.28436">
        <ele>250.2</ele>
        <time>2024-09-19T09:39:52Z</time>
      </trkpt>
      <trkpt lat="45.90941" lon="5.28439">
        <ele>251</ele>
        <time>2024-09-19T09:39:53Z</time>
      </trkpt>
      <trkpt lat="45.9094" lon="5.2844">
        <ele>251.4</ele>
        <time>2024-09-19T09:39:54Z</time>
      </trkpt>
      <trkpt lat="45.90939" lon="5.28442">
        <ele>251.8</ele>
        <time>2024-09-19T09:39:55Z</time>
      </trkpt>
      <trkpt lat="45.9094" lon="5.28445">
        <ele>252</ele>
        <time>2024-09-19T09:39:56Z</time>
      </trkpt>
      <trkpt lat="45.90942" lon="5.28448">
        <ele>252</ele>
        <time>2024-09-19T09:39:57Z</time>
      </trkpt>
      <trkpt lat="45.90944" lon="5.28451">
        <ele>252.2</ele>
        <time>2024-09-19T09:39:58Z</time>
      </trkpt>
      <trkpt lat="45.90947" lon="5.28454">
        <ele>252.2</ele>
        <time>2024-09-19T09:39:59Z</time>
      </trkpt>
      <trkpt lat="45.9095" lon="5.28457">
        <ele>252.2</ele>
        <time>2024-09-19T09:40:00Z</time>
      </trkpt>
      <trkpt lat="45.90953" lon="5.2846">
        <ele>252.2</ele>
        <time>2024-09-19T09:40:01Z</time>
      </trkpt>
      <trkpt lat="45.90956" lon="5.28464">
        <ele>252.2</ele>
        <time>2024-09-19T09:40:02Z</time>
      </trkpt>
      <trkpt lat="45.90959" lon="5.28468">
        <ele>252.2</ele>
        <time>2024-09-19T09:40:03Z</time>
      </trkpt>
      <trkpt lat="45.90961" lon="5.28472">
        <ele>252.6</ele>
        <time>2024-09-19T09:40:04Z</time>
      </trkpt>
      <trkpt lat="45.90964" lon="5.28476">
        <ele>252.6</ele>
        <time>2024-09-19T09:40:05Z</time>
      </trkpt>
      <trkpt lat="45.90967" lon="5.2848">
        <ele>252.6</ele>
        <time>2024-09-19T09:40:06Z</time>
      </trkpt>
      <trkpt lat="45.9097" lon="5.28484">
        <ele>252.6</ele>
        <time>2024-09-19T09:40:07Z</time>
      </trkpt>
      <trkpt lat="45.90972" lon="5.28488">
        <ele>252.6</ele>
        <time>2024-09-19T09:40:08Z</time>
      </trkpt>
      <trkpt lat="45.90975" lon="5.28491">
        <ele>252.6</ele>
        <time>2024-09-19T09:40:09Z</time>
      </trkpt>
      <trkpt lat="45.90976" lon="5.28493">
        <ele>252.2</ele>
        <time>2024-09-19T09:40:10Z</time>
      </trkpt>
      <trkpt lat="45.90978" lon="5.28495">
        <ele>252.2</ele>
        <time>2024-09-19T09:40:11Z</time>
      </trkpt>
      <trkpt lat="45.90979" lon="5.28497">
        <ele>252.2</ele>
        <time>2024-09-19T09:40:12Z</time>
      </trkpt>
      <trkpt lat="45.90979" lon="5.28498">
        <ele>252.2</ele>
        <time>2024-09-19T09:40:13Z</time>
      </trkpt>
      <trkpt lat="45.90979" lon="5.28498">
        <ele>252.4</ele>
        <time>2024-09-19T09:40:14Z</time>
      </trkpt>
      <trkpt lat="45.90979" lon="5.28498">
        <ele>252.4</ele>
        <time>2024-09-19T09:40:15Z</time>
      </trkpt>
      <trkpt lat="45.90981" lon="5.28498">
        <ele>253.2</ele>
        <time>2024-09-19T09:41:54Z</time>
      </trkpt>
      <trkpt lat="45.90981" lon="5.28498">
        <ele>253.2</ele>
        <time>2024-09-19T09:41:55Z</time>
      </trkpt>
      <trkpt lat="45.90982" lon="5.28499">
        <ele>252.8</ele>
        <time>2024-09-19T09:41:56Z</time>
      </trkpt>
      <trkpt lat="45.90983" lon="5.285">
        <ele>252.8</ele>
        <time>2024-09-19T09:41:57Z</time>
      </trkpt>
      <trkpt lat="45.90984" lon="5.28502">
        <ele>252.8</ele>
        <time>2024-09-19T09:41:58Z</time>
      </trkpt>
      <trkpt lat="45.90985" lon="5.28503">
        <ele>252.6</ele>
        <time>2024-09-19T09:41:59Z</time>
      </trkpt>
      <trkpt lat="45.90986" lon="5.28504">
        <ele>252.6</ele>
        <time>2024-09-19T09:42:00Z</time>
      </trkpt>
      <trkpt lat="45.90987" lon="5.28504">
        <ele>252.6</ele>
        <time>2024-09-19T09:42:01Z</time>
      </trkpt>
      <trkpt lat="45.90988" lon="5.28505">
        <ele>252.6</ele>
        <time>2024-09-19T09:42:02Z</time>
      </trkpt>
      <trkpt lat="45.90988" lon="5.28506">
        <ele>252.6</ele>
        <time>2024-09-19T09:42:03Z</time>
      </trkpt>
      <trkpt lat="45.90989" lon="5.28508">
        <ele>252.6</ele>
        <time>2024-09-19T09:42:04Z</time>
      </trkpt>
      <trkpt lat="45.9099" lon="5.28509">
        <ele>252.6</ele>
        <time>2024-09-19T09:42:05Z</time>
      </trkpt>
      <trkpt lat="45.90991" lon="5.2851">
        <ele>252.6</ele>
        <time>2024-09-19T09:42:06Z</time>
      </trkpt>
      <trkpt lat="45.90992" lon="5.28511">
        <ele>252.6</ele>
        <time>2024-09-19T09:42:07Z</time>
      </trkpt>
      <trkpt lat="45.90992" lon="5.28511">
        <ele>252.6</ele>
        <time>2024-09-19T09:42:08Z</time>
      </trkpt>
      <trkpt lat="45.90994" lon="5.28512">
        <ele>252.6</ele>
        <time>2024-09-19T09:42:09Z</time>
      </trkpt>
      <trkpt lat="45.90995" lon="5.28514">
        <ele>252.6</ele>
        <time>2024-09-19T09:42:10Z</time>
      </trkpt>
      <trkpt lat="45.90998" lon="5.28516">
        <ele>252.8</ele>
        <time>2024-09-19T09:42:11Z</time>
      </trkpt>
      <trkpt lat="45.91" lon="5.28519">
        <ele>252.8</ele>
        <time>2024-09-19T09:42:12Z</time>
      </trkpt>
      <trkpt lat="45.91002" lon="5.28522">
        <ele>252.8</ele>
        <time>2024-09-19T09:42:13Z</time>
      </trkpt>
      <trkpt lat="45.91005" lon="5.28523">
        <ele>252.4</ele>
        <time>2024-09-19T09:42:14Z</time>
      </trkpt>
      <trkpt lat="45.91009" lon="5.28525">
        <ele>252.4</ele>
        <time>2024-09-19T09:42:15Z</time>
      </trkpt>
      <trkpt lat="45.91013" lon="5.28527">
        <ele>252.4</ele>
        <time>2024-09-19T09:42:16Z</time>
      </trkpt>
      <trkpt lat="45.91017" lon="5.28529">
        <ele>252.2</ele>
        <time>2024-09-19T09:42:17Z</time>
      </trkpt>
      <trkpt lat="45.91021" lon="5.28532">
        <ele>252.2</ele>
        <time>2024-09-19T09:42:18Z</time>
      </trkpt>
      <trkpt lat="45.91024" lon="5.28536">
        <ele>252.2</ele>
        <time>2024-09-19T09:42:19Z</time>
      </trkpt>
      <trkpt lat="45.91028" lon="5.28539">
        <ele>251.8</ele>
        <time>2024-09-19T09:42:20Z</time>
      </trkpt>
      <trkpt lat="45.91028" lon="5.28545">
        <ele>252.2</ele>
        <time>2024-09-19T09:42:21Z</time>
      </trkpt>
      <trkpt lat="45.91031" lon="5.28549">
        <ele>252.4</ele>
        <time>2024-09-19T09:42:22Z</time>
      </trkpt>
      <trkpt lat="45.91031" lon="5.28555">
        <ele>252.2</ele>
        <time>2024-09-19T09:42:23Z</time>
      </trkpt>
      <trkpt lat="45.91031" lon="5.28562">
        <ele>251.4</ele>
        <time>2024-09-19T09:42:24Z</time>
      </trkpt>
      <trkpt lat="45.9103" lon="5.2857">
        <ele>251.2</ele>
        <time>2024-09-19T09:42:25Z</time>
      </trkpt>
      <trkpt lat="45.9103" lon="5.28578">
        <ele>250.6</ele>
        <time>2024-09-19T09:42:26Z</time>
      </trkpt>
      <trkpt lat="45.91029" lon="5.28584">
        <ele>250.6</ele>
        <time>2024-09-19T09:42:27Z</time>
      </trkpt>
      <trkpt lat="45.91028" lon="5.28591">
        <ele>250.6</ele>
        <time>2024-09-19T09:42:28Z</time>
      </trkpt>
      <trkpt lat="45.91027" lon="5.28597">
        <ele>250.6</ele>
        <time>2024-09-19T09:42:29Z</time>
      </trkpt>
      <trkpt lat="45.91026" lon="5.28606">
        <ele>250.6</ele>
        <time>2024-09-19T09:42:30Z</time>
      </trkpt>
      <trkpt lat="45.91025" lon="5.28613">
        <ele>250.6</ele>
        <time>2024-09-19T09:42:31Z</time>
      </trkpt>
      <trkpt lat="45.91025" lon="5.2862">
        <ele>250.6</ele>
        <time>2024-09-19T09:42:32Z</time>
      </trkpt>
      <trkpt lat="45.91025" lon="5.28629">
        <ele>251.2</ele>
        <time>2024-09-19T09:42:33Z</time>
      </trkpt>
      <trkpt lat="45.91024" lon="5.28636">
        <ele>251.2</ele>
        <time>2024-09-19T09:42:34Z</time>
      </trkpt>
      <trkpt lat="45.91024" lon="5.28644">
        <ele>250.4</ele>
        <time>2024-09-19T09:42:35Z</time>
      </trkpt>
      <trkpt lat="45.91023" lon="5.28651">
        <ele>249.2</ele>
        <time>2024-09-19T09:42:36Z</time>
      </trkpt>
      <trkpt lat="45.91023" lon="5.28659">
        <ele>249.2</ele>
        <time>2024-09-19T09:42:37Z</time>
      </trkpt>
      <trkpt lat="45.91022" lon="5.28666">
        <ele>249.6</ele>
        <time>2024-09-19T09:42:38Z</time>
      </trkpt>
      <trkpt lat="45.91022" lon="5.28674">
        <ele>250</ele>
        <time>2024-09-19T09:42:39Z</time>
      </trkpt>
      <trkpt lat="45.91021" lon="5.28682">
        <ele>250.2</ele>
        <time>2024-09-19T09:42:40Z</time>
      </trkpt>
      <trkpt lat="45.91021" lon="5.2869">
        <ele>250.4</ele>
        <time>2024-09-19T09:42:41Z</time>
      </trkpt>
      <trkpt lat="45.91019" lon="5.28697">
        <ele>250.8</ele>
        <time>2024-09-19T09:42:42Z</time>
      </trkpt>
      <trkpt lat="45.91018" lon="5.28705">
        <ele>250.8</ele>
        <time>2024-09-19T09:42:43Z</time>
      </trkpt>
      <trkpt lat="45.91018" lon="5.28705">
        <ele>251.6</ele>
        <time>2024-09-19T09:42:44Z</time>
      </trkpt>
      <trkpt lat="45.91018" lon="5.28712">
        <ele>251.8</ele>
        <time>2024-09-19T09:42:45Z</time>
      </trkpt>
      <trkpt lat="45.91017" lon="5.28719">
        <ele>251.8</ele>
        <time>2024-09-19T09:42:46Z</time>
      </trkpt>
      <trkpt lat="45.91016" lon="5.28726">
        <ele>251.4</ele>
        <time>2024-09-19T09:42:47Z</time>
      </trkpt>
      <trkpt lat="45.91015" lon="5.28734">
        <ele>251.2</ele>
        <time>2024-09-19T09:42:48Z</time>
      </trkpt>
      <trkpt lat="45.91015" lon="5.28742">
        <ele>251.2</ele>
        <time>2024-09-19T09:42:49Z</time>
      </trkpt>
      <trkpt lat="45.91015" lon="5.2875">
        <ele>251.2</ele>
        <time>2024-09-19T09:42:50Z</time>
      </trkpt>
      <trkpt lat="45.91014" lon="5.28758">
        <ele>250.8</ele>
        <time>2024-09-19T09:42:51Z</time>
      </trkpt>
      <trkpt lat="45.91012" lon="5.28774">
        <ele>251.4</ele>
        <time>2024-09-19T09:42:52Z</time>
      </trkpt>
      <trkpt lat="45.91012" lon="5.28782">
        <ele>250.8</ele>
        <time>2024-09-19T09:42:53Z</time>
      </trkpt>
      <trkpt lat="45.91012" lon="5.2879">
        <ele>250.8</ele>
        <time>2024-09-19T09:42:54Z</time>
      </trkpt>
      <trkpt lat="45.91012" lon="5.28798">
        <ele>251.2</ele>
        <time>2024-09-19T09:42:55Z</time>
      </trkpt>
      <trkpt lat="45.91011" lon="5.28806">
        <ele>251</ele>
        <time>2024-09-19T09:42:56Z</time>
      </trkpt>
      <trkpt lat="45.9101" lon="5.28814">
        <ele>251.2</ele>
        <time>2024-09-19T09:42:57Z</time>
      </trkpt>
      <trkpt lat="45.91009" lon="5.28821">
        <ele>251.6</ele>
        <time>2024-09-19T09:42:58Z</time>
      </trkpt>
      <trkpt lat="45.91007" lon="5.28829">
        <ele>251.6</ele>
        <time>2024-09-19T09:42:59Z</time>
      </trkpt>
      <trkpt lat="45.91007" lon="5.28837">
        <ele>251.6</ele>
        <time>2024-09-19T09:43:00Z</time>
      </trkpt>
      <trkpt lat="45.91005" lon="5.28845">
        <ele>251.6</ele>
        <time>2024-09-19T09:43:01Z</time>
      </trkpt>
      <trkpt lat="45.91005" lon="5.28853">
        <ele>251.6</ele>
        <time>2024-09-19T09:43:02Z</time>
      </trkpt>
      <trkpt lat="45.91004" lon="5.2886">
        <ele>250.8</ele>
        <time>2024-09-19T09:43:03Z</time>
      </trkpt>
      <trkpt lat="45.91003" lon="5.28868">
        <ele>251</ele>
        <time>2024-09-19T09:43:04Z</time>
      </trkpt>
      <trkpt lat="45.91003" lon="5.28875">
        <ele>251.6</ele>
        <time>2024-09-19T09:43:05Z</time>
      </trkpt>
      <trkpt lat="45.91001" lon="5.28883">
        <ele>251.6</ele>
        <time>2024-09-19T09:43:06Z</time>
      </trkpt>
      <trkpt lat="45.91" lon="5.2889">
        <ele>252</ele>
        <time>2024-09-19T09:43:07Z</time>
      </trkpt>
      <trkpt lat="45.90999" lon="5.28897">
        <ele>251.8</ele>
        <time>2024-09-19T09:43:08Z</time>
      </trkpt>
      <trkpt lat="45.90999" lon="5.28905">
        <ele>251.8</ele>
        <time>2024-09-19T09:43:09Z</time>
      </trkpt>
      <trkpt lat="45.90998" lon="5.28913">
        <ele>251.8</ele>
        <time>2024-09-19T09:43:10Z</time>
      </trkpt>
      <trkpt lat="45.90997" lon="5.28921">
        <ele>252</ele>
        <time>2024-09-19T09:43:11Z</time>
      </trkpt>
      <trkpt lat="45.90997" lon="5.28928">
        <ele>252</ele>
        <time>2024-09-19T09:43:12Z</time>
      </trkpt>
      <trkpt lat="45.90997" lon="5.28936">
        <ele>252</ele>
        <time>2024-09-19T09:43:13Z</time>
      </trkpt>
      <trkpt lat="45.90996" lon="5.28943">
        <ele>251.8</ele>
        <time>2024-09-19T09:43:14Z</time>
      </trkpt>
      <trkpt lat="45.90995" lon="5.28951">
        <ele>251.8</ele>
        <time>2024-09-19T09:43:15Z</time>
      </trkpt>
      <trkpt lat="45.90994" lon="5.28958">
        <ele>251.8</ele>
        <time>2024-09-19T09:43:16Z</time>
      </trkpt>
      <trkpt lat="45.90995" lon="5.28966">
        <ele>250.4</ele>
        <time>2024-09-19T09:43:17Z</time>
      </trkpt>
      <trkpt lat="45.90994" lon="5.28973">
        <ele>250.4</ele>
        <time>2024-09-19T09:43:18Z</time>
      </trkpt>
      <trkpt lat="45.90994" lon="5.28981">
        <ele>250.8</ele>
        <time>2024-09-19T09:43:19Z</time>
      </trkpt>
      <trkpt lat="45.90993" lon="5.28988">
        <ele>251.2</ele>
        <time>2024-09-19T09:43:20Z</time>
      </trkpt>
      <trkpt lat="45.90992" lon="5.28995">
        <ele>251.4</ele>
        <time>2024-09-19T09:43:21Z</time>
      </trkpt>
      <trkpt lat="45.90991" lon="5.29003">
        <ele>251.6</ele>
        <time>2024-09-19T09:43:22Z</time>
      </trkpt>
      <trkpt lat="45.9099" lon="5.2901">
        <ele>252</ele>
        <time>2024-09-19T09:43:23Z</time>
      </trkpt>
      <trkpt lat="45.90989" lon="5.29018">
        <ele>252.4</ele>
        <time>2024-09-19T09:43:24Z</time>
      </trkpt>
      <trkpt lat="45.90988" lon="5.29025">
        <ele>252.6</ele>
        <time>2024-09-19T09:43:25Z</time>
      </trkpt>
      <trkpt lat="45.90987" lon="5.29033">
        <ele>252.2</ele>
        <time>2024-09-19T09:43:26Z</time>
      </trkpt>
      <trkpt lat="45.90985" lon="5.2904">
        <ele>252.2</ele>
        <time>2024-09-19T09:43:27Z</time>
      </trkpt>
      <trkpt lat="45.90985" lon="5.29046">
        <ele>252.4</ele>
        <time>2024-09-19T09:43:28Z</time>
      </trkpt>
      <trkpt lat="45.90985" lon="5.29054">
        <ele>252.4</ele>
        <time>2024-09-19T09:43:29Z</time>
      </trkpt>
      <trkpt lat="45.90984" lon="5.29062">
        <ele>252.4</ele>
        <time>2024-09-19T09:43:30Z</time>
      </trkpt>
      <trkpt lat="45.90983" lon="5.29068">
        <ele>252.6</ele>
        <time>2024-09-19T09:43:31Z</time>
      </trkpt>
      <trkpt lat="45.90982" lon="5.29076">
        <ele>252.6</ele>
        <time>2024-09-19T09:43:32Z</time>
      </trkpt>
      <trkpt lat="45.90981" lon="5.29084">
        <ele>252.6</ele>
        <time>2024-09-19T09:43:33Z</time>
      </trkpt>
      <trkpt lat="45.9098" lon="5.29091">
        <ele>252.6</ele>
        <time>2024-09-19T09:43:34Z</time>
      </trkpt>
      <trkpt lat="45.90979" lon="5.29099">
        <ele>252.6</ele>
        <time>2024-09-19T09:43:35Z</time>
      </trkpt>
      <trkpt lat="45.90979" lon="5.29106">
        <ele>251.6</ele>
        <time>2024-09-19T09:43:36Z</time>
      </trkpt>
      <trkpt lat="45.90979" lon="5.29113">
        <ele>252.4</ele>
        <time>2024-09-19T09:43:37Z</time>
      </trkpt>
      <trkpt lat="45.90978" lon="5.2912">
        <ele>252.4</ele>
        <time>2024-09-19T09:43:38Z</time>
      </trkpt>
      <trkpt lat="45.90975" lon="5.29127">
        <ele>252.8</ele>
        <time>2024-09-19T09:43:39Z</time>
      </trkpt>
      <trkpt lat="45.90975" lon="5.29133">
        <ele>252.8</ele>
        <time>2024-09-19T09:43:40Z</time>
      </trkpt>
      <trkpt lat="45.90973" lon="5.2914">
        <ele>252.2</ele>
        <time>2024-09-19T09:43:41Z</time>
      </trkpt>
      <trkpt lat="45.90972" lon="5.29147">
        <ele>252.6</ele>
        <time>2024-09-19T09:43:42Z</time>
      </trkpt>
      <trkpt lat="45.90971" lon="5.29154">
        <ele>252.4</ele>
        <time>2024-09-19T09:43:43Z</time>
      </trkpt>
      <trkpt lat="45.9097" lon="5.2916">
        <ele>252.4</ele>
        <time>2024-09-19T09:43:44Z</time>
      </trkpt>
      <trkpt lat="45.90969" lon="5.29167">
        <ele>252.4</ele>
        <time>2024-09-19T09:43:45Z</time>
      </trkpt>
      <trkpt lat="45.90969" lon="5.29174">
        <ele>252.4</ele>
        <time>2024-09-19T09:43:46Z</time>
      </trkpt>
      <trkpt lat="45.90968" lon="5.29181">
        <ele>252.4</ele>
        <time>2024-09-19T09:43:47Z</time>
      </trkpt>
      <trkpt lat="45.90968" lon="5.29188">
        <ele>252.8</ele>
        <time>2024-09-19T09:43:48Z</time>
      </trkpt>
      <trkpt lat="45.90967" lon="5.29194">
        <ele>252</ele>
        <time>2024-09-19T09:43:49Z</time>
      </trkpt>
      <trkpt lat="45.90967" lon="5.29201">
        <ele>252</ele>
        <time>2024-09-19T09:43:50Z</time>
      </trkpt>
      <trkpt lat="45.90967" lon="5.29208">
        <ele>252</ele>
        <time>2024-09-19T09:43:51Z</time>
      </trkpt>
      <trkpt lat="45.90966" lon="5.29215">
        <ele>252</ele>
        <time>2024-09-19T09:43:52Z</time>
      </trkpt>
      <trkpt lat="45.90965" lon="5.29222">
        <ele>252.4</ele>
        <time>2024-09-19T09:43:53Z</time>
      </trkpt>
      <trkpt lat="45.90965" lon="5.29229">
        <ele>252.4</ele>
        <time>2024-09-19T09:43:54Z</time>
      </trkpt>
      <trkpt lat="45.90964" lon="5.29236">
        <ele>252.2</ele>
        <time>2024-09-19T09:43:55Z</time>
      </trkpt>
      <trkpt lat="45.90964" lon="5.29243">
        <ele>252.4</ele>
        <time>2024-09-19T09:43:56Z</time>
      </trkpt>
      <trkpt lat="45.90963" lon="5.2925">
        <ele>252.2</ele>
        <time>2024-09-19T09:43:57Z</time>
      </trkpt>
      <trkpt lat="45.90963" lon="5.29257">
        <ele>252.2</ele>
        <time>2024-09-19T09:43:58Z</time>
      </trkpt>
      <trkpt lat="45.90962" lon="5.29264">
        <ele>252.6</ele>
        <time>2024-09-19T09:43:59Z</time>
      </trkpt>
      <trkpt lat="45.90962" lon="5.2927">
        <ele>252.6</ele>
        <time>2024-09-19T09:44:00Z</time>
      </trkpt>
      <trkpt lat="45.90962" lon="5.29277">
        <ele>252.8</ele>
        <time>2024-09-19T09:44:01Z</time>
      </trkpt>
      <trkpt lat="45.90961" lon="5.29283">
        <ele>252.8</ele>
        <time>2024-09-19T09:44:02Z</time>
      </trkpt>
      <trkpt lat="45.90961" lon="5.2929">
        <ele>252.8</ele>
        <time>2024-09-19T09:44:03Z</time>
      </trkpt>
      <trkpt lat="45.90962" lon="5.29297">
        <ele>252.6</ele>
        <time>2024-09-19T09:44:04Z</time>
      </trkpt>
      <trkpt lat="45.90962" lon="5.29304">
        <ele>253</ele>
        <time>2024-09-19T09:44:05Z</time>
      </trkpt>
      <trkpt lat="45.90962" lon="5.29311">
        <ele>253</ele>
        <time>2024-09-19T09:44:06Z</time>
      </trkpt>
      <trkpt lat="45.90962" lon="5.29317">
        <ele>253</ele>
        <time>2024-09-19T09:44:07Z</time>
      </trkpt>
      <trkpt lat="45.90962" lon="5.29324">
        <ele>253.4</ele>
        <time>2024-09-19T09:44:08Z</time>
      </trkpt>
      <trkpt lat="45.90962" lon="5.29332">
        <ele>252.4</ele>
        <time>2024-09-19T09:44:09Z</time>
      </trkpt>
      <trkpt lat="45.90961" lon="5.29339">
        <ele>252.8</ele>
        <time>2024-09-19T09:44:10Z</time>
      </trkpt>
      <trkpt lat="45.9096" lon="5.29346">
        <ele>252.8</ele>
        <time>2024-09-19T09:44:11Z</time>
      </trkpt>
      <trkpt lat="45.90959" lon="5.29354">
        <ele>252.8</ele>
        <time>2024-09-19T09:44:12Z</time>
      </trkpt>
      <trkpt lat="45.90958" lon="5.29362">
        <ele>252.8</ele>
        <time>2024-09-19T09:44:13Z</time>
      </trkpt>
      <trkpt lat="45.90957" lon="5.29369">
        <ele>252</ele>
        <time>2024-09-19T09:44:14Z</time>
      </trkpt>
      <trkpt lat="45.90955" lon="5.29376">
        <ele>252.6</ele>
        <time>2024-09-19T09:44:15Z</time>
      </trkpt>
      <trkpt lat="45.90954" lon="5.29381">
        <ele>252.6</ele>
        <time>2024-09-19T09:44:16Z</time>
      </trkpt>
      <trkpt lat="45.90952" lon="5.29387">
        <ele>253.2</ele>
        <time>2024-09-19T09:44:17Z</time>
      </trkpt>
      <trkpt lat="45.90952" lon="5.29394">
        <ele>253.6</ele>
        <time>2024-09-19T09:44:18Z</time>
      </trkpt>
      <trkpt lat="45.9095" lon="5.294">
        <ele>253.6</ele>
        <time>2024-09-19T09:44:19Z</time>
      </trkpt>
      <trkpt lat="45.90949" lon="5.29407">
        <ele>253.2</ele>
        <time>2024-09-19T09:44:20Z</time>
      </trkpt>
      <trkpt lat="45.90949" lon="5.29414">
        <ele>253.2</ele>
        <time>2024-09-19T09:44:21Z</time>
      </trkpt>
      <trkpt lat="45.90949" lon="5.29421">
        <ele>253.2</ele>
        <time>2024-09-19T09:44:22Z</time>
      </trkpt>
      <trkpt lat="45.90948" lon="5.29428">
        <ele>253.2</ele>
        <time>2024-09-19T09:44:23Z</time>
      </trkpt>
      <trkpt lat="45.90948" lon="5.29436">
        <ele>253.2</ele>
        <time>2024-09-19T09:44:24Z</time>
      </trkpt>
      <trkpt lat="45.90949" lon="5.29442">
        <ele>253.8</ele>
        <time>2024-09-19T09:44:25Z</time>
      </trkpt>
      <trkpt lat="45.90949" lon="5.29448">
        <ele>253.4</ele>
        <time>2024-09-19T09:44:26Z</time>
      </trkpt>
      <trkpt lat="45.90949" lon="5.29454">
        <ele>253.4</ele>
        <time>2024-09-19T09:44:27Z</time>
      </trkpt>
      <trkpt lat="45.9095" lon="5.29459">
        <ele>253.4</ele>
        <time>2024-09-19T09:44:28Z</time>
      </trkpt>
      <trkpt lat="45.90951" lon="5.29464">
        <ele>253.8</ele>
        <time>2024-09-19T09:44:29Z</time>
      </trkpt>
      <trkpt lat="45.90951" lon="5.2947">
        <ele>253.8</ele>
        <time>2024-09-19T09:44:30Z</time>
      </trkpt>
      <trkpt lat="45.90952" lon="5.29476">
        <ele>253.8</ele>
        <time>2024-09-19T09:44:31Z</time>
      </trkpt>
      <trkpt lat="45.90953" lon="5.29481">
        <ele>253.8</ele>
        <time>2024-09-19T09:44:32Z</time>
      </trkpt>
      <trkpt lat="45.90954" lon="5.29486">
        <ele>254</ele>
        <time>2024-09-19T09:44:33Z</time>
      </trkpt>
      <trkpt lat="45.90955" lon="5.29491">
        <ele>254.4</ele>
        <time>2024-09-19T09:44:34Z</time>
      </trkpt>
      <trkpt lat="45.90956" lon="5.29497">
        <ele>255.6</ele>
        <time>2024-09-19T09:44:35Z</time>
      </trkpt>
      <trkpt lat="45.90958" lon="5.29502">
        <ele>254.8</ele>
        <time>2024-09-19T09:44:36Z</time>
      </trkpt>
      <trkpt lat="45.9096" lon="5.29508">
        <ele>255.2</ele>
        <time>2024-09-19T09:44:37Z</time>
      </trkpt>
      <trkpt lat="45.90961" lon="5.29514">
        <ele>255</ele>
        <time>2024-09-19T09:44:38Z</time>
      </trkpt>
      <trkpt lat="45.90962" lon="5.29521">
        <ele>255</ele>
        <time>2024-09-19T09:44:39Z</time>
      </trkpt>
      <trkpt lat="45.90964" lon="5.29527">
        <ele>255</ele>
        <time>2024-09-19T09:44:40Z</time>
      </trkpt>
      <trkpt lat="45.90965" lon="5.29533">
        <ele>254.6</ele>
        <time>2024-09-19T09:44:41Z</time>
      </trkpt>
      <trkpt lat="45.90967" lon="5.2954">
        <ele>255.2</ele>
        <time>2024-09-19T09:44:42Z</time>
      </trkpt>
      <trkpt lat="45.90968" lon="5.29548">
        <ele>255.2</ele>
        <time>2024-09-19T09:44:43Z</time>
      </trkpt>
      <trkpt lat="45.9097" lon="5.29554">
        <ele>252.2</ele>
        <time>2024-09-19T09:44:44Z</time>
      </trkpt>
      <trkpt lat="45.90971" lon="5.29562">
        <ele>252.2</ele>
        <time>2024-09-19T09:44:45Z</time>
      </trkpt>
      <trkpt lat="45.90972" lon="5.29569">
        <ele>252.6</ele>
        <time>2024-09-19T09:44:46Z</time>
      </trkpt>
      <trkpt lat="45.90973" lon="5.29575">
        <ele>253</ele>
        <time>2024-09-19T09:44:47Z</time>
      </trkpt>
      <trkpt lat="45.90974" lon="5.29582">
        <ele>253</ele>
        <time>2024-09-19T09:44:48Z</time>
      </trkpt>
      <trkpt lat="45.90974" lon="5.29588">
        <ele>251.4</ele>
        <time>2024-09-19T09:44:49Z</time>
      </trkpt>
      <trkpt lat="45.90975" lon="5.29595">
        <ele>250.6</ele>
        <time>2024-09-19T09:44:50Z</time>
      </trkpt>
      <trkpt lat="45.90977" lon="5.29601">
        <ele>251</ele>
        <time>2024-09-19T09:44:51Z</time>
      </trkpt>
      <trkpt lat="45.90978" lon="5.29606">
        <ele>251.6</ele>
        <time>2024-09-19T09:44:52Z</time>
      </trkpt>
      <trkpt lat="45.90979" lon="5.29612">
        <ele>251.6</ele>
        <time>2024-09-19T09:44:53Z</time>
      </trkpt>
      <trkpt lat="45.90981" lon="5.29618">
        <ele>252</ele>
        <time>2024-09-19T09:44:54Z</time>
      </trkpt>
      <trkpt lat="45.90981" lon="5.29624">
        <ele>252.8</ele>
        <time>2024-09-19T09:44:55Z</time>
      </trkpt>
      <trkpt lat="45.90982" lon="5.2963">
        <ele>252.6</ele>
        <time>2024-09-19T09:44:56Z</time>
      </trkpt>
      <trkpt lat="45.90983" lon="5.29635">
        <ele>252.6</ele>
        <time>2024-09-19T09:44:57Z</time>
      </trkpt>
      <trkpt lat="45.90984" lon="5.29642">
        <ele>252.6</ele>
        <time>2024-09-19T09:44:58Z</time>
      </trkpt>
      <trkpt lat="45.90986" lon="5.29648">
        <ele>252.6</ele>
        <time>2024-09-19T09:44:59Z</time>
      </trkpt>
      <trkpt lat="45.90987" lon="5.29654">
        <ele>252.6</ele>
        <time>2024-09-19T09:45:00Z</time>
      </trkpt>
      <trkpt lat="45.90988" lon="5.2966">
        <ele>252.8</ele>
        <time>2024-09-19T09:45:01Z</time>
      </trkpt>
      <trkpt lat="45.9099" lon="5.29665">
        <ele>253.2</ele>
        <time>2024-09-19T09:45:02Z</time>
      </trkpt>
      <trkpt lat="45.90991" lon="5.29671">
        <ele>253.2</ele>
        <time>2024-09-19T09:45:03Z</time>
      </trkpt>
      <trkpt lat="45.90993" lon="5.29677">
        <ele>253</ele>
        <time>2024-09-19T09:45:04Z</time>
      </trkpt>
      <trkpt lat="45.90994" lon="5.29683">
        <ele>253.4</ele>
        <time>2024-09-19T09:45:05Z</time>
      </trkpt>
      <trkpt lat="45.90996" lon="5.29688">
        <ele>253</ele>
        <time>2024-09-19T09:45:06Z</time>
      </trkpt>
      <trkpt lat="45.90998" lon="5.29693">
        <ele>253.4</ele>
        <time>2024-09-19T09:45:07Z</time>
      </trkpt>
      <trkpt lat="45.90999" lon="5.29699">
        <ele>253.6</ele>
        <time>2024-09-19T09:45:08Z</time>
      </trkpt>
      <trkpt lat="45.91001" lon="5.29704">
        <ele>254</ele>
        <time>2024-09-19T09:45:09Z</time>
      </trkpt>
      <trkpt lat="45.91003" lon="5.2971">
        <ele>254</ele>
        <time>2024-09-19T09:45:10Z</time>
      </trkpt>
      <trkpt lat="45.91004" lon="5.29716">
        <ele>254.6</ele>
        <time>2024-09-19T09:45:11Z</time>
      </trkpt>
      <trkpt lat="45.91005" lon="5.29723">
        <ele>254.6</ele>
        <time>2024-09-19T09:45:12Z</time>
      </trkpt>
      <trkpt lat="45.91006" lon="5.2973">
        <ele>254.2</ele>
        <time>2024-09-19T09:45:13Z</time>
      </trkpt>
      <trkpt lat="45.91008" lon="5.29736">
        <ele>254.2</ele>
        <time>2024-09-19T09:45:14Z</time>
      </trkpt>
      <trkpt lat="45.91009" lon="5.29743">
        <ele>254.2</ele>
        <time>2024-09-19T09:45:15Z</time>
      </trkpt>
      <trkpt lat="45.9101" lon="5.29749">
        <ele>254.4</ele>
        <time>2024-09-19T09:45:16Z</time>
      </trkpt>
      <trkpt lat="45.91011" lon="5.29756">
        <ele>254.4</ele>
        <time>2024-09-19T09:45:17Z</time>
      </trkpt>
      <trkpt lat="45.91013" lon="5.29763">
        <ele>254.4</ele>
        <time>2024-09-19T09:45:18Z</time>
      </trkpt>
      <trkpt lat="45.91014" lon="5.2977">
        <ele>254.6</ele>
        <time>2024-09-19T09:45:19Z</time>
      </trkpt>
      <trkpt lat="45.91015" lon="5.29776">
        <ele>254.6</ele>
        <time>2024-09-19T09:45:20Z</time>
      </trkpt>
      <trkpt lat="45.91017" lon="5.29782">
        <ele>255</ele>
        <time>2024-09-19T09:45:21Z</time>
      </trkpt>
      <trkpt lat="45.91019" lon="5.29789">
        <ele>255</ele>
        <time>2024-09-19T09:45:22Z</time>
      </trkpt>
      <trkpt lat="45.9102" lon="5.29796">
        <ele>255</ele>
        <time>2024-09-19T09:45:23Z</time>
      </trkpt>
      <trkpt lat="45.91021" lon="5.29803">
        <ele>254.8</ele>
        <time>2024-09-19T09:45:24Z</time>
      </trkpt>
      <trkpt lat="45.91023" lon="5.2981">
        <ele>254.6</ele>
        <time>2024-09-19T09:45:25Z</time>
      </trkpt>
      <trkpt lat="45.91024" lon="5.29817">
        <ele>254.6</ele>
        <time>2024-09-19T09:45:26Z</time>
      </trkpt>
      <trkpt lat="45.91026" lon="5.29824">
        <ele>254.4</ele>
        <time>2024-09-19T09:45:27Z</time>
      </trkpt>
      <trkpt lat="45.91026" lon="5.2983">
        <ele>254.6</ele>
        <time>2024-09-19T09:45:28Z</time>
      </trkpt>
      <trkpt lat="45.91026" lon="5.2983">
        <ele>254.6</ele>
        <time>2024-09-19T09:45:29Z</time>
      </trkpt>
      <trkpt lat="45.91028" lon="5.29837">
        <ele>254.6</ele>
        <time>2024-09-19T09:45:30Z</time>
      </trkpt>
      <trkpt lat="45.91029" lon="5.29843">
        <ele>253.4</ele>
        <time>2024-09-19T09:45:31Z</time>
      </trkpt>
      <trkpt lat="45.91031" lon="5.29849">
        <ele>253.6</ele>
        <time>2024-09-19T09:45:32Z</time>
      </trkpt>
      <trkpt lat="45.91031" lon="5.29855">
        <ele>253.4</ele>
        <time>2024-09-19T09:45:33Z</time>
      </trkpt>
      <trkpt lat="45.91032" lon="5.2986">
        <ele>254.2</ele>
        <time>2024-09-19T09:45:34Z</time>
      </trkpt>
      <trkpt lat="45.91031" lon="5.29864">
        <ele>252.4</ele>
        <time>2024-09-19T09:45:35Z</time>
      </trkpt>
      <trkpt lat="45.91032" lon="5.29869">
        <ele>253.8</ele>
        <time>2024-09-19T09:45:36Z</time>
      </trkpt>
      <trkpt lat="45.91032" lon="5.29874">
        <ele>254</ele>
        <time>2024-09-19T09:45:37Z</time>
      </trkpt>
      <trkpt lat="45.91033" lon="5.29878">
        <ele>254.2</ele>
        <time>2024-09-19T09:45:38Z</time>
      </trkpt>
      <trkpt lat="45.91034" lon="5.29882">
        <ele>254.6</ele>
        <time>2024-09-19T09:45:39Z</time>
      </trkpt>
      <trkpt lat="45.91036" lon="5.29889">
        <ele>254.6</ele>
        <time>2024-09-19T09:45:40Z</time>
      </trkpt>
      <trkpt lat="45.91036" lon="5.29892">
        <ele>254.6</ele>
        <time>2024-09-19T09:45:41Z</time>
      </trkpt>
      <trkpt lat="45.91037" lon="5.29896">
        <ele>255</ele>
        <time>2024-09-19T09:45:42Z</time>
      </trkpt>
      <trkpt lat="45.91037" lon="5.299">
        <ele>255.6</ele>
        <time>2024-09-19T09:45:43Z</time>
      </trkpt>
      <trkpt lat="45.91038" lon="5.29904">
        <ele>255.6</ele>
        <time>2024-09-19T09:45:44Z</time>
      </trkpt>
      <trkpt lat="45.91039" lon="5.29908">
        <ele>255.6</ele>
        <time>2024-09-19T09:45:45Z</time>
      </trkpt>
      <trkpt lat="45.9104" lon="5.29913">
        <ele>255.2</ele>
        <time>2024-09-19T09:45:46Z</time>
      </trkpt>
      <trkpt lat="45.91042" lon="5.29918">
        <ele>255.2</ele>
        <time>2024-09-19T09:45:47Z</time>
      </trkpt>
      <trkpt lat="45.91044" lon="5.29922">
        <ele>255.2</ele>
        <time>2024-09-19T09:45:48Z</time>
      </trkpt>
      <trkpt lat="45.91046" lon="5.29927">
        <ele>255</ele>
        <time>2024-09-19T09:45:49Z</time>
      </trkpt>
      <trkpt lat="45.91048" lon="5.29933">
        <ele>255.2</ele>
        <time>2024-09-19T09:45:50Z</time>
      </trkpt>
      <trkpt lat="45.91049" lon="5.29939">
        <ele>254.8</ele>
        <time>2024-09-19T09:45:51Z</time>
      </trkpt>
      <trkpt lat="45.9105" lon="5.29946">
        <ele>254.4</ele>
        <time>2024-09-19T09:45:52Z</time>
      </trkpt>
      <trkpt lat="45.91052" lon="5.29952">
        <ele>254.4</ele>
        <time>2024-09-19T09:45:53Z</time>
      </trkpt>
      <trkpt lat="45.91053" lon="5.29957">
        <ele>255</ele>
        <time>2024-09-19T09:45:54Z</time>
      </trkpt>
      <trkpt lat="45.91053" lon="5.29964">
        <ele>255</ele>
        <time>2024-09-19T09:45:55Z</time>
      </trkpt>
      <trkpt lat="45.91054" lon="5.2997">
        <ele>254.6</ele>
        <time>2024-09-19T09:45:56Z</time>
      </trkpt>
      <trkpt lat="45.91054" lon="5.29976">
        <ele>254.8</ele>
        <time>2024-09-19T09:45:57Z</time>
      </trkpt>
      <trkpt lat="45.91054" lon="5.29981">
        <ele>255.6</ele>
        <time>2024-09-19T09:45:58Z</time>
      </trkpt>
      <trkpt lat="45.91054" lon="5.29988">
        <ele>255.2</ele>
        <time>2024-09-19T09:45:59Z</time>
      </trkpt>
      <trkpt lat="45.91053" lon="5.29994">
        <ele>255.2</ele>
        <time>2024-09-19T09:46:00Z</time>
      </trkpt>
      <trkpt lat="45.91054" lon="5.3">
        <ele>255.2</ele>
        <time>2024-09-19T09:46:01Z</time>
      </trkpt>
      <trkpt lat="45.91053" lon="5.30006">
        <ele>255.2</ele>
        <time>2024-09-19T09:46:02Z</time>
      </trkpt>
      <trkpt lat="45.91053" lon="5.30012">
        <ele>255.4</ele>
        <time>2024-09-19T09:46:03Z</time>
      </trkpt>
      <trkpt lat="45.91053" lon="5.30018">
        <ele>256</ele>
        <time>2024-09-19T09:46:04Z</time>
      </trkpt>
      <trkpt lat="45.91053" lon="5.30024">
        <ele>255.4</ele>
        <time>2024-09-19T09:46:05Z</time>
      </trkpt>
      <trkpt lat="45.91054" lon="5.30029">
        <ele>255.8</ele>
        <time>2024-09-19T09:46:06Z</time>
      </trkpt>
      <trkpt lat="45.91055" lon="5.30034">
        <ele>255.8</ele>
        <time>2024-09-19T09:46:07Z</time>
      </trkpt>
      <trkpt lat="45.91058" lon="5.30036">
        <ele>255.8</ele>
        <time>2024-09-19T09:46:08Z</time>
      </trkpt>
      <trkpt lat="45.9106" lon="5.30037">
        <ele>256.2</ele>
        <time>2024-09-19T09:46:09Z</time>
      </trkpt>
      <trkpt lat="45.91061" lon="5.30039">
        <ele>256.4</ele>
        <time>2024-09-19T09:46:10Z</time>
      </trkpt>
      <trkpt lat="45.91061" lon="5.30041">
        <ele>256.6</ele>
        <time>2024-09-19T09:46:11Z</time>
      </trkpt>
      <trkpt lat="45.9106" lon="5.30044">
        <ele>256.8</ele>
        <time>2024-09-19T09:46:12Z</time>
      </trkpt>
      <trkpt lat="45.91058" lon="5.30046">
        <ele>256.8</ele>
        <time>2024-09-19T09:46:13Z</time>
      </trkpt>
      <trkpt lat="45.91055" lon="5.30049">
        <ele>256.8</ele>
        <time>2024-09-19T09:46:14Z</time>
      </trkpt>
      <trkpt lat="45.91052" lon="5.30051">
        <ele>256.8</ele>
        <time>2024-09-19T09:46:15Z</time>
      </trkpt>
      <trkpt lat="45.91049" lon="5.30053">
        <ele>256.8</ele>
        <time>2024-09-19T09:46:16Z</time>
      </trkpt>
      <trkpt lat="45.91046" lon="5.30056">
        <ele>256.6</ele>
        <time>2024-09-19T09:46:17Z</time>
      </trkpt>
      <trkpt lat="45.91043" lon="5.3006">
        <ele>256.6</ele>
        <time>2024-09-19T09:46:18Z</time>
      </trkpt>
      <trkpt lat="45.91043" lon="5.30067">
        <ele>256.2</ele>
        <time>2024-09-19T09:46:19Z</time>
      </trkpt>
      <trkpt lat="45.91042" lon="5.30073">
        <ele>256.2</ele>
        <time>2024-09-19T09:46:20Z</time>
      </trkpt>
      <trkpt lat="45.91042" lon="5.30079">
        <ele>256.2</ele>
        <time>2024-09-19T09:46:21Z</time>
      </trkpt>
      <trkpt lat="45.9104" lon="5.30084">
        <ele>257</ele>
        <time>2024-09-19T09:46:22Z</time>
      </trkpt>
      <trkpt lat="45.9104" lon="5.30089">
        <ele>257</ele>
        <time>2024-09-19T09:46:23Z</time>
      </trkpt>
      <trkpt lat="45.9104" lon="5.30094">
        <ele>257.4</ele>
        <time>2024-09-19T09:46:24Z</time>
      </trkpt>
      <trkpt lat="45.91038" lon="5.30099">
        <ele>257.4</ele>
        <time>2024-09-19T09:46:25Z</time>
      </trkpt>
      <trkpt lat="45.91037" lon="5.30104">
        <ele>257</ele>
        <time>2024-09-19T09:46:26Z</time>
      </trkpt>
      <trkpt lat="45.91036" lon="5.30108">
        <ele>257</ele>
        <time>2024-09-19T09:46:27Z</time>
      </trkpt>
      <trkpt lat="45.91035" lon="5.30112">
        <ele>257</ele>
        <time>2024-09-19T09:46:28Z</time>
      </trkpt>
      <trkpt lat="45.91034" lon="5.30117">
        <ele>257</ele>
        <time>2024-09-19T09:46:29Z</time>
      </trkpt>
      <trkpt lat="45.91034" lon="5.30121">
        <ele>257.6</ele>
        <time>2024-09-19T09:46:30Z</time>
      </trkpt>
      <trkpt lat="45.91033" lon="5.30125">
        <ele>258</ele>
        <time>2024-09-19T09:46:31Z</time>
      </trkpt>
      <trkpt lat="45.91032" lon="5.30129">
        <ele>258.4</ele>
        <time>2024-09-19T09:46:32Z</time>
      </trkpt>
      <trkpt lat="45.91031" lon="5.30133">
        <ele>258.4</ele>
        <time>2024-09-19T09:46:33Z</time>
      </trkpt>
      <trkpt lat="45.9103" lon="5.30136">
        <ele>258.4</ele>
        <time>2024-09-19T09:46:34Z</time>
      </trkpt>
      <trkpt lat="45.91028" lon="5.3014">
        <ele>258.4</ele>
        <time>2024-09-19T09:46:35Z</time>
      </trkpt>
      <trkpt lat="45.91026" lon="5.30142">
        <ele>258.6</ele>
        <time>2024-09-19T09:46:36Z</time>
      </trkpt>
      <trkpt lat="45.91024" lon="5.30145">
        <ele>259</ele>
        <time>2024-09-19T09:46:37Z</time>
      </trkpt>
      <trkpt lat="45.91021" lon="5.30149">
        <ele>259</ele>
        <time>2024-09-19T09:46:38Z</time>
      </trkpt>
      <trkpt lat="45.91019" lon="5.30152">
        <ele>259.4</ele>
        <time>2024-09-19T09:46:39Z</time>
      </trkpt>
      <trkpt lat="45.91018" lon="5.30156">
        <ele>259.4</ele>
        <time>2024-09-19T09:46:40Z</time>
      </trkpt>
      <trkpt lat="45.91017" lon="5.3016">
        <ele>259.2</ele>
        <time>2024-09-19T09:46:41Z</time>
      </trkpt>
      <trkpt lat="45.91016" lon="5.30164">
        <ele>259.4</ele>
        <time>2024-09-19T09:46:42Z</time>
      </trkpt>
      <trkpt lat="45.91014" lon="5.30169">
        <ele>259.6</ele>
        <time>2024-09-19T09:46:43Z</time>
      </trkpt>
      <trkpt lat="45.91013" lon="5.30173">
        <ele>259.6</ele>
        <time>2024-09-19T09:46:44Z</time>
      </trkpt>
      <trkpt lat="45.91012" lon="5.30178">
        <ele>259.8</ele>
        <time>2024-09-19T09:46:45Z</time>
      </trkpt>
      <trkpt lat="45.9101" lon="5.30182">
        <ele>260</ele>
        <time>2024-09-19T09:46:46Z</time>
      </trkpt>
      <trkpt lat="45.91009" lon="5.30187">
        <ele>260</ele>
        <time>2024-09-19T09:46:47Z</time>
      </trkpt>
      <trkpt lat="45.91008" lon="5.30192">
        <ele>260</ele>
        <time>2024-09-19T09:46:48Z</time>
      </trkpt>
      <trkpt lat="45.91006" lon="5.30197">
        <ele>260</ele>
        <time>2024-09-19T09:46:49Z</time>
      </trkpt>
      <trkpt lat="45.91005" lon="5.30202">
        <ele>260.4</ele>
        <time>2024-09-19T09:46:50Z</time>
      </trkpt>
      <trkpt lat="45.91003" lon="5.30207">
        <ele>260.4</ele>
        <time>2024-09-19T09:46:51Z</time>
      </trkpt>
      <trkpt lat="45.91002" lon="5.30212">
        <ele>259.8</ele>
        <time>2024-09-19T09:46:52Z</time>
      </trkpt>
      <trkpt lat="45.91001" lon="5.30216">
        <ele>260.6</ele>
        <time>2024-09-19T09:46:53Z</time>
      </trkpt>
      <trkpt lat="45.91" lon="5.30221">
        <ele>260.6</ele>
        <time>2024-09-19T09:46:54Z</time>
      </trkpt>
      <trkpt lat="45.90999" lon="5.30225">
        <ele>260.8</ele>
        <time>2024-09-19T09:46:55Z</time>
      </trkpt>
      <trkpt lat="45.90998" lon="5.3023">
        <ele>261.2</ele>
        <time>2024-09-19T09:46:56Z</time>
      </trkpt>
      <trkpt lat="45.90997" lon="5.30235">
        <ele>261.2</ele>
        <time>2024-09-19T09:46:57Z</time>
      </trkpt>
      <trkpt lat="45.90995" lon="5.30239">
        <ele>261.2</ele>
        <time>2024-09-19T09:46:58Z</time>
      </trkpt>
      <trkpt lat="45.90995" lon="5.30243">
        <ele>261.8</ele>
        <time>2024-09-19T09:46:59Z</time>
      </trkpt>
      <trkpt lat="45.90994" lon="5.30247">
        <ele>262.2</ele>
        <time>2024-09-19T09:47:00Z</time>
      </trkpt>
      <trkpt lat="45.90993" lon="5.30253">
        <ele>262.2</ele>
        <time>2024-09-19T09:47:01Z</time>
      </trkpt>
      <trkpt lat="45.90991" lon="5.30259">
        <ele>261.4</ele>
        <time>2024-09-19T09:47:02Z</time>
      </trkpt>
      <trkpt lat="45.9099" lon="5.30265">
        <ele>262</ele>
        <time>2024-09-19T09:47:03Z</time>
      </trkpt>
      <trkpt lat="45.90989" lon="5.30269">
        <ele>262</ele>
        <time>2024-09-19T09:47:04Z</time>
      </trkpt>
      <trkpt lat="45.90988" lon="5.30274">
        <ele>262.4</ele>
        <time>2024-09-19T09:47:05Z</time>
      </trkpt>
      <trkpt lat="45.90987" lon="5.30279">
        <ele>262.4</ele>
        <time>2024-09-19T09:47:06Z</time>
      </trkpt>
      <trkpt lat="45.90985" lon="5.30284">
        <ele>262.4</ele>
        <time>2024-09-19T09:47:07Z</time>
      </trkpt>
      <trkpt lat="45.90984" lon="5.30289">
        <ele>263.2</ele>
        <time>2024-09-19T09:47:08Z</time>
      </trkpt>
      <trkpt lat="45.90984" lon="5.30293">
        <ele>263.2</ele>
        <time>2024-09-19T09:47:09Z</time>
      </trkpt>
      <trkpt lat="45.90983" lon="5.30296">
        <ele>262.8</ele>
        <time>2024-09-19T09:47:10Z</time>
      </trkpt>
      <trkpt lat="45.90983" lon="5.30299">
        <ele>262.8</ele>
        <time>2024-09-19T09:47:11Z</time>
      </trkpt>
      <trkpt lat="45.90982" lon="5.30303">
        <ele>263</ele>
        <time>2024-09-19T09:47:12Z</time>
      </trkpt>
      <trkpt lat="45.90981" lon="5.30308">
        <ele>262.6</ele>
        <time>2024-09-19T09:47:13Z</time>
      </trkpt>
      <trkpt lat="45.90981" lon="5.30312">
        <ele>262.6</ele>
        <time>2024-09-19T09:47:14Z</time>
      </trkpt>
      <trkpt lat="45.90981" lon="5.30316">
        <ele>263</ele>
        <time>2024-09-19T09:47:15Z</time>
      </trkpt>
      <trkpt lat="45.90981" lon="5.30319">
        <ele>263.2</ele>
        <time>2024-09-19T09:47:16Z</time>
      </trkpt>
      <trkpt lat="45.90981" lon="5.30323">
        <ele>263.2</ele>
        <time>2024-09-19T09:47:17Z</time>
      </trkpt>
      <trkpt lat="45.9098" lon="5.30327">
        <ele>263.2</ele>
        <time>2024-09-19T09:47:18Z</time>
      </trkpt>
      <trkpt lat="45.90979" lon="5.30332">
        <ele>262.6</ele>
        <time>2024-09-19T09:47:19Z</time>
      </trkpt>
      <trkpt lat="45.90978" lon="5.30335">
        <ele>262.6</ele>
        <time>2024-09-19T09:47:20Z</time>
      </trkpt>
      <trkpt lat="45.90977" lon="5.30339">
        <ele>263.4</ele>
        <time>2024-09-19T09:47:21Z</time>
      </trkpt>
      <trkpt lat="45.90977" lon="5.30343">
        <ele>263.4</ele>
        <time>2024-09-19T09:47:22Z</time>
      </trkpt>
      <trkpt lat="45.90976" lon="5.30347">
        <ele>263.8</ele>
        <time>2024-09-19T09:47:23Z</time>
      </trkpt>
      <trkpt lat="45.90974" lon="5.30351">
        <ele>264.2</ele>
        <time>2024-09-19T09:47:24Z</time>
      </trkpt>
      <trkpt lat="45.90974" lon="5.30355">
        <ele>264</ele>
        <time>2024-09-19T09:47:25Z</time>
      </trkpt>
      <trkpt lat="45.90973" lon="5.30359">
        <ele>264.4</ele>
        <time>2024-09-19T09:47:26Z</time>
      </trkpt>
      <trkpt lat="45.90972" lon="5.30363">
        <ele>264.6</ele>
        <time>2024-09-19T09:47:27Z</time>
      </trkpt>
      <trkpt lat="45.90971" lon="5.30367">
        <ele>264.6</ele>
        <time>2024-09-19T09:47:28Z</time>
      </trkpt>
      <trkpt lat="45.9097" lon="5.30371">
        <ele>265</ele>
        <time>2024-09-19T09:47:29Z</time>
      </trkpt>
      <trkpt lat="45.9097" lon="5.30375">
        <ele>265.2</ele>
        <time>2024-09-19T09:47:30Z</time>
      </trkpt>
      <trkpt lat="45.90969" lon="5.30379">
        <ele>265.6</ele>
        <time>2024-09-19T09:47:31Z</time>
      </trkpt>
      <trkpt lat="45.90969" lon="5.30384">
        <ele>265.6</ele>
        <time>2024-09-19T09:47:32Z</time>
      </trkpt>
      <trkpt lat="45.90969" lon="5.30388">
        <ele>265.6</ele>
        <time>2024-09-19T09:47:33Z</time>
      </trkpt>
      <trkpt lat="45.90968" lon="5.3039">
        <ele>265.6</ele>
        <time>2024-09-19T09:47:34Z</time>
      </trkpt>
      <trkpt lat="45.90967" lon="5.30394">
        <ele>265.4</ele>
        <time>2024-09-19T09:47:35Z</time>
      </trkpt>
      <trkpt lat="45.90967" lon="5.30398">
        <ele>265.4</ele>
        <time>2024-09-19T09:47:36Z</time>
      </trkpt>
      <trkpt lat="45.90966" lon="5.30402">
        <ele>265.4</ele>
        <time>2024-09-19T09:47:37Z</time>
      </trkpt>
      <trkpt lat="45.90964" lon="5.30406">
        <ele>265.6</ele>
        <time>2024-09-19T09:47:38Z</time>
      </trkpt>
      <trkpt lat="45.90963" lon="5.3041">
        <ele>265.6</ele>
        <time>2024-09-19T09:47:39Z</time>
      </trkpt>
      <trkpt lat="45.90962" lon="5.30414">
        <ele>265.6</ele>
        <time>2024-09-19T09:47:40Z</time>
      </trkpt>
      <trkpt lat="45.9096" lon="5.30418">
        <ele>265.2</ele>
        <time>2024-09-19T09:47:41Z</time>
      </trkpt>
      <trkpt lat="45.90958" lon="5.30423">
        <ele>265.6</ele>
        <time>2024-09-19T09:47:42Z</time>
      </trkpt>
      <trkpt lat="45.90957" lon="5.30427">
        <ele>265.8</ele>
        <time>2024-09-19T09:47:43Z</time>
      </trkpt>
      <trkpt lat="45.90956" lon="5.30431">
        <ele>265.4</ele>
        <time>2024-09-19T09:47:44Z</time>
      </trkpt>
      <trkpt lat="45.90954" lon="5.30436">
        <ele>264.6</ele>
        <time>2024-09-19T09:47:45Z</time>
      </trkpt>
      <trkpt lat="45.90951" lon="5.30441">
        <ele>264.8</ele>
        <time>2024-09-19T09:47:46Z</time>
      </trkpt>
      <trkpt lat="45.90949" lon="5.30446">
        <ele>265.2</ele>
        <time>2024-09-19T09:47:47Z</time>
      </trkpt>
      <trkpt lat="45.90947" lon="5.3045">
        <ele>265.8</ele>
        <time>2024-09-19T09:47:48Z</time>
      </trkpt>
      <trkpt lat="45.90946" lon="5.30455">
        <ele>266</ele>
        <time>2024-09-19T09:47:49Z</time>
      </trkpt>
      <trkpt lat="45.90944" lon="5.30459">
        <ele>266</ele>
        <time>2024-09-19T09:47:50Z</time>
      </trkpt>
      <trkpt lat="45.90943" lon="5.30464">
        <ele>266.4</ele>
        <time>2024-09-19T09:47:51Z</time>
      </trkpt>
      <trkpt lat="45.90942" lon="5.30468">
        <ele>266.4</ele>
        <time>2024-09-19T09:47:52Z</time>
      </trkpt>
      <trkpt lat="45.9094" lon="5.30473">
        <ele>266.4</ele>
        <time>2024-09-19T09:47:53Z</time>
      </trkpt>
      <trkpt lat="45.90939" lon="5.30477">
        <ele>266.4</ele>
        <time>2024-09-19T09:47:54Z</time>
      </trkpt>
      <trkpt lat="45.90937" lon="5.30482">
        <ele>266.4</ele>
        <time>2024-09-19T09:47:55Z</time>
      </trkpt>
      <trkpt lat="45.90936" lon="5.30486">
        <ele>266.6</ele>
        <time>2024-09-19T09:47:56Z</time>
      </trkpt>
      <trkpt lat="45.90934" lon="5.30491">
        <ele>266.6</ele>
        <time>2024-09-19T09:47:57Z</time>
      </trkpt>
      <trkpt lat="45.90933" lon="5.30495">
        <ele>266.6</ele>
        <time>2024-09-19T09:47:58Z</time>
      </trkpt>
      <trkpt lat="45.90931" lon="5.30499">
        <ele>266.8</ele>
        <time>2024-09-19T09:47:59Z</time>
      </trkpt>
      <trkpt lat="45.9093" lon="5.30503">
        <ele>266.6</ele>
        <time>2024-09-19T09:48:00Z</time>
      </trkpt>
      <trkpt lat="45.90928" lon="5.30508">
        <ele>266.6</ele>
        <time>2024-09-19T09:48:01Z</time>
      </trkpt>
      <trkpt lat="45.90927" lon="5.30513">
        <ele>267</ele>
        <time>2024-09-19T09:48:02Z</time>
      </trkpt>
      <trkpt lat="45.90926" lon="5.30516">
        <ele>266.6</ele>
        <time>2024-09-19T09:48:03Z</time>
      </trkpt>
      <trkpt lat="45.90924" lon="5.3052">
        <ele>267.6</ele>
        <time>2024-09-19T09:48:04Z</time>
      </trkpt>
      <trkpt lat="45.90923" lon="5.30522">
        <ele>267.4</ele>
        <time>2024-09-19T09:48:05Z</time>
      </trkpt>
      <trkpt lat="45.9092" lon="5.30527">
        <ele>267.8</ele>
        <time>2024-09-19T09:48:06Z</time>
      </trkpt>
      <trkpt lat="45.90918" lon="5.30532">
        <ele>267.8</ele>
        <time>2024-09-19T09:48:07Z</time>
      </trkpt>
      <trkpt lat="45.90916" lon="5.30536">
        <ele>268.2</ele>
        <time>2024-09-19T09:48:08Z</time>
      </trkpt>
      <trkpt lat="45.90914" lon="5.3054">
        <ele>267.4</ele>
        <time>2024-09-19T09:48:09Z</time>
      </trkpt>
      <trkpt lat="45.90913" lon="5.30544">
        <ele>267.4</ele>
        <time>2024-09-19T09:48:10Z</time>
      </trkpt>
      <trkpt lat="45.90913" lon="5.30549">
        <ele>267.4</ele>
        <time>2024-09-19T09:48:11Z</time>
      </trkpt>
      <trkpt lat="45.90912" lon="5.30553">
        <ele>267.4</ele>
        <time>2024-09-19T09:48:12Z</time>
      </trkpt>
      <trkpt lat="45.9091" lon="5.30557">
        <ele>267.4</ele>
        <time>2024-09-19T09:48:13Z</time>
      </trkpt>
      <trkpt lat="45.90908" lon="5.30562">
        <ele>267.4</ele>
        <time>2024-09-19T09:48:14Z</time>
      </trkpt>
      <trkpt lat="45.90906" lon="5.30566">
        <ele>267.4</ele>
        <time>2024-09-19T09:48:15Z</time>
      </trkpt>
      <trkpt lat="45.90905" lon="5.3057">
        <ele>267.4</ele>
        <time>2024-09-19T09:48:16Z</time>
      </trkpt>
      <trkpt lat="45.90903" lon="5.30573">
        <ele>268</ele>
        <time>2024-09-19T09:48:17Z</time>
      </trkpt>
      <trkpt lat="45.90902" lon="5.30577">
        <ele>268</ele>
        <time>2024-09-19T09:48:18Z</time>
      </trkpt>
      <trkpt lat="45.90901" lon="5.30581">
        <ele>268</ele>
        <time>2024-09-19T09:48:19Z</time>
      </trkpt>
      <trkpt lat="45.909" lon="5.30586">
        <ele>268</ele>
        <time>2024-09-19T09:48:20Z</time>
      </trkpt>
      <trkpt lat="45.90899" lon="5.3059">
        <ele>268.4</ele>
        <time>2024-09-19T09:48:21Z</time>
      </trkpt>
      <trkpt lat="45.90897" lon="5.30594">
        <ele>267.8</ele>
        <time>2024-09-19T09:48:22Z</time>
      </trkpt>
      <trkpt lat="45.90897" lon="5.30598">
        <ele>268.2</ele>
        <time>2024-09-19T09:48:23Z</time>
      </trkpt>
      <trkpt lat="45.90896" lon="5.30601">
        <ele>268.6</ele>
        <time>2024-09-19T09:48:24Z</time>
      </trkpt>
      <trkpt lat="45.90896" lon="5.30601">
        <ele>268.6</ele>
        <time>2024-09-19T09:48:25Z</time>
      </trkpt>
      <trkpt lat="45.90896" lon="5.30604">
        <ele>269</ele>
        <time>2024-09-19T09:48:26Z</time>
      </trkpt>
      <trkpt lat="45.90896" lon="5.30607">
        <ele>269</ele>
        <time>2024-09-19T09:48:27Z</time>
      </trkpt>
      <trkpt lat="45.90895" lon="5.30611">
        <ele>269</ele>
        <time>2024-09-19T09:48:28Z</time>
      </trkpt>
      <trkpt lat="45.90895" lon="5.30614">
        <ele>269.4</ele>
        <time>2024-09-19T09:48:29Z</time>
      </trkpt>
      <trkpt lat="45.90895" lon="5.30618">
        <ele>269.4</ele>
        <time>2024-09-19T09:48:30Z</time>
      </trkpt>
      <trkpt lat="45.90893" lon="5.30621">
        <ele>270.2</ele>
        <time>2024-09-19T09:48:31Z</time>
      </trkpt>
      <trkpt lat="45.90892" lon="5.30623">
        <ele>270.6</ele>
        <time>2024-09-19T09:48:32Z</time>
      </trkpt>
      <trkpt lat="45.9089" lon="5.30626">
        <ele>271</ele>
        <time>2024-09-19T09:48:33Z</time>
      </trkpt>
      <trkpt lat="45.90889" lon="5.30629">
        <ele>271.4</ele>
        <time>2024-09-19T09:48:34Z</time>
      </trkpt>
      <trkpt lat="45.90889" lon="5.30632">
        <ele>271.6</ele>
        <time>2024-09-19T09:48:35Z</time>
      </trkpt>
      <trkpt lat="45.90888" lon="5.30634">
        <ele>271.6</ele>
        <time>2024-09-19T09:48:36Z</time>
      </trkpt>
      <trkpt lat="45.90888" lon="5.30637">
        <ele>272</ele>
        <time>2024-09-19T09:48:37Z</time>
      </trkpt>
      <trkpt lat="45.90888" lon="5.30638">
        <ele>272</ele>
        <time>2024-09-19T09:48:38Z</time>
      </trkpt>
      <trkpt lat="45.90888" lon="5.3064">
        <ele>272.4</ele>
        <time>2024-09-19T09:48:39Z</time>
      </trkpt>
      <trkpt lat="45.90887" lon="5.30642">
        <ele>272.2</ele>
        <time>2024-09-19T09:48:40Z</time>
      </trkpt>
      <trkpt lat="45.90886" lon="5.30644">
        <ele>272.2</ele>
        <time>2024-09-19T09:48:41Z</time>
      </trkpt>
      <trkpt lat="45.90885" lon="5.30647">
        <ele>272.6</ele>
        <time>2024-09-19T09:48:42Z</time>
      </trkpt>
      <trkpt lat="45.90884" lon="5.30651">
        <ele>272.8</ele>
        <time>2024-09-19T09:48:43Z</time>
      </trkpt>
      <trkpt lat="45.90884" lon="5.30653">
        <ele>272.8</ele>
        <time>2024-09-19T09:48:44Z</time>
      </trkpt>
      <trkpt lat="45.90884" lon="5.30655">
        <ele>272.6</ele>
        <time>2024-09-19T09:48:45Z</time>
      </trkpt>
      <trkpt lat="45.90883" lon="5.30658">
        <ele>273</ele>
        <time>2024-09-19T09:48:46Z</time>
      </trkpt>
      <trkpt lat="45.90883" lon="5.30662">
        <ele>272.6</ele>
        <time>2024-09-19T09:48:47Z</time>
      </trkpt>
      <trkpt lat="45.90882" lon="5.30665">
        <ele>273</ele>
        <time>2024-09-19T09:48:48Z</time>
      </trkpt>
      <trkpt lat="45.90881" lon="5.30669">
        <ele>273</ele>
        <time>2024-09-19T09:48:49Z</time>
      </trkpt>
      <trkpt lat="45.90881" lon="5.30672">
        <ele>273</ele>
        <time>2024-09-19T09:48:50Z</time>
      </trkpt>
      <trkpt lat="45.9088" lon="5.30675">
        <ele>273.4</ele>
        <time>2024-09-19T09:48:51Z</time>
      </trkpt>
      <trkpt lat="45.90879" lon="5.3068">
        <ele>273.8</ele>
        <time>2024-09-19T09:48:52Z</time>
      </trkpt>
      <trkpt lat="45.90878" lon="5.30684">
        <ele>273.8</ele>
        <time>2024-09-19T09:48:53Z</time>
      </trkpt>
      <trkpt lat="45.90878" lon="5.30688">
        <ele>273.8</ele>
        <time>2024-09-19T09:48:54Z</time>
      </trkpt>
      <trkpt lat="45.90878" lon="5.30692">
        <ele>273.8</ele>
        <time>2024-09-19T09:48:55Z</time>
      </trkpt>
      <trkpt lat="45.90879" lon="5.30696">
        <ele>273.8</ele>
        <time>2024-09-19T09:48:56Z</time>
      </trkpt>
      <trkpt lat="45.90879" lon="5.30696">
        <ele>273.8</ele>
        <time>2024-09-19T09:48:57Z</time>
      </trkpt>
      <trkpt lat="45.90879" lon="5.30696">
        <ele>274.2</ele>
        <time>2024-09-19T09:48:58Z</time>
      </trkpt>
      <trkpt lat="45.90881" lon="5.30711">
        <ele>274.4</ele>
        <time>2024-09-19T09:49:00Z</time>
      </trkpt>
      <trkpt lat="45.90881" lon="5.30714">
        <ele>274.6</ele>
        <time>2024-09-19T09:49:01Z</time>
      </trkpt>
      <trkpt lat="45.90881" lon="5.30718">
        <ele>274.4</ele>
        <time>2024-09-19T09:49:02Z</time>
      </trkpt>
      <trkpt lat="45.90881" lon="5.30722">
        <ele>274.8</ele>
        <time>2024-09-19T09:49:03Z</time>
      </trkpt>
      <trkpt lat="45.90881" lon="5.30726">
        <ele>274.8</ele>
        <time>2024-09-19T09:49:04Z</time>
      </trkpt>
      <trkpt lat="45.90882" lon="5.30729">
        <ele>274.8</ele>
        <time>2024-09-19T09:49:05Z</time>
      </trkpt>
      <trkpt lat="45.90882" lon="5.30732">
        <ele>274.8</ele>
        <time>2024-09-19T09:49:06Z</time>
      </trkpt>
      <trkpt lat="45.90881" lon="5.30736">
        <ele>275</ele>
        <time>2024-09-19T09:49:07Z</time>
      </trkpt>
      <trkpt lat="45.9088" lon="5.30741">
        <ele>276</ele>
        <time>2024-09-19T09:49:08Z</time>
      </trkpt>
      <trkpt lat="45.90879" lon="5.30746">
        <ele>275.6</ele>
        <time>2024-09-19T09:49:09Z</time>
      </trkpt>
      <trkpt lat="45.90878" lon="5.3075">
        <ele>275.6</ele>
        <time>2024-09-19T09:49:10Z</time>
      </trkpt>
      <trkpt lat="45.90877" lon="5.30754">
        <ele>275.4</ele>
        <time>2024-09-19T09:49:11Z</time>
      </trkpt>
      <trkpt lat="45.90877" lon="5.30756">
        <ele>275.4</ele>
        <time>2024-09-19T09:49:12Z</time>
      </trkpt>
      <trkpt lat="45.90876" lon="5.30759">
        <ele>275.4</ele>
        <time>2024-09-19T09:49:13Z</time>
      </trkpt>
      <trkpt lat="45.90876" lon="5.30761">
        <ele>275.4</ele>
        <time>2024-09-19T09:49:14Z</time>
      </trkpt>
      <trkpt lat="45.90876" lon="5.30761">
        <ele>275.4</ele>
        <time>2024-09-19T09:49:15Z</time>
      </trkpt>
      <trkpt lat="45.90877" lon="5.30761">
        <ele>275.4</ele>
        <time>2024-09-19T09:49:16Z</time>
      </trkpt>
      <trkpt lat="45.90875" lon="5.30766">
        <ele>275.4</ele>
        <time>2024-09-19T09:51:13Z</time>
      </trkpt>
      <trkpt lat="45.90874" lon="5.30769">
        <ele>275</ele>
        <time>2024-09-19T09:51:14Z</time>
      </trkpt>
      <trkpt lat="45.90873" lon="5.30773">
        <ele>275</ele>
        <time>2024-09-19T09:51:15Z</time>
      </trkpt>
      <trkpt lat="45.90872" lon="5.30776">
        <ele>275</ele>
        <time>2024-09-19T09:51:16Z</time>
      </trkpt>
      <trkpt lat="45.90871" lon="5.3078">
        <ele>275</ele>
        <time>2024-09-19T09:51:17Z</time>
      </trkpt>
      <trkpt lat="45.90869" lon="5.30782">
        <ele>275</ele>
        <time>2024-09-19T09:51:18Z</time>
      </trkpt>
      <trkpt lat="45.90867" lon="5.30784">
        <ele>275</ele>
        <time>2024-09-19T09:51:19Z</time>
      </trkpt>
      <trkpt lat="45.90863" lon="5.30787">
        <ele>275.2</ele>
        <time>2024-09-19T09:51:20Z</time>
      </trkpt>
      <trkpt lat="45.90861" lon="5.3079">
        <ele>275.2</ele>
        <time>2024-09-19T09:51:21Z</time>
      </trkpt>
      <trkpt lat="45.90859" lon="5.30794">
        <ele>275</ele>
        <time>2024-09-19T09:51:22Z</time>
      </trkpt>
      <trkpt lat="45.90859" lon="5.30799">
        <ele>275.4</ele>
        <time>2024-09-19T09:51:23Z</time>
      </trkpt>
      <trkpt lat="45.90859" lon="5.30804">
        <ele>275.4</ele>
        <time>2024-09-19T09:51:24Z</time>
      </trkpt>
      <trkpt lat="45.90859" lon="5.30809">
        <ele>275.4</ele>
        <time>2024-09-19T09:51:25Z</time>
      </trkpt>
      <trkpt lat="45.90859" lon="5.30814">
        <ele>275.4</ele>
        <time>2024-09-19T09:51:26Z</time>
      </trkpt>
      <trkpt lat="45.9086" lon="5.30819">
        <ele>275.4</ele>
        <time>2024-09-19T09:51:27Z</time>
      </trkpt>
      <trkpt lat="45.9086" lon="5.30824">
        <ele>276</ele>
        <time>2024-09-19T09:51:28Z</time>
      </trkpt>
      <trkpt lat="45.90861" lon="5.30828">
        <ele>276</ele>
        <time>2024-09-19T09:51:29Z</time>
      </trkpt>
      <trkpt lat="45.90862" lon="5.30832">
        <ele>276.4</ele>
        <time>2024-09-19T09:51:30Z</time>
      </trkpt>
      <trkpt lat="45.90863" lon="5.30837">
        <ele>276.4</ele>
        <time>2024-09-19T09:51:31Z</time>
      </trkpt>
      <trkpt lat="45.90862" lon="5.30841">
        <ele>276.8</ele>
        <time>2024-09-19T09:51:32Z</time>
      </trkpt>
      <trkpt lat="45.90862" lon="5.30846">
        <ele>277.4</ele>
        <time>2024-09-19T09:51:33Z</time>
      </trkpt>
      <trkpt lat="45.90862" lon="5.3085">
        <ele>277.4</ele>
        <time>2024-09-19T09:51:34Z</time>
      </trkpt>
      <trkpt lat="45.9086" lon="5.30855">
        <ele>277.4</ele>
        <time>2024-09-19T09:51:35Z</time>
      </trkpt>
      <trkpt lat="45.90858" lon="5.3086">
        <ele>277.4</ele>
        <time>2024-09-19T09:51:36Z</time>
      </trkpt>
      <trkpt lat="45.90856" lon="5.30863">
        <ele>277.6</ele>
        <time>2024-09-19T09:51:37Z</time>
      </trkpt>
      <trkpt lat="45.90853" lon="5.30866">
        <ele>277.6</ele>
        <time>2024-09-19T09:51:38Z</time>
      </trkpt>
      <trkpt lat="45.90851" lon="5.30869">
        <ele>277.6</ele>
        <time>2024-09-19T09:51:39Z</time>
      </trkpt>
      <trkpt lat="45.90848" lon="5.30873">
        <ele>278</ele>
        <time>2024-09-19T09:51:40Z</time>
      </trkpt>
      <trkpt lat="45.90846" lon="5.30876">
        <ele>278</ele>
        <time>2024-09-19T09:51:41Z</time>
      </trkpt>
      <trkpt lat="45.90843" lon="5.30879">
        <ele>278</ele>
        <time>2024-09-19T09:51:42Z</time>
      </trkpt>
      <trkpt lat="45.90841" lon="5.30882">
        <ele>278</ele>
        <time>2024-09-19T09:51:43Z</time>
      </trkpt>
      <trkpt lat="45.90839" lon="5.30885">
        <ele>278</ele>
        <time>2024-09-19T09:51:44Z</time>
      </trkpt>
      <trkpt lat="45.90836" lon="5.30889">
        <ele>278.8</ele>
        <time>2024-09-19T09:51:45Z</time>
      </trkpt>
      <trkpt lat="45.90835" lon="5.30891">
        <ele>278.8</ele>
        <time>2024-09-19T09:51:46Z</time>
      </trkpt>
      <trkpt lat="45.90833" lon="5.30895">
        <ele>278.8</ele>
        <time>2024-09-19T09:51:47Z</time>
      </trkpt>
      <trkpt lat="45.90831" lon="5.30898">
        <ele>278.8</ele>
        <time>2024-09-19T09:51:48Z</time>
      </trkpt>
      <trkpt lat="45.9083" lon="5.30901">
        <ele>279.2</ele>
        <time>2024-09-19T09:51:49Z</time>
      </trkpt>
      <trkpt lat="45.90828" lon="5.30905">
        <ele>279.2</ele>
        <time>2024-09-19T09:51:50Z</time>
      </trkpt>
      <trkpt lat="45.90827" lon="5.30909">
        <ele>279.2</ele>
        <time>2024-09-19T09:51:51Z</time>
      </trkpt>
      <trkpt lat="45.90825" lon="5.30913">
        <ele>279.6</ele>
        <time>2024-09-19T09:51:52Z</time>
      </trkpt>
      <trkpt lat="45.90824" lon="5.30916">
        <ele>279.8</ele>
        <time>2024-09-19T09:51:53Z</time>
      </trkpt>
      <trkpt lat="45.90822" lon="5.3092">
        <ele>279.8</ele>
        <time>2024-09-19T09:51:54Z</time>
      </trkpt>
      <trkpt lat="45.90821" lon="5.30923">
        <ele>280</ele>
        <time>2024-09-19T09:51:55Z</time>
      </trkpt>
      <trkpt lat="45.9082" lon="5.30926">
        <ele>280.4</ele>
        <time>2024-09-19T09:51:56Z</time>
      </trkpt>
      <trkpt lat="45.90819" lon="5.30929">
        <ele>280.4</ele>
        <time>2024-09-19T09:51:57Z</time>
      </trkpt>
      <trkpt lat="45.90818" lon="5.30933">
        <ele>280.8</ele>
        <time>2024-09-19T09:51:58Z</time>
      </trkpt>
      <trkpt lat="45.90817" lon="5.30936">
        <ele>280.8</ele>
        <time>2024-09-19T09:51:59Z</time>
      </trkpt>
      <trkpt lat="45.90817" lon="5.30939">
        <ele>281.2</ele>
        <time>2024-09-19T09:52:00Z</time>
      </trkpt>
      <trkpt lat="45.90816" lon="5.30941">
        <ele>281.2</ele>
        <time>2024-09-19T09:52:01Z</time>
      </trkpt>
      <trkpt lat="45.90815" lon="5.30944">
        <ele>281.2</ele>
        <time>2024-09-19T09:52:02Z</time>
      </trkpt>
      <trkpt lat="45.90815" lon="5.30948">
        <ele>281</ele>
        <time>2024-09-19T09:52:03Z</time>
      </trkpt>
      <trkpt lat="45.90814" lon="5.3095">
        <ele>281.4</ele>
        <time>2024-09-19T09:52:04Z</time>
      </trkpt>
      <trkpt lat="45.90814" lon="5.30952">
        <ele>281.4</ele>
        <time>2024-09-19T09:52:05Z</time>
      </trkpt>
      <trkpt lat="45.90813" lon="5.30954">
        <ele>281.4</ele>
        <time>2024-09-19T09:52:06Z</time>
      </trkpt>
      <trkpt lat="45.90813" lon="5.30956">
        <ele>281.4</ele>
        <time>2024-09-19T09:52:07Z</time>
      </trkpt>
      <trkpt lat="45.90813" lon="5.30958">
        <ele>281.4</ele>
        <time>2024-09-19T09:52:08Z</time>
      </trkpt>
      <trkpt lat="45.90814" lon="5.30958">
        <ele>281.4</ele>
        <time>2024-09-19T09:52:09Z</time>
      </trkpt>
      <trkpt lat="45.90814" lon="5.30959">
        <ele>281.4</ele>
        <time>2024-09-19T09:52:10Z</time>
      </trkpt>
      <trkpt lat="45.90812" lon="5.30964">
        <ele>281.6</ele>
        <time>2024-09-19T09:52:47Z</time>
      </trkpt>
      <trkpt lat="45.90811" lon="5.30967">
        <ele>281.6</ele>
        <time>2024-09-19T09:52:48Z</time>
      </trkpt>
      <trkpt lat="45.9081" lon="5.30969">
        <ele>281.4</ele>
        <time>2024-09-19T09:52:49Z</time>
      </trkpt>
      <trkpt lat="45.9081" lon="5.30972">
        <ele>281.4</ele>
        <time>2024-09-19T09:52:50Z</time>
      </trkpt>
      <trkpt lat="45.90809" lon="5.30975">
        <ele>281.4</ele>
        <time>2024-09-19T09:52:51Z</time>
      </trkpt>
      <trkpt lat="45.90808" lon="5.30979">
        <ele>281</ele>
        <time>2024-09-19T09:52:52Z</time>
      </trkpt>
      <trkpt lat="45.90806" lon="5.30983">
        <ele>281</ele>
        <time>2024-09-19T09:52:53Z</time>
      </trkpt>
      <trkpt lat="45.90804" lon="5.30987">
        <ele>281.4</ele>
        <time>2024-09-19T09:52:54Z</time>
      </trkpt>
      <trkpt lat="45.90804" lon="5.30991">
        <ele>281.2</ele>
        <time>2024-09-19T09:52:55Z</time>
      </trkpt>
      <trkpt lat="45.90802" lon="5.30994">
        <ele>281.2</ele>
        <time>2024-09-19T09:52:56Z</time>
      </trkpt>
      <trkpt lat="45.90801" lon="5.30998">
        <ele>280.6</ele>
        <time>2024-09-19T09:52:57Z</time>
      </trkpt>
      <trkpt lat="45.908" lon="5.31002">
        <ele>281</ele>
        <time>2024-09-19T09:52:58Z</time>
      </trkpt>
      <trkpt lat="45.90798" lon="5.31005">
        <ele>281.2</ele>
        <time>2024-09-19T09:52:59Z</time>
      </trkpt>
      <trkpt lat="45.90796" lon="5.31009">
        <ele>281.2</ele>
        <time>2024-09-19T09:53:00Z</time>
      </trkpt>
      <trkpt lat="45.90794" lon="5.31013">
        <ele>282</ele>
        <time>2024-09-19T09:53:01Z</time>
      </trkpt>
      <trkpt lat="45.90793" lon="5.31017">
        <ele>282.2</ele>
        <time>2024-09-19T09:53:02Z</time>
      </trkpt>
      <trkpt lat="45.90791" lon="5.31021">
        <ele>282.2</ele>
        <time>2024-09-19T09:53:03Z</time>
      </trkpt>
      <trkpt lat="45.90789" lon="5.31024">
        <ele>282.6</ele>
        <time>2024-09-19T09:53:04Z</time>
      </trkpt>
      <trkpt lat="45.90787" lon="5.31028">
        <ele>283.2</ele>
        <time>2024-09-19T09:53:05Z</time>
      </trkpt>
      <trkpt lat="45.90785" lon="5.31032">
        <ele>283.6</ele>
        <time>2024-09-19T09:53:06Z</time>
      </trkpt>
      <trkpt lat="45.90782" lon="5.31036">
        <ele>283.6</ele>
        <time>2024-09-19T09:53:07Z</time>
      </trkpt>
      <trkpt lat="45.9078" lon="5.31039">
        <ele>283.6</ele>
        <time>2024-09-19T09:53:08Z</time>
      </trkpt>
      <trkpt lat="45.90778" lon="5.31041">
        <ele>283.6</ele>
        <time>2024-09-19T09:53:09Z</time>
      </trkpt>
      <trkpt lat="45.90776" lon="5.31043">
        <ele>284</ele>
        <time>2024-09-19T09:53:10Z</time>
      </trkpt>
      <trkpt lat="45.90774" lon="5.31046">
        <ele>284</ele>
        <time>2024-09-19T09:53:11Z</time>
      </trkpt>
      <trkpt lat="45.90771" lon="5.31048">
        <ele>284.2</ele>
        <time>2024-09-19T09:53:12Z</time>
      </trkpt>
      <trkpt lat="45.90769" lon="5.31051">
        <ele>284.6</ele>
        <time>2024-09-19T09:53:13Z</time>
      </trkpt>
      <trkpt lat="45.90766" lon="5.31053">
        <ele>284.6</ele>
        <time>2024-09-19T09:53:14Z</time>
      </trkpt>
      <trkpt lat="45.90764" lon="5.31056">
        <ele>284.6</ele>
        <time>2024-09-19T09:53:15Z</time>
      </trkpt>
      <trkpt lat="45.90762" lon="5.31058">
        <ele>284.6</ele>
        <time>2024-09-19T09:53:16Z</time>
      </trkpt>
      <trkpt lat="45.90759" lon="5.3106">
        <ele>285</ele>
        <time>2024-09-19T09:53:17Z</time>
      </trkpt>
      <trkpt lat="45.90757" lon="5.31063">
        <ele>285</ele>
        <time>2024-09-19T09:53:18Z</time>
      </trkpt>
      <trkpt lat="45.90755" lon="5.31065">
        <ele>285</ele>
        <time>2024-09-19T09:53:19Z</time>
      </trkpt>
      <trkpt lat="45.90752" lon="5.31067">
        <ele>285.2</ele>
        <time>2024-09-19T09:53:20Z</time>
      </trkpt>
      <trkpt lat="45.90748" lon="5.3107">
        <ele>284.8</ele>
        <time>2024-09-19T09:53:21Z</time>
      </trkpt>
      <trkpt lat="45.90744" lon="5.31072">
        <ele>284.2</ele>
        <time>2024-09-19T09:53:22Z</time>
      </trkpt>
      <trkpt lat="45.90741" lon="5.31074">
        <ele>284.8</ele>
        <time>2024-09-19T09:53:23Z</time>
      </trkpt>
      <trkpt lat="45.90739" lon="5.31076">
        <ele>285</ele>
        <time>2024-09-19T09:53:24Z</time>
      </trkpt>
      <trkpt lat="45.90736" lon="5.31079">
        <ele>284.8</ele>
        <time>2024-09-19T09:53:25Z</time>
      </trkpt>
      <trkpt lat="45.90735" lon="5.31081">
        <ele>284.8</ele>
        <time>2024-09-19T09:53:26Z</time>
      </trkpt>
      <trkpt lat="45.90734" lon="5.31082">
        <ele>285.2</ele>
        <time>2024-09-19T09:53:27Z</time>
      </trkpt>
      <trkpt lat="45.90732" lon="5.31084">
        <ele>285.6</ele>
        <time>2024-09-19T09:53:28Z</time>
      </trkpt>
      <trkpt lat="45.9073" lon="5.31086">
        <ele>286.2</ele>
        <time>2024-09-19T09:53:29Z</time>
      </trkpt>
      <trkpt lat="45.90727" lon="5.31087">
        <ele>286.2</ele>
        <time>2024-09-19T09:53:30Z</time>
      </trkpt>
      <trkpt lat="45.90724" lon="5.31089">
        <ele>286.6</ele>
        <time>2024-09-19T09:53:31Z</time>
      </trkpt>
      <trkpt lat="45.90722" lon="5.3109">
        <ele>286.6</ele>
        <time>2024-09-19T09:53:32Z</time>
      </trkpt>
      <trkpt lat="45.9072" lon="5.31091">
        <ele>287</ele>
        <time>2024-09-19T09:53:33Z</time>
      </trkpt>
      <trkpt lat="45.90717" lon="5.31092">
        <ele>287</ele>
        <time>2024-09-19T09:53:34Z</time>
      </trkpt>
      <trkpt lat="45.90715" lon="5.31093">
        <ele>287.2</ele>
        <time>2024-09-19T09:53:35Z</time>
      </trkpt>
      <trkpt lat="45.90713" lon="5.31095">
        <ele>287.4</ele>
        <time>2024-09-19T09:53:36Z</time>
      </trkpt>
      <trkpt lat="45.90711" lon="5.31095">
        <ele>287</ele>
        <time>2024-09-19T09:53:37Z</time>
      </trkpt>
      <trkpt lat="45.90709" lon="5.31096">
        <ele>287.2</ele>
        <time>2024-09-19T09:53:38Z</time>
      </trkpt>
      <trkpt lat="45.90706" lon="5.31098">
        <ele>287.2</ele>
        <time>2024-09-19T09:53:39Z</time>
      </trkpt>
      <trkpt lat="45.90705" lon="5.31099">
        <ele>287.2</ele>
        <time>2024-09-19T09:53:40Z</time>
      </trkpt>
      <trkpt lat="45.90703" lon="5.311">
        <ele>287.8</ele>
        <time>2024-09-19T09:53:41Z</time>
      </trkpt>
      <trkpt lat="45.90701" lon="5.31102">
        <ele>287.8</ele>
        <time>2024-09-19T09:53:42Z</time>
      </trkpt>
      <trkpt lat="45.90699" lon="5.31104">
        <ele>288.2</ele>
        <time>2024-09-19T09:53:43Z</time>
      </trkpt>
      <trkpt lat="45.90697" lon="5.31105">
        <ele>288.2</ele>
        <time>2024-09-19T09:53:44Z</time>
      </trkpt>
      <trkpt lat="45.90696" lon="5.31106">
        <ele>288.4</ele>
        <time>2024-09-19T09:53:45Z</time>
      </trkpt>
      <trkpt lat="45.90694" lon="5.31108">
        <ele>288.4</ele>
        <time>2024-09-19T09:53:46Z</time>
      </trkpt>
      <trkpt lat="45.90693" lon="5.31111">
        <ele>288.4</ele>
        <time>2024-09-19T09:53:47Z</time>
      </trkpt>
      <trkpt lat="45.90691" lon="5.31114">
        <ele>288.6</ele>
        <time>2024-09-19T09:53:48Z</time>
      </trkpt>
      <trkpt lat="45.9069" lon="5.31117">
        <ele>289</ele>
        <time>2024-09-19T09:53:49Z</time>
      </trkpt>
      <trkpt lat="45.90688" lon="5.3112">
        <ele>289.4</ele>
        <time>2024-09-19T09:53:50Z</time>
      </trkpt>
      <trkpt lat="45.90686" lon="5.31122">
        <ele>289.4</ele>
        <time>2024-09-19T09:53:51Z</time>
      </trkpt>
      <trkpt lat="45.90685" lon="5.31124">
        <ele>289.8</ele>
        <time>2024-09-19T09:53:52Z</time>
      </trkpt>
      <trkpt lat="45.90684" lon="5.31125">
        <ele>289.8</ele>
        <time>2024-09-19T09:53:53Z</time>
      </trkpt>
      <trkpt lat="45.90682" lon="5.31126">
        <ele>290</ele>
        <time>2024-09-19T09:53:54Z</time>
      </trkpt>
      <trkpt lat="45.90682" lon="5.31126">
        <ele>290</ele>
        <time>2024-09-19T09:53:55Z</time>
      </trkpt>
      <trkpt lat="45.90681" lon="5.31125">
        <ele>290.2</ele>
        <time>2024-09-19T09:53:56Z</time>
      </trkpt>
      <trkpt lat="45.90681" lon="5.31126">
        <ele>290.2</ele>
        <time>2024-09-19T09:53:57Z</time>
      </trkpt>
      <trkpt lat="45.90681" lon="5.31131">
        <ele>290.4</ele>
        <time>2024-09-19T09:54:08Z</time>
      </trkpt>
      <trkpt lat="45.90681" lon="5.31134">
        <ele>290.4</ele>
        <time>2024-09-19T09:54:09Z</time>
      </trkpt>
      <trkpt lat="45.90681" lon="5.31136">
        <ele>290.4</ele>
        <time>2024-09-19T09:54:10Z</time>
      </trkpt>
      <trkpt lat="45.90681" lon="5.31139">
        <ele>290.4</ele>
        <time>2024-09-19T09:54:11Z</time>
      </trkpt>
      <trkpt lat="45.90681" lon="5.31142">
        <ele>290.2</ele>
        <time>2024-09-19T09:54:12Z</time>
      </trkpt>
      <trkpt lat="45.9068" lon="5.31145">
        <ele>290.2</ele>
        <time>2024-09-19T09:54:13Z</time>
      </trkpt>
      <trkpt lat="45.9068" lon="5.31147">
        <ele>290.2</ele>
        <time>2024-09-19T09:54:14Z</time>
      </trkpt>
      <trkpt lat="45.90678" lon="5.3115">
        <ele>290.2</ele>
        <time>2024-09-19T09:54:15Z</time>
      </trkpt>
      <trkpt lat="45.90678" lon="5.31151">
        <ele>290.6</ele>
        <time>2024-09-19T09:54:16Z</time>
      </trkpt>
      <trkpt lat="45.90677" lon="5.31151">
        <ele>290.6</ele>
        <time>2024-09-19T09:54:17Z</time>
      </trkpt>
      <trkpt lat="45.90677" lon="5.31151">
        <ele>290.8</ele>
        <time>2024-09-19T09:54:18Z</time>
      </trkpt>
      <trkpt lat="45.90678" lon="5.31151">
        <ele>290.8</ele>
        <time>2024-09-19T09:54:19Z</time>
      </trkpt>
      <trkpt lat="45.90678" lon="5.31152">
        <ele>291.2</ele>
        <time>2024-09-19T09:55:37Z</time>
      </trkpt>
      <trkpt lat="45.90679" lon="5.31154">
        <ele>291.2</ele>
        <time>2024-09-19T09:55:38Z</time>
      </trkpt>
      <trkpt lat="45.9068" lon="5.31156">
        <ele>291</ele>
        <time>2024-09-19T09:55:39Z</time>
      </trkpt>
      <trkpt lat="45.9068" lon="5.31159">
        <ele>291</ele>
        <time>2024-09-19T09:55:40Z</time>
      </trkpt>
      <trkpt lat="45.9068" lon="5.31162">
        <ele>291</ele>
        <time>2024-09-19T09:55:41Z</time>
      </trkpt>
      <trkpt lat="45.9068" lon="5.31165">
        <ele>291.2</ele>
        <time>2024-09-19T09:55:42Z</time>
      </trkpt>
      <trkpt lat="45.90681" lon="5.31169">
        <ele>291.2</ele>
        <time>2024-09-19T09:55:43Z</time>
      </trkpt>
      <trkpt lat="45.90681" lon="5.31171">
        <ele>291.2</ele>
        <time>2024-09-19T09:55:44Z</time>
      </trkpt>
      <trkpt lat="45.90682" lon="5.31174">
        <ele>291.2</ele>
        <time>2024-09-19T09:55:45Z</time>
      </trkpt>
      <trkpt lat="45.90682" lon="5.31177">
        <ele>291.8</ele>
        <time>2024-09-19T09:55:46Z</time>
      </trkpt>
      <trkpt lat="45.90683" lon="5.3118">
        <ele>292</ele>
        <time>2024-09-19T09:55:47Z</time>
      </trkpt>
      <trkpt lat="45.90684" lon="5.31182">
        <ele>292.4</ele>
        <time>2024-09-19T09:55:48Z</time>
      </trkpt>
      <trkpt lat="45.90685" lon="5.31184">
        <ele>292.6</ele>
        <time>2024-09-19T09:55:49Z</time>
      </trkpt>
      <trkpt lat="45.90686" lon="5.31186">
        <ele>293</ele>
        <time>2024-09-19T09:55:50Z</time>
      </trkpt>
      <trkpt lat="45.90688" lon="5.31188">
        <ele>293.2</ele>
        <time>2024-09-19T09:55:51Z</time>
      </trkpt>
      <trkpt lat="45.9069" lon="5.3119">
        <ele>292.8</ele>
        <time>2024-09-19T09:55:52Z</time>
      </trkpt>
      <trkpt lat="45.90691" lon="5.31191">
        <ele>292.8</ele>
        <time>2024-09-19T09:55:53Z</time>
      </trkpt>
      <trkpt lat="45.90693" lon="5.31194">
        <ele>292.8</ele>
        <time>2024-09-19T09:55:54Z</time>
      </trkpt>
      <trkpt lat="45.90694" lon="5.31196">
        <ele>292.8</ele>
        <time>2024-09-19T09:55:55Z</time>
      </trkpt>
      <trkpt lat="45.90695" lon="5.31199">
        <ele>293</ele>
        <time>2024-09-19T09:55:56Z</time>
      </trkpt>
      <trkpt lat="45.90697" lon="5.31201">
        <ele>292.8</ele>
        <time>2024-09-19T09:55:57Z</time>
      </trkpt>
      <trkpt lat="45.90698" lon="5.31203">
        <ele>292.8</ele>
        <time>2024-09-19T09:55:58Z</time>
      </trkpt>
      <trkpt lat="45.90699" lon="5.31206">
        <ele>293.8</ele>
        <time>2024-09-19T09:55:59Z</time>
      </trkpt>
      <trkpt lat="45.907" lon="5.31207">
        <ele>294.4</ele>
        <time>2024-09-19T09:56:00Z</time>
      </trkpt>
      <trkpt lat="45.90701" lon="5.3121">
        <ele>295</ele>
        <time>2024-09-19T09:56:01Z</time>
      </trkpt>
      <trkpt lat="45.90702" lon="5.31212">
        <ele>295.2</ele>
        <time>2024-09-19T09:56:02Z</time>
      </trkpt>
      <trkpt lat="45.90703" lon="5.31215">
        <ele>295.4</ele>
        <time>2024-09-19T09:56:03Z</time>
      </trkpt>
      <trkpt lat="45.90704" lon="5.31217">
        <ele>295.4</ele>
        <time>2024-09-19T09:56:04Z</time>
      </trkpt>
      <trkpt lat="45.90705" lon="5.31218">
        <ele>295.4</ele>
        <time>2024-09-19T09:56:05Z</time>
      </trkpt>
      <trkpt lat="45.90706" lon="5.3122">
        <ele>295.4</ele>
        <time>2024-09-19T09:56:06Z</time>
      </trkpt>
      <trkpt lat="45.90707" lon="5.31222">
        <ele>296</ele>
        <time>2024-09-19T09:56:07Z</time>
      </trkpt>
      <trkpt lat="45.90708" lon="5.31224">
        <ele>296.4</ele>
        <time>2024-09-19T09:56:08Z</time>
      </trkpt>
      <trkpt lat="45.90709" lon="5.31226">
        <ele>296.8</ele>
        <time>2024-09-19T09:56:09Z</time>
      </trkpt>
      <trkpt lat="45.9071" lon="5.31227">
        <ele>296.8</ele>
        <time>2024-09-19T09:56:10Z</time>
      </trkpt>
      <trkpt lat="45.9071" lon="5.31229">
        <ele>296.8</ele>
        <time>2024-09-19T09:56:11Z</time>
      </trkpt>
      <trkpt lat="45.9071" lon="5.31232">
        <ele>297.2</ele>
        <time>2024-09-19T09:56:12Z</time>
      </trkpt>
      <trkpt lat="45.9071" lon="5.31235">
        <ele>297.4</ele>
        <time>2024-09-19T09:56:13Z</time>
      </trkpt>
      <trkpt lat="45.90709" lon="5.31238">
        <ele>297.4</ele>
        <time>2024-09-19T09:56:14Z</time>
      </trkpt>
      <trkpt lat="45.90709" lon="5.3124">
        <ele>297.6</ele>
        <time>2024-09-19T09:56:15Z</time>
      </trkpt>
      <trkpt lat="45.90709" lon="5.31243">
        <ele>297.8</ele>
        <time>2024-09-19T09:56:16Z</time>
      </trkpt>
      <trkpt lat="45.90709" lon="5.31246">
        <ele>298</ele>
        <time>2024-09-19T09:56:17Z</time>
      </trkpt>
      <trkpt lat="45.90709" lon="5.31249">
        <ele>298.2</ele>
        <time>2024-09-19T09:56:18Z</time>
      </trkpt>
      <trkpt lat="45.90709" lon="5.31251">
        <ele>298.6</ele>
        <time>2024-09-19T09:56:19Z</time>
      </trkpt>
      <trkpt lat="45.90709" lon="5.31254">
        <ele>298.8</ele>
        <time>2024-09-19T09:56:20Z</time>
      </trkpt>
      <trkpt lat="45.90709" lon="5.31257">
        <ele>299</ele>
        <time>2024-09-19T09:56:21Z</time>
      </trkpt>
      <trkpt lat="45.90709" lon="5.3126">
        <ele>299</ele>
        <time>2024-09-19T09:56:22Z</time>
      </trkpt>
      <trkpt lat="45.9071" lon="5.31262">
        <ele>298.8</ele>
        <time>2024-09-19T09:56:23Z</time>
      </trkpt>
      <trkpt lat="45.9071" lon="5.31265">
        <ele>298.8</ele>
        <time>2024-09-19T09:56:24Z</time>
      </trkpt>
      <trkpt lat="45.9071" lon="5.31267">
        <ele>298.8</ele>
        <time>2024-09-19T09:56:25Z</time>
      </trkpt>
      <trkpt lat="45.90711" lon="5.3127">
        <ele>298.8</ele>
        <time>2024-09-19T09:56:26Z</time>
      </trkpt>
      <trkpt lat="45.90712" lon="5.31273">
        <ele>299.2</ele>
        <time>2024-09-19T09:56:27Z</time>
      </trkpt>
      <trkpt lat="45.90712" lon="5.31275">
        <ele>299.4</ele>
        <time>2024-09-19T09:56:28Z</time>
      </trkpt>
      <trkpt lat="45.90712" lon="5.31279">
        <ele>299.6</ele>
        <time>2024-09-19T09:56:29Z</time>
      </trkpt>
      <trkpt lat="45.90713" lon="5.31282">
        <ele>299.4</ele>
        <time>2024-09-19T09:56:30Z</time>
      </trkpt>
      <trkpt lat="45.90713" lon="5.31286">
        <ele>299.4</ele>
        <time>2024-09-19T09:56:31Z</time>
      </trkpt>
      <trkpt lat="45.90713" lon="5.31289">
        <ele>299.4</ele>
        <time>2024-09-19T09:56:32Z</time>
      </trkpt>
      <trkpt lat="45.90713" lon="5.31293">
        <ele>299.6</ele>
        <time>2024-09-19T09:56:33Z</time>
      </trkpt>
      <trkpt lat="45.90713" lon="5.31296">
        <ele>299.6</ele>
        <time>2024-09-19T09:56:34Z</time>
      </trkpt>
      <trkpt lat="45.90713" lon="5.31301">
        <ele>299.6</ele>
        <time>2024-09-19T09:56:35Z</time>
      </trkpt>
      <trkpt lat="45.90711" lon="5.31306">
        <ele>299.6</ele>
        <time>2024-09-19T09:56:36Z</time>
      </trkpt>
      <trkpt lat="45.9071" lon="5.31311">
        <ele>299.6</ele>
        <time>2024-09-19T09:56:37Z</time>
      </trkpt>
      <trkpt lat="45.90709" lon="5.31315">
        <ele>299.6</ele>
        <time>2024-09-19T09:56:38Z</time>
      </trkpt>
      <trkpt lat="45.90708" lon="5.31319">
        <ele>299.6</ele>
        <time>2024-09-19T09:56:39Z</time>
      </trkpt>
      <trkpt lat="45.90708" lon="5.31323">
        <ele>300</ele>
        <time>2024-09-19T09:56:40Z</time>
      </trkpt>
      <trkpt lat="45.90707" lon="5.31327">
        <ele>300</ele>
        <time>2024-09-19T09:56:41Z</time>
      </trkpt>
      <trkpt lat="45.90706" lon="5.31331">
        <ele>300.2</ele>
        <time>2024-09-19T09:56:42Z</time>
      </trkpt>
      <trkpt lat="45.90706" lon="5.31335">
        <ele>300.2</ele>
        <time>2024-09-19T09:56:43Z</time>
      </trkpt>
      <trkpt lat="45.90705" lon="5.31338">
        <ele>300.6</ele>
        <time>2024-09-19T09:56:44Z</time>
      </trkpt>
      <trkpt lat="45.90704" lon="5.31341">
        <ele>300.6</ele>
        <time>2024-09-19T09:56:45Z</time>
      </trkpt>
      <trkpt lat="45.90703" lon="5.31345">
        <ele>300.6</ele>
        <time>2024-09-19T09:56:46Z</time>
      </trkpt>
      <trkpt lat="45.90703" lon="5.31349">
        <ele>300.6</ele>
        <time>2024-09-19T09:56:47Z</time>
      </trkpt>
      <trkpt lat="45.90702" lon="5.31351">
        <ele>301</ele>
        <time>2024-09-19T09:56:48Z</time>
      </trkpt>
      <trkpt lat="45.90701" lon="5.31353">
        <ele>301.2</ele>
        <time>2024-09-19T09:56:49Z</time>
      </trkpt>
      <trkpt lat="45.907" lon="5.31356">
        <ele>301.4</ele>
        <time>2024-09-19T09:56:50Z</time>
      </trkpt>
      <trkpt lat="45.907" lon="5.31358">
        <ele>301.4</ele>
        <time>2024-09-19T09:56:51Z</time>
      </trkpt>
      <trkpt lat="45.907" lon="5.3136">
        <ele>301.8</ele>
        <time>2024-09-19T09:56:52Z</time>
      </trkpt>
      <trkpt lat="45.90699" lon="5.31362">
        <ele>302</ele>
        <time>2024-09-19T09:56:53Z</time>
      </trkpt>
      <trkpt lat="45.90697" lon="5.31364">
        <ele>302.4</ele>
        <time>2024-09-19T09:56:54Z</time>
      </trkpt>
      <trkpt lat="45.90696" lon="5.31367">
        <ele>302.8</ele>
        <time>2024-09-19T09:56:55Z</time>
      </trkpt>
      <trkpt lat="45.90695" lon="5.3137">
        <ele>303</ele>
        <time>2024-09-19T09:56:56Z</time>
      </trkpt>
      <trkpt lat="45.90694" lon="5.31372">
        <ele>303.2</ele>
        <time>2024-09-19T09:56:57Z</time>
      </trkpt>
      <trkpt lat="45.90693" lon="5.31375">
        <ele>303.4</ele>
        <time>2024-09-19T09:56:58Z</time>
      </trkpt>
      <trkpt lat="45.90692" lon="5.31378">
        <ele>303.8</ele>
        <time>2024-09-19T09:56:59Z</time>
      </trkpt>
      <trkpt lat="45.90691" lon="5.3138">
        <ele>304</ele>
        <time>2024-09-19T09:57:00Z</time>
      </trkpt>
      <trkpt lat="45.9069" lon="5.31382">
        <ele>304</ele>
        <time>2024-09-19T09:57:01Z</time>
      </trkpt>
      <trkpt lat="45.90689" lon="5.31383">
        <ele>304.4</ele>
        <time>2024-09-19T09:57:02Z</time>
      </trkpt>
      <trkpt lat="45.90688" lon="5.31385">
        <ele>304.6</ele>
        <time>2024-09-19T09:57:03Z</time>
      </trkpt>
      <trkpt lat="45.90688" lon="5.31386">
        <ele>305</ele>
        <time>2024-09-19T09:57:04Z</time>
      </trkpt>
      <trkpt lat="45.90688" lon="5.31387">
        <ele>305.2</ele>
        <time>2024-09-19T09:57:05Z</time>
      </trkpt>
      <trkpt lat="45.90687" lon="5.3139">
        <ele>305.2</ele>
        <time>2024-09-19T09:57:06Z</time>
      </trkpt>
      <trkpt lat="45.90686" lon="5.31393">
        <ele>305.6</ele>
        <time>2024-09-19T09:57:07Z</time>
      </trkpt>
      <trkpt lat="45.90685" lon="5.31394">
        <ele>305.6</ele>
        <time>2024-09-19T09:57:08Z</time>
      </trkpt>
      <trkpt lat="45.90684" lon="5.31396">
        <ele>305.8</ele>
        <time>2024-09-19T09:57:09Z</time>
      </trkpt>
      <trkpt lat="45.90683" lon="5.31399">
        <ele>305.8</ele>
        <time>2024-09-19T09:57:10Z</time>
      </trkpt>
      <trkpt lat="45.90682" lon="5.314">
        <ele>306.4</ele>
        <time>2024-09-19T09:57:11Z</time>
      </trkpt>
      <trkpt lat="45.90681" lon="5.31403">
        <ele>306.6</ele>
        <time>2024-09-19T09:57:12Z</time>
      </trkpt>
      <trkpt lat="45.90681" lon="5.31404">
        <ele>306.6</ele>
        <time>2024-09-19T09:57:13Z</time>
      </trkpt>
      <trkpt lat="45.90681" lon="5.31405">
        <ele>307</ele>
        <time>2024-09-19T09:57:14Z</time>
      </trkpt>
      <trkpt lat="45.90681" lon="5.31408">
        <ele>307</ele>
        <time>2024-09-19T09:57:15Z</time>
      </trkpt>
      <trkpt lat="45.90681" lon="5.31411">
        <ele>307.2</ele>
        <time>2024-09-19T09:57:16Z</time>
      </trkpt>
      <trkpt lat="45.90681" lon="5.31413">
        <ele>306.6</ele>
        <time>2024-09-19T09:57:17Z</time>
      </trkpt>
      <trkpt lat="45.9068" lon="5.31416">
        <ele>307.2</ele>
        <time>2024-09-19T09:57:18Z</time>
      </trkpt>
      <trkpt lat="45.9068" lon="5.31419">
        <ele>307.2</ele>
        <time>2024-09-19T09:57:19Z</time>
      </trkpt>
      <trkpt lat="45.9068" lon="5.31421">
        <ele>307.2</ele>
        <time>2024-09-19T09:57:20Z</time>
      </trkpt>
      <trkpt lat="45.9068" lon="5.31422">
        <ele>307.4</ele>
        <time>2024-09-19T09:57:21Z</time>
      </trkpt>
      <trkpt lat="45.90679" lon="5.31424">
        <ele>306.8</ele>
        <time>2024-09-19T09:57:22Z</time>
      </trkpt>
      <trkpt lat="45.90679" lon="5.31426">
        <ele>307.4</ele>
        <time>2024-09-19T09:57:23Z</time>
      </trkpt>
      <trkpt lat="45.90679" lon="5.31428">
        <ele>307.4</ele>
        <time>2024-09-19T09:57:24Z</time>
      </trkpt>
      <trkpt lat="45.9068" lon="5.31431">
        <ele>307.6</ele>
        <time>2024-09-19T09:57:25Z</time>
      </trkpt>
      <trkpt lat="45.9068" lon="5.31434">
        <ele>307.6</ele>
        <time>2024-09-19T09:57:26Z</time>
      </trkpt>
      <trkpt lat="45.9068" lon="5.31438">
        <ele>307.4</ele>
        <time>2024-09-19T09:57:27Z</time>
      </trkpt>
      <trkpt lat="45.90679" lon="5.31442">
        <ele>307.4</ele>
        <time>2024-09-19T09:57:28Z</time>
      </trkpt>
      <trkpt lat="45.90678" lon="5.31447">
        <ele>307</ele>
        <time>2024-09-19T09:57:29Z</time>
      </trkpt>
      <trkpt lat="45.90677" lon="5.31453">
        <ele>306.6</ele>
        <time>2024-09-19T09:57:30Z</time>
      </trkpt>
      <trkpt lat="45.90676" lon="5.31458">
        <ele>306.6</ele>
        <time>2024-09-19T09:57:31Z</time>
      </trkpt>
      <trkpt lat="45.90674" lon="5.31464">
        <ele>306.4</ele>
        <time>2024-09-19T09:57:32Z</time>
      </trkpt>
      <trkpt lat="45.90671" lon="5.31472">
        <ele>306.4</ele>
        <time>2024-09-19T09:57:33Z</time>
      </trkpt>
      <trkpt lat="45.90668" lon="5.31478">
        <ele>306</ele>
        <time>2024-09-19T09:57:34Z</time>
      </trkpt>
      <trkpt lat="45.90667" lon="5.31482">
        <ele>305.8</ele>
        <time>2024-09-19T09:57:35Z</time>
      </trkpt>
      <trkpt lat="45.90664" lon="5.31488">
        <ele>305.8</ele>
        <time>2024-09-19T09:57:36Z</time>
      </trkpt>
      <trkpt lat="45.90664" lon="5.31492">
        <ele>305.8</ele>
        <time>2024-09-19T09:57:37Z</time>
      </trkpt>
      <trkpt lat="45.90661" lon="5.31496">
        <ele>305.6</ele>
        <time>2024-09-19T09:57:38Z</time>
      </trkpt>
      <trkpt lat="45.90658" lon="5.31499">
        <ele>305.6</ele>
        <time>2024-09-19T09:57:39Z</time>
      </trkpt>
      <trkpt lat="45.90657" lon="5.31504">
        <ele>305.6</ele>
        <time>2024-09-19T09:57:40Z</time>
      </trkpt>
      <trkpt lat="45.90654" lon="5.31508">
        <ele>305.8</ele>
        <time>2024-09-19T09:57:41Z</time>
      </trkpt>
      <trkpt lat="45.90652" lon="5.31514">
        <ele>305.8</ele>
        <time>2024-09-19T09:57:42Z</time>
      </trkpt>
      <trkpt lat="45.90651" lon="5.31518">
        <ele>304.4</ele>
        <time>2024-09-19T09:57:43Z</time>
      </trkpt>
      <trkpt lat="45.90649" lon="5.31523">
        <ele>304.8</ele>
        <time>2024-09-19T09:57:44Z</time>
      </trkpt>
      <trkpt lat="45.90652" lon="5.31526">
        <ele>305</ele>
        <time>2024-09-19T09:57:45Z</time>
      </trkpt>
      <trkpt lat="45.9065" lon="5.31532">
        <ele>305</ele>
        <time>2024-09-19T09:57:46Z</time>
      </trkpt>
      <trkpt lat="45.90647" lon="5.31536">
        <ele>305.6</ele>
        <time>2024-09-19T09:57:47Z</time>
      </trkpt>
      <trkpt lat="45.90644" lon="5.31539">
        <ele>305.6</ele>
        <time>2024-09-19T09:57:48Z</time>
      </trkpt>
      <trkpt lat="45.90642" lon="5.31543">
        <ele>305.8</ele>
        <time>2024-09-19T09:57:49Z</time>
      </trkpt>
      <trkpt lat="45.90635" lon="5.31551">
        <ele>305.8</ele>
        <time>2024-09-19T09:57:50Z</time>
      </trkpt>
      <trkpt lat="45.90632" lon="5.31557">
        <ele>305.8</ele>
        <time>2024-09-19T09:57:51Z</time>
      </trkpt>
      <trkpt lat="45.90632" lon="5.31561">
        <ele>305.8</ele>
        <time>2024-09-19T09:57:52Z</time>
      </trkpt>
      <trkpt lat="45.9063" lon="5.31566">
        <ele>305.8</ele>
        <time>2024-09-19T09:57:53Z</time>
      </trkpt>
      <trkpt lat="45.90631" lon="5.31571">
        <ele>306.2</ele>
        <time>2024-09-19T09:57:54Z</time>
      </trkpt>
      <trkpt lat="45.90628" lon="5.31576">
        <ele>306</ele>
        <time>2024-09-19T09:57:55Z</time>
      </trkpt>
      <trkpt lat="45.90627" lon="5.31581">
        <ele>306.2</ele>
        <time>2024-09-19T09:57:56Z</time>
      </trkpt>
      <trkpt lat="45.90626" lon="5.31586">
        <ele>306.2</ele>
        <time>2024-09-19T09:57:57Z</time>
      </trkpt>
      <trkpt lat="45.90625" lon="5.31591">
        <ele>306.4</ele>
        <time>2024-09-19T09:57:58Z</time>
      </trkpt>
      <trkpt lat="45.90622" lon="5.31597">
        <ele>306.4</ele>
        <time>2024-09-19T09:57:59Z</time>
      </trkpt>
      <trkpt lat="45.9062" lon="5.31601">
        <ele>306.8</ele>
        <time>2024-09-19T09:58:00Z</time>
      </trkpt>
      <trkpt lat="45.90617" lon="5.31605">
        <ele>306.8</ele>
        <time>2024-09-19T09:58:01Z</time>
      </trkpt>
      <trkpt lat="45.90615" lon="5.31608">
        <ele>306.8</ele>
        <time>2024-09-19T09:58:02Z</time>
      </trkpt>
      <trkpt lat="45.90613" lon="5.31612">
        <ele>307</ele>
        <time>2024-09-19T09:58:03Z</time>
      </trkpt>
      <trkpt lat="45.90611" lon="5.31616">
        <ele>306.6</ele>
        <time>2024-09-19T09:58:04Z</time>
      </trkpt>
      <trkpt lat="45.90609" lon="5.3162">
        <ele>307.2</ele>
        <time>2024-09-19T09:58:05Z</time>
      </trkpt>
      <trkpt lat="45.90608" lon="5.31624">
        <ele>307.4</ele>
        <time>2024-09-19T09:58:06Z</time>
      </trkpt>
      <trkpt lat="45.90605" lon="5.3163">
        <ele>307.4</ele>
        <time>2024-09-19T09:58:07Z</time>
      </trkpt>
      <trkpt lat="45.90603" lon="5.31634">
        <ele>307.6</ele>
        <time>2024-09-19T09:58:08Z</time>
      </trkpt>
      <trkpt lat="45.90602" lon="5.31638">
        <ele>307.6</ele>
        <time>2024-09-19T09:58:09Z</time>
      </trkpt>
      <trkpt lat="45.90601" lon="5.31642">
        <ele>307.6</ele>
        <time>2024-09-19T09:58:10Z</time>
      </trkpt>
      <trkpt lat="45.90599" lon="5.31646">
        <ele>307.6</ele>
        <time>2024-09-19T09:58:11Z</time>
      </trkpt>
      <trkpt lat="45.90598" lon="5.3165">
        <ele>308</ele>
        <time>2024-09-19T09:58:12Z</time>
      </trkpt>
      <trkpt lat="45.90596" lon="5.31654">
        <ele>308</ele>
        <time>2024-09-19T09:58:13Z</time>
      </trkpt>
      <trkpt lat="45.90595" lon="5.3166">
        <ele>308</ele>
        <time>2024-09-19T09:58:14Z</time>
      </trkpt>
      <trkpt lat="45.90593" lon="5.31665">
        <ele>308.4</ele>
        <time>2024-09-19T09:58:15Z</time>
      </trkpt>
      <trkpt lat="45.90593" lon="5.3167">
        <ele>308.4</ele>
        <time>2024-09-19T09:58:16Z</time>
      </trkpt>
      <trkpt lat="45.90591" lon="5.31674">
        <ele>308.4</ele>
        <time>2024-09-19T09:58:17Z</time>
      </trkpt>
      <trkpt lat="45.90589" lon="5.31676">
        <ele>308.4</ele>
        <time>2024-09-19T09:58:18Z</time>
      </trkpt>
      <trkpt lat="45.90589" lon="5.3168">
        <ele>308.4</ele>
        <time>2024-09-19T09:58:19Z</time>
      </trkpt>
      <trkpt lat="45.90587" lon="5.31684">
        <ele>308.4</ele>
        <time>2024-09-19T09:58:20Z</time>
      </trkpt>
      <trkpt lat="45.90585" lon="5.31689">
        <ele>308.6</ele>
        <time>2024-09-19T09:58:21Z</time>
      </trkpt>
      <trkpt lat="45.90584" lon="5.31694">
        <ele>308.6</ele>
        <time>2024-09-19T09:58:22Z</time>
      </trkpt>
      <trkpt lat="45.90582" lon="5.31698">
        <ele>308.8</ele>
        <time>2024-09-19T09:58:23Z</time>
      </trkpt>
      <trkpt lat="45.90579" lon="5.31703">
        <ele>309.2</ele>
        <time>2024-09-19T09:58:24Z</time>
      </trkpt>
      <trkpt lat="45.90577" lon="5.31708">
        <ele>309.4</ele>
        <time>2024-09-19T09:58:25Z</time>
      </trkpt>
      <trkpt lat="45.90577" lon="5.31708">
        <ele>309.4</ele>
        <time>2024-09-19T09:58:26Z</time>
      </trkpt>
      <trkpt lat="45.90576" lon="5.31713">
        <ele>309.8</ele>
        <time>2024-09-19T09:58:27Z</time>
      </trkpt>
      <trkpt lat="45.90575" lon="5.31718">
        <ele>309.8</ele>
        <time>2024-09-19T09:58:28Z</time>
      </trkpt>
      <trkpt lat="45.90575" lon="5.31724">
        <ele>310</ele>
        <time>2024-09-19T09:58:29Z</time>
      </trkpt>
      <trkpt lat="45.90575" lon="5.31728">
        <ele>310.2</ele>
        <time>2024-09-19T09:58:30Z</time>
      </trkpt>
      <trkpt lat="45.90575" lon="5.31733">
        <ele>310.6</ele>
        <time>2024-09-19T09:58:31Z</time>
      </trkpt>
      <trkpt lat="45.90574" lon="5.31736">
        <ele>310.8</ele>
        <time>2024-09-19T09:58:32Z</time>
      </trkpt>
      <trkpt lat="45.90574" lon="5.3174">
        <ele>310.8</ele>
        <time>2024-09-19T09:58:33Z</time>
      </trkpt>
      <trkpt lat="45.90573" lon="5.31744">
        <ele>311.2</ele>
        <time>2024-09-19T09:58:34Z</time>
      </trkpt>
      <trkpt lat="45.90573" lon="5.31746">
        <ele>311.2</ele>
        <time>2024-09-19T09:58:35Z</time>
      </trkpt>
      <trkpt lat="45.90573" lon="5.3175">
        <ele>311.6</ele>
        <time>2024-09-19T09:58:36Z</time>
      </trkpt>
      <trkpt lat="45.90572" lon="5.31753">
        <ele>311.8</ele>
        <time>2024-09-19T09:58:37Z</time>
      </trkpt>
      <trkpt lat="45.90571" lon="5.3176">
        <ele>311.8</ele>
        <time>2024-09-19T09:58:38Z</time>
      </trkpt>
      <trkpt lat="45.90571" lon="5.31763">
        <ele>312.2</ele>
        <time>2024-09-19T09:58:39Z</time>
      </trkpt>
      <trkpt lat="45.9057" lon="5.31768">
        <ele>312.2</ele>
        <time>2024-09-19T09:58:40Z</time>
      </trkpt>
      <trkpt lat="45.9057" lon="5.31772">
        <ele>312.6</ele>
        <time>2024-09-19T09:58:41Z</time>
      </trkpt>
      <trkpt lat="45.9057" lon="5.31776">
        <ele>312.6</ele>
        <time>2024-09-19T09:58:42Z</time>
      </trkpt>
      <trkpt lat="45.9057" lon="5.31778">
        <ele>312.6</ele>
        <time>2024-09-19T09:58:43Z</time>
      </trkpt>
      <trkpt lat="45.9057" lon="5.31781">
        <ele>313</ele>
        <time>2024-09-19T09:58:44Z</time>
      </trkpt>
      <trkpt lat="45.90569" lon="5.31785">
        <ele>313</ele>
        <time>2024-09-19T09:58:45Z</time>
      </trkpt>
      <trkpt lat="45.90569" lon="5.31788">
        <ele>313.4</ele>
        <time>2024-09-19T09:58:46Z</time>
      </trkpt>
      <trkpt lat="45.90569" lon="5.31791">
        <ele>313.4</ele>
        <time>2024-09-19T09:58:47Z</time>
      </trkpt>
      <trkpt lat="45.90569" lon="5.31794">
        <ele>313.6</ele>
        <time>2024-09-19T09:58:48Z</time>
      </trkpt>
      <trkpt lat="45.90568" lon="5.31797">
        <ele>313.6</ele>
        <time>2024-09-19T09:58:49Z</time>
      </trkpt>
      <trkpt lat="45.90568" lon="5.31801">
        <ele>314</ele>
        <time>2024-09-19T09:58:50Z</time>
      </trkpt>
      <trkpt lat="45.90567" lon="5.31806">
        <ele>314.2</ele>
        <time>2024-09-19T09:58:51Z</time>
      </trkpt>
      <trkpt lat="45.90566" lon="5.31811">
        <ele>314.2</ele>
        <time>2024-09-19T09:58:52Z</time>
      </trkpt>
      <trkpt lat="45.90566" lon="5.31815">
        <ele>314.4</ele>
        <time>2024-09-19T09:58:53Z</time>
      </trkpt>
      <trkpt lat="45.90566" lon="5.31819">
        <ele>314.4</ele>
        <time>2024-09-19T09:58:54Z</time>
      </trkpt>
      <trkpt lat="45.90565" lon="5.31824">
        <ele>314.4</ele>
        <time>2024-09-19T09:58:55Z</time>
      </trkpt>
      <trkpt lat="45.90565" lon="5.31829">
        <ele>314.4</ele>
        <time>2024-09-19T09:58:56Z</time>
      </trkpt>
      <trkpt lat="45.90563" lon="5.31834">
        <ele>314.4</ele>
        <time>2024-09-19T09:58:57Z</time>
      </trkpt>
      <trkpt lat="45.90562" lon="5.31839">
        <ele>314.4</ele>
        <time>2024-09-19T09:58:58Z</time>
      </trkpt>
      <trkpt lat="45.90561" lon="5.31844">
        <ele>314.4</ele>
        <time>2024-09-19T09:58:59Z</time>
      </trkpt>
      <trkpt lat="45.90561" lon="5.31849">
        <ele>314.2</ele>
        <time>2024-09-19T09:59:00Z</time>
      </trkpt>
      <trkpt lat="45.90561" lon="5.31854">
        <ele>314.2</ele>
        <time>2024-09-19T09:59:01Z</time>
      </trkpt>
      <trkpt lat="45.90564" lon="5.31864">
        <ele>314</ele>
        <time>2024-09-19T09:59:02Z</time>
      </trkpt>
      <trkpt lat="45.90564" lon="5.31872">
        <ele>313.4</ele>
        <time>2024-09-19T09:59:03Z</time>
      </trkpt>
      <trkpt lat="45.90562" lon="5.31877">
        <ele>313</ele>
        <time>2024-09-19T09:59:04Z</time>
      </trkpt>
      <trkpt lat="45.90561" lon="5.31884">
        <ele>312.8</ele>
        <time>2024-09-19T09:59:05Z</time>
      </trkpt>
      <trkpt lat="45.90561" lon="5.31889">
        <ele>313.2</ele>
        <time>2024-09-19T09:59:06Z</time>
      </trkpt>
      <trkpt lat="45.9056" lon="5.31894">
        <ele>313.2</ele>
        <time>2024-09-19T09:59:07Z</time>
      </trkpt>
      <trkpt lat="45.90559" lon="5.31901">
        <ele>313.2</ele>
        <time>2024-09-19T09:59:08Z</time>
      </trkpt>
      <trkpt lat="45.90558" lon="5.31909">
        <ele>312.8</ele>
        <time>2024-09-19T09:59:09Z</time>
      </trkpt>
      <trkpt lat="45.90558" lon="5.31915">
        <ele>311.8</ele>
        <time>2024-09-19T09:59:10Z</time>
      </trkpt>
      <trkpt lat="45.90556" lon="5.31923">
        <ele>312.6</ele>
        <time>2024-09-19T09:59:11Z</time>
      </trkpt>
      <trkpt lat="45.90555" lon="5.3193">
        <ele>312.6</ele>
        <time>2024-09-19T09:59:12Z</time>
      </trkpt>
      <trkpt lat="45.90554" lon="5.31937">
        <ele>312</ele>
        <time>2024-09-19T09:59:13Z</time>
      </trkpt>
      <trkpt lat="45.90552" lon="5.31944">
        <ele>311.6</ele>
        <time>2024-09-19T09:59:14Z</time>
      </trkpt>
      <trkpt lat="45.90551" lon="5.31951">
        <ele>311.6</ele>
        <time>2024-09-19T09:59:15Z</time>
      </trkpt>
      <trkpt lat="45.90549" lon="5.31957">
        <ele>311.6</ele>
        <time>2024-09-19T09:59:16Z</time>
      </trkpt>
      <trkpt lat="45.9055" lon="5.31964">
        <ele>311.6</ele>
        <time>2024-09-19T09:59:17Z</time>
      </trkpt>
      <trkpt lat="45.90547" lon="5.31973">
        <ele>310.6</ele>
        <time>2024-09-19T09:59:18Z</time>
      </trkpt>
      <trkpt lat="45.90546" lon="5.31981">
        <ele>311.2</ele>
        <time>2024-09-19T09:59:19Z</time>
      </trkpt>
      <trkpt lat="45.90546" lon="5.31989">
        <ele>311.2</ele>
        <time>2024-09-19T09:59:20Z</time>
      </trkpt>
      <trkpt lat="45.90546" lon="5.31994">
        <ele>311.2</ele>
        <time>2024-09-19T09:59:21Z</time>
      </trkpt>
      <trkpt lat="45.90547" lon="5.32001">
        <ele>310.8</ele>
        <time>2024-09-19T09:59:22Z</time>
      </trkpt>
      <trkpt lat="45.90547" lon="5.32008">
        <ele>310.6</ele>
        <time>2024-09-19T09:59:23Z</time>
      </trkpt>
      <trkpt lat="45.90548" lon="5.32015">
        <ele>310.8</ele>
        <time>2024-09-19T09:59:24Z</time>
      </trkpt>
      <trkpt lat="45.90549" lon="5.3202">
        <ele>310.8</ele>
        <time>2024-09-19T09:59:25Z</time>
      </trkpt>
      <trkpt lat="45.9055" lon="5.32027">
        <ele>311.6</ele>
        <time>2024-09-19T09:59:26Z</time>
      </trkpt>
      <trkpt lat="45.90551" lon="5.32034">
        <ele>311.6</ele>
        <time>2024-09-19T09:59:27Z</time>
      </trkpt>
      <trkpt lat="45.9055" lon="5.32039">
        <ele>310.6</ele>
        <time>2024-09-19T09:59:28Z</time>
      </trkpt>
      <trkpt lat="45.9055" lon="5.32044">
        <ele>310.6</ele>
        <time>2024-09-19T09:59:29Z</time>
      </trkpt>
      <trkpt lat="45.9055" lon="5.32048">
        <ele>311.4</ele>
        <time>2024-09-19T09:59:30Z</time>
      </trkpt>
      <trkpt lat="45.9055" lon="5.32053">
        <ele>312.2</ele>
        <time>2024-09-19T09:59:31Z</time>
      </trkpt>
      <trkpt lat="45.90549" lon="5.32058">
        <ele>312.4</ele>
        <time>2024-09-19T09:59:32Z</time>
      </trkpt>
      <trkpt lat="45.9055" lon="5.32062">
        <ele>312.4</ele>
        <time>2024-09-19T09:59:33Z</time>
      </trkpt>
      <trkpt lat="45.9055" lon="5.32065">
        <ele>312.8</ele>
        <time>2024-09-19T09:59:34Z</time>
      </trkpt>
      <trkpt lat="45.90549" lon="5.32069">
        <ele>313.4</ele>
        <time>2024-09-19T09:59:35Z</time>
      </trkpt>
      <trkpt lat="45.90549" lon="5.32073">
        <ele>313.8</ele>
        <time>2024-09-19T09:59:36Z</time>
      </trkpt>
      <trkpt lat="45.90548" lon="5.32076">
        <ele>314.2</ele>
        <time>2024-09-19T09:59:37Z</time>
      </trkpt>
      <trkpt lat="45.90548" lon="5.3208">
        <ele>314.6</ele>
        <time>2024-09-19T09:59:38Z</time>
      </trkpt>
      <trkpt lat="45.90547" lon="5.32084">
        <ele>314.6</ele>
        <time>2024-09-19T09:59:39Z</time>
      </trkpt>
      <trkpt lat="45.90547" lon="5.32087">
        <ele>315.2</ele>
        <time>2024-09-19T09:59:40Z</time>
      </trkpt>
      <trkpt lat="45.90547" lon="5.3209">
        <ele>315.4</ele>
        <time>2024-09-19T09:59:41Z</time>
      </trkpt>
      <trkpt lat="45.90547" lon="5.32094">
        <ele>315.8</ele>
        <time>2024-09-19T09:59:42Z</time>
      </trkpt>
      <trkpt lat="45.90548" lon="5.32097">
        <ele>316.2</ele>
        <time>2024-09-19T09:59:43Z</time>
      </trkpt>
      <trkpt lat="45.90548" lon="5.321">
        <ele>316.2</ele>
        <time>2024-09-19T09:59:44Z</time>
      </trkpt>
      <trkpt lat="45.90549" lon="5.32104">
        <ele>316.8</ele>
        <time>2024-09-19T09:59:45Z</time>
      </trkpt>
      <trkpt lat="45.90549" lon="5.32107">
        <ele>316.8</ele>
        <time>2024-09-19T09:59:46Z</time>
      </trkpt>
      <trkpt lat="45.90549" lon="5.32107">
        <ele>317</ele>
        <time>2024-09-19T09:59:47Z</time>
      </trkpt>
      <trkpt lat="45.90549" lon="5.32107">
        <ele>317</ele>
        <time>2024-09-19T09:59:48Z</time>
      </trkpt>
      <trkpt lat="45.9055" lon="5.32119">
        <ele>317</ele>
        <time>2024-09-19T09:59:50Z</time>
      </trkpt>
      <trkpt lat="45.9055" lon="5.32122">
        <ele>317.2</ele>
        <time>2024-09-19T09:59:51Z</time>
      </trkpt>
      <trkpt lat="45.9055" lon="5.32126">
        <ele>317</ele>
        <time>2024-09-19T09:59:52Z</time>
      </trkpt>
      <trkpt lat="45.90549" lon="5.32129">
        <ele>317</ele>
        <time>2024-09-19T09:59:53Z</time>
      </trkpt>
      <trkpt lat="45.90549" lon="5.32133">
        <ele>317.2</ele>
        <time>2024-09-19T09:59:54Z</time>
      </trkpt>
      <trkpt lat="45.90549" lon="5.32137">
        <ele>317.8</ele>
        <time>2024-09-19T09:59:55Z</time>
      </trkpt>
      <trkpt lat="45.90549" lon="5.32141">
        <ele>317.8</ele>
        <time>2024-09-19T09:59:56Z</time>
      </trkpt>
      <trkpt lat="45.9055" lon="5.32145">
        <ele>317.2</ele>
        <time>2024-09-19T09:59:57Z</time>
      </trkpt>
      <trkpt lat="45.9055" lon="5.32149">
        <ele>317.6</ele>
        <time>2024-09-19T09:59:58Z</time>
      </trkpt>
      <trkpt lat="45.9055" lon="5.32153">
        <ele>317.6</ele>
        <time>2024-09-19T09:59:59Z</time>
      </trkpt>
      <trkpt lat="45.90551" lon="5.32157">
        <ele>317.6</ele>
        <time>2024-09-19T10:00:00Z</time>
      </trkpt>
      <trkpt lat="45.90551" lon="5.32161">
        <ele>317.8</ele>
        <time>2024-09-19T10:00:01Z</time>
      </trkpt>
      <trkpt lat="45.9055" lon="5.32165">
        <ele>317.8</ele>
        <time>2024-09-19T10:00:02Z</time>
      </trkpt>
      <trkpt lat="45.9055" lon="5.32169">
        <ele>318.4</ele>
        <time>2024-09-19T10:00:03Z</time>
      </trkpt>
      <trkpt lat="45.9055" lon="5.32172">
        <ele>318</ele>
        <time>2024-09-19T10:00:04Z</time>
      </trkpt>
      <trkpt lat="45.90549" lon="5.32176">
        <ele>318.4</ele>
        <time>2024-09-19T10:00:05Z</time>
      </trkpt>
      <trkpt lat="45.90549" lon="5.32178">
        <ele>318.8</ele>
        <time>2024-09-19T10:00:06Z</time>
      </trkpt>
      <trkpt lat="45.90549" lon="5.32181">
        <ele>318.8</ele>
        <time>2024-09-19T10:00:07Z</time>
      </trkpt>
      <trkpt lat="45.90549" lon="5.32185">
        <ele>318.8</ele>
        <time>2024-09-19T10:00:08Z</time>
      </trkpt>
      <trkpt lat="45.90549" lon="5.32189">
        <ele>318.8</ele>
        <time>2024-09-19T10:00:09Z</time>
      </trkpt>
      <trkpt lat="45.90548" lon="5.32194">
        <ele>318.8</ele>
        <time>2024-09-19T10:00:10Z</time>
      </trkpt>
      <trkpt lat="45.90548" lon="5.32199">
        <ele>318.8</ele>
        <time>2024-09-19T10:00:11Z</time>
      </trkpt>
      <trkpt lat="45.90546" lon="5.32204">
        <ele>318.4</ele>
        <time>2024-09-19T10:00:12Z</time>
      </trkpt>
      <trkpt lat="45.90546" lon="5.32209">
        <ele>318.4</ele>
        <time>2024-09-19T10:00:13Z</time>
      </trkpt>
      <trkpt lat="45.90544" lon="5.32215">
        <ele>318.4</ele>
        <time>2024-09-19T10:00:14Z</time>
      </trkpt>
      <trkpt lat="45.90542" lon="5.32222">
        <ele>319</ele>
        <time>2024-09-19T10:00:15Z</time>
      </trkpt>
      <trkpt lat="45.90542" lon="5.3223">
        <ele>318.4</ele>
        <time>2024-09-19T10:00:16Z</time>
      </trkpt>
      <trkpt lat="45.9054" lon="5.32236">
        <ele>317</ele>
        <time>2024-09-19T10:00:17Z</time>
      </trkpt>
      <trkpt lat="45.90539" lon="5.32244">
        <ele>316.6</ele>
        <time>2024-09-19T10:00:18Z</time>
      </trkpt>
      <trkpt lat="45.90537" lon="5.32251">
        <ele>316.2</ele>
        <time>2024-09-19T10:00:19Z</time>
      </trkpt>
      <trkpt lat="45.90536" lon="5.32259">
        <ele>316.2</ele>
        <time>2024-09-19T10:00:20Z</time>
      </trkpt>
      <trkpt lat="45.90534" lon="5.32267">
        <ele>315.6</ele>
        <time>2024-09-19T10:00:21Z</time>
      </trkpt>
      <trkpt lat="45.90535" lon="5.32275">
        <ele>315.6</ele>
        <time>2024-09-19T10:00:22Z</time>
      </trkpt>
      <trkpt lat="45.90536" lon="5.32281">
        <ele>315.8</ele>
        <time>2024-09-19T10:00:23Z</time>
      </trkpt>
      <trkpt lat="45.90536" lon="5.32286">
        <ele>316</ele>
        <time>2024-09-19T10:00:24Z</time>
      </trkpt>
      <trkpt lat="45.90537" lon="5.32292">
        <ele>316</ele>
        <time>2024-09-19T10:00:25Z</time>
      </trkpt>
      <trkpt lat="45.90538" lon="5.32297">
        <ele>316.4</ele>
        <time>2024-09-19T10:00:26Z</time>
      </trkpt>
      <trkpt lat="45.9054" lon="5.32301">
        <ele>316.8</ele>
        <time>2024-09-19T10:00:27Z</time>
      </trkpt>
      <trkpt lat="45.90543" lon="5.32303">
        <ele>316.4</ele>
        <time>2024-09-19T10:00:28Z</time>
      </trkpt>
      <trkpt lat="45.90547" lon="5.32307">
        <ele>316.2</ele>
        <time>2024-09-19T10:00:29Z</time>
      </trkpt>
      <trkpt lat="45.90547" lon="5.32307">
        <ele>316.2</ele>
        <time>2024-09-19T10:00:30Z</time>
      </trkpt>
      <trkpt lat="45.90547" lon="5.32307">
        <ele>315.4</ele>
        <time>2024-09-19T10:00:31Z</time>
      </trkpt>
      <trkpt lat="45.90558" lon="5.32318">
        <ele>315.4</ele>
        <time>2024-09-19T10:00:32Z</time>
      </trkpt>
      <trkpt lat="45.90561" lon="5.32322">
        <ele>315.8</ele>
        <time>2024-09-19T10:00:33Z</time>
      </trkpt>
      <trkpt lat="45.90564" lon="5.32325">
        <ele>315.6</ele>
        <time>2024-09-19T10:00:34Z</time>
      </trkpt>
      <trkpt lat="45.90567" lon="5.32328">
        <ele>316</ele>
        <time>2024-09-19T10:00:35Z</time>
      </trkpt>
      <trkpt lat="45.9057" lon="5.32328">
        <ele>317.2</ele>
        <time>2024-09-19T10:00:36Z</time>
      </trkpt>
      <trkpt lat="45.90571" lon="5.3233">
        <ele>318</ele>
        <time>2024-09-19T10:00:37Z</time>
      </trkpt>
      <trkpt lat="45.90573" lon="5.32333">
        <ele>318.2</ele>
        <time>2024-09-19T10:00:38Z</time>
      </trkpt>
      <trkpt lat="45.90574" lon="5.32336">
        <ele>318.6</ele>
        <time>2024-09-19T10:00:39Z</time>
      </trkpt>
      <trkpt lat="45.90575" lon="5.32339">
        <ele>318.6</ele>
        <time>2024-09-19T10:00:40Z</time>
      </trkpt>
      <trkpt lat="45.90577" lon="5.32341">
        <ele>319.2</ele>
        <time>2024-09-19T10:00:41Z</time>
      </trkpt>
      <trkpt lat="45.90579" lon="5.32345">
        <ele>319.6</ele>
        <time>2024-09-19T10:00:42Z</time>
      </trkpt>
      <trkpt lat="45.9058" lon="5.32348">
        <ele>319.8</ele>
        <time>2024-09-19T10:00:43Z</time>
      </trkpt>
      <trkpt lat="45.90582" lon="5.32352">
        <ele>319.8</ele>
        <time>2024-09-19T10:00:44Z</time>
      </trkpt>
      <trkpt lat="45.90583" lon="5.32355">
        <ele>320.2</ele>
        <time>2024-09-19T10:00:45Z</time>
      </trkpt>
      <trkpt lat="45.90585" lon="5.32358">
        <ele>319.8</ele>
        <time>2024-09-19T10:00:46Z</time>
      </trkpt>
      <trkpt lat="45.90587" lon="5.32362">
        <ele>319.8</ele>
        <time>2024-09-19T10:00:47Z</time>
      </trkpt>
      <trkpt lat="45.90589" lon="5.32367">
        <ele>319.6</ele>
        <time>2024-09-19T10:00:48Z</time>
      </trkpt>
      <trkpt lat="45.90591" lon="5.32371">
        <ele>319.6</ele>
        <time>2024-09-19T10:00:49Z</time>
      </trkpt>
      <trkpt lat="45.90593" lon="5.32376">
        <ele>319.6</ele>
        <time>2024-09-19T10:00:50Z</time>
      </trkpt>
      <trkpt lat="45.90594" lon="5.3238">
        <ele>319.8</ele>
        <time>2024-09-19T10:00:51Z</time>
      </trkpt>
      <trkpt lat="45.90597" lon="5.32385">
        <ele>320.2</ele>
        <time>2024-09-19T10:00:52Z</time>
      </trkpt>
      <trkpt lat="45.90599" lon="5.3239">
        <ele>320</ele>
        <time>2024-09-19T10:00:53Z</time>
      </trkpt>
      <trkpt lat="45.90601" lon="5.32396">
        <ele>319.8</ele>
        <time>2024-09-19T10:00:54Z</time>
      </trkpt>
      <trkpt lat="45.90603" lon="5.32401">
        <ele>319.8</ele>
        <time>2024-09-19T10:00:55Z</time>
      </trkpt>
      <trkpt lat="45.90605" lon="5.32405">
        <ele>319.4</ele>
        <time>2024-09-19T10:00:56Z</time>
      </trkpt>
      <trkpt lat="45.90608" lon="5.32412">
        <ele>319.4</ele>
        <time>2024-09-19T10:00:57Z</time>
      </trkpt>
      <trkpt lat="45.90609" lon="5.32417">
        <ele>318.8</ele>
        <time>2024-09-19T10:00:58Z</time>
      </trkpt>
      <trkpt lat="45.9061" lon="5.32423">
        <ele>317.8</ele>
        <time>2024-09-19T10:00:59Z</time>
      </trkpt>
      <trkpt lat="45.90612" lon="5.3243">
        <ele>317.4</ele>
        <time>2024-09-19T10:01:00Z</time>
      </trkpt>
      <trkpt lat="45.90614" lon="5.32435">
        <ele>317.4</ele>
        <time>2024-09-19T10:01:01Z</time>
      </trkpt>
      <trkpt lat="45.90617" lon="5.3244">
        <ele>317</ele>
        <time>2024-09-19T10:01:02Z</time>
      </trkpt>
      <trkpt lat="45.90619" lon="5.32445">
        <ele>316.6</ele>
        <time>2024-09-19T10:01:03Z</time>
      </trkpt>
      <trkpt lat="45.9062" lon="5.32451">
        <ele>316</ele>
        <time>2024-09-19T10:01:04Z</time>
      </trkpt>
      <trkpt lat="45.9062" lon="5.32456">
        <ele>316</ele>
        <time>2024-09-19T10:01:05Z</time>
      </trkpt>
      <trkpt lat="45.90622" lon="5.32462">
        <ele>316</ele>
        <time>2024-09-19T10:01:06Z</time>
      </trkpt>
      <trkpt lat="45.90623" lon="5.32465">
        <ele>315.2</ele>
        <time>2024-09-19T10:01:07Z</time>
      </trkpt>
      <trkpt lat="45.90625" lon="5.32469">
        <ele>314.8</ele>
        <time>2024-09-19T10:01:08Z</time>
      </trkpt>
      <trkpt lat="45.90626" lon="5.32475">
        <ele>314.2</ele>
        <time>2024-09-19T10:01:09Z</time>
      </trkpt>
      <trkpt lat="45.90627" lon="5.3248">
        <ele>313.6</ele>
        <time>2024-09-19T10:01:10Z</time>
      </trkpt>
      <trkpt lat="45.90629" lon="5.32484">
        <ele>313.4</ele>
        <time>2024-09-19T10:01:11Z</time>
      </trkpt>
      <trkpt lat="45.90631" lon="5.32491">
        <ele>313.4</ele>
        <time>2024-09-19T10:01:12Z</time>
      </trkpt>
      <trkpt lat="45.90631" lon="5.32495">
        <ele>313.4</ele>
        <time>2024-09-19T10:01:13Z</time>
      </trkpt>
      <trkpt lat="45.90628" lon="5.32499">
        <ele>312.6</ele>
        <time>2024-09-19T10:01:14Z</time>
      </trkpt>
      <trkpt lat="45.90627" lon="5.32505">
        <ele>312.4</ele>
        <time>2024-09-19T10:01:15Z</time>
      </trkpt>
      <trkpt lat="45.90626" lon="5.3251">
        <ele>312</ele>
        <time>2024-09-19T10:01:16Z</time>
      </trkpt>
      <trkpt lat="45.90623" lon="5.32514">
        <ele>311.8</ele>
        <time>2024-09-19T10:01:17Z</time>
      </trkpt>
      <trkpt lat="45.9062" lon="5.3252">
        <ele>311.8</ele>
        <time>2024-09-19T10:01:18Z</time>
      </trkpt>
      <trkpt lat="45.90617" lon="5.32525">
        <ele>311</ele>
        <time>2024-09-19T10:01:19Z</time>
      </trkpt>
      <trkpt lat="45.90615" lon="5.32531">
        <ele>311</ele>
        <time>2024-09-19T10:01:20Z</time>
      </trkpt>
      <trkpt lat="45.90611" lon="5.32537">
        <ele>311</ele>
        <time>2024-09-19T10:01:21Z</time>
      </trkpt>
      <trkpt lat="45.90607" lon="5.32544">
        <ele>310.4</ele>
        <time>2024-09-19T10:01:22Z</time>
      </trkpt>
      <trkpt lat="45.90604" lon="5.32549">
        <ele>309.8</ele>
        <time>2024-09-19T10:01:23Z</time>
      </trkpt>
      <trkpt lat="45.906" lon="5.32553">
        <ele>309.6</ele>
        <time>2024-09-19T10:01:24Z</time>
      </trkpt>
      <trkpt lat="45.90597" lon="5.3256">
        <ele>309.6</ele>
        <time>2024-09-19T10:01:25Z</time>
      </trkpt>
      <trkpt lat="45.90594" lon="5.32564">
        <ele>309.4</ele>
        <time>2024-09-19T10:01:26Z</time>
      </trkpt>
      <trkpt lat="45.9059" lon="5.32569">
        <ele>309</ele>
        <time>2024-09-19T10:01:27Z</time>
      </trkpt>
      <trkpt lat="45.90587" lon="5.32575">
        <ele>308.4</ele>
        <time>2024-09-19T10:01:28Z</time>
      </trkpt>
      <trkpt lat="45.90582" lon="5.3258">
        <ele>308</ele>
        <time>2024-09-19T10:01:29Z</time>
      </trkpt>
      <trkpt lat="45.90582" lon="5.32581">
        <ele>306.8</ele>
        <time>2024-09-19T10:01:30Z</time>
      </trkpt>
      <trkpt lat="45.90578" lon="5.32585">
        <ele>307.4</ele>
        <time>2024-09-19T10:01:31Z</time>
      </trkpt>
      <trkpt lat="45.90573" lon="5.3259">
        <ele>307</ele>
        <time>2024-09-19T10:01:32Z</time>
      </trkpt>
      <trkpt lat="45.90569" lon="5.32592">
        <ele>307.2</ele>
        <time>2024-09-19T10:01:33Z</time>
      </trkpt>
      <trkpt lat="45.90566" lon="5.32594">
        <ele>307.2</ele>
        <time>2024-09-19T10:01:34Z</time>
      </trkpt>
      <trkpt lat="45.90561" lon="5.32597">
        <ele>306.6</ele>
        <time>2024-09-19T10:01:35Z</time>
      </trkpt>
      <trkpt lat="45.90557" lon="5.32599">
        <ele>306.2</ele>
        <time>2024-09-19T10:01:36Z</time>
      </trkpt>
      <trkpt lat="45.90553" lon="5.32601">
        <ele>306.2</ele>
        <time>2024-09-19T10:01:37Z</time>
      </trkpt>
      <trkpt lat="45.9055" lon="5.32604">
        <ele>305.8</ele>
        <time>2024-09-19T10:01:38Z</time>
      </trkpt>
      <trkpt lat="45.90546" lon="5.32607">
        <ele>304.8</ele>
        <time>2024-09-19T10:01:39Z</time>
      </trkpt>
      <trkpt lat="45.90543" lon="5.3261">
        <ele>305</ele>
        <time>2024-09-19T10:01:40Z</time>
      </trkpt>
      <trkpt lat="45.90541" lon="5.32615">
        <ele>304.8</ele>
        <time>2024-09-19T10:01:41Z</time>
      </trkpt>
      <trkpt lat="45.90539" lon="5.32619">
        <ele>304.8</ele>
        <time>2024-09-19T10:01:42Z</time>
      </trkpt>
      <trkpt lat="45.9054" lon="5.32622">
        <ele>303.8</ele>
        <time>2024-09-19T10:01:43Z</time>
      </trkpt>
      <trkpt lat="45.90537" lon="5.32628">
        <ele>303.4</ele>
        <time>2024-09-19T10:01:44Z</time>
      </trkpt>
      <trkpt lat="45.90535" lon="5.32632">
        <ele>303.4</ele>
        <time>2024-09-19T10:01:45Z</time>
      </trkpt>
      <trkpt lat="45.90532" lon="5.32636">
        <ele>302.4</ele>
        <time>2024-09-19T10:01:46Z</time>
      </trkpt>
      <trkpt lat="45.90529" lon="5.32642">
        <ele>301.8</ele>
        <time>2024-09-19T10:01:47Z</time>
      </trkpt>
      <trkpt lat="45.90527" lon="5.32648">
        <ele>301</ele>
        <time>2024-09-19T10:01:48Z</time>
      </trkpt>
      <trkpt lat="45.90522" lon="5.32655">
        <ele>300.6</ele>
        <time>2024-09-19T10:01:49Z</time>
      </trkpt>
      <trkpt lat="45.90518" lon="5.32663">
        <ele>300</ele>
        <time>2024-09-19T10:01:50Z</time>
      </trkpt>
      <trkpt lat="45.90514" lon="5.3267">
        <ele>298.8</ele>
        <time>2024-09-19T10:01:51Z</time>
      </trkpt>
      <trkpt lat="45.90509" lon="5.3268">
        <ele>298.8</ele>
        <time>2024-09-19T10:01:52Z</time>
      </trkpt>
      <trkpt lat="45.90504" lon="5.32688">
        <ele>298</ele>
        <time>2024-09-19T10:01:53Z</time>
      </trkpt>
      <trkpt lat="45.905" lon="5.32697">
        <ele>297.6</ele>
        <time>2024-09-19T10:01:54Z</time>
      </trkpt>
      <trkpt lat="45.90496" lon="5.32705">
        <ele>297.2</ele>
        <time>2024-09-19T10:01:55Z</time>
      </trkpt>
      <trkpt lat="45.90494" lon="5.32714">
        <ele>297</ele>
        <time>2024-09-19T10:01:56Z</time>
      </trkpt>
      <trkpt lat="45.90491" lon="5.32724">
        <ele>297</ele>
        <time>2024-09-19T10:01:57Z</time>
      </trkpt>
      <trkpt lat="45.90487" lon="5.32733">
        <ele>297</ele>
        <time>2024-09-19T10:01:58Z</time>
      </trkpt>
      <trkpt lat="45.90485" lon="5.32743">
        <ele>296.6</ele>
        <time>2024-09-19T10:01:59Z</time>
      </trkpt>
      <trkpt lat="45.90484" lon="5.32754">
        <ele>296</ele>
        <time>2024-09-19T10:02:00Z</time>
      </trkpt>
      <trkpt lat="45.90484" lon="5.32764">
        <ele>296</ele>
        <time>2024-09-19T10:02:01Z</time>
      </trkpt>
      <trkpt lat="45.90483" lon="5.32775">
        <ele>296.2</ele>
        <time>2024-09-19T10:02:02Z</time>
      </trkpt>
      <trkpt lat="45.90482" lon="5.32785">
        <ele>295.6</ele>
        <time>2024-09-19T10:02:03Z</time>
      </trkpt>
      <trkpt lat="45.90482" lon="5.32795">
        <ele>295.4</ele>
        <time>2024-09-19T10:02:04Z</time>
      </trkpt>
      <trkpt lat="45.90481" lon="5.32805">
        <ele>295.4</ele>
        <time>2024-09-19T10:02:05Z</time>
      </trkpt>
      <trkpt lat="45.90479" lon="5.32815">
        <ele>295</ele>
        <time>2024-09-19T10:02:06Z</time>
      </trkpt>
      <trkpt lat="45.90478" lon="5.32825">
        <ele>295</ele>
        <time>2024-09-19T10:02:07Z</time>
      </trkpt>
      <trkpt lat="45.90475" lon="5.32835">
        <ele>294.4</ele>
        <time>2024-09-19T10:02:08Z</time>
      </trkpt>
      <trkpt lat="45.90473" lon="5.32844">
        <ele>294.4</ele>
        <time>2024-09-19T10:02:09Z</time>
      </trkpt>
      <trkpt lat="45.90469" lon="5.32851">
        <ele>294.4</ele>
        <time>2024-09-19T10:02:10Z</time>
      </trkpt>
      <trkpt lat="45.90466" lon="5.32857">
        <ele>294.4</ele>
        <time>2024-09-19T10:02:11Z</time>
      </trkpt>
      <trkpt lat="45.90463" lon="5.32863">
        <ele>294</ele>
        <time>2024-09-19T10:02:12Z</time>
      </trkpt>
      <trkpt lat="45.9046" lon="5.32868">
        <ele>293.4</ele>
        <time>2024-09-19T10:02:13Z</time>
      </trkpt>
      <trkpt lat="45.90458" lon="5.32873">
        <ele>293.2</ele>
        <time>2024-09-19T10:02:14Z</time>
      </trkpt>
      <trkpt lat="45.90456" lon="5.32878">
        <ele>292.8</ele>
        <time>2024-09-19T10:02:15Z</time>
      </trkpt>
      <trkpt lat="45.90454" lon="5.32885">
        <ele>292.4</ele>
        <time>2024-09-19T10:02:16Z</time>
      </trkpt>
      <trkpt lat="45.90452" lon="5.3289">
        <ele>291.8</ele>
        <time>2024-09-19T10:02:17Z</time>
      </trkpt>
      <trkpt lat="45.90449" lon="5.32897">
        <ele>291.4</ele>
        <time>2024-09-19T10:02:18Z</time>
      </trkpt>
      <trkpt lat="45.90447" lon="5.32903">
        <ele>290.8</ele>
        <time>2024-09-19T10:02:19Z</time>
      </trkpt>
      <trkpt lat="45.90446" lon="5.32908">
        <ele>290.2</ele>
        <time>2024-09-19T10:02:20Z</time>
      </trkpt>
      <trkpt lat="45.90445" lon="5.32914">
        <ele>289.4</ele>
        <time>2024-09-19T10:02:21Z</time>
      </trkpt>
      <trkpt lat="45.90445" lon="5.32923">
        <ele>288.4</ele>
        <time>2024-09-19T10:02:22Z</time>
      </trkpt>
      <trkpt lat="45.90445" lon="5.3293">
        <ele>288</ele>
        <time>2024-09-19T10:02:23Z</time>
      </trkpt>
      <trkpt lat="45.90444" lon="5.32939">
        <ele>288</ele>
        <time>2024-09-19T10:02:24Z</time>
      </trkpt>
      <trkpt lat="45.90444" lon="5.32949">
        <ele>287.6</ele>
        <time>2024-09-19T10:02:25Z</time>
      </trkpt>
      <trkpt lat="45.90443" lon="5.32957">
        <ele>287</ele>
        <time>2024-09-19T10:02:26Z</time>
      </trkpt>
      <trkpt lat="45.90443" lon="5.32967">
        <ele>285.6</ele>
        <time>2024-09-19T10:02:27Z</time>
      </trkpt>
      <trkpt lat="45.90443" lon="5.32976">
        <ele>286.4</ele>
        <time>2024-09-19T10:02:28Z</time>
      </trkpt>
      <trkpt lat="45.90442" lon="5.32986">
        <ele>286.4</ele>
        <time>2024-09-19T10:02:29Z</time>
      </trkpt>
      <trkpt lat="45.90439" lon="5.32994">
        <ele>286.4</ele>
        <time>2024-09-19T10:02:30Z</time>
      </trkpt>
      <trkpt lat="45.90438" lon="5.33003">
        <ele>286.4</ele>
        <time>2024-09-19T10:02:31Z</time>
      </trkpt>
      <trkpt lat="45.90433" lon="5.3301">
        <ele>286.4</ele>
        <time>2024-09-19T10:02:32Z</time>
      </trkpt>
      <trkpt lat="45.90431" lon="5.33015">
        <ele>286.4</ele>
        <time>2024-09-19T10:02:33Z</time>
      </trkpt>
      <trkpt lat="45.90427" lon="5.3302">
        <ele>286.4</ele>
        <time>2024-09-19T10:02:34Z</time>
      </trkpt>
      <trkpt lat="45.90423" lon="5.33024">
        <ele>285.8</ele>
        <time>2024-09-19T10:02:35Z</time>
      </trkpt>
      <trkpt lat="45.90417" lon="5.33028">
        <ele>286.2</ele>
        <time>2024-09-19T10:02:36Z</time>
      </trkpt>
      <trkpt lat="45.90412" lon="5.33031">
        <ele>286.2</ele>
        <time>2024-09-19T10:02:37Z</time>
      </trkpt>
      <trkpt lat="45.90407" lon="5.33034">
        <ele>286.2</ele>
        <time>2024-09-19T10:02:38Z</time>
      </trkpt>
      <trkpt lat="45.90403" lon="5.33036">
        <ele>286.8</ele>
        <time>2024-09-19T10:02:39Z</time>
      </trkpt>
      <trkpt lat="45.90398" lon="5.33038">
        <ele>286.8</ele>
        <time>2024-09-19T10:02:40Z</time>
      </trkpt>
      <trkpt lat="45.90393" lon="5.33039">
        <ele>286.8</ele>
        <time>2024-09-19T10:02:41Z</time>
      </trkpt>
      <trkpt lat="45.90388" lon="5.3304">
        <ele>286.8</ele>
        <time>2024-09-19T10:02:42Z</time>
      </trkpt>
      <trkpt lat="45.90383" lon="5.3304">
        <ele>286.8</ele>
        <time>2024-09-19T10:02:43Z</time>
      </trkpt>
      <trkpt lat="45.90377" lon="5.33041">
        <ele>286.8</ele>
        <time>2024-09-19T10:02:44Z</time>
      </trkpt>
      <trkpt lat="45.90371" lon="5.3304">
        <ele>286.8</ele>
        <time>2024-09-19T10:02:45Z</time>
      </trkpt>
      <trkpt lat="45.90365" lon="5.3304">
        <ele>286.8</ele>
        <time>2024-09-19T10:02:46Z</time>
      </trkpt>
      <trkpt lat="45.9036" lon="5.3304">
        <ele>287</ele>
        <time>2024-09-19T10:02:47Z</time>
      </trkpt>
      <trkpt lat="45.90355" lon="5.33039">
        <ele>287</ele>
        <time>2024-09-19T10:02:48Z</time>
      </trkpt>
      <trkpt lat="45.9035" lon="5.33039">
        <ele>287</ele>
        <time>2024-09-19T10:02:49Z</time>
      </trkpt>
      <trkpt lat="45.90344" lon="5.3304">
        <ele>287</ele>
        <time>2024-09-19T10:02:50Z</time>
      </trkpt>
      <trkpt lat="45.90338" lon="5.33041">
        <ele>287</ele>
        <time>2024-09-19T10:02:51Z</time>
      </trkpt>
      <trkpt lat="45.90333" lon="5.33043">
        <ele>287</ele>
        <time>2024-09-19T10:02:52Z</time>
      </trkpt>
      <trkpt lat="45.90327" lon="5.33046">
        <ele>287</ele>
        <time>2024-09-19T10:02:53Z</time>
      </trkpt>
      <trkpt lat="45.90323" lon="5.3305">
        <ele>287</ele>
        <time>2024-09-19T10:02:54Z</time>
      </trkpt>
      <trkpt lat="45.90318" lon="5.33053">
        <ele>286.8</ele>
        <time>2024-09-19T10:02:55Z</time>
      </trkpt>
      <trkpt lat="45.90313" lon="5.33058">
        <ele>286.8</ele>
        <time>2024-09-19T10:02:56Z</time>
      </trkpt>
      <trkpt lat="45.90309" lon="5.33063">
        <ele>286.8</ele>
        <time>2024-09-19T10:02:57Z</time>
      </trkpt>
      <trkpt lat="45.90307" lon="5.33068">
        <ele>286.8</ele>
        <time>2024-09-19T10:02:58Z</time>
      </trkpt>
      <trkpt lat="45.90304" lon="5.33074">
        <ele>287.2</ele>
        <time>2024-09-19T10:02:59Z</time>
      </trkpt>
      <trkpt lat="45.90302" lon="5.33078">
        <ele>287.2</ele>
        <time>2024-09-19T10:03:00Z</time>
      </trkpt>
      <trkpt lat="45.90299" lon="5.33083">
        <ele>287.6</ele>
        <time>2024-09-19T10:03:01Z</time>
      </trkpt>
      <trkpt lat="45.90297" lon="5.33089">
        <ele>287.6</ele>
        <time>2024-09-19T10:03:02Z</time>
      </trkpt>
      <trkpt lat="45.90294" lon="5.33094">
        <ele>287.6</ele>
        <time>2024-09-19T10:03:03Z</time>
      </trkpt>
      <trkpt lat="45.90291" lon="5.331">
        <ele>287</ele>
        <time>2024-09-19T10:03:04Z</time>
      </trkpt>
      <trkpt lat="45.90287" lon="5.33105">
        <ele>286.8</ele>
        <time>2024-09-19T10:03:05Z</time>
      </trkpt>
      <trkpt lat="45.90284" lon="5.33109">
        <ele>286.8</ele>
        <time>2024-09-19T10:03:06Z</time>
      </trkpt>
      <trkpt lat="45.90279" lon="5.33117">
        <ele>286.6</ele>
        <time>2024-09-19T10:03:07Z</time>
      </trkpt>
      <trkpt lat="45.90275" lon="5.33124">
        <ele>286</ele>
        <time>2024-09-19T10:03:08Z</time>
      </trkpt>
      <trkpt lat="45.9027" lon="5.33131">
        <ele>285.2</ele>
        <time>2024-09-19T10:03:09Z</time>
      </trkpt>
      <trkpt lat="45.90267" lon="5.3314">
        <ele>284.8</ele>
        <time>2024-09-19T10:03:10Z</time>
      </trkpt>
      <trkpt lat="45.90264" lon="5.33149">
        <ele>284.2</ele>
        <time>2024-09-19T10:03:11Z</time>
      </trkpt>
      <trkpt lat="45.90263" lon="5.33159">
        <ele>283.6</ele>
        <time>2024-09-19T10:03:12Z</time>
      </trkpt>
      <trkpt lat="45.9026" lon="5.33168">
        <ele>283.2</ele>
        <time>2024-09-19T10:03:13Z</time>
      </trkpt>
      <trkpt lat="45.90257" lon="5.33176">
        <ele>282.2</ele>
        <time>2024-09-19T10:03:14Z</time>
      </trkpt>
      <trkpt lat="45.90256" lon="5.33181">
        <ele>281.6</ele>
        <time>2024-09-19T10:03:15Z</time>
      </trkpt>
      <trkpt lat="45.90253" lon="5.33187">
        <ele>281.6</ele>
        <time>2024-09-19T10:03:16Z</time>
      </trkpt>
      <trkpt lat="45.90251" lon="5.33193">
        <ele>281.2</ele>
        <time>2024-09-19T10:03:17Z</time>
      </trkpt>
      <trkpt lat="45.90249" lon="5.33199">
        <ele>281</ele>
        <time>2024-09-19T10:03:18Z</time>
      </trkpt>
      <trkpt lat="45.90246" lon="5.33205">
        <ele>280.2</ele>
        <time>2024-09-19T10:03:19Z</time>
      </trkpt>
      <trkpt lat="45.90243" lon="5.33211">
        <ele>280</ele>
        <time>2024-09-19T10:03:20Z</time>
      </trkpt>
      <trkpt lat="45.90239" lon="5.33217">
        <ele>279.6</ele>
        <time>2024-09-19T10:03:21Z</time>
      </trkpt>
      <trkpt lat="45.90234" lon="5.33222">
        <ele>279</ele>
        <time>2024-09-19T10:03:22Z</time>
      </trkpt>
      <trkpt lat="45.90229" lon="5.33226">
        <ele>278</ele>
        <time>2024-09-19T10:03:23Z</time>
      </trkpt>
      <trkpt lat="45.90224" lon="5.33231">
        <ele>277.2</ele>
        <time>2024-09-19T10:03:24Z</time>
      </trkpt>
      <trkpt lat="45.90219" lon="5.33236">
        <ele>276.8</ele>
        <time>2024-09-19T10:03:25Z</time>
      </trkpt>
      <trkpt lat="45.90215" lon="5.33241">
        <ele>276.2</ele>
        <time>2024-09-19T10:03:26Z</time>
      </trkpt>
      <trkpt lat="45.90211" lon="5.33247">
        <ele>275.6</ele>
        <time>2024-09-19T10:03:27Z</time>
      </trkpt>
      <trkpt lat="45.90207" lon="5.33252">
        <ele>274.8</ele>
        <time>2024-09-19T10:03:28Z</time>
      </trkpt>
      <trkpt lat="45.90203" lon="5.3326">
        <ele>274.2</ele>
        <time>2024-09-19T10:03:29Z</time>
      </trkpt>
      <trkpt lat="45.902" lon="5.33267">
        <ele>273.8</ele>
        <time>2024-09-19T10:03:30Z</time>
      </trkpt>
      <trkpt lat="45.90195" lon="5.33275">
        <ele>273</ele>
        <time>2024-09-19T10:03:31Z</time>
      </trkpt>
      <trkpt lat="45.90191" lon="5.33281">
        <ele>272</ele>
        <time>2024-09-19T10:03:32Z</time>
      </trkpt>
      <trkpt lat="45.90186" lon="5.33286">
        <ele>271.2</ele>
        <time>2024-09-19T10:03:33Z</time>
      </trkpt>
      <trkpt lat="45.90181" lon="5.33293">
        <ele>270.4</ele>
        <time>2024-09-19T10:03:34Z</time>
      </trkpt>
      <trkpt lat="45.90175" lon="5.33299">
        <ele>269.4</ele>
        <time>2024-09-19T10:03:35Z</time>
      </trkpt>
      <trkpt lat="45.90169" lon="5.33303">
        <ele>268</ele>
        <time>2024-09-19T10:03:36Z</time>
      </trkpt>
      <trkpt lat="45.90162" lon="5.33311">
        <ele>266.8</ele>
        <time>2024-09-19T10:03:37Z</time>
      </trkpt>
      <trkpt lat="45.90157" lon="5.33317">
        <ele>266</ele>
        <time>2024-09-19T10:03:38Z</time>
      </trkpt>
      <trkpt lat="45.9015" lon="5.33321">
        <ele>265</ele>
        <time>2024-09-19T10:03:39Z</time>
      </trkpt>
      <trkpt lat="45.90144" lon="5.3333">
        <ele>263.8</ele>
        <time>2024-09-19T10:03:40Z</time>
      </trkpt>
      <trkpt lat="45.9014" lon="5.33339">
        <ele>262.4</ele>
        <time>2024-09-19T10:03:41Z</time>
      </trkpt>
      <trkpt lat="45.90135" lon="5.33348">
        <ele>261</ele>
        <time>2024-09-19T10:03:42Z</time>
      </trkpt>
      <trkpt lat="45.9013" lon="5.33357">
        <ele>259.6</ele>
        <time>2024-09-19T10:03:43Z</time>
      </trkpt>
      <trkpt lat="45.90127" lon="5.33366">
        <ele>258.4</ele>
        <time>2024-09-19T10:03:44Z</time>
      </trkpt>
      <trkpt lat="45.90123" lon="5.33374">
        <ele>257.2</ele>
        <time>2024-09-19T10:03:45Z</time>
      </trkpt>
      <trkpt lat="45.9012" lon="5.33383">
        <ele>256.2</ele>
        <time>2024-09-19T10:03:46Z</time>
      </trkpt>
      <trkpt lat="45.90115" lon="5.33391">
        <ele>254.4</ele>
        <time>2024-09-19T10:03:47Z</time>
      </trkpt>
      <trkpt lat="45.90112" lon="5.33401">
        <ele>253.6</ele>
        <time>2024-09-19T10:03:48Z</time>
      </trkpt>
      <trkpt lat="45.90109" lon="5.33408">
        <ele>252</ele>
        <time>2024-09-19T10:03:49Z</time>
      </trkpt>
      <trkpt lat="45.90106" lon="5.33415">
        <ele>251.2</ele>
        <time>2024-09-19T10:03:50Z</time>
      </trkpt>
      <trkpt lat="45.90104" lon="5.33422">
        <ele>250</ele>
        <time>2024-09-19T10:03:51Z</time>
      </trkpt>
      <trkpt lat="45.901" lon="5.33428">
        <ele>248.8</ele>
        <time>2024-09-19T10:03:52Z</time>
      </trkpt>
      <trkpt lat="45.90096" lon="5.33432">
        <ele>247.8</ele>
        <time>2024-09-19T10:03:53Z</time>
      </trkpt>
      <trkpt lat="45.9009" lon="5.33437">
        <ele>247</ele>
        <time>2024-09-19T10:03:54Z</time>
      </trkpt>
      <trkpt lat="45.90085" lon="5.33443">
        <ele>246.2</ele>
        <time>2024-09-19T10:03:55Z</time>
      </trkpt>
      <trkpt lat="45.9008" lon="5.33449">
        <ele>245.2</ele>
        <time>2024-09-19T10:03:56Z</time>
      </trkpt>
      <trkpt lat="45.90073" lon="5.33457">
        <ele>244.2</ele>
        <time>2024-09-19T10:03:57Z</time>
      </trkpt>
      <trkpt lat="45.90066" lon="5.33463">
        <ele>242.4</ele>
        <time>2024-09-19T10:03:58Z</time>
      </trkpt>
      <trkpt lat="45.90058" lon="5.33466">
        <ele>241.2</ele>
        <time>2024-09-19T10:03:59Z</time>
      </trkpt>
      <trkpt lat="45.9005" lon="5.33468">
        <ele>240.8</ele>
        <time>2024-09-19T10:04:00Z</time>
      </trkpt>
      <trkpt lat="45.90042" lon="5.33469">
        <ele>239.8</ele>
        <time>2024-09-19T10:04:01Z</time>
      </trkpt>
      <trkpt lat="45.90035" lon="5.33471">
        <ele>239</ele>
        <time>2024-09-19T10:04:02Z</time>
      </trkpt>
      <trkpt lat="45.90027" lon="5.33474">
        <ele>238.6</ele>
        <time>2024-09-19T10:04:03Z</time>
      </trkpt>
      <trkpt lat="45.9002" lon="5.33478">
        <ele>238.2</ele>
        <time>2024-09-19T10:04:04Z</time>
      </trkpt>
      <trkpt lat="45.90013" lon="5.33484">
        <ele>237.8</ele>
        <time>2024-09-19T10:04:05Z</time>
      </trkpt>
      <trkpt lat="45.90006" lon="5.33491">
        <ele>237.8</ele>
        <time>2024-09-19T10:04:06Z</time>
      </trkpt>
      <trkpt lat="45.9" lon="5.33499">
        <ele>237.6</ele>
        <time>2024-09-19T10:04:07Z</time>
      </trkpt>
      <trkpt lat="45.89994" lon="5.33507">
        <ele>237.4</ele>
        <time>2024-09-19T10:04:08Z</time>
      </trkpt>
      <trkpt lat="45.89987" lon="5.33516">
        <ele>236.6</ele>
        <time>2024-09-19T10:04:09Z</time>
      </trkpt>
      <trkpt lat="45.8998" lon="5.33524">
        <ele>236.6</ele>
        <time>2024-09-19T10:04:10Z</time>
      </trkpt>
      <trkpt lat="45.89972" lon="5.33533">
        <ele>236.2</ele>
        <time>2024-09-19T10:04:11Z</time>
      </trkpt>
      <trkpt lat="45.89965" lon="5.33542">
        <ele>235.6</ele>
        <time>2024-09-19T10:04:12Z</time>
      </trkpt>
      <trkpt lat="45.89965" lon="5.33542">
        <ele>234</ele>
        <time>2024-09-19T10:04:13Z</time>
      </trkpt>
      <trkpt lat="45.89957" lon="5.33552">
        <ele>232.6</ele>
        <time>2024-09-19T10:04:14Z</time>
      </trkpt>
      <trkpt lat="45.89949" lon="5.33561">
        <ele>231.6</ele>
        <time>2024-09-19T10:04:15Z</time>
      </trkpt>
      <trkpt lat="45.89941" lon="5.33571">
        <ele>230</ele>
        <time>2024-09-19T10:04:16Z</time>
      </trkpt>
      <trkpt lat="45.89932" lon="5.3358">
        <ele>229.4</ele>
        <time>2024-09-19T10:04:17Z</time>
      </trkpt>
      <trkpt lat="45.89924" lon="5.3359">
        <ele>228.8</ele>
        <time>2024-09-19T10:04:18Z</time>
      </trkpt>
      <trkpt lat="45.89916" lon="5.33599">
        <ele>227.8</ele>
        <time>2024-09-19T10:04:19Z</time>
      </trkpt>
      <trkpt lat="45.89898" lon="5.33618">
        <ele>227</ele>
        <time>2024-09-19T10:04:20Z</time>
      </trkpt>
      <trkpt lat="45.89888" lon="5.33625">
        <ele>227</ele>
        <time>2024-09-19T10:04:21Z</time>
      </trkpt>
      <trkpt lat="45.89879" lon="5.33633">
        <ele>226</ele>
        <time>2024-09-19T10:04:22Z</time>
      </trkpt>
      <trkpt lat="45.8987" lon="5.3364">
        <ele>225.4</ele>
        <time>2024-09-19T10:04:23Z</time>
      </trkpt>
      <trkpt lat="45.8986" lon="5.33647">
        <ele>225.2</ele>
        <time>2024-09-19T10:04:24Z</time>
      </trkpt>
      <trkpt lat="45.89852" lon="5.3365">
        <ele>225.2</ele>
        <time>2024-09-19T10:04:25Z</time>
      </trkpt>
      <trkpt lat="45.89844" lon="5.33654">
        <ele>225.8</ele>
        <time>2024-09-19T10:04:26Z</time>
      </trkpt>
      <trkpt lat="45.89836" lon="5.33658">
        <ele>226.2</ele>
        <time>2024-09-19T10:04:27Z</time>
      </trkpt>
      <trkpt lat="45.89829" lon="5.3366">
        <ele>227.2</ele>
        <time>2024-09-19T10:04:28Z</time>
      </trkpt>
      <trkpt lat="45.89822" lon="5.33662">
        <ele>228</ele>
        <time>2024-09-19T10:04:29Z</time>
      </trkpt>
      <trkpt lat="45.89815" lon="5.33665">
        <ele>228.6</ele>
        <time>2024-09-19T10:04:30Z</time>
      </trkpt>
      <trkpt lat="45.89809" lon="5.33668">
        <ele>229.2</ele>
        <time>2024-09-19T10:04:31Z</time>
      </trkpt>
      <trkpt lat="45.89803" lon="5.33672">
        <ele>229.8</ele>
        <time>2024-09-19T10:04:32Z</time>
      </trkpt>
      <trkpt lat="45.89798" lon="5.33675">
        <ele>230.2</ele>
        <time>2024-09-19T10:04:33Z</time>
      </trkpt>
      <trkpt lat="45.89792" lon="5.33677">
        <ele>230.8</ele>
        <time>2024-09-19T10:04:34Z</time>
      </trkpt>
      <trkpt lat="45.89787" lon="5.3368">
        <ele>230.2</ele>
        <time>2024-09-19T10:04:35Z</time>
      </trkpt>
      <trkpt lat="45.89782" lon="5.33683">
        <ele>230.2</ele>
        <time>2024-09-19T10:04:36Z</time>
      </trkpt>
      <trkpt lat="45.89777" lon="5.33685">
        <ele>230.8</ele>
        <time>2024-09-19T10:04:37Z</time>
      </trkpt>
      <trkpt lat="45.89772" lon="5.33688">
        <ele>231.4</ele>
        <time>2024-09-19T10:04:38Z</time>
      </trkpt>
      <trkpt lat="45.89768" lon="5.3369">
        <ele>232</ele>
        <time>2024-09-19T10:04:39Z</time>
      </trkpt>
      <trkpt lat="45.89764" lon="5.33692">
        <ele>232.4</ele>
        <time>2024-09-19T10:04:40Z</time>
      </trkpt>
      <trkpt lat="45.89759" lon="5.33694">
        <ele>232.6</ele>
        <time>2024-09-19T10:04:41Z</time>
      </trkpt>
      <trkpt lat="45.89755" lon="5.33695">
        <ele>232.6</ele>
        <time>2024-09-19T10:04:42Z</time>
      </trkpt>
      <trkpt lat="45.8975" lon="5.33697">
        <ele>232.6</ele>
        <time>2024-09-19T10:04:43Z</time>
      </trkpt>
      <trkpt lat="45.89747" lon="5.33699">
        <ele>232.6</ele>
        <time>2024-09-19T10:04:44Z</time>
      </trkpt>
      <trkpt lat="45.89743" lon="5.33701">
        <ele>232.6</ele>
        <time>2024-09-19T10:04:45Z</time>
      </trkpt>
      <trkpt lat="45.89739" lon="5.33703">
        <ele>232.6</ele>
        <time>2024-09-19T10:04:46Z</time>
      </trkpt>
      <trkpt lat="45.89735" lon="5.33705">
        <ele>232.6</ele>
        <time>2024-09-19T10:04:47Z</time>
      </trkpt>
      <trkpt lat="45.89731" lon="5.33708">
        <ele>231.8</ele>
        <time>2024-09-19T10:04:48Z</time>
      </trkpt>
      <trkpt lat="45.89728" lon="5.3371">
        <ele>231.8</ele>
        <time>2024-09-19T10:04:49Z</time>
      </trkpt>
      <trkpt lat="45.89724" lon="5.33712">
        <ele>232.2</ele>
        <time>2024-09-19T10:04:50Z</time>
      </trkpt>
      <trkpt lat="45.89719" lon="5.33715">
        <ele>232.2</ele>
        <time>2024-09-19T10:04:51Z</time>
      </trkpt>
      <trkpt lat="45.89715" lon="5.33719">
        <ele>231.8</ele>
        <time>2024-09-19T10:04:52Z</time>
      </trkpt>
      <trkpt lat="45.89711" lon="5.33722">
        <ele>232.2</ele>
        <time>2024-09-19T10:04:53Z</time>
      </trkpt>
      <trkpt lat="45.89707" lon="5.33725">
        <ele>232.2</ele>
        <time>2024-09-19T10:04:54Z</time>
      </trkpt>
      <trkpt lat="45.89701" lon="5.33728">
        <ele>232.2</ele>
        <time>2024-09-19T10:04:55Z</time>
      </trkpt>
      <trkpt lat="45.89697" lon="5.33731">
        <ele>232.2</ele>
        <time>2024-09-19T10:04:56Z</time>
      </trkpt>
      <trkpt lat="45.89692" lon="5.33733">
        <ele>232</ele>
        <time>2024-09-19T10:04:57Z</time>
      </trkpt>
      <trkpt lat="45.89687" lon="5.33737">
        <ele>232.2</ele>
        <time>2024-09-19T10:04:58Z</time>
      </trkpt>
      <trkpt lat="45.89682" lon="5.33741">
        <ele>231.6</ele>
        <time>2024-09-19T10:04:59Z</time>
      </trkpt>
      <trkpt lat="45.89676" lon="5.33744">
        <ele>231.2</ele>
        <time>2024-09-19T10:05:00Z</time>
      </trkpt>
      <trkpt lat="45.89671" lon="5.33748">
        <ele>230.8</ele>
        <time>2024-09-19T10:05:01Z</time>
      </trkpt>
      <trkpt lat="45.89665" lon="5.33752">
        <ele>230.6</ele>
        <time>2024-09-19T10:05:02Z</time>
      </trkpt>
      <trkpt lat="45.89659" lon="5.33755">
        <ele>230.2</ele>
        <time>2024-09-19T10:05:03Z</time>
      </trkpt>
      <trkpt lat="45.89653" lon="5.33759">
        <ele>229.8</ele>
        <time>2024-09-19T10:05:04Z</time>
      </trkpt>
      <trkpt lat="45.89646" lon="5.33762">
        <ele>229.4</ele>
        <time>2024-09-19T10:05:05Z</time>
      </trkpt>
      <trkpt lat="45.8964" lon="5.33766">
        <ele>229</ele>
        <time>2024-09-19T10:05:06Z</time>
      </trkpt>
      <trkpt lat="45.89634" lon="5.33768">
        <ele>229</ele>
        <time>2024-09-19T10:05:07Z</time>
      </trkpt>
      <trkpt lat="45.89627" lon="5.33771">
        <ele>228.8</ele>
        <time>2024-09-19T10:05:08Z</time>
      </trkpt>
      <trkpt lat="45.8962" lon="5.33774">
        <ele>228.8</ele>
        <time>2024-09-19T10:05:09Z</time>
      </trkpt>
      <trkpt lat="45.89613" lon="5.33776">
        <ele>229</ele>
        <time>2024-09-19T10:05:10Z</time>
      </trkpt>
      <trkpt lat="45.89606" lon="5.33779">
        <ele>229</ele>
        <time>2024-09-19T10:05:11Z</time>
      </trkpt>
      <trkpt lat="45.89599" lon="5.33781">
        <ele>228.8</ele>
        <time>2024-09-19T10:05:12Z</time>
      </trkpt>
      <trkpt lat="45.89592" lon="5.33782">
        <ele>228.8</ele>
        <time>2024-09-19T10:05:13Z</time>
      </trkpt>
      <trkpt lat="45.89586" lon="5.33783">
        <ele>228.8</ele>
        <time>2024-09-19T10:05:14Z</time>
      </trkpt>
      <trkpt lat="45.8958" lon="5.33784">
        <ele>228.8</ele>
        <time>2024-09-19T10:05:15Z</time>
      </trkpt>
      <trkpt lat="45.89574" lon="5.33785">
        <ele>229</ele>
        <time>2024-09-19T10:05:16Z</time>
      </trkpt>
      <trkpt lat="45.89569" lon="5.33786">
        <ele>229.4</ele>
        <time>2024-09-19T10:05:17Z</time>
      </trkpt>
      <trkpt lat="45.89563" lon="5.33787">
        <ele>229.6</ele>
        <time>2024-09-19T10:05:18Z</time>
      </trkpt>
      <trkpt lat="45.89558" lon="5.33787">
        <ele>230</ele>
        <time>2024-09-19T10:05:19Z</time>
      </trkpt>
      <trkpt lat="45.89552" lon="5.33788">
        <ele>230</ele>
        <time>2024-09-19T10:05:20Z</time>
      </trkpt>
      <trkpt lat="45.89547" lon="5.33788">
        <ele>230.2</ele>
        <time>2024-09-19T10:05:21Z</time>
      </trkpt>
      <trkpt lat="45.89542" lon="5.33788">
        <ele>230.2</ele>
        <time>2024-09-19T10:05:22Z</time>
      </trkpt>
      <trkpt lat="45.89538" lon="5.33787">
        <ele>230.6</ele>
        <time>2024-09-19T10:05:23Z</time>
      </trkpt>
      <trkpt lat="45.89533" lon="5.33786">
        <ele>231.4</ele>
        <time>2024-09-19T10:05:24Z</time>
      </trkpt>
      <trkpt lat="45.89528" lon="5.33785">
        <ele>231.6</ele>
        <time>2024-09-19T10:05:25Z</time>
      </trkpt>
      <trkpt lat="45.89524" lon="5.33784">
        <ele>232</ele>
        <time>2024-09-19T10:05:26Z</time>
      </trkpt>
      <trkpt lat="45.8952" lon="5.33783">
        <ele>232</ele>
        <time>2024-09-19T10:05:27Z</time>
      </trkpt>
      <trkpt lat="45.89516" lon="5.33781">
        <ele>232.4</ele>
        <time>2024-09-19T10:05:28Z</time>
      </trkpt>
      <trkpt lat="45.89513" lon="5.3378">
        <ele>232.6</ele>
        <time>2024-09-19T10:05:29Z</time>
      </trkpt>
      <trkpt lat="45.89509" lon="5.33778">
        <ele>232.6</ele>
        <time>2024-09-19T10:05:30Z</time>
      </trkpt>
      <trkpt lat="45.89506" lon="5.33776">
        <ele>233.2</ele>
        <time>2024-09-19T10:05:31Z</time>
      </trkpt>
      <trkpt lat="45.89503" lon="5.33775">
        <ele>233.2</ele>
        <time>2024-09-19T10:05:32Z</time>
      </trkpt>
      <trkpt lat="45.895" lon="5.33772">
        <ele>233.8</ele>
        <time>2024-09-19T10:05:33Z</time>
      </trkpt>
      <trkpt lat="45.89496" lon="5.3377">
        <ele>234.2</ele>
        <time>2024-09-19T10:05:34Z</time>
      </trkpt>
      <trkpt lat="45.89493" lon="5.33769">
        <ele>234.4</ele>
        <time>2024-09-19T10:05:35Z</time>
      </trkpt>
      <trkpt lat="45.8949" lon="5.33767">
        <ele>234.8</ele>
        <time>2024-09-19T10:05:36Z</time>
      </trkpt>
      <trkpt lat="45.89487" lon="5.33765">
        <ele>234.8</ele>
        <time>2024-09-19T10:05:37Z</time>
      </trkpt>
      <trkpt lat="45.89485" lon="5.33764">
        <ele>235.4</ele>
        <time>2024-09-19T10:05:38Z</time>
      </trkpt>
      <trkpt lat="45.89484" lon="5.33763">
        <ele>235.8</ele>
        <time>2024-09-19T10:05:39Z</time>
      </trkpt>
      <trkpt lat="45.89481" lon="5.33761">
        <ele>236</ele>
        <time>2024-09-19T10:05:40Z</time>
      </trkpt>
      <trkpt lat="45.89479" lon="5.3376">
        <ele>236.2</ele>
        <time>2024-09-19T10:05:41Z</time>
      </trkpt>
      <trkpt lat="45.89477" lon="5.33759">
        <ele>236.6</ele>
        <time>2024-09-19T10:05:42Z</time>
      </trkpt>
      <trkpt lat="45.89475" lon="5.33758">
        <ele>236.6</ele>
        <time>2024-09-19T10:05:43Z</time>
      </trkpt>
      <trkpt lat="45.89472" lon="5.33756">
        <ele>236.8</ele>
        <time>2024-09-19T10:05:44Z</time>
      </trkpt>
      <trkpt lat="45.8947" lon="5.33755">
        <ele>236.8</ele>
        <time>2024-09-19T10:05:45Z</time>
      </trkpt>
      <trkpt lat="45.89467" lon="5.33753">
        <ele>237.2</ele>
        <time>2024-09-19T10:05:46Z</time>
      </trkpt>
      <trkpt lat="45.89465" lon="5.33752">
        <ele>237.4</ele>
        <time>2024-09-19T10:05:47Z</time>
      </trkpt>
      <trkpt lat="45.89462" lon="5.33751">
        <ele>237.8</ele>
        <time>2024-09-19T10:05:48Z</time>
      </trkpt>
      <trkpt lat="45.89459" lon="5.33751">
        <ele>237.8</ele>
        <time>2024-09-19T10:05:49Z</time>
      </trkpt>
      <trkpt lat="45.89457" lon="5.3375">
        <ele>237.8</ele>
        <time>2024-09-19T10:05:50Z</time>
      </trkpt>
      <trkpt lat="45.89454" lon="5.33749">
        <ele>237.2</ele>
        <time>2024-09-19T10:05:51Z</time>
      </trkpt>
      <trkpt lat="45.89451" lon="5.33748">
        <ele>237.2</ele>
        <time>2024-09-19T10:05:52Z</time>
      </trkpt>
      <trkpt lat="45.89448" lon="5.33747">
        <ele>237.2</ele>
        <time>2024-09-19T10:05:53Z</time>
      </trkpt>
      <trkpt lat="45.89444" lon="5.33747">
        <ele>237.2</ele>
        <time>2024-09-19T10:05:54Z</time>
      </trkpt>
      <trkpt lat="45.8944" lon="5.33746">
        <ele>237.2</ele>
        <time>2024-09-19T10:05:55Z</time>
      </trkpt>
      <trkpt lat="45.89434" lon="5.33746">
        <ele>236.8</ele>
        <time>2024-09-19T10:05:56Z</time>
      </trkpt>
      <trkpt lat="45.89429" lon="5.33745">
        <ele>236.2</ele>
        <time>2024-09-19T10:05:57Z</time>
      </trkpt>
      <trkpt lat="45.89423" lon="5.33744">
        <ele>235.4</ele>
        <time>2024-09-19T10:05:58Z</time>
      </trkpt>
      <trkpt lat="45.89416" lon="5.33743">
        <ele>234.8</ele>
        <time>2024-09-19T10:05:59Z</time>
      </trkpt>
      <trkpt lat="45.89408" lon="5.33741">
        <ele>234</ele>
        <time>2024-09-19T10:06:00Z</time>
      </trkpt>
      <trkpt lat="45.894" lon="5.33739">
        <ele>233.4</ele>
        <time>2024-09-19T10:06:01Z</time>
      </trkpt>
      <trkpt lat="45.89392" lon="5.33738">
        <ele>232.8</ele>
        <time>2024-09-19T10:06:02Z</time>
      </trkpt>
      <trkpt lat="45.89384" lon="5.33737">
        <ele>232.2</ele>
        <time>2024-09-19T10:06:03Z</time>
      </trkpt>
      <trkpt lat="45.89376" lon="5.33734">
        <ele>231.6</ele>
        <time>2024-09-19T10:06:04Z</time>
      </trkpt>
      <trkpt lat="45.89368" lon="5.33733">
        <ele>231.2</ele>
        <time>2024-09-19T10:06:05Z</time>
      </trkpt>
      <trkpt lat="45.8936" lon="5.33732">
        <ele>230.8</ele>
        <time>2024-09-19T10:06:06Z</time>
      </trkpt>
      <trkpt lat="45.89352" lon="5.33731">
        <ele>230.2</ele>
        <time>2024-09-19T10:06:07Z</time>
      </trkpt>
      <trkpt lat="45.89344" lon="5.33728">
        <ele>230.2</ele>
        <time>2024-09-19T10:06:08Z</time>
      </trkpt>
      <trkpt lat="45.89341" lon="5.33727">
        <ele>229.8</ele>
        <time>2024-09-19T10:06:09Z</time>
      </trkpt>
      <trkpt lat="45.89333" lon="5.33726">
        <ele>229.8</ele>
        <time>2024-09-19T10:06:10Z</time>
      </trkpt>
      <trkpt lat="45.89326" lon="5.33725">
        <ele>229.6</ele>
        <time>2024-09-19T10:06:11Z</time>
      </trkpt>
      <trkpt lat="45.89317" lon="5.33723">
        <ele>229.2</ele>
        <time>2024-09-19T10:06:12Z</time>
      </trkpt>
      <trkpt lat="45.8931" lon="5.33719">
        <ele>229.2</ele>
        <time>2024-09-19T10:06:13Z</time>
      </trkpt>
      <trkpt lat="45.89301" lon="5.33716">
        <ele>228.8</ele>
        <time>2024-09-19T10:06:14Z</time>
      </trkpt>
      <trkpt lat="45.89294" lon="5.33711">
        <ele>227.8</ele>
        <time>2024-09-19T10:06:15Z</time>
      </trkpt>
      <trkpt lat="45.89288" lon="5.33706">
        <ele>228.6</ele>
        <time>2024-09-19T10:06:16Z</time>
      </trkpt>
      <trkpt lat="45.89281" lon="5.33701">
        <ele>228.6</ele>
        <time>2024-09-19T10:06:17Z</time>
      </trkpt>
      <trkpt lat="45.89275" lon="5.33695">
        <ele>227.6</ele>
        <time>2024-09-19T10:06:18Z</time>
      </trkpt>
      <trkpt lat="45.89269" lon="5.33692">
        <ele>227.6</ele>
        <time>2024-09-19T10:06:19Z</time>
      </trkpt>
      <trkpt lat="45.89263" lon="5.33688">
        <ele>227.6</ele>
        <time>2024-09-19T10:06:20Z</time>
      </trkpt>
      <trkpt lat="45.89257" lon="5.33686">
        <ele>227.4</ele>
        <time>2024-09-19T10:06:21Z</time>
      </trkpt>
      <trkpt lat="45.89251" lon="5.33685">
        <ele>227.4</ele>
        <time>2024-09-19T10:06:22Z</time>
      </trkpt>
      <trkpt lat="45.89245" lon="5.33686">
        <ele>227.4</ele>
        <time>2024-09-19T10:06:23Z</time>
      </trkpt>
      <trkpt lat="45.89238" lon="5.33689">
        <ele>227.4</ele>
        <time>2024-09-19T10:06:24Z</time>
      </trkpt>
      <trkpt lat="45.89232" lon="5.33691">
        <ele>227</ele>
        <time>2024-09-19T10:06:25Z</time>
      </trkpt>
      <trkpt lat="45.89225" lon="5.33694">
        <ele>226.8</ele>
        <time>2024-09-19T10:06:26Z</time>
      </trkpt>
      <trkpt lat="45.89218" lon="5.33696">
        <ele>226.8</ele>
        <time>2024-09-19T10:06:27Z</time>
      </trkpt>
      <trkpt lat="45.89212" lon="5.33699">
        <ele>226.4</ele>
        <time>2024-09-19T10:06:28Z</time>
      </trkpt>
      <trkpt lat="45.89206" lon="5.33701">
        <ele>226.4</ele>
        <time>2024-09-19T10:06:29Z</time>
      </trkpt>
      <trkpt lat="45.892" lon="5.33703">
        <ele>226.4</ele>
        <time>2024-09-19T10:06:30Z</time>
      </trkpt>
      <trkpt lat="45.89194" lon="5.33704">
        <ele>226.4</ele>
        <time>2024-09-19T10:06:31Z</time>
      </trkpt>
      <trkpt lat="45.89187" lon="5.33704">
        <ele>226.2</ele>
        <time>2024-09-19T10:06:32Z</time>
      </trkpt>
      <trkpt lat="45.89181" lon="5.33702">
        <ele>226.2</ele>
        <time>2024-09-19T10:06:33Z</time>
      </trkpt>
      <trkpt lat="45.89176" lon="5.33696">
        <ele>225.8</ele>
        <time>2024-09-19T10:06:34Z</time>
      </trkpt>
      <trkpt lat="45.89173" lon="5.33689">
        <ele>225.8</ele>
        <time>2024-09-19T10:06:35Z</time>
      </trkpt>
      <trkpt lat="45.89171" lon="5.3368">
        <ele>225.6</ele>
        <time>2024-09-19T10:06:36Z</time>
      </trkpt>
      <trkpt lat="45.89169" lon="5.33672">
        <ele>225.6</ele>
        <time>2024-09-19T10:06:37Z</time>
      </trkpt>
      <trkpt lat="45.89168" lon="5.33664">
        <ele>225.6</ele>
        <time>2024-09-19T10:06:38Z</time>
      </trkpt>
      <trkpt lat="45.89166" lon="5.33656">
        <ele>225.6</ele>
        <time>2024-09-19T10:06:39Z</time>
      </trkpt>
      <trkpt lat="45.89165" lon="5.33646">
        <ele>225.6</ele>
        <time>2024-09-19T10:06:40Z</time>
      </trkpt>
      <trkpt lat="45.89165" lon="5.33637">
        <ele>225.6</ele>
        <time>2024-09-19T10:06:41Z</time>
      </trkpt>
      <trkpt lat="45.89165" lon="5.33628">
        <ele>225.6</ele>
        <time>2024-09-19T10:06:42Z</time>
      </trkpt>
      <trkpt lat="45.89166" lon="5.33619">
        <ele>225.6</ele>
        <time>2024-09-19T10:06:43Z</time>
      </trkpt>
      <trkpt lat="45.89167" lon="5.3361">
        <ele>225.6</ele>
        <time>2024-09-19T10:06:44Z</time>
      </trkpt>
      <trkpt lat="45.89166" lon="5.33602">
        <ele>225.6</ele>
        <time>2024-09-19T10:06:45Z</time>
      </trkpt>
      <trkpt lat="45.89164" lon="5.33596">
        <ele>225.6</ele>
        <time>2024-09-19T10:06:46Z</time>
      </trkpt>
      <trkpt lat="45.8916" lon="5.33594">
        <ele>225.6</ele>
        <time>2024-09-19T10:06:47Z</time>
      </trkpt>
      <trkpt lat="45.89156" lon="5.33595">
        <ele>225.6</ele>
        <time>2024-09-19T10:06:48Z</time>
      </trkpt>
      <trkpt lat="45.89154" lon="5.33595">
        <ele>225.6</ele>
        <time>2024-09-19T10:06:49Z</time>
      </trkpt>
      <trkpt lat="45.89152" lon="5.33597">
        <ele>226</ele>
        <time>2024-09-19T10:06:50Z</time>
      </trkpt>
      <trkpt lat="45.89149" lon="5.336">
        <ele>226</ele>
        <time>2024-09-19T10:06:51Z</time>
      </trkpt>
      <trkpt lat="45.89149" lon="5.33606">
        <ele>225.6</ele>
        <time>2024-09-19T10:06:52Z</time>
      </trkpt>
      <trkpt lat="45.89149" lon="5.33611">
        <ele>225.6</ele>
        <time>2024-09-19T10:06:53Z</time>
      </trkpt>
      <trkpt lat="45.89151" lon="5.33616">
        <ele>225.6</ele>
        <time>2024-09-19T10:06:54Z</time>
      </trkpt>
      <trkpt lat="45.89152" lon="5.33622">
        <ele>225.4</ele>
        <time>2024-09-19T10:06:55Z</time>
      </trkpt>
      <trkpt lat="45.89152" lon="5.33628">
        <ele>225.4</ele>
        <time>2024-09-19T10:06:56Z</time>
      </trkpt>
      <trkpt lat="45.89154" lon="5.33634">
        <ele>225.4</ele>
        <time>2024-09-19T10:06:57Z</time>
      </trkpt>
      <trkpt lat="45.89155" lon="5.33641">
        <ele>224.4</ele>
        <time>2024-09-19T10:06:58Z</time>
      </trkpt>
      <trkpt lat="45.89156" lon="5.33647">
        <ele>224.6</ele>
        <time>2024-09-19T10:06:59Z</time>
      </trkpt>
      <trkpt lat="45.89157" lon="5.33655">
        <ele>224</ele>
        <time>2024-09-19T10:07:00Z</time>
      </trkpt>
      <trkpt lat="45.89158" lon="5.33663">
        <ele>223.6</ele>
        <time>2024-09-19T10:07:01Z</time>
      </trkpt>
      <trkpt lat="45.89159" lon="5.3367">
        <ele>224.4</ele>
        <time>2024-09-19T10:07:02Z</time>
      </trkpt>
      <trkpt lat="45.8916" lon="5.33678">
        <ele>224.4</ele>
        <time>2024-09-19T10:07:03Z</time>
      </trkpt>
      <trkpt lat="45.89161" lon="5.33686">
        <ele>224.4</ele>
        <time>2024-09-19T10:07:04Z</time>
      </trkpt>
      <trkpt lat="45.89162" lon="5.33694">
        <ele>224.2</ele>
        <time>2024-09-19T10:07:05Z</time>
      </trkpt>
      <trkpt lat="45.89164" lon="5.33703">
        <ele>224.2</ele>
        <time>2024-09-19T10:07:06Z</time>
      </trkpt>
      <trkpt lat="45.89165" lon="5.33712">
        <ele>224.2</ele>
        <time>2024-09-19T10:07:07Z</time>
      </trkpt>
      <trkpt lat="45.89167" lon="5.33721">
        <ele>223.8</ele>
        <time>2024-09-19T10:07:08Z</time>
      </trkpt>
      <trkpt lat="45.89168" lon="5.3373">
        <ele>223.8</ele>
        <time>2024-09-19T10:07:09Z</time>
      </trkpt>
      <trkpt lat="45.89169" lon="5.33739">
        <ele>223.4</ele>
        <time>2024-09-19T10:07:10Z</time>
      </trkpt>
      <trkpt lat="45.89168" lon="5.3375">
        <ele>223.2</ele>
        <time>2024-09-19T10:07:11Z</time>
      </trkpt>
      <trkpt lat="45.89171" lon="5.33759">
        <ele>223</ele>
        <time>2024-09-19T10:07:12Z</time>
      </trkpt>
      <trkpt lat="45.89173" lon="5.33768">
        <ele>222.6</ele>
        <time>2024-09-19T10:07:13Z</time>
      </trkpt>
      <trkpt lat="45.89175" lon="5.33778">
        <ele>222.6</ele>
        <time>2024-09-19T10:07:14Z</time>
      </trkpt>
      <trkpt lat="45.89177" lon="5.33787">
        <ele>222.4</ele>
        <time>2024-09-19T10:07:15Z</time>
      </trkpt>
      <trkpt lat="45.89178" lon="5.33796">
        <ele>222.4</ele>
        <time>2024-09-19T10:07:16Z</time>
      </trkpt>
      <trkpt lat="45.89181" lon="5.33806">
        <ele>222.4</ele>
        <time>2024-09-19T10:07:17Z</time>
      </trkpt>
      <trkpt lat="45.89181" lon="5.33806">
        <ele>222</ele>
        <time>2024-09-19T10:07:18Z</time>
      </trkpt>
      <trkpt lat="45.89184" lon="5.33814">
        <ele>222</ele>
        <time>2024-09-19T10:07:19Z</time>
      </trkpt>
      <trkpt lat="45.89186" lon="5.33823">
        <ele>222</ele>
        <time>2024-09-19T10:07:20Z</time>
      </trkpt>
      <trkpt lat="45.89189" lon="5.33831">
        <ele>222</ele>
        <time>2024-09-19T10:07:21Z</time>
      </trkpt>
      <trkpt lat="45.89191" lon="5.3384">
        <ele>222.4</ele>
        <time>2024-09-19T10:07:22Z</time>
      </trkpt>
      <trkpt lat="45.89194" lon="5.33849">
        <ele>222.2</ele>
        <time>2024-09-19T10:07:23Z</time>
      </trkpt>
      <trkpt lat="45.89197" lon="5.33858">
        <ele>222.2</ele>
        <time>2024-09-19T10:07:24Z</time>
      </trkpt>
      <trkpt lat="45.89199" lon="5.33867">
        <ele>222</ele>
        <time>2024-09-19T10:07:25Z</time>
      </trkpt>
      <trkpt lat="45.89201" lon="5.33875">
        <ele>222</ele>
        <time>2024-09-19T10:07:26Z</time>
      </trkpt>
      <trkpt lat="45.89204" lon="5.33884">
        <ele>222</ele>
        <time>2024-09-19T10:07:27Z</time>
      </trkpt>
      <trkpt lat="45.89206" lon="5.33893">
        <ele>222</ele>
        <time>2024-09-19T10:07:28Z</time>
      </trkpt>
      <trkpt lat="45.89208" lon="5.33902">
        <ele>221.8</ele>
        <time>2024-09-19T10:07:29Z</time>
      </trkpt>
      <trkpt lat="45.8921" lon="5.33919">
        <ele>221.8</ele>
        <time>2024-09-19T10:07:30Z</time>
      </trkpt>
      <trkpt lat="45.89211" lon="5.33928">
        <ele>221.6</ele>
        <time>2024-09-19T10:07:31Z</time>
      </trkpt>
      <trkpt lat="45.89213" lon="5.33937">
        <ele>221.6</ele>
        <time>2024-09-19T10:07:32Z</time>
      </trkpt>
      <trkpt lat="45.89213" lon="5.33945">
        <ele>221.6</ele>
        <time>2024-09-19T10:07:33Z</time>
      </trkpt>
      <trkpt lat="45.89213" lon="5.33954">
        <ele>221.6</ele>
        <time>2024-09-19T10:07:34Z</time>
      </trkpt>
      <trkpt lat="45.89213" lon="5.33963">
        <ele>221.6</ele>
        <time>2024-09-19T10:07:35Z</time>
      </trkpt>
      <trkpt lat="45.89213" lon="5.33972">
        <ele>221.6</ele>
        <time>2024-09-19T10:07:36Z</time>
      </trkpt>
      <trkpt lat="45.89213" lon="5.3398">
        <ele>221.6</ele>
        <time>2024-09-19T10:07:37Z</time>
      </trkpt>
      <trkpt lat="45.89212" lon="5.33989">
        <ele>221.6</ele>
        <time>2024-09-19T10:07:38Z</time>
      </trkpt>
      <trkpt lat="45.89212" lon="5.33998">
        <ele>221.6</ele>
        <time>2024-09-19T10:07:39Z</time>
      </trkpt>
      <trkpt lat="45.89211" lon="5.34007">
        <ele>221.6</ele>
        <time>2024-09-19T10:07:40Z</time>
      </trkpt>
      <trkpt lat="45.8921" lon="5.34016">
        <ele>221.6</ele>
        <time>2024-09-19T10:07:41Z</time>
      </trkpt>
      <trkpt lat="45.89209" lon="5.34025">
        <ele>221.6</ele>
        <time>2024-09-19T10:07:42Z</time>
      </trkpt>
      <trkpt lat="45.89208" lon="5.34033">
        <ele>221.6</ele>
        <time>2024-09-19T10:07:43Z</time>
      </trkpt>
      <trkpt lat="45.89207" lon="5.34041">
        <ele>221.6</ele>
        <time>2024-09-19T10:07:44Z</time>
      </trkpt>
      <trkpt lat="45.89206" lon="5.34049">
        <ele>221.8</ele>
        <time>2024-09-19T10:07:45Z</time>
      </trkpt>
      <trkpt lat="45.89206" lon="5.34057">
        <ele>221.8</ele>
        <time>2024-09-19T10:07:46Z</time>
      </trkpt>
      <trkpt lat="45.89206" lon="5.34065">
        <ele>221.8</ele>
        <time>2024-09-19T10:07:47Z</time>
      </trkpt>
      <trkpt lat="45.89206" lon="5.34073">
        <ele>221.4</ele>
        <time>2024-09-19T10:07:48Z</time>
      </trkpt>
      <trkpt lat="45.89206" lon="5.34082">
        <ele>221.2</ele>
        <time>2024-09-19T10:07:49Z</time>
      </trkpt>
      <trkpt lat="45.89206" lon="5.34091">
        <ele>220.8</ele>
        <time>2024-09-19T10:07:50Z</time>
      </trkpt>
      <trkpt lat="45.89206" lon="5.34099">
        <ele>220.4</ele>
        <time>2024-09-19T10:07:51Z</time>
      </trkpt>
      <trkpt lat="45.89207" lon="5.34108">
        <ele>220.4</ele>
        <time>2024-09-19T10:07:52Z</time>
      </trkpt>
      <trkpt lat="45.89208" lon="5.34117">
        <ele>220</ele>
        <time>2024-09-19T10:07:53Z</time>
      </trkpt>
      <trkpt lat="45.89208" lon="5.34127">
        <ele>220</ele>
        <time>2024-09-19T10:07:54Z</time>
      </trkpt>
      <trkpt lat="45.89209" lon="5.34137">
        <ele>220</ele>
        <time>2024-09-19T10:07:55Z</time>
      </trkpt>
      <trkpt lat="45.8921" lon="5.34146">
        <ele>219.8</ele>
        <time>2024-09-19T10:07:56Z</time>
      </trkpt>
      <trkpt lat="45.89211" lon="5.34155">
        <ele>219.6</ele>
        <time>2024-09-19T10:07:57Z</time>
      </trkpt>
      <trkpt lat="45.89211" lon="5.34164">
        <ele>219.6</ele>
        <time>2024-09-19T10:07:58Z</time>
      </trkpt>
      <trkpt lat="45.89211" lon="5.34171">
        <ele>219.6</ele>
        <time>2024-09-19T10:07:59Z</time>
      </trkpt>
      <trkpt lat="45.89209" lon="5.34178">
        <ele>219.6</ele>
        <time>2024-09-19T10:08:00Z</time>
      </trkpt>
      <trkpt lat="45.89207" lon="5.34185">
        <ele>219.6</ele>
        <time>2024-09-19T10:08:01Z</time>
      </trkpt>
      <trkpt lat="45.89202" lon="5.34189">
        <ele>219.2</ele>
        <time>2024-09-19T10:08:02Z</time>
      </trkpt>
      <trkpt lat="45.89197" lon="5.3419">
        <ele>219.2</ele>
        <time>2024-09-19T10:08:03Z</time>
      </trkpt>
      <trkpt lat="45.89191" lon="5.3419">
        <ele>219.2</ele>
        <time>2024-09-19T10:08:04Z</time>
      </trkpt>
      <trkpt lat="45.89185" lon="5.3419">
        <ele>218.8</ele>
        <time>2024-09-19T10:08:05Z</time>
      </trkpt>
      <trkpt lat="45.89179" lon="5.3419">
        <ele>218.6</ele>
        <time>2024-09-19T10:08:06Z</time>
      </trkpt>
      <trkpt lat="45.89173" lon="5.3419">
        <ele>218.6</ele>
        <time>2024-09-19T10:08:07Z</time>
      </trkpt>
      <trkpt lat="45.89166" lon="5.34191">
        <ele>218.4</ele>
        <time>2024-09-19T10:08:08Z</time>
      </trkpt>
      <trkpt lat="45.8916" lon="5.34191">
        <ele>218.4</ele>
        <time>2024-09-19T10:08:09Z</time>
      </trkpt>
      <trkpt lat="45.89153" lon="5.34189">
        <ele>218.4</ele>
        <time>2024-09-19T10:08:10Z</time>
      </trkpt>
      <trkpt lat="45.89147" lon="5.34188">
        <ele>218.4</ele>
        <time>2024-09-19T10:08:11Z</time>
      </trkpt>
      <trkpt lat="45.89141" lon="5.34188">
        <ele>218</ele>
        <time>2024-09-19T10:08:12Z</time>
      </trkpt>
      <trkpt lat="45.89135" lon="5.34187">
        <ele>218</ele>
        <time>2024-09-19T10:08:13Z</time>
      </trkpt>
      <trkpt lat="45.89129" lon="5.34186">
        <ele>218</ele>
        <time>2024-09-19T10:08:14Z</time>
      </trkpt>
      <trkpt lat="45.89123" lon="5.34186">
        <ele>218</ele>
        <time>2024-09-19T10:08:15Z</time>
      </trkpt>
      <trkpt lat="45.89117" lon="5.34185">
        <ele>218</ele>
        <time>2024-09-19T10:08:16Z</time>
      </trkpt>
      <trkpt lat="45.8911" lon="5.34184">
        <ele>218.2</ele>
        <time>2024-09-19T10:08:17Z</time>
      </trkpt>
      <trkpt lat="45.89104" lon="5.34184">
        <ele>218.2</ele>
        <time>2024-09-19T10:08:18Z</time>
      </trkpt>
      <trkpt lat="45.89098" lon="5.34184">
        <ele>218.2</ele>
        <time>2024-09-19T10:08:19Z</time>
      </trkpt>
      <trkpt lat="45.89092" lon="5.34184">
        <ele>218.2</ele>
        <time>2024-09-19T10:08:20Z</time>
      </trkpt>
      <trkpt lat="45.89086" lon="5.34183">
        <ele>217.8</ele>
        <time>2024-09-19T10:08:21Z</time>
      </trkpt>
      <trkpt lat="45.89079" lon="5.34183">
        <ele>218.2</ele>
        <time>2024-09-19T10:08:22Z</time>
      </trkpt>
      <trkpt lat="45.89073" lon="5.34183">
        <ele>218.2</ele>
        <time>2024-09-19T10:08:23Z</time>
      </trkpt>
      <trkpt lat="45.89067" lon="5.34182">
        <ele>218.2</ele>
        <time>2024-09-19T10:08:24Z</time>
      </trkpt>
      <trkpt lat="45.89061" lon="5.34183">
        <ele>218.2</ele>
        <time>2024-09-19T10:08:25Z</time>
      </trkpt>
      <trkpt lat="45.89055" lon="5.34183">
        <ele>218.2</ele>
        <time>2024-09-19T10:08:26Z</time>
      </trkpt>
      <trkpt lat="45.89049" lon="5.34183">
        <ele>218.4</ele>
        <time>2024-09-19T10:08:27Z</time>
      </trkpt>
      <trkpt lat="45.89043" lon="5.34184">
        <ele>218.4</ele>
        <time>2024-09-19T10:08:28Z</time>
      </trkpt>
      <trkpt lat="45.89037" lon="5.34185">
        <ele>218.4</ele>
        <time>2024-09-19T10:08:29Z</time>
      </trkpt>
      <trkpt lat="45.89031" lon="5.34186">
        <ele>218.4</ele>
        <time>2024-09-19T10:08:30Z</time>
      </trkpt>
      <trkpt lat="45.89026" lon="5.34186">
        <ele>218.6</ele>
        <time>2024-09-19T10:08:31Z</time>
      </trkpt>
      <trkpt lat="45.89021" lon="5.34186">
        <ele>218.2</ele>
        <time>2024-09-19T10:08:32Z</time>
      </trkpt>
      <trkpt lat="45.89015" lon="5.34187">
        <ele>217.8</ele>
        <time>2024-09-19T10:08:33Z</time>
      </trkpt>
      <trkpt lat="45.8901" lon="5.34187">
        <ele>217.6</ele>
        <time>2024-09-19T10:08:34Z</time>
      </trkpt>
      <trkpt lat="45.89004" lon="5.34187">
        <ele>217.6</ele>
        <time>2024-09-19T10:08:35Z</time>
      </trkpt>
      <trkpt lat="45.88998" lon="5.34188">
        <ele>217.8</ele>
        <time>2024-09-19T10:08:36Z</time>
      </trkpt>
      <trkpt lat="45.88993" lon="5.34189">
        <ele>218.2</ele>
        <time>2024-09-19T10:08:37Z</time>
      </trkpt>
      <trkpt lat="45.88987" lon="5.34189">
        <ele>218.6</ele>
        <time>2024-09-19T10:08:38Z</time>
      </trkpt>
      <trkpt lat="45.88982" lon="5.34189">
        <ele>218.6</ele>
        <time>2024-09-19T10:08:39Z</time>
      </trkpt>
      <trkpt lat="45.88977" lon="5.3419">
        <ele>218.6</ele>
        <time>2024-09-19T10:08:40Z</time>
      </trkpt>
      <trkpt lat="45.88971" lon="5.3419">
        <ele>218.6</ele>
        <time>2024-09-19T10:08:41Z</time>
      </trkpt>
      <trkpt lat="45.88966" lon="5.34191">
        <ele>218.6</ele>
        <time>2024-09-19T10:08:42Z</time>
      </trkpt>
      <trkpt lat="45.8896" lon="5.34192">
        <ele>219</ele>
        <time>2024-09-19T10:08:43Z</time>
      </trkpt>
      <trkpt lat="45.88954" lon="5.34193">
        <ele>219</ele>
        <time>2024-09-19T10:08:44Z</time>
      </trkpt>
      <trkpt lat="45.88949" lon="5.34193">
        <ele>218.6</ele>
        <time>2024-09-19T10:08:45Z</time>
      </trkpt>
      <trkpt lat="45.88943" lon="5.34193">
        <ele>218.6</ele>
        <time>2024-09-19T10:08:46Z</time>
      </trkpt>
      <trkpt lat="45.88937" lon="5.34194">
        <ele>218.6</ele>
        <time>2024-09-19T10:08:47Z</time>
      </trkpt>
      <trkpt lat="45.88931" lon="5.34193">
        <ele>218.6</ele>
        <time>2024-09-19T10:08:48Z</time>
      </trkpt>
      <trkpt lat="45.88926" lon="5.34193">
        <ele>218.6</ele>
        <time>2024-09-19T10:08:49Z</time>
      </trkpt>
      <trkpt lat="45.8892" lon="5.34192">
        <ele>218.6</ele>
        <time>2024-09-19T10:08:50Z</time>
      </trkpt>
      <trkpt lat="45.88915" lon="5.34193">
        <ele>218.6</ele>
        <time>2024-09-19T10:08:51Z</time>
      </trkpt>
      <trkpt lat="45.88911" lon="5.34197">
        <ele>218.8</ele>
        <time>2024-09-19T10:08:52Z</time>
      </trkpt>
      <trkpt lat="45.88908" lon="5.34203">
        <ele>218.6</ele>
        <time>2024-09-19T10:08:53Z</time>
      </trkpt>
      <trkpt lat="45.88907" lon="5.34211">
        <ele>218.6</ele>
        <time>2024-09-19T10:08:54Z</time>
      </trkpt>
      <trkpt lat="45.88907" lon="5.34219">
        <ele>218</ele>
        <time>2024-09-19T10:08:55Z</time>
      </trkpt>
      <trkpt lat="45.88908" lon="5.34228">
        <ele>217.6</ele>
        <time>2024-09-19T10:08:56Z</time>
      </trkpt>
      <trkpt lat="45.88909" lon="5.34237">
        <ele>217.6</ele>
        <time>2024-09-19T10:08:57Z</time>
      </trkpt>
      <trkpt lat="45.8891" lon="5.34247">
        <ele>217.6</ele>
        <time>2024-09-19T10:08:58Z</time>
      </trkpt>
      <trkpt lat="45.88911" lon="5.34257">
        <ele>216.8</ele>
        <time>2024-09-19T10:08:59Z</time>
      </trkpt>
      <trkpt lat="45.88912" lon="5.34268">
        <ele>216.6</ele>
        <time>2024-09-19T10:09:00Z</time>
      </trkpt>
      <trkpt lat="45.88913" lon="5.34279">
        <ele>215.8</ele>
        <time>2024-09-19T10:09:01Z</time>
      </trkpt>
      <trkpt lat="45.88913" lon="5.34291">
        <ele>215.8</ele>
        <time>2024-09-19T10:09:02Z</time>
      </trkpt>
      <trkpt lat="45.88913" lon="5.34301">
        <ele>214.8</ele>
        <time>2024-09-19T10:09:03Z</time>
      </trkpt>
      <trkpt lat="45.88914" lon="5.34312">
        <ele>214.6</ele>
        <time>2024-09-19T10:09:04Z</time>
      </trkpt>
      <trkpt lat="45.88915" lon="5.34322">
        <ele>214.2</ele>
        <time>2024-09-19T10:09:05Z</time>
      </trkpt>
      <trkpt lat="45.88915" lon="5.34333">
        <ele>213.8</ele>
        <time>2024-09-19T10:09:06Z</time>
      </trkpt>
      <trkpt lat="45.88916" lon="5.34343">
        <ele>213.8</ele>
        <time>2024-09-19T10:09:07Z</time>
      </trkpt>
      <trkpt lat="45.88917" lon="5.34353">
        <ele>213.6</ele>
        <time>2024-09-19T10:09:08Z</time>
      </trkpt>
      <trkpt lat="45.88917" lon="5.34363">
        <ele>213.6</ele>
        <time>2024-09-19T10:09:09Z</time>
      </trkpt>
      <trkpt lat="45.88918" lon="5.34373">
        <ele>213.6</ele>
        <time>2024-09-19T10:09:10Z</time>
      </trkpt>
      <trkpt lat="45.88919" lon="5.34383">
        <ele>213.6</ele>
        <time>2024-09-19T10:09:11Z</time>
      </trkpt>
      <trkpt lat="45.8892" lon="5.34392">
        <ele>213</ele>
        <time>2024-09-19T10:09:12Z</time>
      </trkpt>
      <trkpt lat="45.8892" lon="5.34402">
        <ele>213.4</ele>
        <time>2024-09-19T10:09:13Z</time>
      </trkpt>
      <trkpt lat="45.8892" lon="5.34411">
        <ele>213.6</ele>
        <time>2024-09-19T10:09:14Z</time>
      </trkpt>
      <trkpt lat="45.88921" lon="5.3442">
        <ele>214</ele>
        <time>2024-09-19T10:09:15Z</time>
      </trkpt>
      <trkpt lat="45.88922" lon="5.34429">
        <ele>214.2</ele>
        <time>2024-09-19T10:09:16Z</time>
      </trkpt>
      <trkpt lat="45.88923" lon="5.34438">
        <ele>214.2</ele>
        <time>2024-09-19T10:09:17Z</time>
      </trkpt>
      <trkpt lat="45.88924" lon="5.34446">
        <ele>214.6</ele>
        <time>2024-09-19T10:09:18Z</time>
      </trkpt>
      <trkpt lat="45.88924" lon="5.34455">
        <ele>214.6</ele>
        <time>2024-09-19T10:09:19Z</time>
      </trkpt>
      <trkpt lat="45.88926" lon="5.34462">
        <ele>215</ele>
        <time>2024-09-19T10:09:20Z</time>
      </trkpt>
      <trkpt lat="45.88927" lon="5.34471">
        <ele>215</ele>
        <time>2024-09-19T10:09:21Z</time>
      </trkpt>
      <trkpt lat="45.88928" lon="5.3448">
        <ele>215</ele>
        <time>2024-09-19T10:09:22Z</time>
      </trkpt>
      <trkpt lat="45.88928" lon="5.34489">
        <ele>215</ele>
        <time>2024-09-19T10:09:23Z</time>
      </trkpt>
      <trkpt lat="45.88928" lon="5.34498">
        <ele>215</ele>
        <time>2024-09-19T10:09:24Z</time>
      </trkpt>
      <trkpt lat="45.88928" lon="5.34507">
        <ele>215</ele>
        <time>2024-09-19T10:09:25Z</time>
      </trkpt>
      <trkpt lat="45.88929" lon="5.34516">
        <ele>214.6</ele>
        <time>2024-09-19T10:09:26Z</time>
      </trkpt>
      <trkpt lat="45.88929" lon="5.34525">
        <ele>214.6</ele>
        <time>2024-09-19T10:09:27Z</time>
      </trkpt>
      <trkpt lat="45.88931" lon="5.34536">
        <ele>214.6</ele>
        <time>2024-09-19T10:09:28Z</time>
      </trkpt>
      <trkpt lat="45.8893" lon="5.34544">
        <ele>214.6</ele>
        <time>2024-09-19T10:09:29Z</time>
      </trkpt>
      <trkpt lat="45.88931" lon="5.34553">
        <ele>214.4</ele>
        <time>2024-09-19T10:09:30Z</time>
      </trkpt>
      <trkpt lat="45.88932" lon="5.34562">
        <ele>215</ele>
        <time>2024-09-19T10:09:31Z</time>
      </trkpt>
      <trkpt lat="45.88933" lon="5.3457">
        <ele>215</ele>
        <time>2024-09-19T10:09:32Z</time>
      </trkpt>
      <trkpt lat="45.88934" lon="5.34579">
        <ele>214.8</ele>
        <time>2024-09-19T10:09:33Z</time>
      </trkpt>
      <trkpt lat="45.88934" lon="5.34587">
        <ele>215.2</ele>
        <time>2024-09-19T10:09:34Z</time>
      </trkpt>
      <trkpt lat="45.88935" lon="5.34595">
        <ele>215</ele>
        <time>2024-09-19T10:09:35Z</time>
      </trkpt>
      <trkpt lat="45.88936" lon="5.34604">
        <ele>215</ele>
        <time>2024-09-19T10:09:36Z</time>
      </trkpt>
      <trkpt lat="45.88937" lon="5.34611">
        <ele>215</ele>
        <time>2024-09-19T10:09:37Z</time>
      </trkpt>
      <trkpt lat="45.88937" lon="5.34619">
        <ele>215</ele>
        <time>2024-09-19T10:09:38Z</time>
      </trkpt>
      <trkpt lat="45.88937" lon="5.34627">
        <ele>215</ele>
        <time>2024-09-19T10:09:39Z</time>
      </trkpt>
      <trkpt lat="45.88938" lon="5.34634">
        <ele>215</ele>
        <time>2024-09-19T10:09:40Z</time>
      </trkpt>
      <trkpt lat="45.88938" lon="5.34641">
        <ele>215</ele>
        <time>2024-09-19T10:09:41Z</time>
      </trkpt>
      <trkpt lat="45.88938" lon="5.34648">
        <ele>215.4</ele>
        <time>2024-09-19T10:09:42Z</time>
      </trkpt>
      <trkpt lat="45.88938" lon="5.34655">
        <ele>215.4</ele>
        <time>2024-09-19T10:09:43Z</time>
      </trkpt>
      <trkpt lat="45.88938" lon="5.34662">
        <ele>215.4</ele>
        <time>2024-09-19T10:09:44Z</time>
      </trkpt>
      <trkpt lat="45.88939" lon="5.34669">
        <ele>215.4</ele>
        <time>2024-09-19T10:09:45Z</time>
      </trkpt>
      <trkpt lat="45.88939" lon="5.34676">
        <ele>215.8</ele>
        <time>2024-09-19T10:09:46Z</time>
      </trkpt>
      <trkpt lat="45.8894" lon="5.34683">
        <ele>215.8</ele>
        <time>2024-09-19T10:09:47Z</time>
      </trkpt>
      <trkpt lat="45.8894" lon="5.34691">
        <ele>215.8</ele>
        <time>2024-09-19T10:09:48Z</time>
      </trkpt>
      <trkpt lat="45.88941" lon="5.34699">
        <ele>215.4</ele>
        <time>2024-09-19T10:09:49Z</time>
      </trkpt>
      <trkpt lat="45.88941" lon="5.34706">
        <ele>215.4</ele>
        <time>2024-09-19T10:09:50Z</time>
      </trkpt>
      <trkpt lat="45.88942" lon="5.34714">
        <ele>215.4</ele>
        <time>2024-09-19T10:09:51Z</time>
      </trkpt>
      <trkpt lat="45.88942" lon="5.34722">
        <ele>215.4</ele>
        <time>2024-09-19T10:09:52Z</time>
      </trkpt>
      <trkpt lat="45.88942" lon="5.3473">
        <ele>215</ele>
        <time>2024-09-19T10:09:53Z</time>
      </trkpt>
      <trkpt lat="45.88943" lon="5.34737">
        <ele>214.8</ele>
        <time>2024-09-19T10:09:54Z</time>
      </trkpt>
      <trkpt lat="45.88944" lon="5.34744">
        <ele>215.2</ele>
        <time>2024-09-19T10:09:55Z</time>
      </trkpt>
      <trkpt lat="45.88944" lon="5.34749">
        <ele>215.2</ele>
        <time>2024-09-19T10:09:56Z</time>
      </trkpt>
      <trkpt lat="45.88944" lon="5.34753">
        <ele>215.4</ele>
        <time>2024-09-19T10:09:57Z</time>
      </trkpt>
      <trkpt lat="45.88944" lon="5.34755">
        <ele>215.4</ele>
        <time>2024-09-19T10:09:58Z</time>
      </trkpt>
      <trkpt lat="45.88943" lon="5.34757">
        <ele>215.4</ele>
        <time>2024-09-19T10:09:59Z</time>
      </trkpt>
      <trkpt lat="45.8894" lon="5.34758">
        <ele>215.6</ele>
        <time>2024-09-19T10:10:00Z</time>
      </trkpt>
      <trkpt lat="45.88938" lon="5.34758">
        <ele>215.6</ele>
        <time>2024-09-19T10:10:01Z</time>
      </trkpt>
      <trkpt lat="45.88935" lon="5.34759">
        <ele>215.6</ele>
        <time>2024-09-19T10:10:02Z</time>
      </trkpt>
      <trkpt lat="45.88931" lon="5.34759">
        <ele>215.6</ele>
        <time>2024-09-19T10:10:03Z</time>
      </trkpt>
      <trkpt lat="45.88927" lon="5.34759">
        <ele>215.6</ele>
        <time>2024-09-19T10:10:04Z</time>
      </trkpt>
      <trkpt lat="45.88923" lon="5.34759">
        <ele>215.6</ele>
        <time>2024-09-19T10:10:05Z</time>
      </trkpt>
      <trkpt lat="45.88919" lon="5.3476">
        <ele>215.6</ele>
        <time>2024-09-19T10:10:06Z</time>
      </trkpt>
      <trkpt lat="45.88915" lon="5.3476">
        <ele>215.6</ele>
        <time>2024-09-19T10:10:07Z</time>
      </trkpt>
      <trkpt lat="45.88911" lon="5.3476">
        <ele>215.6</ele>
        <time>2024-09-19T10:10:08Z</time>
      </trkpt>
      <trkpt lat="45.88907" lon="5.3476">
        <ele>215.6</ele>
        <time>2024-09-19T10:10:09Z</time>
      </trkpt>
      <trkpt lat="45.88902" lon="5.3476">
        <ele>215.6</ele>
        <time>2024-09-19T10:10:10Z</time>
      </trkpt>
      <trkpt lat="45.88898" lon="5.3476">
        <ele>215.6</ele>
        <time>2024-09-19T10:10:11Z</time>
      </trkpt>
      <trkpt lat="45.88893" lon="5.34761">
        <ele>215.6</ele>
        <time>2024-09-19T10:10:12Z</time>
      </trkpt>
      <trkpt lat="45.88889" lon="5.34761">
        <ele>216</ele>
        <time>2024-09-19T10:10:13Z</time>
      </trkpt>
      <trkpt lat="45.88889" lon="5.34761">
        <ele>216</ele>
        <time>2024-09-19T10:10:14Z</time>
      </trkpt>
      <trkpt lat="45.88889" lon="5.34761">
        <ele>216</ele>
        <time>2024-09-19T10:10:15Z</time>
      </trkpt>
      <trkpt lat="45.8887" lon="5.34762">
        <ele>216</ele>
        <time>2024-09-19T10:10:17Z</time>
      </trkpt>
      <trkpt lat="45.88865" lon="5.34761">
        <ele>216</ele>
        <time>2024-09-19T10:10:18Z</time>
      </trkpt>
      <trkpt lat="45.8886" lon="5.34761">
        <ele>216</ele>
        <time>2024-09-19T10:10:19Z</time>
      </trkpt>
      <trkpt lat="45.88855" lon="5.34761">
        <ele>216</ele>
        <time>2024-09-19T10:10:20Z</time>
      </trkpt>
      <trkpt lat="45.88849" lon="5.34761">
        <ele>215.6</ele>
        <time>2024-09-19T10:10:21Z</time>
      </trkpt>
      <trkpt lat="45.88843" lon="5.34762">
        <ele>215.6</ele>
        <time>2024-09-19T10:10:22Z</time>
      </trkpt>
      <trkpt lat="45.88837" lon="5.34762">
        <ele>215.4</ele>
        <time>2024-09-19T10:10:23Z</time>
      </trkpt>
      <trkpt lat="45.88832" lon="5.34761">
        <ele>215</ele>
        <time>2024-09-19T10:10:24Z</time>
      </trkpt>
      <trkpt lat="45.88825" lon="5.34762">
        <ele>214.6</ele>
        <time>2024-09-19T10:10:25Z</time>
      </trkpt>
      <trkpt lat="45.88819" lon="5.34762">
        <ele>214.4</ele>
        <time>2024-09-19T10:10:26Z</time>
      </trkpt>
      <trkpt lat="45.88813" lon="5.34762">
        <ele>214.2</ele>
        <time>2024-09-19T10:10:27Z</time>
      </trkpt>
      <trkpt lat="45.88807" lon="5.34762">
        <ele>214.2</ele>
        <time>2024-09-19T10:10:28Z</time>
      </trkpt>
      <trkpt lat="45.88801" lon="5.34762">
        <ele>214</ele>
        <time>2024-09-19T10:10:29Z</time>
      </trkpt>
      <trkpt lat="45.88795" lon="5.34762">
        <ele>213.6</ele>
        <time>2024-09-19T10:10:30Z</time>
      </trkpt>
      <trkpt lat="45.88789" lon="5.34762">
        <ele>213.2</ele>
        <time>2024-09-19T10:10:31Z</time>
      </trkpt>
      <trkpt lat="45.88783" lon="5.34763">
        <ele>213</ele>
        <time>2024-09-19T10:10:32Z</time>
      </trkpt>
      <trkpt lat="45.88777" lon="5.34763">
        <ele>212.6</ele>
        <time>2024-09-19T10:10:33Z</time>
      </trkpt>
      <trkpt lat="45.8877" lon="5.34763">
        <ele>212.6</ele>
        <time>2024-09-19T10:10:34Z</time>
      </trkpt>
      <trkpt lat="45.88764" lon="5.34764">
        <ele>212</ele>
        <time>2024-09-19T10:10:35Z</time>
      </trkpt>
      <trkpt lat="45.88757" lon="5.34764">
        <ele>211.6</ele>
        <time>2024-09-19T10:10:36Z</time>
      </trkpt>
      <trkpt lat="45.8875" lon="5.34764">
        <ele>211.6</ele>
        <time>2024-09-19T10:10:37Z</time>
      </trkpt>
      <trkpt lat="45.88744" lon="5.34764">
        <ele>211.6</ele>
        <time>2024-09-19T10:10:38Z</time>
      </trkpt>
      <trkpt lat="45.88738" lon="5.34765">
        <ele>211.4</ele>
        <time>2024-09-19T10:10:39Z</time>
      </trkpt>
      <trkpt lat="45.88731" lon="5.34765">
        <ele>211.4</ele>
        <time>2024-09-19T10:10:40Z</time>
      </trkpt>
      <trkpt lat="45.88725" lon="5.34765">
        <ele>211.4</ele>
        <time>2024-09-19T10:10:41Z</time>
      </trkpt>
      <trkpt lat="45.88718" lon="5.34764">
        <ele>211.4</ele>
        <time>2024-09-19T10:10:42Z</time>
      </trkpt>
      <trkpt lat="45.88713" lon="5.34764">
        <ele>211.4</ele>
        <time>2024-09-19T10:10:43Z</time>
      </trkpt>
      <trkpt lat="45.88708" lon="5.34764">
        <ele>211.4</ele>
        <time>2024-09-19T10:10:44Z</time>
      </trkpt>
      <trkpt lat="45.88703" lon="5.34764">
        <ele>211.4</ele>
        <time>2024-09-19T10:10:45Z</time>
      </trkpt>
      <trkpt lat="45.88699" lon="5.34764">
        <ele>211.4</ele>
        <time>2024-09-19T10:10:46Z</time>
      </trkpt>
      <trkpt lat="45.88695" lon="5.34764">
        <ele>211.6</ele>
        <time>2024-09-19T10:10:47Z</time>
      </trkpt>
      <trkpt lat="45.88692" lon="5.34764">
        <ele>211.4</ele>
        <time>2024-09-19T10:10:48Z</time>
      </trkpt>
      <trkpt lat="45.88689" lon="5.34764">
        <ele>211.4</ele>
        <time>2024-09-19T10:10:49Z</time>
      </trkpt>
      <trkpt lat="45.88688" lon="5.34764">
        <ele>211.4</ele>
        <time>2024-09-19T10:10:50Z</time>
      </trkpt>
      <trkpt lat="45.88688" lon="5.34764">
        <ele>211.6</ele>
        <time>2024-09-19T10:10:51Z</time>
      </trkpt>
      <trkpt lat="45.88687" lon="5.34765">
        <ele>211.6</ele>
        <time>2024-09-19T10:10:52Z</time>
      </trkpt>
      <trkpt lat="45.88688" lon="5.34765">
        <ele>211.6</ele>
        <time>2024-09-19T10:10:53Z</time>
      </trkpt>
      <trkpt lat="45.88688" lon="5.34765">
        <ele>212</ele>
        <time>2024-09-19T10:10:54Z</time>
      </trkpt>
      <trkpt lat="45.88682" lon="5.34771">
        <ele>212</ele>
        <time>2024-09-19T10:11:11Z</time>
      </trkpt>
      <trkpt lat="45.8868" lon="5.34773">
        <ele>212</ele>
        <time>2024-09-19T10:11:12Z</time>
      </trkpt>
      <trkpt lat="45.88679" lon="5.34775">
        <ele>212</ele>
        <time>2024-09-19T10:11:13Z</time>
      </trkpt>
      <trkpt lat="45.8868" lon="5.34782">
        <ele>211.8</ele>
        <time>2024-09-19T10:11:14Z</time>
      </trkpt>
      <trkpt lat="45.88679" lon="5.34787">
        <ele>211.8</ele>
        <time>2024-09-19T10:11:15Z</time>
      </trkpt>
      <trkpt lat="45.88679" lon="5.34794">
        <ele>211.4</ele>
        <time>2024-09-19T10:11:16Z</time>
      </trkpt>
      <trkpt lat="45.88678" lon="5.34801">
        <ele>211.2</ele>
        <time>2024-09-19T10:11:17Z</time>
      </trkpt>
      <trkpt lat="45.88676" lon="5.34808">
        <ele>211.2</ele>
        <time>2024-09-19T10:11:18Z</time>
      </trkpt>
      <trkpt lat="45.88674" lon="5.34815">
        <ele>210.6</ele>
        <time>2024-09-19T10:11:19Z</time>
      </trkpt>
      <trkpt lat="45.88672" lon="5.34822">
        <ele>210.6</ele>
        <time>2024-09-19T10:11:20Z</time>
      </trkpt>
      <trkpt lat="45.88669" lon="5.3483">
        <ele>210.4</ele>
        <time>2024-09-19T10:11:21Z</time>
      </trkpt>
      <trkpt lat="45.88667" lon="5.34837">
        <ele>210.4</ele>
        <time>2024-09-19T10:11:22Z</time>
      </trkpt>
      <trkpt lat="45.88665" lon="5.34845">
        <ele>210</ele>
        <time>2024-09-19T10:11:23Z</time>
      </trkpt>
      <trkpt lat="45.88663" lon="5.34852">
        <ele>209.8</ele>
        <time>2024-09-19T10:11:24Z</time>
      </trkpt>
      <trkpt lat="45.88661" lon="5.34862">
        <ele>209.4</ele>
        <time>2024-09-19T10:11:25Z</time>
      </trkpt>
      <trkpt lat="45.8866" lon="5.34872">
        <ele>209.2</ele>
        <time>2024-09-19T10:11:26Z</time>
      </trkpt>
      <trkpt lat="45.88659" lon="5.34882">
        <ele>209.2</ele>
        <time>2024-09-19T10:11:27Z</time>
      </trkpt>
      <trkpt lat="45.88658" lon="5.34891">
        <ele>209</ele>
        <time>2024-09-19T10:11:28Z</time>
      </trkpt>
      <trkpt lat="45.88657" lon="5.349">
        <ele>209</ele>
        <time>2024-09-19T10:11:29Z</time>
      </trkpt>
      <trkpt lat="45.88657" lon="5.34909">
        <ele>209</ele>
        <time>2024-09-19T10:11:30Z</time>
      </trkpt>
      <trkpt lat="45.88657" lon="5.34919">
        <ele>209</ele>
        <time>2024-09-19T10:11:31Z</time>
      </trkpt>
      <trkpt lat="45.88657" lon="5.34928">
        <ele>209</ele>
        <time>2024-09-19T10:11:32Z</time>
      </trkpt>
      <trkpt lat="45.88659" lon="5.34937">
        <ele>208.8</ele>
        <time>2024-09-19T10:11:33Z</time>
      </trkpt>
      <trkpt lat="45.88659" lon="5.34947">
        <ele>208.8</ele>
        <time>2024-09-19T10:11:34Z</time>
      </trkpt>
      <trkpt lat="45.8866" lon="5.34956">
        <ele>208.6</ele>
        <time>2024-09-19T10:11:35Z</time>
      </trkpt>
      <trkpt lat="45.88661" lon="5.34965">
        <ele>208.6</ele>
        <time>2024-09-19T10:11:36Z</time>
      </trkpt>
      <trkpt lat="45.88662" lon="5.34974">
        <ele>208.6</ele>
        <time>2024-09-19T10:11:37Z</time>
      </trkpt>
      <trkpt lat="45.88663" lon="5.34983">
        <ele>208.6</ele>
        <time>2024-09-19T10:11:38Z</time>
      </trkpt>
      <trkpt lat="45.88665" lon="5.34991">
        <ele>208.6</ele>
        <time>2024-09-19T10:11:39Z</time>
      </trkpt>
      <trkpt lat="45.88667" lon="5.34999">
        <ele>208.6</ele>
        <time>2024-09-19T10:11:40Z</time>
      </trkpt>
      <trkpt lat="45.88667" lon="5.35007">
        <ele>208.2</ele>
        <time>2024-09-19T10:11:41Z</time>
      </trkpt>
      <trkpt lat="45.88663" lon="5.35013">
        <ele>208.2</ele>
        <time>2024-09-19T10:11:42Z</time>
      </trkpt>
      <trkpt lat="45.88659" lon="5.35017">
        <ele>207.8</ele>
        <time>2024-09-19T10:11:43Z</time>
      </trkpt>
      <trkpt lat="45.88654" lon="5.3502">
        <ele>207.4</ele>
        <time>2024-09-19T10:11:44Z</time>
      </trkpt>
      <trkpt lat="45.88648" lon="5.35024">
        <ele>207.4</ele>
        <time>2024-09-19T10:11:45Z</time>
      </trkpt>
      <trkpt lat="45.88642" lon="5.35028">
        <ele>207.2</ele>
        <time>2024-09-19T10:11:46Z</time>
      </trkpt>
      <trkpt lat="45.88637" lon="5.35031">
        <ele>207</ele>
        <time>2024-09-19T10:11:47Z</time>
      </trkpt>
      <trkpt lat="45.8863" lon="5.35035">
        <ele>207</ele>
        <time>2024-09-19T10:11:48Z</time>
      </trkpt>
      <trkpt lat="45.88624" lon="5.35037">
        <ele>206.8</ele>
        <time>2024-09-19T10:11:49Z</time>
      </trkpt>
      <trkpt lat="45.88619" lon="5.35042">
        <ele>206.8</ele>
        <time>2024-09-19T10:11:50Z</time>
      </trkpt>
      <trkpt lat="45.88613" lon="5.35045">
        <ele>206.8</ele>
        <time>2024-09-19T10:11:51Z</time>
      </trkpt>
      <trkpt lat="45.88607" lon="5.35048">
        <ele>206.4</ele>
        <time>2024-09-19T10:11:52Z</time>
      </trkpt>
      <trkpt lat="45.88601" lon="5.35053">
        <ele>206.4</ele>
        <time>2024-09-19T10:11:53Z</time>
      </trkpt>
      <trkpt lat="45.88596" lon="5.35057">
        <ele>206.4</ele>
        <time>2024-09-19T10:11:54Z</time>
      </trkpt>
      <trkpt lat="45.8859" lon="5.35062">
        <ele>206.8</ele>
        <time>2024-09-19T10:11:55Z</time>
      </trkpt>
      <trkpt lat="45.88583" lon="5.35065">
        <ele>206.8</ele>
        <time>2024-09-19T10:11:56Z</time>
      </trkpt>
      <trkpt lat="45.88578" lon="5.35068">
        <ele>206.4</ele>
        <time>2024-09-19T10:11:57Z</time>
      </trkpt>
      <trkpt lat="45.88572" lon="5.35071">
        <ele>206.2</ele>
        <time>2024-09-19T10:11:58Z</time>
      </trkpt>
      <trkpt lat="45.88567" lon="5.35075">
        <ele>206.2</ele>
        <time>2024-09-19T10:11:59Z</time>
      </trkpt>
      <trkpt lat="45.88561" lon="5.35079">
        <ele>205.8</ele>
        <time>2024-09-19T10:12:00Z</time>
      </trkpt>
      <trkpt lat="45.88555" lon="5.35082">
        <ele>205.8</ele>
        <time>2024-09-19T10:12:01Z</time>
      </trkpt>
      <trkpt lat="45.88551" lon="5.35084">
        <ele>205.8</ele>
        <time>2024-09-19T10:12:02Z</time>
      </trkpt>
      <trkpt lat="45.88546" lon="5.35087">
        <ele>205.8</ele>
        <time>2024-09-19T10:12:03Z</time>
      </trkpt>
      <trkpt lat="45.88543" lon="5.35088">
        <ele>206.2</ele>
        <time>2024-09-19T10:12:04Z</time>
      </trkpt>
      <trkpt lat="45.8854" lon="5.35089">
        <ele>206.2</ele>
        <time>2024-09-19T10:12:05Z</time>
      </trkpt>
      <trkpt lat="45.88539" lon="5.35089">
        <ele>206.4</ele>
        <time>2024-09-19T10:12:06Z</time>
      </trkpt>
      <trkpt lat="45.88537" lon="5.35089">
        <ele>206.4</ele>
        <time>2024-09-19T10:12:07Z</time>
      </trkpt>
      <trkpt lat="45.88537" lon="5.3509">
        <ele>206.8</ele>
        <time>2024-09-19T10:12:08Z</time>
      </trkpt>
      <trkpt lat="45.88537" lon="5.3509">
        <ele>206.8</ele>
        <time>2024-09-19T10:12:09Z</time>
      </trkpt>
      <trkpt lat="45.88537" lon="5.3509">
        <ele>207</ele>
        <time>2024-09-19T10:12:10Z</time>
      </trkpt>
      <trkpt lat="45.88537" lon="5.3509">
        <ele>207</ele>
        <time>2024-09-19T10:12:11Z</time>
      </trkpt>
      <trkpt lat="45.88534" lon="5.35091">
        <ele>207</ele>
        <time>2024-09-19T10:12:14Z</time>
      </trkpt>
      <trkpt lat="45.88534" lon="5.35089">
        <ele>207</ele>
        <time>2024-09-19T10:12:15Z</time>
      </trkpt>
      <trkpt lat="45.88534" lon="5.35089">
        <ele>207</ele>
        <time>2024-09-19T10:12:16Z</time>
      </trkpt>
      <trkpt lat="45.88529" lon="5.35098">
        <ele>207</ele>
        <time>2024-09-19T10:12:17Z</time>
      </trkpt>
      <trkpt lat="45.88533" lon="5.35103">
        <ele>206.6</ele>
        <time>2024-09-19T10:12:18Z</time>
      </trkpt>
      <trkpt lat="45.88535" lon="5.35109">
        <ele>206.6</ele>
        <time>2024-09-19T10:12:19Z</time>
      </trkpt>
      <trkpt lat="45.88537" lon="5.35116">
        <ele>206.4</ele>
        <time>2024-09-19T10:12:20Z</time>
      </trkpt>
      <trkpt lat="45.88539" lon="5.35121">
        <ele>206.2</ele>
        <time>2024-09-19T10:12:21Z</time>
      </trkpt>
      <trkpt lat="45.8854" lon="5.35126">
        <ele>206</ele>
        <time>2024-09-19T10:12:22Z</time>
      </trkpt>
      <trkpt lat="45.88542" lon="5.35134">
        <ele>206</ele>
        <time>2024-09-19T10:12:23Z</time>
      </trkpt>
      <trkpt lat="45.88543" lon="5.3514">
        <ele>206</ele>
        <time>2024-09-19T10:12:24Z</time>
      </trkpt>
      <trkpt lat="45.88545" lon="5.35147">
        <ele>206</ele>
        <time>2024-09-19T10:12:25Z</time>
      </trkpt>
      <trkpt lat="45.88548" lon="5.35154">
        <ele>206</ele>
        <time>2024-09-19T10:12:26Z</time>
      </trkpt>
      <trkpt lat="45.8855" lon="5.35162">
        <ele>205.6</ele>
        <time>2024-09-19T10:12:27Z</time>
      </trkpt>
      <trkpt lat="45.88552" lon="5.3517">
        <ele>205.6</ele>
        <time>2024-09-19T10:12:28Z</time>
      </trkpt>
      <trkpt lat="45.88554" lon="5.35177">
        <ele>205.6</ele>
        <time>2024-09-19T10:12:29Z</time>
      </trkpt>
      <trkpt lat="45.88557" lon="5.35186">
        <ele>205.6</ele>
        <time>2024-09-19T10:12:30Z</time>
      </trkpt>
      <trkpt lat="45.8856" lon="5.35194">
        <ele>205.6</ele>
        <time>2024-09-19T10:12:31Z</time>
      </trkpt>
      <trkpt lat="45.88561" lon="5.352">
        <ele>205.8</ele>
        <time>2024-09-19T10:12:32Z</time>
      </trkpt>
      <trkpt lat="45.88563" lon="5.35205">
        <ele>206</ele>
        <time>2024-09-19T10:12:33Z</time>
      </trkpt>
      <trkpt lat="45.88562" lon="5.35209">
        <ele>206</ele>
        <time>2024-09-19T10:12:34Z</time>
      </trkpt>
      <trkpt lat="45.88562" lon="5.35213">
        <ele>206</ele>
        <time>2024-09-19T10:12:35Z</time>
      </trkpt>
      <trkpt lat="45.88561" lon="5.35219">
        <ele>206</ele>
        <time>2024-09-19T10:12:36Z</time>
      </trkpt>
      <trkpt lat="45.88561" lon="5.35224">
        <ele>206</ele>
        <time>2024-09-19T10:12:37Z</time>
      </trkpt>
      <trkpt lat="45.88563" lon="5.35228">
        <ele>206.2</ele>
        <time>2024-09-19T10:12:38Z</time>
      </trkpt>
      <trkpt lat="45.88564" lon="5.35233">
        <ele>206.2</ele>
        <time>2024-09-19T10:12:39Z</time>
      </trkpt>
      <trkpt lat="45.88564" lon="5.35239">
        <ele>206.2</ele>
        <time>2024-09-19T10:12:40Z</time>
      </trkpt>
      <trkpt lat="45.88564" lon="5.35244">
        <ele>206.2</ele>
        <time>2024-09-19T10:12:41Z</time>
      </trkpt>
      <trkpt lat="45.88566" lon="5.35251">
        <ele>206.2</ele>
        <time>2024-09-19T10:12:42Z</time>
      </trkpt>
      <trkpt lat="45.88567" lon="5.35258">
        <ele>205.8</ele>
        <time>2024-09-19T10:12:43Z</time>
      </trkpt>
      <trkpt lat="45.88569" lon="5.35265">
        <ele>206.2</ele>
        <time>2024-09-19T10:12:44Z</time>
      </trkpt>
      <trkpt lat="45.88569" lon="5.35271">
        <ele>206.2</ele>
        <time>2024-09-19T10:12:45Z</time>
      </trkpt>
      <trkpt lat="45.88569" lon="5.35277">
        <ele>206.2</ele>
        <time>2024-09-19T10:12:46Z</time>
      </trkpt>
      <trkpt lat="45.88567" lon="5.35283">
        <ele>206.4</ele>
        <time>2024-09-19T10:12:47Z</time>
      </trkpt>
      <trkpt lat="45.88566" lon="5.35288">
        <ele>206.4</ele>
        <time>2024-09-19T10:12:48Z</time>
      </trkpt>
      <trkpt lat="45.88565" lon="5.35294">
        <ele>206.4</ele>
        <time>2024-09-19T10:12:49Z</time>
      </trkpt>
      <trkpt lat="45.88564" lon="5.353">
        <ele>206.6</ele>
        <time>2024-09-19T10:12:50Z</time>
      </trkpt>
      <trkpt lat="45.88563" lon="5.35306">
        <ele>206.6</ele>
        <time>2024-09-19T10:12:51Z</time>
      </trkpt>
      <trkpt lat="45.88561" lon="5.35312">
        <ele>206.6</ele>
        <time>2024-09-19T10:12:52Z</time>
      </trkpt>
      <trkpt lat="45.88558" lon="5.35319">
        <ele>206.6</ele>
        <time>2024-09-19T10:12:53Z</time>
      </trkpt>
      <trkpt lat="45.88555" lon="5.35325">
        <ele>206.4</ele>
        <time>2024-09-19T10:12:54Z</time>
      </trkpt>
      <trkpt lat="45.88552" lon="5.35332">
        <ele>206.4</ele>
        <time>2024-09-19T10:12:55Z</time>
      </trkpt>
      <trkpt lat="45.88549" lon="5.35338">
        <ele>206</ele>
        <time>2024-09-19T10:12:56Z</time>
      </trkpt>
      <trkpt lat="45.88547" lon="5.35345">
        <ele>206</ele>
        <time>2024-09-19T10:12:57Z</time>
      </trkpt>
      <trkpt lat="45.88544" lon="5.35351">
        <ele>206</ele>
        <time>2024-09-19T10:12:58Z</time>
      </trkpt>
      <trkpt lat="45.88542" lon="5.35358">
        <ele>205.8</ele>
        <time>2024-09-19T10:12:59Z</time>
      </trkpt>
      <trkpt lat="45.88538" lon="5.35365">
        <ele>206</ele>
        <time>2024-09-19T10:13:00Z</time>
      </trkpt>
      <trkpt lat="45.88535" lon="5.35372">
        <ele>206</ele>
        <time>2024-09-19T10:13:01Z</time>
      </trkpt>
      <trkpt lat="45.88532" lon="5.35378">
        <ele>206</ele>
        <time>2024-09-19T10:13:02Z</time>
      </trkpt>
      <trkpt lat="45.88529" lon="5.35384">
        <ele>206</ele>
        <time>2024-09-19T10:13:03Z</time>
      </trkpt>
      <trkpt lat="45.88525" lon="5.35391">
        <ele>206</ele>
        <time>2024-09-19T10:13:04Z</time>
      </trkpt>
      <trkpt lat="45.88522" lon="5.35397">
        <ele>206.4</ele>
        <time>2024-09-19T10:13:05Z</time>
      </trkpt>
      <trkpt lat="45.88518" lon="5.35402">
        <ele>206.4</ele>
        <time>2024-09-19T10:13:06Z</time>
      </trkpt>
      <trkpt lat="45.88514" lon="5.35408">
        <ele>206.4</ele>
        <time>2024-09-19T10:13:07Z</time>
      </trkpt>
      <trkpt lat="45.8851" lon="5.35414">
        <ele>206.4</ele>
        <time>2024-09-19T10:13:08Z</time>
      </trkpt>
      <trkpt lat="45.88506" lon="5.35419">
        <ele>206.4</ele>
        <time>2024-09-19T10:13:09Z</time>
      </trkpt>
      <trkpt lat="45.88499" lon="5.35423">
        <ele>206.2</ele>
        <time>2024-09-19T10:13:10Z</time>
      </trkpt>
      <trkpt lat="45.88494" lon="5.35427">
        <ele>205.8</ele>
        <time>2024-09-19T10:13:11Z</time>
      </trkpt>
      <trkpt lat="45.88489" lon="5.35432">
        <ele>205.4</ele>
        <time>2024-09-19T10:13:12Z</time>
      </trkpt>
      <trkpt lat="45.88482" lon="5.35438">
        <ele>205.2</ele>
        <time>2024-09-19T10:13:13Z</time>
      </trkpt>
      <trkpt lat="45.88477" lon="5.35444">
        <ele>205</ele>
        <time>2024-09-19T10:13:14Z</time>
      </trkpt>
      <trkpt lat="45.88472" lon="5.35452">
        <ele>204.6</ele>
        <time>2024-09-19T10:13:15Z</time>
      </trkpt>
      <trkpt lat="45.88467" lon="5.35459">
        <ele>204.6</ele>
        <time>2024-09-19T10:13:16Z</time>
      </trkpt>
      <trkpt lat="45.88462" lon="5.35466">
        <ele>204.4</ele>
        <time>2024-09-19T10:13:17Z</time>
      </trkpt>
      <trkpt lat="45.88457" lon="5.35473">
        <ele>204.4</ele>
        <time>2024-09-19T10:13:18Z</time>
      </trkpt>
      <trkpt lat="45.88453" lon="5.3548">
        <ele>203.6</ele>
        <time>2024-09-19T10:13:19Z</time>
      </trkpt>
      <trkpt lat="45.88447" lon="5.35487">
        <ele>203.6</ele>
        <time>2024-09-19T10:13:20Z</time>
      </trkpt>
      <trkpt lat="45.88443" lon="5.35494">
        <ele>204</ele>
        <time>2024-09-19T10:13:21Z</time>
      </trkpt>
      <trkpt lat="45.88439" lon="5.35498">
        <ele>204.2</ele>
        <time>2024-09-19T10:13:22Z</time>
      </trkpt>
      <trkpt lat="45.88434" lon="5.35503">
        <ele>204.2</ele>
        <time>2024-09-19T10:13:23Z</time>
      </trkpt>
      <trkpt lat="45.88428" lon="5.35509">
        <ele>204.2</ele>
        <time>2024-09-19T10:13:24Z</time>
      </trkpt>
      <trkpt lat="45.88424" lon="5.35514">
        <ele>204.2</ele>
        <time>2024-09-19T10:13:25Z</time>
      </trkpt>
      <trkpt lat="45.88417" lon="5.35519">
        <ele>204.4</ele>
        <time>2024-09-19T10:13:26Z</time>
      </trkpt>
      <trkpt lat="45.8841" lon="5.35525">
        <ele>204.4</ele>
        <time>2024-09-19T10:13:27Z</time>
      </trkpt>
      <trkpt lat="45.88405" lon="5.35531">
        <ele>204.4</ele>
        <time>2024-09-19T10:13:28Z</time>
      </trkpt>
      <trkpt lat="45.884" lon="5.35535">
        <ele>204.2</ele>
        <time>2024-09-19T10:13:29Z</time>
      </trkpt>
      <trkpt lat="45.88395" lon="5.35541">
        <ele>204</ele>
        <time>2024-09-19T10:13:30Z</time>
      </trkpt>
      <trkpt lat="45.88391" lon="5.35546">
        <ele>204</ele>
        <time>2024-09-19T10:13:31Z</time>
      </trkpt>
      <trkpt lat="45.88387" lon="5.3555">
        <ele>204</ele>
        <time>2024-09-19T10:13:32Z</time>
      </trkpt>
      <trkpt lat="45.88382" lon="5.35556">
        <ele>204.4</ele>
        <time>2024-09-19T10:13:33Z</time>
      </trkpt>
      <trkpt lat="45.88377" lon="5.35561">
        <ele>204.4</ele>
        <time>2024-09-19T10:13:34Z</time>
      </trkpt>
      <trkpt lat="45.88372" lon="5.35565">
        <ele>204.8</ele>
        <time>2024-09-19T10:13:35Z</time>
      </trkpt>
      <trkpt lat="45.88368" lon="5.3557">
        <ele>204.8</ele>
        <time>2024-09-19T10:13:36Z</time>
      </trkpt>
      <trkpt lat="45.88362" lon="5.35574">
        <ele>204.8</ele>
        <time>2024-09-19T10:13:37Z</time>
      </trkpt>
      <trkpt lat="45.88358" lon="5.35579">
        <ele>204.8</ele>
        <time>2024-09-19T10:13:38Z</time>
      </trkpt>
      <trkpt lat="45.88353" lon="5.35584">
        <ele>204.8</ele>
        <time>2024-09-19T10:13:39Z</time>
      </trkpt>
      <trkpt lat="45.88353" lon="5.35584">
        <ele>204.8</ele>
        <time>2024-09-19T10:13:40Z</time>
      </trkpt>
      <trkpt lat="45.88349" lon="5.3559">
        <ele>204.6</ele>
        <time>2024-09-19T10:13:41Z</time>
      </trkpt>
      <trkpt lat="45.88344" lon="5.35595">
        <ele>204.6</ele>
        <time>2024-09-19T10:13:42Z</time>
      </trkpt>
      <trkpt lat="45.88338" lon="5.35603">
        <ele>204.6</ele>
        <time>2024-09-19T10:13:43Z</time>
      </trkpt>
      <trkpt lat="45.88333" lon="5.35608">
        <ele>204.6</ele>
        <time>2024-09-19T10:13:44Z</time>
      </trkpt>
      <trkpt lat="45.88328" lon="5.35615">
        <ele>204.6</ele>
        <time>2024-09-19T10:13:45Z</time>
      </trkpt>
      <trkpt lat="45.88324" lon="5.35621">
        <ele>204.6</ele>
        <time>2024-09-19T10:13:46Z</time>
      </trkpt>
      <trkpt lat="45.88319" lon="5.35628">
        <ele>204.6</ele>
        <time>2024-09-19T10:13:47Z</time>
      </trkpt>
      <trkpt lat="45.88315" lon="5.35635">
        <ele>204.6</ele>
        <time>2024-09-19T10:13:48Z</time>
      </trkpt>
      <trkpt lat="45.88306" lon="5.35648">
        <ele>204.6</ele>
        <time>2024-09-19T10:13:49Z</time>
      </trkpt>
      <trkpt lat="45.88302" lon="5.35654">
        <ele>204.6</ele>
        <time>2024-09-19T10:13:50Z</time>
      </trkpt>
      <trkpt lat="45.88298" lon="5.35661">
        <ele>204.6</ele>
        <time>2024-09-19T10:13:51Z</time>
      </trkpt>
      <trkpt lat="45.88293" lon="5.35668">
        <ele>204.6</ele>
        <time>2024-09-19T10:13:52Z</time>
      </trkpt>
      <trkpt lat="45.88289" lon="5.35675">
        <ele>204.6</ele>
        <time>2024-09-19T10:13:53Z</time>
      </trkpt>
      <trkpt lat="45.88284" lon="5.35681">
        <ele>204.4</ele>
        <time>2024-09-19T10:13:54Z</time>
      </trkpt>
      <trkpt lat="45.8828" lon="5.35689">
        <ele>204.4</ele>
        <time>2024-09-19T10:13:55Z</time>
      </trkpt>
      <trkpt lat="45.88276" lon="5.35696">
        <ele>204.4</ele>
        <time>2024-09-19T10:13:56Z</time>
      </trkpt>
      <trkpt lat="45.88271" lon="5.35703">
        <ele>204.4</ele>
        <time>2024-09-19T10:13:57Z</time>
      </trkpt>
      <trkpt lat="45.88267" lon="5.3571">
        <ele>204.4</ele>
        <time>2024-09-19T10:13:58Z</time>
      </trkpt>
      <trkpt lat="45.88262" lon="5.35717">
        <ele>204.4</ele>
        <time>2024-09-19T10:13:59Z</time>
      </trkpt>
      <trkpt lat="45.88257" lon="5.35724">
        <ele>204.4</ele>
        <time>2024-09-19T10:14:00Z</time>
      </trkpt>
      <trkpt lat="45.88254" lon="5.35729">
        <ele>204.4</ele>
        <time>2024-09-19T10:14:01Z</time>
      </trkpt>
      <trkpt lat="45.8825" lon="5.35736">
        <ele>204.4</ele>
        <time>2024-09-19T10:14:02Z</time>
      </trkpt>
      <trkpt lat="45.88246" lon="5.35743">
        <ele>204.4</ele>
        <time>2024-09-19T10:14:03Z</time>
      </trkpt>
      <trkpt lat="45.88242" lon="5.3575">
        <ele>204.4</ele>
        <time>2024-09-19T10:14:04Z</time>
      </trkpt>
      <trkpt lat="45.88238" lon="5.35758">
        <ele>204.4</ele>
        <time>2024-09-19T10:14:05Z</time>
      </trkpt>
      <trkpt lat="45.88234" lon="5.35765">
        <ele>204.4</ele>
        <time>2024-09-19T10:14:06Z</time>
      </trkpt>
      <trkpt lat="45.88231" lon="5.35773">
        <ele>204.2</ele>
        <time>2024-09-19T10:14:07Z</time>
      </trkpt>
      <trkpt lat="45.88228" lon="5.35781">
        <ele>204.4</ele>
        <time>2024-09-19T10:14:08Z</time>
      </trkpt>
      <trkpt lat="45.88224" lon="5.3579">
        <ele>204.6</ele>
        <time>2024-09-19T10:14:09Z</time>
      </trkpt>
      <trkpt lat="45.88223" lon="5.35797">
        <ele>204.8</ele>
        <time>2024-09-19T10:14:10Z</time>
      </trkpt>
      <trkpt lat="45.88221" lon="5.35804">
        <ele>204.6</ele>
        <time>2024-09-19T10:14:11Z</time>
      </trkpt>
      <trkpt lat="45.88218" lon="5.35812">
        <ele>204.6</ele>
        <time>2024-09-19T10:14:12Z</time>
      </trkpt>
      <trkpt lat="45.88216" lon="5.35819">
        <ele>204.6</ele>
        <time>2024-09-19T10:14:13Z</time>
      </trkpt>
      <trkpt lat="45.88213" lon="5.35828">
        <ele>204.6</ele>
        <time>2024-09-19T10:14:14Z</time>
      </trkpt>
      <trkpt lat="45.8821" lon="5.35836">
        <ele>204.4</ele>
        <time>2024-09-19T10:14:15Z</time>
      </trkpt>
      <trkpt lat="45.88208" lon="5.35843">
        <ele>204.4</ele>
        <time>2024-09-19T10:14:16Z</time>
      </trkpt>
      <trkpt lat="45.88206" lon="5.3585">
        <ele>204.4</ele>
        <time>2024-09-19T10:14:17Z</time>
      </trkpt>
      <trkpt lat="45.88203" lon="5.35858">
        <ele>204.4</ele>
        <time>2024-09-19T10:14:18Z</time>
      </trkpt>
      <trkpt lat="45.88201" lon="5.35866">
        <ele>204.4</ele>
        <time>2024-09-19T10:14:19Z</time>
      </trkpt>
      <trkpt lat="45.88198" lon="5.35874">
        <ele>204.4</ele>
        <time>2024-09-19T10:14:20Z</time>
      </trkpt>
      <trkpt lat="45.88196" lon="5.35882">
        <ele>204.4</ele>
        <time>2024-09-19T10:14:21Z</time>
      </trkpt>
      <trkpt lat="45.88194" lon="5.3589">
        <ele>204.4</ele>
        <time>2024-09-19T10:14:22Z</time>
      </trkpt>
      <trkpt lat="45.88192" lon="5.35898">
        <ele>204.4</ele>
        <time>2024-09-19T10:14:23Z</time>
      </trkpt>
      <trkpt lat="45.8819" lon="5.35906">
        <ele>204.4</ele>
        <time>2024-09-19T10:14:24Z</time>
      </trkpt>
      <trkpt lat="45.88187" lon="5.35913">
        <ele>204.4</ele>
        <time>2024-09-19T10:14:25Z</time>
      </trkpt>
      <trkpt lat="45.88186" lon="5.3592">
        <ele>204.8</ele>
        <time>2024-09-19T10:14:26Z</time>
      </trkpt>
      <trkpt lat="45.88185" lon="5.35926">
        <ele>204.8</ele>
        <time>2024-09-19T10:14:27Z</time>
      </trkpt>
      <trkpt lat="45.88185" lon="5.35931">
        <ele>205.4</ele>
        <time>2024-09-19T10:14:28Z</time>
      </trkpt>
      <trkpt lat="45.88183" lon="5.35937">
        <ele>205.6</ele>
        <time>2024-09-19T10:14:29Z</time>
      </trkpt>
      <trkpt lat="45.8818" lon="5.35942">
        <ele>205.6</ele>
        <time>2024-09-19T10:14:30Z</time>
      </trkpt>
      <trkpt lat="45.88177" lon="5.35947">
        <ele>205.6</ele>
        <time>2024-09-19T10:14:31Z</time>
      </trkpt>
      <trkpt lat="45.88174" lon="5.35952">
        <ele>205.6</ele>
        <time>2024-09-19T10:14:32Z</time>
      </trkpt>
      <trkpt lat="45.88171" lon="5.35958">
        <ele>205.6</ele>
        <time>2024-09-19T10:14:33Z</time>
      </trkpt>
      <trkpt lat="45.88168" lon="5.35966">
        <ele>205.4</ele>
        <time>2024-09-19T10:14:34Z</time>
      </trkpt>
      <trkpt lat="45.88164" lon="5.35973">
        <ele>205</ele>
        <time>2024-09-19T10:14:35Z</time>
      </trkpt>
      <trkpt lat="45.88161" lon="5.3598">
        <ele>205</ele>
        <time>2024-09-19T10:14:36Z</time>
      </trkpt>
      <trkpt lat="45.88158" lon="5.35987">
        <ele>205</ele>
        <time>2024-09-19T10:14:37Z</time>
      </trkpt>
      <trkpt lat="45.88154" lon="5.35994">
        <ele>205</ele>
        <time>2024-09-19T10:14:38Z</time>
      </trkpt>
      <trkpt lat="45.8815" lon="5.36001">
        <ele>205</ele>
        <time>2024-09-19T10:14:39Z</time>
      </trkpt>
      <trkpt lat="45.88147" lon="5.36008">
        <ele>205</ele>
        <time>2024-09-19T10:14:40Z</time>
      </trkpt>
      <trkpt lat="45.88144" lon="5.36015">
        <ele>205</ele>
        <time>2024-09-19T10:14:41Z</time>
      </trkpt>
      <trkpt lat="45.88143" lon="5.36021">
        <ele>205</ele>
        <time>2024-09-19T10:14:42Z</time>
      </trkpt>
      <trkpt lat="45.8814" lon="5.36028">
        <ele>205</ele>
        <time>2024-09-19T10:14:43Z</time>
      </trkpt>
      <trkpt lat="45.88137" lon="5.36034">
        <ele>205</ele>
        <time>2024-09-19T10:14:44Z</time>
      </trkpt>
      <trkpt lat="45.88134" lon="5.36041">
        <ele>205</ele>
        <time>2024-09-19T10:14:45Z</time>
      </trkpt>
      <trkpt lat="45.88133" lon="5.36046">
        <ele>205</ele>
        <time>2024-09-19T10:14:46Z</time>
      </trkpt>
      <trkpt lat="45.8813" lon="5.36053">
        <ele>205</ele>
        <time>2024-09-19T10:14:47Z</time>
      </trkpt>
      <trkpt lat="45.88128" lon="5.36059">
        <ele>205</ele>
        <time>2024-09-19T10:14:48Z</time>
      </trkpt>
      <trkpt lat="45.88126" lon="5.36065">
        <ele>205.4</ele>
        <time>2024-09-19T10:14:49Z</time>
      </trkpt>
      <trkpt lat="45.88125" lon="5.36071">
        <ele>205.4</ele>
        <time>2024-09-19T10:14:50Z</time>
      </trkpt>
      <trkpt lat="45.88123" lon="5.36076">
        <ele>205.4</ele>
        <time>2024-09-19T10:14:51Z</time>
      </trkpt>
      <trkpt lat="45.88121" lon="5.36082">
        <ele>205.6</ele>
        <time>2024-09-19T10:14:52Z</time>
      </trkpt>
      <trkpt lat="45.8812" lon="5.36087">
        <ele>205.6</ele>
        <time>2024-09-19T10:14:53Z</time>
      </trkpt>
      <trkpt lat="45.88119" lon="5.36093">
        <ele>205.6</ele>
        <time>2024-09-19T10:14:54Z</time>
      </trkpt>
      <trkpt lat="45.88117" lon="5.36098">
        <ele>205.6</ele>
        <time>2024-09-19T10:14:55Z</time>
      </trkpt>
      <trkpt lat="45.88116" lon="5.36103">
        <ele>205.6</ele>
        <time>2024-09-19T10:14:56Z</time>
      </trkpt>
      <trkpt lat="45.88115" lon="5.36108">
        <ele>205.6</ele>
        <time>2024-09-19T10:14:57Z</time>
      </trkpt>
      <trkpt lat="45.88114" lon="5.36112">
        <ele>206</ele>
        <time>2024-09-19T10:14:58Z</time>
      </trkpt>
      <trkpt lat="45.88113" lon="5.36117">
        <ele>206</ele>
        <time>2024-09-19T10:14:59Z</time>
      </trkpt>
      <trkpt lat="45.88112" lon="5.36122">
        <ele>206.2</ele>
        <time>2024-09-19T10:15:00Z</time>
      </trkpt>
      <trkpt lat="45.8811" lon="5.36127">
        <ele>206.2</ele>
        <time>2024-09-19T10:15:01Z</time>
      </trkpt>
      <trkpt lat="45.88108" lon="5.36133">
        <ele>206.2</ele>
        <time>2024-09-19T10:15:02Z</time>
      </trkpt>
      <trkpt lat="45.88107" lon="5.36139">
        <ele>206</ele>
        <time>2024-09-19T10:15:03Z</time>
      </trkpt>
      <trkpt lat="45.88105" lon="5.36145">
        <ele>206</ele>
        <time>2024-09-19T10:15:04Z</time>
      </trkpt>
      <trkpt lat="45.88103" lon="5.36151">
        <ele>206</ele>
        <time>2024-09-19T10:15:05Z</time>
      </trkpt>
      <trkpt lat="45.88102" lon="5.36157">
        <ele>206</ele>
        <time>2024-09-19T10:15:06Z</time>
      </trkpt>
      <trkpt lat="45.881" lon="5.36163">
        <ele>206</ele>
        <time>2024-09-19T10:15:07Z</time>
      </trkpt>
      <trkpt lat="45.88097" lon="5.36169">
        <ele>206</ele>
        <time>2024-09-19T10:15:08Z</time>
      </trkpt>
      <trkpt lat="45.88095" lon="5.36176">
        <ele>206</ele>
        <time>2024-09-19T10:15:09Z</time>
      </trkpt>
      <trkpt lat="45.88093" lon="5.36182">
        <ele>205.6</ele>
        <time>2024-09-19T10:15:10Z</time>
      </trkpt>
      <trkpt lat="45.88091" lon="5.36188">
        <ele>205.6</ele>
        <time>2024-09-19T10:15:11Z</time>
      </trkpt>
      <trkpt lat="45.88088" lon="5.36194">
        <ele>205.6</ele>
        <time>2024-09-19T10:15:12Z</time>
      </trkpt>
      <trkpt lat="45.88085" lon="5.36201">
        <ele>205.6</ele>
        <time>2024-09-19T10:15:13Z</time>
      </trkpt>
      <trkpt lat="45.88083" lon="5.36208">
        <ele>205.6</ele>
        <time>2024-09-19T10:15:14Z</time>
      </trkpt>
      <trkpt lat="45.8808" lon="5.36215">
        <ele>205.6</ele>
        <time>2024-09-19T10:15:15Z</time>
      </trkpt>
      <trkpt lat="45.88078" lon="5.36221">
        <ele>205.4</ele>
        <time>2024-09-19T10:15:16Z</time>
      </trkpt>
      <trkpt lat="45.88075" lon="5.36228">
        <ele>205.4</ele>
        <time>2024-09-19T10:15:17Z</time>
      </trkpt>
      <trkpt lat="45.88073" lon="5.36235">
        <ele>205.4</ele>
        <time>2024-09-19T10:15:18Z</time>
      </trkpt>
      <trkpt lat="45.88071" lon="5.36241">
        <ele>205.4</ele>
        <time>2024-09-19T10:15:19Z</time>
      </trkpt>
      <trkpt lat="45.88068" lon="5.36248">
        <ele>205.4</ele>
        <time>2024-09-19T10:15:20Z</time>
      </trkpt>
      <trkpt lat="45.88066" lon="5.36255">
        <ele>205.4</ele>
        <time>2024-09-19T10:15:21Z</time>
      </trkpt>
      <trkpt lat="45.88063" lon="5.3626">
        <ele>205.4</ele>
        <time>2024-09-19T10:15:22Z</time>
      </trkpt>
      <trkpt lat="45.88061" lon="5.36267">
        <ele>205.4</ele>
        <time>2024-09-19T10:15:23Z</time>
      </trkpt>
      <trkpt lat="45.88058" lon="5.36273">
        <ele>205.4</ele>
        <time>2024-09-19T10:15:24Z</time>
      </trkpt>
      <trkpt lat="45.88055" lon="5.36279">
        <ele>205.4</ele>
        <time>2024-09-19T10:15:25Z</time>
      </trkpt>
      <trkpt lat="45.88052" lon="5.36286">
        <ele>205.4</ele>
        <time>2024-09-19T10:15:26Z</time>
      </trkpt>
      <trkpt lat="45.88049" lon="5.36292">
        <ele>205.4</ele>
        <time>2024-09-19T10:15:27Z</time>
      </trkpt>
      <trkpt lat="45.88046" lon="5.36298">
        <ele>205.4</ele>
        <time>2024-09-19T10:15:28Z</time>
      </trkpt>
      <trkpt lat="45.88043" lon="5.36304">
        <ele>205.4</ele>
        <time>2024-09-19T10:15:29Z</time>
      </trkpt>
      <trkpt lat="45.88039" lon="5.3631">
        <ele>205.6</ele>
        <time>2024-09-19T10:15:30Z</time>
      </trkpt>
      <trkpt lat="45.88035" lon="5.36315">
        <ele>205.6</ele>
        <time>2024-09-19T10:15:31Z</time>
      </trkpt>
      <trkpt lat="45.88032" lon="5.36321">
        <ele>205.6</ele>
        <time>2024-09-19T10:15:32Z</time>
      </trkpt>
      <trkpt lat="45.88028" lon="5.36327">
        <ele>205.6</ele>
        <time>2024-09-19T10:15:33Z</time>
      </trkpt>
      <trkpt lat="45.88024" lon="5.36333">
        <ele>205.4</ele>
        <time>2024-09-19T10:15:34Z</time>
      </trkpt>
      <trkpt lat="45.88021" lon="5.36339">
        <ele>205.4</ele>
        <time>2024-09-19T10:15:35Z</time>
      </trkpt>
      <trkpt lat="45.88017" lon="5.36345">
        <ele>205.4</ele>
        <time>2024-09-19T10:15:36Z</time>
      </trkpt>
      <trkpt lat="45.88013" lon="5.36351">
        <ele>205.4</ele>
        <time>2024-09-19T10:15:37Z</time>
      </trkpt>
      <trkpt lat="45.8801" lon="5.36358">
        <ele>205.4</ele>
        <time>2024-09-19T10:15:38Z</time>
      </trkpt>
      <trkpt lat="45.88007" lon="5.36364">
        <ele>205.4</ele>
        <time>2024-09-19T10:15:39Z</time>
      </trkpt>
      <trkpt lat="45.88003" lon="5.3637">
        <ele>205.4</ele>
        <time>2024-09-19T10:15:40Z</time>
      </trkpt>
      <trkpt lat="45.88" lon="5.36376">
        <ele>205.4</ele>
        <time>2024-09-19T10:15:41Z</time>
      </trkpt>
      <trkpt lat="45.87997" lon="5.36381">
        <ele>205.4</ele>
        <time>2024-09-19T10:15:42Z</time>
      </trkpt>
      <trkpt lat="45.87993" lon="5.36387">
        <ele>205.4</ele>
        <time>2024-09-19T10:15:43Z</time>
      </trkpt>
      <trkpt lat="45.8799" lon="5.36393">
        <ele>205.4</ele>
        <time>2024-09-19T10:15:44Z</time>
      </trkpt>
      <trkpt lat="45.87986" lon="5.36399">
        <ele>205.4</ele>
        <time>2024-09-19T10:15:45Z</time>
      </trkpt>
      <trkpt lat="45.87982" lon="5.36405">
        <ele>205.4</ele>
        <time>2024-09-19T10:15:46Z</time>
      </trkpt>
      <trkpt lat="45.87978" lon="5.36412">
        <ele>205.4</ele>
        <time>2024-09-19T10:15:47Z</time>
      </trkpt>
      <trkpt lat="45.87974" lon="5.36418">
        <ele>205.2</ele>
        <time>2024-09-19T10:15:48Z</time>
      </trkpt>
      <trkpt lat="45.87971" lon="5.36425">
        <ele>205.2</ele>
        <time>2024-09-19T10:15:49Z</time>
      </trkpt>
      <trkpt lat="45.87967" lon="5.36431">
        <ele>205.2</ele>
        <time>2024-09-19T10:15:50Z</time>
      </trkpt>
      <trkpt lat="45.87963" lon="5.36437">
        <ele>205.2</ele>
        <time>2024-09-19T10:15:51Z</time>
      </trkpt>
      <trkpt lat="45.87959" lon="5.36443">
        <ele>205.2</ele>
        <time>2024-09-19T10:15:52Z</time>
      </trkpt>
      <trkpt lat="45.87955" lon="5.36448">
        <ele>204.8</ele>
        <time>2024-09-19T10:15:53Z</time>
      </trkpt>
      <trkpt lat="45.87951" lon="5.36454">
        <ele>204.8</ele>
        <time>2024-09-19T10:15:54Z</time>
      </trkpt>
      <trkpt lat="45.87946" lon="5.3646">
        <ele>204.8</ele>
        <time>2024-09-19T10:15:55Z</time>
      </trkpt>
      <trkpt lat="45.87942" lon="5.36465">
        <ele>204.8</ele>
        <time>2024-09-19T10:15:56Z</time>
      </trkpt>
      <trkpt lat="45.87938" lon="5.3647">
        <ele>204.6</ele>
        <time>2024-09-19T10:15:57Z</time>
      </trkpt>
      <trkpt lat="45.87934" lon="5.36476">
        <ele>204.6</ele>
        <time>2024-09-19T10:15:58Z</time>
      </trkpt>
      <trkpt lat="45.8793" lon="5.36481">
        <ele>204.6</ele>
        <time>2024-09-19T10:15:59Z</time>
      </trkpt>
      <trkpt lat="45.87926" lon="5.36487">
        <ele>204.6</ele>
        <time>2024-09-19T10:16:00Z</time>
      </trkpt>
      <trkpt lat="45.87922" lon="5.36492">
        <ele>204.6</ele>
        <time>2024-09-19T10:16:01Z</time>
      </trkpt>
      <trkpt lat="45.87918" lon="5.36497">
        <ele>204.8</ele>
        <time>2024-09-19T10:16:02Z</time>
      </trkpt>
      <trkpt lat="45.87914" lon="5.36503">
        <ele>204.8</ele>
        <time>2024-09-19T10:16:03Z</time>
      </trkpt>
      <trkpt lat="45.87909" lon="5.36508">
        <ele>204.8</ele>
        <time>2024-09-19T10:16:04Z</time>
      </trkpt>
      <trkpt lat="45.87904" lon="5.36512">
        <ele>204.6</ele>
        <time>2024-09-19T10:16:05Z</time>
      </trkpt>
      <trkpt lat="45.879" lon="5.36517">
        <ele>204.6</ele>
        <time>2024-09-19T10:16:06Z</time>
      </trkpt>
      <trkpt lat="45.87895" lon="5.36522">
        <ele>204.4</ele>
        <time>2024-09-19T10:16:07Z</time>
      </trkpt>
      <trkpt lat="45.8789" lon="5.36527">
        <ele>204.4</ele>
        <time>2024-09-19T10:16:08Z</time>
      </trkpt>
      <trkpt lat="45.87885" lon="5.36533">
        <ele>204.4</ele>
        <time>2024-09-19T10:16:09Z</time>
      </trkpt>
      <trkpt lat="45.8788" lon="5.36538">
        <ele>204.4</ele>
        <time>2024-09-19T10:16:10Z</time>
      </trkpt>
      <trkpt lat="45.87875" lon="5.36543">
        <ele>204.4</ele>
        <time>2024-09-19T10:16:11Z</time>
      </trkpt>
      <trkpt lat="45.8787" lon="5.36548">
        <ele>204.4</ele>
        <time>2024-09-19T10:16:12Z</time>
      </trkpt>
      <trkpt lat="45.87865" lon="5.36553">
        <ele>204.4</ele>
        <time>2024-09-19T10:16:13Z</time>
      </trkpt>
      <trkpt lat="45.8786" lon="5.36559">
        <ele>204.4</ele>
        <time>2024-09-19T10:16:14Z</time>
      </trkpt>
      <trkpt lat="45.87856" lon="5.36565">
        <ele>204.4</ele>
        <time>2024-09-19T10:16:15Z</time>
      </trkpt>
      <trkpt lat="45.87851" lon="5.3657">
        <ele>204.4</ele>
        <time>2024-09-19T10:16:16Z</time>
      </trkpt>
      <trkpt lat="45.87846" lon="5.36575">
        <ele>204</ele>
        <time>2024-09-19T10:16:17Z</time>
      </trkpt>
      <trkpt lat="45.87841" lon="5.36581">
        <ele>204</ele>
        <time>2024-09-19T10:16:18Z</time>
      </trkpt>
      <trkpt lat="45.87836" lon="5.36585">
        <ele>204</ele>
        <time>2024-09-19T10:16:19Z</time>
      </trkpt>
      <trkpt lat="45.87832" lon="5.36591">
        <ele>204</ele>
        <time>2024-09-19T10:16:20Z</time>
      </trkpt>
      <trkpt lat="45.87827" lon="5.36596">
        <ele>203.8</ele>
        <time>2024-09-19T10:16:21Z</time>
      </trkpt>
      <trkpt lat="45.87823" lon="5.36602">
        <ele>203.8</ele>
        <time>2024-09-19T10:16:22Z</time>
      </trkpt>
      <trkpt lat="45.87819" lon="5.36607">
        <ele>204.2</ele>
        <time>2024-09-19T10:16:23Z</time>
      </trkpt>
      <trkpt lat="45.87814" lon="5.36613">
        <ele>204.2</ele>
        <time>2024-09-19T10:16:24Z</time>
      </trkpt>
      <trkpt lat="45.87814" lon="5.36613">
        <ele>204.2</ele>
        <time>2024-09-19T10:16:25Z</time>
      </trkpt>
      <trkpt lat="45.8781" lon="5.36619">
        <ele>204.2</ele>
        <time>2024-09-19T10:16:26Z</time>
      </trkpt>
      <trkpt lat="45.87806" lon="5.36624">
        <ele>204.2</ele>
        <time>2024-09-19T10:16:27Z</time>
      </trkpt>
      <trkpt lat="45.87802" lon="5.3663">
        <ele>204.2</ele>
        <time>2024-09-19T10:16:28Z</time>
      </trkpt>
      <trkpt lat="45.87798" lon="5.36636">
        <ele>204.4</ele>
        <time>2024-09-19T10:16:29Z</time>
      </trkpt>
      <trkpt lat="45.87795" lon="5.36643">
        <ele>204.4</ele>
        <time>2024-09-19T10:16:30Z</time>
      </trkpt>
      <trkpt lat="45.87791" lon="5.36649">
        <ele>204.4</ele>
        <time>2024-09-19T10:16:31Z</time>
      </trkpt>
      <trkpt lat="45.87787" lon="5.36655">
        <ele>204.6</ele>
        <time>2024-09-19T10:16:32Z</time>
      </trkpt>
      <trkpt lat="45.87783" lon="5.36661">
        <ele>204.6</ele>
        <time>2024-09-19T10:16:33Z</time>
      </trkpt>
      <trkpt lat="45.8778" lon="5.36668">
        <ele>204.6</ele>
        <time>2024-09-19T10:16:34Z</time>
      </trkpt>
      <trkpt lat="45.87776" lon="5.36674">
        <ele>204.6</ele>
        <time>2024-09-19T10:16:35Z</time>
      </trkpt>
      <trkpt lat="45.87773" lon="5.36682">
        <ele>204.6</ele>
        <time>2024-09-19T10:16:36Z</time>
      </trkpt>
      <trkpt lat="45.8777" lon="5.36689">
        <ele>204.6</ele>
        <time>2024-09-19T10:16:37Z</time>
      </trkpt>
      <trkpt lat="45.87764" lon="5.36703">
        <ele>204.6</ele>
        <time>2024-09-19T10:16:38Z</time>
      </trkpt>
      <trkpt lat="45.87761" lon="5.3671">
        <ele>204.6</ele>
        <time>2024-09-19T10:16:39Z</time>
      </trkpt>
      <trkpt lat="45.87758" lon="5.36716">
        <ele>204.6</ele>
        <time>2024-09-19T10:16:40Z</time>
      </trkpt>
      <trkpt lat="45.87755" lon="5.36723">
        <ele>204.6</ele>
        <time>2024-09-19T10:16:41Z</time>
      </trkpt>
      <trkpt lat="45.87753" lon="5.36729">
        <ele>204.8</ele>
        <time>2024-09-19T10:16:42Z</time>
      </trkpt>
      <trkpt lat="45.87751" lon="5.36734">
        <ele>204.8</ele>
        <time>2024-09-19T10:16:43Z</time>
      </trkpt>
      <trkpt lat="45.87747" lon="5.36739">
        <ele>204.8</ele>
        <time>2024-09-19T10:16:44Z</time>
      </trkpt>
      <trkpt lat="45.87745" lon="5.36745">
        <ele>204.8</ele>
        <time>2024-09-19T10:16:45Z</time>
      </trkpt>
      <trkpt lat="45.87743" lon="5.36751">
        <ele>204.8</ele>
        <time>2024-09-19T10:16:46Z</time>
      </trkpt>
      <trkpt lat="45.8774" lon="5.36757">
        <ele>205</ele>
        <time>2024-09-19T10:16:47Z</time>
      </trkpt>
      <trkpt lat="45.87738" lon="5.36762">
        <ele>205</ele>
        <time>2024-09-19T10:16:48Z</time>
      </trkpt>
      <trkpt lat="45.87735" lon="5.36768">
        <ele>205</ele>
        <time>2024-09-19T10:16:49Z</time>
      </trkpt>
      <trkpt lat="45.87732" lon="5.36773">
        <ele>205.2</ele>
        <time>2024-09-19T10:16:50Z</time>
      </trkpt>
      <trkpt lat="45.8773" lon="5.36779">
        <ele>205.2</ele>
        <time>2024-09-19T10:16:51Z</time>
      </trkpt>
      <trkpt lat="45.87728" lon="5.36786">
        <ele>205.2</ele>
        <time>2024-09-19T10:16:52Z</time>
      </trkpt>
      <trkpt lat="45.87726" lon="5.36792">
        <ele>205.2</ele>
        <time>2024-09-19T10:16:53Z</time>
      </trkpt>
      <trkpt lat="45.87723" lon="5.36798">
        <ele>205.2</ele>
        <time>2024-09-19T10:16:54Z</time>
      </trkpt>
      <trkpt lat="45.8772" lon="5.36804">
        <ele>205.2</ele>
        <time>2024-09-19T10:16:55Z</time>
      </trkpt>
      <trkpt lat="45.87717" lon="5.36811">
        <ele>205</ele>
        <time>2024-09-19T10:16:56Z</time>
      </trkpt>
      <trkpt lat="45.87714" lon="5.36818">
        <ele>205</ele>
        <time>2024-09-19T10:16:57Z</time>
      </trkpt>
      <trkpt lat="45.87711" lon="5.36826">
        <ele>205</ele>
        <time>2024-09-19T10:16:58Z</time>
      </trkpt>
      <trkpt lat="45.87709" lon="5.36832">
        <ele>205</ele>
        <time>2024-09-19T10:16:59Z</time>
      </trkpt>
      <trkpt lat="45.87706" lon="5.3684">
        <ele>204.8</ele>
        <time>2024-09-19T10:17:00Z</time>
      </trkpt>
      <trkpt lat="45.87704" lon="5.36847">
        <ele>204.8</ele>
        <time>2024-09-19T10:17:01Z</time>
      </trkpt>
      <trkpt lat="45.87701" lon="5.36855">
        <ele>204.8</ele>
        <time>2024-09-19T10:17:02Z</time>
      </trkpt>
      <trkpt lat="45.87699" lon="5.36862">
        <ele>204.8</ele>
        <time>2024-09-19T10:17:03Z</time>
      </trkpt>
      <trkpt lat="45.87697" lon="5.3687">
        <ele>204.8</ele>
        <time>2024-09-19T10:17:04Z</time>
      </trkpt>
      <trkpt lat="45.87695" lon="5.36878">
        <ele>204.8</ele>
        <time>2024-09-19T10:17:05Z</time>
      </trkpt>
      <trkpt lat="45.87693" lon="5.36886">
        <ele>204.8</ele>
        <time>2024-09-19T10:17:06Z</time>
      </trkpt>
      <trkpt lat="45.87691" lon="5.36894">
        <ele>204.8</ele>
        <time>2024-09-19T10:17:07Z</time>
      </trkpt>
      <trkpt lat="45.87688" lon="5.36903">
        <ele>204.8</ele>
        <time>2024-09-19T10:17:08Z</time>
      </trkpt>
      <trkpt lat="45.87687" lon="5.3691">
        <ele>204.8</ele>
        <time>2024-09-19T10:17:09Z</time>
      </trkpt>
      <trkpt lat="45.87684" lon="5.36918">
        <ele>205</ele>
        <time>2024-09-19T10:17:10Z</time>
      </trkpt>
      <trkpt lat="45.87682" lon="5.36926">
        <ele>205</ele>
        <time>2024-09-19T10:17:11Z</time>
      </trkpt>
      <trkpt lat="45.8768" lon="5.36934">
        <ele>205</ele>
        <time>2024-09-19T10:17:12Z</time>
      </trkpt>
      <trkpt lat="45.87678" lon="5.36942">
        <ele>205</ele>
        <time>2024-09-19T10:17:13Z</time>
      </trkpt>
      <trkpt lat="45.87676" lon="5.3695">
        <ele>205</ele>
        <time>2024-09-19T10:17:14Z</time>
      </trkpt>
      <trkpt lat="45.87675" lon="5.36958">
        <ele>205</ele>
        <time>2024-09-19T10:17:15Z</time>
      </trkpt>
      <trkpt lat="45.87674" lon="5.36966">
        <ele>205</ele>
        <time>2024-09-19T10:17:16Z</time>
      </trkpt>
      <trkpt lat="45.87672" lon="5.36975">
        <ele>205</ele>
        <time>2024-09-19T10:17:17Z</time>
      </trkpt>
      <trkpt lat="45.87671" lon="5.36983">
        <ele>205</ele>
        <time>2024-09-19T10:17:18Z</time>
      </trkpt>
      <trkpt lat="45.87669" lon="5.36992">
        <ele>205</ele>
        <time>2024-09-19T10:17:19Z</time>
      </trkpt>
      <trkpt lat="45.87667" lon="5.37">
        <ele>204.8</ele>
        <time>2024-09-19T10:17:20Z</time>
      </trkpt>
      <trkpt lat="45.87665" lon="5.37008">
        <ele>204.8</ele>
        <time>2024-09-19T10:17:21Z</time>
      </trkpt>
      <trkpt lat="45.87662" lon="5.37017">
        <ele>204.8</ele>
        <time>2024-09-19T10:17:22Z</time>
      </trkpt>
      <trkpt lat="45.8766" lon="5.37025">
        <ele>204.4</ele>
        <time>2024-09-19T10:17:23Z</time>
      </trkpt>
      <trkpt lat="45.87657" lon="5.37032">
        <ele>204.4</ele>
        <time>2024-09-19T10:17:24Z</time>
      </trkpt>
      <trkpt lat="45.87655" lon="5.3704">
        <ele>204.4</ele>
        <time>2024-09-19T10:17:25Z</time>
      </trkpt>
      <trkpt lat="45.87651" lon="5.37047">
        <ele>204.4</ele>
        <time>2024-09-19T10:17:26Z</time>
      </trkpt>
      <trkpt lat="45.87647" lon="5.37054">
        <ele>204.4</ele>
        <time>2024-09-19T10:17:27Z</time>
      </trkpt>
      <trkpt lat="45.87643" lon="5.37062">
        <ele>204.4</ele>
        <time>2024-09-19T10:17:28Z</time>
      </trkpt>
      <trkpt lat="45.8764" lon="5.37069">
        <ele>204.4</ele>
        <time>2024-09-19T10:17:29Z</time>
      </trkpt>
      <trkpt lat="45.87637" lon="5.37075">
        <ele>204.6</ele>
        <time>2024-09-19T10:17:30Z</time>
      </trkpt>
      <trkpt lat="45.87633" lon="5.37082">
        <ele>204.6</ele>
        <time>2024-09-19T10:17:31Z</time>
      </trkpt>
      <trkpt lat="45.87629" lon="5.37089">
        <ele>205</ele>
        <time>2024-09-19T10:17:32Z</time>
      </trkpt>
      <trkpt lat="45.87625" lon="5.37095">
        <ele>205</ele>
        <time>2024-09-19T10:17:33Z</time>
      </trkpt>
      <trkpt lat="45.87621" lon="5.37102">
        <ele>205</ele>
        <time>2024-09-19T10:17:34Z</time>
      </trkpt>
      <trkpt lat="45.87617" lon="5.37108">
        <ele>205</ele>
        <time>2024-09-19T10:17:35Z</time>
      </trkpt>
      <trkpt lat="45.87612" lon="5.37114">
        <ele>205.2</ele>
        <time>2024-09-19T10:17:36Z</time>
      </trkpt>
      <trkpt lat="45.87608" lon="5.3712">
        <ele>205.2</ele>
        <time>2024-09-19T10:17:37Z</time>
      </trkpt>
      <trkpt lat="45.87603" lon="5.37125">
        <ele>204.8</ele>
        <time>2024-09-19T10:17:38Z</time>
      </trkpt>
      <trkpt lat="45.87599" lon="5.37131">
        <ele>204.8</ele>
        <time>2024-09-19T10:17:39Z</time>
      </trkpt>
      <trkpt lat="45.87594" lon="5.37136">
        <ele>204.8</ele>
        <time>2024-09-19T10:17:40Z</time>
      </trkpt>
      <trkpt lat="45.8759" lon="5.37142">
        <ele>204.8</ele>
        <time>2024-09-19T10:17:41Z</time>
      </trkpt>
      <trkpt lat="45.87586" lon="5.37147">
        <ele>204.8</ele>
        <time>2024-09-19T10:17:42Z</time>
      </trkpt>
      <trkpt lat="45.8758" lon="5.37152">
        <ele>204.8</ele>
        <time>2024-09-19T10:17:43Z</time>
      </trkpt>
      <trkpt lat="45.87575" lon="5.37156">
        <ele>205</ele>
        <time>2024-09-19T10:17:44Z</time>
      </trkpt>
      <trkpt lat="45.87571" lon="5.37162">
        <ele>205</ele>
        <time>2024-09-19T10:17:45Z</time>
      </trkpt>
      <trkpt lat="45.87567" lon="5.37167">
        <ele>205</ele>
        <time>2024-09-19T10:17:46Z</time>
      </trkpt>
      <trkpt lat="45.87562" lon="5.37172">
        <ele>205</ele>
        <time>2024-09-19T10:17:47Z</time>
      </trkpt>
      <trkpt lat="45.87559" lon="5.37178">
        <ele>205</ele>
        <time>2024-09-19T10:17:48Z</time>
      </trkpt>
      <trkpt lat="45.87554" lon="5.37184">
        <ele>205</ele>
        <time>2024-09-19T10:17:49Z</time>
      </trkpt>
      <trkpt lat="45.8755" lon="5.3719">
        <ele>205</ele>
        <time>2024-09-19T10:17:50Z</time>
      </trkpt>
      <trkpt lat="45.87545" lon="5.37196">
        <ele>205</ele>
        <time>2024-09-19T10:17:51Z</time>
      </trkpt>
      <trkpt lat="45.8754" lon="5.37202">
        <ele>205</ele>
        <time>2024-09-19T10:17:52Z</time>
      </trkpt>
      <trkpt lat="45.87536" lon="5.37207">
        <ele>205</ele>
        <time>2024-09-19T10:17:53Z</time>
      </trkpt>
      <trkpt lat="45.87532" lon="5.37213">
        <ele>205</ele>
        <time>2024-09-19T10:17:54Z</time>
      </trkpt>
      <trkpt lat="45.87527" lon="5.37219">
        <ele>205.4</ele>
        <time>2024-09-19T10:17:55Z</time>
      </trkpt>
      <trkpt lat="45.87523" lon="5.37226">
        <ele>205.4</ele>
        <time>2024-09-19T10:17:56Z</time>
      </trkpt>
      <trkpt lat="45.87519" lon="5.37232">
        <ele>205.4</ele>
        <time>2024-09-19T10:17:57Z</time>
      </trkpt>
      <trkpt lat="45.87515" lon="5.37239">
        <ele>205.4</ele>
        <time>2024-09-19T10:17:58Z</time>
      </trkpt>
      <trkpt lat="45.87511" lon="5.37245">
        <ele>205.4</ele>
        <time>2024-09-19T10:17:59Z</time>
      </trkpt>
      <trkpt lat="45.87508" lon="5.37251">
        <ele>205.4</ele>
        <time>2024-09-19T10:18:00Z</time>
      </trkpt>
      <trkpt lat="45.87505" lon="5.37257">
        <ele>205.4</ele>
        <time>2024-09-19T10:18:01Z</time>
      </trkpt>
      <trkpt lat="45.875" lon="5.37264">
        <ele>205.4</ele>
        <time>2024-09-19T10:18:02Z</time>
      </trkpt>
      <trkpt lat="45.87496" lon="5.3727">
        <ele>205.4</ele>
        <time>2024-09-19T10:18:03Z</time>
      </trkpt>
      <trkpt lat="45.87492" lon="5.37277">
        <ele>205.4</ele>
        <time>2024-09-19T10:18:04Z</time>
      </trkpt>
      <trkpt lat="45.87488" lon="5.37283">
        <ele>205.4</ele>
        <time>2024-09-19T10:18:05Z</time>
      </trkpt>
      <trkpt lat="45.87484" lon="5.37289">
        <ele>205.4</ele>
        <time>2024-09-19T10:18:06Z</time>
      </trkpt>
      <trkpt lat="45.8748" lon="5.37295">
        <ele>205.6</ele>
        <time>2024-09-19T10:18:07Z</time>
      </trkpt>
      <trkpt lat="45.87475" lon="5.373">
        <ele>205.6</ele>
        <time>2024-09-19T10:18:08Z</time>
      </trkpt>
      <trkpt lat="45.87471" lon="5.37307">
        <ele>205.6</ele>
        <time>2024-09-19T10:18:09Z</time>
      </trkpt>
      <trkpt lat="45.87467" lon="5.37312">
        <ele>205.6</ele>
        <time>2024-09-19T10:18:10Z</time>
      </trkpt>
      <trkpt lat="45.87462" lon="5.37318">
        <ele>205.6</ele>
        <time>2024-09-19T10:18:11Z</time>
      </trkpt>
      <trkpt lat="45.87458" lon="5.37323">
        <ele>205.6</ele>
        <time>2024-09-19T10:18:12Z</time>
      </trkpt>
      <trkpt lat="45.87453" lon="5.37329">
        <ele>205.6</ele>
        <time>2024-09-19T10:18:13Z</time>
      </trkpt>
      <trkpt lat="45.87448" lon="5.37335">
        <ele>205.6</ele>
        <time>2024-09-19T10:18:14Z</time>
      </trkpt>
      <trkpt lat="45.87444" lon="5.37341">
        <ele>205.6</ele>
        <time>2024-09-19T10:18:15Z</time>
      </trkpt>
      <trkpt lat="45.8744" lon="5.37347">
        <ele>205.6</ele>
        <time>2024-09-19T10:18:16Z</time>
      </trkpt>
      <trkpt lat="45.87435" lon="5.37354">
        <ele>205.6</ele>
        <time>2024-09-19T10:18:17Z</time>
      </trkpt>
      <trkpt lat="45.87432" lon="5.37361">
        <ele>205.6</ele>
        <time>2024-09-19T10:18:18Z</time>
      </trkpt>
      <trkpt lat="45.87428" lon="5.37369">
        <ele>205.6</ele>
        <time>2024-09-19T10:18:19Z</time>
      </trkpt>
      <trkpt lat="45.87424" lon="5.37375">
        <ele>205.6</ele>
        <time>2024-09-19T10:18:20Z</time>
      </trkpt>
      <trkpt lat="45.8742" lon="5.37382">
        <ele>205.6</ele>
        <time>2024-09-19T10:18:21Z</time>
      </trkpt>
      <trkpt lat="45.87416" lon="5.37388">
        <ele>205.2</ele>
        <time>2024-09-19T10:18:22Z</time>
      </trkpt>
      <trkpt lat="45.87412" lon="5.37395">
        <ele>205.2</ele>
        <time>2024-09-19T10:18:23Z</time>
      </trkpt>
      <trkpt lat="45.87408" lon="5.37402">
        <ele>205.2</ele>
        <time>2024-09-19T10:18:24Z</time>
      </trkpt>
      <trkpt lat="45.87405" lon="5.37409">
        <ele>205.2</ele>
        <time>2024-09-19T10:18:25Z</time>
      </trkpt>
      <trkpt lat="45.87401" lon="5.37416">
        <ele>205</ele>
        <time>2024-09-19T10:18:26Z</time>
      </trkpt>
      <trkpt lat="45.87396" lon="5.37422">
        <ele>205</ele>
        <time>2024-09-19T10:18:27Z</time>
      </trkpt>
      <trkpt lat="45.87392" lon="5.37428">
        <ele>205</ele>
        <time>2024-09-19T10:18:28Z</time>
      </trkpt>
      <trkpt lat="45.87387" lon="5.37434">
        <ele>205</ele>
        <time>2024-09-19T10:18:29Z</time>
      </trkpt>
      <trkpt lat="45.87383" lon="5.3744">
        <ele>205</ele>
        <time>2024-09-19T10:18:30Z</time>
      </trkpt>
      <trkpt lat="45.8738" lon="5.37445">
        <ele>205</ele>
        <time>2024-09-19T10:18:31Z</time>
      </trkpt>
      <trkpt lat="45.87375" lon="5.37451">
        <ele>205</ele>
        <time>2024-09-19T10:18:32Z</time>
      </trkpt>
      <trkpt lat="45.8737" lon="5.37456">
        <ele>205</ele>
        <time>2024-09-19T10:18:33Z</time>
      </trkpt>
      <trkpt lat="45.87366" lon="5.37462">
        <ele>205</ele>
        <time>2024-09-19T10:18:34Z</time>
      </trkpt>
      <trkpt lat="45.87361" lon="5.37467">
        <ele>205</ele>
        <time>2024-09-19T10:18:35Z</time>
      </trkpt>
      <trkpt lat="45.87356" lon="5.37472">
        <ele>205</ele>
        <time>2024-09-19T10:18:36Z</time>
      </trkpt>
      <trkpt lat="45.87352" lon="5.37478">
        <ele>205</ele>
        <time>2024-09-19T10:18:37Z</time>
      </trkpt>
      <trkpt lat="45.87348" lon="5.37483">
        <ele>205</ele>
        <time>2024-09-19T10:18:38Z</time>
      </trkpt>
      <trkpt lat="45.87342" lon="5.37489">
        <ele>205</ele>
        <time>2024-09-19T10:18:39Z</time>
      </trkpt>
      <trkpt lat="45.87338" lon="5.37495">
        <ele>205</ele>
        <time>2024-09-19T10:18:40Z</time>
      </trkpt>
      <trkpt lat="45.87334" lon="5.375">
        <ele>205</ele>
        <time>2024-09-19T10:18:41Z</time>
      </trkpt>
      <trkpt lat="45.8733" lon="5.37506">
        <ele>205</ele>
        <time>2024-09-19T10:18:42Z</time>
      </trkpt>
      <trkpt lat="45.87326" lon="5.37512">
        <ele>205.2</ele>
        <time>2024-09-19T10:18:43Z</time>
      </trkpt>
      <trkpt lat="45.87321" lon="5.37517">
        <ele>205.2</ele>
        <time>2024-09-19T10:18:44Z</time>
      </trkpt>
      <trkpt lat="45.87317" lon="5.37522">
        <ele>205.2</ele>
        <time>2024-09-19T10:18:45Z</time>
      </trkpt>
      <trkpt lat="45.87313" lon="5.37527">
        <ele>205.2</ele>
        <time>2024-09-19T10:18:46Z</time>
      </trkpt>
      <trkpt lat="45.8731" lon="5.37532">
        <ele>205.2</ele>
        <time>2024-09-19T10:18:47Z</time>
      </trkpt>
      <trkpt lat="45.87306" lon="5.37538">
        <ele>205.2</ele>
        <time>2024-09-19T10:18:48Z</time>
      </trkpt>
      <trkpt lat="45.87302" lon="5.37543">
        <ele>205.2</ele>
        <time>2024-09-19T10:18:49Z</time>
      </trkpt>
      <trkpt lat="45.87298" lon="5.37549">
        <ele>205.4</ele>
        <time>2024-09-19T10:18:50Z</time>
      </trkpt>
      <trkpt lat="45.87295" lon="5.37554">
        <ele>205.4</ele>
        <time>2024-09-19T10:18:51Z</time>
      </trkpt>
      <trkpt lat="45.87291" lon="5.3756">
        <ele>205.4</ele>
        <time>2024-09-19T10:18:52Z</time>
      </trkpt>
      <trkpt lat="45.87287" lon="5.37565">
        <ele>205.4</ele>
        <time>2024-09-19T10:18:53Z</time>
      </trkpt>
      <trkpt lat="45.87283" lon="5.3757">
        <ele>205.4</ele>
        <time>2024-09-19T10:18:54Z</time>
      </trkpt>
      <trkpt lat="45.87279" lon="5.37575">
        <ele>205.4</ele>
        <time>2024-09-19T10:18:55Z</time>
      </trkpt>
      <trkpt lat="45.87274" lon="5.3758">
        <ele>205.4</ele>
        <time>2024-09-19T10:18:56Z</time>
      </trkpt>
      <trkpt lat="45.8727" lon="5.37585">
        <ele>205.4</ele>
        <time>2024-09-19T10:18:57Z</time>
      </trkpt>
      <trkpt lat="45.87266" lon="5.3759">
        <ele>205.4</ele>
        <time>2024-09-19T10:18:58Z</time>
      </trkpt>
      <trkpt lat="45.87262" lon="5.37595">
        <ele>205.4</ele>
        <time>2024-09-19T10:18:59Z</time>
      </trkpt>
      <trkpt lat="45.87257" lon="5.376">
        <ele>205.4</ele>
        <time>2024-09-19T10:19:00Z</time>
      </trkpt>
      <trkpt lat="45.87252" lon="5.37604">
        <ele>205.4</ele>
        <time>2024-09-19T10:19:01Z</time>
      </trkpt>
      <trkpt lat="45.87246" lon="5.37609">
        <ele>205.4</ele>
        <time>2024-09-19T10:19:02Z</time>
      </trkpt>
      <trkpt lat="45.87241" lon="5.37613">
        <ele>205.4</ele>
        <time>2024-09-19T10:19:03Z</time>
      </trkpt>
      <trkpt lat="45.87236" lon="5.37618">
        <ele>205.4</ele>
        <time>2024-09-19T10:19:04Z</time>
      </trkpt>
      <trkpt lat="45.87231" lon="5.37623">
        <ele>204.8</ele>
        <time>2024-09-19T10:19:05Z</time>
      </trkpt>
      <trkpt lat="45.87226" lon="5.37628">
        <ele>204.8</ele>
        <time>2024-09-19T10:19:06Z</time>
      </trkpt>
      <trkpt lat="45.87221" lon="5.37633">
        <ele>204.8</ele>
        <time>2024-09-19T10:19:07Z</time>
      </trkpt>
      <trkpt lat="45.87217" lon="5.37638">
        <ele>204.8</ele>
        <time>2024-09-19T10:19:08Z</time>
      </trkpt>
      <trkpt lat="45.87213" lon="5.37644">
        <ele>204.8</ele>
        <time>2024-09-19T10:19:09Z</time>
      </trkpt>
      <trkpt lat="45.87209" lon="5.3765">
        <ele>205</ele>
        <time>2024-09-19T10:19:10Z</time>
      </trkpt>
      <trkpt lat="45.87204" lon="5.37656">
        <ele>205</ele>
        <time>2024-09-19T10:19:11Z</time>
      </trkpt>
      <trkpt lat="45.872" lon="5.37662">
        <ele>205</ele>
        <time>2024-09-19T10:19:12Z</time>
      </trkpt>
      <trkpt lat="45.87196" lon="5.37668">
        <ele>205</ele>
        <time>2024-09-19T10:19:13Z</time>
      </trkpt>
      <trkpt lat="45.87192" lon="5.37675">
        <ele>205</ele>
        <time>2024-09-19T10:19:14Z</time>
      </trkpt>
      <trkpt lat="45.87188" lon="5.37682">
        <ele>205</ele>
        <time>2024-09-19T10:19:15Z</time>
      </trkpt>
      <trkpt lat="45.87185" lon="5.37688">
        <ele>205</ele>
        <time>2024-09-19T10:19:16Z</time>
      </trkpt>
      <trkpt lat="45.87181" lon="5.37694">
        <ele>205</ele>
        <time>2024-09-19T10:19:17Z</time>
      </trkpt>
      <trkpt lat="45.87177" lon="5.37701">
        <ele>205.2</ele>
        <time>2024-09-19T10:19:18Z</time>
      </trkpt>
      <trkpt lat="45.87174" lon="5.37707">
        <ele>205.2</ele>
        <time>2024-09-19T10:19:19Z</time>
      </trkpt>
      <trkpt lat="45.8717" lon="5.37713">
        <ele>205.2</ele>
        <time>2024-09-19T10:19:20Z</time>
      </trkpt>
      <trkpt lat="45.87165" lon="5.37719">
        <ele>205.6</ele>
        <time>2024-09-19T10:19:21Z</time>
      </trkpt>
      <trkpt lat="45.87161" lon="5.37725">
        <ele>205.6</ele>
        <time>2024-09-19T10:19:22Z</time>
      </trkpt>
      <trkpt lat="45.87161" lon="5.37725">
        <ele>205.6</ele>
        <time>2024-09-19T10:19:23Z</time>
      </trkpt>
      <trkpt lat="45.87157" lon="5.37732">
        <ele>205.6</ele>
        <time>2024-09-19T10:19:24Z</time>
      </trkpt>
      <trkpt lat="45.87153" lon="5.37738">
        <ele>205.2</ele>
        <time>2024-09-19T10:19:25Z</time>
      </trkpt>
      <trkpt lat="45.87149" lon="5.37744">
        <ele>205.2</ele>
        <time>2024-09-19T10:19:26Z</time>
      </trkpt>
      <trkpt lat="45.87145" lon="5.37751">
        <ele>205.2</ele>
        <time>2024-09-19T10:19:27Z</time>
      </trkpt>
      <trkpt lat="45.87141" lon="5.37756">
        <ele>205.2</ele>
        <time>2024-09-19T10:19:28Z</time>
      </trkpt>
      <trkpt lat="45.87137" lon="5.3776">
        <ele>205.2</ele>
        <time>2024-09-19T10:19:29Z</time>
      </trkpt>
      <trkpt lat="45.87133" lon="5.37768">
        <ele>205.2</ele>
        <time>2024-09-19T10:19:30Z</time>
      </trkpt>
      <trkpt lat="45.87129" lon="5.37774">
        <ele>205.2</ele>
        <time>2024-09-19T10:19:31Z</time>
      </trkpt>
      <trkpt lat="45.87125" lon="5.3778">
        <ele>205.2</ele>
        <time>2024-09-19T10:19:32Z</time>
      </trkpt>
      <trkpt lat="45.87117" lon="5.37794">
        <ele>205.2</ele>
        <time>2024-09-19T10:19:33Z</time>
      </trkpt>
      <trkpt lat="45.87113" lon="5.378">
        <ele>205.2</ele>
        <time>2024-09-19T10:19:34Z</time>
      </trkpt>
      <trkpt lat="45.87109" lon="5.37807">
        <ele>205.2</ele>
        <time>2024-09-19T10:19:35Z</time>
      </trkpt>
      <trkpt lat="45.87105" lon="5.37814">
        <ele>205.2</ele>
        <time>2024-09-19T10:19:36Z</time>
      </trkpt>
      <trkpt lat="45.87101" lon="5.37819">
        <ele>205.2</ele>
        <time>2024-09-19T10:19:37Z</time>
      </trkpt>
      <trkpt lat="45.87097" lon="5.37825">
        <ele>205.2</ele>
        <time>2024-09-19T10:19:38Z</time>
      </trkpt>
      <trkpt lat="45.87093" lon="5.37832">
        <ele>205.2</ele>
        <time>2024-09-19T10:19:39Z</time>
      </trkpt>
      <trkpt lat="45.87089" lon="5.37839">
        <ele>205.2</ele>
        <time>2024-09-19T10:19:40Z</time>
      </trkpt>
      <trkpt lat="45.87086" lon="5.37845">
        <ele>205.2</ele>
        <time>2024-09-19T10:19:41Z</time>
      </trkpt>
      <trkpt lat="45.87082" lon="5.37851">
        <ele>205.2</ele>
        <time>2024-09-19T10:19:42Z</time>
      </trkpt>
      <trkpt lat="45.87079" lon="5.37857">
        <ele>205.2</ele>
        <time>2024-09-19T10:19:43Z</time>
      </trkpt>
      <trkpt lat="45.87075" lon="5.37863">
        <ele>205.2</ele>
        <time>2024-09-19T10:19:44Z</time>
      </trkpt>
      <trkpt lat="45.87071" lon="5.37869">
        <ele>205.2</ele>
        <time>2024-09-19T10:19:45Z</time>
      </trkpt>
      <trkpt lat="45.87067" lon="5.37875">
        <ele>205.2</ele>
        <time>2024-09-19T10:19:46Z</time>
      </trkpt>
      <trkpt lat="45.87063" lon="5.37881">
        <ele>205.2</ele>
        <time>2024-09-19T10:19:47Z</time>
      </trkpt>
      <trkpt lat="45.87059" lon="5.37887">
        <ele>205.2</ele>
        <time>2024-09-19T10:19:48Z</time>
      </trkpt>
      <trkpt lat="45.87056" lon="5.37894">
        <ele>205.6</ele>
        <time>2024-09-19T10:19:49Z</time>
      </trkpt>
      <trkpt lat="45.87052" lon="5.379">
        <ele>205.6</ele>
        <time>2024-09-19T10:19:50Z</time>
      </trkpt>
      <trkpt lat="45.8705" lon="5.37907">
        <ele>205.6</ele>
        <time>2024-09-19T10:19:51Z</time>
      </trkpt>
      <trkpt lat="45.87046" lon="5.37914">
        <ele>205.4</ele>
        <time>2024-09-19T10:19:52Z</time>
      </trkpt>
      <trkpt lat="45.87044" lon="5.37922">
        <ele>205.4</ele>
        <time>2024-09-19T10:19:53Z</time>
      </trkpt>
      <trkpt lat="45.87042" lon="5.37928">
        <ele>205.4</ele>
        <time>2024-09-19T10:19:54Z</time>
      </trkpt>
      <trkpt lat="45.87039" lon="5.37936">
        <ele>205.4</ele>
        <time>2024-09-19T10:19:55Z</time>
      </trkpt>
      <trkpt lat="45.87038" lon="5.37943">
        <ele>205.6</ele>
        <time>2024-09-19T10:19:56Z</time>
      </trkpt>
      <trkpt lat="45.87036" lon="5.3795">
        <ele>205.6</ele>
        <time>2024-09-19T10:19:57Z</time>
      </trkpt>
      <trkpt lat="45.87035" lon="5.37957">
        <ele>205.6</ele>
        <time>2024-09-19T10:19:58Z</time>
      </trkpt>
      <trkpt lat="45.87033" lon="5.37965">
        <ele>205.6</ele>
        <time>2024-09-19T10:19:59Z</time>
      </trkpt>
      <trkpt lat="45.87031" lon="5.37971">
        <ele>205.8</ele>
        <time>2024-09-19T10:20:00Z</time>
      </trkpt>
      <trkpt lat="45.87029" lon="5.37978">
        <ele>205.8</ele>
        <time>2024-09-19T10:20:01Z</time>
      </trkpt>
      <trkpt lat="45.87026" lon="5.37985">
        <ele>205.8</ele>
        <time>2024-09-19T10:20:02Z</time>
      </trkpt>
      <trkpt lat="45.87023" lon="5.37992">
        <ele>205.8</ele>
        <time>2024-09-19T10:20:03Z</time>
      </trkpt>
      <trkpt lat="45.8702" lon="5.38">
        <ele>205.8</ele>
        <time>2024-09-19T10:20:04Z</time>
      </trkpt>
      <trkpt lat="45.87017" lon="5.38006">
        <ele>205.8</ele>
        <time>2024-09-19T10:20:05Z</time>
      </trkpt>
      <trkpt lat="45.87014" lon="5.38014">
        <ele>205.8</ele>
        <time>2024-09-19T10:20:06Z</time>
      </trkpt>
      <trkpt lat="45.87011" lon="5.38021">
        <ele>205.8</ele>
        <time>2024-09-19T10:20:07Z</time>
      </trkpt>
      <trkpt lat="45.87009" lon="5.38028">
        <ele>205.8</ele>
        <time>2024-09-19T10:20:08Z</time>
      </trkpt>
      <trkpt lat="45.87007" lon="5.38035">
        <ele>205.8</ele>
        <time>2024-09-19T10:20:09Z</time>
      </trkpt>
      <trkpt lat="45.87005" lon="5.38043">
        <ele>205.8</ele>
        <time>2024-09-19T10:20:10Z</time>
      </trkpt>
      <trkpt lat="45.87003" lon="5.3805">
        <ele>205.8</ele>
        <time>2024-09-19T10:20:11Z</time>
      </trkpt>
      <trkpt lat="45.87" lon="5.38058">
        <ele>205.8</ele>
        <time>2024-09-19T10:20:12Z</time>
      </trkpt>
      <trkpt lat="45.86998" lon="5.38065">
        <ele>205.8</ele>
        <time>2024-09-19T10:20:13Z</time>
      </trkpt>
      <trkpt lat="45.86996" lon="5.38073">
        <ele>205.8</ele>
        <time>2024-09-19T10:20:14Z</time>
      </trkpt>
      <trkpt lat="45.86993" lon="5.3808">
        <ele>205.8</ele>
        <time>2024-09-19T10:20:15Z</time>
      </trkpt>
      <trkpt lat="45.86991" lon="5.38087">
        <ele>205.8</ele>
        <time>2024-09-19T10:20:16Z</time>
      </trkpt>
      <trkpt lat="45.86989" lon="5.38094">
        <ele>205.8</ele>
        <time>2024-09-19T10:20:17Z</time>
      </trkpt>
      <trkpt lat="45.86986" lon="5.38102">
        <ele>205.8</ele>
        <time>2024-09-19T10:20:18Z</time>
      </trkpt>
      <trkpt lat="45.86983" lon="5.38109">
        <ele>206</ele>
        <time>2024-09-19T10:20:19Z</time>
      </trkpt>
      <trkpt lat="45.8698" lon="5.38116">
        <ele>206</ele>
        <time>2024-09-19T10:20:20Z</time>
      </trkpt>
      <trkpt lat="45.86977" lon="5.38123">
        <ele>206</ele>
        <time>2024-09-19T10:20:21Z</time>
      </trkpt>
      <trkpt lat="45.86975" lon="5.38129">
        <ele>206</ele>
        <time>2024-09-19T10:20:22Z</time>
      </trkpt>
      <trkpt lat="45.86973" lon="5.38136">
        <ele>206.4</ele>
        <time>2024-09-19T10:20:23Z</time>
      </trkpt>
      <trkpt lat="45.86971" lon="5.38143">
        <ele>206.4</ele>
        <time>2024-09-19T10:20:24Z</time>
      </trkpt>
      <trkpt lat="45.86968" lon="5.3815">
        <ele>206.4</ele>
        <time>2024-09-19T10:20:25Z</time>
      </trkpt>
      <trkpt lat="45.86965" lon="5.38156">
        <ele>206.6</ele>
        <time>2024-09-19T10:20:26Z</time>
      </trkpt>
      <trkpt lat="45.86963" lon="5.38162">
        <ele>206.6</ele>
        <time>2024-09-19T10:20:27Z</time>
      </trkpt>
      <trkpt lat="45.8696" lon="5.38168">
        <ele>206.6</ele>
        <time>2024-09-19T10:20:28Z</time>
      </trkpt>
      <trkpt lat="45.86956" lon="5.38172">
        <ele>206.8</ele>
        <time>2024-09-19T10:20:29Z</time>
      </trkpt>
      <trkpt lat="45.86955" lon="5.38179">
        <ele>206.8</ele>
        <time>2024-09-19T10:20:30Z</time>
      </trkpt>
      <trkpt lat="45.86952" lon="5.38184">
        <ele>206.8</ele>
        <time>2024-09-19T10:20:31Z</time>
      </trkpt>
      <trkpt lat="45.86949" lon="5.3819">
        <ele>206.8</ele>
        <time>2024-09-19T10:20:32Z</time>
      </trkpt>
      <trkpt lat="45.86946" lon="5.38197">
        <ele>206.8</ele>
        <time>2024-09-19T10:20:33Z</time>
      </trkpt>
      <trkpt lat="45.86943" lon="5.38203">
        <ele>206.8</ele>
        <time>2024-09-19T10:20:34Z</time>
      </trkpt>
      <trkpt lat="45.8694" lon="5.38209">
        <ele>206.8</ele>
        <time>2024-09-19T10:20:35Z</time>
      </trkpt>
      <trkpt lat="45.86938" lon="5.38216">
        <ele>206.8</ele>
        <time>2024-09-19T10:20:36Z</time>
      </trkpt>
      <trkpt lat="45.86936" lon="5.38222">
        <ele>206.8</ele>
        <time>2024-09-19T10:20:37Z</time>
      </trkpt>
      <trkpt lat="45.86933" lon="5.38228">
        <ele>206.8</ele>
        <time>2024-09-19T10:20:38Z</time>
      </trkpt>
      <trkpt lat="45.8693" lon="5.38235">
        <ele>206.8</ele>
        <time>2024-09-19T10:20:39Z</time>
      </trkpt>
      <trkpt lat="45.86927" lon="5.38242">
        <ele>206.8</ele>
        <time>2024-09-19T10:20:40Z</time>
      </trkpt>
      <trkpt lat="45.86927" lon="5.38242">
        <ele>206.8</ele>
        <time>2024-09-19T10:20:41Z</time>
      </trkpt>
      <trkpt lat="45.86927" lon="5.38242">
        <ele>206.8</ele>
        <time>2024-09-19T10:20:42Z</time>
      </trkpt>
      <trkpt lat="45.86916" lon="5.38267">
        <ele>206.4</ele>
        <time>2024-09-19T10:20:44Z</time>
      </trkpt>
      <trkpt lat="45.86913" lon="5.38273">
        <ele>206.4</ele>
        <time>2024-09-19T10:20:45Z</time>
      </trkpt>
      <trkpt lat="45.86909" lon="5.3828">
        <ele>206.2</ele>
        <time>2024-09-19T10:20:46Z</time>
      </trkpt>
      <trkpt lat="45.86906" lon="5.38287">
        <ele>206.2</ele>
        <time>2024-09-19T10:20:47Z</time>
      </trkpt>
      <trkpt lat="45.86903" lon="5.38294">
        <ele>206.2</ele>
        <time>2024-09-19T10:20:48Z</time>
      </trkpt>
      <trkpt lat="45.86899" lon="5.383">
        <ele>206.2</ele>
        <time>2024-09-19T10:20:49Z</time>
      </trkpt>
      <trkpt lat="45.86896" lon="5.38307">
        <ele>206.2</ele>
        <time>2024-09-19T10:20:50Z</time>
      </trkpt>
      <trkpt lat="45.86893" lon="5.38313">
        <ele>206.2</ele>
        <time>2024-09-19T10:20:51Z</time>
      </trkpt>
      <trkpt lat="45.86889" lon="5.38321">
        <ele>206.2</ele>
        <time>2024-09-19T10:20:52Z</time>
      </trkpt>
      <trkpt lat="45.86885" lon="5.38326">
        <ele>206.2</ele>
        <time>2024-09-19T10:20:53Z</time>
      </trkpt>
      <trkpt lat="45.86881" lon="5.38332">
        <ele>206.2</ele>
        <time>2024-09-19T10:20:54Z</time>
      </trkpt>
      <trkpt lat="45.86878" lon="5.38339">
        <ele>206.2</ele>
        <time>2024-09-19T10:20:55Z</time>
      </trkpt>
      <trkpt lat="45.86874" lon="5.38344">
        <ele>206.2</ele>
        <time>2024-09-19T10:20:56Z</time>
      </trkpt>
      <trkpt lat="45.8687" lon="5.3835">
        <ele>206.2</ele>
        <time>2024-09-19T10:20:57Z</time>
      </trkpt>
      <trkpt lat="45.86865" lon="5.38356">
        <ele>205.8</ele>
        <time>2024-09-19T10:20:58Z</time>
      </trkpt>
      <trkpt lat="45.86861" lon="5.38362">
        <ele>205.8</ele>
        <time>2024-09-19T10:20:59Z</time>
      </trkpt>
      <trkpt lat="45.86856" lon="5.38367">
        <ele>205.4</ele>
        <time>2024-09-19T10:21:00Z</time>
      </trkpt>
      <trkpt lat="45.86852" lon="5.38372">
        <ele>205.4</ele>
        <time>2024-09-19T10:21:01Z</time>
      </trkpt>
      <trkpt lat="45.86847" lon="5.38377">
        <ele>205.4</ele>
        <time>2024-09-19T10:21:02Z</time>
      </trkpt>
      <trkpt lat="45.86842" lon="5.38381">
        <ele>205.2</ele>
        <time>2024-09-19T10:21:03Z</time>
      </trkpt>
      <trkpt lat="45.86837" lon="5.38385">
        <ele>205.2</ele>
        <time>2024-09-19T10:21:04Z</time>
      </trkpt>
      <trkpt lat="45.86833" lon="5.3839">
        <ele>205.2</ele>
        <time>2024-09-19T10:21:05Z</time>
      </trkpt>
      <trkpt lat="45.86827" lon="5.38394">
        <ele>205.2</ele>
        <time>2024-09-19T10:21:06Z</time>
      </trkpt>
      <trkpt lat="45.86821" lon="5.38398">
        <ele>205.2</ele>
        <time>2024-09-19T10:21:07Z</time>
      </trkpt>
      <trkpt lat="45.86815" lon="5.38401">
        <ele>205</ele>
        <time>2024-09-19T10:21:08Z</time>
      </trkpt>
      <trkpt lat="45.8681" lon="5.38405">
        <ele>205</ele>
        <time>2024-09-19T10:21:09Z</time>
      </trkpt>
      <trkpt lat="45.86804" lon="5.38409">
        <ele>205</ele>
        <time>2024-09-19T10:21:10Z</time>
      </trkpt>
      <trkpt lat="45.86799" lon="5.38413">
        <ele>205.2</ele>
        <time>2024-09-19T10:21:11Z</time>
      </trkpt>
      <trkpt lat="45.86794" lon="5.38417">
        <ele>205.2</ele>
        <time>2024-09-19T10:21:12Z</time>
      </trkpt>
      <trkpt lat="45.86789" lon="5.38421">
        <ele>205.2</ele>
        <time>2024-09-19T10:21:13Z</time>
      </trkpt>
      <trkpt lat="45.86783" lon="5.38424">
        <ele>205.2</ele>
        <time>2024-09-19T10:21:14Z</time>
      </trkpt>
      <trkpt lat="45.86777" lon="5.38428">
        <ele>205.2</ele>
        <time>2024-09-19T10:21:15Z</time>
      </trkpt>
      <trkpt lat="45.86772" lon="5.38432">
        <ele>205.2</ele>
        <time>2024-09-19T10:21:16Z</time>
      </trkpt>
      <trkpt lat="45.86766" lon="5.38436">
        <ele>205.2</ele>
        <time>2024-09-19T10:21:17Z</time>
      </trkpt>
      <trkpt lat="45.8676" lon="5.38439">
        <ele>205</ele>
        <time>2024-09-19T10:21:18Z</time>
      </trkpt>
      <trkpt lat="45.86754" lon="5.38442">
        <ele>205</ele>
        <time>2024-09-19T10:21:19Z</time>
      </trkpt>
      <trkpt lat="45.86749" lon="5.38446">
        <ele>205.4</ele>
        <time>2024-09-19T10:21:20Z</time>
      </trkpt>
      <trkpt lat="45.86743" lon="5.38449">
        <ele>205.4</ele>
        <time>2024-09-19T10:21:21Z</time>
      </trkpt>
      <trkpt lat="45.86737" lon="5.38453">
        <ele>205.4</ele>
        <time>2024-09-19T10:21:22Z</time>
      </trkpt>
      <trkpt lat="45.86732" lon="5.38457">
        <ele>205.4</ele>
        <time>2024-09-19T10:21:23Z</time>
      </trkpt>
      <trkpt lat="45.86726" lon="5.3846">
        <ele>205.6</ele>
        <time>2024-09-19T10:21:24Z</time>
      </trkpt>
      <trkpt lat="45.8672" lon="5.38463">
        <ele>205.6</ele>
        <time>2024-09-19T10:21:25Z</time>
      </trkpt>
      <trkpt lat="45.86714" lon="5.38466">
        <ele>205.6</ele>
        <time>2024-09-19T10:21:26Z</time>
      </trkpt>
      <trkpt lat="45.86709" lon="5.38469">
        <ele>205.6</ele>
        <time>2024-09-19T10:21:27Z</time>
      </trkpt>
      <trkpt lat="45.86703" lon="5.38473">
        <ele>205.6</ele>
        <time>2024-09-19T10:21:28Z</time>
      </trkpt>
      <trkpt lat="45.86697" lon="5.38477">
        <ele>205.6</ele>
        <time>2024-09-19T10:21:29Z</time>
      </trkpt>
      <trkpt lat="45.86692" lon="5.38482">
        <ele>205.6</ele>
        <time>2024-09-19T10:21:30Z</time>
      </trkpt>
      <trkpt lat="45.86687" lon="5.38487">
        <ele>205.6</ele>
        <time>2024-09-19T10:21:31Z</time>
      </trkpt>
      <trkpt lat="45.86681" lon="5.38492">
        <ele>205.2</ele>
        <time>2024-09-19T10:21:32Z</time>
      </trkpt>
      <trkpt lat="45.86676" lon="5.38498">
        <ele>205.2</ele>
        <time>2024-09-19T10:21:33Z</time>
      </trkpt>
      <trkpt lat="45.8667" lon="5.38503">
        <ele>205.2</ele>
        <time>2024-09-19T10:21:34Z</time>
      </trkpt>
      <trkpt lat="45.86666" lon="5.38509">
        <ele>205.6</ele>
        <time>2024-09-19T10:21:35Z</time>
      </trkpt>
      <trkpt lat="45.86662" lon="5.38515">
        <ele>205.6</ele>
        <time>2024-09-19T10:21:36Z</time>
      </trkpt>
      <trkpt lat="45.86657" lon="5.38521">
        <ele>206</ele>
        <time>2024-09-19T10:21:37Z</time>
      </trkpt>
      <trkpt lat="45.86653" lon="5.38528">
        <ele>206</ele>
        <time>2024-09-19T10:21:38Z</time>
      </trkpt>
      <trkpt lat="45.86649" lon="5.38534">
        <ele>206</ele>
        <time>2024-09-19T10:21:39Z</time>
      </trkpt>
      <trkpt lat="45.86649" lon="5.38534">
        <ele>206.2</ele>
        <time>2024-09-19T10:21:40Z</time>
      </trkpt>
      <trkpt lat="45.86649" lon="5.38534">
        <ele>206.2</ele>
        <time>2024-09-19T10:21:41Z</time>
      </trkpt>
      <trkpt lat="45.86639" lon="5.38556">
        <ele>206.4</ele>
        <time>2024-09-19T10:21:42Z</time>
      </trkpt>
      <trkpt lat="45.86635" lon="5.38563">
        <ele>206.4</ele>
        <time>2024-09-19T10:21:43Z</time>
      </trkpt>
      <trkpt lat="45.86632" lon="5.38571">
        <ele>206.4</ele>
        <time>2024-09-19T10:21:44Z</time>
      </trkpt>
      <trkpt lat="45.86629" lon="5.38578">
        <ele>206.4</ele>
        <time>2024-09-19T10:21:45Z</time>
      </trkpt>
      <trkpt lat="45.86626" lon="5.38586">
        <ele>206.4</ele>
        <time>2024-09-19T10:21:46Z</time>
      </trkpt>
      <trkpt lat="45.86623" lon="5.38594">
        <ele>206.2</ele>
        <time>2024-09-19T10:21:47Z</time>
      </trkpt>
      <trkpt lat="45.86621" lon="5.38602">
        <ele>206.2</ele>
        <time>2024-09-19T10:21:48Z</time>
      </trkpt>
      <trkpt lat="45.86618" lon="5.38611">
        <ele>206.2</ele>
        <time>2024-09-19T10:21:49Z</time>
      </trkpt>
      <trkpt lat="45.86617" lon="5.38619">
        <ele>206</ele>
        <time>2024-09-19T10:21:50Z</time>
      </trkpt>
      <trkpt lat="45.86616" lon="5.38628">
        <ele>206.2</ele>
        <time>2024-09-19T10:21:51Z</time>
      </trkpt>
      <trkpt lat="45.86615" lon="5.38637">
        <ele>206.2</ele>
        <time>2024-09-19T10:21:52Z</time>
      </trkpt>
      <trkpt lat="45.86613" lon="5.38646">
        <ele>206.2</ele>
        <time>2024-09-19T10:21:53Z</time>
      </trkpt>
      <trkpt lat="45.86612" lon="5.38654">
        <ele>206.2</ele>
        <time>2024-09-19T10:21:54Z</time>
      </trkpt>
      <trkpt lat="45.8661" lon="5.38661">
        <ele>206.2</ele>
        <time>2024-09-19T10:21:55Z</time>
      </trkpt>
      <trkpt lat="45.86609" lon="5.3867">
        <ele>206.2</ele>
        <time>2024-09-19T10:21:56Z</time>
      </trkpt>
      <trkpt lat="45.86606" lon="5.38678">
        <ele>206.2</ele>
        <time>2024-09-19T10:21:57Z</time>
      </trkpt>
      <trkpt lat="45.86604" lon="5.38687">
        <ele>206.2</ele>
        <time>2024-09-19T10:21:58Z</time>
      </trkpt>
      <trkpt lat="45.86601" lon="5.38695">
        <ele>206.2</ele>
        <time>2024-09-19T10:21:59Z</time>
      </trkpt>
      <trkpt lat="45.86598" lon="5.38703">
        <ele>206.2</ele>
        <time>2024-09-19T10:22:00Z</time>
      </trkpt>
      <trkpt lat="45.86596" lon="5.38711">
        <ele>206.2</ele>
        <time>2024-09-19T10:22:01Z</time>
      </trkpt>
      <trkpt lat="45.86593" lon="5.38719">
        <ele>206.2</ele>
        <time>2024-09-19T10:22:02Z</time>
      </trkpt>
      <trkpt lat="45.8659" lon="5.38727">
        <ele>206.2</ele>
        <time>2024-09-19T10:22:03Z</time>
      </trkpt>
      <trkpt lat="45.86588" lon="5.38735">
        <ele>206.2</ele>
        <time>2024-09-19T10:22:04Z</time>
      </trkpt>
      <trkpt lat="45.86585" lon="5.38743">
        <ele>206.2</ele>
        <time>2024-09-19T10:22:05Z</time>
      </trkpt>
      <trkpt lat="45.86581" lon="5.3875">
        <ele>206.2</ele>
        <time>2024-09-19T10:22:06Z</time>
      </trkpt>
      <trkpt lat="45.86578" lon="5.38757">
        <ele>206.2</ele>
        <time>2024-09-19T10:22:07Z</time>
      </trkpt>
      <trkpt lat="45.86574" lon="5.38765">
        <ele>206.2</ele>
        <time>2024-09-19T10:22:08Z</time>
      </trkpt>
      <trkpt lat="45.86571" lon="5.38772">
        <ele>206.2</ele>
        <time>2024-09-19T10:22:09Z</time>
      </trkpt>
      <trkpt lat="45.86568" lon="5.38779">
        <ele>206.2</ele>
        <time>2024-09-19T10:22:10Z</time>
      </trkpt>
      <trkpt lat="45.86565" lon="5.38786">
        <ele>206.2</ele>
        <time>2024-09-19T10:22:11Z</time>
      </trkpt>
      <trkpt lat="45.86561" lon="5.38792">
        <ele>206.2</ele>
        <time>2024-09-19T10:22:12Z</time>
      </trkpt>
      <trkpt lat="45.86557" lon="5.38799">
        <ele>206.2</ele>
        <time>2024-09-19T10:22:13Z</time>
      </trkpt>
      <trkpt lat="45.86553" lon="5.38807">
        <ele>206.2</ele>
        <time>2024-09-19T10:22:14Z</time>
      </trkpt>
      <trkpt lat="45.8655" lon="5.38814">
        <ele>206.2</ele>
        <time>2024-09-19T10:22:15Z</time>
      </trkpt>
      <trkpt lat="45.86546" lon="5.38822">
        <ele>206.2</ele>
        <time>2024-09-19T10:22:16Z</time>
      </trkpt>
      <trkpt lat="45.86543" lon="5.38829">
        <ele>206.2</ele>
        <time>2024-09-19T10:22:17Z</time>
      </trkpt>
      <trkpt lat="45.86539" lon="5.38837">
        <ele>206.2</ele>
        <time>2024-09-19T10:22:18Z</time>
      </trkpt>
      <trkpt lat="45.86535" lon="5.38845">
        <ele>206.4</ele>
        <time>2024-09-19T10:22:19Z</time>
      </trkpt>
      <trkpt lat="45.86533" lon="5.38853">
        <ele>206.4</ele>
        <time>2024-09-19T10:22:20Z</time>
      </trkpt>
      <trkpt lat="45.8653" lon="5.38861">
        <ele>206.8</ele>
        <time>2024-09-19T10:22:21Z</time>
      </trkpt>
      <trkpt lat="45.86527" lon="5.38869">
        <ele>206.8</ele>
        <time>2024-09-19T10:22:22Z</time>
      </trkpt>
      <trkpt lat="45.86525" lon="5.38878">
        <ele>206.8</ele>
        <time>2024-09-19T10:22:23Z</time>
      </trkpt>
      <trkpt lat="45.86524" lon="5.38886">
        <ele>206.6</ele>
        <time>2024-09-19T10:22:24Z</time>
      </trkpt>
      <trkpt lat="45.86522" lon="5.38895">
        <ele>206.6</ele>
        <time>2024-09-19T10:22:25Z</time>
      </trkpt>
      <trkpt lat="45.8652" lon="5.38903">
        <ele>206.6</ele>
        <time>2024-09-19T10:22:26Z</time>
      </trkpt>
      <trkpt lat="45.86518" lon="5.38912">
        <ele>206.6</ele>
        <time>2024-09-19T10:22:27Z</time>
      </trkpt>
      <trkpt lat="45.86516" lon="5.38921">
        <ele>206.6</ele>
        <time>2024-09-19T10:22:28Z</time>
      </trkpt>
      <trkpt lat="45.86514" lon="5.3893">
        <ele>206.6</ele>
        <time>2024-09-19T10:22:29Z</time>
      </trkpt>
      <trkpt lat="45.86512" lon="5.38938">
        <ele>206.6</ele>
        <time>2024-09-19T10:22:30Z</time>
      </trkpt>
      <trkpt lat="45.8651" lon="5.38947">
        <ele>206.6</ele>
        <time>2024-09-19T10:22:31Z</time>
      </trkpt>
      <trkpt lat="45.86507" lon="5.38955">
        <ele>206.8</ele>
        <time>2024-09-19T10:22:32Z</time>
      </trkpt>
      <trkpt lat="45.86505" lon="5.38963">
        <ele>206.8</ele>
        <time>2024-09-19T10:22:33Z</time>
      </trkpt>
      <trkpt lat="45.86502" lon="5.38971">
        <ele>206.8</ele>
        <time>2024-09-19T10:22:34Z</time>
      </trkpt>
      <trkpt lat="45.86499" lon="5.38979">
        <ele>206.8</ele>
        <time>2024-09-19T10:22:35Z</time>
      </trkpt>
      <trkpt lat="45.86496" lon="5.38986">
        <ele>206.8</ele>
        <time>2024-09-19T10:22:36Z</time>
      </trkpt>
      <trkpt lat="45.86492" lon="5.38994">
        <ele>206.8</ele>
        <time>2024-09-19T10:22:37Z</time>
      </trkpt>
      <trkpt lat="45.86488" lon="5.39001">
        <ele>206.8</ele>
        <time>2024-09-19T10:22:38Z</time>
      </trkpt>
      <trkpt lat="45.86484" lon="5.39007">
        <ele>206.8</ele>
        <time>2024-09-19T10:22:39Z</time>
      </trkpt>
      <trkpt lat="45.8648" lon="5.39013">
        <ele>206.8</ele>
        <time>2024-09-19T10:22:40Z</time>
      </trkpt>
      <trkpt lat="45.86476" lon="5.39019">
        <ele>206.8</ele>
        <time>2024-09-19T10:22:41Z</time>
      </trkpt>
      <trkpt lat="45.86472" lon="5.39025">
        <ele>206.8</ele>
        <time>2024-09-19T10:22:42Z</time>
      </trkpt>
      <trkpt lat="45.86467" lon="5.39031">
        <ele>206.8</ele>
        <time>2024-09-19T10:22:43Z</time>
      </trkpt>
      <trkpt lat="45.86463" lon="5.39037">
        <ele>206.8</ele>
        <time>2024-09-19T10:22:44Z</time>
      </trkpt>
      <trkpt lat="45.86458" lon="5.39042">
        <ele>206.8</ele>
        <time>2024-09-19T10:22:45Z</time>
      </trkpt>
      <trkpt lat="45.86454" lon="5.39048">
        <ele>207.2</ele>
        <time>2024-09-19T10:22:46Z</time>
      </trkpt>
      <trkpt lat="45.86449" lon="5.39053">
        <ele>207.2</ele>
        <time>2024-09-19T10:22:47Z</time>
      </trkpt>
      <trkpt lat="45.86445" lon="5.39059">
        <ele>207.2</ele>
        <time>2024-09-19T10:22:48Z</time>
      </trkpt>
      <trkpt lat="45.8644" lon="5.39064">
        <ele>207.2</ele>
        <time>2024-09-19T10:22:49Z</time>
      </trkpt>
      <trkpt lat="45.86436" lon="5.39069">
        <ele>207.2</ele>
        <time>2024-09-19T10:22:50Z</time>
      </trkpt>
      <trkpt lat="45.86432" lon="5.39075">
        <ele>207.4</ele>
        <time>2024-09-19T10:22:51Z</time>
      </trkpt>
      <trkpt lat="45.86428" lon="5.39081">
        <ele>207.4</ele>
        <time>2024-09-19T10:22:52Z</time>
      </trkpt>
      <trkpt lat="45.86424" lon="5.39087">
        <ele>207.4</ele>
        <time>2024-09-19T10:22:53Z</time>
      </trkpt>
      <trkpt lat="45.8642" lon="5.39093">
        <ele>207.6</ele>
        <time>2024-09-19T10:22:54Z</time>
      </trkpt>
      <trkpt lat="45.86416" lon="5.391">
        <ele>207.6</ele>
        <time>2024-09-19T10:22:55Z</time>
      </trkpt>
      <trkpt lat="45.86411" lon="5.39106">
        <ele>207.4</ele>
        <time>2024-09-19T10:22:56Z</time>
      </trkpt>
      <trkpt lat="45.86407" lon="5.39114">
        <ele>207.4</ele>
        <time>2024-09-19T10:22:57Z</time>
      </trkpt>
      <trkpt lat="45.86404" lon="5.39121">
        <ele>207.4</ele>
        <time>2024-09-19T10:22:58Z</time>
      </trkpt>
      <trkpt lat="45.864" lon="5.39128">
        <ele>207</ele>
        <time>2024-09-19T10:22:59Z</time>
      </trkpt>
      <trkpt lat="45.86397" lon="5.39136">
        <ele>207</ele>
        <time>2024-09-19T10:23:00Z</time>
      </trkpt>
      <trkpt lat="45.86394" lon="5.39143">
        <ele>206.8</ele>
        <time>2024-09-19T10:23:01Z</time>
      </trkpt>
      <trkpt lat="45.86391" lon="5.39151">
        <ele>206.8</ele>
        <time>2024-09-19T10:23:02Z</time>
      </trkpt>
      <trkpt lat="45.86387" lon="5.39159">
        <ele>206.8</ele>
        <time>2024-09-19T10:23:03Z</time>
      </trkpt>
      <trkpt lat="45.86384" lon="5.39166">
        <ele>206.8</ele>
        <time>2024-09-19T10:23:04Z</time>
      </trkpt>
      <trkpt lat="45.8638" lon="5.39172">
        <ele>206.8</ele>
        <time>2024-09-19T10:23:05Z</time>
      </trkpt>
      <trkpt lat="45.86377" lon="5.3918">
        <ele>206.8</ele>
        <time>2024-09-19T10:23:06Z</time>
      </trkpt>
      <trkpt lat="45.86374" lon="5.39187">
        <ele>206.8</ele>
        <time>2024-09-19T10:23:07Z</time>
      </trkpt>
      <trkpt lat="45.8637" lon="5.39194">
        <ele>207</ele>
        <time>2024-09-19T10:23:08Z</time>
      </trkpt>
      <trkpt lat="45.86366" lon="5.39201">
        <ele>207</ele>
        <time>2024-09-19T10:23:09Z</time>
      </trkpt>
      <trkpt lat="45.86362" lon="5.39208">
        <ele>207</ele>
        <time>2024-09-19T10:23:10Z</time>
      </trkpt>
      <trkpt lat="45.86358" lon="5.39215">
        <ele>207</ele>
        <time>2024-09-19T10:23:11Z</time>
      </trkpt>
      <trkpt lat="45.86354" lon="5.39222">
        <ele>207</ele>
        <time>2024-09-19T10:23:12Z</time>
      </trkpt>
      <trkpt lat="45.86351" lon="5.39229">
        <ele>207.2</ele>
        <time>2024-09-19T10:23:13Z</time>
      </trkpt>
      <trkpt lat="45.86347" lon="5.39236">
        <ele>207.2</ele>
        <time>2024-09-19T10:23:14Z</time>
      </trkpt>
      <trkpt lat="45.86344" lon="5.39243">
        <ele>207.2</ele>
        <time>2024-09-19T10:23:15Z</time>
      </trkpt>
      <trkpt lat="45.86341" lon="5.3925">
        <ele>207.2</ele>
        <time>2024-09-19T10:23:16Z</time>
      </trkpt>
      <trkpt lat="45.86338" lon="5.39258">
        <ele>207.2</ele>
        <time>2024-09-19T10:23:17Z</time>
      </trkpt>
      <trkpt lat="45.86334" lon="5.39265">
        <ele>207.6</ele>
        <time>2024-09-19T10:23:18Z</time>
      </trkpt>
      <trkpt lat="45.86331" lon="5.39272">
        <ele>207.6</ele>
        <time>2024-09-19T10:23:19Z</time>
      </trkpt>
      <trkpt lat="45.86328" lon="5.39279">
        <ele>207.6</ele>
        <time>2024-09-19T10:23:20Z</time>
      </trkpt>
      <trkpt lat="45.86325" lon="5.39287">
        <ele>207.6</ele>
        <time>2024-09-19T10:23:21Z</time>
      </trkpt>
      <trkpt lat="45.86322" lon="5.39294">
        <ele>207.2</ele>
        <time>2024-09-19T10:23:22Z</time>
      </trkpt>
      <trkpt lat="45.86318" lon="5.39302">
        <ele>207.2</ele>
        <time>2024-09-19T10:23:23Z</time>
      </trkpt>
      <trkpt lat="45.86315" lon="5.39309">
        <ele>207.2</ele>
        <time>2024-09-19T10:23:24Z</time>
      </trkpt>
      <trkpt lat="45.86312" lon="5.39317">
        <ele>207.2</ele>
        <time>2024-09-19T10:23:25Z</time>
      </trkpt>
      <trkpt lat="45.86309" lon="5.39325">
        <ele>207.2</ele>
        <time>2024-09-19T10:23:26Z</time>
      </trkpt>
      <trkpt lat="45.86307" lon="5.39332">
        <ele>207.2</ele>
        <time>2024-09-19T10:23:27Z</time>
      </trkpt>
      <trkpt lat="45.86304" lon="5.39341">
        <ele>207.2</ele>
        <time>2024-09-19T10:23:28Z</time>
      </trkpt>
      <trkpt lat="45.86301" lon="5.39349">
        <ele>207.2</ele>
        <time>2024-09-19T10:23:29Z</time>
      </trkpt>
      <trkpt lat="45.86299" lon="5.39356">
        <ele>207.2</ele>
        <time>2024-09-19T10:23:30Z</time>
      </trkpt>
      <trkpt lat="45.86296" lon="5.39364">
        <ele>207.2</ele>
        <time>2024-09-19T10:23:31Z</time>
      </trkpt>
      <trkpt lat="45.86294" lon="5.39372">
        <ele>207.2</ele>
        <time>2024-09-19T10:23:32Z</time>
      </trkpt>
      <trkpt lat="45.86291" lon="5.39379">
        <ele>207.2</ele>
        <time>2024-09-19T10:23:33Z</time>
      </trkpt>
      <trkpt lat="45.86289" lon="5.39386">
        <ele>207.2</ele>
        <time>2024-09-19T10:23:34Z</time>
      </trkpt>
      <trkpt lat="45.86286" lon="5.39394">
        <ele>207.2</ele>
        <time>2024-09-19T10:23:35Z</time>
      </trkpt>
      <trkpt lat="45.86284" lon="5.39401">
        <ele>207.2</ele>
        <time>2024-09-19T10:23:36Z</time>
      </trkpt>
      <trkpt lat="45.86282" lon="5.39409">
        <ele>207.2</ele>
        <time>2024-09-19T10:23:37Z</time>
      </trkpt>
      <trkpt lat="45.8628" lon="5.39416">
        <ele>207.2</ele>
        <time>2024-09-19T10:23:38Z</time>
      </trkpt>
      <trkpt lat="45.86278" lon="5.39424">
        <ele>207.2</ele>
        <time>2024-09-19T10:23:39Z</time>
      </trkpt>
      <trkpt lat="45.86276" lon="5.3943">
        <ele>207.6</ele>
        <time>2024-09-19T10:23:40Z</time>
      </trkpt>
      <trkpt lat="45.86274" lon="5.39438">
        <ele>207.6</ele>
        <time>2024-09-19T10:23:41Z</time>
      </trkpt>
      <trkpt lat="45.86271" lon="5.39445">
        <ele>207.6</ele>
        <time>2024-09-19T10:23:42Z</time>
      </trkpt>
      <trkpt lat="45.86268" lon="5.39452">
        <ele>207.6</ele>
        <time>2024-09-19T10:23:43Z</time>
      </trkpt>
      <trkpt lat="45.86265" lon="5.39459">
        <ele>207.6</ele>
        <time>2024-09-19T10:23:44Z</time>
      </trkpt>
      <trkpt lat="45.86262" lon="5.39466">
        <ele>207.6</ele>
        <time>2024-09-19T10:23:45Z</time>
      </trkpt>
      <trkpt lat="45.86258" lon="5.39473">
        <ele>207.6</ele>
        <time>2024-09-19T10:23:46Z</time>
      </trkpt>
      <trkpt lat="45.86255" lon="5.3948">
        <ele>207.4</ele>
        <time>2024-09-19T10:23:47Z</time>
      </trkpt>
      <trkpt lat="45.86252" lon="5.39488">
        <ele>207.4</ele>
        <time>2024-09-19T10:23:48Z</time>
      </trkpt>
      <trkpt lat="45.8625" lon="5.39495">
        <ele>207.4</ele>
        <time>2024-09-19T10:23:49Z</time>
      </trkpt>
      <trkpt lat="45.86247" lon="5.39501">
        <ele>207.4</ele>
        <time>2024-09-19T10:23:50Z</time>
      </trkpt>
      <trkpt lat="45.86244" lon="5.39509">
        <ele>207.4</ele>
        <time>2024-09-19T10:23:51Z</time>
      </trkpt>
      <trkpt lat="45.86242" lon="5.39516">
        <ele>207.4</ele>
        <time>2024-09-19T10:23:52Z</time>
      </trkpt>
      <trkpt lat="45.86239" lon="5.39523">
        <ele>207.4</ele>
        <time>2024-09-19T10:23:53Z</time>
      </trkpt>
      <trkpt lat="45.86236" lon="5.3953">
        <ele>207.4</ele>
        <time>2024-09-19T10:23:54Z</time>
      </trkpt>
      <trkpt lat="45.86233" lon="5.39537">
        <ele>206.6</ele>
        <time>2024-09-19T10:23:55Z</time>
      </trkpt>
      <trkpt lat="45.86231" lon="5.39544">
        <ele>207.2</ele>
        <time>2024-09-19T10:23:56Z</time>
      </trkpt>
      <trkpt lat="45.86229" lon="5.39551">
        <ele>207.4</ele>
        <time>2024-09-19T10:23:57Z</time>
      </trkpt>
      <trkpt lat="45.86226" lon="5.39558">
        <ele>207.4</ele>
        <time>2024-09-19T10:23:58Z</time>
      </trkpt>
      <trkpt lat="45.86225" lon="5.39565">
        <ele>207.4</ele>
        <time>2024-09-19T10:23:59Z</time>
      </trkpt>
      <trkpt lat="45.86224" lon="5.39571">
        <ele>207.4</ele>
        <time>2024-09-19T10:24:00Z</time>
      </trkpt>
      <trkpt lat="45.86222" lon="5.39578">
        <ele>207.4</ele>
        <time>2024-09-19T10:24:01Z</time>
      </trkpt>
      <trkpt lat="45.86221" lon="5.39586">
        <ele>207.4</ele>
        <time>2024-09-19T10:24:02Z</time>
      </trkpt>
      <trkpt lat="45.8622" lon="5.39592">
        <ele>207.4</ele>
        <time>2024-09-19T10:24:03Z</time>
      </trkpt>
      <trkpt lat="45.86218" lon="5.39599">
        <ele>207.4</ele>
        <time>2024-09-19T10:24:04Z</time>
      </trkpt>
      <trkpt lat="45.86215" lon="5.39605">
        <ele>207.2</ele>
        <time>2024-09-19T10:24:05Z</time>
      </trkpt>
      <trkpt lat="45.8621" lon="5.3961">
        <ele>207.2</ele>
        <time>2024-09-19T10:24:06Z</time>
      </trkpt>
      <trkpt lat="45.86206" lon="5.39615">
        <ele>207.4</ele>
        <time>2024-09-19T10:24:07Z</time>
      </trkpt>
      <trkpt lat="45.86202" lon="5.39621">
        <ele>207.4</ele>
        <time>2024-09-19T10:24:08Z</time>
      </trkpt>
      <trkpt lat="45.86198" lon="5.39628">
        <ele>207.4</ele>
        <time>2024-09-19T10:24:09Z</time>
      </trkpt>
      <trkpt lat="45.86196" lon="5.39634">
        <ele>207.4</ele>
        <time>2024-09-19T10:24:10Z</time>
      </trkpt>
      <trkpt lat="45.86193" lon="5.39641">
        <ele>207.4</ele>
        <time>2024-09-19T10:24:11Z</time>
      </trkpt>
      <trkpt lat="45.8619" lon="5.39648">
        <ele>207.4</ele>
        <time>2024-09-19T10:24:12Z</time>
      </trkpt>
      <trkpt lat="45.86187" lon="5.39655">
        <ele>207.4</ele>
        <time>2024-09-19T10:24:13Z</time>
      </trkpt>
      <trkpt lat="45.86184" lon="5.39663">
        <ele>207.4</ele>
        <time>2024-09-19T10:24:14Z</time>
      </trkpt>
      <trkpt lat="45.86182" lon="5.3967">
        <ele>207.4</ele>
        <time>2024-09-19T10:24:15Z</time>
      </trkpt>
      <trkpt lat="45.8618" lon="5.39678">
        <ele>207.4</ele>
        <time>2024-09-19T10:24:16Z</time>
      </trkpt>
      <trkpt lat="45.86177" lon="5.39685">
        <ele>207.4</ele>
        <time>2024-09-19T10:24:17Z</time>
      </trkpt>
      <trkpt lat="45.86174" lon="5.39693">
        <ele>207.4</ele>
        <time>2024-09-19T10:24:18Z</time>
      </trkpt>
      <trkpt lat="45.86172" lon="5.397">
        <ele>207.4</ele>
        <time>2024-09-19T10:24:19Z</time>
      </trkpt>
      <trkpt lat="45.86169" lon="5.39708">
        <ele>207.4</ele>
        <time>2024-09-19T10:24:20Z</time>
      </trkpt>
      <trkpt lat="45.86166" lon="5.39715">
        <ele>207.4</ele>
        <time>2024-09-19T10:24:21Z</time>
      </trkpt>
      <trkpt lat="45.86163" lon="5.39722">
        <ele>207.2</ele>
        <time>2024-09-19T10:24:22Z</time>
      </trkpt>
      <trkpt lat="45.8616" lon="5.3973">
        <ele>207.2</ele>
        <time>2024-09-19T10:24:23Z</time>
      </trkpt>
      <trkpt lat="45.86157" lon="5.39737">
        <ele>207.2</ele>
        <time>2024-09-19T10:24:24Z</time>
      </trkpt>
      <trkpt lat="45.86153" lon="5.39744">
        <ele>207.2</ele>
        <time>2024-09-19T10:24:25Z</time>
      </trkpt>
      <trkpt lat="45.8615" lon="5.39751">
        <ele>207.2</ele>
        <time>2024-09-19T10:24:26Z</time>
      </trkpt>
      <trkpt lat="45.86147" lon="5.39758">
        <ele>207.2</ele>
        <time>2024-09-19T10:24:27Z</time>
      </trkpt>
      <trkpt lat="45.86143" lon="5.39765">
        <ele>207.2</ele>
        <time>2024-09-19T10:24:28Z</time>
      </trkpt>
      <trkpt lat="45.8614" lon="5.39772">
        <ele>207</ele>
        <time>2024-09-19T10:24:29Z</time>
      </trkpt>
      <trkpt lat="45.86137" lon="5.3978">
        <ele>207</ele>
        <time>2024-09-19T10:24:30Z</time>
      </trkpt>
      <trkpt lat="45.86133" lon="5.39787">
        <ele>207</ele>
        <time>2024-09-19T10:24:31Z</time>
      </trkpt>
      <trkpt lat="45.86131" lon="5.39795">
        <ele>207</ele>
        <time>2024-09-19T10:24:32Z</time>
      </trkpt>
      <trkpt lat="45.86128" lon="5.39802">
        <ele>207</ele>
        <time>2024-09-19T10:24:33Z</time>
      </trkpt>
      <trkpt lat="45.86125" lon="5.39809">
        <ele>207</ele>
        <time>2024-09-19T10:24:34Z</time>
      </trkpt>
      <trkpt lat="45.86122" lon="5.39817">
        <ele>207</ele>
        <time>2024-09-19T10:24:35Z</time>
      </trkpt>
      <trkpt lat="45.86119" lon="5.39825">
        <ele>207</ele>
        <time>2024-09-19T10:24:36Z</time>
      </trkpt>
      <trkpt lat="45.86117" lon="5.39832">
        <ele>207.2</ele>
        <time>2024-09-19T10:24:37Z</time>
      </trkpt>
      <trkpt lat="45.86114" lon="5.39839">
        <ele>207.2</ele>
        <time>2024-09-19T10:24:38Z</time>
      </trkpt>
      <trkpt lat="45.86111" lon="5.39846">
        <ele>207.2</ele>
        <time>2024-09-19T10:24:39Z</time>
      </trkpt>
      <trkpt lat="45.86108" lon="5.39852">
        <ele>207.2</ele>
        <time>2024-09-19T10:24:40Z</time>
      </trkpt>
      <trkpt lat="45.86105" lon="5.39861">
        <ele>207</ele>
        <time>2024-09-19T10:24:41Z</time>
      </trkpt>
      <trkpt lat="45.86102" lon="5.39867">
        <ele>207</ele>
        <time>2024-09-19T10:24:42Z</time>
      </trkpt>
      <trkpt lat="45.86099" lon="5.39875">
        <ele>207</ele>
        <time>2024-09-19T10:24:43Z</time>
      </trkpt>
      <trkpt lat="45.86096" lon="5.39882">
        <ele>207</ele>
        <time>2024-09-19T10:24:44Z</time>
      </trkpt>
      <trkpt lat="45.86093" lon="5.39889">
        <ele>207</ele>
        <time>2024-09-19T10:24:45Z</time>
      </trkpt>
      <trkpt lat="45.8609" lon="5.39895">
        <ele>207</ele>
        <time>2024-09-19T10:24:46Z</time>
      </trkpt>
      <trkpt lat="45.86087" lon="5.39902">
        <ele>207</ele>
        <time>2024-09-19T10:24:47Z</time>
      </trkpt>
      <trkpt lat="45.86083" lon="5.3991">
        <ele>207</ele>
        <time>2024-09-19T10:24:48Z</time>
      </trkpt>
      <trkpt lat="45.8608" lon="5.39918">
        <ele>206.6</ele>
        <time>2024-09-19T10:24:49Z</time>
      </trkpt>
      <trkpt lat="45.86076" lon="5.39926">
        <ele>206.6</ele>
        <time>2024-09-19T10:24:50Z</time>
      </trkpt>
      <trkpt lat="45.86074" lon="5.39933">
        <ele>206.4</ele>
        <time>2024-09-19T10:24:51Z</time>
      </trkpt>
      <trkpt lat="45.86071" lon="5.39941">
        <ele>206.4</ele>
        <time>2024-09-19T10:24:52Z</time>
      </trkpt>
      <trkpt lat="45.86068" lon="5.39949">
        <ele>206.4</ele>
        <time>2024-09-19T10:24:53Z</time>
      </trkpt>
      <trkpt lat="45.86064" lon="5.39956">
        <ele>206.2</ele>
        <time>2024-09-19T10:24:54Z</time>
      </trkpt>
      <trkpt lat="45.86061" lon="5.39964">
        <ele>206.2</ele>
        <time>2024-09-19T10:24:55Z</time>
      </trkpt>
      <trkpt lat="45.86057" lon="5.39972">
        <ele>206</ele>
        <time>2024-09-19T10:24:56Z</time>
      </trkpt>
      <trkpt lat="45.86054" lon="5.3998">
        <ele>205.6</ele>
        <time>2024-09-19T10:24:57Z</time>
      </trkpt>
      <trkpt lat="45.86051" lon="5.39988">
        <ele>205.4</ele>
        <time>2024-09-19T10:24:58Z</time>
      </trkpt>
      <trkpt lat="45.86047" lon="5.39997">
        <ele>205.4</ele>
        <time>2024-09-19T10:24:59Z</time>
      </trkpt>
      <trkpt lat="45.86044" lon="5.40005">
        <ele>205</ele>
        <time>2024-09-19T10:25:00Z</time>
      </trkpt>
      <trkpt lat="45.8604" lon="5.40014">
        <ele>205</ele>
        <time>2024-09-19T10:25:01Z</time>
      </trkpt>
      <trkpt lat="45.86036" lon="5.40023">
        <ele>205</ele>
        <time>2024-09-19T10:25:02Z</time>
      </trkpt>
      <trkpt lat="45.86033" lon="5.40032">
        <ele>205</ele>
        <time>2024-09-19T10:25:03Z</time>
      </trkpt>
      <trkpt lat="45.86029" lon="5.4004">
        <ele>205</ele>
        <time>2024-09-19T10:25:04Z</time>
      </trkpt>
      <trkpt lat="45.86026" lon="5.40048">
        <ele>205</ele>
        <time>2024-09-19T10:25:05Z</time>
      </trkpt>
      <trkpt lat="45.86023" lon="5.40056">
        <ele>205</ele>
        <time>2024-09-19T10:25:06Z</time>
      </trkpt>
      <trkpt lat="45.86019" lon="5.40064">
        <ele>205</ele>
        <time>2024-09-19T10:25:07Z</time>
      </trkpt>
      <trkpt lat="45.86015" lon="5.40072">
        <ele>205</ele>
        <time>2024-09-19T10:25:08Z</time>
      </trkpt>
      <trkpt lat="45.86012" lon="5.40079">
        <ele>205.4</ele>
        <time>2024-09-19T10:25:09Z</time>
      </trkpt>
      <trkpt lat="45.86008" lon="5.40087">
        <ele>205.4</ele>
        <time>2024-09-19T10:25:10Z</time>
      </trkpt>
      <trkpt lat="45.86004" lon="5.40093">
        <ele>205.4</ele>
        <time>2024-09-19T10:25:11Z</time>
      </trkpt>
      <trkpt lat="45.86" lon="5.40101">
        <ele>205.8</ele>
        <time>2024-09-19T10:25:12Z</time>
      </trkpt>
      <trkpt lat="45.85996" lon="5.40108">
        <ele>205.8</ele>
        <time>2024-09-19T10:25:13Z</time>
      </trkpt>
      <trkpt lat="45.85992" lon="5.40115">
        <ele>205.8</ele>
        <time>2024-09-19T10:25:14Z</time>
      </trkpt>
      <trkpt lat="45.85989" lon="5.40121">
        <ele>205.8</ele>
        <time>2024-09-19T10:25:15Z</time>
      </trkpt>
      <trkpt lat="45.85985" lon="5.40127">
        <ele>205.8</ele>
        <time>2024-09-19T10:25:16Z</time>
      </trkpt>
      <trkpt lat="45.85981" lon="5.40133">
        <ele>205.8</ele>
        <time>2024-09-19T10:25:17Z</time>
      </trkpt>
      <trkpt lat="45.85977" lon="5.4014">
        <ele>205.8</ele>
        <time>2024-09-19T10:25:18Z</time>
      </trkpt>
      <trkpt lat="45.85973" lon="5.40145">
        <ele>205.8</ele>
        <time>2024-09-19T10:25:19Z</time>
      </trkpt>
      <trkpt lat="45.85973" lon="5.40145">
        <ele>205.8</ele>
        <time>2024-09-19T10:25:20Z</time>
      </trkpt>
      <trkpt lat="45.85969" lon="5.40151">
        <ele>206</ele>
        <time>2024-09-19T10:25:21Z</time>
      </trkpt>
      <trkpt lat="45.85966" lon="5.40157">
        <ele>206</ele>
        <time>2024-09-19T10:25:22Z</time>
      </trkpt>
      <trkpt lat="45.85962" lon="5.40164">
        <ele>206</ele>
        <time>2024-09-19T10:25:23Z</time>
      </trkpt>
      <trkpt lat="45.85958" lon="5.4017">
        <ele>206</ele>
        <time>2024-09-19T10:25:24Z</time>
      </trkpt>
      <trkpt lat="45.85954" lon="5.40176">
        <ele>206</ele>
        <time>2024-09-19T10:25:25Z</time>
      </trkpt>
      <trkpt lat="45.8595" lon="5.40181">
        <ele>206</ele>
        <time>2024-09-19T10:25:26Z</time>
      </trkpt>
      <trkpt lat="45.85946" lon="5.40187">
        <ele>206</ele>
        <time>2024-09-19T10:25:27Z</time>
      </trkpt>
      <trkpt lat="45.85941" lon="5.40193">
        <ele>206</ele>
        <time>2024-09-19T10:25:28Z</time>
      </trkpt>
      <trkpt lat="45.85938" lon="5.40198">
        <ele>206</ele>
        <time>2024-09-19T10:25:29Z</time>
      </trkpt>
      <trkpt lat="45.85934" lon="5.40204">
        <ele>206</ele>
        <time>2024-09-19T10:25:30Z</time>
      </trkpt>
      <trkpt lat="45.85926" lon="5.40216">
        <ele>206</ele>
        <time>2024-09-19T10:25:31Z</time>
      </trkpt>
      <trkpt lat="45.85922" lon="5.40222">
        <ele>206</ele>
        <time>2024-09-19T10:25:32Z</time>
      </trkpt>
      <trkpt lat="45.85918" lon="5.40228">
        <ele>206</ele>
        <time>2024-09-19T10:25:33Z</time>
      </trkpt>
      <trkpt lat="45.85914" lon="5.40233">
        <ele>206</ele>
        <time>2024-09-19T10:25:34Z</time>
      </trkpt>
      <trkpt lat="45.85909" lon="5.40239">
        <ele>206</ele>
        <time>2024-09-19T10:25:35Z</time>
      </trkpt>
      <trkpt lat="45.85905" lon="5.40245">
        <ele>206</ele>
        <time>2024-09-19T10:25:36Z</time>
      </trkpt>
      <trkpt lat="45.85901" lon="5.40251">
        <ele>206</ele>
        <time>2024-09-19T10:25:37Z</time>
      </trkpt>
      <trkpt lat="45.85897" lon="5.40256">
        <ele>205.6</ele>
        <time>2024-09-19T10:25:38Z</time>
      </trkpt>
      <trkpt lat="45.85893" lon="5.40262">
        <ele>205.6</ele>
        <time>2024-09-19T10:25:39Z</time>
      </trkpt>
      <trkpt lat="45.85888" lon="5.40268">
        <ele>205.6</ele>
        <time>2024-09-19T10:25:40Z</time>
      </trkpt>
      <trkpt lat="45.85884" lon="5.40274">
        <ele>205.6</ele>
        <time>2024-09-19T10:25:41Z</time>
      </trkpt>
      <trkpt lat="45.8588" lon="5.40279">
        <ele>205.6</ele>
        <time>2024-09-19T10:25:42Z</time>
      </trkpt>
      <trkpt lat="45.85876" lon="5.40285">
        <ele>205.6</ele>
        <time>2024-09-19T10:25:43Z</time>
      </trkpt>
      <trkpt lat="45.85873" lon="5.4029">
        <ele>205.6</ele>
        <time>2024-09-19T10:25:44Z</time>
      </trkpt>
      <trkpt lat="45.85869" lon="5.40296">
        <ele>205.6</ele>
        <time>2024-09-19T10:25:45Z</time>
      </trkpt>
      <trkpt lat="45.85865" lon="5.40302">
        <ele>205.6</ele>
        <time>2024-09-19T10:25:46Z</time>
      </trkpt>
      <trkpt lat="45.85861" lon="5.40308">
        <ele>205.6</ele>
        <time>2024-09-19T10:25:47Z</time>
      </trkpt>
      <trkpt lat="45.85857" lon="5.40314">
        <ele>205.6</ele>
        <time>2024-09-19T10:25:48Z</time>
      </trkpt>
      <trkpt lat="45.85853" lon="5.4032">
        <ele>205.6</ele>
        <time>2024-09-19T10:25:49Z</time>
      </trkpt>
      <trkpt lat="45.85849" lon="5.40325">
        <ele>205.2</ele>
        <time>2024-09-19T10:25:50Z</time>
      </trkpt>
      <trkpt lat="45.85845" lon="5.40331">
        <ele>205.2</ele>
        <time>2024-09-19T10:25:51Z</time>
      </trkpt>
      <trkpt lat="45.85841" lon="5.40336">
        <ele>205.2</ele>
        <time>2024-09-19T10:25:52Z</time>
      </trkpt>
      <trkpt lat="45.85838" lon="5.40342">
        <ele>205.4</ele>
        <time>2024-09-19T10:25:53Z</time>
      </trkpt>
      <trkpt lat="45.85834" lon="5.40347">
        <ele>205.4</ele>
        <time>2024-09-19T10:25:54Z</time>
      </trkpt>
      <trkpt lat="45.8583" lon="5.40353">
        <ele>205.4</ele>
        <time>2024-09-19T10:25:55Z</time>
      </trkpt>
      <trkpt lat="45.85826" lon="5.40359">
        <ele>205.4</ele>
        <time>2024-09-19T10:25:56Z</time>
      </trkpt>
      <trkpt lat="45.85822" lon="5.40365">
        <ele>205.4</ele>
        <time>2024-09-19T10:25:57Z</time>
      </trkpt>
      <trkpt lat="45.85818" lon="5.4037">
        <ele>205.2</ele>
        <time>2024-09-19T10:25:58Z</time>
      </trkpt>
      <trkpt lat="45.85815" lon="5.40375">
        <ele>204.8</ele>
        <time>2024-09-19T10:25:59Z</time>
      </trkpt>
      <trkpt lat="45.85811" lon="5.40381">
        <ele>205</ele>
        <time>2024-09-19T10:26:00Z</time>
      </trkpt>
      <trkpt lat="45.85807" lon="5.40386">
        <ele>205</ele>
        <time>2024-09-19T10:26:01Z</time>
      </trkpt>
      <trkpt lat="45.85804" lon="5.40391">
        <ele>205</ele>
        <time>2024-09-19T10:26:02Z</time>
      </trkpt>
      <trkpt lat="45.858" lon="5.40397">
        <ele>205</ele>
        <time>2024-09-19T10:26:03Z</time>
      </trkpt>
      <trkpt lat="45.85796" lon="5.40402">
        <ele>205</ele>
        <time>2024-09-19T10:26:04Z</time>
      </trkpt>
      <trkpt lat="45.85792" lon="5.40409">
        <ele>205</ele>
        <time>2024-09-19T10:26:05Z</time>
      </trkpt>
      <trkpt lat="45.85789" lon="5.40414">
        <ele>205</ele>
        <time>2024-09-19T10:26:06Z</time>
      </trkpt>
      <trkpt lat="45.85786" lon="5.40419">
        <ele>205.4</ele>
        <time>2024-09-19T10:26:07Z</time>
      </trkpt>
      <trkpt lat="45.85782" lon="5.40423">
        <ele>205.4</ele>
        <time>2024-09-19T10:26:08Z</time>
      </trkpt>
      <trkpt lat="45.85779" lon="5.40428">
        <ele>205.6</ele>
        <time>2024-09-19T10:26:09Z</time>
      </trkpt>
      <trkpt lat="45.85776" lon="5.40433">
        <ele>205.6</ele>
        <time>2024-09-19T10:26:10Z</time>
      </trkpt>
      <trkpt lat="45.85773" lon="5.40439">
        <ele>205.6</ele>
        <time>2024-09-19T10:26:11Z</time>
      </trkpt>
      <trkpt lat="45.85769" lon="5.40444">
        <ele>205.6</ele>
        <time>2024-09-19T10:26:12Z</time>
      </trkpt>
      <trkpt lat="45.85765" lon="5.40449">
        <ele>205.2</ele>
        <time>2024-09-19T10:26:13Z</time>
      </trkpt>
      <trkpt lat="45.85762" lon="5.40454">
        <ele>205.2</ele>
        <time>2024-09-19T10:26:14Z</time>
      </trkpt>
      <trkpt lat="45.85758" lon="5.40459">
        <ele>205.2</ele>
        <time>2024-09-19T10:26:15Z</time>
      </trkpt>
      <trkpt lat="45.85754" lon="5.40464">
        <ele>205.2</ele>
        <time>2024-09-19T10:26:16Z</time>
      </trkpt>
      <trkpt lat="45.8575" lon="5.40469">
        <ele>205.2</ele>
        <time>2024-09-19T10:26:17Z</time>
      </trkpt>
      <trkpt lat="45.85747" lon="5.40475">
        <ele>205.2</ele>
        <time>2024-09-19T10:26:18Z</time>
      </trkpt>
      <trkpt lat="45.85743" lon="5.4048">
        <ele>205.2</ele>
        <time>2024-09-19T10:26:19Z</time>
      </trkpt>
      <trkpt lat="45.85739" lon="5.40485">
        <ele>205.2</ele>
        <time>2024-09-19T10:26:20Z</time>
      </trkpt>
      <trkpt lat="45.85736" lon="5.4049">
        <ele>205.2</ele>
        <time>2024-09-19T10:26:21Z</time>
      </trkpt>
      <trkpt lat="45.85732" lon="5.40495">
        <ele>205.2</ele>
        <time>2024-09-19T10:26:22Z</time>
      </trkpt>
      <trkpt lat="45.85729" lon="5.405">
        <ele>205.2</ele>
        <time>2024-09-19T10:26:23Z</time>
      </trkpt>
      <trkpt lat="45.85725" lon="5.40504">
        <ele>205.2</ele>
        <time>2024-09-19T10:26:24Z</time>
      </trkpt>
      <trkpt lat="45.85722" lon="5.40509">
        <ele>205.4</ele>
        <time>2024-09-19T10:26:25Z</time>
      </trkpt>
      <trkpt lat="45.85719" lon="5.40515">
        <ele>205.4</ele>
        <time>2024-09-19T10:26:26Z</time>
      </trkpt>
      <trkpt lat="45.85715" lon="5.4052">
        <ele>205.4</ele>
        <time>2024-09-19T10:26:27Z</time>
      </trkpt>
      <trkpt lat="45.85712" lon="5.40525">
        <ele>205.8</ele>
        <time>2024-09-19T10:26:28Z</time>
      </trkpt>
      <trkpt lat="45.85708" lon="5.40529">
        <ele>205.8</ele>
        <time>2024-09-19T10:26:29Z</time>
      </trkpt>
      <trkpt lat="45.85705" lon="5.40534">
        <ele>206</ele>
        <time>2024-09-19T10:26:30Z</time>
      </trkpt>
      <trkpt lat="45.85701" lon="5.40539">
        <ele>206</ele>
        <time>2024-09-19T10:26:31Z</time>
      </trkpt>
      <trkpt lat="45.85698" lon="5.40544">
        <ele>206</ele>
        <time>2024-09-19T10:26:32Z</time>
      </trkpt>
      <trkpt lat="45.85695" lon="5.40549">
        <ele>206</ele>
        <time>2024-09-19T10:26:33Z</time>
      </trkpt>
      <trkpt lat="45.85693" lon="5.40553">
        <ele>206</ele>
        <time>2024-09-19T10:26:34Z</time>
      </trkpt>
      <trkpt lat="45.8569" lon="5.40558">
        <ele>206.4</ele>
        <time>2024-09-19T10:26:35Z</time>
      </trkpt>
      <trkpt lat="45.85687" lon="5.40562">
        <ele>206.4</ele>
        <time>2024-09-19T10:26:36Z</time>
      </trkpt>
      <trkpt lat="45.85685" lon="5.40566">
        <ele>206.6</ele>
        <time>2024-09-19T10:26:37Z</time>
      </trkpt>
      <trkpt lat="45.85681" lon="5.4057">
        <ele>206.6</ele>
        <time>2024-09-19T10:26:38Z</time>
      </trkpt>
      <trkpt lat="45.85679" lon="5.40573">
        <ele>206.6</ele>
        <time>2024-09-19T10:26:39Z</time>
      </trkpt>
      <trkpt lat="45.85677" lon="5.40576">
        <ele>206.6</ele>
        <time>2024-09-19T10:26:40Z</time>
      </trkpt>
      <trkpt lat="45.85674" lon="5.40579">
        <ele>206.6</ele>
        <time>2024-09-19T10:26:41Z</time>
      </trkpt>
      <trkpt lat="45.85671" lon="5.40583">
        <ele>206.8</ele>
        <time>2024-09-19T10:26:42Z</time>
      </trkpt>
      <trkpt lat="45.85669" lon="5.40587">
        <ele>207</ele>
        <time>2024-09-19T10:26:43Z</time>
      </trkpt>
      <trkpt lat="45.85666" lon="5.4059">
        <ele>207</ele>
        <time>2024-09-19T10:26:44Z</time>
      </trkpt>
      <trkpt lat="45.85664" lon="5.40593">
        <ele>207</ele>
        <time>2024-09-19T10:26:45Z</time>
      </trkpt>
      <trkpt lat="45.85662" lon="5.40598">
        <ele>206.8</ele>
        <time>2024-09-19T10:26:46Z</time>
      </trkpt>
      <trkpt lat="45.85662" lon="5.40603">
        <ele>206.8</ele>
        <time>2024-09-19T10:26:47Z</time>
      </trkpt>
      <trkpt lat="45.85662" lon="5.40606">
        <ele>206.8</ele>
        <time>2024-09-19T10:26:48Z</time>
      </trkpt>
      <trkpt lat="45.85663" lon="5.40607">
        <ele>207.2</ele>
        <time>2024-09-19T10:26:49Z</time>
      </trkpt>
      <trkpt lat="45.85663" lon="5.40608">
        <ele>207.4</ele>
        <time>2024-09-19T10:26:50Z</time>
      </trkpt>
      <trkpt lat="45.85664" lon="5.40608">
        <ele>207.4</ele>
        <time>2024-09-19T10:26:51Z</time>
      </trkpt>
      <trkpt lat="45.85665" lon="5.40609">
        <ele>207.8</ele>
        <time>2024-09-19T10:26:52Z</time>
      </trkpt>
      <trkpt lat="45.85666" lon="5.4061">
        <ele>207.8</ele>
        <time>2024-09-19T10:26:53Z</time>
      </trkpt>
      <trkpt lat="45.85667" lon="5.4061">
        <ele>208.2</ele>
        <time>2024-09-19T10:26:54Z</time>
      </trkpt>
      <trkpt lat="45.85668" lon="5.4061">
        <ele>208.2</ele>
        <time>2024-09-19T10:26:55Z</time>
      </trkpt>
      <trkpt lat="45.85669" lon="5.40609">
        <ele>208.2</ele>
        <time>2024-09-19T10:26:56Z</time>
      </trkpt>
      <trkpt lat="45.8567" lon="5.40609">
        <ele>208.4</ele>
        <time>2024-09-19T10:26:57Z</time>
      </trkpt>
      <trkpt lat="45.85671" lon="5.4061">
        <ele>208.4</ele>
        <time>2024-09-19T10:26:58Z</time>
      </trkpt>
      <trkpt lat="45.85671" lon="5.40612">
        <ele>208.4</ele>
        <time>2024-09-19T10:26:59Z</time>
      </trkpt>
      <trkpt lat="45.85671" lon="5.40614">
        <ele>208.2</ele>
        <time>2024-09-19T10:27:00Z</time>
      </trkpt>
      <trkpt lat="45.85671" lon="5.40616">
        <ele>208.2</ele>
        <time>2024-09-19T10:27:01Z</time>
      </trkpt>
      <trkpt lat="45.85671" lon="5.40617">
        <ele>208.2</ele>
        <time>2024-09-19T10:27:02Z</time>
      </trkpt>
      <trkpt lat="45.85672" lon="5.40619">
        <ele>208.4</ele>
        <time>2024-09-19T10:27:03Z</time>
      </trkpt>
      <trkpt lat="45.85672" lon="5.40621">
        <ele>208.4</ele>
        <time>2024-09-19T10:27:04Z</time>
      </trkpt>
      <trkpt lat="45.85672" lon="5.40622">
        <ele>208.4</ele>
        <time>2024-09-19T10:27:05Z</time>
      </trkpt>
      <trkpt lat="45.85672" lon="5.40625">
        <ele>208.4</ele>
        <time>2024-09-19T10:27:06Z</time>
      </trkpt>
      <trkpt lat="45.85671" lon="5.40626">
        <ele>208.6</ele>
        <time>2024-09-19T10:27:07Z</time>
      </trkpt>
      <trkpt lat="45.85671" lon="5.40627">
        <ele>208.6</ele>
        <time>2024-09-19T10:27:08Z</time>
      </trkpt>
      <trkpt lat="45.85671" lon="5.40627">
        <ele>208.6</ele>
        <time>2024-09-19T10:27:09Z</time>
      </trkpt>
      <trkpt lat="45.85671" lon="5.40627">
        <ele>209</ele>
        <time>2024-09-19T10:27:10Z</time>
      </trkpt>
      <trkpt lat="45.8567" lon="5.40627">
        <ele>209</ele>
        <time>2024-09-19T10:27:11Z</time>
      </trkpt>
      <trkpt lat="45.85671" lon="5.40631">
        <ele>210</ele>
        <time>2024-09-19T10:30:12Z</time>
      </trkpt>
      <trkpt lat="45.85672" lon="5.4063">
        <ele>210</ele>
        <time>2024-09-19T10:30:13Z</time>
      </trkpt>
      <trkpt lat="45.85672" lon="5.4063">
        <ele>210</ele>
        <time>2024-09-19T10:30:14Z</time>
      </trkpt>
      <trkpt lat="45.85672" lon="5.40629">
        <ele>210</ele>
        <time>2024-09-19T10:30:15Z</time>
      </trkpt>
      <trkpt lat="45.85673" lon="5.40626">
        <ele>209.2</ele>
        <time>2024-09-19T10:30:18Z</time>
      </trkpt>
      <trkpt lat="45.85674" lon="5.40624">
        <ele>209.2</ele>
        <time>2024-09-19T10:30:19Z</time>
      </trkpt>
      <trkpt lat="45.85674" lon="5.4062">
        <ele>209.2</ele>
        <time>2024-09-19T10:30:20Z</time>
      </trkpt>
      <trkpt lat="45.85674" lon="5.40616">
        <ele>209</ele>
        <time>2024-09-19T10:30:21Z</time>
      </trkpt>
      <trkpt lat="45.85674" lon="5.40613">
        <ele>209</ele>
        <time>2024-09-19T10:30:22Z</time>
      </trkpt>
      <trkpt lat="45.85664" lon="5.40602">
        <ele>208.6</ele>
        <time>2024-09-19T10:31:18Z</time>
      </trkpt>
      <trkpt lat="45.85663" lon="5.40603">
        <ele>208.6</ele>
        <time>2024-09-19T10:31:19Z</time>
      </trkpt>
      <trkpt lat="45.85661" lon="5.40601">
        <ele>208.2</ele>
        <time>2024-09-19T10:31:24Z</time>
      </trkpt>
      <trkpt lat="45.8566" lon="5.40601">
        <ele>208</ele>
        <time>2024-09-19T10:31:25Z</time>
      </trkpt>
      <trkpt lat="45.85658" lon="5.40602">
        <ele>208</ele>
        <time>2024-09-19T10:31:26Z</time>
      </trkpt>
      <trkpt lat="45.85657" lon="5.40603">
        <ele>207.6</ele>
        <time>2024-09-19T10:31:27Z</time>
      </trkpt>
      <trkpt lat="45.85656" lon="5.40604">
        <ele>207.6</ele>
        <time>2024-09-19T10:31:28Z</time>
      </trkpt>
      <trkpt lat="45.85655" lon="5.40605">
        <ele>207.6</ele>
        <time>2024-09-19T10:31:29Z</time>
      </trkpt>
      <trkpt lat="45.85654" lon="5.40606">
        <ele>207.6</ele>
        <time>2024-09-19T10:31:30Z</time>
      </trkpt>
      <trkpt lat="45.85654" lon="5.40607">
        <ele>207.4</ele>
        <time>2024-09-19T10:31:31Z</time>
      </trkpt>
      <trkpt lat="45.85654" lon="5.40607">
        <ele>207.4</ele>
        <time>2024-09-19T10:31:32Z</time>
      </trkpt>
      <trkpt lat="45.85654" lon="5.40607">
        <ele>207.4</ele>
        <time>2024-09-19T10:31:33Z</time>
      </trkpt>
      <trkpt lat="45.85653" lon="5.4061">
        <ele>207.4</ele>
        <time>2024-09-19T10:32:19Z</time>
      </trkpt>
      <trkpt lat="45.85653" lon="5.40612">
        <ele>207.4</ele>
        <time>2024-09-19T10:32:20Z</time>
      </trkpt>
      <trkpt lat="45.85652" lon="5.40615">
        <ele>207.2</ele>
        <time>2024-09-19T10:32:21Z</time>
      </trkpt>
      <trkpt lat="45.8565" lon="5.40617">
        <ele>206.8</ele>
        <time>2024-09-19T10:32:22Z</time>
      </trkpt>
      <trkpt lat="45.85648" lon="5.4062">
        <ele>206.8</ele>
        <time>2024-09-19T10:32:23Z</time>
      </trkpt>
      <trkpt lat="45.85646" lon="5.40622">
        <ele>206.8</ele>
        <time>2024-09-19T10:32:24Z</time>
      </trkpt>
      <trkpt lat="45.85644" lon="5.40624">
        <ele>206.8</ele>
        <time>2024-09-19T10:32:25Z</time>
      </trkpt>
      <trkpt lat="45.85643" lon="5.40626">
        <ele>206.6</ele>
        <time>2024-09-19T10:32:26Z</time>
      </trkpt>
      <trkpt lat="45.85641" lon="5.40628">
        <ele>206.6</ele>
        <time>2024-09-19T10:32:27Z</time>
      </trkpt>
      <trkpt lat="45.8564" lon="5.40631">
        <ele>206.6</ele>
        <time>2024-09-19T10:32:28Z</time>
      </trkpt>
      <trkpt lat="45.85638" lon="5.40633">
        <ele>206.6</ele>
        <time>2024-09-19T10:32:29Z</time>
      </trkpt>
      <trkpt lat="45.85636" lon="5.40636">
        <ele>207</ele>
        <time>2024-09-19T10:32:30Z</time>
      </trkpt>
      <trkpt lat="45.85634" lon="5.40638">
        <ele>207</ele>
        <time>2024-09-19T10:32:31Z</time>
      </trkpt>
      <trkpt lat="45.85632" lon="5.40641">
        <ele>207</ele>
        <time>2024-09-19T10:32:32Z</time>
      </trkpt>
      <trkpt lat="45.8563" lon="5.40644">
        <ele>207.2</ele>
        <time>2024-09-19T10:32:33Z</time>
      </trkpt>
      <trkpt lat="45.85628" lon="5.40646">
        <ele>207.2</ele>
        <time>2024-09-19T10:32:34Z</time>
      </trkpt>
      <trkpt lat="45.85626" lon="5.40649">
        <ele>207.2</ele>
        <time>2024-09-19T10:32:35Z</time>
      </trkpt>
      <trkpt lat="45.85624" lon="5.40652">
        <ele>207.2</ele>
        <time>2024-09-19T10:32:36Z</time>
      </trkpt>
      <trkpt lat="45.85622" lon="5.40655">
        <ele>207.2</ele>
        <time>2024-09-19T10:32:37Z</time>
      </trkpt>
      <trkpt lat="45.8562" lon="5.40658">
        <ele>207.2</ele>
        <time>2024-09-19T10:32:38Z</time>
      </trkpt>
      <trkpt lat="45.85618" lon="5.40661">
        <ele>207</ele>
        <time>2024-09-19T10:32:39Z</time>
      </trkpt>
      <trkpt lat="45.85616" lon="5.40664">
        <ele>207</ele>
        <time>2024-09-19T10:32:40Z</time>
      </trkpt>
      <trkpt lat="45.85614" lon="5.40667">
        <ele>207</ele>
        <time>2024-09-19T10:32:41Z</time>
      </trkpt>
      <trkpt lat="45.85612" lon="5.40671">
        <ele>207</ele>
        <time>2024-09-19T10:32:42Z</time>
      </trkpt>
      <trkpt lat="45.85609" lon="5.40674">
        <ele>207</ele>
        <time>2024-09-19T10:32:43Z</time>
      </trkpt>
      <trkpt lat="45.85607" lon="5.40678">
        <ele>207</ele>
        <time>2024-09-19T10:32:44Z</time>
      </trkpt>
      <trkpt lat="45.85605" lon="5.40682">
        <ele>207</ele>
        <time>2024-09-19T10:32:45Z</time>
      </trkpt>
      <trkpt lat="45.85603" lon="5.40685">
        <ele>207</ele>
        <time>2024-09-19T10:32:46Z</time>
      </trkpt>
      <trkpt lat="45.856" lon="5.40689">
        <ele>207</ele>
        <time>2024-09-19T10:32:47Z</time>
      </trkpt>
      <trkpt lat="45.85597" lon="5.40691">
        <ele>207</ele>
        <time>2024-09-19T10:32:48Z</time>
      </trkpt>
      <trkpt lat="45.85595" lon="5.40694">
        <ele>207</ele>
        <time>2024-09-19T10:32:49Z</time>
      </trkpt>
      <trkpt lat="45.85592" lon="5.40697">
        <ele>207</ele>
        <time>2024-09-19T10:32:50Z</time>
      </trkpt>
      <trkpt lat="45.8559" lon="5.40699">
        <ele>207</ele>
        <time>2024-09-19T10:32:51Z</time>
      </trkpt>
      <trkpt lat="45.85588" lon="5.40703">
        <ele>207</ele>
        <time>2024-09-19T10:32:52Z</time>
      </trkpt>
      <trkpt lat="45.85586" lon="5.40705">
        <ele>206.8</ele>
        <time>2024-09-19T10:32:53Z</time>
      </trkpt>
      <trkpt lat="45.85584" lon="5.40708">
        <ele>206.8</ele>
        <time>2024-09-19T10:32:54Z</time>
      </trkpt>
      <trkpt lat="45.85582" lon="5.4071">
        <ele>206.8</ele>
        <time>2024-09-19T10:32:55Z</time>
      </trkpt>
      <trkpt lat="45.8558" lon="5.40713">
        <ele>206.8</ele>
        <time>2024-09-19T10:32:56Z</time>
      </trkpt>
      <trkpt lat="45.85578" lon="5.40715">
        <ele>206.8</ele>
        <time>2024-09-19T10:32:57Z</time>
      </trkpt>
      <trkpt lat="45.85576" lon="5.40719">
        <ele>207</ele>
        <time>2024-09-19T10:32:58Z</time>
      </trkpt>
      <trkpt lat="45.85574" lon="5.40722">
        <ele>207</ele>
        <time>2024-09-19T10:32:59Z</time>
      </trkpt>
      <trkpt lat="45.85574" lon="5.40722">
        <ele>207</ele>
        <time>2024-09-19T10:33:00Z</time>
      </trkpt>
      <trkpt lat="45.85574" lon="5.40722">
        <ele>206.8</ele>
        <time>2024-09-19T10:33:01Z</time>
      </trkpt>
      <trkpt lat="45.85568" lon="5.40734">
        <ele>206.8</ele>
        <time>2024-09-19T10:33:02Z</time>
      </trkpt>
      <trkpt lat="45.85565" lon="5.40737">
        <ele>206.8</ele>
        <time>2024-09-19T10:33:03Z</time>
      </trkpt>
      <trkpt lat="45.85563" lon="5.4074">
        <ele>206.8</ele>
        <time>2024-09-19T10:33:04Z</time>
      </trkpt>
      <trkpt lat="45.8556" lon="5.40743">
        <ele>206.8</ele>
        <time>2024-09-19T10:33:05Z</time>
      </trkpt>
      <trkpt lat="45.85556" lon="5.40746">
        <ele>206.8</ele>
        <time>2024-09-19T10:33:06Z</time>
      </trkpt>
      <trkpt lat="45.85554" lon="5.40749">
        <ele>206.8</ele>
        <time>2024-09-19T10:33:07Z</time>
      </trkpt>
      <trkpt lat="45.85551" lon="5.40753">
        <ele>206.2</ele>
        <time>2024-09-19T10:33:08Z</time>
      </trkpt>
      <trkpt lat="45.85548" lon="5.40757">
        <ele>206.8</ele>
        <time>2024-09-19T10:33:09Z</time>
      </trkpt>
      <trkpt lat="45.85546" lon="5.40761">
        <ele>206.8</ele>
        <time>2024-09-19T10:33:10Z</time>
      </trkpt>
      <trkpt lat="45.85543" lon="5.40765">
        <ele>206.8</ele>
        <time>2024-09-19T10:33:11Z</time>
      </trkpt>
      <trkpt lat="45.8554" lon="5.40769">
        <ele>206.8</ele>
        <time>2024-09-19T10:33:12Z</time>
      </trkpt>
      <trkpt lat="45.85537" lon="5.40772">
        <ele>206.6</ele>
        <time>2024-09-19T10:33:13Z</time>
      </trkpt>
      <trkpt lat="45.85533" lon="5.40775">
        <ele>206.6</ele>
        <time>2024-09-19T10:33:14Z</time>
      </trkpt>
      <trkpt lat="45.8553" lon="5.40779">
        <ele>206.6</ele>
        <time>2024-09-19T10:33:15Z</time>
      </trkpt>
      <trkpt lat="45.85527" lon="5.40783">
        <ele>206.6</ele>
        <time>2024-09-19T10:33:16Z</time>
      </trkpt>
      <trkpt lat="45.85524" lon="5.40786">
        <ele>206.6</ele>
        <time>2024-09-19T10:33:17Z</time>
      </trkpt>
      <trkpt lat="45.85521" lon="5.4079">
        <ele>206.6</ele>
        <time>2024-09-19T10:33:18Z</time>
      </trkpt>
      <trkpt lat="45.85518" lon="5.40793">
        <ele>206.6</ele>
        <time>2024-09-19T10:33:19Z</time>
      </trkpt>
      <trkpt lat="45.85515" lon="5.40797">
        <ele>206.6</ele>
        <time>2024-09-19T10:33:20Z</time>
      </trkpt>
      <trkpt lat="45.85511" lon="5.408">
        <ele>206.6</ele>
        <time>2024-09-19T10:33:21Z</time>
      </trkpt>
      <trkpt lat="45.85508" lon="5.40803">
        <ele>206.6</ele>
        <time>2024-09-19T10:33:22Z</time>
      </trkpt>
      <trkpt lat="45.85505" lon="5.40806">
        <ele>206.6</ele>
        <time>2024-09-19T10:33:23Z</time>
      </trkpt>
      <trkpt lat="45.85501" lon="5.40809">
        <ele>206.6</ele>
        <time>2024-09-19T10:33:24Z</time>
      </trkpt>
      <trkpt lat="45.85498" lon="5.40813">
        <ele>206.6</ele>
        <time>2024-09-19T10:33:25Z</time>
      </trkpt>
      <trkpt lat="45.85496" lon="5.40816">
        <ele>207</ele>
        <time>2024-09-19T10:33:26Z</time>
      </trkpt>
      <trkpt lat="45.85493" lon="5.4082">
        <ele>207</ele>
        <time>2024-09-19T10:33:27Z</time>
      </trkpt>
      <trkpt lat="45.85491" lon="5.40824">
        <ele>207.2</ele>
        <time>2024-09-19T10:33:28Z</time>
      </trkpt>
      <trkpt lat="45.85488" lon="5.40828">
        <ele>207.2</ele>
        <time>2024-09-19T10:33:29Z</time>
      </trkpt>
      <trkpt lat="45.85485" lon="5.40832">
        <ele>207.2</ele>
        <time>2024-09-19T10:33:30Z</time>
      </trkpt>
      <trkpt lat="45.85482" lon="5.40835">
        <ele>207.4</ele>
        <time>2024-09-19T10:33:31Z</time>
      </trkpt>
      <trkpt lat="45.85479" lon="5.40839">
        <ele>207.4</ele>
        <time>2024-09-19T10:33:32Z</time>
      </trkpt>
      <trkpt lat="45.85476" lon="5.40842">
        <ele>207.4</ele>
        <time>2024-09-19T10:33:33Z</time>
      </trkpt>
      <trkpt lat="45.85472" lon="5.40845">
        <ele>207.4</ele>
        <time>2024-09-19T10:33:34Z</time>
      </trkpt>
      <trkpt lat="45.85469" lon="5.40848">
        <ele>207.4</ele>
        <time>2024-09-19T10:33:35Z</time>
      </trkpt>
      <trkpt lat="45.85466" lon="5.4085">
        <ele>207.2</ele>
        <time>2024-09-19T10:33:36Z</time>
      </trkpt>
      <trkpt lat="45.85462" lon="5.40853">
        <ele>207.2</ele>
        <time>2024-09-19T10:33:37Z</time>
      </trkpt>
      <trkpt lat="45.85459" lon="5.40855">
        <ele>207.2</ele>
        <time>2024-09-19T10:33:38Z</time>
      </trkpt>
      <trkpt lat="45.85456" lon="5.40857">
        <ele>207.2</ele>
        <time>2024-09-19T10:33:39Z</time>
      </trkpt>
      <trkpt lat="45.85452" lon="5.40859">
        <ele>207.2</ele>
        <time>2024-09-19T10:33:40Z</time>
      </trkpt>
      <trkpt lat="45.85449" lon="5.40861">
        <ele>207.2</ele>
        <time>2024-09-19T10:33:41Z</time>
      </trkpt>
      <trkpt lat="45.85445" lon="5.40864">
        <ele>207.2</ele>
        <time>2024-09-19T10:33:42Z</time>
      </trkpt>
      <trkpt lat="45.85442" lon="5.40866">
        <ele>207.2</ele>
        <time>2024-09-19T10:33:43Z</time>
      </trkpt>
      <trkpt lat="45.85439" lon="5.40869">
        <ele>207.2</ele>
        <time>2024-09-19T10:33:44Z</time>
      </trkpt>
      <trkpt lat="45.85437" lon="5.40872">
        <ele>207.2</ele>
        <time>2024-09-19T10:33:45Z</time>
      </trkpt>
      <trkpt lat="45.85435" lon="5.40876">
        <ele>207.2</ele>
        <time>2024-09-19T10:33:46Z</time>
      </trkpt>
      <trkpt lat="45.85433" lon="5.4088">
        <ele>207.6</ele>
        <time>2024-09-19T10:33:47Z</time>
      </trkpt>
      <trkpt lat="45.85433" lon="5.40884">
        <ele>207.6</ele>
        <time>2024-09-19T10:33:48Z</time>
      </trkpt>
      <trkpt lat="45.85434" lon="5.40888">
        <ele>207.6</ele>
        <time>2024-09-19T10:33:49Z</time>
      </trkpt>
      <trkpt lat="45.85435" lon="5.40891">
        <ele>207.6</ele>
        <time>2024-09-19T10:33:50Z</time>
      </trkpt>
      <trkpt lat="45.85438" lon="5.40894">
        <ele>207.8</ele>
        <time>2024-09-19T10:33:51Z</time>
      </trkpt>
      <trkpt lat="45.8544" lon="5.40896">
        <ele>207.8</ele>
        <time>2024-09-19T10:33:52Z</time>
      </trkpt>
      <trkpt lat="45.85442" lon="5.40898">
        <ele>208.4</ele>
        <time>2024-09-19T10:33:53Z</time>
      </trkpt>
      <trkpt lat="45.85443" lon="5.409">
        <ele>208.4</ele>
        <time>2024-09-19T10:33:54Z</time>
      </trkpt>
      <trkpt lat="45.85445" lon="5.40901">
        <ele>208.6</ele>
        <time>2024-09-19T10:33:55Z</time>
      </trkpt>
      <trkpt lat="45.85447" lon="5.40903">
        <ele>209</ele>
        <time>2024-09-19T10:33:56Z</time>
      </trkpt>
      <trkpt lat="45.85449" lon="5.40904">
        <ele>209.2</ele>
        <time>2024-09-19T10:33:57Z</time>
      </trkpt>
      <trkpt lat="45.85451" lon="5.40906">
        <ele>209.6</ele>
        <time>2024-09-19T10:33:58Z</time>
      </trkpt>
      <trkpt lat="45.85453" lon="5.40909">
        <ele>209.8</ele>
        <time>2024-09-19T10:33:59Z</time>
      </trkpt>
      <trkpt lat="45.85454" lon="5.40911">
        <ele>210</ele>
        <time>2024-09-19T10:34:00Z</time>
      </trkpt>
      <trkpt lat="45.85455" lon="5.40912">
        <ele>210</ele>
        <time>2024-09-19T10:34:01Z</time>
      </trkpt>
      <trkpt lat="45.85455" lon="5.40912">
        <ele>210.6</ele>
        <time>2024-09-19T10:34:02Z</time>
      </trkpt>
      <trkpt lat="45.85456" lon="5.4091">
        <ele>210.6</ele>
        <time>2024-09-19T10:34:03Z</time>
      </trkpt>
      <trkpt lat="45.85456" lon="5.40909">
        <ele>210.6</ele>
        <time>2024-09-19T10:34:04Z</time>
      </trkpt>
      <trkpt lat="45.85456" lon="5.4091">
        <ele>211</ele>
        <time>2024-09-19T10:34:05Z</time>
      </trkpt>
      <trkpt lat="45.85456" lon="5.40912">
        <ele>211.2</ele>
        <time>2024-09-19T10:34:06Z</time>
      </trkpt>
      <trkpt lat="45.85456" lon="5.40914">
        <ele>211.4</ele>
        <time>2024-09-19T10:34:07Z</time>
      </trkpt>
      <trkpt lat="45.85457" lon="5.40917">
        <ele>211.6</ele>
        <time>2024-09-19T10:34:08Z</time>
      </trkpt>
      <trkpt lat="45.85458" lon="5.40919">
        <ele>212</ele>
        <time>2024-09-19T10:34:09Z</time>
      </trkpt>
      <trkpt lat="45.85459" lon="5.4092">
        <ele>212.2</ele>
        <time>2024-09-19T10:34:10Z</time>
      </trkpt>
      <trkpt lat="45.85459" lon="5.4092">
        <ele>212.2</ele>
        <time>2024-09-19T10:34:11Z</time>
      </trkpt>
      <trkpt lat="45.8546" lon="5.40919">
        <ele>212.4</ele>
        <time>2024-09-19T10:34:12Z</time>
      </trkpt>
      <trkpt lat="45.85461" lon="5.40918">
        <ele>212.4</ele>
        <time>2024-09-19T10:34:13Z</time>
      </trkpt>
      <trkpt lat="45.85461" lon="5.40917">
        <ele>212.8</ele>
        <time>2024-09-19T10:34:14Z</time>
      </trkpt>
      <trkpt lat="45.85461" lon="5.40915">
        <ele>212.8</ele>
        <time>2024-09-19T10:34:15Z</time>
      </trkpt>
      <trkpt lat="45.85462" lon="5.40914">
        <ele>213</ele>
        <time>2024-09-19T10:34:16Z</time>
      </trkpt>
      <trkpt lat="45.85462" lon="5.40912">
        <ele>213</ele>
        <time>2024-09-19T10:34:17Z</time>
      </trkpt>
      <trkpt lat="45.85463" lon="5.4091">
        <ele>213.4</ele>
        <time>2024-09-19T10:34:18Z</time>
      </trkpt>
      <trkpt lat="45.85463" lon="5.40909">
        <ele>213.4</ele>
        <time>2024-09-19T10:34:19Z</time>
      </trkpt>
      <trkpt lat="45.85462" lon="5.4091">
        <ele>213.4</ele>
        <time>2024-09-19T10:34:20Z</time>
      </trkpt>
      <trkpt lat="45.85462" lon="5.40909">
        <ele>213.4</ele>
        <time>2024-09-19T10:34:21Z</time>
      </trkpt>
      <trkpt lat="45.85463" lon="5.40909">
        <ele>213.4</ele>
        <time>2024-09-19T10:34:22Z</time>
      </trkpt>
      <trkpt lat="45.85463" lon="5.40907">
        <ele>213.4</ele>
        <time>2024-09-19T10:34:23Z</time>
      </trkpt>
      <trkpt lat="45.85464" lon="5.40905">
        <ele>213.4</ele>
        <time>2024-09-19T10:34:24Z</time>
      </trkpt>
      <trkpt lat="45.85464" lon="5.40903">
        <ele>213.4</ele>
        <time>2024-09-19T10:34:25Z</time>
      </trkpt>
      <trkpt lat="45.85463" lon="5.409">
        <ele>213.4</ele>
        <time>2024-09-19T10:34:26Z</time>
      </trkpt>
      <trkpt lat="45.85462" lon="5.40897">
        <ele>213.4</ele>
        <time>2024-09-19T10:34:27Z</time>
      </trkpt>
      <trkpt lat="45.85461" lon="5.40894">
        <ele>213.4</ele>
        <time>2024-09-19T10:34:28Z</time>
      </trkpt>
      <trkpt lat="45.85459" lon="5.40891">
        <ele>213.8</ele>
        <time>2024-09-19T10:34:29Z</time>
      </trkpt>
      <trkpt lat="45.85458" lon="5.40889">
        <ele>214</ele>
        <time>2024-09-19T10:34:30Z</time>
      </trkpt>
      <trkpt lat="45.85457" lon="5.40887">
        <ele>214</ele>
        <time>2024-09-19T10:34:31Z</time>
      </trkpt>
      <trkpt lat="45.85455" lon="5.40884">
        <ele>214</ele>
        <time>2024-09-19T10:34:32Z</time>
      </trkpt>
      <trkpt lat="45.85454" lon="5.40882">
        <ele>214.2</ele>
        <time>2024-09-19T10:34:33Z</time>
      </trkpt>
      <trkpt lat="45.85453" lon="5.40879">
        <ele>214.4</ele>
        <time>2024-09-19T10:34:34Z</time>
      </trkpt>
      <trkpt lat="45.85452" lon="5.40877">
        <ele>214.6</ele>
        <time>2024-09-19T10:34:35Z</time>
      </trkpt>
      <trkpt lat="45.85451" lon="5.40874">
        <ele>214.8</ele>
        <time>2024-09-19T10:34:36Z</time>
      </trkpt>
      <trkpt lat="45.8545" lon="5.40871">
        <ele>214.8</ele>
        <time>2024-09-19T10:34:37Z</time>
      </trkpt>
      <trkpt lat="45.85448" lon="5.40868">
        <ele>215.2</ele>
        <time>2024-09-19T10:34:38Z</time>
      </trkpt>
      <trkpt lat="45.85447" lon="5.40864">
        <ele>215.4</ele>
        <time>2024-09-19T10:34:39Z</time>
      </trkpt>
      <trkpt lat="45.85446" lon="5.40861">
        <ele>215.4</ele>
        <time>2024-09-19T10:34:40Z</time>
      </trkpt>
      <trkpt lat="45.85445" lon="5.40858">
        <ele>215.4</ele>
        <time>2024-09-19T10:34:41Z</time>
      </trkpt>
      <trkpt lat="45.85444" lon="5.40855">
        <ele>215.4</ele>
        <time>2024-09-19T10:34:42Z</time>
      </trkpt>
      <trkpt lat="45.85443" lon="5.40851">
        <ele>215.4</ele>
        <time>2024-09-19T10:34:43Z</time>
      </trkpt>
      <trkpt lat="45.85441" lon="5.40848">
        <ele>215.4</ele>
        <time>2024-09-19T10:34:44Z</time>
      </trkpt>
      <trkpt lat="45.8544" lon="5.40845">
        <ele>215.4</ele>
        <time>2024-09-19T10:34:45Z</time>
      </trkpt>
      <trkpt lat="45.85439" lon="5.40842">
        <ele>215.6</ele>
        <time>2024-09-19T10:34:46Z</time>
      </trkpt>
      <trkpt lat="45.85438" lon="5.40838">
        <ele>215.6</ele>
        <time>2024-09-19T10:34:47Z</time>
      </trkpt>
      <trkpt lat="45.85436" lon="5.40835">
        <ele>215.6</ele>
        <time>2024-09-19T10:34:48Z</time>
      </trkpt>
      <trkpt lat="45.85435" lon="5.40832">
        <ele>215.6</ele>
        <time>2024-09-19T10:34:49Z</time>
      </trkpt>
      <trkpt lat="45.85434" lon="5.40828">
        <ele>215.8</ele>
        <time>2024-09-19T10:34:50Z</time>
      </trkpt>
      <trkpt lat="45.85432" lon="5.40825">
        <ele>215.8</ele>
        <time>2024-09-19T10:34:51Z</time>
      </trkpt>
      <trkpt lat="45.85431" lon="5.40822">
        <ele>215.8</ele>
        <time>2024-09-19T10:34:52Z</time>
      </trkpt>
      <trkpt lat="45.85429" lon="5.40818">
        <ele>215.8</ele>
        <time>2024-09-19T10:34:53Z</time>
      </trkpt>
      <trkpt lat="45.85428" lon="5.40815">
        <ele>216.2</ele>
        <time>2024-09-19T10:34:54Z</time>
      </trkpt>
      <trkpt lat="45.85427" lon="5.40811">
        <ele>216.2</ele>
        <time>2024-09-19T10:34:55Z</time>
      </trkpt>
      <trkpt lat="45.85425" lon="5.40807">
        <ele>216.2</ele>
        <time>2024-09-19T10:34:56Z</time>
      </trkpt>
      <trkpt lat="45.85423" lon="5.40803">
        <ele>216.2</ele>
        <time>2024-09-19T10:34:57Z</time>
      </trkpt>
      <trkpt lat="45.85421" lon="5.40799">
        <ele>216.2</ele>
        <time>2024-09-19T10:34:58Z</time>
      </trkpt>
      <trkpt lat="45.85419" lon="5.40794">
        <ele>216.2</ele>
        <time>2024-09-19T10:34:59Z</time>
      </trkpt>
      <trkpt lat="45.85417" lon="5.40789">
        <ele>216.2</ele>
        <time>2024-09-19T10:35:00Z</time>
      </trkpt>
      <trkpt lat="45.85415" lon="5.40784">
        <ele>216.2</ele>
        <time>2024-09-19T10:35:01Z</time>
      </trkpt>
      <trkpt lat="45.85412" lon="5.40778">
        <ele>216.2</ele>
        <time>2024-09-19T10:35:02Z</time>
      </trkpt>
      <trkpt lat="45.8541" lon="5.40773">
        <ele>216</ele>
        <time>2024-09-19T10:35:03Z</time>
      </trkpt>
      <trkpt lat="45.85407" lon="5.40767">
        <ele>216</ele>
        <time>2024-09-19T10:35:04Z</time>
      </trkpt>
      <trkpt lat="45.85405" lon="5.40762">
        <ele>215.6</ele>
        <time>2024-09-19T10:35:05Z</time>
      </trkpt>
      <trkpt lat="45.85402" lon="5.40756">
        <ele>215.2</ele>
        <time>2024-09-19T10:35:06Z</time>
      </trkpt>
      <trkpt lat="45.85399" lon="5.4075">
        <ele>215.2</ele>
        <time>2024-09-19T10:35:07Z</time>
      </trkpt>
      <trkpt lat="45.85397" lon="5.40744">
        <ele>214.8</ele>
        <time>2024-09-19T10:35:08Z</time>
      </trkpt>
      <trkpt lat="45.85394" lon="5.40738">
        <ele>214.4</ele>
        <time>2024-09-19T10:35:09Z</time>
      </trkpt>
      <trkpt lat="45.85391" lon="5.40733">
        <ele>214.4</ele>
        <time>2024-09-19T10:35:10Z</time>
      </trkpt>
      <trkpt lat="45.85388" lon="5.40728">
        <ele>214</ele>
        <time>2024-09-19T10:35:11Z</time>
      </trkpt>
      <trkpt lat="45.85385" lon="5.40723">
        <ele>214</ele>
        <time>2024-09-19T10:35:12Z</time>
      </trkpt>
      <trkpt lat="45.85383" lon="5.40718">
        <ele>214</ele>
        <time>2024-09-19T10:35:13Z</time>
      </trkpt>
      <trkpt lat="45.8538" lon="5.40713">
        <ele>214</ele>
        <time>2024-09-19T10:35:14Z</time>
      </trkpt>
      <trkpt lat="45.85377" lon="5.40708">
        <ele>214</ele>
        <time>2024-09-19T10:35:15Z</time>
      </trkpt>
      <trkpt lat="45.85374" lon="5.40703">
        <ele>214</ele>
        <time>2024-09-19T10:35:16Z</time>
      </trkpt>
      <trkpt lat="45.85372" lon="5.40699">
        <ele>214.4</ele>
        <time>2024-09-19T10:35:17Z</time>
      </trkpt>
      <trkpt lat="45.8537" lon="5.40695">
        <ele>214</ele>
        <time>2024-09-19T10:35:18Z</time>
      </trkpt>
      <trkpt lat="45.85367" lon="5.40691">
        <ele>214</ele>
        <time>2024-09-19T10:35:19Z</time>
      </trkpt>
      <trkpt lat="45.85363" lon="5.40689">
        <ele>213.8</ele>
        <time>2024-09-19T10:35:20Z</time>
      </trkpt>
      <trkpt lat="45.85359" lon="5.40688">
        <ele>213.4</ele>
        <time>2024-09-19T10:35:21Z</time>
      </trkpt>
      <trkpt lat="45.85354" lon="5.40688">
        <ele>213.4</ele>
        <time>2024-09-19T10:35:22Z</time>
      </trkpt>
      <trkpt lat="45.8535" lon="5.4069">
        <ele>213.4</ele>
        <time>2024-09-19T10:35:23Z</time>
      </trkpt>
      <trkpt lat="45.85346" lon="5.40692">
        <ele>213.4</ele>
        <time>2024-09-19T10:35:24Z</time>
      </trkpt>
      <trkpt lat="45.85343" lon="5.40696">
        <ele>213</ele>
        <time>2024-09-19T10:35:25Z</time>
      </trkpt>
      <trkpt lat="45.8534" lon="5.407">
        <ele>213</ele>
        <time>2024-09-19T10:35:26Z</time>
      </trkpt>
      <trkpt lat="45.85337" lon="5.40705">
        <ele>212.8</ele>
        <time>2024-09-19T10:35:27Z</time>
      </trkpt>
      <trkpt lat="45.85334" lon="5.40709">
        <ele>212.8</ele>
        <time>2024-09-19T10:35:28Z</time>
      </trkpt>
      <trkpt lat="45.8533" lon="5.40712">
        <ele>212.8</ele>
        <time>2024-09-19T10:35:29Z</time>
      </trkpt>
      <trkpt lat="45.8533" lon="5.40712">
        <ele>212.8</ele>
        <time>2024-09-19T10:35:30Z</time>
      </trkpt>
      <trkpt lat="45.85327" lon="5.40716">
        <ele>212.8</ele>
        <time>2024-09-19T10:35:31Z</time>
      </trkpt>
      <trkpt lat="45.85323" lon="5.4072">
        <ele>212.8</ele>
        <time>2024-09-19T10:35:32Z</time>
      </trkpt>
      <trkpt lat="45.85319" lon="5.40724">
        <ele>212.6</ele>
        <time>2024-09-19T10:35:33Z</time>
      </trkpt>
      <trkpt lat="45.85315" lon="5.40728">
        <ele>212.6</ele>
        <time>2024-09-19T10:35:34Z</time>
      </trkpt>
      <trkpt lat="45.85312" lon="5.40732">
        <ele>212.4</ele>
        <time>2024-09-19T10:35:35Z</time>
      </trkpt>
      <trkpt lat="45.85308" lon="5.40736">
        <ele>212.4</ele>
        <time>2024-09-19T10:35:36Z</time>
      </trkpt>
      <trkpt lat="45.85304" lon="5.4074">
        <ele>212.4</ele>
        <time>2024-09-19T10:35:37Z</time>
      </trkpt>
      <trkpt lat="45.853" lon="5.40745">
        <ele>212.4</ele>
        <time>2024-09-19T10:35:38Z</time>
      </trkpt>
      <trkpt lat="45.85297" lon="5.40749">
        <ele>212.4</ele>
        <time>2024-09-19T10:35:39Z</time>
      </trkpt>
      <trkpt lat="45.85293" lon="5.40754">
        <ele>212.4</ele>
        <time>2024-09-19T10:35:40Z</time>
      </trkpt>
      <trkpt lat="45.85289" lon="5.40758">
        <ele>212.4</ele>
        <time>2024-09-19T10:35:41Z</time>
      </trkpt>
      <trkpt lat="45.85281" lon="5.40767">
        <ele>212.2</ele>
        <time>2024-09-19T10:35:42Z</time>
      </trkpt>
      <trkpt lat="45.85277" lon="5.40771">
        <ele>212.2</ele>
        <time>2024-09-19T10:35:43Z</time>
      </trkpt>
      <trkpt lat="45.85273" lon="5.40775">
        <ele>212.4</ele>
        <time>2024-09-19T10:35:44Z</time>
      </trkpt>
      <trkpt lat="45.85269" lon="5.4078">
        <ele>212.4</ele>
        <time>2024-09-19T10:35:45Z</time>
      </trkpt>
      <trkpt lat="45.85264" lon="5.40783">
        <ele>212.2</ele>
        <time>2024-09-19T10:35:46Z</time>
      </trkpt>
      <trkpt lat="45.85261" lon="5.40787">
        <ele>212.2</ele>
        <time>2024-09-19T10:35:47Z</time>
      </trkpt>
      <trkpt lat="45.85257" lon="5.40791">
        <ele>212.2</ele>
        <time>2024-09-19T10:35:48Z</time>
      </trkpt>
      <trkpt lat="45.85253" lon="5.40795">
        <ele>212.2</ele>
        <time>2024-09-19T10:35:49Z</time>
      </trkpt>
      <trkpt lat="45.85248" lon="5.40799">
        <ele>212.2</ele>
        <time>2024-09-19T10:35:50Z</time>
      </trkpt>
      <trkpt lat="45.85245" lon="5.40802">
        <ele>212</ele>
        <time>2024-09-19T10:35:51Z</time>
      </trkpt>
      <trkpt lat="45.8524" lon="5.40807">
        <ele>212</ele>
        <time>2024-09-19T10:35:52Z</time>
      </trkpt>
      <trkpt lat="45.85236" lon="5.40811">
        <ele>212</ele>
        <time>2024-09-19T10:35:53Z</time>
      </trkpt>
      <trkpt lat="45.85232" lon="5.40816">
        <ele>212</ele>
        <time>2024-09-19T10:35:54Z</time>
      </trkpt>
      <trkpt lat="45.85227" lon="5.4082">
        <ele>212.4</ele>
        <time>2024-09-19T10:35:55Z</time>
      </trkpt>
      <trkpt lat="45.85224" lon="5.40824">
        <ele>212.2</ele>
        <time>2024-09-19T10:35:56Z</time>
      </trkpt>
      <trkpt lat="45.8522" lon="5.40829">
        <ele>212.2</ele>
        <time>2024-09-19T10:35:57Z</time>
      </trkpt>
      <trkpt lat="45.85216" lon="5.40833">
        <ele>212.2</ele>
        <time>2024-09-19T10:35:58Z</time>
      </trkpt>
      <trkpt lat="45.85212" lon="5.40837">
        <ele>212.4</ele>
        <time>2024-09-19T10:35:59Z</time>
      </trkpt>
      <trkpt lat="45.85207" lon="5.40841">
        <ele>212.4</ele>
        <time>2024-09-19T10:36:00Z</time>
      </trkpt>
      <trkpt lat="45.85203" lon="5.40845">
        <ele>212.4</ele>
        <time>2024-09-19T10:36:01Z</time>
      </trkpt>
      <trkpt lat="45.852" lon="5.4085">
        <ele>212.4</ele>
        <time>2024-09-19T10:36:02Z</time>
      </trkpt>
      <trkpt lat="45.85196" lon="5.40854">
        <ele>212.4</ele>
        <time>2024-09-19T10:36:03Z</time>
      </trkpt>
      <trkpt lat="45.85191" lon="5.40858">
        <ele>212.4</ele>
        <time>2024-09-19T10:36:04Z</time>
      </trkpt>
      <trkpt lat="45.85188" lon="5.40863">
        <ele>212.2</ele>
        <time>2024-09-19T10:36:05Z</time>
      </trkpt>
      <trkpt lat="45.85184" lon="5.40867">
        <ele>212</ele>
        <time>2024-09-19T10:36:06Z</time>
      </trkpt>
      <trkpt lat="45.8518" lon="5.40873">
        <ele>212.2</ele>
        <time>2024-09-19T10:36:07Z</time>
      </trkpt>
      <trkpt lat="45.85176" lon="5.40877">
        <ele>212.2</ele>
        <time>2024-09-19T10:36:08Z</time>
      </trkpt>
      <trkpt lat="45.85172" lon="5.40882">
        <ele>212</ele>
        <time>2024-09-19T10:36:09Z</time>
      </trkpt>
      <trkpt lat="45.85169" lon="5.40886">
        <ele>212</ele>
        <time>2024-09-19T10:36:10Z</time>
      </trkpt>
      <trkpt lat="45.85164" lon="5.4089">
        <ele>212.4</ele>
        <time>2024-09-19T10:36:11Z</time>
      </trkpt>
      <trkpt lat="45.85159" lon="5.40893">
        <ele>210.8</ele>
        <time>2024-09-19T10:36:12Z</time>
      </trkpt>
      <trkpt lat="45.85154" lon="5.40897">
        <ele>211</ele>
        <time>2024-09-19T10:36:13Z</time>
      </trkpt>
      <trkpt lat="45.8515" lon="5.40902">
        <ele>211</ele>
        <time>2024-09-19T10:36:14Z</time>
      </trkpt>
      <trkpt lat="45.85146" lon="5.40906">
        <ele>211</ele>
        <time>2024-09-19T10:36:15Z</time>
      </trkpt>
      <trkpt lat="45.85142" lon="5.40911">
        <ele>210.8</ele>
        <time>2024-09-19T10:36:16Z</time>
      </trkpt>
      <trkpt lat="45.85137" lon="5.40916">
        <ele>210.8</ele>
        <time>2024-09-19T10:36:17Z</time>
      </trkpt>
      <trkpt lat="45.85133" lon="5.4092">
        <ele>211.2</ele>
        <time>2024-09-19T10:36:18Z</time>
      </trkpt>
      <trkpt lat="45.85129" lon="5.40925">
        <ele>211.4</ele>
        <time>2024-09-19T10:36:19Z</time>
      </trkpt>
      <trkpt lat="45.85125" lon="5.40929">
        <ele>211.4</ele>
        <time>2024-09-19T10:36:20Z</time>
      </trkpt>
      <trkpt lat="45.85121" lon="5.40934">
        <ele>211.8</ele>
        <time>2024-09-19T10:36:21Z</time>
      </trkpt>
      <trkpt lat="45.85118" lon="5.40936">
        <ele>212.2</ele>
        <time>2024-09-19T10:36:22Z</time>
      </trkpt>
      <trkpt lat="45.85114" lon="5.40941">
        <ele>212.8</ele>
        <time>2024-09-19T10:36:23Z</time>
      </trkpt>
      <trkpt lat="45.85113" lon="5.40944">
        <ele>213.2</ele>
        <time>2024-09-19T10:36:24Z</time>
      </trkpt>
      <trkpt lat="45.8511" lon="5.40947">
        <ele>213.2</ele>
        <time>2024-09-19T10:36:25Z</time>
      </trkpt>
      <trkpt lat="45.85107" lon="5.40951">
        <ele>213.6</ele>
        <time>2024-09-19T10:36:26Z</time>
      </trkpt>
      <trkpt lat="45.85105" lon="5.40954">
        <ele>213.6</ele>
        <time>2024-09-19T10:36:27Z</time>
      </trkpt>
      <trkpt lat="45.85102" lon="5.40958">
        <ele>213.8</ele>
        <time>2024-09-19T10:36:28Z</time>
      </trkpt>
      <trkpt lat="45.85098" lon="5.40962">
        <ele>214</ele>
        <time>2024-09-19T10:36:29Z</time>
      </trkpt>
      <trkpt lat="45.85096" lon="5.40966">
        <ele>214</ele>
        <time>2024-09-19T10:36:30Z</time>
      </trkpt>
      <trkpt lat="45.85092" lon="5.40969">
        <ele>214.4</ele>
        <time>2024-09-19T10:36:31Z</time>
      </trkpt>
      <trkpt lat="45.85088" lon="5.40973">
        <ele>214.4</ele>
        <time>2024-09-19T10:36:32Z</time>
      </trkpt>
      <trkpt lat="45.85085" lon="5.40976">
        <ele>214.6</ele>
        <time>2024-09-19T10:36:33Z</time>
      </trkpt>
      <trkpt lat="45.8508" lon="5.4098">
        <ele>214.6</ele>
        <time>2024-09-19T10:36:34Z</time>
      </trkpt>
      <trkpt lat="45.85076" lon="5.40984">
        <ele>214.6</ele>
        <time>2024-09-19T10:36:35Z</time>
      </trkpt>
      <trkpt lat="45.85072" lon="5.40988">
        <ele>214.6</ele>
        <time>2024-09-19T10:36:36Z</time>
      </trkpt>
      <trkpt lat="45.85068" lon="5.40991">
        <ele>214.6</ele>
        <time>2024-09-19T10:36:37Z</time>
      </trkpt>
      <trkpt lat="45.85065" lon="5.40995">
        <ele>214.6</ele>
        <time>2024-09-19T10:36:38Z</time>
      </trkpt>
      <trkpt lat="45.85061" lon="5.40998">
        <ele>214.6</ele>
        <time>2024-09-19T10:36:39Z</time>
      </trkpt>
      <trkpt lat="45.85057" lon="5.41002">
        <ele>214.6</ele>
        <time>2024-09-19T10:36:40Z</time>
      </trkpt>
      <trkpt lat="45.85052" lon="5.41006">
        <ele>214.6</ele>
        <time>2024-09-19T10:36:41Z</time>
      </trkpt>
      <trkpt lat="45.85048" lon="5.41011">
        <ele>214.6</ele>
        <time>2024-09-19T10:36:42Z</time>
      </trkpt>
      <trkpt lat="45.85045" lon="5.41015">
        <ele>214.6</ele>
        <time>2024-09-19T10:36:43Z</time>
      </trkpt>
      <trkpt lat="45.85041" lon="5.4102">
        <ele>214.6</ele>
        <time>2024-09-19T10:36:44Z</time>
      </trkpt>
      <trkpt lat="45.85037" lon="5.41024">
        <ele>214.6</ele>
        <time>2024-09-19T10:36:45Z</time>
      </trkpt>
      <trkpt lat="45.85033" lon="5.4103">
        <ele>214.6</ele>
        <time>2024-09-19T10:36:46Z</time>
      </trkpt>
      <trkpt lat="45.8503" lon="5.41035">
        <ele>214.6</ele>
        <time>2024-09-19T10:36:47Z</time>
      </trkpt>
      <trkpt lat="45.85027" lon="5.4104">
        <ele>214.6</ele>
        <time>2024-09-19T10:36:48Z</time>
      </trkpt>
      <trkpt lat="45.85024" lon="5.41045">
        <ele>214.4</ele>
        <time>2024-09-19T10:36:49Z</time>
      </trkpt>
      <trkpt lat="45.8502" lon="5.4105">
        <ele>214</ele>
        <time>2024-09-19T10:36:50Z</time>
      </trkpt>
      <trkpt lat="45.85017" lon="5.41055">
        <ele>214</ele>
        <time>2024-09-19T10:36:51Z</time>
      </trkpt>
      <trkpt lat="45.85013" lon="5.41061">
        <ele>214</ele>
        <time>2024-09-19T10:36:52Z</time>
      </trkpt>
      <trkpt lat="45.8501" lon="5.41066">
        <ele>214</ele>
        <time>2024-09-19T10:36:53Z</time>
      </trkpt>
      <trkpt lat="45.85006" lon="5.4107">
        <ele>214</ele>
        <time>2024-09-19T10:36:54Z</time>
      </trkpt>
      <trkpt lat="45.85003" lon="5.41074">
        <ele>214</ele>
        <time>2024-09-19T10:36:55Z</time>
      </trkpt>
      <trkpt lat="45.84999" lon="5.41079">
        <ele>214</ele>
        <time>2024-09-19T10:36:56Z</time>
      </trkpt>
      <trkpt lat="45.84996" lon="5.41085">
        <ele>214</ele>
        <time>2024-09-19T10:36:57Z</time>
      </trkpt>
      <trkpt lat="45.84993" lon="5.41091">
        <ele>214</ele>
        <time>2024-09-19T10:36:58Z</time>
      </trkpt>
      <trkpt lat="45.8499" lon="5.41096">
        <ele>214</ele>
        <time>2024-09-19T10:36:59Z</time>
      </trkpt>
      <trkpt lat="45.84986" lon="5.41102">
        <ele>214</ele>
        <time>2024-09-19T10:37:00Z</time>
      </trkpt>
      <trkpt lat="45.84983" lon="5.41108">
        <ele>214</ele>
        <time>2024-09-19T10:37:01Z</time>
      </trkpt>
      <trkpt lat="45.84979" lon="5.41115">
        <ele>214</ele>
        <time>2024-09-19T10:37:02Z</time>
      </trkpt>
      <trkpt lat="45.84975" lon="5.41121">
        <ele>214</ele>
        <time>2024-09-19T10:37:03Z</time>
      </trkpt>
      <trkpt lat="45.84972" lon="5.41127">
        <ele>214</ele>
        <time>2024-09-19T10:37:04Z</time>
      </trkpt>
      <trkpt lat="45.84969" lon="5.41133">
        <ele>214</ele>
        <time>2024-09-19T10:37:05Z</time>
      </trkpt>
      <trkpt lat="45.84965" lon="5.41138">
        <ele>214</ele>
        <time>2024-09-19T10:37:06Z</time>
      </trkpt>
      <trkpt lat="45.84962" lon="5.41144">
        <ele>214.4</ele>
        <time>2024-09-19T10:37:07Z</time>
      </trkpt>
      <trkpt lat="45.84959" lon="5.41149">
        <ele>214.4</ele>
        <time>2024-09-19T10:37:08Z</time>
      </trkpt>
      <trkpt lat="45.84956" lon="5.41155">
        <ele>214.4</ele>
        <time>2024-09-19T10:37:09Z</time>
      </trkpt>
      <trkpt lat="45.84954" lon="5.4116">
        <ele>214.4</ele>
        <time>2024-09-19T10:37:10Z</time>
      </trkpt>
      <trkpt lat="45.84951" lon="5.41165">
        <ele>214.4</ele>
        <time>2024-09-19T10:37:11Z</time>
      </trkpt>
      <trkpt lat="45.84948" lon="5.4117">
        <ele>214.4</ele>
        <time>2024-09-19T10:37:12Z</time>
      </trkpt>
      <trkpt lat="45.84946" lon="5.41175">
        <ele>214.4</ele>
        <time>2024-09-19T10:37:13Z</time>
      </trkpt>
      <trkpt lat="45.84943" lon="5.4118">
        <ele>214.4</ele>
        <time>2024-09-19T10:37:14Z</time>
      </trkpt>
      <trkpt lat="45.84941" lon="5.41185">
        <ele>214.4</ele>
        <time>2024-09-19T10:37:15Z</time>
      </trkpt>
      <trkpt lat="45.84937" lon="5.4119">
        <ele>214.4</ele>
        <time>2024-09-19T10:37:16Z</time>
      </trkpt>
      <trkpt lat="45.84934" lon="5.41195">
        <ele>214.4</ele>
        <time>2024-09-19T10:37:17Z</time>
      </trkpt>
      <trkpt lat="45.84931" lon="5.41201">
        <ele>214.4</ele>
        <time>2024-09-19T10:37:18Z</time>
      </trkpt>
      <trkpt lat="45.84929" lon="5.41207">
        <ele>214</ele>
        <time>2024-09-19T10:37:19Z</time>
      </trkpt>
      <trkpt lat="45.84926" lon="5.41212">
        <ele>214.4</ele>
        <time>2024-09-19T10:37:20Z</time>
      </trkpt>
      <trkpt lat="45.84923" lon="5.41218">
        <ele>214.4</ele>
        <time>2024-09-19T10:37:21Z</time>
      </trkpt>
      <trkpt lat="45.8492" lon="5.41224">
        <ele>214</ele>
        <time>2024-09-19T10:37:22Z</time>
      </trkpt>
      <trkpt lat="45.84916" lon="5.41229">
        <ele>214</ele>
        <time>2024-09-19T10:37:23Z</time>
      </trkpt>
      <trkpt lat="45.84914" lon="5.41234">
        <ele>214.2</ele>
        <time>2024-09-19T10:37:24Z</time>
      </trkpt>
      <trkpt lat="45.84911" lon="5.41241">
        <ele>214.2</ele>
        <time>2024-09-19T10:37:25Z</time>
      </trkpt>
      <trkpt lat="45.84908" lon="5.41246">
        <ele>214.2</ele>
        <time>2024-09-19T10:37:26Z</time>
      </trkpt>
      <trkpt lat="45.84905" lon="5.41251">
        <ele>214.2</ele>
        <time>2024-09-19T10:37:27Z</time>
      </trkpt>
      <trkpt lat="45.84902" lon="5.41257">
        <ele>214.2</ele>
        <time>2024-09-19T10:37:28Z</time>
      </trkpt>
      <trkpt lat="45.84899" lon="5.41262">
        <ele>214.2</ele>
        <time>2024-09-19T10:37:29Z</time>
      </trkpt>
      <trkpt lat="45.84896" lon="5.41268">
        <ele>213.4</ele>
        <time>2024-09-19T10:37:30Z</time>
      </trkpt>
      <trkpt lat="45.84894" lon="5.41274">
        <ele>213.4</ele>
        <time>2024-09-19T10:37:31Z</time>
      </trkpt>
      <trkpt lat="45.84892" lon="5.41278">
        <ele>213.8</ele>
        <time>2024-09-19T10:37:32Z</time>
      </trkpt>
      <trkpt lat="45.8489" lon="5.41282">
        <ele>213.4</ele>
        <time>2024-09-19T10:37:33Z</time>
      </trkpt>
      <trkpt lat="45.84888" lon="5.41286">
        <ele>214.2</ele>
        <time>2024-09-19T10:37:34Z</time>
      </trkpt>
      <trkpt lat="45.84886" lon="5.4129">
        <ele>214.6</ele>
        <time>2024-09-19T10:37:35Z</time>
      </trkpt>
      <trkpt lat="45.84884" lon="5.41296">
        <ele>212.6</ele>
        <time>2024-09-19T10:37:36Z</time>
      </trkpt>
      <trkpt lat="45.84881" lon="5.41297">
        <ele>213.2</ele>
        <time>2024-09-19T10:37:37Z</time>
      </trkpt>
      <trkpt lat="45.84879" lon="5.413">
        <ele>213.6</ele>
        <time>2024-09-19T10:37:38Z</time>
      </trkpt>
      <trkpt lat="45.84889" lon="5.41315">
        <ele>213.6</ele>
        <time>2024-09-19T11:02:20Z</time>
      </trkpt>
      <trkpt lat="45.84889" lon="5.41315">
        <ele>213.6</ele>
        <time>2024-09-19T11:02:21Z</time>
      </trkpt>
      <trkpt lat="45.84889" lon="5.41315">
        <ele>213.6</ele>
        <time>2024-09-19T11:02:22Z</time>
      </trkpt>
      <trkpt lat="45.84888" lon="5.41316">
        <ele>213.6</ele>
        <time>2024-09-19T11:02:23Z</time>
      </trkpt>
      <trkpt lat="45.84887" lon="5.41316">
        <ele>213.6</ele>
        <time>2024-09-19T11:02:24Z</time>
      </trkpt>
      <trkpt lat="45.84886" lon="5.41317">
        <ele>213.6</ele>
        <time>2024-09-19T11:02:25Z</time>
      </trkpt>
      <trkpt lat="45.84885" lon="5.41316">
        <ele>213.6</ele>
        <time>2024-09-19T11:02:26Z</time>
      </trkpt>
      <trkpt lat="45.84884" lon="5.41316">
        <ele>213.6</ele>
        <time>2024-09-19T11:02:27Z</time>
      </trkpt>
      <trkpt lat="45.84883" lon="5.41314">
        <ele>214</ele>
        <time>2024-09-19T11:02:28Z</time>
      </trkpt>
      <trkpt lat="45.84883" lon="5.41313">
        <ele>214.2</ele>
        <time>2024-09-19T11:02:29Z</time>
      </trkpt>
      <trkpt lat="45.84882" lon="5.41311">
        <ele>214.2</ele>
        <time>2024-09-19T11:02:30Z</time>
      </trkpt>
      <trkpt lat="45.84882" lon="5.41309">
        <ele>214.4</ele>
        <time>2024-09-19T11:02:31Z</time>
      </trkpt>
      <trkpt lat="45.84881" lon="5.41308">
        <ele>214.4</ele>
        <time>2024-09-19T11:02:32Z</time>
      </trkpt>
      <trkpt lat="45.84881" lon="5.41307">
        <ele>214.4</ele>
        <time>2024-09-19T11:02:33Z</time>
      </trkpt>
      <trkpt lat="45.8488" lon="5.41306">
        <ele>214.8</ele>
        <time>2024-09-19T11:02:34Z</time>
      </trkpt>
      <trkpt lat="45.84879" lon="5.41306">
        <ele>214.8</ele>
        <time>2024-09-19T11:02:35Z</time>
      </trkpt>
      <trkpt lat="45.84878" lon="5.41306">
        <ele>215</ele>
        <time>2024-09-19T11:02:36Z</time>
      </trkpt>
      <trkpt lat="45.84878" lon="5.41306">
        <ele>215</ele>
        <time>2024-09-19T11:02:37Z</time>
      </trkpt>
      <trkpt lat="45.84877" lon="5.41306">
        <ele>215</ele>
        <time>2024-09-19T11:02:38Z</time>
      </trkpt>
      <trkpt lat="45.84876" lon="5.41307">
        <ele>215</ele>
        <time>2024-09-19T11:02:39Z</time>
      </trkpt>
      <trkpt lat="45.84875" lon="5.41308">
        <ele>215</ele>
        <time>2024-09-19T11:02:40Z</time>
      </trkpt>
      <trkpt lat="45.84873" lon="5.41309">
        <ele>215</ele>
        <time>2024-09-19T11:02:41Z</time>
      </trkpt>
      <trkpt lat="45.84872" lon="5.41311">
        <ele>215</ele>
        <time>2024-09-19T11:02:42Z</time>
      </trkpt>
      <trkpt lat="45.8487" lon="5.41313">
        <ele>215</ele>
        <time>2024-09-19T11:02:43Z</time>
      </trkpt>
      <trkpt lat="45.84868" lon="5.41315">
        <ele>215</ele>
        <time>2024-09-19T11:02:44Z</time>
      </trkpt>
      <trkpt lat="45.84866" lon="5.41318">
        <ele>215</ele>
        <time>2024-09-19T11:02:45Z</time>
      </trkpt>
      <trkpt lat="45.84864" lon="5.41321">
        <ele>215</ele>
        <time>2024-09-19T11:02:46Z</time>
      </trkpt>
      <trkpt lat="45.84862" lon="5.41325">
        <ele>215</ele>
        <time>2024-09-19T11:02:47Z</time>
      </trkpt>
      <trkpt lat="45.8486" lon="5.41328">
        <ele>215</ele>
        <time>2024-09-19T11:02:48Z</time>
      </trkpt>
      <trkpt lat="45.84858" lon="5.41332">
        <ele>215</ele>
        <time>2024-09-19T11:02:49Z</time>
      </trkpt>
      <trkpt lat="45.84856" lon="5.41336">
        <ele>214.8</ele>
        <time>2024-09-19T11:02:50Z</time>
      </trkpt>
      <trkpt lat="45.84854" lon="5.41339">
        <ele>214.8</ele>
        <time>2024-09-19T11:02:51Z</time>
      </trkpt>
      <trkpt lat="45.84852" lon="5.41343">
        <ele>214.8</ele>
        <time>2024-09-19T11:02:52Z</time>
      </trkpt>
      <trkpt lat="45.84849" lon="5.41347">
        <ele>214.8</ele>
        <time>2024-09-19T11:02:53Z</time>
      </trkpt>
      <trkpt lat="45.84847" lon="5.41352">
        <ele>214.8</ele>
        <time>2024-09-19T11:02:54Z</time>
      </trkpt>
      <trkpt lat="45.84845" lon="5.41356">
        <ele>214.8</ele>
        <time>2024-09-19T11:02:55Z</time>
      </trkpt>
      <trkpt lat="45.84842" lon="5.4136">
        <ele>214.8</ele>
        <time>2024-09-19T11:02:56Z</time>
      </trkpt>
      <trkpt lat="45.8484" lon="5.41364">
        <ele>214.8</ele>
        <time>2024-09-19T11:02:57Z</time>
      </trkpt>
      <trkpt lat="45.84837" lon="5.41368">
        <ele>214.8</ele>
        <time>2024-09-19T11:02:58Z</time>
      </trkpt>
      <trkpt lat="45.84835" lon="5.41373">
        <ele>214.8</ele>
        <time>2024-09-19T11:02:59Z</time>
      </trkpt>
      <trkpt lat="45.84835" lon="5.41373">
        <ele>214.8</ele>
        <time>2024-09-19T11:03:00Z</time>
      </trkpt>
      <trkpt lat="45.84835" lon="5.41373">
        <ele>214.8</ele>
        <time>2024-09-19T11:03:01Z</time>
      </trkpt>
      <trkpt lat="45.84828" lon="5.41385">
        <ele>214.8</ele>
        <time>2024-09-19T11:03:02Z</time>
      </trkpt>
      <trkpt lat="45.84826" lon="5.41389">
        <ele>214.8</ele>
        <time>2024-09-19T11:03:03Z</time>
      </trkpt>
      <trkpt lat="45.84824" lon="5.41392">
        <ele>214.8</ele>
        <time>2024-09-19T11:03:04Z</time>
      </trkpt>
      <trkpt lat="45.84822" lon="5.41396">
        <ele>214.8</ele>
        <time>2024-09-19T11:03:05Z</time>
      </trkpt>
      <trkpt lat="45.8482" lon="5.41399">
        <ele>215</ele>
        <time>2024-09-19T11:03:06Z</time>
      </trkpt>
      <trkpt lat="45.84818" lon="5.41403">
        <ele>215</ele>
        <time>2024-09-19T11:03:07Z</time>
      </trkpt>
      <trkpt lat="45.84816" lon="5.41406">
        <ele>215</ele>
        <time>2024-09-19T11:03:08Z</time>
      </trkpt>
      <trkpt lat="45.84813" lon="5.41409">
        <ele>215</ele>
        <time>2024-09-19T11:03:09Z</time>
      </trkpt>
      <trkpt lat="45.84811" lon="5.41413">
        <ele>215</ele>
        <time>2024-09-19T11:03:10Z</time>
      </trkpt>
      <trkpt lat="45.84808" lon="5.41417">
        <ele>215</ele>
        <time>2024-09-19T11:03:11Z</time>
      </trkpt>
      <trkpt lat="45.84806" lon="5.4142">
        <ele>214.8</ele>
        <time>2024-09-19T11:03:12Z</time>
      </trkpt>
      <trkpt lat="45.84804" lon="5.41424">
        <ele>214.8</ele>
        <time>2024-09-19T11:03:13Z</time>
      </trkpt>
      <trkpt lat="45.84801" lon="5.41428">
        <ele>215</ele>
        <time>2024-09-19T11:03:14Z</time>
      </trkpt>
      <trkpt lat="45.84798" lon="5.41432">
        <ele>215</ele>
        <time>2024-09-19T11:03:15Z</time>
      </trkpt>
      <trkpt lat="45.84795" lon="5.41436">
        <ele>215.2</ele>
        <time>2024-09-19T11:03:16Z</time>
      </trkpt>
      <trkpt lat="45.84792" lon="5.41441">
        <ele>215.2</ele>
        <time>2024-09-19T11:03:17Z</time>
      </trkpt>
      <trkpt lat="45.84788" lon="5.41445">
        <ele>215.2</ele>
        <time>2024-09-19T11:03:18Z</time>
      </trkpt>
      <trkpt lat="45.84785" lon="5.41449">
        <ele>215</ele>
        <time>2024-09-19T11:03:19Z</time>
      </trkpt>
      <trkpt lat="45.84782" lon="5.41454">
        <ele>215</ele>
        <time>2024-09-19T11:03:20Z</time>
      </trkpt>
      <trkpt lat="45.84778" lon="5.41458">
        <ele>215</ele>
        <time>2024-09-19T11:03:21Z</time>
      </trkpt>
      <trkpt lat="45.84775" lon="5.41462">
        <ele>215</ele>
        <time>2024-09-19T11:03:22Z</time>
      </trkpt>
      <trkpt lat="45.84771" lon="5.41467">
        <ele>214.8</ele>
        <time>2024-09-19T11:03:23Z</time>
      </trkpt>
      <trkpt lat="45.84768" lon="5.41472">
        <ele>214.8</ele>
        <time>2024-09-19T11:03:24Z</time>
      </trkpt>
      <trkpt lat="45.84764" lon="5.41476">
        <ele>214.8</ele>
        <time>2024-09-19T11:03:25Z</time>
      </trkpt>
      <trkpt lat="45.8476" lon="5.4148">
        <ele>214.8</ele>
        <time>2024-09-19T11:03:26Z</time>
      </trkpt>
      <trkpt lat="45.84756" lon="5.41485">
        <ele>214.8</ele>
        <time>2024-09-19T11:03:27Z</time>
      </trkpt>
      <trkpt lat="45.84753" lon="5.41489">
        <ele>214.8</ele>
        <time>2024-09-19T11:03:28Z</time>
      </trkpt>
      <trkpt lat="45.84749" lon="5.41495">
        <ele>214.8</ele>
        <time>2024-09-19T11:03:29Z</time>
      </trkpt>
      <trkpt lat="45.84745" lon="5.41499">
        <ele>214.8</ele>
        <time>2024-09-19T11:03:30Z</time>
      </trkpt>
      <trkpt lat="45.84741" lon="5.41504">
        <ele>215</ele>
        <time>2024-09-19T11:03:31Z</time>
      </trkpt>
      <trkpt lat="45.84737" lon="5.41508">
        <ele>215</ele>
        <time>2024-09-19T11:03:32Z</time>
      </trkpt>
      <trkpt lat="45.84733" lon="5.41513">
        <ele>215</ele>
        <time>2024-09-19T11:03:33Z</time>
      </trkpt>
      <trkpt lat="45.84729" lon="5.41517">
        <ele>215</ele>
        <time>2024-09-19T11:03:34Z</time>
      </trkpt>
      <trkpt lat="45.84725" lon="5.41522">
        <ele>214.8</ele>
        <time>2024-09-19T11:03:35Z</time>
      </trkpt>
      <trkpt lat="45.84722" lon="5.41527">
        <ele>214.8</ele>
        <time>2024-09-19T11:03:36Z</time>
      </trkpt>
      <trkpt lat="45.84718" lon="5.41532">
        <ele>214.8</ele>
        <time>2024-09-19T11:03:37Z</time>
      </trkpt>
      <trkpt lat="45.84714" lon="5.41536">
        <ele>214.8</ele>
        <time>2024-09-19T11:03:38Z</time>
      </trkpt>
      <trkpt lat="45.8471" lon="5.4154">
        <ele>214.8</ele>
        <time>2024-09-19T11:03:39Z</time>
      </trkpt>
      <trkpt lat="45.84706" lon="5.41544">
        <ele>214.8</ele>
        <time>2024-09-19T11:03:40Z</time>
      </trkpt>
      <trkpt lat="45.84702" lon="5.41548">
        <ele>214.8</ele>
        <time>2024-09-19T11:03:41Z</time>
      </trkpt>
      <trkpt lat="45.84697" lon="5.41552">
        <ele>214.8</ele>
        <time>2024-09-19T11:03:42Z</time>
      </trkpt>
      <trkpt lat="45.84693" lon="5.41556">
        <ele>214.8</ele>
        <time>2024-09-19T11:03:43Z</time>
      </trkpt>
      <trkpt lat="45.84689" lon="5.41559">
        <ele>214.8</ele>
        <time>2024-09-19T11:03:44Z</time>
      </trkpt>
      <trkpt lat="45.84684" lon="5.41563">
        <ele>214.8</ele>
        <time>2024-09-19T11:03:45Z</time>
      </trkpt>
      <trkpt lat="45.84679" lon="5.41566">
        <ele>214.8</ele>
        <time>2024-09-19T11:03:46Z</time>
      </trkpt>
      <trkpt lat="45.84675" lon="5.4157">
        <ele>214.8</ele>
        <time>2024-09-19T11:03:47Z</time>
      </trkpt>
      <trkpt lat="45.8467" lon="5.41573">
        <ele>214.8</ele>
        <time>2024-09-19T11:03:48Z</time>
      </trkpt>
      <trkpt lat="45.84666" lon="5.41576">
        <ele>214.8</ele>
        <time>2024-09-19T11:03:49Z</time>
      </trkpt>
      <trkpt lat="45.84661" lon="5.4158">
        <ele>214.6</ele>
        <time>2024-09-19T11:03:50Z</time>
      </trkpt>
      <trkpt lat="45.84657" lon="5.41583">
        <ele>214.6</ele>
        <time>2024-09-19T11:03:51Z</time>
      </trkpt>
      <trkpt lat="45.84653" lon="5.41587">
        <ele>214.6</ele>
        <time>2024-09-19T11:03:52Z</time>
      </trkpt>
      <trkpt lat="45.84648" lon="5.41589">
        <ele>214.8</ele>
        <time>2024-09-19T11:03:53Z</time>
      </trkpt>
      <trkpt lat="45.84644" lon="5.41592">
        <ele>214.8</ele>
        <time>2024-09-19T11:03:54Z</time>
      </trkpt>
      <trkpt lat="45.84639" lon="5.41596">
        <ele>214.8</ele>
        <time>2024-09-19T11:03:55Z</time>
      </trkpt>
      <trkpt lat="45.84635" lon="5.41599">
        <ele>214.8</ele>
        <time>2024-09-19T11:03:56Z</time>
      </trkpt>
      <trkpt lat="45.8463" lon="5.41603">
        <ele>214.8</ele>
        <time>2024-09-19T11:03:57Z</time>
      </trkpt>
      <trkpt lat="45.84626" lon="5.41606">
        <ele>214.8</ele>
        <time>2024-09-19T11:03:58Z</time>
      </trkpt>
      <trkpt lat="45.84621" lon="5.41609">
        <ele>214.8</ele>
        <time>2024-09-19T11:03:59Z</time>
      </trkpt>
      <trkpt lat="45.84617" lon="5.41612">
        <ele>214.8</ele>
        <time>2024-09-19T11:04:00Z</time>
      </trkpt>
      <trkpt lat="45.84612" lon="5.41615">
        <ele>214.8</ele>
        <time>2024-09-19T11:04:01Z</time>
      </trkpt>
      <trkpt lat="45.84607" lon="5.41619">
        <ele>214.6</ele>
        <time>2024-09-19T11:04:02Z</time>
      </trkpt>
      <trkpt lat="45.84603" lon="5.41622">
        <ele>214.6</ele>
        <time>2024-09-19T11:04:03Z</time>
      </trkpt>
      <trkpt lat="45.84598" lon="5.41626">
        <ele>214.6</ele>
        <time>2024-09-19T11:04:04Z</time>
      </trkpt>
      <trkpt lat="45.84594" lon="5.41629">
        <ele>214.8</ele>
        <time>2024-09-19T11:04:05Z</time>
      </trkpt>
      <trkpt lat="45.8459" lon="5.41633">
        <ele>214.8</ele>
        <time>2024-09-19T11:04:06Z</time>
      </trkpt>
      <trkpt lat="45.84586" lon="5.41636">
        <ele>215.2</ele>
        <time>2024-09-19T11:04:07Z</time>
      </trkpt>
      <trkpt lat="45.84582" lon="5.41639">
        <ele>215.2</ele>
        <time>2024-09-19T11:04:08Z</time>
      </trkpt>
      <trkpt lat="45.8458" lon="5.41642">
        <ele>215.6</ele>
        <time>2024-09-19T11:04:09Z</time>
      </trkpt>
      <trkpt lat="45.84577" lon="5.41645">
        <ele>215.8</ele>
        <time>2024-09-19T11:04:10Z</time>
      </trkpt>
      <trkpt lat="45.84574" lon="5.41648">
        <ele>216</ele>
        <time>2024-09-19T11:04:11Z</time>
      </trkpt>
      <trkpt lat="45.84573" lon="5.41648">
        <ele>216.4</ele>
        <time>2024-09-19T11:04:12Z</time>
      </trkpt>
      <trkpt lat="45.84569" lon="5.41652">
        <ele>216.8</ele>
        <time>2024-09-19T11:04:13Z</time>
      </trkpt>
      <trkpt lat="45.84566" lon="5.41654">
        <ele>216.8</ele>
        <time>2024-09-19T11:04:14Z</time>
      </trkpt>
      <trkpt lat="45.84564" lon="5.41657">
        <ele>217.2</ele>
        <time>2024-09-19T11:04:15Z</time>
      </trkpt>
      <trkpt lat="45.84562" lon="5.41659">
        <ele>217.4</ele>
        <time>2024-09-19T11:04:16Z</time>
      </trkpt>
      <trkpt lat="45.8456" lon="5.41662">
        <ele>217.8</ele>
        <time>2024-09-19T11:04:17Z</time>
      </trkpt>
      <trkpt lat="45.84558" lon="5.41664">
        <ele>218</ele>
        <time>2024-09-19T11:04:18Z</time>
      </trkpt>
      <trkpt lat="45.84557" lon="5.41667">
        <ele>218.2</ele>
        <time>2024-09-19T11:04:19Z</time>
      </trkpt>
      <trkpt lat="45.84555" lon="5.4167">
        <ele>218.4</ele>
        <time>2024-09-19T11:04:20Z</time>
      </trkpt>
      <trkpt lat="45.84554" lon="5.41674">
        <ele>218.6</ele>
        <time>2024-09-19T11:04:21Z</time>
      </trkpt>
      <trkpt lat="45.84553" lon="5.41678">
        <ele>218.6</ele>
        <time>2024-09-19T11:04:22Z</time>
      </trkpt>
      <trkpt lat="45.84553" lon="5.41681">
        <ele>219.2</ele>
        <time>2024-09-19T11:04:23Z</time>
      </trkpt>
      <trkpt lat="45.84553" lon="5.41685">
        <ele>219.4</ele>
        <time>2024-09-19T11:04:24Z</time>
      </trkpt>
      <trkpt lat="45.84553" lon="5.41689">
        <ele>219.8</ele>
        <time>2024-09-19T11:04:25Z</time>
      </trkpt>
      <trkpt lat="45.84553" lon="5.41693">
        <ele>219.8</ele>
        <time>2024-09-19T11:04:26Z</time>
      </trkpt>
      <trkpt lat="45.84553" lon="5.41697">
        <ele>219.8</ele>
        <time>2024-09-19T11:04:27Z</time>
      </trkpt>
      <trkpt lat="45.84554" lon="5.41701">
        <ele>219.8</ele>
        <time>2024-09-19T11:04:28Z</time>
      </trkpt>
      <trkpt lat="45.84554" lon="5.41706">
        <ele>220</ele>
        <time>2024-09-19T11:04:29Z</time>
      </trkpt>
      <trkpt lat="45.84555" lon="5.41711">
        <ele>220</ele>
        <time>2024-09-19T11:04:30Z</time>
      </trkpt>
      <trkpt lat="45.84556" lon="5.41716">
        <ele>220</ele>
        <time>2024-09-19T11:04:31Z</time>
      </trkpt>
      <trkpt lat="45.84557" lon="5.41721">
        <ele>220</ele>
        <time>2024-09-19T11:04:32Z</time>
      </trkpt>
      <trkpt lat="45.84557" lon="5.41726">
        <ele>220.2</ele>
        <time>2024-09-19T11:04:33Z</time>
      </trkpt>
      <trkpt lat="45.84558" lon="5.41732">
        <ele>220</ele>
        <time>2024-09-19T11:04:34Z</time>
      </trkpt>
      <trkpt lat="45.84558" lon="5.41737">
        <ele>220</ele>
        <time>2024-09-19T11:04:35Z</time>
      </trkpt>
      <trkpt lat="45.84559" lon="5.41743">
        <ele>219.6</ele>
        <time>2024-09-19T11:04:36Z</time>
      </trkpt>
      <trkpt lat="45.8456" lon="5.41749">
        <ele>219.6</ele>
        <time>2024-09-19T11:04:37Z</time>
      </trkpt>
      <trkpt lat="45.8456" lon="5.41754">
        <ele>219.4</ele>
        <time>2024-09-19T11:04:38Z</time>
      </trkpt>
      <trkpt lat="45.84561" lon="5.4176">
        <ele>219.4</ele>
        <time>2024-09-19T11:04:39Z</time>
      </trkpt>
      <trkpt lat="45.84561" lon="5.41765">
        <ele>219.2</ele>
        <time>2024-09-19T11:04:40Z</time>
      </trkpt>
      <trkpt lat="45.84562" lon="5.41771">
        <ele>219.2</ele>
        <time>2024-09-19T11:04:41Z</time>
      </trkpt>
      <trkpt lat="45.84563" lon="5.41777">
        <ele>219.2</ele>
        <time>2024-09-19T11:04:42Z</time>
      </trkpt>
      <trkpt lat="45.84564" lon="5.41783">
        <ele>219.2</ele>
        <time>2024-09-19T11:04:43Z</time>
      </trkpt>
      <trkpt lat="45.84564" lon="5.41789">
        <ele>219.2</ele>
        <time>2024-09-19T11:04:44Z</time>
      </trkpt>
      <trkpt lat="45.84565" lon="5.41795">
        <ele>219.2</ele>
        <time>2024-09-19T11:04:45Z</time>
      </trkpt>
      <trkpt lat="45.84566" lon="5.41801">
        <ele>219.2</ele>
        <time>2024-09-19T11:04:46Z</time>
      </trkpt>
      <trkpt lat="45.84567" lon="5.41807">
        <ele>219.2</ele>
        <time>2024-09-19T11:04:47Z</time>
      </trkpt>
      <trkpt lat="45.84567" lon="5.41813">
        <ele>219.2</ele>
        <time>2024-09-19T11:04:48Z</time>
      </trkpt>
      <trkpt lat="45.84568" lon="5.41819">
        <ele>219.2</ele>
        <time>2024-09-19T11:04:49Z</time>
      </trkpt>
      <trkpt lat="45.84569" lon="5.41826">
        <ele>219.2</ele>
        <time>2024-09-19T11:04:50Z</time>
      </trkpt>
      <trkpt lat="45.8457" lon="5.41832">
        <ele>219.2</ele>
        <time>2024-09-19T11:04:51Z</time>
      </trkpt>
      <trkpt lat="45.84571" lon="5.41838">
        <ele>219.2</ele>
        <time>2024-09-19T11:04:52Z</time>
      </trkpt>
      <trkpt lat="45.84571" lon="5.41844">
        <ele>219.2</ele>
        <time>2024-09-19T11:04:53Z</time>
      </trkpt>
      <trkpt lat="45.84572" lon="5.4185">
        <ele>219.2</ele>
        <time>2024-09-19T11:04:54Z</time>
      </trkpt>
      <trkpt lat="45.84573" lon="5.41855">
        <ele>219.2</ele>
        <time>2024-09-19T11:04:55Z</time>
      </trkpt>
      <trkpt lat="45.84574" lon="5.41861">
        <ele>219.2</ele>
        <time>2024-09-19T11:04:56Z</time>
      </trkpt>
      <trkpt lat="45.84574" lon="5.41868">
        <ele>218.8</ele>
        <time>2024-09-19T11:04:57Z</time>
      </trkpt>
      <trkpt lat="45.84575" lon="5.41875">
        <ele>218.6</ele>
        <time>2024-09-19T11:04:58Z</time>
      </trkpt>
      <trkpt lat="45.84575" lon="5.41883">
        <ele>218.4</ele>
        <time>2024-09-19T11:04:59Z</time>
      </trkpt>
      <trkpt lat="45.84574" lon="5.4189">
        <ele>218</ele>
        <time>2024-09-19T11:05:00Z</time>
      </trkpt>
      <trkpt lat="45.84574" lon="5.41898">
        <ele>217.6</ele>
        <time>2024-09-19T11:05:01Z</time>
      </trkpt>
      <trkpt lat="45.84571" lon="5.41904">
        <ele>217.2</ele>
        <time>2024-09-19T11:05:02Z</time>
      </trkpt>
      <trkpt lat="45.84567" lon="5.41907">
        <ele>216.8</ele>
        <time>2024-09-19T11:05:03Z</time>
      </trkpt>
      <trkpt lat="45.84562" lon="5.41905">
        <ele>216.6</ele>
        <time>2024-09-19T11:05:04Z</time>
      </trkpt>
      <trkpt lat="45.84558" lon="5.41905">
        <ele>216.4</ele>
        <time>2024-09-19T11:05:05Z</time>
      </trkpt>
      <trkpt lat="45.84552" lon="5.41905">
        <ele>216</ele>
        <time>2024-09-19T11:05:06Z</time>
      </trkpt>
      <trkpt lat="45.84547" lon="5.41904">
        <ele>215.6</ele>
        <time>2024-09-19T11:05:07Z</time>
      </trkpt>
      <trkpt lat="45.84542" lon="5.41903">
        <ele>215.4</ele>
        <time>2024-09-19T11:05:08Z</time>
      </trkpt>
      <trkpt lat="45.84536" lon="5.41903">
        <ele>215.4</ele>
        <time>2024-09-19T11:05:09Z</time>
      </trkpt>
      <trkpt lat="45.84531" lon="5.41902">
        <ele>215.2</ele>
        <time>2024-09-19T11:05:10Z</time>
      </trkpt>
      <trkpt lat="45.84526" lon="5.41901">
        <ele>215.2</ele>
        <time>2024-09-19T11:05:11Z</time>
      </trkpt>
      <trkpt lat="45.84521" lon="5.41901">
        <ele>215.2</ele>
        <time>2024-09-19T11:05:12Z</time>
      </trkpt>
      <trkpt lat="45.84516" lon="5.41901">
        <ele>214.8</ele>
        <time>2024-09-19T11:05:13Z</time>
      </trkpt>
      <trkpt lat="45.8451" lon="5.41901">
        <ele>214.8</ele>
        <time>2024-09-19T11:05:14Z</time>
      </trkpt>
      <trkpt lat="45.84505" lon="5.41902">
        <ele>214.8</ele>
        <time>2024-09-19T11:05:15Z</time>
      </trkpt>
      <trkpt lat="45.84499" lon="5.41902">
        <ele>214.6</ele>
        <time>2024-09-19T11:05:16Z</time>
      </trkpt>
      <trkpt lat="45.84494" lon="5.41901">
        <ele>214.8</ele>
        <time>2024-09-19T11:05:17Z</time>
      </trkpt>
      <trkpt lat="45.84488" lon="5.41901">
        <ele>214</ele>
        <time>2024-09-19T11:05:18Z</time>
      </trkpt>
      <trkpt lat="45.84483" lon="5.41902">
        <ele>214</ele>
        <time>2024-09-19T11:05:19Z</time>
      </trkpt>
      <trkpt lat="45.84478" lon="5.41904">
        <ele>214.6</ele>
        <time>2024-09-19T11:05:20Z</time>
      </trkpt>
      <trkpt lat="45.84473" lon="5.41904">
        <ele>215.2</ele>
        <time>2024-09-19T11:05:21Z</time>
      </trkpt>
      <trkpt lat="45.84468" lon="5.41905">
        <ele>215.2</ele>
        <time>2024-09-19T11:05:22Z</time>
      </trkpt>
      <trkpt lat="45.84464" lon="5.41906">
        <ele>215.6</ele>
        <time>2024-09-19T11:05:23Z</time>
      </trkpt>
      <trkpt lat="45.84459" lon="5.41907">
        <ele>215.6</ele>
        <time>2024-09-19T11:05:24Z</time>
      </trkpt>
      <trkpt lat="45.84454" lon="5.41907">
        <ele>215.6</ele>
        <time>2024-09-19T11:05:25Z</time>
      </trkpt>
      <trkpt lat="45.8445" lon="5.41908">
        <ele>215</ele>
        <time>2024-09-19T11:05:26Z</time>
      </trkpt>
      <trkpt lat="45.84445" lon="5.41909">
        <ele>216.2</ele>
        <time>2024-09-19T11:05:27Z</time>
      </trkpt>
      <trkpt lat="45.84441" lon="5.41909">
        <ele>216.2</ele>
        <time>2024-09-19T11:05:28Z</time>
      </trkpt>
      <trkpt lat="45.84436" lon="5.41909">
        <ele>216.4</ele>
        <time>2024-09-19T11:05:29Z</time>
      </trkpt>
      <trkpt lat="45.84431" lon="5.41909">
        <ele>216.4</ele>
        <time>2024-09-19T11:05:30Z</time>
      </trkpt>
      <trkpt lat="45.84427" lon="5.4191">
        <ele>216</ele>
        <time>2024-09-19T11:05:31Z</time>
      </trkpt>
      <trkpt lat="45.84422" lon="5.41911">
        <ele>216.6</ele>
        <time>2024-09-19T11:05:32Z</time>
      </trkpt>
      <trkpt lat="45.84417" lon="5.41912">
        <ele>216.2</ele>
        <time>2024-09-19T11:05:33Z</time>
      </trkpt>
      <trkpt lat="45.84412" lon="5.41912">
        <ele>216.2</ele>
        <time>2024-09-19T11:05:34Z</time>
      </trkpt>
      <trkpt lat="45.84408" lon="5.41912">
        <ele>216.2</ele>
        <time>2024-09-19T11:05:35Z</time>
      </trkpt>
      <trkpt lat="45.84403" lon="5.41912">
        <ele>216.2</ele>
        <time>2024-09-19T11:05:36Z</time>
      </trkpt>
      <trkpt lat="45.84398" lon="5.41912">
        <ele>216</ele>
        <time>2024-09-19T11:05:37Z</time>
      </trkpt>
      <trkpt lat="45.84393" lon="5.41912">
        <ele>215.6</ele>
        <time>2024-09-19T11:05:38Z</time>
      </trkpt>
      <trkpt lat="45.84388" lon="5.41912">
        <ele>215.6</ele>
        <time>2024-09-19T11:05:39Z</time>
      </trkpt>
      <trkpt lat="45.84383" lon="5.41912">
        <ele>215.4</ele>
        <time>2024-09-19T11:05:40Z</time>
      </trkpt>
      <trkpt lat="45.84379" lon="5.41912">
        <ele>215.4</ele>
        <time>2024-09-19T11:05:41Z</time>
      </trkpt>
      <trkpt lat="45.84374" lon="5.41911">
        <ele>215.8</ele>
        <time>2024-09-19T11:05:42Z</time>
      </trkpt>
      <trkpt lat="45.84369" lon="5.41911">
        <ele>215.6</ele>
        <time>2024-09-19T11:05:43Z</time>
      </trkpt>
      <trkpt lat="45.84364" lon="5.4191">
        <ele>216.4</ele>
        <time>2024-09-19T11:05:44Z</time>
      </trkpt>
      <trkpt lat="45.84359" lon="5.41909">
        <ele>217.2</ele>
        <time>2024-09-19T11:05:45Z</time>
      </trkpt>
      <trkpt lat="45.84354" lon="5.41908">
        <ele>216.6</ele>
        <time>2024-09-19T11:05:46Z</time>
      </trkpt>
      <trkpt lat="45.84349" lon="5.41907">
        <ele>217.2</ele>
        <time>2024-09-19T11:05:47Z</time>
      </trkpt>
      <trkpt lat="45.84344" lon="5.41907">
        <ele>217.2</ele>
        <time>2024-09-19T11:05:48Z</time>
      </trkpt>
      <trkpt lat="45.8434" lon="5.41907">
        <ele>217.2</ele>
        <time>2024-09-19T11:05:49Z</time>
      </trkpt>
      <trkpt lat="45.84335" lon="5.41906">
        <ele>216.8</ele>
        <time>2024-09-19T11:05:50Z</time>
      </trkpt>
      <trkpt lat="45.84331" lon="5.41906">
        <ele>216.8</ele>
        <time>2024-09-19T11:05:51Z</time>
      </trkpt>
      <trkpt lat="45.84326" lon="5.41906">
        <ele>217.2</ele>
        <time>2024-09-19T11:05:52Z</time>
      </trkpt>
      <trkpt lat="45.84321" lon="5.41906">
        <ele>217</ele>
        <time>2024-09-19T11:05:53Z</time>
      </trkpt>
      <trkpt lat="45.84316" lon="5.41905">
        <ele>217</ele>
        <time>2024-09-19T11:05:54Z</time>
      </trkpt>
      <trkpt lat="45.84311" lon="5.41905">
        <ele>216.8</ele>
        <time>2024-09-19T11:05:55Z</time>
      </trkpt>
      <trkpt lat="45.84307" lon="5.41905">
        <ele>216.8</ele>
        <time>2024-09-19T11:05:56Z</time>
      </trkpt>
      <trkpt lat="45.84302" lon="5.41904">
        <ele>216.8</ele>
        <time>2024-09-19T11:05:57Z</time>
      </trkpt>
      <trkpt lat="45.84297" lon="5.41904">
        <ele>216.8</ele>
        <time>2024-09-19T11:05:58Z</time>
      </trkpt>
      <trkpt lat="45.84292" lon="5.41903">
        <ele>216.4</ele>
        <time>2024-09-19T11:05:59Z</time>
      </trkpt>
      <trkpt lat="45.84287" lon="5.41903">
        <ele>216.4</ele>
        <time>2024-09-19T11:06:00Z</time>
      </trkpt>
      <trkpt lat="45.84282" lon="5.41903">
        <ele>216.6</ele>
        <time>2024-09-19T11:06:01Z</time>
      </trkpt>
      <trkpt lat="45.84277" lon="5.41902">
        <ele>216.2</ele>
        <time>2024-09-19T11:06:02Z</time>
      </trkpt>
      <trkpt lat="45.84272" lon="5.41902">
        <ele>216.4</ele>
        <time>2024-09-19T11:06:03Z</time>
      </trkpt>
      <trkpt lat="45.84267" lon="5.41901">
        <ele>216.8</ele>
        <time>2024-09-19T11:06:04Z</time>
      </trkpt>
      <trkpt lat="45.84262" lon="5.41901">
        <ele>216.6</ele>
        <time>2024-09-19T11:06:05Z</time>
      </trkpt>
      <trkpt lat="45.84257" lon="5.419">
        <ele>216.6</ele>
        <time>2024-09-19T11:06:06Z</time>
      </trkpt>
      <trkpt lat="45.84252" lon="5.41899">
        <ele>216.6</ele>
        <time>2024-09-19T11:06:07Z</time>
      </trkpt>
      <trkpt lat="45.84248" lon="5.41899">
        <ele>216.8</ele>
        <time>2024-09-19T11:06:08Z</time>
      </trkpt>
      <trkpt lat="45.84243" lon="5.41897">
        <ele>216.4</ele>
        <time>2024-09-19T11:06:09Z</time>
      </trkpt>
      <trkpt lat="45.84238" lon="5.41897">
        <ele>216.6</ele>
        <time>2024-09-19T11:06:10Z</time>
      </trkpt>
      <trkpt lat="45.84233" lon="5.41897">
        <ele>216.6</ele>
        <time>2024-09-19T11:06:11Z</time>
      </trkpt>
      <trkpt lat="45.84229" lon="5.41897">
        <ele>216</ele>
        <time>2024-09-19T11:06:12Z</time>
      </trkpt>
      <trkpt lat="45.84225" lon="5.41897">
        <ele>216.8</ele>
        <time>2024-09-19T11:06:13Z</time>
      </trkpt>
      <trkpt lat="45.8422" lon="5.41897">
        <ele>216</ele>
        <time>2024-09-19T11:06:14Z</time>
      </trkpt>
      <trkpt lat="45.84216" lon="5.41896">
        <ele>216</ele>
        <time>2024-09-19T11:06:15Z</time>
      </trkpt>
      <trkpt lat="45.84212" lon="5.41895">
        <ele>216</ele>
        <time>2024-09-19T11:06:16Z</time>
      </trkpt>
      <trkpt lat="45.84208" lon="5.41894">
        <ele>216</ele>
        <time>2024-09-19T11:06:17Z</time>
      </trkpt>
      <trkpt lat="45.84203" lon="5.41895">
        <ele>216</ele>
        <time>2024-09-19T11:06:18Z</time>
      </trkpt>
      <trkpt lat="45.84199" lon="5.41896">
        <ele>216</ele>
        <time>2024-09-19T11:06:19Z</time>
      </trkpt>
      <trkpt lat="45.84194" lon="5.41898">
        <ele>216</ele>
        <time>2024-09-19T11:06:20Z</time>
      </trkpt>
      <trkpt lat="45.8419" lon="5.41898">
        <ele>216</ele>
        <time>2024-09-19T11:06:21Z</time>
      </trkpt>
      <trkpt lat="45.84186" lon="5.41899">
        <ele>216</ele>
        <time>2024-09-19T11:06:22Z</time>
      </trkpt>
      <trkpt lat="45.84181" lon="5.419">
        <ele>216</ele>
        <time>2024-09-19T11:06:23Z</time>
      </trkpt>
      <trkpt lat="45.84176" lon="5.41902">
        <ele>216</ele>
        <time>2024-09-19T11:06:24Z</time>
      </trkpt>
      <trkpt lat="45.8417" lon="5.41903">
        <ele>216</ele>
        <time>2024-09-19T11:06:25Z</time>
      </trkpt>
      <trkpt lat="45.84165" lon="5.41905">
        <ele>216</ele>
        <time>2024-09-19T11:06:26Z</time>
      </trkpt>
      <trkpt lat="45.8416" lon="5.41907">
        <ele>216</ele>
        <time>2024-09-19T11:06:27Z</time>
      </trkpt>
      <trkpt lat="45.84156" lon="5.41908">
        <ele>216</ele>
        <time>2024-09-19T11:06:28Z</time>
      </trkpt>
      <trkpt lat="45.84151" lon="5.41911">
        <ele>216</ele>
        <time>2024-09-19T11:06:29Z</time>
      </trkpt>
      <trkpt lat="45.84146" lon="5.41914">
        <ele>216</ele>
        <time>2024-09-19T11:06:30Z</time>
      </trkpt>
      <trkpt lat="45.8414" lon="5.41916">
        <ele>216</ele>
        <time>2024-09-19T11:06:31Z</time>
      </trkpt>
      <trkpt lat="45.84135" lon="5.41919">
        <ele>216</ele>
        <time>2024-09-19T11:06:32Z</time>
      </trkpt>
      <trkpt lat="45.8413" lon="5.41922">
        <ele>216</ele>
        <time>2024-09-19T11:06:33Z</time>
      </trkpt>
      <trkpt lat="45.84125" lon="5.41925">
        <ele>216</ele>
        <time>2024-09-19T11:06:34Z</time>
      </trkpt>
      <trkpt lat="45.8412" lon="5.41928">
        <ele>216</ele>
        <time>2024-09-19T11:06:35Z</time>
      </trkpt>
      <trkpt lat="45.84115" lon="5.4193">
        <ele>216</ele>
        <time>2024-09-19T11:06:36Z</time>
      </trkpt>
      <trkpt lat="45.8411" lon="5.41934">
        <ele>216</ele>
        <time>2024-09-19T11:06:37Z</time>
      </trkpt>
      <trkpt lat="45.8411" lon="5.41934">
        <ele>216</ele>
        <time>2024-09-19T11:06:38Z</time>
      </trkpt>
      <trkpt lat="45.84105" lon="5.41937">
        <ele>216</ele>
        <time>2024-09-19T11:06:39Z</time>
      </trkpt>
      <trkpt lat="45.84099" lon="5.41941">
        <ele>216</ele>
        <time>2024-09-19T11:06:40Z</time>
      </trkpt>
      <trkpt lat="45.84094" lon="5.41944">
        <ele>216</ele>
        <time>2024-09-19T11:06:41Z</time>
      </trkpt>
      <trkpt lat="45.84089" lon="5.41947">
        <ele>216</ele>
        <time>2024-09-19T11:06:42Z</time>
      </trkpt>
      <trkpt lat="45.84083" lon="5.4195">
        <ele>215.8</ele>
        <time>2024-09-19T11:06:43Z</time>
      </trkpt>
      <trkpt lat="45.84077" lon="5.41953">
        <ele>215.8</ele>
        <time>2024-09-19T11:06:44Z</time>
      </trkpt>
      <trkpt lat="45.84072" lon="5.41956">
        <ele>215.8</ele>
        <time>2024-09-19T11:06:45Z</time>
      </trkpt>
      <trkpt lat="45.84067" lon="5.41959">
        <ele>215.8</ele>
        <time>2024-09-19T11:06:46Z</time>
      </trkpt>
      <trkpt lat="45.84061" lon="5.41963">
        <ele>215.6</ele>
        <time>2024-09-19T11:06:47Z</time>
      </trkpt>
      <trkpt lat="45.84056" lon="5.41967">
        <ele>215.6</ele>
        <time>2024-09-19T11:06:48Z</time>
      </trkpt>
      <trkpt lat="45.84051" lon="5.41971">
        <ele>215.6</ele>
        <time>2024-09-19T11:06:49Z</time>
      </trkpt>
      <trkpt lat="45.8404" lon="5.41979">
        <ele>215.6</ele>
        <time>2024-09-19T11:06:50Z</time>
      </trkpt>
      <trkpt lat="45.84036" lon="5.41983">
        <ele>215.6</ele>
        <time>2024-09-19T11:06:51Z</time>
      </trkpt>
      <trkpt lat="45.84031" lon="5.41988">
        <ele>215.6</ele>
        <time>2024-09-19T11:06:52Z</time>
      </trkpt>
      <trkpt lat="45.84028" lon="5.41993">
        <ele>215.6</ele>
        <time>2024-09-19T11:06:53Z</time>
      </trkpt>
      <trkpt lat="45.84024" lon="5.41997">
        <ele>215.6</ele>
        <time>2024-09-19T11:06:54Z</time>
      </trkpt>
      <trkpt lat="45.8402" lon="5.42002">
        <ele>215.6</ele>
        <time>2024-09-19T11:06:55Z</time>
      </trkpt>
      <trkpt lat="45.84016" lon="5.42007">
        <ele>215.6</ele>
        <time>2024-09-19T11:06:56Z</time>
      </trkpt>
      <trkpt lat="45.84012" lon="5.42011">
        <ele>215.6</ele>
        <time>2024-09-19T11:06:57Z</time>
      </trkpt>
      <trkpt lat="45.84008" lon="5.42016">
        <ele>215.6</ele>
        <time>2024-09-19T11:06:58Z</time>
      </trkpt>
      <trkpt lat="45.84003" lon="5.42021">
        <ele>215.6</ele>
        <time>2024-09-19T11:06:59Z</time>
      </trkpt>
      <trkpt lat="45.83999" lon="5.42027">
        <ele>215.6</ele>
        <time>2024-09-19T11:07:00Z</time>
      </trkpt>
      <trkpt lat="45.83995" lon="5.42033">
        <ele>215.6</ele>
        <time>2024-09-19T11:07:01Z</time>
      </trkpt>
      <trkpt lat="45.83991" lon="5.42039">
        <ele>215.2</ele>
        <time>2024-09-19T11:07:02Z</time>
      </trkpt>
      <trkpt lat="45.83987" lon="5.42045">
        <ele>215.2</ele>
        <time>2024-09-19T11:07:03Z</time>
      </trkpt>
      <trkpt lat="45.83984" lon="5.42051">
        <ele>215</ele>
        <time>2024-09-19T11:07:04Z</time>
      </trkpt>
      <trkpt lat="45.8398" lon="5.42058">
        <ele>214.6</ele>
        <time>2024-09-19T11:07:05Z</time>
      </trkpt>
      <trkpt lat="45.83977" lon="5.42065">
        <ele>214.6</ele>
        <time>2024-09-19T11:07:06Z</time>
      </trkpt>
      <trkpt lat="45.83974" lon="5.42074">
        <ele>214.2</ele>
        <time>2024-09-19T11:07:07Z</time>
      </trkpt>
      <trkpt lat="45.83971" lon="5.42082">
        <ele>214</ele>
        <time>2024-09-19T11:07:08Z</time>
      </trkpt>
      <trkpt lat="45.83968" lon="5.4209">
        <ele>213.8</ele>
        <time>2024-09-19T11:07:09Z</time>
      </trkpt>
      <trkpt lat="45.83966" lon="5.42098">
        <ele>213.8</ele>
        <time>2024-09-19T11:07:10Z</time>
      </trkpt>
      <trkpt lat="45.83963" lon="5.42105">
        <ele>213.8</ele>
        <time>2024-09-19T11:07:11Z</time>
      </trkpt>
      <trkpt lat="45.83961" lon="5.42113">
        <ele>213.8</ele>
        <time>2024-09-19T11:07:12Z</time>
      </trkpt>
      <trkpt lat="45.83958" lon="5.42121">
        <ele>213.8</ele>
        <time>2024-09-19T11:07:13Z</time>
      </trkpt>
      <trkpt lat="45.83956" lon="5.42129">
        <ele>213.8</ele>
        <time>2024-09-19T11:07:14Z</time>
      </trkpt>
      <trkpt lat="45.83953" lon="5.42137">
        <ele>213.8</ele>
        <time>2024-09-19T11:07:15Z</time>
      </trkpt>
      <trkpt lat="45.83951" lon="5.42146">
        <ele>213.4</ele>
        <time>2024-09-19T11:07:16Z</time>
      </trkpt>
      <trkpt lat="45.83949" lon="5.42154">
        <ele>213.4</ele>
        <time>2024-09-19T11:07:17Z</time>
      </trkpt>
      <trkpt lat="45.83946" lon="5.42162">
        <ele>213.4</ele>
        <time>2024-09-19T11:07:18Z</time>
      </trkpt>
      <trkpt lat="45.83943" lon="5.42169">
        <ele>213.6</ele>
        <time>2024-09-19T11:07:19Z</time>
      </trkpt>
      <trkpt lat="45.83941" lon="5.42177">
        <ele>213.6</ele>
        <time>2024-09-19T11:07:20Z</time>
      </trkpt>
      <trkpt lat="45.83939" lon="5.42185">
        <ele>213.6</ele>
        <time>2024-09-19T11:07:21Z</time>
      </trkpt>
      <trkpt lat="45.83937" lon="5.42193">
        <ele>213.6</ele>
        <time>2024-09-19T11:07:22Z</time>
      </trkpt>
      <trkpt lat="45.83935" lon="5.422">
        <ele>213.6</ele>
        <time>2024-09-19T11:07:23Z</time>
      </trkpt>
      <trkpt lat="45.83931" lon="5.42207">
        <ele>213.6</ele>
        <time>2024-09-19T11:07:24Z</time>
      </trkpt>
      <trkpt lat="45.8393" lon="5.42216">
        <ele>213.6</ele>
        <time>2024-09-19T11:07:25Z</time>
      </trkpt>
      <trkpt lat="45.83927" lon="5.42224">
        <ele>213.6</ele>
        <time>2024-09-19T11:07:26Z</time>
      </trkpt>
      <trkpt lat="45.83924" lon="5.42231">
        <ele>213.6</ele>
        <time>2024-09-19T11:07:27Z</time>
      </trkpt>
      <trkpt lat="45.83923" lon="5.42238">
        <ele>213.8</ele>
        <time>2024-09-19T11:07:28Z</time>
      </trkpt>
      <trkpt lat="45.8392" lon="5.42245">
        <ele>213.8</ele>
        <time>2024-09-19T11:07:29Z</time>
      </trkpt>
      <trkpt lat="45.83917" lon="5.42252">
        <ele>213.8</ele>
        <time>2024-09-19T11:07:30Z</time>
      </trkpt>
      <trkpt lat="45.83914" lon="5.4226">
        <ele>213.8</ele>
        <time>2024-09-19T11:07:31Z</time>
      </trkpt>
      <trkpt lat="45.83912" lon="5.42267">
        <ele>213.8</ele>
        <time>2024-09-19T11:07:32Z</time>
      </trkpt>
      <trkpt lat="45.8391" lon="5.42275">
        <ele>213.8</ele>
        <time>2024-09-19T11:07:33Z</time>
      </trkpt>
      <trkpt lat="45.83908" lon="5.42283">
        <ele>213.8</ele>
        <time>2024-09-19T11:07:34Z</time>
      </trkpt>
      <trkpt lat="45.83906" lon="5.42291">
        <ele>213.8</ele>
        <time>2024-09-19T11:07:35Z</time>
      </trkpt>
      <trkpt lat="45.83903" lon="5.42298">
        <ele>214</ele>
        <time>2024-09-19T11:07:36Z</time>
      </trkpt>
      <trkpt lat="45.83901" lon="5.42306">
        <ele>214</ele>
        <time>2024-09-19T11:07:37Z</time>
      </trkpt>
      <trkpt lat="45.83899" lon="5.42313">
        <ele>214</ele>
        <time>2024-09-19T11:07:38Z</time>
      </trkpt>
      <trkpt lat="45.83896" lon="5.42322">
        <ele>213.8</ele>
        <time>2024-09-19T11:07:39Z</time>
      </trkpt>
      <trkpt lat="45.83894" lon="5.42329">
        <ele>213.8</ele>
        <time>2024-09-19T11:07:40Z</time>
      </trkpt>
      <trkpt lat="45.83892" lon="5.42337">
        <ele>214.2</ele>
        <time>2024-09-19T11:07:41Z</time>
      </trkpt>
      <trkpt lat="45.8389" lon="5.42345">
        <ele>214.2</ele>
        <time>2024-09-19T11:07:42Z</time>
      </trkpt>
      <trkpt lat="45.83889" lon="5.42353">
        <ele>214.2</ele>
        <time>2024-09-19T11:07:43Z</time>
      </trkpt>
      <trkpt lat="45.83887" lon="5.42361">
        <ele>214.2</ele>
        <time>2024-09-19T11:07:44Z</time>
      </trkpt>
      <trkpt lat="45.83885" lon="5.4237">
        <ele>214.2</ele>
        <time>2024-09-19T11:07:45Z</time>
      </trkpt>
      <trkpt lat="45.83883" lon="5.42377">
        <ele>214.4</ele>
        <time>2024-09-19T11:07:46Z</time>
      </trkpt>
      <trkpt lat="45.83881" lon="5.42386">
        <ele>214.4</ele>
        <time>2024-09-19T11:07:47Z</time>
      </trkpt>
      <trkpt lat="45.83879" lon="5.42393">
        <ele>214.4</ele>
        <time>2024-09-19T11:07:48Z</time>
      </trkpt>
      <trkpt lat="45.83877" lon="5.42401">
        <ele>214.4</ele>
        <time>2024-09-19T11:07:49Z</time>
      </trkpt>
      <trkpt lat="45.83875" lon="5.42409">
        <ele>214.6</ele>
        <time>2024-09-19T11:07:50Z</time>
      </trkpt>
      <trkpt lat="45.83873" lon="5.42416">
        <ele>214.6</ele>
        <time>2024-09-19T11:07:51Z</time>
      </trkpt>
      <trkpt lat="45.83873" lon="5.42423">
        <ele>214.6</ele>
        <time>2024-09-19T11:07:52Z</time>
      </trkpt>
      <trkpt lat="45.83871" lon="5.42429">
        <ele>214.8</ele>
        <time>2024-09-19T11:07:53Z</time>
      </trkpt>
      <trkpt lat="45.83869" lon="5.42436">
        <ele>215.2</ele>
        <time>2024-09-19T11:07:54Z</time>
      </trkpt>
      <trkpt lat="45.83868" lon="5.42442">
        <ele>215.2</ele>
        <time>2024-09-19T11:07:55Z</time>
      </trkpt>
      <trkpt lat="45.83866" lon="5.42448">
        <ele>215.6</ele>
        <time>2024-09-19T11:07:56Z</time>
      </trkpt>
      <trkpt lat="45.83864" lon="5.42455">
        <ele>215.6</ele>
        <time>2024-09-19T11:07:57Z</time>
      </trkpt>
      <trkpt lat="45.83863" lon="5.42461">
        <ele>215.6</ele>
        <time>2024-09-19T11:07:58Z</time>
      </trkpt>
      <trkpt lat="45.83861" lon="5.42467">
        <ele>215.6</ele>
        <time>2024-09-19T11:07:59Z</time>
      </trkpt>
      <trkpt lat="45.83859" lon="5.42473">
        <ele>215.6</ele>
        <time>2024-09-19T11:08:00Z</time>
      </trkpt>
      <trkpt lat="45.83857" lon="5.42479">
        <ele>215.6</ele>
        <time>2024-09-19T11:08:01Z</time>
      </trkpt>
      <trkpt lat="45.83855" lon="5.42485">
        <ele>215.8</ele>
        <time>2024-09-19T11:08:02Z</time>
      </trkpt>
      <trkpt lat="45.83854" lon="5.42491">
        <ele>215.8</ele>
        <time>2024-09-19T11:08:03Z</time>
      </trkpt>
      <trkpt lat="45.8385" lon="5.42498">
        <ele>215.8</ele>
        <time>2024-09-19T11:08:04Z</time>
      </trkpt>
      <trkpt lat="45.83848" lon="5.42504">
        <ele>215.8</ele>
        <time>2024-09-19T11:08:05Z</time>
      </trkpt>
      <trkpt lat="45.83846" lon="5.4251">
        <ele>215.8</ele>
        <time>2024-09-19T11:08:06Z</time>
      </trkpt>
      <trkpt lat="45.83845" lon="5.42516">
        <ele>215.6</ele>
        <time>2024-09-19T11:08:07Z</time>
      </trkpt>
      <trkpt lat="45.83842" lon="5.42523">
        <ele>215.6</ele>
        <time>2024-09-19T11:08:08Z</time>
      </trkpt>
      <trkpt lat="45.8384" lon="5.4253">
        <ele>215.6</ele>
        <time>2024-09-19T11:08:09Z</time>
      </trkpt>
      <trkpt lat="45.83837" lon="5.42538">
        <ele>215.6</ele>
        <time>2024-09-19T11:08:10Z</time>
      </trkpt>
      <trkpt lat="45.83834" lon="5.42545">
        <ele>215.4</ele>
        <time>2024-09-19T11:08:11Z</time>
      </trkpt>
      <trkpt lat="45.83831" lon="5.42552">
        <ele>215</ele>
        <time>2024-09-19T11:08:12Z</time>
      </trkpt>
      <trkpt lat="45.83828" lon="5.4256">
        <ele>214.8</ele>
        <time>2024-09-19T11:08:13Z</time>
      </trkpt>
      <trkpt lat="45.83825" lon="5.42568">
        <ele>214.6</ele>
        <time>2024-09-19T11:08:14Z</time>
      </trkpt>
      <trkpt lat="45.83824" lon="5.42578">
        <ele>214.6</ele>
        <time>2024-09-19T11:08:15Z</time>
      </trkpt>
      <trkpt lat="45.83822" lon="5.42586">
        <ele>214.4</ele>
        <time>2024-09-19T11:08:16Z</time>
      </trkpt>
      <trkpt lat="45.8382" lon="5.42593">
        <ele>214.4</ele>
        <time>2024-09-19T11:08:17Z</time>
      </trkpt>
      <trkpt lat="45.83817" lon="5.42603">
        <ele>214</ele>
        <time>2024-09-19T11:08:18Z</time>
      </trkpt>
      <trkpt lat="45.83815" lon="5.42611">
        <ele>214</ele>
        <time>2024-09-19T11:08:19Z</time>
      </trkpt>
      <trkpt lat="45.83813" lon="5.42619">
        <ele>213.8</ele>
        <time>2024-09-19T11:08:20Z</time>
      </trkpt>
      <trkpt lat="45.83811" lon="5.42628">
        <ele>213.8</ele>
        <time>2024-09-19T11:08:21Z</time>
      </trkpt>
      <trkpt lat="45.83808" lon="5.42636">
        <ele>213.6</ele>
        <time>2024-09-19T11:08:22Z</time>
      </trkpt>
      <trkpt lat="45.83808" lon="5.42644">
        <ele>213.6</ele>
        <time>2024-09-19T11:08:23Z</time>
      </trkpt>
      <trkpt lat="45.83806" lon="5.42653">
        <ele>213.6</ele>
        <time>2024-09-19T11:08:24Z</time>
      </trkpt>
      <trkpt lat="45.83805" lon="5.42662">
        <ele>213.6</ele>
        <time>2024-09-19T11:08:25Z</time>
      </trkpt>
      <trkpt lat="45.83804" lon="5.4267">
        <ele>213.6</ele>
        <time>2024-09-19T11:08:26Z</time>
      </trkpt>
      <trkpt lat="45.83804" lon="5.42677">
        <ele>213.6</ele>
        <time>2024-09-19T11:08:27Z</time>
      </trkpt>
      <trkpt lat="45.83803" lon="5.42686">
        <ele>213.6</ele>
        <time>2024-09-19T11:08:28Z</time>
      </trkpt>
      <trkpt lat="45.83801" lon="5.42694">
        <ele>213.6</ele>
        <time>2024-09-19T11:08:29Z</time>
      </trkpt>
      <trkpt lat="45.838" lon="5.42702">
        <ele>213.6</ele>
        <time>2024-09-19T11:08:30Z</time>
      </trkpt>
      <trkpt lat="45.83798" lon="5.4271">
        <ele>213.6</ele>
        <time>2024-09-19T11:08:31Z</time>
      </trkpt>
      <trkpt lat="45.83797" lon="5.42718">
        <ele>213.6</ele>
        <time>2024-09-19T11:08:32Z</time>
      </trkpt>
      <trkpt lat="45.83796" lon="5.42726">
        <ele>213.6</ele>
        <time>2024-09-19T11:08:33Z</time>
      </trkpt>
      <trkpt lat="45.83794" lon="5.42734">
        <ele>213.6</ele>
        <time>2024-09-19T11:08:34Z</time>
      </trkpt>
      <trkpt lat="45.83793" lon="5.42743">
        <ele>213.6</ele>
        <time>2024-09-19T11:08:35Z</time>
      </trkpt>
      <trkpt lat="45.83792" lon="5.42752">
        <ele>213.6</ele>
        <time>2024-09-19T11:08:36Z</time>
      </trkpt>
      <trkpt lat="45.83791" lon="5.42759">
        <ele>213.6</ele>
        <time>2024-09-19T11:08:37Z</time>
      </trkpt>
      <trkpt lat="45.83789" lon="5.42767">
        <ele>213.8</ele>
        <time>2024-09-19T11:08:38Z</time>
      </trkpt>
      <trkpt lat="45.83787" lon="5.42775">
        <ele>213.8</ele>
        <time>2024-09-19T11:08:39Z</time>
      </trkpt>
      <trkpt lat="45.83786" lon="5.42783">
        <ele>213.8</ele>
        <time>2024-09-19T11:08:40Z</time>
      </trkpt>
      <trkpt lat="45.83784" lon="5.4279">
        <ele>214</ele>
        <time>2024-09-19T11:08:41Z</time>
      </trkpt>
      <trkpt lat="45.83782" lon="5.42797">
        <ele>214</ele>
        <time>2024-09-19T11:08:42Z</time>
      </trkpt>
      <trkpt lat="45.8378" lon="5.42805">
        <ele>214</ele>
        <time>2024-09-19T11:08:43Z</time>
      </trkpt>
      <trkpt lat="45.83778" lon="5.42813">
        <ele>214</ele>
        <time>2024-09-19T11:08:44Z</time>
      </trkpt>
      <trkpt lat="45.83777" lon="5.4282">
        <ele>214</ele>
        <time>2024-09-19T11:08:45Z</time>
      </trkpt>
      <trkpt lat="45.83774" lon="5.42827">
        <ele>214</ele>
        <time>2024-09-19T11:08:46Z</time>
      </trkpt>
      <trkpt lat="45.83772" lon="5.42835">
        <ele>213.6</ele>
        <time>2024-09-19T11:08:47Z</time>
      </trkpt>
      <trkpt lat="45.8377" lon="5.42843">
        <ele>213.6</ele>
        <time>2024-09-19T11:08:48Z</time>
      </trkpt>
      <trkpt lat="45.83768" lon="5.42851">
        <ele>213.6</ele>
        <time>2024-09-19T11:08:49Z</time>
      </trkpt>
      <trkpt lat="45.83766" lon="5.42858">
        <ele>213.6</ele>
        <time>2024-09-19T11:08:50Z</time>
      </trkpt>
      <trkpt lat="45.83764" lon="5.42866">
        <ele>213.4</ele>
        <time>2024-09-19T11:08:51Z</time>
      </trkpt>
      <trkpt lat="45.83761" lon="5.42873">
        <ele>213.4</ele>
        <time>2024-09-19T11:08:52Z</time>
      </trkpt>
      <trkpt lat="45.83759" lon="5.42881">
        <ele>213.4</ele>
        <time>2024-09-19T11:08:53Z</time>
      </trkpt>
      <trkpt lat="45.83756" lon="5.42889">
        <ele>213.4</ele>
        <time>2024-09-19T11:08:54Z</time>
      </trkpt>
      <trkpt lat="45.83753" lon="5.42896">
        <ele>213.4</ele>
        <time>2024-09-19T11:08:55Z</time>
      </trkpt>
      <trkpt lat="45.83751" lon="5.42904">
        <ele>213.4</ele>
        <time>2024-09-19T11:08:56Z</time>
      </trkpt>
      <trkpt lat="45.83749" lon="5.42911">
        <ele>213.4</ele>
        <time>2024-09-19T11:08:57Z</time>
      </trkpt>
      <trkpt lat="45.83746" lon="5.42919">
        <ele>213.4</ele>
        <time>2024-09-19T11:08:58Z</time>
      </trkpt>
      <trkpt lat="45.83743" lon="5.42927">
        <ele>213.4</ele>
        <time>2024-09-19T11:08:59Z</time>
      </trkpt>
      <trkpt lat="45.8374" lon="5.42935">
        <ele>213.4</ele>
        <time>2024-09-19T11:09:00Z</time>
      </trkpt>
      <trkpt lat="45.83738" lon="5.42942">
        <ele>213.4</ele>
        <time>2024-09-19T11:09:01Z</time>
      </trkpt>
      <trkpt lat="45.83736" lon="5.4295">
        <ele>213.2</ele>
        <time>2024-09-19T11:09:02Z</time>
      </trkpt>
      <trkpt lat="45.83734" lon="5.42958">
        <ele>213.2</ele>
        <time>2024-09-19T11:09:03Z</time>
      </trkpt>
      <trkpt lat="45.83731" lon="5.42966">
        <ele>213.2</ele>
        <time>2024-09-19T11:09:04Z</time>
      </trkpt>
      <trkpt lat="45.83728" lon="5.42973">
        <ele>213.2</ele>
        <time>2024-09-19T11:09:05Z</time>
      </trkpt>
      <trkpt lat="45.83725" lon="5.42981">
        <ele>213.2</ele>
        <time>2024-09-19T11:09:06Z</time>
      </trkpt>
      <trkpt lat="45.83722" lon="5.42988">
        <ele>213.2</ele>
        <time>2024-09-19T11:09:07Z</time>
      </trkpt>
      <trkpt lat="45.83719" lon="5.42995">
        <ele>213.2</ele>
        <time>2024-09-19T11:09:08Z</time>
      </trkpt>
      <trkpt lat="45.83716" lon="5.43003">
        <ele>213.2</ele>
        <time>2024-09-19T11:09:09Z</time>
      </trkpt>
      <trkpt lat="45.83713" lon="5.4301">
        <ele>213.2</ele>
        <time>2024-09-19T11:09:10Z</time>
      </trkpt>
      <trkpt lat="45.83709" lon="5.43017">
        <ele>213.4</ele>
        <time>2024-09-19T11:09:11Z</time>
      </trkpt>
      <trkpt lat="45.83705" lon="5.43023">
        <ele>213.6</ele>
        <time>2024-09-19T11:09:12Z</time>
      </trkpt>
      <trkpt lat="45.83702" lon="5.43028">
        <ele>213.6</ele>
        <time>2024-09-19T11:09:13Z</time>
      </trkpt>
      <trkpt lat="45.83699" lon="5.43035">
        <ele>214</ele>
        <time>2024-09-19T11:09:14Z</time>
      </trkpt>
      <trkpt lat="45.83696" lon="5.43041">
        <ele>214</ele>
        <time>2024-09-19T11:09:15Z</time>
      </trkpt>
      <trkpt lat="45.83692" lon="5.43047">
        <ele>214</ele>
        <time>2024-09-19T11:09:16Z</time>
      </trkpt>
      <trkpt lat="45.83688" lon="5.43053">
        <ele>214</ele>
        <time>2024-09-19T11:09:17Z</time>
      </trkpt>
      <trkpt lat="45.83684" lon="5.4306">
        <ele>214</ele>
        <time>2024-09-19T11:09:18Z</time>
      </trkpt>
      <trkpt lat="45.83681" lon="5.43066">
        <ele>214</ele>
        <time>2024-09-19T11:09:19Z</time>
      </trkpt>
      <trkpt lat="45.83677" lon="5.43074">
        <ele>214</ele>
        <time>2024-09-19T11:09:20Z</time>
      </trkpt>
      <trkpt lat="45.83673" lon="5.4308">
        <ele>214</ele>
        <time>2024-09-19T11:09:21Z</time>
      </trkpt>
      <trkpt lat="45.83669" lon="5.43087">
        <ele>213.8</ele>
        <time>2024-09-19T11:09:22Z</time>
      </trkpt>
      <trkpt lat="45.83666" lon="5.43094">
        <ele>213.8</ele>
        <time>2024-09-19T11:09:23Z</time>
      </trkpt>
      <trkpt lat="45.83662" lon="5.43101">
        <ele>213.8</ele>
        <time>2024-09-19T11:09:24Z</time>
      </trkpt>
      <trkpt lat="45.83662" lon="5.43101">
        <ele>213.8</ele>
        <time>2024-09-19T11:09:25Z</time>
      </trkpt>
      <trkpt lat="45.83659" lon="5.43108">
        <ele>213.4</ele>
        <time>2024-09-19T11:09:26Z</time>
      </trkpt>
      <trkpt lat="45.83655" lon="5.43115">
        <ele>213.4</ele>
        <time>2024-09-19T11:09:27Z</time>
      </trkpt>
      <trkpt lat="45.83651" lon="5.43121">
        <ele>213.4</ele>
        <time>2024-09-19T11:09:28Z</time>
      </trkpt>
      <trkpt lat="45.83648" lon="5.43128">
        <ele>213.4</ele>
        <time>2024-09-19T11:09:29Z</time>
      </trkpt>
      <trkpt lat="45.83644" lon="5.43133">
        <ele>213.4</ele>
        <time>2024-09-19T11:09:30Z</time>
      </trkpt>
      <trkpt lat="45.83641" lon="5.43139">
        <ele>213.6</ele>
        <time>2024-09-19T11:09:31Z</time>
      </trkpt>
      <trkpt lat="45.83637" lon="5.43145">
        <ele>213.6</ele>
        <time>2024-09-19T11:09:32Z</time>
      </trkpt>
      <trkpt lat="45.83635" lon="5.43151">
        <ele>213.6</ele>
        <time>2024-09-19T11:09:33Z</time>
      </trkpt>
      <trkpt lat="45.83632" lon="5.43156">
        <ele>213.6</ele>
        <time>2024-09-19T11:09:34Z</time>
      </trkpt>
      <trkpt lat="45.83629" lon="5.43162">
        <ele>213.6</ele>
        <time>2024-09-19T11:09:35Z</time>
      </trkpt>
      <trkpt lat="45.83622" lon="5.43173">
        <ele>213.8</ele>
        <time>2024-09-19T11:09:36Z</time>
      </trkpt>
      <trkpt lat="45.83619" lon="5.43177">
        <ele>213.8</ele>
        <time>2024-09-19T11:09:37Z</time>
      </trkpt>
      <trkpt lat="45.83616" lon="5.43182">
        <ele>214.2</ele>
        <time>2024-09-19T11:09:38Z</time>
      </trkpt>
      <trkpt lat="45.83613" lon="5.43187">
        <ele>214.2</ele>
        <time>2024-09-19T11:09:39Z</time>
      </trkpt>
      <trkpt lat="45.83611" lon="5.43192">
        <ele>214.8</ele>
        <time>2024-09-19T11:09:40Z</time>
      </trkpt>
      <trkpt lat="45.83609" lon="5.43197">
        <ele>214.8</ele>
        <time>2024-09-19T11:09:41Z</time>
      </trkpt>
      <trkpt lat="45.83607" lon="5.43203">
        <ele>214.8</ele>
        <time>2024-09-19T11:09:42Z</time>
      </trkpt>
      <trkpt lat="45.83605" lon="5.43207">
        <ele>213.8</ele>
        <time>2024-09-19T11:09:43Z</time>
      </trkpt>
      <trkpt lat="45.83602" lon="5.43212">
        <ele>214.2</ele>
        <time>2024-09-19T11:09:44Z</time>
      </trkpt>
      <trkpt lat="45.836" lon="5.43215">
        <ele>214.6</ele>
        <time>2024-09-19T11:09:45Z</time>
      </trkpt>
      <trkpt lat="45.83597" lon="5.43219">
        <ele>214.6</ele>
        <time>2024-09-19T11:09:46Z</time>
      </trkpt>
      <trkpt lat="45.83595" lon="5.43222">
        <ele>214.6</ele>
        <time>2024-09-19T11:09:47Z</time>
      </trkpt>
      <trkpt lat="45.83592" lon="5.43225">
        <ele>214.6</ele>
        <time>2024-09-19T11:09:48Z</time>
      </trkpt>
      <trkpt lat="45.83589" lon="5.43228">
        <ele>214.6</ele>
        <time>2024-09-19T11:09:49Z</time>
      </trkpt>
      <trkpt lat="45.83586" lon="5.4323">
        <ele>214.4</ele>
        <time>2024-09-19T11:09:50Z</time>
      </trkpt>
      <trkpt lat="45.83585" lon="5.43233">
        <ele>214.4</ele>
        <time>2024-09-19T11:09:51Z</time>
      </trkpt>
      <trkpt lat="45.83584" lon="5.43236">
        <ele>214.6</ele>
        <time>2024-09-19T11:09:52Z</time>
      </trkpt>
      <trkpt lat="45.83584" lon="5.43239">
        <ele>214.6</ele>
        <time>2024-09-19T11:09:53Z</time>
      </trkpt>
      <trkpt lat="45.83586" lon="5.43242">
        <ele>214.6</ele>
        <time>2024-09-19T11:09:54Z</time>
      </trkpt>
      <trkpt lat="45.8359" lon="5.43244">
        <ele>214.4</ele>
        <time>2024-09-19T11:09:55Z</time>
      </trkpt>
      <trkpt lat="45.83593" lon="5.43244">
        <ele>214.4</ele>
        <time>2024-09-19T11:09:56Z</time>
      </trkpt>
      <trkpt lat="45.83596" lon="5.43245">
        <ele>214.2</ele>
        <time>2024-09-19T11:09:57Z</time>
      </trkpt>
      <trkpt lat="45.83599" lon="5.43245">
        <ele>214.2</ele>
        <time>2024-09-19T11:09:58Z</time>
      </trkpt>
      <trkpt lat="45.83602" lon="5.43246">
        <ele>214.4</ele>
        <time>2024-09-19T11:09:59Z</time>
      </trkpt>
      <trkpt lat="45.83605" lon="5.43249">
        <ele>214.4</ele>
        <time>2024-09-19T11:10:00Z</time>
      </trkpt>
      <trkpt lat="45.83607" lon="5.43253">
        <ele>214.4</ele>
        <time>2024-09-19T11:10:01Z</time>
      </trkpt>
      <trkpt lat="45.83608" lon="5.43258">
        <ele>214.4</ele>
        <time>2024-09-19T11:10:02Z</time>
      </trkpt>
      <trkpt lat="45.83607" lon="5.43265">
        <ele>214</ele>
        <time>2024-09-19T11:10:03Z</time>
      </trkpt>
      <trkpt lat="45.83606" lon="5.43272">
        <ele>213.8</ele>
        <time>2024-09-19T11:10:04Z</time>
      </trkpt>
      <trkpt lat="45.83604" lon="5.43279">
        <ele>213.4</ele>
        <time>2024-09-19T11:10:05Z</time>
      </trkpt>
      <trkpt lat="45.83602" lon="5.43288">
        <ele>213</ele>
        <time>2024-09-19T11:10:06Z</time>
      </trkpt>
      <trkpt lat="45.836" lon="5.43295">
        <ele>212.8</ele>
        <time>2024-09-19T11:10:07Z</time>
      </trkpt>
      <trkpt lat="45.83597" lon="5.43302">
        <ele>212.4</ele>
        <time>2024-09-19T11:10:08Z</time>
      </trkpt>
      <trkpt lat="45.83594" lon="5.4331">
        <ele>211.8</ele>
        <time>2024-09-19T11:10:09Z</time>
      </trkpt>
      <trkpt lat="45.8359" lon="5.43315">
        <ele>211.4</ele>
        <time>2024-09-19T11:10:10Z</time>
      </trkpt>
      <trkpt lat="45.83586" lon="5.43322">
        <ele>211.2</ele>
        <time>2024-09-19T11:10:11Z</time>
      </trkpt>
      <trkpt lat="45.8358" lon="5.43322">
        <ele>210.8</ele>
        <time>2024-09-19T11:10:12Z</time>
      </trkpt>
      <trkpt lat="45.83576" lon="5.43326">
        <ele>210.8</ele>
        <time>2024-09-19T11:10:13Z</time>
      </trkpt>
      <trkpt lat="45.83571" lon="5.4333">
        <ele>210.4</ele>
        <time>2024-09-19T11:10:14Z</time>
      </trkpt>
      <trkpt lat="45.83566" lon="5.43334">
        <ele>210.4</ele>
        <time>2024-09-19T11:10:15Z</time>
      </trkpt>
      <trkpt lat="45.83562" lon="5.43338">
        <ele>211.2</ele>
        <time>2024-09-19T11:10:16Z</time>
      </trkpt>
      <trkpt lat="45.83557" lon="5.43343">
        <ele>211</ele>
        <time>2024-09-19T11:10:17Z</time>
      </trkpt>
      <trkpt lat="45.83553" lon="5.43347">
        <ele>211</ele>
        <time>2024-09-19T11:10:18Z</time>
      </trkpt>
      <trkpt lat="45.83549" lon="5.43351">
        <ele>211</ele>
        <time>2024-09-19T11:10:19Z</time>
      </trkpt>
      <trkpt lat="45.83545" lon="5.43356">
        <ele>211</ele>
        <time>2024-09-19T11:10:20Z</time>
      </trkpt>
      <trkpt lat="45.83541" lon="5.43361">
        <ele>210.6</ele>
        <time>2024-09-19T11:10:21Z</time>
      </trkpt>
      <trkpt lat="45.83536" lon="5.43365">
        <ele>209.8</ele>
        <time>2024-09-19T11:10:22Z</time>
      </trkpt>
      <trkpt lat="45.83533" lon="5.4337">
        <ele>210.4</ele>
        <time>2024-09-19T11:10:23Z</time>
      </trkpt>
      <trkpt lat="45.83529" lon="5.43374">
        <ele>210.4</ele>
        <time>2024-09-19T11:10:24Z</time>
      </trkpt>
      <trkpt lat="45.83525" lon="5.43378">
        <ele>208.8</ele>
        <time>2024-09-19T11:10:25Z</time>
      </trkpt>
      <trkpt lat="45.83521" lon="5.43382">
        <ele>209.4</ele>
        <time>2024-09-19T11:10:26Z</time>
      </trkpt>
      <trkpt lat="45.83517" lon="5.43386">
        <ele>210.2</ele>
        <time>2024-09-19T11:10:27Z</time>
      </trkpt>
      <trkpt lat="45.83513" lon="5.43389">
        <ele>210.6</ele>
        <time>2024-09-19T11:10:28Z</time>
      </trkpt>
      <trkpt lat="45.83509" lon="5.43393">
        <ele>211</ele>
        <time>2024-09-19T11:10:29Z</time>
      </trkpt>
      <trkpt lat="45.83505" lon="5.43397">
        <ele>212</ele>
        <time>2024-09-19T11:10:30Z</time>
      </trkpt>
      <trkpt lat="45.83502" lon="5.43402">
        <ele>212.6</ele>
        <time>2024-09-19T11:10:31Z</time>
      </trkpt>
      <trkpt lat="45.83498" lon="5.43406">
        <ele>212</ele>
        <time>2024-09-19T11:10:32Z</time>
      </trkpt>
      <trkpt lat="45.83495" lon="5.4341">
        <ele>212</ele>
        <time>2024-09-19T11:10:33Z</time>
      </trkpt>
      <trkpt lat="45.83492" lon="5.43412">
        <ele>212</ele>
        <time>2024-09-19T11:10:34Z</time>
      </trkpt>
      <trkpt lat="45.83489" lon="5.43414">
        <ele>211.8</ele>
        <time>2024-09-19T11:10:35Z</time>
      </trkpt>
      <trkpt lat="45.83486" lon="5.43417">
        <ele>211.8</ele>
        <time>2024-09-19T11:10:36Z</time>
      </trkpt>
      <trkpt lat="45.83483" lon="5.4342">
        <ele>211.8</ele>
        <time>2024-09-19T11:10:37Z</time>
      </trkpt>
      <trkpt lat="45.8348" lon="5.43424">
        <ele>211.4</ele>
        <time>2024-09-19T11:10:38Z</time>
      </trkpt>
      <trkpt lat="45.83477" lon="5.43427">
        <ele>211.6</ele>
        <time>2024-09-19T11:10:39Z</time>
      </trkpt>
      <trkpt lat="45.83474" lon="5.4343">
        <ele>211.6</ele>
        <time>2024-09-19T11:10:40Z</time>
      </trkpt>
      <trkpt lat="45.83471" lon="5.43432">
        <ele>211.6</ele>
        <time>2024-09-19T11:10:41Z</time>
      </trkpt>
      <trkpt lat="45.83468" lon="5.43435">
        <ele>211.4</ele>
        <time>2024-09-19T11:10:42Z</time>
      </trkpt>
      <trkpt lat="45.83466" lon="5.43437">
        <ele>211.8</ele>
        <time>2024-09-19T11:10:43Z</time>
      </trkpt>
      <trkpt lat="45.83463" lon="5.4344">
        <ele>211.8</ele>
        <time>2024-09-19T11:10:44Z</time>
      </trkpt>
      <trkpt lat="45.83461" lon="5.43442">
        <ele>211.8</ele>
        <time>2024-09-19T11:10:45Z</time>
      </trkpt>
      <trkpt lat="45.83459" lon="5.43444">
        <ele>211.8</ele>
        <time>2024-09-19T11:10:46Z</time>
      </trkpt>
      <trkpt lat="45.83457" lon="5.43446">
        <ele>211.8</ele>
        <time>2024-09-19T11:10:47Z</time>
      </trkpt>
      <trkpt lat="45.83455" lon="5.43448">
        <ele>211.8</ele>
        <time>2024-09-19T11:10:48Z</time>
      </trkpt>
      <trkpt lat="45.83453" lon="5.43451">
        <ele>212.2</ele>
        <time>2024-09-19T11:10:49Z</time>
      </trkpt>
      <trkpt lat="45.83451" lon="5.43453">
        <ele>212.2</ele>
        <time>2024-09-19T11:10:50Z</time>
      </trkpt>
      <trkpt lat="45.83449" lon="5.43456">
        <ele>212.2</ele>
        <time>2024-09-19T11:10:51Z</time>
      </trkpt>
      <trkpt lat="45.83447" lon="5.43458">
        <ele>212.2</ele>
        <time>2024-09-19T11:10:52Z</time>
      </trkpt>
      <trkpt lat="45.83445" lon="5.43459">
        <ele>211.8</ele>
        <time>2024-09-19T11:10:53Z</time>
      </trkpt>
      <trkpt lat="45.83443" lon="5.43461">
        <ele>211.8</ele>
        <time>2024-09-19T11:10:54Z</time>
      </trkpt>
      <trkpt lat="45.83441" lon="5.43463">
        <ele>212.4</ele>
        <time>2024-09-19T11:10:55Z</time>
      </trkpt>
      <trkpt lat="45.83438" lon="5.43466">
        <ele>212.4</ele>
        <time>2024-09-19T11:10:56Z</time>
      </trkpt>
      <trkpt lat="45.83435" lon="5.43469">
        <ele>212.2</ele>
        <time>2024-09-19T11:10:57Z</time>
      </trkpt>
      <trkpt lat="45.83432" lon="5.43472">
        <ele>212.2</ele>
        <time>2024-09-19T11:10:58Z</time>
      </trkpt>
      <trkpt lat="45.83429" lon="5.43476">
        <ele>212</ele>
        <time>2024-09-19T11:10:59Z</time>
      </trkpt>
      <trkpt lat="45.83426" lon="5.43479">
        <ele>212</ele>
        <time>2024-09-19T11:11:00Z</time>
      </trkpt>
      <trkpt lat="45.83423" lon="5.43484">
        <ele>211.2</ele>
        <time>2024-09-19T11:11:01Z</time>
      </trkpt>
      <trkpt lat="45.8342" lon="5.43487">
        <ele>211</ele>
        <time>2024-09-19T11:11:02Z</time>
      </trkpt>
      <trkpt lat="45.83416" lon="5.43491">
        <ele>211</ele>
        <time>2024-09-19T11:11:03Z</time>
      </trkpt>
      <trkpt lat="45.83413" lon="5.43495">
        <ele>211</ele>
        <time>2024-09-19T11:11:04Z</time>
      </trkpt>
      <trkpt lat="45.83409" lon="5.43498">
        <ele>210.8</ele>
        <time>2024-09-19T11:11:05Z</time>
      </trkpt>
      <trkpt lat="45.83405" lon="5.43501">
        <ele>210.8</ele>
        <time>2024-09-19T11:11:06Z</time>
      </trkpt>
      <trkpt lat="45.83401" lon="5.43503">
        <ele>211.2</ele>
        <time>2024-09-19T11:11:07Z</time>
      </trkpt>
      <trkpt lat="45.83397" lon="5.43507">
        <ele>211.2</ele>
        <time>2024-09-19T11:11:08Z</time>
      </trkpt>
      <trkpt lat="45.83392" lon="5.4351">
        <ele>211.8</ele>
        <time>2024-09-19T11:11:09Z</time>
      </trkpt>
      <trkpt lat="45.83388" lon="5.43513">
        <ele>211.4</ele>
        <time>2024-09-19T11:11:10Z</time>
      </trkpt>
      <trkpt lat="45.83384" lon="5.43519">
        <ele>212.4</ele>
        <time>2024-09-19T11:11:11Z</time>
      </trkpt>
      <trkpt lat="45.8338" lon="5.43522">
        <ele>212.8</ele>
        <time>2024-09-19T11:11:12Z</time>
      </trkpt>
      <trkpt lat="45.83375" lon="5.43527">
        <ele>213</ele>
        <time>2024-09-19T11:11:13Z</time>
      </trkpt>
      <trkpt lat="45.8337" lon="5.43532">
        <ele>213</ele>
        <time>2024-09-19T11:11:14Z</time>
      </trkpt>
      <trkpt lat="45.83366" lon="5.43536">
        <ele>213.6</ele>
        <time>2024-09-19T11:11:15Z</time>
      </trkpt>
      <trkpt lat="45.83361" lon="5.4354">
        <ele>213</ele>
        <time>2024-09-19T11:11:16Z</time>
      </trkpt>
      <trkpt lat="45.83356" lon="5.43544">
        <ele>212.2</ele>
        <time>2024-09-19T11:11:17Z</time>
      </trkpt>
      <trkpt lat="45.83351" lon="5.43549">
        <ele>211.8</ele>
        <time>2024-09-19T11:11:18Z</time>
      </trkpt>
      <trkpt lat="45.83346" lon="5.43553">
        <ele>211.8</ele>
        <time>2024-09-19T11:11:19Z</time>
      </trkpt>
      <trkpt lat="45.83341" lon="5.43557">
        <ele>212.8</ele>
        <time>2024-09-19T11:11:20Z</time>
      </trkpt>
      <trkpt lat="45.83336" lon="5.43563">
        <ele>212.2</ele>
        <time>2024-09-19T11:11:21Z</time>
      </trkpt>
      <trkpt lat="45.83332" lon="5.43568">
        <ele>211.2</ele>
        <time>2024-09-19T11:11:22Z</time>
      </trkpt>
      <trkpt lat="45.83326" lon="5.43572">
        <ele>211.2</ele>
        <time>2024-09-19T11:11:23Z</time>
      </trkpt>
      <trkpt lat="45.83322" lon="5.43576">
        <ele>212</ele>
        <time>2024-09-19T11:11:24Z</time>
      </trkpt>
      <trkpt lat="45.83317" lon="5.43581">
        <ele>212</ele>
        <time>2024-09-19T11:11:25Z</time>
      </trkpt>
      <trkpt lat="45.83313" lon="5.43586">
        <ele>211.2</ele>
        <time>2024-09-19T11:11:26Z</time>
      </trkpt>
      <trkpt lat="45.83308" lon="5.43591">
        <ele>211.8</ele>
        <time>2024-09-19T11:11:27Z</time>
      </trkpt>
      <trkpt lat="45.83303" lon="5.43595">
        <ele>211.8</ele>
        <time>2024-09-19T11:11:28Z</time>
      </trkpt>
      <trkpt lat="45.83298" lon="5.43599">
        <ele>211.8</ele>
        <time>2024-09-19T11:11:29Z</time>
      </trkpt>
      <trkpt lat="45.83293" lon="5.43603">
        <ele>212.2</ele>
        <time>2024-09-19T11:11:30Z</time>
      </trkpt>
      <trkpt lat="45.83289" lon="5.43608">
        <ele>212.2</ele>
        <time>2024-09-19T11:11:31Z</time>
      </trkpt>
      <trkpt lat="45.83284" lon="5.43613">
        <ele>212.2</ele>
        <time>2024-09-19T11:11:32Z</time>
      </trkpt>
      <trkpt lat="45.83279" lon="5.43617">
        <ele>210.8</ele>
        <time>2024-09-19T11:11:33Z</time>
      </trkpt>
      <trkpt lat="45.83275" lon="5.43621">
        <ele>211.2</ele>
        <time>2024-09-19T11:11:34Z</time>
      </trkpt>
      <trkpt lat="45.8327" lon="5.43626">
        <ele>211.4</ele>
        <time>2024-09-19T11:11:35Z</time>
      </trkpt>
      <trkpt lat="45.83265" lon="5.43631">
        <ele>210.8</ele>
        <time>2024-09-19T11:11:36Z</time>
      </trkpt>
      <trkpt lat="45.83261" lon="5.43636">
        <ele>210.4</ele>
        <time>2024-09-19T11:11:37Z</time>
      </trkpt>
      <trkpt lat="45.83256" lon="5.4364">
        <ele>210.6</ele>
        <time>2024-09-19T11:11:38Z</time>
      </trkpt>
      <trkpt lat="45.83252" lon="5.43645">
        <ele>210.6</ele>
        <time>2024-09-19T11:11:39Z</time>
      </trkpt>
      <trkpt lat="45.83248" lon="5.43649">
        <ele>210.2</ele>
        <time>2024-09-19T11:11:40Z</time>
      </trkpt>
      <trkpt lat="45.83243" lon="5.43653">
        <ele>210.2</ele>
        <time>2024-09-19T11:11:41Z</time>
      </trkpt>
      <trkpt lat="45.83239" lon="5.43657">
        <ele>211.8</ele>
        <time>2024-09-19T11:11:42Z</time>
      </trkpt>
      <trkpt lat="45.83235" lon="5.43661">
        <ele>210.4</ele>
        <time>2024-09-19T11:11:43Z</time>
      </trkpt>
      <trkpt lat="45.83231" lon="5.43665">
        <ele>210.4</ele>
        <time>2024-09-19T11:11:44Z</time>
      </trkpt>
      <trkpt lat="45.83227" lon="5.43669">
        <ele>210.2</ele>
        <time>2024-09-19T11:11:45Z</time>
      </trkpt>
      <trkpt lat="45.83223" lon="5.43672">
        <ele>210.6</ele>
        <time>2024-09-19T11:11:46Z</time>
      </trkpt>
      <trkpt lat="45.83219" lon="5.43676">
        <ele>210.6</ele>
        <time>2024-09-19T11:11:47Z</time>
      </trkpt>
      <trkpt lat="45.83215" lon="5.4368">
        <ele>211</ele>
        <time>2024-09-19T11:11:48Z</time>
      </trkpt>
      <trkpt lat="45.8321" lon="5.43683">
        <ele>211.4</ele>
        <time>2024-09-19T11:11:49Z</time>
      </trkpt>
      <trkpt lat="45.83207" lon="5.43687">
        <ele>211.4</ele>
        <time>2024-09-19T11:11:50Z</time>
      </trkpt>
      <trkpt lat="45.83203" lon="5.43691">
        <ele>210.8</ele>
        <time>2024-09-19T11:11:51Z</time>
      </trkpt>
      <trkpt lat="45.83199" lon="5.43695">
        <ele>210.4</ele>
        <time>2024-09-19T11:11:52Z</time>
      </trkpt>
      <trkpt lat="45.83195" lon="5.43698">
        <ele>210.6</ele>
        <time>2024-09-19T11:11:53Z</time>
      </trkpt>
      <trkpt lat="45.8319" lon="5.43701">
        <ele>211.6</ele>
        <time>2024-09-19T11:11:54Z</time>
      </trkpt>
      <trkpt lat="45.83186" lon="5.43705">
        <ele>211.4</ele>
        <time>2024-09-19T11:11:55Z</time>
      </trkpt>
      <trkpt lat="45.83182" lon="5.43708">
        <ele>211.4</ele>
        <time>2024-09-19T11:11:56Z</time>
      </trkpt>
      <trkpt lat="45.83178" lon="5.43712">
        <ele>211.4</ele>
        <time>2024-09-19T11:11:57Z</time>
      </trkpt>
      <trkpt lat="45.83173" lon="5.43715">
        <ele>211.8</ele>
        <time>2024-09-19T11:11:58Z</time>
      </trkpt>
      <trkpt lat="45.8317" lon="5.43718">
        <ele>211.6</ele>
        <time>2024-09-19T11:11:59Z</time>
      </trkpt>
      <trkpt lat="45.83165" lon="5.43722">
        <ele>212</ele>
        <time>2024-09-19T11:12:00Z</time>
      </trkpt>
      <trkpt lat="45.83161" lon="5.43726">
        <ele>212</ele>
        <time>2024-09-19T11:12:01Z</time>
      </trkpt>
      <trkpt lat="45.83157" lon="5.43729">
        <ele>212</ele>
        <time>2024-09-19T11:12:02Z</time>
      </trkpt>
      <trkpt lat="45.83153" lon="5.43732">
        <ele>212.4</ele>
        <time>2024-09-19T11:12:03Z</time>
      </trkpt>
      <trkpt lat="45.83149" lon="5.43736">
        <ele>212</ele>
        <time>2024-09-19T11:12:04Z</time>
      </trkpt>
      <trkpt lat="45.83145" lon="5.4374">
        <ele>211.8</ele>
        <time>2024-09-19T11:12:05Z</time>
      </trkpt>
      <trkpt lat="45.8314" lon="5.43744">
        <ele>212.2</ele>
        <time>2024-09-19T11:12:06Z</time>
      </trkpt>
      <trkpt lat="45.83135" lon="5.43747">
        <ele>212.6</ele>
        <time>2024-09-19T11:12:07Z</time>
      </trkpt>
      <trkpt lat="45.83131" lon="5.4375">
        <ele>212.6</ele>
        <time>2024-09-19T11:12:08Z</time>
      </trkpt>
      <trkpt lat="45.83126" lon="5.43752">
        <ele>212.6</ele>
        <time>2024-09-19T11:12:09Z</time>
      </trkpt>
      <trkpt lat="45.83121" lon="5.43755">
        <ele>212.6</ele>
        <time>2024-09-19T11:12:10Z</time>
      </trkpt>
      <trkpt lat="45.83116" lon="5.43758">
        <ele>212.2</ele>
        <time>2024-09-19T11:12:11Z</time>
      </trkpt>
      <trkpt lat="45.83112" lon="5.43761">
        <ele>212.2</ele>
        <time>2024-09-19T11:12:12Z</time>
      </trkpt>
      <trkpt lat="45.83107" lon="5.43764">
        <ele>213</ele>
        <time>2024-09-19T11:12:13Z</time>
      </trkpt>
      <trkpt lat="45.83102" lon="5.43767">
        <ele>212.6</ele>
        <time>2024-09-19T11:12:14Z</time>
      </trkpt>
      <trkpt lat="45.83098" lon="5.4377">
        <ele>212.4</ele>
        <time>2024-09-19T11:12:15Z</time>
      </trkpt>
      <trkpt lat="45.83093" lon="5.43773">
        <ele>212.4</ele>
        <time>2024-09-19T11:12:16Z</time>
      </trkpt>
      <trkpt lat="45.83088" lon="5.43776">
        <ele>212.6</ele>
        <time>2024-09-19T11:12:17Z</time>
      </trkpt>
      <trkpt lat="45.83084" lon="5.43779">
        <ele>212</ele>
        <time>2024-09-19T11:12:18Z</time>
      </trkpt>
      <trkpt lat="45.83078" lon="5.43782">
        <ele>211.6</ele>
        <time>2024-09-19T11:12:19Z</time>
      </trkpt>
      <trkpt lat="45.83074" lon="5.43785">
        <ele>210.8</ele>
        <time>2024-09-19T11:12:20Z</time>
      </trkpt>
      <trkpt lat="45.83069" lon="5.43787">
        <ele>210.8</ele>
        <time>2024-09-19T11:12:21Z</time>
      </trkpt>
      <trkpt lat="45.83064" lon="5.4379">
        <ele>211</ele>
        <time>2024-09-19T11:12:22Z</time>
      </trkpt>
      <trkpt lat="45.83064" lon="5.4379">
        <ele>211.8</ele>
        <time>2024-09-19T11:12:23Z</time>
      </trkpt>
      <trkpt lat="45.83059" lon="5.43792">
        <ele>212</ele>
        <time>2024-09-19T11:12:24Z</time>
      </trkpt>
      <trkpt lat="45.83054" lon="5.43795">
        <ele>212</ele>
        <time>2024-09-19T11:12:25Z</time>
      </trkpt>
      <trkpt lat="45.8305" lon="5.43797">
        <ele>212.2</ele>
        <time>2024-09-19T11:12:26Z</time>
      </trkpt>
      <trkpt lat="45.83045" lon="5.438">
        <ele>212.2</ele>
        <time>2024-09-19T11:12:27Z</time>
      </trkpt>
      <trkpt lat="45.83039" lon="5.43803">
        <ele>212.2</ele>
        <time>2024-09-19T11:12:28Z</time>
      </trkpt>
      <trkpt lat="45.83034" lon="5.43805">
        <ele>212.8</ele>
        <time>2024-09-19T11:12:29Z</time>
      </trkpt>
      <trkpt lat="45.83028" lon="5.43808">
        <ele>212.4</ele>
        <time>2024-09-19T11:12:30Z</time>
      </trkpt>
      <trkpt lat="45.83023" lon="5.4381">
        <ele>212.4</ele>
        <time>2024-09-19T11:12:31Z</time>
      </trkpt>
      <trkpt lat="45.83018" lon="5.43812">
        <ele>212</ele>
        <time>2024-09-19T11:12:32Z</time>
      </trkpt>
      <trkpt lat="45.83013" lon="5.43815">
        <ele>212</ele>
        <time>2024-09-19T11:12:33Z</time>
      </trkpt>
      <trkpt lat="45.83008" lon="5.43816">
        <ele>211.8</ele>
        <time>2024-09-19T11:12:34Z</time>
      </trkpt>
      <trkpt lat="45.82998" lon="5.43819">
        <ele>211.8</ele>
        <time>2024-09-19T11:12:35Z</time>
      </trkpt>
      <trkpt lat="45.82992" lon="5.43822">
        <ele>211.8</ele>
        <time>2024-09-19T11:12:36Z</time>
      </trkpt>
      <trkpt lat="45.82987" lon="5.43823">
        <ele>211.8</ele>
        <time>2024-09-19T11:12:37Z</time>
      </trkpt>
      <trkpt lat="45.82982" lon="5.43825">
        <ele>212.2</ele>
        <time>2024-09-19T11:12:38Z</time>
      </trkpt>
      <trkpt lat="45.82976" lon="5.43827">
        <ele>212.6</ele>
        <time>2024-09-19T11:12:39Z</time>
      </trkpt>
      <trkpt lat="45.82971" lon="5.43828">
        <ele>212.6</ele>
        <time>2024-09-19T11:12:40Z</time>
      </trkpt>
      <trkpt lat="45.82966" lon="5.43829">
        <ele>212.6</ele>
        <time>2024-09-19T11:12:41Z</time>
      </trkpt>
      <trkpt lat="45.8296" lon="5.4383">
        <ele>212.6</ele>
        <time>2024-09-19T11:12:42Z</time>
      </trkpt>
      <trkpt lat="45.82955" lon="5.43832">
        <ele>212.2</ele>
        <time>2024-09-19T11:12:43Z</time>
      </trkpt>
      <trkpt lat="45.82955" lon="5.43832">
        <ele>212.2</ele>
        <time>2024-09-19T11:12:44Z</time>
      </trkpt>
      <trkpt lat="45.82955" lon="5.43832">
        <ele>212.2</ele>
        <time>2024-09-19T11:12:45Z</time>
      </trkpt>
      <trkpt lat="45.82935" lon="5.43834">
        <ele>212.4</ele>
        <time>2024-09-19T11:12:47Z</time>
      </trkpt>
      <trkpt lat="45.82929" lon="5.43835">
        <ele>212.4</ele>
        <time>2024-09-19T11:12:48Z</time>
      </trkpt>
      <trkpt lat="45.82924" lon="5.43836">
        <ele>212.4</ele>
        <time>2024-09-19T11:12:49Z</time>
      </trkpt>
      <trkpt lat="45.82919" lon="5.43836">
        <ele>211.8</ele>
        <time>2024-09-19T11:12:50Z</time>
      </trkpt>
      <trkpt lat="45.82914" lon="5.43836">
        <ele>212.4</ele>
        <time>2024-09-19T11:12:51Z</time>
      </trkpt>
      <trkpt lat="45.82909" lon="5.43836">
        <ele>212.2</ele>
        <time>2024-09-19T11:12:52Z</time>
      </trkpt>
      <trkpt lat="45.82904" lon="5.43836">
        <ele>212.2</ele>
        <time>2024-09-19T11:12:53Z</time>
      </trkpt>
      <trkpt lat="45.82899" lon="5.43837">
        <ele>212.2</ele>
        <time>2024-09-19T11:12:54Z</time>
      </trkpt>
      <trkpt lat="45.82894" lon="5.43838">
        <ele>212.2</ele>
        <time>2024-09-19T11:12:55Z</time>
      </trkpt>
      <trkpt lat="45.82889" lon="5.43838">
        <ele>212.4</ele>
        <time>2024-09-19T11:12:56Z</time>
      </trkpt>
      <trkpt lat="45.82884" lon="5.43838">
        <ele>212.4</ele>
        <time>2024-09-19T11:12:57Z</time>
      </trkpt>
      <trkpt lat="45.82879" lon="5.43838">
        <ele>213</ele>
        <time>2024-09-19T11:12:58Z</time>
      </trkpt>
      <trkpt lat="45.82874" lon="5.43838">
        <ele>213</ele>
        <time>2024-09-19T11:12:59Z</time>
      </trkpt>
      <trkpt lat="45.8287" lon="5.43837">
        <ele>213.4</ele>
        <time>2024-09-19T11:13:00Z</time>
      </trkpt>
      <trkpt lat="45.82866" lon="5.43836">
        <ele>213.4</ele>
        <time>2024-09-19T11:13:01Z</time>
      </trkpt>
      <trkpt lat="45.82862" lon="5.43834">
        <ele>213.8</ele>
        <time>2024-09-19T11:13:02Z</time>
      </trkpt>
      <trkpt lat="45.82859" lon="5.4383">
        <ele>213.8</ele>
        <time>2024-09-19T11:13:03Z</time>
      </trkpt>
      <trkpt lat="45.82855" lon="5.43827">
        <ele>214</ele>
        <time>2024-09-19T11:13:04Z</time>
      </trkpt>
      <trkpt lat="45.82853" lon="5.43822">
        <ele>214</ele>
        <time>2024-09-19T11:13:05Z</time>
      </trkpt>
      <trkpt lat="45.82853" lon="5.43816">
        <ele>214</ele>
        <time>2024-09-19T11:13:06Z</time>
      </trkpt>
      <trkpt lat="45.82852" lon="5.43809">
        <ele>214</ele>
        <time>2024-09-19T11:13:07Z</time>
      </trkpt>
      <trkpt lat="45.82852" lon="5.43803">
        <ele>214</ele>
        <time>2024-09-19T11:13:08Z</time>
      </trkpt>
      <trkpt lat="45.82852" lon="5.43795">
        <ele>214</ele>
        <time>2024-09-19T11:13:09Z</time>
      </trkpt>
      <trkpt lat="45.82851" lon="5.43789">
        <ele>214</ele>
        <time>2024-09-19T11:13:10Z</time>
      </trkpt>
      <trkpt lat="45.82848" lon="5.43784">
        <ele>214</ele>
        <time>2024-09-19T11:13:11Z</time>
      </trkpt>
      <trkpt lat="45.82844" lon="5.4378">
        <ele>214</ele>
        <time>2024-09-19T11:13:12Z</time>
      </trkpt>
      <trkpt lat="45.8284" lon="5.43778">
        <ele>214</ele>
        <time>2024-09-19T11:13:13Z</time>
      </trkpt>
      <trkpt lat="45.82836" lon="5.43777">
        <ele>214</ele>
        <time>2024-09-19T11:13:14Z</time>
      </trkpt>
      <trkpt lat="45.82831" lon="5.43775">
        <ele>214.2</ele>
        <time>2024-09-19T11:13:15Z</time>
      </trkpt>
      <trkpt lat="45.82826" lon="5.43774">
        <ele>214.2</ele>
        <time>2024-09-19T11:13:16Z</time>
      </trkpt>
      <trkpt lat="45.82822" lon="5.43771">
        <ele>214.2</ele>
        <time>2024-09-19T11:13:17Z</time>
      </trkpt>
      <trkpt lat="45.82817" lon="5.43768">
        <ele>214.2</ele>
        <time>2024-09-19T11:13:18Z</time>
      </trkpt>
      <trkpt lat="45.82812" lon="5.43765">
        <ele>214.2</ele>
        <time>2024-09-19T11:13:19Z</time>
      </trkpt>
      <trkpt lat="45.82808" lon="5.43761">
        <ele>214.2</ele>
        <time>2024-09-19T11:13:20Z</time>
      </trkpt>
      <trkpt lat="45.82803" lon="5.43759">
        <ele>214.2</ele>
        <time>2024-09-19T11:13:21Z</time>
      </trkpt>
      <trkpt lat="45.82798" lon="5.43757">
        <ele>214.2</ele>
        <time>2024-09-19T11:13:22Z</time>
      </trkpt>
      <trkpt lat="45.82792" lon="5.43756">
        <ele>214.2</ele>
        <time>2024-09-19T11:13:23Z</time>
      </trkpt>
      <trkpt lat="45.82787" lon="5.43755">
        <ele>214.2</ele>
        <time>2024-09-19T11:13:24Z</time>
      </trkpt>
      <trkpt lat="45.82782" lon="5.43755">
        <ele>214.2</ele>
        <time>2024-09-19T11:13:25Z</time>
      </trkpt>
      <trkpt lat="45.82777" lon="5.43756">
        <ele>214</ele>
        <time>2024-09-19T11:13:26Z</time>
      </trkpt>
      <trkpt lat="45.82771" lon="5.43756">
        <ele>214</ele>
        <time>2024-09-19T11:13:27Z</time>
      </trkpt>
      <trkpt lat="45.82765" lon="5.43757">
        <ele>213.8</ele>
        <time>2024-09-19T11:13:28Z</time>
      </trkpt>
      <trkpt lat="45.8276" lon="5.43759">
        <ele>213.6</ele>
        <time>2024-09-19T11:13:29Z</time>
      </trkpt>
      <trkpt lat="45.82755" lon="5.43767">
        <ele>213.6</ele>
        <time>2024-09-19T11:13:30Z</time>
      </trkpt>
      <trkpt lat="45.82753" lon="5.43775">
        <ele>213.2</ele>
        <time>2024-09-19T11:13:31Z</time>
      </trkpt>
      <trkpt lat="45.82751" lon="5.43783">
        <ele>213.2</ele>
        <time>2024-09-19T11:13:32Z</time>
      </trkpt>
      <trkpt lat="45.8275" lon="5.43792">
        <ele>212.8</ele>
        <time>2024-09-19T11:13:33Z</time>
      </trkpt>
      <trkpt lat="45.82746" lon="5.438">
        <ele>212.4</ele>
        <time>2024-09-19T11:13:34Z</time>
      </trkpt>
      <trkpt lat="45.8274" lon="5.43805">
        <ele>212.4</ele>
        <time>2024-09-19T11:13:35Z</time>
      </trkpt>
      <trkpt lat="45.82734" lon="5.43809">
        <ele>212</ele>
        <time>2024-09-19T11:13:36Z</time>
      </trkpt>
      <trkpt lat="45.82728" lon="5.43811">
        <ele>211.4</ele>
        <time>2024-09-19T11:13:37Z</time>
      </trkpt>
      <trkpt lat="45.82721" lon="5.43812">
        <ele>210.8</ele>
        <time>2024-09-19T11:13:38Z</time>
      </trkpt>
      <trkpt lat="45.82714" lon="5.43812">
        <ele>210.8</ele>
        <time>2024-09-19T11:13:39Z</time>
      </trkpt>
      <trkpt lat="45.82707" lon="5.43813">
        <ele>210.8</ele>
        <time>2024-09-19T11:13:40Z</time>
      </trkpt>
      <trkpt lat="45.827" lon="5.43814">
        <ele>209.8</ele>
        <time>2024-09-19T11:13:41Z</time>
      </trkpt>
      <trkpt lat="45.82693" lon="5.43816">
        <ele>209.8</ele>
        <time>2024-09-19T11:13:42Z</time>
      </trkpt>
      <trkpt lat="45.82687" lon="5.43817">
        <ele>209.4</ele>
        <time>2024-09-19T11:13:43Z</time>
      </trkpt>
      <trkpt lat="45.82681" lon="5.43817">
        <ele>208.6</ele>
        <time>2024-09-19T11:13:44Z</time>
      </trkpt>
      <trkpt lat="45.82675" lon="5.43818">
        <ele>209.4</ele>
        <time>2024-09-19T11:13:45Z</time>
      </trkpt>
      <trkpt lat="45.82668" lon="5.43819">
        <ele>209.4</ele>
        <time>2024-09-19T11:13:46Z</time>
      </trkpt>
      <trkpt lat="45.82663" lon="5.43819">
        <ele>210.2</ele>
        <time>2024-09-19T11:13:47Z</time>
      </trkpt>
      <trkpt lat="45.82657" lon="5.43819">
        <ele>209.6</ele>
        <time>2024-09-19T11:13:48Z</time>
      </trkpt>
      <trkpt lat="45.82651" lon="5.43819">
        <ele>209.8</ele>
        <time>2024-09-19T11:13:49Z</time>
      </trkpt>
      <trkpt lat="45.82645" lon="5.43819">
        <ele>209.8</ele>
        <time>2024-09-19T11:13:50Z</time>
      </trkpt>
      <trkpt lat="45.82639" lon="5.43819">
        <ele>210.6</ele>
        <time>2024-09-19T11:13:51Z</time>
      </trkpt>
      <trkpt lat="45.82633" lon="5.43819">
        <ele>211</ele>
        <time>2024-09-19T11:13:52Z</time>
      </trkpt>
      <trkpt lat="45.82626" lon="5.43819">
        <ele>210.8</ele>
        <time>2024-09-19T11:13:53Z</time>
      </trkpt>
      <trkpt lat="45.8262" lon="5.43818">
        <ele>211</ele>
        <time>2024-09-19T11:13:54Z</time>
      </trkpt>
      <trkpt lat="45.82614" lon="5.43817">
        <ele>211</ele>
        <time>2024-09-19T11:13:55Z</time>
      </trkpt>
      <trkpt lat="45.82608" lon="5.43816">
        <ele>211</ele>
        <time>2024-09-19T11:13:56Z</time>
      </trkpt>
      <trkpt lat="45.82602" lon="5.43815">
        <ele>211</ele>
        <time>2024-09-19T11:13:57Z</time>
      </trkpt>
      <trkpt lat="45.82595" lon="5.43813">
        <ele>211.6</ele>
        <time>2024-09-19T11:13:58Z</time>
      </trkpt>
      <trkpt lat="45.82589" lon="5.43811">
        <ele>211.6</ele>
        <time>2024-09-19T11:13:59Z</time>
      </trkpt>
      <trkpt lat="45.82589" lon="5.43811">
        <ele>211</ele>
        <time>2024-09-19T11:14:00Z</time>
      </trkpt>
      <trkpt lat="45.82589" lon="5.43811">
        <ele>211</ele>
        <time>2024-09-19T11:14:01Z</time>
      </trkpt>
      <trkpt lat="45.82571" lon="5.43807">
        <ele>212.2</ele>
        <time>2024-09-19T11:14:02Z</time>
      </trkpt>
      <trkpt lat="45.82565" lon="5.43805">
        <ele>212.2</ele>
        <time>2024-09-19T11:14:03Z</time>
      </trkpt>
      <trkpt lat="45.82559" lon="5.43803">
        <ele>212.2</ele>
        <time>2024-09-19T11:14:04Z</time>
      </trkpt>
      <trkpt lat="45.82553" lon="5.43802">
        <ele>211.8</ele>
        <time>2024-09-19T11:14:05Z</time>
      </trkpt>
      <trkpt lat="45.82547" lon="5.43801">
        <ele>211.2</ele>
        <time>2024-09-19T11:14:06Z</time>
      </trkpt>
      <trkpt lat="45.82541" lon="5.43799">
        <ele>210.8</ele>
        <time>2024-09-19T11:14:07Z</time>
      </trkpt>
      <trkpt lat="45.82536" lon="5.43797">
        <ele>210.8</ele>
        <time>2024-09-19T11:14:08Z</time>
      </trkpt>
      <trkpt lat="45.8253" lon="5.43795">
        <ele>211.2</ele>
        <time>2024-09-19T11:14:09Z</time>
      </trkpt>
      <trkpt lat="45.82524" lon="5.43792">
        <ele>212</ele>
        <time>2024-09-19T11:14:10Z</time>
      </trkpt>
      <trkpt lat="45.82518" lon="5.4379">
        <ele>211.6</ele>
        <time>2024-09-19T11:14:11Z</time>
      </trkpt>
      <trkpt lat="45.82512" lon="5.43787">
        <ele>212.2</ele>
        <time>2024-09-19T11:14:12Z</time>
      </trkpt>
      <trkpt lat="45.82506" lon="5.43785">
        <ele>211.2</ele>
        <time>2024-09-19T11:14:13Z</time>
      </trkpt>
      <trkpt lat="45.825" lon="5.43782">
        <ele>211.4</ele>
        <time>2024-09-19T11:14:14Z</time>
      </trkpt>
      <trkpt lat="45.82495" lon="5.4378">
        <ele>211.4</ele>
        <time>2024-09-19T11:14:15Z</time>
      </trkpt>
      <trkpt lat="45.82489" lon="5.43777">
        <ele>211.8</ele>
        <time>2024-09-19T11:14:16Z</time>
      </trkpt>
      <trkpt lat="45.82483" lon="5.43774">
        <ele>211.6</ele>
        <time>2024-09-19T11:14:17Z</time>
      </trkpt>
      <trkpt lat="45.82478" lon="5.43772">
        <ele>211.6</ele>
        <time>2024-09-19T11:14:18Z</time>
      </trkpt>
      <trkpt lat="45.82472" lon="5.43768">
        <ele>211.8</ele>
        <time>2024-09-19T11:14:19Z</time>
      </trkpt>
      <trkpt lat="45.82467" lon="5.43766">
        <ele>211.8</ele>
        <time>2024-09-19T11:14:20Z</time>
      </trkpt>
      <trkpt lat="45.82461" lon="5.43763">
        <ele>211.8</ele>
        <time>2024-09-19T11:14:21Z</time>
      </trkpt>
      <trkpt lat="45.82456" lon="5.4376">
        <ele>211.8</ele>
        <time>2024-09-19T11:14:22Z</time>
      </trkpt>
      <trkpt lat="45.8245" lon="5.43756">
        <ele>211.8</ele>
        <time>2024-09-19T11:14:23Z</time>
      </trkpt>
      <trkpt lat="45.82445" lon="5.43753">
        <ele>211.8</ele>
        <time>2024-09-19T11:14:24Z</time>
      </trkpt>
      <trkpt lat="45.82439" lon="5.43749">
        <ele>211.8</ele>
        <time>2024-09-19T11:14:25Z</time>
      </trkpt>
      <trkpt lat="45.82434" lon="5.43746">
        <ele>211.8</ele>
        <time>2024-09-19T11:14:26Z</time>
      </trkpt>
      <trkpt lat="45.82429" lon="5.43743">
        <ele>212.2</ele>
        <time>2024-09-19T11:14:27Z</time>
      </trkpt>
      <trkpt lat="45.82423" lon="5.43739">
        <ele>213.2</ele>
        <time>2024-09-19T11:14:28Z</time>
      </trkpt>
      <trkpt lat="45.82418" lon="5.43735">
        <ele>213.2</ele>
        <time>2024-09-19T11:14:29Z</time>
      </trkpt>
      <trkpt lat="45.82413" lon="5.43732">
        <ele>212.6</ele>
        <time>2024-09-19T11:14:30Z</time>
      </trkpt>
      <trkpt lat="45.82407" lon="5.43729">
        <ele>212.6</ele>
        <time>2024-09-19T11:14:31Z</time>
      </trkpt>
      <trkpt lat="45.82402" lon="5.43725">
        <ele>212.6</ele>
        <time>2024-09-19T11:14:32Z</time>
      </trkpt>
      <trkpt lat="45.82397" lon="5.43722">
        <ele>212.2</ele>
        <time>2024-09-19T11:14:33Z</time>
      </trkpt>
      <trkpt lat="45.82391" lon="5.43718">
        <ele>212.2</ele>
        <time>2024-09-19T11:14:34Z</time>
      </trkpt>
      <trkpt lat="45.82386" lon="5.43714">
        <ele>211.8</ele>
        <time>2024-09-19T11:14:35Z</time>
      </trkpt>
      <trkpt lat="45.82381" lon="5.43709">
        <ele>211.8</ele>
        <time>2024-09-19T11:14:36Z</time>
      </trkpt>
      <trkpt lat="45.82375" lon="5.43704">
        <ele>212.2</ele>
        <time>2024-09-19T11:14:37Z</time>
      </trkpt>
      <trkpt lat="45.8237" lon="5.43699">
        <ele>211.8</ele>
        <time>2024-09-19T11:14:38Z</time>
      </trkpt>
      <trkpt lat="45.82364" lon="5.43693">
        <ele>212.4</ele>
        <time>2024-09-19T11:14:39Z</time>
      </trkpt>
      <trkpt lat="45.82359" lon="5.43689">
        <ele>212.4</ele>
        <time>2024-09-19T11:14:40Z</time>
      </trkpt>
      <trkpt lat="45.82354" lon="5.43684">
        <ele>211.8</ele>
        <time>2024-09-19T11:14:41Z</time>
      </trkpt>
      <trkpt lat="45.82349" lon="5.4368">
        <ele>212.4</ele>
        <time>2024-09-19T11:14:42Z</time>
      </trkpt>
      <trkpt lat="45.82344" lon="5.43675">
        <ele>212</ele>
        <time>2024-09-19T11:14:43Z</time>
      </trkpt>
      <trkpt lat="45.82339" lon="5.43669">
        <ele>212</ele>
        <time>2024-09-19T11:14:44Z</time>
      </trkpt>
      <trkpt lat="45.82334" lon="5.43665">
        <ele>211.8</ele>
        <time>2024-09-19T11:14:45Z</time>
      </trkpt>
      <trkpt lat="45.82329" lon="5.4366">
        <ele>211.8</ele>
        <time>2024-09-19T11:14:46Z</time>
      </trkpt>
      <trkpt lat="45.82323" lon="5.43655">
        <ele>211.8</ele>
        <time>2024-09-19T11:14:47Z</time>
      </trkpt>
      <trkpt lat="45.82318" lon="5.4365">
        <ele>211.8</ele>
        <time>2024-09-19T11:14:48Z</time>
      </trkpt>
      <trkpt lat="45.82313" lon="5.43645">
        <ele>211.8</ele>
        <time>2024-09-19T11:14:49Z</time>
      </trkpt>
      <trkpt lat="45.82309" lon="5.43639">
        <ele>212.4</ele>
        <time>2024-09-19T11:14:50Z</time>
      </trkpt>
      <trkpt lat="45.82304" lon="5.43633">
        <ele>212.4</ele>
        <time>2024-09-19T11:14:51Z</time>
      </trkpt>
      <trkpt lat="45.82299" lon="5.43628">
        <ele>212.4</ele>
        <time>2024-09-19T11:14:52Z</time>
      </trkpt>
      <trkpt lat="45.82294" lon="5.43622">
        <ele>212.4</ele>
        <time>2024-09-19T11:14:53Z</time>
      </trkpt>
      <trkpt lat="45.8229" lon="5.43616">
        <ele>212.2</ele>
        <time>2024-09-19T11:14:54Z</time>
      </trkpt>
      <trkpt lat="45.82285" lon="5.4361">
        <ele>211.8</ele>
        <time>2024-09-19T11:14:55Z</time>
      </trkpt>
      <trkpt lat="45.8228" lon="5.43604">
        <ele>212.4</ele>
        <time>2024-09-19T11:14:56Z</time>
      </trkpt>
      <trkpt lat="45.82275" lon="5.43598">
        <ele>211.8</ele>
        <time>2024-09-19T11:14:57Z</time>
      </trkpt>
      <trkpt lat="45.8227" lon="5.43593">
        <ele>211.8</ele>
        <time>2024-09-19T11:14:58Z</time>
      </trkpt>
      <trkpt lat="45.82266" lon="5.43588">
        <ele>213</ele>
        <time>2024-09-19T11:14:59Z</time>
      </trkpt>
      <trkpt lat="45.8226" lon="5.43581">
        <ele>212.4</ele>
        <time>2024-09-19T11:15:00Z</time>
      </trkpt>
      <trkpt lat="45.82256" lon="5.43575">
        <ele>213.4</ele>
        <time>2024-09-19T11:15:01Z</time>
      </trkpt>
      <trkpt lat="45.82251" lon="5.43569">
        <ele>213.4</ele>
        <time>2024-09-19T11:15:02Z</time>
      </trkpt>
      <trkpt lat="45.82247" lon="5.43562">
        <ele>213.2</ele>
        <time>2024-09-19T11:15:03Z</time>
      </trkpt>
      <trkpt lat="45.82242" lon="5.43556">
        <ele>212.6</ele>
        <time>2024-09-19T11:15:04Z</time>
      </trkpt>
      <trkpt lat="45.82237" lon="5.4355">
        <ele>212</ele>
        <time>2024-09-19T11:15:05Z</time>
      </trkpt>
      <trkpt lat="45.82232" lon="5.43544">
        <ele>212.4</ele>
        <time>2024-09-19T11:15:06Z</time>
      </trkpt>
      <trkpt lat="45.82227" lon="5.43539">
        <ele>211</ele>
        <time>2024-09-19T11:15:07Z</time>
      </trkpt>
      <trkpt lat="45.82222" lon="5.43533">
        <ele>211</ele>
        <time>2024-09-19T11:15:08Z</time>
      </trkpt>
      <trkpt lat="45.82217" lon="5.43527">
        <ele>211.4</ele>
        <time>2024-09-19T11:15:09Z</time>
      </trkpt>
      <trkpt lat="45.82212" lon="5.43522">
        <ele>211.4</ele>
        <time>2024-09-19T11:15:10Z</time>
      </trkpt>
      <trkpt lat="45.82206" lon="5.43516">
        <ele>211.4</ele>
        <time>2024-09-19T11:15:11Z</time>
      </trkpt>
      <trkpt lat="45.82201" lon="5.4351">
        <ele>211.8</ele>
        <time>2024-09-19T11:15:12Z</time>
      </trkpt>
      <trkpt lat="45.82196" lon="5.43504">
        <ele>211.2</ele>
        <time>2024-09-19T11:15:13Z</time>
      </trkpt>
      <trkpt lat="45.82191" lon="5.43499">
        <ele>211.2</ele>
        <time>2024-09-19T11:15:14Z</time>
      </trkpt>
      <trkpt lat="45.82186" lon="5.43494">
        <ele>211</ele>
        <time>2024-09-19T11:15:15Z</time>
      </trkpt>
      <trkpt lat="45.82181" lon="5.43488">
        <ele>212</ele>
        <time>2024-09-19T11:15:16Z</time>
      </trkpt>
      <trkpt lat="45.82176" lon="5.43483">
        <ele>211.6</ele>
        <time>2024-09-19T11:15:17Z</time>
      </trkpt>
      <trkpt lat="45.82171" lon="5.43477">
        <ele>211.6</ele>
        <time>2024-09-19T11:15:18Z</time>
      </trkpt>
      <trkpt lat="45.82166" lon="5.4347">
        <ele>211.2</ele>
        <time>2024-09-19T11:15:19Z</time>
      </trkpt>
      <trkpt lat="45.82162" lon="5.43465">
        <ele>211.2</ele>
        <time>2024-09-19T11:15:20Z</time>
      </trkpt>
      <trkpt lat="45.82156" lon="5.43459">
        <ele>211.8</ele>
        <time>2024-09-19T11:15:21Z</time>
      </trkpt>
      <trkpt lat="45.82152" lon="5.43454">
        <ele>213.2</ele>
        <time>2024-09-19T11:15:22Z</time>
      </trkpt>
      <trkpt lat="45.82147" lon="5.43449">
        <ele>213.2</ele>
        <time>2024-09-19T11:15:23Z</time>
      </trkpt>
      <trkpt lat="45.82143" lon="5.43444">
        <ele>212</ele>
        <time>2024-09-19T11:15:24Z</time>
      </trkpt>
      <trkpt lat="45.82138" lon="5.43438">
        <ele>211.6</ele>
        <time>2024-09-19T11:15:25Z</time>
      </trkpt>
      <trkpt lat="45.82134" lon="5.43433">
        <ele>210.8</ele>
        <time>2024-09-19T11:15:26Z</time>
      </trkpt>
      <trkpt lat="45.82129" lon="5.43428">
        <ele>210.8</ele>
        <time>2024-09-19T11:15:27Z</time>
      </trkpt>
      <trkpt lat="45.82125" lon="5.43422">
        <ele>211.2</ele>
        <time>2024-09-19T11:15:28Z</time>
      </trkpt>
      <trkpt lat="45.82121" lon="5.43417">
        <ele>212.2</ele>
        <time>2024-09-19T11:15:29Z</time>
      </trkpt>
      <trkpt lat="45.82116" lon="5.43412">
        <ele>212.8</ele>
        <time>2024-09-19T11:15:30Z</time>
      </trkpt>
      <trkpt lat="45.82112" lon="5.43408">
        <ele>212.2</ele>
        <time>2024-09-19T11:15:31Z</time>
      </trkpt>
      <trkpt lat="45.82108" lon="5.43404">
        <ele>211.6</ele>
        <time>2024-09-19T11:15:32Z</time>
      </trkpt>
      <trkpt lat="45.82104" lon="5.43399">
        <ele>212.4</ele>
        <time>2024-09-19T11:15:33Z</time>
      </trkpt>
      <trkpt lat="45.82099" lon="5.43394">
        <ele>212.4</ele>
        <time>2024-09-19T11:15:34Z</time>
      </trkpt>
      <trkpt lat="45.82095" lon="5.4339">
        <ele>212.4</ele>
        <time>2024-09-19T11:15:35Z</time>
      </trkpt>
      <trkpt lat="45.82092" lon="5.43385">
        <ele>211.6</ele>
        <time>2024-09-19T11:15:36Z</time>
      </trkpt>
      <trkpt lat="45.82089" lon="5.43379">
        <ele>212.6</ele>
        <time>2024-09-19T11:15:37Z</time>
      </trkpt>
      <trkpt lat="45.82085" lon="5.43374">
        <ele>212.8</ele>
        <time>2024-09-19T11:15:38Z</time>
      </trkpt>
      <trkpt lat="45.82081" lon="5.4337">
        <ele>212.8</ele>
        <time>2024-09-19T11:15:39Z</time>
      </trkpt>
      <trkpt lat="45.82078" lon="5.43365">
        <ele>212.8</ele>
        <time>2024-09-19T11:15:40Z</time>
      </trkpt>
      <trkpt lat="45.82074" lon="5.43361">
        <ele>212.8</ele>
        <time>2024-09-19T11:15:41Z</time>
      </trkpt>
      <trkpt lat="45.8207" lon="5.43356">
        <ele>212.8</ele>
        <time>2024-09-19T11:15:42Z</time>
      </trkpt>
      <trkpt lat="45.82066" lon="5.43353">
        <ele>212.8</ele>
        <time>2024-09-19T11:15:43Z</time>
      </trkpt>
      <trkpt lat="45.82062" lon="5.43349">
        <ele>212.4</ele>
        <time>2024-09-19T11:15:44Z</time>
      </trkpt>
      <trkpt lat="45.82059" lon="5.43345">
        <ele>212.4</ele>
        <time>2024-09-19T11:15:45Z</time>
      </trkpt>
      <trkpt lat="45.82054" lon="5.43342">
        <ele>212.2</ele>
        <time>2024-09-19T11:15:46Z</time>
      </trkpt>
      <trkpt lat="45.8205" lon="5.43338">
        <ele>212.2</ele>
        <time>2024-09-19T11:15:47Z</time>
      </trkpt>
      <trkpt lat="45.82045" lon="5.43333">
        <ele>212.2</ele>
        <time>2024-09-19T11:15:48Z</time>
      </trkpt>
      <trkpt lat="45.82041" lon="5.43328">
        <ele>213.4</ele>
        <time>2024-09-19T11:15:49Z</time>
      </trkpt>
      <trkpt lat="45.82038" lon="5.43322">
        <ele>212.6</ele>
        <time>2024-09-19T11:15:50Z</time>
      </trkpt>
      <trkpt lat="45.82034" lon="5.43318">
        <ele>212.2</ele>
        <time>2024-09-19T11:15:51Z</time>
      </trkpt>
      <trkpt lat="45.8203" lon="5.43312">
        <ele>212.2</ele>
        <time>2024-09-19T11:15:52Z</time>
      </trkpt>
      <trkpt lat="45.82026" lon="5.43308">
        <ele>212.2</ele>
        <time>2024-09-19T11:15:53Z</time>
      </trkpt>
      <trkpt lat="45.82022" lon="5.43304">
        <ele>213</ele>
        <time>2024-09-19T11:15:54Z</time>
      </trkpt>
      <trkpt lat="45.82019" lon="5.43298">
        <ele>213</ele>
        <time>2024-09-19T11:15:55Z</time>
      </trkpt>
      <trkpt lat="45.82015" lon="5.43294">
        <ele>213</ele>
        <time>2024-09-19T11:15:56Z</time>
      </trkpt>
      <trkpt lat="45.82011" lon="5.43289">
        <ele>212.4</ele>
        <time>2024-09-19T11:15:57Z</time>
      </trkpt>
      <trkpt lat="45.82007" lon="5.43284">
        <ele>212.4</ele>
        <time>2024-09-19T11:15:58Z</time>
      </trkpt>
      <trkpt lat="45.82002" lon="5.43278">
        <ele>212.4</ele>
        <time>2024-09-19T11:15:59Z</time>
      </trkpt>
      <trkpt lat="45.81998" lon="5.43273">
        <ele>213.2</ele>
        <time>2024-09-19T11:16:00Z</time>
      </trkpt>
      <trkpt lat="45.81994" lon="5.43268">
        <ele>212.6</ele>
        <time>2024-09-19T11:16:01Z</time>
      </trkpt>
      <trkpt lat="45.81989" lon="5.43264">
        <ele>213.4</ele>
        <time>2024-09-19T11:16:02Z</time>
      </trkpt>
      <trkpt lat="45.81985" lon="5.43258">
        <ele>213.4</ele>
        <time>2024-09-19T11:16:03Z</time>
      </trkpt>
      <trkpt lat="45.81981" lon="5.43253">
        <ele>212</ele>
        <time>2024-09-19T11:16:04Z</time>
      </trkpt>
      <trkpt lat="45.81977" lon="5.43248">
        <ele>212.4</ele>
        <time>2024-09-19T11:16:05Z</time>
      </trkpt>
      <trkpt lat="45.81973" lon="5.43244">
        <ele>212.2</ele>
        <time>2024-09-19T11:16:06Z</time>
      </trkpt>
      <trkpt lat="45.81969" lon="5.43238">
        <ele>213</ele>
        <time>2024-09-19T11:16:07Z</time>
      </trkpt>
      <trkpt lat="45.81965" lon="5.43233">
        <ele>213</ele>
        <time>2024-09-19T11:16:08Z</time>
      </trkpt>
      <trkpt lat="45.81961" lon="5.43228">
        <ele>213.6</ele>
        <time>2024-09-19T11:16:09Z</time>
      </trkpt>
      <trkpt lat="45.81956" lon="5.43224">
        <ele>213.8</ele>
        <time>2024-09-19T11:16:10Z</time>
      </trkpt>
      <trkpt lat="45.81952" lon="5.43221">
        <ele>213.6</ele>
        <time>2024-09-19T11:16:11Z</time>
      </trkpt>
      <trkpt lat="45.81947" lon="5.43217">
        <ele>213.8</ele>
        <time>2024-09-19T11:16:12Z</time>
      </trkpt>
      <trkpt lat="45.81943" lon="5.43213">
        <ele>213.8</ele>
        <time>2024-09-19T11:16:13Z</time>
      </trkpt>
      <trkpt lat="45.81939" lon="5.43209">
        <ele>213.8</ele>
        <time>2024-09-19T11:16:14Z</time>
      </trkpt>
      <trkpt lat="45.81935" lon="5.43204">
        <ele>213.6</ele>
        <time>2024-09-19T11:16:15Z</time>
      </trkpt>
      <trkpt lat="45.8193" lon="5.43199">
        <ele>213</ele>
        <time>2024-09-19T11:16:16Z</time>
      </trkpt>
      <trkpt lat="45.81926" lon="5.43194">
        <ele>213.8</ele>
        <time>2024-09-19T11:16:17Z</time>
      </trkpt>
      <trkpt lat="45.81922" lon="5.43189">
        <ele>213.4</ele>
        <time>2024-09-19T11:16:18Z</time>
      </trkpt>
      <trkpt lat="45.81918" lon="5.43184">
        <ele>212.6</ele>
        <time>2024-09-19T11:16:19Z</time>
      </trkpt>
      <trkpt lat="45.81914" lon="5.43179">
        <ele>212.6</ele>
        <time>2024-09-19T11:16:20Z</time>
      </trkpt>
      <trkpt lat="45.8191" lon="5.43175">
        <ele>212</ele>
        <time>2024-09-19T11:16:21Z</time>
      </trkpt>
      <trkpt lat="45.81905" lon="5.4317">
        <ele>211.6</ele>
        <time>2024-09-19T11:16:22Z</time>
      </trkpt>
      <trkpt lat="45.81901" lon="5.43165">
        <ele>211.4</ele>
        <time>2024-09-19T11:16:23Z</time>
      </trkpt>
      <trkpt lat="45.81897" lon="5.4316">
        <ele>211.6</ele>
        <time>2024-09-19T11:16:24Z</time>
      </trkpt>
      <trkpt lat="45.81893" lon="5.43155">
        <ele>211.6</ele>
        <time>2024-09-19T11:16:25Z</time>
      </trkpt>
      <trkpt lat="45.81889" lon="5.4315">
        <ele>211.8</ele>
        <time>2024-09-19T11:16:26Z</time>
      </trkpt>
      <trkpt lat="45.81884" lon="5.43145">
        <ele>211.6</ele>
        <time>2024-09-19T11:16:27Z</time>
      </trkpt>
      <trkpt lat="45.81881" lon="5.43139">
        <ele>212.6</ele>
        <time>2024-09-19T11:16:28Z</time>
      </trkpt>
      <trkpt lat="45.81876" lon="5.43135">
        <ele>212</ele>
        <time>2024-09-19T11:16:29Z</time>
      </trkpt>
      <trkpt lat="45.81872" lon="5.43129">
        <ele>212.6</ele>
        <time>2024-09-19T11:16:30Z</time>
      </trkpt>
      <trkpt lat="45.81868" lon="5.43124">
        <ele>212.6</ele>
        <time>2024-09-19T11:16:31Z</time>
      </trkpt>
      <trkpt lat="45.81864" lon="5.43119">
        <ele>213</ele>
        <time>2024-09-19T11:16:32Z</time>
      </trkpt>
      <trkpt lat="45.8186" lon="5.43115">
        <ele>212.6</ele>
        <time>2024-09-19T11:16:33Z</time>
      </trkpt>
      <trkpt lat="45.81855" lon="5.4311">
        <ele>212.6</ele>
        <time>2024-09-19T11:16:34Z</time>
      </trkpt>
      <trkpt lat="45.81851" lon="5.43104">
        <ele>213.2</ele>
        <time>2024-09-19T11:16:35Z</time>
      </trkpt>
      <trkpt lat="45.81847" lon="5.43099">
        <ele>213.4</ele>
        <time>2024-09-19T11:16:36Z</time>
      </trkpt>
      <trkpt lat="45.81843" lon="5.43095">
        <ele>213.4</ele>
        <time>2024-09-19T11:16:37Z</time>
      </trkpt>
      <trkpt lat="45.81839" lon="5.43089">
        <ele>213.4</ele>
        <time>2024-09-19T11:16:38Z</time>
      </trkpt>
      <trkpt lat="45.81834" lon="5.43084">
        <ele>213</ele>
        <time>2024-09-19T11:16:39Z</time>
      </trkpt>
      <trkpt lat="45.8183" lon="5.43079">
        <ele>212.6</ele>
        <time>2024-09-19T11:16:40Z</time>
      </trkpt>
      <trkpt lat="45.81825" lon="5.43073">
        <ele>212.2</ele>
        <time>2024-09-19T11:16:41Z</time>
      </trkpt>
      <trkpt lat="45.81821" lon="5.43068">
        <ele>213</ele>
        <time>2024-09-19T11:16:42Z</time>
      </trkpt>
      <trkpt lat="45.81817" lon="5.43063">
        <ele>213</ele>
        <time>2024-09-19T11:16:43Z</time>
      </trkpt>
      <trkpt lat="45.81812" lon="5.43057">
        <ele>213</ele>
        <time>2024-09-19T11:16:44Z</time>
      </trkpt>
      <trkpt lat="45.81808" lon="5.43051">
        <ele>213</ele>
        <time>2024-09-19T11:16:45Z</time>
      </trkpt>
      <trkpt lat="45.81804" lon="5.43046">
        <ele>213</ele>
        <time>2024-09-19T11:16:46Z</time>
      </trkpt>
      <trkpt lat="45.81799" lon="5.43041">
        <ele>213</ele>
        <time>2024-09-19T11:16:47Z</time>
      </trkpt>
      <trkpt lat="45.81795" lon="5.43036">
        <ele>213.4</ele>
        <time>2024-09-19T11:16:48Z</time>
      </trkpt>
      <trkpt lat="45.8179" lon="5.43031">
        <ele>213.4</ele>
        <time>2024-09-19T11:16:49Z</time>
      </trkpt>
      <trkpt lat="45.81786" lon="5.43026">
        <ele>213</ele>
        <time>2024-09-19T11:16:50Z</time>
      </trkpt>
      <trkpt lat="45.81782" lon="5.4302">
        <ele>212.4</ele>
        <time>2024-09-19T11:16:51Z</time>
      </trkpt>
      <trkpt lat="45.81777" lon="5.43015">
        <ele>213</ele>
        <time>2024-09-19T11:16:52Z</time>
      </trkpt>
      <trkpt lat="45.81773" lon="5.4301">
        <ele>212.8</ele>
        <time>2024-09-19T11:16:53Z</time>
      </trkpt>
      <trkpt lat="45.81768" lon="5.43005">
        <ele>212.4</ele>
        <time>2024-09-19T11:16:54Z</time>
      </trkpt>
      <trkpt lat="45.81764" lon="5.42999">
        <ele>212.4</ele>
        <time>2024-09-19T11:16:55Z</time>
      </trkpt>
      <trkpt lat="45.8176" lon="5.42994">
        <ele>212.8</ele>
        <time>2024-09-19T11:16:56Z</time>
      </trkpt>
      <trkpt lat="45.81755" lon="5.42989">
        <ele>212</ele>
        <time>2024-09-19T11:16:57Z</time>
      </trkpt>
      <trkpt lat="45.8175" lon="5.42985">
        <ele>212</ele>
        <time>2024-09-19T11:16:58Z</time>
      </trkpt>
      <trkpt lat="45.81746" lon="5.4298">
        <ele>212.2</ele>
        <time>2024-09-19T11:16:59Z</time>
      </trkpt>
      <trkpt lat="45.81742" lon="5.42974">
        <ele>212.2</ele>
        <time>2024-09-19T11:17:00Z</time>
      </trkpt>
      <trkpt lat="45.81738" lon="5.42968">
        <ele>212.2</ele>
        <time>2024-09-19T11:17:01Z</time>
      </trkpt>
      <trkpt lat="45.81733" lon="5.42963">
        <ele>212.6</ele>
        <time>2024-09-19T11:17:02Z</time>
      </trkpt>
      <trkpt lat="45.81729" lon="5.42957">
        <ele>212.6</ele>
        <time>2024-09-19T11:17:03Z</time>
      </trkpt>
      <trkpt lat="45.81725" lon="5.42952">
        <ele>212.6</ele>
        <time>2024-09-19T11:17:04Z</time>
      </trkpt>
      <trkpt lat="45.8172" lon="5.42947">
        <ele>212.2</ele>
        <time>2024-09-19T11:17:05Z</time>
      </trkpt>
      <trkpt lat="45.81716" lon="5.42941">
        <ele>212.2</ele>
        <time>2024-09-19T11:17:06Z</time>
      </trkpt>
      <trkpt lat="45.81712" lon="5.42936">
        <ele>212.2</ele>
        <time>2024-09-19T11:17:07Z</time>
      </trkpt>
      <trkpt lat="45.81707" lon="5.42932">
        <ele>212.2</ele>
        <time>2024-09-19T11:17:08Z</time>
      </trkpt>
      <trkpt lat="45.81703" lon="5.42926">
        <ele>211.8</ele>
        <time>2024-09-19T11:17:09Z</time>
      </trkpt>
      <trkpt lat="45.81699" lon="5.42921">
        <ele>211.4</ele>
        <time>2024-09-19T11:17:10Z</time>
      </trkpt>
      <trkpt lat="45.81694" lon="5.42916">
        <ele>211.2</ele>
        <time>2024-09-19T11:17:11Z</time>
      </trkpt>
      <trkpt lat="45.8169" lon="5.42911">
        <ele>210.8</ele>
        <time>2024-09-19T11:17:12Z</time>
      </trkpt>
      <trkpt lat="45.81686" lon="5.42906">
        <ele>210.8</ele>
        <time>2024-09-19T11:17:13Z</time>
      </trkpt>
      <trkpt lat="45.81682" lon="5.42902">
        <ele>211.8</ele>
        <time>2024-09-19T11:17:14Z</time>
      </trkpt>
      <trkpt lat="45.81677" lon="5.42897">
        <ele>211.8</ele>
        <time>2024-09-19T11:17:15Z</time>
      </trkpt>
      <trkpt lat="45.81673" lon="5.42893">
        <ele>212.4</ele>
        <time>2024-09-19T11:17:16Z</time>
      </trkpt>
      <trkpt lat="45.81669" lon="5.42888">
        <ele>212.4</ele>
        <time>2024-09-19T11:17:17Z</time>
      </trkpt>
      <trkpt lat="45.81665" lon="5.42883">
        <ele>212.8</ele>
        <time>2024-09-19T11:17:18Z</time>
      </trkpt>
      <trkpt lat="45.8166" lon="5.42878">
        <ele>212.8</ele>
        <time>2024-09-19T11:17:19Z</time>
      </trkpt>
      <trkpt lat="45.81656" lon="5.42873">
        <ele>213.6</ele>
        <time>2024-09-19T11:17:20Z</time>
      </trkpt>
      <trkpt lat="45.81652" lon="5.42869">
        <ele>213.2</ele>
        <time>2024-09-19T11:17:21Z</time>
      </trkpt>
      <trkpt lat="45.81648" lon="5.42864">
        <ele>213.2</ele>
        <time>2024-09-19T11:17:22Z</time>
      </trkpt>
      <trkpt lat="45.81643" lon="5.42859">
        <ele>213.2</ele>
        <time>2024-09-19T11:17:23Z</time>
      </trkpt>
      <trkpt lat="45.81639" lon="5.42855">
        <ele>212.4</ele>
        <time>2024-09-19T11:17:24Z</time>
      </trkpt>
      <trkpt lat="45.81635" lon="5.42852">
        <ele>212.4</ele>
        <time>2024-09-19T11:17:25Z</time>
      </trkpt>
      <trkpt lat="45.81631" lon="5.42848">
        <ele>212.4</ele>
        <time>2024-09-19T11:17:26Z</time>
      </trkpt>
      <trkpt lat="45.81627" lon="5.42844">
        <ele>212.4</ele>
        <time>2024-09-19T11:17:27Z</time>
      </trkpt>
      <trkpt lat="45.81624" lon="5.4284">
        <ele>213.2</ele>
        <time>2024-09-19T11:17:28Z</time>
      </trkpt>
      <trkpt lat="45.81621" lon="5.42837">
        <ele>213.2</ele>
        <time>2024-09-19T11:17:29Z</time>
      </trkpt>
      <trkpt lat="45.81617" lon="5.42834">
        <ele>213.2</ele>
        <time>2024-09-19T11:17:30Z</time>
      </trkpt>
      <trkpt lat="45.81614" lon="5.42832">
        <ele>213.2</ele>
        <time>2024-09-19T11:17:31Z</time>
      </trkpt>
      <trkpt lat="45.81612" lon="5.42831">
        <ele>213.2</ele>
        <time>2024-09-19T11:17:32Z</time>
      </trkpt>
      <trkpt lat="45.81609" lon="5.42829">
        <ele>213.2</ele>
        <time>2024-09-19T11:17:33Z</time>
      </trkpt>
      <trkpt lat="45.81606" lon="5.42828">
        <ele>213.2</ele>
        <time>2024-09-19T11:17:34Z</time>
      </trkpt>
      <trkpt lat="45.81602" lon="5.42824">
        <ele>213.2</ele>
        <time>2024-09-19T11:17:35Z</time>
      </trkpt>
      <trkpt lat="45.81599" lon="5.42821">
        <ele>213.4</ele>
        <time>2024-09-19T11:17:36Z</time>
      </trkpt>
      <trkpt lat="45.81595" lon="5.42818">
        <ele>214</ele>
        <time>2024-09-19T11:17:37Z</time>
      </trkpt>
      <trkpt lat="45.81592" lon="5.42814">
        <ele>214</ele>
        <time>2024-09-19T11:17:38Z</time>
      </trkpt>
      <trkpt lat="45.81589" lon="5.4281">
        <ele>214</ele>
        <time>2024-09-19T11:17:39Z</time>
      </trkpt>
      <trkpt lat="45.81585" lon="5.42807">
        <ele>214</ele>
        <time>2024-09-19T11:17:40Z</time>
      </trkpt>
      <trkpt lat="45.81582" lon="5.42803">
        <ele>213.6</ele>
        <time>2024-09-19T11:17:41Z</time>
      </trkpt>
      <trkpt lat="45.81578" lon="5.42798">
        <ele>214.2</ele>
        <time>2024-09-19T11:17:42Z</time>
      </trkpt>
      <trkpt lat="45.81574" lon="5.42794">
        <ele>214.2</ele>
        <time>2024-09-19T11:17:43Z</time>
      </trkpt>
      <trkpt lat="45.8157" lon="5.42789">
        <ele>214.2</ele>
        <time>2024-09-19T11:17:44Z</time>
      </trkpt>
      <trkpt lat="45.81567" lon="5.42785">
        <ele>213.8</ele>
        <time>2024-09-19T11:17:45Z</time>
      </trkpt>
      <trkpt lat="45.81563" lon="5.4278">
        <ele>213.8</ele>
        <time>2024-09-19T11:17:46Z</time>
      </trkpt>
      <trkpt lat="45.81559" lon="5.42775">
        <ele>213.8</ele>
        <time>2024-09-19T11:17:47Z</time>
      </trkpt>
      <trkpt lat="45.81555" lon="5.42771">
        <ele>214.4</ele>
        <time>2024-09-19T11:17:48Z</time>
      </trkpt>
      <trkpt lat="45.81551" lon="5.42766">
        <ele>214</ele>
        <time>2024-09-19T11:17:49Z</time>
      </trkpt>
      <trkpt lat="45.81547" lon="5.42762">
        <ele>213.6</ele>
        <time>2024-09-19T11:17:50Z</time>
      </trkpt>
      <trkpt lat="45.81543" lon="5.42758">
        <ele>214.2</ele>
        <time>2024-09-19T11:17:51Z</time>
      </trkpt>
      <trkpt lat="45.81539" lon="5.42754">
        <ele>214.2</ele>
        <time>2024-09-19T11:17:52Z</time>
      </trkpt>
      <trkpt lat="45.81536" lon="5.4275">
        <ele>213.4</ele>
        <time>2024-09-19T11:17:53Z</time>
      </trkpt>
      <trkpt lat="45.81531" lon="5.42746">
        <ele>213.2</ele>
        <time>2024-09-19T11:17:54Z</time>
      </trkpt>
      <trkpt lat="45.81527" lon="5.42742">
        <ele>213.2</ele>
        <time>2024-09-19T11:17:55Z</time>
      </trkpt>
      <trkpt lat="45.81523" lon="5.42738">
        <ele>213.2</ele>
        <time>2024-09-19T11:17:56Z</time>
      </trkpt>
      <trkpt lat="45.81518" lon="5.42734">
        <ele>213.2</ele>
        <time>2024-09-19T11:17:57Z</time>
      </trkpt>
      <trkpt lat="45.81514" lon="5.42731">
        <ele>213.2</ele>
        <time>2024-09-19T11:17:58Z</time>
      </trkpt>
      <trkpt lat="45.8151" lon="5.42727">
        <ele>212.8</ele>
        <time>2024-09-19T11:17:59Z</time>
      </trkpt>
      <trkpt lat="45.81506" lon="5.42722">
        <ele>212.4</ele>
        <time>2024-09-19T11:18:00Z</time>
      </trkpt>
      <trkpt lat="45.81501" lon="5.42718">
        <ele>212.6</ele>
        <time>2024-09-19T11:18:01Z</time>
      </trkpt>
      <trkpt lat="45.81497" lon="5.42715">
        <ele>212.6</ele>
        <time>2024-09-19T11:18:02Z</time>
      </trkpt>
      <trkpt lat="45.81493" lon="5.42712">
        <ele>213</ele>
        <time>2024-09-19T11:18:03Z</time>
      </trkpt>
      <trkpt lat="45.81488" lon="5.42708">
        <ele>213</ele>
        <time>2024-09-19T11:18:04Z</time>
      </trkpt>
      <trkpt lat="45.81484" lon="5.42704">
        <ele>213</ele>
        <time>2024-09-19T11:18:05Z</time>
      </trkpt>
      <trkpt lat="45.81479" lon="5.42701">
        <ele>213.4</ele>
        <time>2024-09-19T11:18:06Z</time>
      </trkpt>
      <trkpt lat="45.81475" lon="5.42696">
        <ele>213.4</ele>
        <time>2024-09-19T11:18:07Z</time>
      </trkpt>
      <trkpt lat="45.81471" lon="5.42693">
        <ele>213</ele>
        <time>2024-09-19T11:18:08Z</time>
      </trkpt>
      <trkpt lat="45.81466" lon="5.42689">
        <ele>213</ele>
        <time>2024-09-19T11:18:09Z</time>
      </trkpt>
      <trkpt lat="45.81462" lon="5.42685">
        <ele>213</ele>
        <time>2024-09-19T11:18:10Z</time>
      </trkpt>
      <trkpt lat="45.81457" lon="5.42681">
        <ele>213</ele>
        <time>2024-09-19T11:18:11Z</time>
      </trkpt>
      <trkpt lat="45.81453" lon="5.42677">
        <ele>213.6</ele>
        <time>2024-09-19T11:18:12Z</time>
      </trkpt>
      <trkpt lat="45.81449" lon="5.42673">
        <ele>213.6</ele>
        <time>2024-09-19T11:18:13Z</time>
      </trkpt>
      <trkpt lat="45.81444" lon="5.42669">
        <ele>213.2</ele>
        <time>2024-09-19T11:18:14Z</time>
      </trkpt>
      <trkpt lat="45.8144" lon="5.42665">
        <ele>213.4</ele>
        <time>2024-09-19T11:18:15Z</time>
      </trkpt>
      <trkpt lat="45.81435" lon="5.42661">
        <ele>213</ele>
        <time>2024-09-19T11:18:16Z</time>
      </trkpt>
      <trkpt lat="45.81431" lon="5.42657">
        <ele>212.6</ele>
        <time>2024-09-19T11:18:17Z</time>
      </trkpt>
      <trkpt lat="45.81426" lon="5.42652">
        <ele>212.6</ele>
        <time>2024-09-19T11:18:18Z</time>
      </trkpt>
      <trkpt lat="45.81426" lon="5.42652">
        <ele>212.6</ele>
        <time>2024-09-19T11:18:19Z</time>
      </trkpt>
      <trkpt lat="45.81422" lon="5.42649">
        <ele>213</ele>
        <time>2024-09-19T11:18:20Z</time>
      </trkpt>
      <trkpt lat="45.81417" lon="5.42645">
        <ele>214</ele>
        <time>2024-09-19T11:18:21Z</time>
      </trkpt>
      <trkpt lat="45.81412" lon="5.42641">
        <ele>213.6</ele>
        <time>2024-09-19T11:18:22Z</time>
      </trkpt>
      <trkpt lat="45.81407" lon="5.42636">
        <ele>213.4</ele>
        <time>2024-09-19T11:18:23Z</time>
      </trkpt>
      <trkpt lat="45.81403" lon="5.42632">
        <ele>214.2</ele>
        <time>2024-09-19T11:18:24Z</time>
      </trkpt>
      <trkpt lat="45.81399" lon="5.42629">
        <ele>213.8</ele>
        <time>2024-09-19T11:18:25Z</time>
      </trkpt>
      <trkpt lat="45.81394" lon="5.42625">
        <ele>213.4</ele>
        <time>2024-09-19T11:18:26Z</time>
      </trkpt>
      <trkpt lat="45.8139" lon="5.42622">
        <ele>213.4</ele>
        <time>2024-09-19T11:18:27Z</time>
      </trkpt>
      <trkpt lat="45.81381" lon="5.42616">
        <ele>213</ele>
        <time>2024-09-19T11:18:28Z</time>
      </trkpt>
      <trkpt lat="45.81376" lon="5.42612">
        <ele>213</ele>
        <time>2024-09-19T11:18:29Z</time>
      </trkpt>
      <trkpt lat="45.81371" lon="5.42608">
        <ele>213.2</ele>
        <time>2024-09-19T11:18:30Z</time>
      </trkpt>
      <trkpt lat="45.81366" lon="5.42605">
        <ele>213.2</ele>
        <time>2024-09-19T11:18:31Z</time>
      </trkpt>
      <trkpt lat="45.81362" lon="5.42601">
        <ele>213.2</ele>
        <time>2024-09-19T11:18:32Z</time>
      </trkpt>
      <trkpt lat="45.81357" lon="5.42597">
        <ele>213.6</ele>
        <time>2024-09-19T11:18:33Z</time>
      </trkpt>
      <trkpt lat="45.81352" lon="5.42594">
        <ele>213.8</ele>
        <time>2024-09-19T11:18:34Z</time>
      </trkpt>
      <trkpt lat="45.81347" lon="5.4259">
        <ele>213.4</ele>
        <time>2024-09-19T11:18:35Z</time>
      </trkpt>
      <trkpt lat="45.81342" lon="5.42587">
        <ele>213.2</ele>
        <time>2024-09-19T11:18:36Z</time>
      </trkpt>
      <trkpt lat="45.81337" lon="5.42584">
        <ele>213.2</ele>
        <time>2024-09-19T11:18:37Z</time>
      </trkpt>
      <trkpt lat="45.81332" lon="5.42581">
        <ele>213.4</ele>
        <time>2024-09-19T11:18:38Z</time>
      </trkpt>
      <trkpt lat="45.81326" lon="5.42578">
        <ele>213.2</ele>
        <time>2024-09-19T11:18:39Z</time>
      </trkpt>
      <trkpt lat="45.81321" lon="5.42575">
        <ele>214</ele>
        <time>2024-09-19T11:18:40Z</time>
      </trkpt>
      <trkpt lat="45.81316" lon="5.42572">
        <ele>213.6</ele>
        <time>2024-09-19T11:18:41Z</time>
      </trkpt>
      <trkpt lat="45.81311" lon="5.4257">
        <ele>214.4</ele>
        <time>2024-09-19T11:18:42Z</time>
      </trkpt>
      <trkpt lat="45.81306" lon="5.42567">
        <ele>214</ele>
        <time>2024-09-19T11:18:43Z</time>
      </trkpt>
      <trkpt lat="45.813" lon="5.42563">
        <ele>214</ele>
        <time>2024-09-19T11:18:44Z</time>
      </trkpt>
      <trkpt lat="45.81295" lon="5.4256">
        <ele>214.2</ele>
        <time>2024-09-19T11:18:45Z</time>
      </trkpt>
      <trkpt lat="45.8129" lon="5.42557">
        <ele>214.2</ele>
        <time>2024-09-19T11:18:46Z</time>
      </trkpt>
      <trkpt lat="45.81285" lon="5.42555">
        <ele>213.8</ele>
        <time>2024-09-19T11:18:47Z</time>
      </trkpt>
      <trkpt lat="45.81279" lon="5.42552">
        <ele>213.8</ele>
        <time>2024-09-19T11:18:48Z</time>
      </trkpt>
      <trkpt lat="45.81274" lon="5.42549">
        <ele>213.8</ele>
        <time>2024-09-19T11:18:49Z</time>
      </trkpt>
      <trkpt lat="45.81269" lon="5.42547">
        <ele>214.2</ele>
        <time>2024-09-19T11:18:50Z</time>
      </trkpt>
      <trkpt lat="45.81263" lon="5.42544">
        <ele>213.8</ele>
        <time>2024-09-19T11:18:51Z</time>
      </trkpt>
      <trkpt lat="45.81257" lon="5.42542">
        <ele>213.4</ele>
        <time>2024-09-19T11:18:52Z</time>
      </trkpt>
      <trkpt lat="45.81252" lon="5.42541">
        <ele>213.4</ele>
        <time>2024-09-19T11:18:53Z</time>
      </trkpt>
      <trkpt lat="45.81247" lon="5.42539">
        <ele>213.4</ele>
        <time>2024-09-19T11:18:54Z</time>
      </trkpt>
      <trkpt lat="45.81241" lon="5.42537">
        <ele>213.2</ele>
        <time>2024-09-19T11:18:55Z</time>
      </trkpt>
      <trkpt lat="45.81236" lon="5.42536">
        <ele>213.2</ele>
        <time>2024-09-19T11:18:56Z</time>
      </trkpt>
      <trkpt lat="45.8123" lon="5.42534">
        <ele>213.2</ele>
        <time>2024-09-19T11:18:57Z</time>
      </trkpt>
      <trkpt lat="45.81224" lon="5.42532">
        <ele>213.6</ele>
        <time>2024-09-19T11:18:58Z</time>
      </trkpt>
      <trkpt lat="45.81219" lon="5.42531">
        <ele>213.6</ele>
        <time>2024-09-19T11:18:59Z</time>
      </trkpt>
      <trkpt lat="45.81213" lon="5.42529">
        <ele>212.4</ele>
        <time>2024-09-19T11:19:00Z</time>
      </trkpt>
      <trkpt lat="45.81208" lon="5.42528">
        <ele>212.4</ele>
        <time>2024-09-19T11:19:01Z</time>
      </trkpt>
      <trkpt lat="45.81202" lon="5.42526">
        <ele>212.2</ele>
        <time>2024-09-19T11:19:02Z</time>
      </trkpt>
      <trkpt lat="45.81197" lon="5.42524">
        <ele>212.8</ele>
        <time>2024-09-19T11:19:03Z</time>
      </trkpt>
      <trkpt lat="45.81191" lon="5.42523">
        <ele>212</ele>
        <time>2024-09-19T11:19:04Z</time>
      </trkpt>
      <trkpt lat="45.81186" lon="5.42521">
        <ele>213</ele>
        <time>2024-09-19T11:19:05Z</time>
      </trkpt>
      <trkpt lat="45.8118" lon="5.4252">
        <ele>213.6</ele>
        <time>2024-09-19T11:19:06Z</time>
      </trkpt>
      <trkpt lat="45.81174" lon="5.4252">
        <ele>214</ele>
        <time>2024-09-19T11:19:07Z</time>
      </trkpt>
      <trkpt lat="45.81169" lon="5.42519">
        <ele>214.2</ele>
        <time>2024-09-19T11:19:08Z</time>
      </trkpt>
      <trkpt lat="45.81164" lon="5.42518">
        <ele>214.2</ele>
        <time>2024-09-19T11:19:09Z</time>
      </trkpt>
      <trkpt lat="45.81158" lon="5.42517">
        <ele>213.8</ele>
        <time>2024-09-19T11:19:10Z</time>
      </trkpt>
      <trkpt lat="45.81153" lon="5.42517">
        <ele>213.8</ele>
        <time>2024-09-19T11:19:11Z</time>
      </trkpt>
      <trkpt lat="45.81148" lon="5.42516">
        <ele>214</ele>
        <time>2024-09-19T11:19:12Z</time>
      </trkpt>
      <trkpt lat="45.81143" lon="5.42516">
        <ele>214</ele>
        <time>2024-09-19T11:19:13Z</time>
      </trkpt>
      <trkpt lat="45.81138" lon="5.42515">
        <ele>214</ele>
        <time>2024-09-19T11:19:14Z</time>
      </trkpt>
      <trkpt lat="45.81133" lon="5.42515">
        <ele>213.4</ele>
        <time>2024-09-19T11:19:15Z</time>
      </trkpt>
      <trkpt lat="45.81128" lon="5.42514">
        <ele>214</ele>
        <time>2024-09-19T11:19:16Z</time>
      </trkpt>
      <trkpt lat="45.81123" lon="5.42514">
        <ele>214</ele>
        <time>2024-09-19T11:19:17Z</time>
      </trkpt>
      <trkpt lat="45.81118" lon="5.42513">
        <ele>214</ele>
        <time>2024-09-19T11:19:18Z</time>
      </trkpt>
      <trkpt lat="45.81113" lon="5.42513">
        <ele>214</ele>
        <time>2024-09-19T11:19:19Z</time>
      </trkpt>
      <trkpt lat="45.81107" lon="5.42513">
        <ele>214.2</ele>
        <time>2024-09-19T11:19:20Z</time>
      </trkpt>
      <trkpt lat="45.81102" lon="5.42513">
        <ele>213.6</ele>
        <time>2024-09-19T11:19:21Z</time>
      </trkpt>
      <trkpt lat="45.81096" lon="5.42513">
        <ele>214</ele>
        <time>2024-09-19T11:19:22Z</time>
      </trkpt>
      <trkpt lat="45.81091" lon="5.42513">
        <ele>214</ele>
        <time>2024-09-19T11:19:23Z</time>
      </trkpt>
      <trkpt lat="45.81087" lon="5.42513">
        <ele>214</ele>
        <time>2024-09-19T11:19:24Z</time>
      </trkpt>
      <trkpt lat="45.81082" lon="5.42513">
        <ele>214.4</ele>
        <time>2024-09-19T11:19:25Z</time>
      </trkpt>
      <trkpt lat="45.81076" lon="5.42513">
        <ele>214.4</ele>
        <time>2024-09-19T11:19:26Z</time>
      </trkpt>
      <trkpt lat="45.81071" lon="5.42513">
        <ele>214.4</ele>
        <time>2024-09-19T11:19:27Z</time>
      </trkpt>
      <trkpt lat="45.81067" lon="5.42514">
        <ele>214.6</ele>
        <time>2024-09-19T11:19:28Z</time>
      </trkpt>
      <trkpt lat="45.81062" lon="5.42514">
        <ele>214.6</ele>
        <time>2024-09-19T11:19:29Z</time>
      </trkpt>
      <trkpt lat="45.81057" lon="5.42514">
        <ele>215.4</ele>
        <time>2024-09-19T11:19:30Z</time>
      </trkpt>
      <trkpt lat="45.81052" lon="5.42515">
        <ele>215</ele>
        <time>2024-09-19T11:19:31Z</time>
      </trkpt>
      <trkpt lat="45.81047" lon="5.42516">
        <ele>215</ele>
        <time>2024-09-19T11:19:32Z</time>
      </trkpt>
      <trkpt lat="45.81042" lon="5.42517">
        <ele>214.6</ele>
        <time>2024-09-19T11:19:33Z</time>
      </trkpt>
      <trkpt lat="45.81037" lon="5.42517">
        <ele>214</ele>
        <time>2024-09-19T11:19:34Z</time>
      </trkpt>
      <trkpt lat="45.81032" lon="5.42518">
        <ele>214</ele>
        <time>2024-09-19T11:19:35Z</time>
      </trkpt>
      <trkpt lat="45.81027" lon="5.42519">
        <ele>214</ele>
        <time>2024-09-19T11:19:36Z</time>
      </trkpt>
      <trkpt lat="45.81022" lon="5.4252">
        <ele>214.4</ele>
        <time>2024-09-19T11:19:37Z</time>
      </trkpt>
      <trkpt lat="45.81017" lon="5.4252">
        <ele>214.4</ele>
        <time>2024-09-19T11:19:38Z</time>
      </trkpt>
      <trkpt lat="45.81012" lon="5.42521">
        <ele>214.4</ele>
        <time>2024-09-19T11:19:39Z</time>
      </trkpt>
      <trkpt lat="45.81007" lon="5.42522">
        <ele>214.4</ele>
        <time>2024-09-19T11:19:40Z</time>
      </trkpt>
      <trkpt lat="45.81001" lon="5.42524">
        <ele>214.4</ele>
        <time>2024-09-19T11:19:41Z</time>
      </trkpt>
      <trkpt lat="45.80996" lon="5.42525">
        <ele>214.4</ele>
        <time>2024-09-19T11:19:42Z</time>
      </trkpt>
      <trkpt lat="45.80991" lon="5.42526">
        <ele>214.4</ele>
        <time>2024-09-19T11:19:43Z</time>
      </trkpt>
      <trkpt lat="45.80986" lon="5.42527">
        <ele>214.4</ele>
        <time>2024-09-19T11:19:44Z</time>
      </trkpt>
      <trkpt lat="45.80981" lon="5.42528">
        <ele>214.4</ele>
        <time>2024-09-19T11:19:45Z</time>
      </trkpt>
      <trkpt lat="45.80976" lon="5.42529">
        <ele>214.4</ele>
        <time>2024-09-19T11:19:46Z</time>
      </trkpt>
      <trkpt lat="45.8097" lon="5.42531">
        <ele>214.6</ele>
        <time>2024-09-19T11:19:47Z</time>
      </trkpt>
      <trkpt lat="45.80965" lon="5.42532">
        <ele>214.6</ele>
        <time>2024-09-19T11:19:48Z</time>
      </trkpt>
      <trkpt lat="45.8096" lon="5.42534">
        <ele>214.6</ele>
        <time>2024-09-19T11:19:49Z</time>
      </trkpt>
      <trkpt lat="45.80954" lon="5.42535">
        <ele>214.2</ele>
        <time>2024-09-19T11:19:50Z</time>
      </trkpt>
      <trkpt lat="45.80948" lon="5.42538">
        <ele>214.2</ele>
        <time>2024-09-19T11:19:51Z</time>
      </trkpt>
      <trkpt lat="45.80943" lon="5.42539">
        <ele>214.4</ele>
        <time>2024-09-19T11:19:52Z</time>
      </trkpt>
      <trkpt lat="45.80938" lon="5.42541">
        <ele>214.4</ele>
        <time>2024-09-19T11:19:53Z</time>
      </trkpt>
      <trkpt lat="45.80932" lon="5.42543">
        <ele>214</ele>
        <time>2024-09-19T11:19:54Z</time>
      </trkpt>
      <trkpt lat="45.80927" lon="5.42545">
        <ele>214</ele>
        <time>2024-09-19T11:19:55Z</time>
      </trkpt>
      <trkpt lat="45.80921" lon="5.42548">
        <ele>214</ele>
        <time>2024-09-19T11:19:56Z</time>
      </trkpt>
      <trkpt lat="45.80916" lon="5.4255">
        <ele>214.4</ele>
        <time>2024-09-19T11:19:57Z</time>
      </trkpt>
      <trkpt lat="45.8091" lon="5.42553">
        <ele>214.4</ele>
        <time>2024-09-19T11:19:58Z</time>
      </trkpt>
      <trkpt lat="45.80905" lon="5.42555">
        <ele>213.8</ele>
        <time>2024-09-19T11:19:59Z</time>
      </trkpt>
      <trkpt lat="45.809" lon="5.42558">
        <ele>213.8</ele>
        <time>2024-09-19T11:20:00Z</time>
      </trkpt>
      <trkpt lat="45.80894" lon="5.42561">
        <ele>214.2</ele>
        <time>2024-09-19T11:20:01Z</time>
      </trkpt>
      <trkpt lat="45.80889" lon="5.42564">
        <ele>214.4</ele>
        <time>2024-09-19T11:20:02Z</time>
      </trkpt>
      <trkpt lat="45.80883" lon="5.42567">
        <ele>214.4</ele>
        <time>2024-09-19T11:20:03Z</time>
      </trkpt>
      <trkpt lat="45.80877" lon="5.4257">
        <ele>213.2</ele>
        <time>2024-09-19T11:20:04Z</time>
      </trkpt>
      <trkpt lat="45.80872" lon="5.42574">
        <ele>213.2</ele>
        <time>2024-09-19T11:20:05Z</time>
      </trkpt>
      <trkpt lat="45.80867" lon="5.42576">
        <ele>213.2</ele>
        <time>2024-09-19T11:20:06Z</time>
      </trkpt>
      <trkpt lat="45.80862" lon="5.42579">
        <ele>213.8</ele>
        <time>2024-09-19T11:20:07Z</time>
      </trkpt>
      <trkpt lat="45.80856" lon="5.42583">
        <ele>213.8</ele>
        <time>2024-09-19T11:20:08Z</time>
      </trkpt>
      <trkpt lat="45.80851" lon="5.42585">
        <ele>213.8</ele>
        <time>2024-09-19T11:20:09Z</time>
      </trkpt>
      <trkpt lat="45.80846" lon="5.42586">
        <ele>213.6</ele>
        <time>2024-09-19T11:20:10Z</time>
      </trkpt>
      <trkpt lat="45.80841" lon="5.4259">
        <ele>213.6</ele>
        <time>2024-09-19T11:20:11Z</time>
      </trkpt>
      <trkpt lat="45.80836" lon="5.42593">
        <ele>213.8</ele>
        <time>2024-09-19T11:20:12Z</time>
      </trkpt>
      <trkpt lat="45.8083" lon="5.42596">
        <ele>213.8</ele>
        <time>2024-09-19T11:20:13Z</time>
      </trkpt>
      <trkpt lat="45.80825" lon="5.426">
        <ele>213.2</ele>
        <time>2024-09-19T11:20:14Z</time>
      </trkpt>
      <trkpt lat="45.80819" lon="5.42603">
        <ele>213.2</ele>
        <time>2024-09-19T11:20:15Z</time>
      </trkpt>
      <trkpt lat="45.80815" lon="5.42607">
        <ele>213.8</ele>
        <time>2024-09-19T11:20:16Z</time>
      </trkpt>
      <trkpt lat="45.80809" lon="5.42612">
        <ele>214.2</ele>
        <time>2024-09-19T11:20:17Z</time>
      </trkpt>
      <trkpt lat="45.80804" lon="5.42615">
        <ele>214.2</ele>
        <time>2024-09-19T11:20:18Z</time>
      </trkpt>
      <trkpt lat="45.80799" lon="5.42619">
        <ele>214</ele>
        <time>2024-09-19T11:20:19Z</time>
      </trkpt>
      <trkpt lat="45.80794" lon="5.42623">
        <ele>214</ele>
        <time>2024-09-19T11:20:20Z</time>
      </trkpt>
      <trkpt lat="45.80789" lon="5.42627">
        <ele>213.6</ele>
        <time>2024-09-19T11:20:21Z</time>
      </trkpt>
      <trkpt lat="45.80784" lon="5.42632">
        <ele>213.2</ele>
        <time>2024-09-19T11:20:22Z</time>
      </trkpt>
      <trkpt lat="45.80778" lon="5.42636">
        <ele>213.8</ele>
        <time>2024-09-19T11:20:23Z</time>
      </trkpt>
      <trkpt lat="45.80773" lon="5.4264">
        <ele>213.8</ele>
        <time>2024-09-19T11:20:24Z</time>
      </trkpt>
      <trkpt lat="45.80768" lon="5.42644">
        <ele>213.8</ele>
        <time>2024-09-19T11:20:25Z</time>
      </trkpt>
      <trkpt lat="45.80763" lon="5.42648">
        <ele>213.8</ele>
        <time>2024-09-19T11:20:26Z</time>
      </trkpt>
      <trkpt lat="45.80758" lon="5.42653">
        <ele>213.8</ele>
        <time>2024-09-19T11:20:27Z</time>
      </trkpt>
      <trkpt lat="45.80753" lon="5.42658">
        <ele>214.4</ele>
        <time>2024-09-19T11:20:28Z</time>
      </trkpt>
      <trkpt lat="45.80748" lon="5.42662">
        <ele>214.4</ele>
        <time>2024-09-19T11:20:29Z</time>
      </trkpt>
      <trkpt lat="45.80743" lon="5.42667">
        <ele>214.2</ele>
        <time>2024-09-19T11:20:30Z</time>
      </trkpt>
      <trkpt lat="45.80738" lon="5.42672">
        <ele>214.2</ele>
        <time>2024-09-19T11:20:31Z</time>
      </trkpt>
      <trkpt lat="45.80733" lon="5.42677">
        <ele>214.2</ele>
        <time>2024-09-19T11:20:32Z</time>
      </trkpt>
      <trkpt lat="45.80728" lon="5.42682">
        <ele>213.6</ele>
        <time>2024-09-19T11:20:33Z</time>
      </trkpt>
      <trkpt lat="45.80723" lon="5.42687">
        <ele>213.6</ele>
        <time>2024-09-19T11:20:34Z</time>
      </trkpt>
      <trkpt lat="45.80718" lon="5.42693">
        <ele>213.6</ele>
        <time>2024-09-19T11:20:35Z</time>
      </trkpt>
      <trkpt lat="45.80713" lon="5.42698">
        <ele>213.8</ele>
        <time>2024-09-19T11:20:36Z</time>
      </trkpt>
      <trkpt lat="45.80708" lon="5.42703">
        <ele>213.8</ele>
        <time>2024-09-19T11:20:37Z</time>
      </trkpt>
      <trkpt lat="45.80704" lon="5.42709">
        <ele>213.8</ele>
        <time>2024-09-19T11:20:38Z</time>
      </trkpt>
      <trkpt lat="45.80699" lon="5.42714">
        <ele>213.8</ele>
        <time>2024-09-19T11:20:39Z</time>
      </trkpt>
      <trkpt lat="45.80695" lon="5.42719">
        <ele>213.8</ele>
        <time>2024-09-19T11:20:40Z</time>
      </trkpt>
      <trkpt lat="45.80691" lon="5.42725">
        <ele>213.8</ele>
        <time>2024-09-19T11:20:41Z</time>
      </trkpt>
      <trkpt lat="45.80687" lon="5.4273">
        <ele>213.8</ele>
        <time>2024-09-19T11:20:42Z</time>
      </trkpt>
      <trkpt lat="45.80682" lon="5.42736">
        <ele>213.8</ele>
        <time>2024-09-19T11:20:43Z</time>
      </trkpt>
      <trkpt lat="45.80678" lon="5.42741">
        <ele>213.8</ele>
        <time>2024-09-19T11:20:44Z</time>
      </trkpt>
      <trkpt lat="45.80674" lon="5.42747">
        <ele>213.8</ele>
        <time>2024-09-19T11:20:45Z</time>
      </trkpt>
      <trkpt lat="45.8067" lon="5.42753">
        <ele>213.8</ele>
        <time>2024-09-19T11:20:46Z</time>
      </trkpt>
      <trkpt lat="45.80665" lon="5.42759">
        <ele>213.8</ele>
        <time>2024-09-19T11:20:47Z</time>
      </trkpt>
      <trkpt lat="45.80661" lon="5.42765">
        <ele>213.8</ele>
        <time>2024-09-19T11:20:48Z</time>
      </trkpt>
      <trkpt lat="45.80657" lon="5.42772">
        <ele>213.8</ele>
        <time>2024-09-19T11:20:49Z</time>
      </trkpt>
      <trkpt lat="45.80653" lon="5.42778">
        <ele>213.8</ele>
        <time>2024-09-19T11:20:50Z</time>
      </trkpt>
      <trkpt lat="45.80649" lon="5.42784">
        <ele>213.8</ele>
        <time>2024-09-19T11:20:51Z</time>
      </trkpt>
      <trkpt lat="45.80644" lon="5.4279">
        <ele>213.8</ele>
        <time>2024-09-19T11:20:52Z</time>
      </trkpt>
      <trkpt lat="45.80641" lon="5.42797">
        <ele>213.8</ele>
        <time>2024-09-19T11:20:53Z</time>
      </trkpt>
      <trkpt lat="45.80637" lon="5.42803">
        <ele>213.6</ele>
        <time>2024-09-19T11:20:54Z</time>
      </trkpt>
      <trkpt lat="45.80633" lon="5.42809">
        <ele>213.6</ele>
        <time>2024-09-19T11:20:55Z</time>
      </trkpt>
      <trkpt lat="45.8063" lon="5.42816">
        <ele>213.6</ele>
        <time>2024-09-19T11:20:56Z</time>
      </trkpt>
      <trkpt lat="45.80626" lon="5.42822">
        <ele>213.6</ele>
        <time>2024-09-19T11:20:57Z</time>
      </trkpt>
      <trkpt lat="45.80622" lon="5.42829">
        <ele>213.6</ele>
        <time>2024-09-19T11:20:58Z</time>
      </trkpt>
      <trkpt lat="45.80618" lon="5.42836">
        <ele>213.8</ele>
        <time>2024-09-19T11:20:59Z</time>
      </trkpt>
      <trkpt lat="45.80614" lon="5.42842">
        <ele>213.6</ele>
        <time>2024-09-19T11:21:00Z</time>
      </trkpt>
      <trkpt lat="45.8061" lon="5.42848">
        <ele>213.6</ele>
        <time>2024-09-19T11:21:01Z</time>
      </trkpt>
      <trkpt lat="45.80607" lon="5.42855">
        <ele>214</ele>
        <time>2024-09-19T11:21:02Z</time>
      </trkpt>
      <trkpt lat="45.80603" lon="5.42861">
        <ele>214</ele>
        <time>2024-09-19T11:21:03Z</time>
      </trkpt>
      <trkpt lat="45.806" lon="5.42867">
        <ele>214.6</ele>
        <time>2024-09-19T11:21:04Z</time>
      </trkpt>
      <trkpt lat="45.80596" lon="5.42873">
        <ele>214.6</ele>
        <time>2024-09-19T11:21:05Z</time>
      </trkpt>
      <trkpt lat="45.80592" lon="5.42879">
        <ele>214.2</ele>
        <time>2024-09-19T11:21:06Z</time>
      </trkpt>
      <trkpt lat="45.80589" lon="5.42885">
        <ele>214</ele>
        <time>2024-09-19T11:21:07Z</time>
      </trkpt>
      <trkpt lat="45.80586" lon="5.42891">
        <ele>214</ele>
        <time>2024-09-19T11:21:08Z</time>
      </trkpt>
      <trkpt lat="45.80583" lon="5.42897">
        <ele>214</ele>
        <time>2024-09-19T11:21:09Z</time>
      </trkpt>
      <trkpt lat="45.80583" lon="5.42897">
        <ele>214.2</ele>
        <time>2024-09-19T11:21:10Z</time>
      </trkpt>
      <trkpt lat="45.8058" lon="5.42902">
        <ele>214.2</ele>
        <time>2024-09-19T11:21:11Z</time>
      </trkpt>
      <trkpt lat="45.80577" lon="5.42908">
        <ele>214.2</ele>
        <time>2024-09-19T11:21:12Z</time>
      </trkpt>
      <trkpt lat="45.80575" lon="5.42913">
        <ele>214.2</ele>
        <time>2024-09-19T11:21:13Z</time>
      </trkpt>
      <trkpt lat="45.80573" lon="5.42918">
        <ele>213.8</ele>
        <time>2024-09-19T11:21:14Z</time>
      </trkpt>
      <trkpt lat="45.80571" lon="5.42923">
        <ele>213.8</ele>
        <time>2024-09-19T11:21:15Z</time>
      </trkpt>
      <trkpt lat="45.80569" lon="5.42928">
        <ele>213.8</ele>
        <time>2024-09-19T11:21:16Z</time>
      </trkpt>
      <trkpt lat="45.80566" lon="5.42932">
        <ele>214.2</ele>
        <time>2024-09-19T11:21:17Z</time>
      </trkpt>
      <trkpt lat="45.80564" lon="5.42937">
        <ele>214.2</ele>
        <time>2024-09-19T11:21:18Z</time>
      </trkpt>
      <trkpt lat="45.80562" lon="5.42941">
        <ele>214</ele>
        <time>2024-09-19T11:21:19Z</time>
      </trkpt>
      <trkpt lat="45.80559" lon="5.42947">
        <ele>214</ele>
        <time>2024-09-19T11:21:20Z</time>
      </trkpt>
      <trkpt lat="45.80557" lon="5.42951">
        <ele>214.2</ele>
        <time>2024-09-19T11:21:21Z</time>
      </trkpt>
      <trkpt lat="45.80555" lon="5.42955">
        <ele>214.4</ele>
        <time>2024-09-19T11:21:22Z</time>
      </trkpt>
      <trkpt lat="45.80552" lon="5.42958">
        <ele>214.4</ele>
        <time>2024-09-19T11:21:23Z</time>
      </trkpt>
      <trkpt lat="45.80553" lon="5.42957">
        <ele>214.4</ele>
        <time>2024-09-19T11:21:24Z</time>
      </trkpt>
      <trkpt lat="45.80553" lon="5.42957">
        <ele>214.8</ele>
        <time>2024-09-19T11:21:25Z</time>
      </trkpt>
      <trkpt lat="45.80554" lon="5.42961">
        <ele>215.2</ele>
        <time>2024-09-19T11:26:48Z</time>
      </trkpt>
      <trkpt lat="45.80554" lon="5.42964">
        <ele>215.2</ele>
        <time>2024-09-19T11:26:49Z</time>
      </trkpt>
      <trkpt lat="45.80553" lon="5.42967">
        <ele>215.2</ele>
        <time>2024-09-19T11:26:50Z</time>
      </trkpt>
      <trkpt lat="45.80551" lon="5.4297">
        <ele>215</ele>
        <time>2024-09-19T11:26:51Z</time>
      </trkpt>
      <trkpt lat="45.80549" lon="5.42974">
        <ele>215.4</ele>
        <time>2024-09-19T11:26:52Z</time>
      </trkpt>
      <trkpt lat="45.80547" lon="5.42977">
        <ele>215.4</ele>
        <time>2024-09-19T11:26:53Z</time>
      </trkpt>
      <trkpt lat="45.80545" lon="5.42981">
        <ele>215.4</ele>
        <time>2024-09-19T11:26:54Z</time>
      </trkpt>
      <trkpt lat="45.80543" lon="5.42985">
        <ele>215.4</ele>
        <time>2024-09-19T11:26:55Z</time>
      </trkpt>
      <trkpt lat="45.8054" lon="5.42989">
        <ele>215.2</ele>
        <time>2024-09-19T11:26:56Z</time>
      </trkpt>
      <trkpt lat="45.80537" lon="5.42993">
        <ele>215</ele>
        <time>2024-09-19T11:26:57Z</time>
      </trkpt>
      <trkpt lat="45.80535" lon="5.42998">
        <ele>215</ele>
        <time>2024-09-19T11:26:58Z</time>
      </trkpt>
      <trkpt lat="45.80533" lon="5.43003">
        <ele>214.8</ele>
        <time>2024-09-19T11:26:59Z</time>
      </trkpt>
      <trkpt lat="45.80531" lon="5.43008">
        <ele>214.8</ele>
        <time>2024-09-19T11:27:00Z</time>
      </trkpt>
      <trkpt lat="45.80528" lon="5.43013">
        <ele>214.8</ele>
        <time>2024-09-19T11:27:01Z</time>
      </trkpt>
      <trkpt lat="45.80525" lon="5.43019">
        <ele>215.2</ele>
        <time>2024-09-19T11:27:02Z</time>
      </trkpt>
      <trkpt lat="45.80523" lon="5.43025">
        <ele>214.6</ele>
        <time>2024-09-19T11:27:03Z</time>
      </trkpt>
      <trkpt lat="45.8052" lon="5.4303">
        <ele>214.6</ele>
        <time>2024-09-19T11:27:04Z</time>
      </trkpt>
      <trkpt lat="45.80518" lon="5.43036">
        <ele>214.6</ele>
        <time>2024-09-19T11:27:05Z</time>
      </trkpt>
      <trkpt lat="45.80515" lon="5.43042">
        <ele>214.6</ele>
        <time>2024-09-19T11:27:06Z</time>
      </trkpt>
      <trkpt lat="45.80513" lon="5.43048">
        <ele>214.6</ele>
        <time>2024-09-19T11:27:07Z</time>
      </trkpt>
      <trkpt lat="45.80511" lon="5.43054">
        <ele>214.6</ele>
        <time>2024-09-19T11:27:08Z</time>
      </trkpt>
      <trkpt lat="45.80509" lon="5.4306">
        <ele>214.2</ele>
        <time>2024-09-19T11:27:09Z</time>
      </trkpt>
      <trkpt lat="45.80506" lon="5.43067">
        <ele>214.2</ele>
        <time>2024-09-19T11:27:10Z</time>
      </trkpt>
      <trkpt lat="45.80504" lon="5.43073">
        <ele>214.6</ele>
        <time>2024-09-19T11:27:11Z</time>
      </trkpt>
      <trkpt lat="45.80502" lon="5.43079">
        <ele>214.6</ele>
        <time>2024-09-19T11:27:12Z</time>
      </trkpt>
      <trkpt lat="45.80499" lon="5.43084">
        <ele>215</ele>
        <time>2024-09-19T11:27:13Z</time>
      </trkpt>
      <trkpt lat="45.80495" lon="5.4309">
        <ele>215</ele>
        <time>2024-09-19T11:27:14Z</time>
      </trkpt>
      <trkpt lat="45.80492" lon="5.43096">
        <ele>215</ele>
        <time>2024-09-19T11:27:15Z</time>
      </trkpt>
      <trkpt lat="45.80489" lon="5.43101">
        <ele>214.6</ele>
        <time>2024-09-19T11:27:16Z</time>
      </trkpt>
      <trkpt lat="45.80486" lon="5.43106">
        <ele>214.8</ele>
        <time>2024-09-19T11:27:17Z</time>
      </trkpt>
      <trkpt lat="45.80482" lon="5.4311">
        <ele>215.2</ele>
        <time>2024-09-19T11:27:18Z</time>
      </trkpt>
      <trkpt lat="45.80478" lon="5.43114">
        <ele>215.6</ele>
        <time>2024-09-19T11:27:19Z</time>
      </trkpt>
      <trkpt lat="45.80475" lon="5.43117">
        <ele>215.6</ele>
        <time>2024-09-19T11:27:20Z</time>
      </trkpt>
      <trkpt lat="45.8047" lon="5.43121">
        <ele>215.4</ele>
        <time>2024-09-19T11:27:21Z</time>
      </trkpt>
      <trkpt lat="45.80466" lon="5.43124">
        <ele>215.4</ele>
        <time>2024-09-19T11:27:22Z</time>
      </trkpt>
      <trkpt lat="45.80462" lon="5.43128">
        <ele>215.8</ele>
        <time>2024-09-19T11:27:23Z</time>
      </trkpt>
      <trkpt lat="45.80458" lon="5.43132">
        <ele>215.4</ele>
        <time>2024-09-19T11:27:24Z</time>
      </trkpt>
      <trkpt lat="45.80455" lon="5.43137">
        <ele>215.2</ele>
        <time>2024-09-19T11:27:25Z</time>
      </trkpt>
      <trkpt lat="45.80455" lon="5.43137">
        <ele>215.2</ele>
        <time>2024-09-19T11:27:26Z</time>
      </trkpt>
      <trkpt lat="45.80455" lon="5.43137">
        <ele>215.6</ele>
        <time>2024-09-19T11:27:27Z</time>
      </trkpt>
      <trkpt lat="45.80445" lon="5.43145">
        <ele>215.6</ele>
        <time>2024-09-19T11:27:28Z</time>
      </trkpt>
      <trkpt lat="45.80442" lon="5.43149">
        <ele>216</ele>
        <time>2024-09-19T11:27:29Z</time>
      </trkpt>
      <trkpt lat="45.80438" lon="5.43151">
        <ele>216.4</ele>
        <time>2024-09-19T11:27:30Z</time>
      </trkpt>
      <trkpt lat="45.80436" lon="5.43155">
        <ele>216.4</ele>
        <time>2024-09-19T11:27:31Z</time>
      </trkpt>
      <trkpt lat="45.80432" lon="5.43158">
        <ele>216.4</ele>
        <time>2024-09-19T11:27:32Z</time>
      </trkpt>
      <trkpt lat="45.80428" lon="5.43162">
        <ele>216.8</ele>
        <time>2024-09-19T11:27:33Z</time>
      </trkpt>
      <trkpt lat="45.80424" lon="5.43165">
        <ele>216.8</ele>
        <time>2024-09-19T11:27:34Z</time>
      </trkpt>
      <trkpt lat="45.8042" lon="5.43169">
        <ele>216.8</ele>
        <time>2024-09-19T11:27:35Z</time>
      </trkpt>
      <trkpt lat="45.80416" lon="5.43174">
        <ele>217</ele>
        <time>2024-09-19T11:27:36Z</time>
      </trkpt>
      <trkpt lat="45.80412" lon="5.43178">
        <ele>216.4</ele>
        <time>2024-09-19T11:27:37Z</time>
      </trkpt>
      <trkpt lat="45.80407" lon="5.43183">
        <ele>216.4</ele>
        <time>2024-09-19T11:27:38Z</time>
      </trkpt>
      <trkpt lat="45.80403" lon="5.43187">
        <ele>216.2</ele>
        <time>2024-09-19T11:27:39Z</time>
      </trkpt>
      <trkpt lat="45.80399" lon="5.43191">
        <ele>216</ele>
        <time>2024-09-19T11:27:40Z</time>
      </trkpt>
      <trkpt lat="45.80395" lon="5.43196">
        <ele>216.2</ele>
        <time>2024-09-19T11:27:41Z</time>
      </trkpt>
      <trkpt lat="45.8039" lon="5.432">
        <ele>216</ele>
        <time>2024-09-19T11:27:42Z</time>
      </trkpt>
      <trkpt lat="45.80386" lon="5.43205">
        <ele>216</ele>
        <time>2024-09-19T11:27:43Z</time>
      </trkpt>
      <trkpt lat="45.80381" lon="5.43209">
        <ele>216</ele>
        <time>2024-09-19T11:27:44Z</time>
      </trkpt>
      <trkpt lat="45.80377" lon="5.43213">
        <ele>215.8</ele>
        <time>2024-09-19T11:27:45Z</time>
      </trkpt>
      <trkpt lat="45.80372" lon="5.43218">
        <ele>215.8</ele>
        <time>2024-09-19T11:27:46Z</time>
      </trkpt>
      <trkpt lat="45.80368" lon="5.43223">
        <ele>215.4</ele>
        <time>2024-09-19T11:27:47Z</time>
      </trkpt>
      <trkpt lat="45.80363" lon="5.43228">
        <ele>215.2</ele>
        <time>2024-09-19T11:27:48Z</time>
      </trkpt>
      <trkpt lat="45.80359" lon="5.43233">
        <ele>215.2</ele>
        <time>2024-09-19T11:27:49Z</time>
      </trkpt>
      <trkpt lat="45.80354" lon="5.43238">
        <ele>214.8</ele>
        <time>2024-09-19T11:27:50Z</time>
      </trkpt>
      <trkpt lat="45.80349" lon="5.43244">
        <ele>214.8</ele>
        <time>2024-09-19T11:27:51Z</time>
      </trkpt>
      <trkpt lat="45.80345" lon="5.43249">
        <ele>214.8</ele>
        <time>2024-09-19T11:27:52Z</time>
      </trkpt>
      <trkpt lat="45.8034" lon="5.43254">
        <ele>214.4</ele>
        <time>2024-09-19T11:27:53Z</time>
      </trkpt>
      <trkpt lat="45.80334" lon="5.43258">
        <ele>214.2</ele>
        <time>2024-09-19T11:27:54Z</time>
      </trkpt>
      <trkpt lat="45.80329" lon="5.43264">
        <ele>214.2</ele>
        <time>2024-09-19T11:27:55Z</time>
      </trkpt>
      <trkpt lat="45.80325" lon="5.43268">
        <ele>214.2</ele>
        <time>2024-09-19T11:27:56Z</time>
      </trkpt>
      <trkpt lat="45.8032" lon="5.43273">
        <ele>214.2</ele>
        <time>2024-09-19T11:27:57Z</time>
      </trkpt>
      <trkpt lat="45.80315" lon="5.43278">
        <ele>214.6</ele>
        <time>2024-09-19T11:27:58Z</time>
      </trkpt>
      <trkpt lat="45.8031" lon="5.43282">
        <ele>214.6</ele>
        <time>2024-09-19T11:27:59Z</time>
      </trkpt>
      <trkpt lat="45.80305" lon="5.43287">
        <ele>214.6</ele>
        <time>2024-09-19T11:28:00Z</time>
      </trkpt>
      <trkpt lat="45.803" lon="5.43292">
        <ele>214.6</ele>
        <time>2024-09-19T11:28:01Z</time>
      </trkpt>
      <trkpt lat="45.80295" lon="5.43296">
        <ele>214.2</ele>
        <time>2024-09-19T11:28:02Z</time>
      </trkpt>
      <trkpt lat="45.8029" lon="5.43301">
        <ele>214.8</ele>
        <time>2024-09-19T11:28:03Z</time>
      </trkpt>
      <trkpt lat="45.80285" lon="5.43305">
        <ele>214.8</ele>
        <time>2024-09-19T11:28:04Z</time>
      </trkpt>
      <trkpt lat="45.8028" lon="5.43309">
        <ele>214.8</ele>
        <time>2024-09-19T11:28:05Z</time>
      </trkpt>
      <trkpt lat="45.80275" lon="5.43312">
        <ele>214.8</ele>
        <time>2024-09-19T11:28:06Z</time>
      </trkpt>
      <trkpt lat="45.8027" lon="5.43316">
        <ele>214.8</ele>
        <time>2024-09-19T11:28:07Z</time>
      </trkpt>
      <trkpt lat="45.80264" lon="5.4332">
        <ele>215</ele>
        <time>2024-09-19T11:28:08Z</time>
      </trkpt>
      <trkpt lat="45.80259" lon="5.43324">
        <ele>215</ele>
        <time>2024-09-19T11:28:09Z</time>
      </trkpt>
      <trkpt lat="45.80255" lon="5.43328">
        <ele>215</ele>
        <time>2024-09-19T11:28:10Z</time>
      </trkpt>
      <trkpt lat="45.8025" lon="5.43332">
        <ele>215</ele>
        <time>2024-09-19T11:28:11Z</time>
      </trkpt>
      <trkpt lat="45.80245" lon="5.43336">
        <ele>215</ele>
        <time>2024-09-19T11:28:12Z</time>
      </trkpt>
      <trkpt lat="45.8024" lon="5.43339">
        <ele>214.8</ele>
        <time>2024-09-19T11:28:13Z</time>
      </trkpt>
      <trkpt lat="45.80235" lon="5.43343">
        <ele>214.8</ele>
        <time>2024-09-19T11:28:14Z</time>
      </trkpt>
      <trkpt lat="45.8023" lon="5.43346">
        <ele>215.2</ele>
        <time>2024-09-19T11:28:15Z</time>
      </trkpt>
      <trkpt lat="45.80225" lon="5.4335">
        <ele>215.2</ele>
        <time>2024-09-19T11:28:16Z</time>
      </trkpt>
      <trkpt lat="45.8022" lon="5.43353">
        <ele>215.2</ele>
        <time>2024-09-19T11:28:17Z</time>
      </trkpt>
      <trkpt lat="45.80215" lon="5.43357">
        <ele>215.2</ele>
        <time>2024-09-19T11:28:18Z</time>
      </trkpt>
      <trkpt lat="45.8021" lon="5.43359">
        <ele>214.8</ele>
        <time>2024-09-19T11:28:19Z</time>
      </trkpt>
      <trkpt lat="45.80205" lon="5.43363">
        <ele>214.8</ele>
        <time>2024-09-19T11:28:20Z</time>
      </trkpt>
      <trkpt lat="45.802" lon="5.43365">
        <ele>214.6</ele>
        <time>2024-09-19T11:28:21Z</time>
      </trkpt>
      <trkpt lat="45.80195" lon="5.43368">
        <ele>214.6</ele>
        <time>2024-09-19T11:28:22Z</time>
      </trkpt>
      <trkpt lat="45.8019" lon="5.43371">
        <ele>213.4</ele>
        <time>2024-09-19T11:28:23Z</time>
      </trkpt>
      <trkpt lat="45.80185" lon="5.43375">
        <ele>213.4</ele>
        <time>2024-09-19T11:28:24Z</time>
      </trkpt>
      <trkpt lat="45.80179" lon="5.43378">
        <ele>213.8</ele>
        <time>2024-09-19T11:28:25Z</time>
      </trkpt>
      <trkpt lat="45.80175" lon="5.43381">
        <ele>214.4</ele>
        <time>2024-09-19T11:28:26Z</time>
      </trkpt>
      <trkpt lat="45.8017" lon="5.43384">
        <ele>214.4</ele>
        <time>2024-09-19T11:28:27Z</time>
      </trkpt>
      <trkpt lat="45.80164" lon="5.43387">
        <ele>214.8</ele>
        <time>2024-09-19T11:28:28Z</time>
      </trkpt>
      <trkpt lat="45.80159" lon="5.4339">
        <ele>214.8</ele>
        <time>2024-09-19T11:28:29Z</time>
      </trkpt>
      <trkpt lat="45.80154" lon="5.43393">
        <ele>214.6</ele>
        <time>2024-09-19T11:28:30Z</time>
      </trkpt>
      <trkpt lat="45.80148" lon="5.43396">
        <ele>214</ele>
        <time>2024-09-19T11:28:31Z</time>
      </trkpt>
      <trkpt lat="45.80143" lon="5.43399">
        <ele>214.4</ele>
        <time>2024-09-19T11:28:32Z</time>
      </trkpt>
      <trkpt lat="45.80138" lon="5.43402">
        <ele>214.6</ele>
        <time>2024-09-19T11:28:33Z</time>
      </trkpt>
      <trkpt lat="45.80133" lon="5.43405">
        <ele>214.4</ele>
        <time>2024-09-19T11:28:34Z</time>
      </trkpt>
      <trkpt lat="45.80128" lon="5.43408">
        <ele>214.4</ele>
        <time>2024-09-19T11:28:35Z</time>
      </trkpt>
      <trkpt lat="45.80123" lon="5.43412">
        <ele>214.4</ele>
        <time>2024-09-19T11:28:36Z</time>
      </trkpt>
      <trkpt lat="45.80118" lon="5.43415">
        <ele>215.2</ele>
        <time>2024-09-19T11:28:37Z</time>
      </trkpt>
      <trkpt lat="45.80112" lon="5.43419">
        <ele>214.6</ele>
        <time>2024-09-19T11:28:38Z</time>
      </trkpt>
      <trkpt lat="45.80107" lon="5.43421">
        <ele>214.4</ele>
        <time>2024-09-19T11:28:39Z</time>
      </trkpt>
      <trkpt lat="45.80102" lon="5.43424">
        <ele>214</ele>
        <time>2024-09-19T11:28:40Z</time>
      </trkpt>
      <trkpt lat="45.80097" lon="5.43427">
        <ele>214</ele>
        <time>2024-09-19T11:28:41Z</time>
      </trkpt>
      <trkpt lat="45.80092" lon="5.4343">
        <ele>214.6</ele>
        <time>2024-09-19T11:28:42Z</time>
      </trkpt>
      <trkpt lat="45.80087" lon="5.43433">
        <ele>214.8</ele>
        <time>2024-09-19T11:28:43Z</time>
      </trkpt>
      <trkpt lat="45.80083" lon="5.43435">
        <ele>214.6</ele>
        <time>2024-09-19T11:28:44Z</time>
      </trkpt>
      <trkpt lat="45.80078" lon="5.43438">
        <ele>214.8</ele>
        <time>2024-09-19T11:28:45Z</time>
      </trkpt>
      <trkpt lat="45.80073" lon="5.43441">
        <ele>215.2</ele>
        <time>2024-09-19T11:28:46Z</time>
      </trkpt>
      <trkpt lat="45.80068" lon="5.43444">
        <ele>215.2</ele>
        <time>2024-09-19T11:28:47Z</time>
      </trkpt>
      <trkpt lat="45.80062" lon="5.43446">
        <ele>214.8</ele>
        <time>2024-09-19T11:28:48Z</time>
      </trkpt>
      <trkpt lat="45.80057" lon="5.43449">
        <ele>214.8</ele>
        <time>2024-09-19T11:28:49Z</time>
      </trkpt>
      <trkpt lat="45.80052" lon="5.43453">
        <ele>214.8</ele>
        <time>2024-09-19T11:28:50Z</time>
      </trkpt>
      <trkpt lat="45.80047" lon="5.43456">
        <ele>214.4</ele>
        <time>2024-09-19T11:28:51Z</time>
      </trkpt>
      <trkpt lat="45.80042" lon="5.4346">
        <ele>214</ele>
        <time>2024-09-19T11:28:52Z</time>
      </trkpt>
      <trkpt lat="45.80037" lon="5.43463">
        <ele>214</ele>
        <time>2024-09-19T11:28:53Z</time>
      </trkpt>
      <trkpt lat="45.80032" lon="5.43465">
        <ele>214</ele>
        <time>2024-09-19T11:28:54Z</time>
      </trkpt>
      <trkpt lat="45.80027" lon="5.43468">
        <ele>214</ele>
        <time>2024-09-19T11:28:55Z</time>
      </trkpt>
      <trkpt lat="45.80022" lon="5.43472">
        <ele>214</ele>
        <time>2024-09-19T11:28:56Z</time>
      </trkpt>
      <trkpt lat="45.80017" lon="5.43475">
        <ele>214</ele>
        <time>2024-09-19T11:28:57Z</time>
      </trkpt>
      <trkpt lat="45.80013" lon="5.43478">
        <ele>214</ele>
        <time>2024-09-19T11:28:58Z</time>
      </trkpt>
      <trkpt lat="45.80008" lon="5.43482">
        <ele>214.2</ele>
        <time>2024-09-19T11:28:59Z</time>
      </trkpt>
      <trkpt lat="45.80003" lon="5.43486">
        <ele>214.4</ele>
        <time>2024-09-19T11:29:00Z</time>
      </trkpt>
      <trkpt lat="45.79999" lon="5.43489">
        <ele>214.6</ele>
        <time>2024-09-19T11:29:01Z</time>
      </trkpt>
      <trkpt lat="45.79994" lon="5.43493">
        <ele>215</ele>
        <time>2024-09-19T11:29:02Z</time>
      </trkpt>
      <trkpt lat="45.79989" lon="5.43497">
        <ele>215</ele>
        <time>2024-09-19T11:29:03Z</time>
      </trkpt>
      <trkpt lat="45.79984" lon="5.43501">
        <ele>215.2</ele>
        <time>2024-09-19T11:29:04Z</time>
      </trkpt>
      <trkpt lat="45.7998" lon="5.43506">
        <ele>215</ele>
        <time>2024-09-19T11:29:05Z</time>
      </trkpt>
      <trkpt lat="45.79976" lon="5.43511">
        <ele>214.8</ele>
        <time>2024-09-19T11:29:06Z</time>
      </trkpt>
      <trkpt lat="45.79972" lon="5.43516">
        <ele>214.8</ele>
        <time>2024-09-19T11:29:07Z</time>
      </trkpt>
      <trkpt lat="45.79968" lon="5.43519">
        <ele>214.8</ele>
        <time>2024-09-19T11:29:08Z</time>
      </trkpt>
      <trkpt lat="45.79964" lon="5.43522">
        <ele>214.8</ele>
        <time>2024-09-19T11:29:09Z</time>
      </trkpt>
      <trkpt lat="45.7996" lon="5.43522">
        <ele>214.8</ele>
        <time>2024-09-19T11:29:10Z</time>
      </trkpt>
      <trkpt lat="45.79956" lon="5.43522">
        <ele>215.2</ele>
        <time>2024-09-19T11:29:11Z</time>
      </trkpt>
      <trkpt lat="45.79952" lon="5.43522">
        <ele>215.2</ele>
        <time>2024-09-19T11:29:12Z</time>
      </trkpt>
      <trkpt lat="45.79948" lon="5.43525">
        <ele>215.6</ele>
        <time>2024-09-19T11:29:13Z</time>
      </trkpt>
      <trkpt lat="45.79944" lon="5.43528">
        <ele>216</ele>
        <time>2024-09-19T11:29:14Z</time>
      </trkpt>
      <trkpt lat="45.79941" lon="5.43531">
        <ele>215.4</ele>
        <time>2024-09-19T11:29:15Z</time>
      </trkpt>
      <trkpt lat="45.79937" lon="5.43535">
        <ele>215</ele>
        <time>2024-09-19T11:29:16Z</time>
      </trkpt>
      <trkpt lat="45.79933" lon="5.43539">
        <ele>215</ele>
        <time>2024-09-19T11:29:17Z</time>
      </trkpt>
      <trkpt lat="45.79928" lon="5.43542">
        <ele>215</ele>
        <time>2024-09-19T11:29:18Z</time>
      </trkpt>
      <trkpt lat="45.79924" lon="5.43545">
        <ele>215.4</ele>
        <time>2024-09-19T11:29:19Z</time>
      </trkpt>
      <trkpt lat="45.7992" lon="5.43548">
        <ele>215.4</ele>
        <time>2024-09-19T11:29:20Z</time>
      </trkpt>
      <trkpt lat="45.79916" lon="5.43551">
        <ele>215.2</ele>
        <time>2024-09-19T11:29:21Z</time>
      </trkpt>
      <trkpt lat="45.79913" lon="5.43556">
        <ele>215.2</ele>
        <time>2024-09-19T11:29:22Z</time>
      </trkpt>
      <trkpt lat="45.79908" lon="5.43559">
        <ele>215.6</ele>
        <time>2024-09-19T11:29:23Z</time>
      </trkpt>
      <trkpt lat="45.79905" lon="5.43563">
        <ele>216</ele>
        <time>2024-09-19T11:29:24Z</time>
      </trkpt>
      <trkpt lat="45.79901" lon="5.43567">
        <ele>215.8</ele>
        <time>2024-09-19T11:29:25Z</time>
      </trkpt>
      <trkpt lat="45.79897" lon="5.43571">
        <ele>215.4</ele>
        <time>2024-09-19T11:29:26Z</time>
      </trkpt>
      <trkpt lat="45.79893" lon="5.43576">
        <ele>215.4</ele>
        <time>2024-09-19T11:29:27Z</time>
      </trkpt>
      <trkpt lat="45.7989" lon="5.43581">
        <ele>215.4</ele>
        <time>2024-09-19T11:29:28Z</time>
      </trkpt>
      <trkpt lat="45.79886" lon="5.43585">
        <ele>215.4</ele>
        <time>2024-09-19T11:29:29Z</time>
      </trkpt>
      <trkpt lat="45.79883" lon="5.4359">
        <ele>215.4</ele>
        <time>2024-09-19T11:29:30Z</time>
      </trkpt>
      <trkpt lat="45.79879" lon="5.43594">
        <ele>214.8</ele>
        <time>2024-09-19T11:29:31Z</time>
      </trkpt>
      <trkpt lat="45.79875" lon="5.43599">
        <ele>215.4</ele>
        <time>2024-09-19T11:29:32Z</time>
      </trkpt>
      <trkpt lat="45.79872" lon="5.43603">
        <ele>215.4</ele>
        <time>2024-09-19T11:29:33Z</time>
      </trkpt>
      <trkpt lat="45.79869" lon="5.43608">
        <ele>215</ele>
        <time>2024-09-19T11:29:34Z</time>
      </trkpt>
      <trkpt lat="45.79866" lon="5.43612">
        <ele>214.8</ele>
        <time>2024-09-19T11:29:35Z</time>
      </trkpt>
      <trkpt lat="45.79862" lon="5.43616">
        <ele>214.8</ele>
        <time>2024-09-19T11:29:36Z</time>
      </trkpt>
      <trkpt lat="45.79859" lon="5.4362">
        <ele>215.2</ele>
        <time>2024-09-19T11:29:37Z</time>
      </trkpt>
      <trkpt lat="45.79855" lon="5.43625">
        <ele>215</ele>
        <time>2024-09-19T11:29:38Z</time>
      </trkpt>
      <trkpt lat="45.79852" lon="5.4363">
        <ele>215</ele>
        <time>2024-09-19T11:29:39Z</time>
      </trkpt>
      <trkpt lat="45.79848" lon="5.43635">
        <ele>215</ele>
        <time>2024-09-19T11:29:40Z</time>
      </trkpt>
      <trkpt lat="45.79845" lon="5.43639">
        <ele>215.6</ele>
        <time>2024-09-19T11:29:41Z</time>
      </trkpt>
      <trkpt lat="45.79841" lon="5.43644">
        <ele>215.6</ele>
        <time>2024-09-19T11:29:42Z</time>
      </trkpt>
      <trkpt lat="45.79837" lon="5.43649">
        <ele>215.8</ele>
        <time>2024-09-19T11:29:43Z</time>
      </trkpt>
      <trkpt lat="45.79834" lon="5.43654">
        <ele>215.8</ele>
        <time>2024-09-19T11:29:44Z</time>
      </trkpt>
      <trkpt lat="45.7983" lon="5.43659">
        <ele>215.8</ele>
        <time>2024-09-19T11:29:45Z</time>
      </trkpt>
      <trkpt lat="45.79827" lon="5.43663">
        <ele>215.8</ele>
        <time>2024-09-19T11:29:46Z</time>
      </trkpt>
      <trkpt lat="45.79824" lon="5.43669">
        <ele>215.8</ele>
        <time>2024-09-19T11:29:47Z</time>
      </trkpt>
      <trkpt lat="45.7982" lon="5.43673">
        <ele>216</ele>
        <time>2024-09-19T11:29:48Z</time>
      </trkpt>
      <trkpt lat="45.79817" lon="5.43678">
        <ele>216</ele>
        <time>2024-09-19T11:29:49Z</time>
      </trkpt>
      <trkpt lat="45.79813" lon="5.43683">
        <ele>216</ele>
        <time>2024-09-19T11:29:50Z</time>
      </trkpt>
      <trkpt lat="45.79809" lon="5.43688">
        <ele>217.6</ele>
        <time>2024-09-19T11:29:51Z</time>
      </trkpt>
      <trkpt lat="45.79805" lon="5.43692">
        <ele>217</ele>
        <time>2024-09-19T11:29:52Z</time>
      </trkpt>
      <trkpt lat="45.79801" lon="5.43697">
        <ele>217.4</ele>
        <time>2024-09-19T11:29:53Z</time>
      </trkpt>
      <trkpt lat="45.79797" lon="5.43701">
        <ele>216.6</ele>
        <time>2024-09-19T11:29:54Z</time>
      </trkpt>
      <trkpt lat="45.79793" lon="5.43706">
        <ele>216.6</ele>
        <time>2024-09-19T11:29:55Z</time>
      </trkpt>
      <trkpt lat="45.79789" lon="5.4371">
        <ele>215.8</ele>
        <time>2024-09-19T11:29:56Z</time>
      </trkpt>
      <trkpt lat="45.79785" lon="5.43716">
        <ele>215.2</ele>
        <time>2024-09-19T11:29:57Z</time>
      </trkpt>
      <trkpt lat="45.79781" lon="5.43721">
        <ele>215.2</ele>
        <time>2024-09-19T11:29:58Z</time>
      </trkpt>
      <trkpt lat="45.79776" lon="5.43725">
        <ele>215.2</ele>
        <time>2024-09-19T11:29:59Z</time>
      </trkpt>
      <trkpt lat="45.79772" lon="5.4373">
        <ele>215.2</ele>
        <time>2024-09-19T11:30:00Z</time>
      </trkpt>
      <trkpt lat="45.79768" lon="5.43735">
        <ele>215.2</ele>
        <time>2024-09-19T11:30:01Z</time>
      </trkpt>
      <trkpt lat="45.79768" lon="5.43735">
        <ele>215.2</ele>
        <time>2024-09-19T11:30:02Z</time>
      </trkpt>
      <trkpt lat="45.79764" lon="5.43741">
        <ele>215.8</ele>
        <time>2024-09-19T11:30:03Z</time>
      </trkpt>
      <trkpt lat="45.79759" lon="5.43746">
        <ele>216</ele>
        <time>2024-09-19T11:30:04Z</time>
      </trkpt>
      <trkpt lat="45.79756" lon="5.43751">
        <ele>216</ele>
        <time>2024-09-19T11:30:05Z</time>
      </trkpt>
      <trkpt lat="45.79751" lon="5.43757">
        <ele>216.6</ele>
        <time>2024-09-19T11:30:06Z</time>
      </trkpt>
      <trkpt lat="45.79747" lon="5.43763">
        <ele>216.2</ele>
        <time>2024-09-19T11:30:07Z</time>
      </trkpt>
      <trkpt lat="45.79743" lon="5.43768">
        <ele>216</ele>
        <time>2024-09-19T11:30:08Z</time>
      </trkpt>
      <trkpt lat="45.79739" lon="5.43773">
        <ele>215.8</ele>
        <time>2024-09-19T11:30:09Z</time>
      </trkpt>
      <trkpt lat="45.79735" lon="5.43778">
        <ele>215.8</ele>
        <time>2024-09-19T11:30:10Z</time>
      </trkpt>
      <trkpt lat="45.79731" lon="5.43783">
        <ele>215.4</ele>
        <time>2024-09-19T11:30:11Z</time>
      </trkpt>
      <trkpt lat="45.79722" lon="5.43794">
        <ele>215</ele>
        <time>2024-09-19T11:30:12Z</time>
      </trkpt>
      <trkpt lat="45.79717" lon="5.43799">
        <ele>215.6</ele>
        <time>2024-09-19T11:30:13Z</time>
      </trkpt>
      <trkpt lat="45.79713" lon="5.43804">
        <ele>215.6</ele>
        <time>2024-09-19T11:30:14Z</time>
      </trkpt>
      <trkpt lat="45.79709" lon="5.4381">
        <ele>215.6</ele>
        <time>2024-09-19T11:30:15Z</time>
      </trkpt>
      <trkpt lat="45.79704" lon="5.43815">
        <ele>215.6</ele>
        <time>2024-09-19T11:30:16Z</time>
      </trkpt>
      <trkpt lat="45.797" lon="5.43821">
        <ele>215.6</ele>
        <time>2024-09-19T11:30:17Z</time>
      </trkpt>
      <trkpt lat="45.79696" lon="5.43826">
        <ele>215.6</ele>
        <time>2024-09-19T11:30:18Z</time>
      </trkpt>
      <trkpt lat="45.79692" lon="5.43831">
        <ele>215.6</ele>
        <time>2024-09-19T11:30:19Z</time>
      </trkpt>
      <trkpt lat="45.79688" lon="5.43837">
        <ele>215.6</ele>
        <time>2024-09-19T11:30:20Z</time>
      </trkpt>
      <trkpt lat="45.79683" lon="5.43842">
        <ele>215</ele>
        <time>2024-09-19T11:30:21Z</time>
      </trkpt>
      <trkpt lat="45.79679" lon="5.43847">
        <ele>215.6</ele>
        <time>2024-09-19T11:30:22Z</time>
      </trkpt>
      <trkpt lat="45.79675" lon="5.43852">
        <ele>214.6</ele>
        <time>2024-09-19T11:30:23Z</time>
      </trkpt>
      <trkpt lat="45.7967" lon="5.43857">
        <ele>214</ele>
        <time>2024-09-19T11:30:24Z</time>
      </trkpt>
      <trkpt lat="45.79666" lon="5.43863">
        <ele>214.4</ele>
        <time>2024-09-19T11:30:25Z</time>
      </trkpt>
      <trkpt lat="45.79662" lon="5.43868">
        <ele>214.4</ele>
        <time>2024-09-19T11:30:26Z</time>
      </trkpt>
      <trkpt lat="45.79658" lon="5.43874">
        <ele>214.4</ele>
        <time>2024-09-19T11:30:27Z</time>
      </trkpt>
      <trkpt lat="45.79654" lon="5.43879">
        <ele>215</ele>
        <time>2024-09-19T11:30:28Z</time>
      </trkpt>
      <trkpt lat="45.7965" lon="5.43885">
        <ele>215</ele>
        <time>2024-09-19T11:30:29Z</time>
      </trkpt>
      <trkpt lat="45.79645" lon="5.4389">
        <ele>215</ele>
        <time>2024-09-19T11:30:30Z</time>
      </trkpt>
      <trkpt lat="45.79641" lon="5.43895">
        <ele>215</ele>
        <time>2024-09-19T11:30:31Z</time>
      </trkpt>
      <trkpt lat="45.79637" lon="5.439">
        <ele>215.2</ele>
        <time>2024-09-19T11:30:32Z</time>
      </trkpt>
      <trkpt lat="45.79633" lon="5.43906">
        <ele>215.8</ele>
        <time>2024-09-19T11:30:33Z</time>
      </trkpt>
      <trkpt lat="45.79628" lon="5.43911">
        <ele>215.4</ele>
        <time>2024-09-19T11:30:34Z</time>
      </trkpt>
      <trkpt lat="45.79624" lon="5.43917">
        <ele>215</ele>
        <time>2024-09-19T11:30:35Z</time>
      </trkpt>
      <trkpt lat="45.79621" lon="5.43922">
        <ele>215</ele>
        <time>2024-09-19T11:30:36Z</time>
      </trkpt>
      <trkpt lat="45.79617" lon="5.43927">
        <ele>215</ele>
        <time>2024-09-19T11:30:37Z</time>
      </trkpt>
      <trkpt lat="45.79614" lon="5.43931">
        <ele>215</ele>
        <time>2024-09-19T11:30:38Z</time>
      </trkpt>
      <trkpt lat="45.79609" lon="5.43935">
        <ele>215.4</ele>
        <time>2024-09-19T11:30:39Z</time>
      </trkpt>
      <trkpt lat="45.79606" lon="5.43937">
        <ele>215.4</ele>
        <time>2024-09-19T11:30:40Z</time>
      </trkpt>
      <trkpt lat="45.79602" lon="5.43936">
        <ele>214.8</ele>
        <time>2024-09-19T11:30:41Z</time>
      </trkpt>
      <trkpt lat="45.79599" lon="5.43934">
        <ele>215.6</ele>
        <time>2024-09-19T11:30:42Z</time>
      </trkpt>
      <trkpt lat="45.79596" lon="5.43932">
        <ele>216</ele>
        <time>2024-09-19T11:30:43Z</time>
      </trkpt>
      <trkpt lat="45.79593" lon="5.43929">
        <ele>216</ele>
        <time>2024-09-19T11:30:44Z</time>
      </trkpt>
      <trkpt lat="45.7959" lon="5.43925">
        <ele>216.2</ele>
        <time>2024-09-19T11:30:45Z</time>
      </trkpt>
      <trkpt lat="45.79586" lon="5.43923">
        <ele>216.2</ele>
        <time>2024-09-19T11:30:46Z</time>
      </trkpt>
      <trkpt lat="45.79582" lon="5.43923">
        <ele>216.2</ele>
        <time>2024-09-19T11:30:47Z</time>
      </trkpt>
      <trkpt lat="45.79578" lon="5.43925">
        <ele>216.2</ele>
        <time>2024-09-19T11:30:48Z</time>
      </trkpt>
      <trkpt lat="45.79575" lon="5.43928">
        <ele>216.4</ele>
        <time>2024-09-19T11:30:49Z</time>
      </trkpt>
      <trkpt lat="45.79572" lon="5.43932">
        <ele>216.4</ele>
        <time>2024-09-19T11:30:50Z</time>
      </trkpt>
      <trkpt lat="45.7957" lon="5.43937">
        <ele>216.8</ele>
        <time>2024-09-19T11:30:51Z</time>
      </trkpt>
      <trkpt lat="45.79569" lon="5.43942">
        <ele>216.8</ele>
        <time>2024-09-19T11:30:52Z</time>
      </trkpt>
      <trkpt lat="45.79569" lon="5.43949">
        <ele>216.8</ele>
        <time>2024-09-19T11:30:53Z</time>
      </trkpt>
      <trkpt lat="45.79571" lon="5.43955">
        <ele>216.8</ele>
        <time>2024-09-19T11:30:54Z</time>
      </trkpt>
      <trkpt lat="45.79572" lon="5.4396">
        <ele>216.8</ele>
        <time>2024-09-19T11:30:55Z</time>
      </trkpt>
      <trkpt lat="45.79572" lon="5.43963">
        <ele>216.8</ele>
        <time>2024-09-19T11:30:56Z</time>
      </trkpt>
      <trkpt lat="45.79573" lon="5.43965">
        <ele>216.8</ele>
        <time>2024-09-19T11:30:57Z</time>
      </trkpt>
      <trkpt lat="45.79572" lon="5.43968">
        <ele>216.8</ele>
        <time>2024-09-19T11:30:58Z</time>
      </trkpt>
      <trkpt lat="45.79573" lon="5.4397">
        <ele>217</ele>
        <time>2024-09-19T11:30:59Z</time>
      </trkpt>
      <trkpt lat="45.79574" lon="5.43971">
        <ele>217</ele>
        <time>2024-09-19T11:31:00Z</time>
      </trkpt>
      <trkpt lat="45.79575" lon="5.43969">
        <ele>217</ele>
        <time>2024-09-19T11:31:01Z</time>
      </trkpt>
      <trkpt lat="45.79574" lon="5.43968">
        <ele>216.6</ele>
        <time>2024-09-19T11:31:02Z</time>
      </trkpt>
      <trkpt lat="45.79574" lon="5.43966">
        <ele>216.6</ele>
        <time>2024-09-19T11:31:03Z</time>
      </trkpt>
      <trkpt lat="45.79573" lon="5.43964">
        <ele>216.6</ele>
        <time>2024-09-19T11:31:04Z</time>
      </trkpt>
      <trkpt lat="45.79572" lon="5.43961">
        <ele>216.8</ele>
        <time>2024-09-19T11:31:05Z</time>
      </trkpt>
      <trkpt lat="45.79571" lon="5.43958">
        <ele>216.8</ele>
        <time>2024-09-19T11:31:06Z</time>
      </trkpt>
      <trkpt lat="45.7957" lon="5.43956">
        <ele>216.8</ele>
        <time>2024-09-19T11:31:07Z</time>
      </trkpt>
      <trkpt lat="45.79569" lon="5.43953">
        <ele>217.2</ele>
        <time>2024-09-19T11:31:08Z</time>
      </trkpt>
      <trkpt lat="45.79568" lon="5.43952">
        <ele>217.2</ele>
        <time>2024-09-19T11:31:09Z</time>
      </trkpt>
      <trkpt lat="45.79567" lon="5.4395">
        <ele>217.6</ele>
        <time>2024-09-19T11:31:10Z</time>
      </trkpt>
      <trkpt lat="45.79566" lon="5.4395">
        <ele>217.6</ele>
        <time>2024-09-19T11:31:11Z</time>
      </trkpt>
      <trkpt lat="45.79565" lon="5.4395">
        <ele>217.6</ele>
        <time>2024-09-19T11:31:12Z</time>
      </trkpt>
      <trkpt lat="45.79564" lon="5.43949">
        <ele>217.6</ele>
        <time>2024-09-19T11:31:13Z</time>
      </trkpt>
      <trkpt lat="45.79563" lon="5.43949">
        <ele>217.6</ele>
        <time>2024-09-19T11:31:14Z</time>
      </trkpt>
      <trkpt lat="45.79562" lon="5.43949">
        <ele>217.8</ele>
        <time>2024-09-19T11:31:15Z</time>
      </trkpt>
      <trkpt lat="45.7956" lon="5.43949">
        <ele>217.8</ele>
        <time>2024-09-19T11:31:16Z</time>
      </trkpt>
      <trkpt lat="45.79559" lon="5.43949">
        <ele>217.8</ele>
        <time>2024-09-19T11:31:17Z</time>
      </trkpt>
      <trkpt lat="45.79558" lon="5.4395">
        <ele>217.8</ele>
        <time>2024-09-19T11:31:18Z</time>
      </trkpt>
      <trkpt lat="45.79557" lon="5.43951">
        <ele>217.8</ele>
        <time>2024-09-19T11:31:19Z</time>
      </trkpt>
      <trkpt lat="45.79558" lon="5.43954">
        <ele>217.8</ele>
        <time>2024-09-19T11:31:20Z</time>
      </trkpt>
      <trkpt lat="45.7956" lon="5.43955">
        <ele>217.6</ele>
        <time>2024-09-19T11:31:21Z</time>
      </trkpt>
      <trkpt lat="45.79562" lon="5.43955">
        <ele>217.6</ele>
        <time>2024-09-19T11:31:22Z</time>
      </trkpt>
      <trkpt lat="45.79565" lon="5.43955">
        <ele>217.6</ele>
        <time>2024-09-19T11:31:23Z</time>
      </trkpt>
      <trkpt lat="45.79567" lon="5.43954">
        <ele>217.6</ele>
        <time>2024-09-19T11:31:24Z</time>
      </trkpt>
      <trkpt lat="45.7957" lon="5.43957">
        <ele>217.6</ele>
        <time>2024-09-19T11:31:25Z</time>
      </trkpt>
      <trkpt lat="45.79573" lon="5.43961">
        <ele>217.6</ele>
        <time>2024-09-19T11:31:26Z</time>
      </trkpt>
      <trkpt lat="45.79574" lon="5.43967">
        <ele>217.4</ele>
        <time>2024-09-19T11:31:27Z</time>
      </trkpt>
      <trkpt lat="45.79572" lon="5.43975">
        <ele>215.2</ele>
        <time>2024-09-19T11:31:28Z</time>
      </trkpt>
      <trkpt lat="45.79573" lon="5.43981">
        <ele>215.6</ele>
        <time>2024-09-19T11:31:29Z</time>
      </trkpt>
      <trkpt lat="45.79571" lon="5.43986">
        <ele>215.6</ele>
        <time>2024-09-19T11:31:30Z</time>
      </trkpt>
      <trkpt lat="45.79565" lon="5.43992">
        <ele>215.6</ele>
        <time>2024-09-19T11:31:31Z</time>
      </trkpt>
      <trkpt lat="45.7956" lon="5.43997">
        <ele>215.8</ele>
        <time>2024-09-19T11:31:32Z</time>
      </trkpt>
      <trkpt lat="45.79557" lon="5.44002">
        <ele>215.8</ele>
        <time>2024-09-19T11:31:33Z</time>
      </trkpt>
      <trkpt lat="45.79553" lon="5.44006">
        <ele>215.6</ele>
        <time>2024-09-19T11:31:34Z</time>
      </trkpt>
      <trkpt lat="45.79549" lon="5.44011">
        <ele>215.6</ele>
        <time>2024-09-19T11:31:35Z</time>
      </trkpt>
      <trkpt lat="45.79544" lon="5.44016">
        <ele>215.6</ele>
        <time>2024-09-19T11:31:36Z</time>
      </trkpt>
      <trkpt lat="45.7954" lon="5.4402">
        <ele>215.6</ele>
        <time>2024-09-19T11:31:37Z</time>
      </trkpt>
      <trkpt lat="45.79535" lon="5.44025">
        <ele>215.6</ele>
        <time>2024-09-19T11:31:38Z</time>
      </trkpt>
      <trkpt lat="45.7953" lon="5.4403">
        <ele>215.6</ele>
        <time>2024-09-19T11:31:39Z</time>
      </trkpt>
      <trkpt lat="45.79526" lon="5.44034">
        <ele>215.6</ele>
        <time>2024-09-19T11:31:40Z</time>
      </trkpt>
      <trkpt lat="45.79521" lon="5.44039">
        <ele>215.8</ele>
        <time>2024-09-19T11:31:41Z</time>
      </trkpt>
      <trkpt lat="45.79517" lon="5.44043">
        <ele>215.8</ele>
        <time>2024-09-19T11:31:42Z</time>
      </trkpt>
      <trkpt lat="45.79512" lon="5.44047">
        <ele>215.6</ele>
        <time>2024-09-19T11:31:43Z</time>
      </trkpt>
      <trkpt lat="45.79507" lon="5.44053">
        <ele>215.6</ele>
        <time>2024-09-19T11:31:44Z</time>
      </trkpt>
      <trkpt lat="45.79503" lon="5.44058">
        <ele>215.2</ele>
        <time>2024-09-19T11:31:45Z</time>
      </trkpt>
      <trkpt lat="45.79497" lon="5.44063">
        <ele>215.2</ele>
        <time>2024-09-19T11:31:46Z</time>
      </trkpt>
      <trkpt lat="45.79493" lon="5.44069">
        <ele>215.2</ele>
        <time>2024-09-19T11:31:47Z</time>
      </trkpt>
      <trkpt lat="45.79488" lon="5.44074">
        <ele>215.2</ele>
        <time>2024-09-19T11:31:48Z</time>
      </trkpt>
      <trkpt lat="45.79483" lon="5.44079">
        <ele>215.2</ele>
        <time>2024-09-19T11:31:49Z</time>
      </trkpt>
      <trkpt lat="45.79478" lon="5.44083">
        <ele>215.2</ele>
        <time>2024-09-19T11:31:50Z</time>
      </trkpt>
      <trkpt lat="45.79474" lon="5.44088">
        <ele>215.2</ele>
        <time>2024-09-19T11:31:51Z</time>
      </trkpt>
      <trkpt lat="45.79469" lon="5.44093">
        <ele>215.6</ele>
        <time>2024-09-19T11:31:52Z</time>
      </trkpt>
      <trkpt lat="45.79464" lon="5.44098">
        <ele>215.6</ele>
        <time>2024-09-19T11:31:53Z</time>
      </trkpt>
      <trkpt lat="45.7946" lon="5.44103">
        <ele>215.6</ele>
        <time>2024-09-19T11:31:54Z</time>
      </trkpt>
      <trkpt lat="45.79455" lon="5.44107">
        <ele>215.6</ele>
        <time>2024-09-19T11:31:55Z</time>
      </trkpt>
      <trkpt lat="45.7945" lon="5.44113">
        <ele>215.6</ele>
        <time>2024-09-19T11:31:56Z</time>
      </trkpt>
      <trkpt lat="45.79445" lon="5.44117">
        <ele>215.6</ele>
        <time>2024-09-19T11:31:57Z</time>
      </trkpt>
      <trkpt lat="45.7944" lon="5.44121">
        <ele>215.6</ele>
        <time>2024-09-19T11:31:58Z</time>
      </trkpt>
      <trkpt lat="45.79435" lon="5.44126">
        <ele>215.8</ele>
        <time>2024-09-19T11:31:59Z</time>
      </trkpt>
      <trkpt lat="45.7943" lon="5.4413">
        <ele>215.8</ele>
        <time>2024-09-19T11:32:00Z</time>
      </trkpt>
      <trkpt lat="45.79426" lon="5.44135">
        <ele>216</ele>
        <time>2024-09-19T11:32:01Z</time>
      </trkpt>
      <trkpt lat="45.79421" lon="5.4414">
        <ele>216</ele>
        <time>2024-09-19T11:32:02Z</time>
      </trkpt>
      <trkpt lat="45.79416" lon="5.44144">
        <ele>216</ele>
        <time>2024-09-19T11:32:03Z</time>
      </trkpt>
      <trkpt lat="45.79412" lon="5.44149">
        <ele>216.2</ele>
        <time>2024-09-19T11:32:04Z</time>
      </trkpt>
      <trkpt lat="45.79407" lon="5.44154">
        <ele>216.4</ele>
        <time>2024-09-19T11:32:05Z</time>
      </trkpt>
      <trkpt lat="45.79402" lon="5.44158">
        <ele>216.4</ele>
        <time>2024-09-19T11:32:06Z</time>
      </trkpt>
      <trkpt lat="45.79396" lon="5.44163">
        <ele>216.4</ele>
        <time>2024-09-19T11:32:07Z</time>
      </trkpt>
      <trkpt lat="45.79392" lon="5.44167">
        <ele>216.4</ele>
        <time>2024-09-19T11:32:08Z</time>
      </trkpt>
      <trkpt lat="45.79387" lon="5.44172">
        <ele>216.4</ele>
        <time>2024-09-19T11:32:09Z</time>
      </trkpt>
      <trkpt lat="45.79382" lon="5.44177">
        <ele>216.6</ele>
        <time>2024-09-19T11:32:10Z</time>
      </trkpt>
      <trkpt lat="45.79378" lon="5.44181">
        <ele>216.6</ele>
        <time>2024-09-19T11:32:11Z</time>
      </trkpt>
      <trkpt lat="45.79373" lon="5.44186">
        <ele>216.6</ele>
        <time>2024-09-19T11:32:12Z</time>
      </trkpt>
      <trkpt lat="45.79368" lon="5.44191">
        <ele>216.6</ele>
        <time>2024-09-19T11:32:13Z</time>
      </trkpt>
      <trkpt lat="45.79363" lon="5.44196">
        <ele>216.4</ele>
        <time>2024-09-19T11:32:14Z</time>
      </trkpt>
      <trkpt lat="45.79358" lon="5.442">
        <ele>216.4</ele>
        <time>2024-09-19T11:32:15Z</time>
      </trkpt>
      <trkpt lat="45.79353" lon="5.44205">
        <ele>216.6</ele>
        <time>2024-09-19T11:32:16Z</time>
      </trkpt>
      <trkpt lat="45.79348" lon="5.44209">
        <ele>216.6</ele>
        <time>2024-09-19T11:32:17Z</time>
      </trkpt>
      <trkpt lat="45.79343" lon="5.44213">
        <ele>216.6</ele>
        <time>2024-09-19T11:32:18Z</time>
      </trkpt>
      <trkpt lat="45.79337" lon="5.44219">
        <ele>216.6</ele>
        <time>2024-09-19T11:32:19Z</time>
      </trkpt>
      <trkpt lat="45.79332" lon="5.44223">
        <ele>216.6</ele>
        <time>2024-09-19T11:32:20Z</time>
      </trkpt>
      <trkpt lat="45.79327" lon="5.44228">
        <ele>217</ele>
        <time>2024-09-19T11:32:21Z</time>
      </trkpt>
      <trkpt lat="45.79322" lon="5.44233">
        <ele>217</ele>
        <time>2024-09-19T11:32:22Z</time>
      </trkpt>
      <trkpt lat="45.79317" lon="5.44239">
        <ele>217</ele>
        <time>2024-09-19T11:32:23Z</time>
      </trkpt>
      <trkpt lat="45.79312" lon="5.44244">
        <ele>217</ele>
        <time>2024-09-19T11:32:24Z</time>
      </trkpt>
      <trkpt lat="45.79307" lon="5.44248">
        <ele>217</ele>
        <time>2024-09-19T11:32:25Z</time>
      </trkpt>
      <trkpt lat="45.79302" lon="5.44252">
        <ele>217</ele>
        <time>2024-09-19T11:32:26Z</time>
      </trkpt>
      <trkpt lat="45.79297" lon="5.44258">
        <ele>217</ele>
        <time>2024-09-19T11:32:27Z</time>
      </trkpt>
      <trkpt lat="45.79292" lon="5.44263">
        <ele>217</ele>
        <time>2024-09-19T11:32:28Z</time>
      </trkpt>
      <trkpt lat="45.79288" lon="5.44268">
        <ele>217</ele>
        <time>2024-09-19T11:32:29Z</time>
      </trkpt>
      <trkpt lat="45.79282" lon="5.44273">
        <ele>216.8</ele>
        <time>2024-09-19T11:32:30Z</time>
      </trkpt>
      <trkpt lat="45.79277" lon="5.44278">
        <ele>216.8</ele>
        <time>2024-09-19T11:32:31Z</time>
      </trkpt>
      <trkpt lat="45.79272" lon="5.44283">
        <ele>216.8</ele>
        <time>2024-09-19T11:32:32Z</time>
      </trkpt>
      <trkpt lat="45.79267" lon="5.44288">
        <ele>216.8</ele>
        <time>2024-09-19T11:32:33Z</time>
      </trkpt>
      <trkpt lat="45.79262" lon="5.44294">
        <ele>216.8</ele>
        <time>2024-09-19T11:32:34Z</time>
      </trkpt>
      <trkpt lat="45.79257" lon="5.44298">
        <ele>216.8</ele>
        <time>2024-09-19T11:32:35Z</time>
      </trkpt>
      <trkpt lat="45.79252" lon="5.44303">
        <ele>216.8</ele>
        <time>2024-09-19T11:32:36Z</time>
      </trkpt>
      <trkpt lat="45.79247" lon="5.44308">
        <ele>217</ele>
        <time>2024-09-19T11:32:37Z</time>
      </trkpt>
      <trkpt lat="45.79242" lon="5.44313">
        <ele>217</ele>
        <time>2024-09-19T11:32:38Z</time>
      </trkpt>
      <trkpt lat="45.79238" lon="5.44318">
        <ele>217.2</ele>
        <time>2024-09-19T11:32:39Z</time>
      </trkpt>
      <trkpt lat="45.79233" lon="5.44323">
        <ele>217.2</ele>
        <time>2024-09-19T11:32:40Z</time>
      </trkpt>
      <trkpt lat="45.79228" lon="5.44327">
        <ele>217.2</ele>
        <time>2024-09-19T11:32:41Z</time>
      </trkpt>
      <trkpt lat="45.79224" lon="5.44331">
        <ele>217.6</ele>
        <time>2024-09-19T11:32:42Z</time>
      </trkpt>
      <trkpt lat="45.79219" lon="5.44336">
        <ele>217.6</ele>
        <time>2024-09-19T11:32:43Z</time>
      </trkpt>
      <trkpt lat="45.79215" lon="5.4434">
        <ele>217.8</ele>
        <time>2024-09-19T11:32:44Z</time>
      </trkpt>
      <trkpt lat="45.7921" lon="5.44344">
        <ele>217.8</ele>
        <time>2024-09-19T11:32:45Z</time>
      </trkpt>
      <trkpt lat="45.79205" lon="5.44349">
        <ele>218.2</ele>
        <time>2024-09-19T11:32:46Z</time>
      </trkpt>
      <trkpt lat="45.792" lon="5.44352">
        <ele>218.2</ele>
        <time>2024-09-19T11:32:47Z</time>
      </trkpt>
      <trkpt lat="45.79196" lon="5.44357">
        <ele>218.2</ele>
        <time>2024-09-19T11:32:48Z</time>
      </trkpt>
      <trkpt lat="45.79192" lon="5.44362">
        <ele>218.2</ele>
        <time>2024-09-19T11:32:49Z</time>
      </trkpt>
      <trkpt lat="45.79187" lon="5.44366">
        <ele>218.2</ele>
        <time>2024-09-19T11:32:50Z</time>
      </trkpt>
      <trkpt lat="45.79182" lon="5.44371">
        <ele>217.8</ele>
        <time>2024-09-19T11:32:51Z</time>
      </trkpt>
      <trkpt lat="45.79177" lon="5.44376">
        <ele>217.8</ele>
        <time>2024-09-19T11:32:52Z</time>
      </trkpt>
      <trkpt lat="45.79173" lon="5.4438">
        <ele>217.8</ele>
        <time>2024-09-19T11:32:53Z</time>
      </trkpt>
      <trkpt lat="45.79168" lon="5.44384">
        <ele>217.8</ele>
        <time>2024-09-19T11:32:54Z</time>
      </trkpt>
      <trkpt lat="45.79163" lon="5.44389">
        <ele>217.8</ele>
        <time>2024-09-19T11:32:55Z</time>
      </trkpt>
      <trkpt lat="45.79159" lon="5.44393">
        <ele>218.2</ele>
        <time>2024-09-19T11:32:56Z</time>
      </trkpt>
      <trkpt lat="45.79155" lon="5.44397">
        <ele>218.2</ele>
        <time>2024-09-19T11:32:57Z</time>
      </trkpt>
      <trkpt lat="45.7915" lon="5.44402">
        <ele>218.2</ele>
        <time>2024-09-19T11:32:58Z</time>
      </trkpt>
      <trkpt lat="45.79145" lon="5.44406">
        <ele>218.2</ele>
        <time>2024-09-19T11:32:59Z</time>
      </trkpt>
      <trkpt lat="45.79141" lon="5.44408">
        <ele>218.2</ele>
        <time>2024-09-19T11:33:00Z</time>
      </trkpt>
      <trkpt lat="45.79136" lon="5.4441">
        <ele>218.2</ele>
        <time>2024-09-19T11:33:01Z</time>
      </trkpt>
      <trkpt lat="45.79131" lon="5.44409">
        <ele>217.8</ele>
        <time>2024-09-19T11:33:02Z</time>
      </trkpt>
      <trkpt lat="45.79127" lon="5.44404">
        <ele>217.8</ele>
        <time>2024-09-19T11:33:03Z</time>
      </trkpt>
      <trkpt lat="45.79124" lon="5.44399">
        <ele>217.8</ele>
        <time>2024-09-19T11:33:04Z</time>
      </trkpt>
      <trkpt lat="45.7912" lon="5.44394">
        <ele>217.8</ele>
        <time>2024-09-19T11:33:05Z</time>
      </trkpt>
      <trkpt lat="45.79115" lon="5.44392">
        <ele>217.8</ele>
        <time>2024-09-19T11:33:06Z</time>
      </trkpt>
      <trkpt lat="45.79111" lon="5.44393">
        <ele>218</ele>
        <time>2024-09-19T11:33:07Z</time>
      </trkpt>
      <trkpt lat="45.79106" lon="5.44395">
        <ele>217.6</ele>
        <time>2024-09-19T11:33:08Z</time>
      </trkpt>
      <trkpt lat="45.79102" lon="5.44399">
        <ele>217.6</ele>
        <time>2024-09-19T11:33:09Z</time>
      </trkpt>
      <trkpt lat="45.79099" lon="5.44405">
        <ele>217.4</ele>
        <time>2024-09-19T11:33:10Z</time>
      </trkpt>
      <trkpt lat="45.79097" lon="5.44411">
        <ele>217.2</ele>
        <time>2024-09-19T11:33:11Z</time>
      </trkpt>
      <trkpt lat="45.79096" lon="5.44418">
        <ele>217</ele>
        <time>2024-09-19T11:33:12Z</time>
      </trkpt>
      <trkpt lat="45.79095" lon="5.44426">
        <ele>216.6</ele>
        <time>2024-09-19T11:33:13Z</time>
      </trkpt>
      <trkpt lat="45.79095" lon="5.44434">
        <ele>216.6</ele>
        <time>2024-09-19T11:33:14Z</time>
      </trkpt>
      <trkpt lat="45.79095" lon="5.44442">
        <ele>216.4</ele>
        <time>2024-09-19T11:33:15Z</time>
      </trkpt>
      <trkpt lat="45.79092" lon="5.44449">
        <ele>216.4</ele>
        <time>2024-09-19T11:33:16Z</time>
      </trkpt>
      <trkpt lat="45.7909" lon="5.44458">
        <ele>216</ele>
        <time>2024-09-19T11:33:17Z</time>
      </trkpt>
      <trkpt lat="45.7909" lon="5.44458">
        <ele>215.8</ele>
        <time>2024-09-19T11:33:18Z</time>
      </trkpt>
      <trkpt lat="45.79083" lon="5.44459">
        <ele>215.8</ele>
        <time>2024-09-19T11:33:19Z</time>
      </trkpt>
      <trkpt lat="45.79078" lon="5.44464">
        <ele>215.8</ele>
        <time>2024-09-19T11:33:20Z</time>
      </trkpt>
      <trkpt lat="45.79073" lon="5.44468">
        <ele>215.8</ele>
        <time>2024-09-19T11:33:21Z</time>
      </trkpt>
      <trkpt lat="45.79068" lon="5.44473">
        <ele>215.8</ele>
        <time>2024-09-19T11:33:22Z</time>
      </trkpt>
      <trkpt lat="45.79062" lon="5.44477">
        <ele>215.8</ele>
        <time>2024-09-19T11:33:23Z</time>
      </trkpt>
      <trkpt lat="45.79057" lon="5.4448">
        <ele>215.8</ele>
        <time>2024-09-19T11:33:24Z</time>
      </trkpt>
      <trkpt lat="45.79052" lon="5.44481">
        <ele>215.6</ele>
        <time>2024-09-19T11:33:25Z</time>
      </trkpt>
      <trkpt lat="45.79047" lon="5.44487">
        <ele>215.6</ele>
        <time>2024-09-19T11:33:26Z</time>
      </trkpt>
      <trkpt lat="45.79041" lon="5.44491">
        <ele>215.8</ele>
        <time>2024-09-19T11:33:27Z</time>
      </trkpt>
      <trkpt lat="45.79036" lon="5.44494">
        <ele>216</ele>
        <time>2024-09-19T11:33:28Z</time>
      </trkpt>
      <trkpt lat="45.79026" lon="5.44501">
        <ele>216</ele>
        <time>2024-09-19T11:33:29Z</time>
      </trkpt>
      <trkpt lat="45.79021" lon="5.44503">
        <ele>216</ele>
        <time>2024-09-19T11:33:30Z</time>
      </trkpt>
      <trkpt lat="45.79016" lon="5.44507">
        <ele>216.2</ele>
        <time>2024-09-19T11:33:31Z</time>
      </trkpt>
      <trkpt lat="45.79011" lon="5.44512">
        <ele>216.2</ele>
        <time>2024-09-19T11:33:32Z</time>
      </trkpt>
      <trkpt lat="45.79006" lon="5.44515">
        <ele>216.2</ele>
        <time>2024-09-19T11:33:33Z</time>
      </trkpt>
      <trkpt lat="45.79001" lon="5.44518">
        <ele>216.6</ele>
        <time>2024-09-19T11:33:34Z</time>
      </trkpt>
      <trkpt lat="45.78995" lon="5.44521">
        <ele>216.6</ele>
        <time>2024-09-19T11:33:35Z</time>
      </trkpt>
      <trkpt lat="45.7899" lon="5.44524">
        <ele>216.6</ele>
        <time>2024-09-19T11:33:36Z</time>
      </trkpt>
      <trkpt lat="45.78985" lon="5.44528">
        <ele>216.8</ele>
        <time>2024-09-19T11:33:37Z</time>
      </trkpt>
      <trkpt lat="45.78979" lon="5.44532">
        <ele>216.8</ele>
        <time>2024-09-19T11:33:38Z</time>
      </trkpt>
      <trkpt lat="45.78974" lon="5.44534">
        <ele>216.8</ele>
        <time>2024-09-19T11:33:39Z</time>
      </trkpt>
      <trkpt lat="45.78968" lon="5.44537">
        <ele>216.8</ele>
        <time>2024-09-19T11:33:40Z</time>
      </trkpt>
      <trkpt lat="45.78962" lon="5.44541">
        <ele>216.8</ele>
        <time>2024-09-19T11:33:41Z</time>
      </trkpt>
      <trkpt lat="45.78956" lon="5.44544">
        <ele>216.8</ele>
        <time>2024-09-19T11:33:42Z</time>
      </trkpt>
      <trkpt lat="45.78951" lon="5.44547">
        <ele>216.6</ele>
        <time>2024-09-19T11:33:43Z</time>
      </trkpt>
      <trkpt lat="45.78945" lon="5.4455">
        <ele>216.6</ele>
        <time>2024-09-19T11:33:44Z</time>
      </trkpt>
      <trkpt lat="45.78939" lon="5.44553">
        <ele>216.6</ele>
        <time>2024-09-19T11:33:45Z</time>
      </trkpt>
      <trkpt lat="45.78934" lon="5.44556">
        <ele>216.8</ele>
        <time>2024-09-19T11:33:46Z</time>
      </trkpt>
      <trkpt lat="45.78929" lon="5.4456">
        <ele>216.8</ele>
        <time>2024-09-19T11:33:47Z</time>
      </trkpt>
      <trkpt lat="45.78923" lon="5.44563">
        <ele>216.6</ele>
        <time>2024-09-19T11:33:48Z</time>
      </trkpt>
      <trkpt lat="45.78917" lon="5.44565">
        <ele>216.6</ele>
        <time>2024-09-19T11:33:49Z</time>
      </trkpt>
      <trkpt lat="45.78912" lon="5.44568">
        <ele>216.2</ele>
        <time>2024-09-19T11:33:50Z</time>
      </trkpt>
      <trkpt lat="45.78906" lon="5.44571">
        <ele>216.2</ele>
        <time>2024-09-19T11:33:51Z</time>
      </trkpt>
      <trkpt lat="45.789" lon="5.44575">
        <ele>216.2</ele>
        <time>2024-09-19T11:33:52Z</time>
      </trkpt>
      <trkpt lat="45.78895" lon="5.44578">
        <ele>216.2</ele>
        <time>2024-09-19T11:33:53Z</time>
      </trkpt>
      <trkpt lat="45.78889" lon="5.44581">
        <ele>216.2</ele>
        <time>2024-09-19T11:33:54Z</time>
      </trkpt>
      <trkpt lat="45.78884" lon="5.44583">
        <ele>216.2</ele>
        <time>2024-09-19T11:33:55Z</time>
      </trkpt>
      <trkpt lat="45.78878" lon="5.44586">
        <ele>216.2</ele>
        <time>2024-09-19T11:33:56Z</time>
      </trkpt>
      <trkpt lat="45.78873" lon="5.44589">
        <ele>216.2</ele>
        <time>2024-09-19T11:33:57Z</time>
      </trkpt>
      <trkpt lat="45.78868" lon="5.44592">
        <ele>216.2</ele>
        <time>2024-09-19T11:33:58Z</time>
      </trkpt>
      <trkpt lat="45.78862" lon="5.44595">
        <ele>216.6</ele>
        <time>2024-09-19T11:33:59Z</time>
      </trkpt>
      <trkpt lat="45.78857" lon="5.44598">
        <ele>216.6</ele>
        <time>2024-09-19T11:34:00Z</time>
      </trkpt>
      <trkpt lat="45.78851" lon="5.44601">
        <ele>216.6</ele>
        <time>2024-09-19T11:34:01Z</time>
      </trkpt>
      <trkpt lat="45.78845" lon="5.44604">
        <ele>216.6</ele>
        <time>2024-09-19T11:34:02Z</time>
      </trkpt>
      <trkpt lat="45.7884" lon="5.44607">
        <ele>216.8</ele>
        <time>2024-09-19T11:34:03Z</time>
      </trkpt>
      <trkpt lat="45.78835" lon="5.4461">
        <ele>216.8</ele>
        <time>2024-09-19T11:34:04Z</time>
      </trkpt>
      <trkpt lat="45.7883" lon="5.44613">
        <ele>216.8</ele>
        <time>2024-09-19T11:34:05Z</time>
      </trkpt>
      <trkpt lat="45.78825" lon="5.44616">
        <ele>216.8</ele>
        <time>2024-09-19T11:34:06Z</time>
      </trkpt>
      <trkpt lat="45.7882" lon="5.44619">
        <ele>216.8</ele>
        <time>2024-09-19T11:34:07Z</time>
      </trkpt>
      <trkpt lat="45.78815" lon="5.44623">
        <ele>216.8</ele>
        <time>2024-09-19T11:34:08Z</time>
      </trkpt>
      <trkpt lat="45.7881" lon="5.44627">
        <ele>216.8</ele>
        <time>2024-09-19T11:34:09Z</time>
      </trkpt>
      <trkpt lat="45.78805" lon="5.4463">
        <ele>216.8</ele>
        <time>2024-09-19T11:34:10Z</time>
      </trkpt>
      <trkpt lat="45.78801" lon="5.44633">
        <ele>216.8</ele>
        <time>2024-09-19T11:34:11Z</time>
      </trkpt>
      <trkpt lat="45.78796" lon="5.44637">
        <ele>216.8</ele>
        <time>2024-09-19T11:34:12Z</time>
      </trkpt>
      <trkpt lat="45.78792" lon="5.4464">
        <ele>217.2</ele>
        <time>2024-09-19T11:34:13Z</time>
      </trkpt>
      <trkpt lat="45.78788" lon="5.44645">
        <ele>217.2</ele>
        <time>2024-09-19T11:34:14Z</time>
      </trkpt>
      <trkpt lat="45.78782" lon="5.44648">
        <ele>217.2</ele>
        <time>2024-09-19T11:34:15Z</time>
      </trkpt>
      <trkpt lat="45.78778" lon="5.44653">
        <ele>217.2</ele>
        <time>2024-09-19T11:34:16Z</time>
      </trkpt>
      <trkpt lat="45.78773" lon="5.44657">
        <ele>217.2</ele>
        <time>2024-09-19T11:34:17Z</time>
      </trkpt>
      <trkpt lat="45.78768" lon="5.44661">
        <ele>217.2</ele>
        <time>2024-09-19T11:34:18Z</time>
      </trkpt>
      <trkpt lat="45.78763" lon="5.44666">
        <ele>217.2</ele>
        <time>2024-09-19T11:34:19Z</time>
      </trkpt>
      <trkpt lat="45.78759" lon="5.4467">
        <ele>217.2</ele>
        <time>2024-09-19T11:34:20Z</time>
      </trkpt>
      <trkpt lat="45.78754" lon="5.44675">
        <ele>217.2</ele>
        <time>2024-09-19T11:34:21Z</time>
      </trkpt>
      <trkpt lat="45.7875" lon="5.44679">
        <ele>217.2</ele>
        <time>2024-09-19T11:34:22Z</time>
      </trkpt>
      <trkpt lat="45.78746" lon="5.44683">
        <ele>217.2</ele>
        <time>2024-09-19T11:34:23Z</time>
      </trkpt>
      <trkpt lat="45.78742" lon="5.44687">
        <ele>217.2</ele>
        <time>2024-09-19T11:34:24Z</time>
      </trkpt>
      <trkpt lat="45.78738" lon="5.44692">
        <ele>217.4</ele>
        <time>2024-09-19T11:34:25Z</time>
      </trkpt>
      <trkpt lat="45.78734" lon="5.44696">
        <ele>217.4</ele>
        <time>2024-09-19T11:34:26Z</time>
      </trkpt>
      <trkpt lat="45.7873" lon="5.447">
        <ele>217.4</ele>
        <time>2024-09-19T11:34:27Z</time>
      </trkpt>
      <trkpt lat="45.78726" lon="5.44705">
        <ele>217.4</ele>
        <time>2024-09-19T11:34:28Z</time>
      </trkpt>
      <trkpt lat="45.78722" lon="5.4471">
        <ele>217.4</ele>
        <time>2024-09-19T11:34:29Z</time>
      </trkpt>
      <trkpt lat="45.78717" lon="5.44715">
        <ele>217.4</ele>
        <time>2024-09-19T11:34:30Z</time>
      </trkpt>
      <trkpt lat="45.78713" lon="5.44719">
        <ele>217.4</ele>
        <time>2024-09-19T11:34:31Z</time>
      </trkpt>
      <trkpt lat="45.78709" lon="5.44723">
        <ele>217.4</ele>
        <time>2024-09-19T11:34:32Z</time>
      </trkpt>
      <trkpt lat="45.78705" lon="5.44728">
        <ele>217.8</ele>
        <time>2024-09-19T11:34:33Z</time>
      </trkpt>
      <trkpt lat="45.78701" lon="5.44733">
        <ele>217.8</ele>
        <time>2024-09-19T11:34:34Z</time>
      </trkpt>
      <trkpt lat="45.78697" lon="5.44738">
        <ele>217.8</ele>
        <time>2024-09-19T11:34:35Z</time>
      </trkpt>
      <trkpt lat="45.78693" lon="5.44744">
        <ele>217.8</ele>
        <time>2024-09-19T11:34:36Z</time>
      </trkpt>
      <trkpt lat="45.78689" lon="5.4475">
        <ele>217.8</ele>
        <time>2024-09-19T11:34:37Z</time>
      </trkpt>
      <trkpt lat="45.78685" lon="5.44756">
        <ele>217.6</ele>
        <time>2024-09-19T11:34:38Z</time>
      </trkpt>
      <trkpt lat="45.78681" lon="5.44761">
        <ele>217.6</ele>
        <time>2024-09-19T11:34:39Z</time>
      </trkpt>
      <trkpt lat="45.78677" lon="5.44767">
        <ele>217.6</ele>
        <time>2024-09-19T11:34:40Z</time>
      </trkpt>
      <trkpt lat="45.78673" lon="5.44773">
        <ele>217.8</ele>
        <time>2024-09-19T11:34:41Z</time>
      </trkpt>
      <trkpt lat="45.7867" lon="5.44779">
        <ele>217.8</ele>
        <time>2024-09-19T11:34:42Z</time>
      </trkpt>
      <trkpt lat="45.78666" lon="5.44784">
        <ele>218.2</ele>
        <time>2024-09-19T11:34:43Z</time>
      </trkpt>
      <trkpt lat="45.78663" lon="5.44789">
        <ele>218.2</ele>
        <time>2024-09-19T11:34:44Z</time>
      </trkpt>
      <trkpt lat="45.78659" lon="5.44795">
        <ele>218.2</ele>
        <time>2024-09-19T11:34:45Z</time>
      </trkpt>
      <trkpt lat="45.78655" lon="5.44801">
        <ele>218.2</ele>
        <time>2024-09-19T11:34:46Z</time>
      </trkpt>
      <trkpt lat="45.78651" lon="5.44806">
        <ele>218.2</ele>
        <time>2024-09-19T11:34:47Z</time>
      </trkpt>
      <trkpt lat="45.78648" lon="5.44812">
        <ele>218.2</ele>
        <time>2024-09-19T11:34:48Z</time>
      </trkpt>
      <trkpt lat="45.78643" lon="5.44818">
        <ele>218.2</ele>
        <time>2024-09-19T11:34:49Z</time>
      </trkpt>
      <trkpt lat="45.78639" lon="5.44824">
        <ele>218.2</ele>
        <time>2024-09-19T11:34:50Z</time>
      </trkpt>
      <trkpt lat="45.78636" lon="5.4483">
        <ele>218.2</ele>
        <time>2024-09-19T11:34:51Z</time>
      </trkpt>
      <trkpt lat="45.78632" lon="5.44836">
        <ele>218</ele>
        <time>2024-09-19T11:34:52Z</time>
      </trkpt>
      <trkpt lat="45.78628" lon="5.44842">
        <ele>218</ele>
        <time>2024-09-19T11:34:53Z</time>
      </trkpt>
      <trkpt lat="45.78624" lon="5.44848">
        <ele>218</ele>
        <time>2024-09-19T11:34:54Z</time>
      </trkpt>
      <trkpt lat="45.78619" lon="5.44854">
        <ele>217.6</ele>
        <time>2024-09-19T11:34:55Z</time>
      </trkpt>
      <trkpt lat="45.78615" lon="5.44861">
        <ele>217.6</ele>
        <time>2024-09-19T11:34:56Z</time>
      </trkpt>
      <trkpt lat="45.7861" lon="5.44867">
        <ele>217.6</ele>
        <time>2024-09-19T11:34:57Z</time>
      </trkpt>
      <trkpt lat="45.78606" lon="5.44873">
        <ele>217.4</ele>
        <time>2024-09-19T11:34:58Z</time>
      </trkpt>
      <trkpt lat="45.78602" lon="5.44879">
        <ele>217.4</ele>
        <time>2024-09-19T11:34:59Z</time>
      </trkpt>
      <trkpt lat="45.78598" lon="5.44886">
        <ele>217.4</ele>
        <time>2024-09-19T11:35:00Z</time>
      </trkpt>
      <trkpt lat="45.78594" lon="5.44891">
        <ele>217.4</ele>
        <time>2024-09-19T11:35:01Z</time>
      </trkpt>
      <trkpt lat="45.7859" lon="5.44898">
        <ele>217.4</ele>
        <time>2024-09-19T11:35:02Z</time>
      </trkpt>
      <trkpt lat="45.78586" lon="5.44904">
        <ele>217.4</ele>
        <time>2024-09-19T11:35:03Z</time>
      </trkpt>
      <trkpt lat="45.78582" lon="5.4491">
        <ele>217.4</ele>
        <time>2024-09-19T11:35:04Z</time>
      </trkpt>
      <trkpt lat="45.78578" lon="5.44915">
        <ele>217.4</ele>
        <time>2024-09-19T11:35:05Z</time>
      </trkpt>
      <trkpt lat="45.78574" lon="5.44922">
        <ele>217.4</ele>
        <time>2024-09-19T11:35:06Z</time>
      </trkpt>
      <trkpt lat="45.7857" lon="5.44928">
        <ele>217.4</ele>
        <time>2024-09-19T11:35:07Z</time>
      </trkpt>
      <trkpt lat="45.78566" lon="5.44934">
        <ele>217.4</ele>
        <time>2024-09-19T11:35:08Z</time>
      </trkpt>
      <trkpt lat="45.78563" lon="5.4494">
        <ele>217.4</ele>
        <time>2024-09-19T11:35:09Z</time>
      </trkpt>
      <trkpt lat="45.78558" lon="5.44947">
        <ele>217.2</ele>
        <time>2024-09-19T11:35:10Z</time>
      </trkpt>
      <trkpt lat="45.78554" lon="5.44953">
        <ele>217.2</ele>
        <time>2024-09-19T11:35:11Z</time>
      </trkpt>
      <trkpt lat="45.7855" lon="5.44959">
        <ele>217.2</ele>
        <time>2024-09-19T11:35:12Z</time>
      </trkpt>
      <trkpt lat="45.78546" lon="5.44964">
        <ele>217.2</ele>
        <time>2024-09-19T11:35:13Z</time>
      </trkpt>
      <trkpt lat="45.78542" lon="5.4497">
        <ele>217</ele>
        <time>2024-09-19T11:35:14Z</time>
      </trkpt>
      <trkpt lat="45.78539" lon="5.44976">
        <ele>217</ele>
        <time>2024-09-19T11:35:15Z</time>
      </trkpt>
      <trkpt lat="45.78534" lon="5.44982">
        <ele>217</ele>
        <time>2024-09-19T11:35:16Z</time>
      </trkpt>
      <trkpt lat="45.7853" lon="5.44988">
        <ele>217</ele>
        <time>2024-09-19T11:35:17Z</time>
      </trkpt>
      <trkpt lat="45.78526" lon="5.44994">
        <ele>217</ele>
        <time>2024-09-19T11:35:18Z</time>
      </trkpt>
      <trkpt lat="45.78522" lon="5.45">
        <ele>217</ele>
        <time>2024-09-19T11:35:19Z</time>
      </trkpt>
      <trkpt lat="45.78518" lon="5.45006">
        <ele>217</ele>
        <time>2024-09-19T11:35:20Z</time>
      </trkpt>
      <trkpt lat="45.78515" lon="5.45013">
        <ele>217</ele>
        <time>2024-09-19T11:35:21Z</time>
      </trkpt>
      <trkpt lat="45.78511" lon="5.4502">
        <ele>217</ele>
        <time>2024-09-19T11:35:22Z</time>
      </trkpt>
      <trkpt lat="45.78507" lon="5.45026">
        <ele>217</ele>
        <time>2024-09-19T11:35:23Z</time>
      </trkpt>
      <trkpt lat="45.78505" lon="5.45033">
        <ele>217</ele>
        <time>2024-09-19T11:35:24Z</time>
      </trkpt>
      <trkpt lat="45.785" lon="5.4504">
        <ele>217</ele>
        <time>2024-09-19T11:35:25Z</time>
      </trkpt>
      <trkpt lat="45.78496" lon="5.45046">
        <ele>217</ele>
        <time>2024-09-19T11:35:26Z</time>
      </trkpt>
      <trkpt lat="45.78493" lon="5.45053">
        <ele>217</ele>
        <time>2024-09-19T11:35:27Z</time>
      </trkpt>
      <trkpt lat="45.7849" lon="5.4506">
        <ele>216.6</ele>
        <time>2024-09-19T11:35:28Z</time>
      </trkpt>
      <trkpt lat="45.78487" lon="5.45067">
        <ele>216.6</ele>
        <time>2024-09-19T11:35:29Z</time>
      </trkpt>
      <trkpt lat="45.78484" lon="5.45076">
        <ele>216.6</ele>
        <time>2024-09-19T11:35:30Z</time>
      </trkpt>
      <trkpt lat="45.78481" lon="5.45083">
        <ele>216.6</ele>
        <time>2024-09-19T11:35:31Z</time>
      </trkpt>
      <trkpt lat="45.78478" lon="5.45091">
        <ele>216.6</ele>
        <time>2024-09-19T11:35:32Z</time>
      </trkpt>
      <trkpt lat="45.78475" lon="5.45099">
        <ele>216.6</ele>
        <time>2024-09-19T11:35:33Z</time>
      </trkpt>
      <trkpt lat="45.78473" lon="5.45106">
        <ele>216.6</ele>
        <time>2024-09-19T11:35:34Z</time>
      </trkpt>
      <trkpt lat="45.78469" lon="5.45113">
        <ele>216.6</ele>
        <time>2024-09-19T11:35:35Z</time>
      </trkpt>
      <trkpt lat="45.78466" lon="5.4512">
        <ele>216.6</ele>
        <time>2024-09-19T11:35:36Z</time>
      </trkpt>
      <trkpt lat="45.78463" lon="5.45127">
        <ele>216.6</ele>
        <time>2024-09-19T11:35:37Z</time>
      </trkpt>
      <trkpt lat="45.7846" lon="5.45135">
        <ele>216.6</ele>
        <time>2024-09-19T11:35:38Z</time>
      </trkpt>
      <trkpt lat="45.78457" lon="5.45141">
        <ele>216.6</ele>
        <time>2024-09-19T11:35:39Z</time>
      </trkpt>
      <trkpt lat="45.78455" lon="5.45145">
        <ele>216.6</ele>
        <time>2024-09-19T11:35:40Z</time>
      </trkpt>
      <trkpt lat="45.78455" lon="5.45148">
        <ele>216.6</ele>
        <time>2024-09-19T11:35:41Z</time>
      </trkpt>
      <trkpt lat="45.78458" lon="5.4515">
        <ele>217</ele>
        <time>2024-09-19T11:35:42Z</time>
      </trkpt>
      <trkpt lat="45.78458" lon="5.45147">
        <ele>217</ele>
        <time>2024-09-19T11:35:43Z</time>
      </trkpt>
      <trkpt lat="45.7846" lon="5.45146">
        <ele>217</ele>
        <time>2024-09-19T11:35:44Z</time>
      </trkpt>
      <trkpt lat="45.78461" lon="5.45143">
        <ele>217</ele>
        <time>2024-09-19T11:35:45Z</time>
      </trkpt>
      <trkpt lat="45.78462" lon="5.4514">
        <ele>217</ele>
        <time>2024-09-19T11:35:46Z</time>
      </trkpt>
      <trkpt lat="45.78463" lon="5.45137">
        <ele>217</ele>
        <time>2024-09-19T11:35:47Z</time>
      </trkpt>
      <trkpt lat="45.78465" lon="5.45133">
        <ele>217</ele>
        <time>2024-09-19T11:35:48Z</time>
      </trkpt>
      <trkpt lat="45.78467" lon="5.4513">
        <ele>217</ele>
        <time>2024-09-19T11:35:49Z</time>
      </trkpt>
      <trkpt lat="45.7847" lon="5.45129">
        <ele>217</ele>
        <time>2024-09-19T11:35:50Z</time>
      </trkpt>
      <trkpt lat="45.78473" lon="5.4513">
        <ele>216.8</ele>
        <time>2024-09-19T11:35:51Z</time>
      </trkpt>
      <trkpt lat="45.78477" lon="5.45132">
        <ele>216.8</ele>
        <time>2024-09-19T11:35:52Z</time>
      </trkpt>
      <trkpt lat="45.78479" lon="5.45135">
        <ele>217</ele>
        <time>2024-09-19T11:35:53Z</time>
      </trkpt>
      <trkpt lat="45.78481" lon="5.4514">
        <ele>217.2</ele>
        <time>2024-09-19T11:35:54Z</time>
      </trkpt>
      <trkpt lat="45.78484" lon="5.45144">
        <ele>217.2</ele>
        <time>2024-09-19T11:35:55Z</time>
      </trkpt>
      <trkpt lat="45.78486" lon="5.45148">
        <ele>217.6</ele>
        <time>2024-09-19T11:35:56Z</time>
      </trkpt>
      <trkpt lat="45.78489" lon="5.45152">
        <ele>217.6</ele>
        <time>2024-09-19T11:35:57Z</time>
      </trkpt>
      <trkpt lat="45.78492" lon="5.45156">
        <ele>217.6</ele>
        <time>2024-09-19T11:35:58Z</time>
      </trkpt>
      <trkpt lat="45.78495" lon="5.45159">
        <ele>217.6</ele>
        <time>2024-09-19T11:35:59Z</time>
      </trkpt>
      <trkpt lat="45.78498" lon="5.45162">
        <ele>218</ele>
        <time>2024-09-19T11:36:00Z</time>
      </trkpt>
      <trkpt lat="45.78501" lon="5.45166">
        <ele>218.4</ele>
        <time>2024-09-19T11:36:01Z</time>
      </trkpt>
      <trkpt lat="45.78504" lon="5.45169">
        <ele>218</ele>
        <time>2024-09-19T11:36:02Z</time>
      </trkpt>
      <trkpt lat="45.78507" lon="5.45173">
        <ele>218.2</ele>
        <time>2024-09-19T11:36:03Z</time>
      </trkpt>
      <trkpt lat="45.78511" lon="5.45176">
        <ele>218</ele>
        <time>2024-09-19T11:36:04Z</time>
      </trkpt>
      <trkpt lat="45.78514" lon="5.45179">
        <ele>218.4</ele>
        <time>2024-09-19T11:36:05Z</time>
      </trkpt>
      <trkpt lat="45.78514" lon="5.45179">
        <ele>218</ele>
        <time>2024-09-19T11:36:06Z</time>
      </trkpt>
      <trkpt lat="45.78517" lon="5.45183">
        <ele>218</ele>
        <time>2024-09-19T11:36:07Z</time>
      </trkpt>
      <trkpt lat="45.7852" lon="5.45186">
        <ele>218</ele>
        <time>2024-09-19T11:36:08Z</time>
      </trkpt>
      <trkpt lat="45.78523" lon="5.45189">
        <ele>217.8</ele>
        <time>2024-09-19T11:36:09Z</time>
      </trkpt>
      <trkpt lat="45.78525" lon="5.45193">
        <ele>217.8</ele>
        <time>2024-09-19T11:36:10Z</time>
      </trkpt>
      <trkpt lat="45.78527" lon="5.45196">
        <ele>218.2</ele>
        <time>2024-09-19T11:36:11Z</time>
      </trkpt>
      <trkpt lat="45.78529" lon="5.452">
        <ele>218.2</ele>
        <time>2024-09-19T11:36:12Z</time>
      </trkpt>
      <trkpt lat="45.78531" lon="5.45204">
        <ele>218.2</ele>
        <time>2024-09-19T11:36:13Z</time>
      </trkpt>
      <trkpt lat="45.78532" lon="5.45208">
        <ele>218.2</ele>
        <time>2024-09-19T11:36:14Z</time>
      </trkpt>
      <trkpt lat="45.78532" lon="5.45213">
        <ele>218.6</ele>
        <time>2024-09-19T11:36:15Z</time>
      </trkpt>
      <trkpt lat="45.7853" lon="5.45222">
        <ele>218.6</ele>
        <time>2024-09-19T11:36:16Z</time>
      </trkpt>
      <trkpt lat="45.78529" lon="5.45227">
        <ele>219</ele>
        <time>2024-09-19T11:36:17Z</time>
      </trkpt>
      <trkpt lat="45.78528" lon="5.45232">
        <ele>219</ele>
        <time>2024-09-19T11:36:18Z</time>
      </trkpt>
      <trkpt lat="45.78526" lon="5.45237">
        <ele>219.2</ele>
        <time>2024-09-19T11:36:19Z</time>
      </trkpt>
      <trkpt lat="45.78524" lon="5.45242">
        <ele>219.2</ele>
        <time>2024-09-19T11:36:20Z</time>
      </trkpt>
      <trkpt lat="45.78522" lon="5.45246">
        <ele>219.2</ele>
        <time>2024-09-19T11:36:21Z</time>
      </trkpt>
      <trkpt lat="45.7852" lon="5.45249">
        <ele>219.2</ele>
        <time>2024-09-19T11:36:22Z</time>
      </trkpt>
      <trkpt lat="45.78518" lon="5.45253">
        <ele>219.4</ele>
        <time>2024-09-19T11:36:23Z</time>
      </trkpt>
      <trkpt lat="45.78517" lon="5.45256">
        <ele>219.4</ele>
        <time>2024-09-19T11:36:24Z</time>
      </trkpt>
      <trkpt lat="45.78514" lon="5.45258">
        <ele>219.6</ele>
        <time>2024-09-19T11:36:25Z</time>
      </trkpt>
      <trkpt lat="45.78511" lon="5.45259">
        <ele>220</ele>
        <time>2024-09-19T11:36:26Z</time>
      </trkpt>
      <trkpt lat="45.78508" lon="5.45257">
        <ele>220</ele>
        <time>2024-09-19T11:36:27Z</time>
      </trkpt>
      <trkpt lat="45.78505" lon="5.45255">
        <ele>220.2</ele>
        <time>2024-09-19T11:36:28Z</time>
      </trkpt>
      <trkpt lat="45.78501" lon="5.45252">
        <ele>220.2</ele>
        <time>2024-09-19T11:36:29Z</time>
      </trkpt>
      <trkpt lat="45.78499" lon="5.45249">
        <ele>220.6</ele>
        <time>2024-09-19T11:36:30Z</time>
      </trkpt>
      <trkpt lat="45.78497" lon="5.45247">
        <ele>220.8</ele>
        <time>2024-09-19T11:36:31Z</time>
      </trkpt>
      <trkpt lat="45.78494" lon="5.45244">
        <ele>220.8</ele>
        <time>2024-09-19T11:36:32Z</time>
      </trkpt>
      <trkpt lat="45.7849" lon="5.45242">
        <ele>220.8</ele>
        <time>2024-09-19T11:36:33Z</time>
      </trkpt>
      <trkpt lat="45.78487" lon="5.4524">
        <ele>221.2</ele>
        <time>2024-09-19T11:36:34Z</time>
      </trkpt>
      <trkpt lat="45.78484" lon="5.45238">
        <ele>221.2</ele>
        <time>2024-09-19T11:36:35Z</time>
      </trkpt>
      <trkpt lat="45.78481" lon="5.45236">
        <ele>221.4</ele>
        <time>2024-09-19T11:36:36Z</time>
      </trkpt>
      <trkpt lat="45.78478" lon="5.45235">
        <ele>221.4</ele>
        <time>2024-09-19T11:36:37Z</time>
      </trkpt>
      <trkpt lat="45.78475" lon="5.45233">
        <ele>221.6</ele>
        <time>2024-09-19T11:36:38Z</time>
      </trkpt>
      <trkpt lat="45.78471" lon="5.45231">
        <ele>221.6</ele>
        <time>2024-09-19T11:36:39Z</time>
      </trkpt>
      <trkpt lat="45.78469" lon="5.45229">
        <ele>222</ele>
        <time>2024-09-19T11:36:40Z</time>
      </trkpt>
      <trkpt lat="45.78466" lon="5.45227">
        <ele>222.2</ele>
        <time>2024-09-19T11:36:41Z</time>
      </trkpt>
      <trkpt lat="45.78463" lon="5.45225">
        <ele>222.6</ele>
        <time>2024-09-19T11:36:42Z</time>
      </trkpt>
      <trkpt lat="45.78461" lon="5.45223">
        <ele>222.8</ele>
        <time>2024-09-19T11:36:43Z</time>
      </trkpt>
      <trkpt lat="45.78458" lon="5.45222">
        <ele>222.8</ele>
        <time>2024-09-19T11:36:44Z</time>
      </trkpt>
      <trkpt lat="45.78455" lon="5.4522">
        <ele>223.2</ele>
        <time>2024-09-19T11:36:45Z</time>
      </trkpt>
      <trkpt lat="45.78452" lon="5.45217">
        <ele>223.4</ele>
        <time>2024-09-19T11:36:46Z</time>
      </trkpt>
      <trkpt lat="45.7845" lon="5.45215">
        <ele>223.4</ele>
        <time>2024-09-19T11:36:47Z</time>
      </trkpt>
      <trkpt lat="45.7845" lon="5.45215">
        <ele>223.6</ele>
        <time>2024-09-19T11:36:48Z</time>
      </trkpt>
      <trkpt lat="45.7845" lon="5.45215">
        <ele>223.6</ele>
        <time>2024-09-19T11:36:49Z</time>
      </trkpt>
      <trkpt lat="45.78438" lon="5.45208">
        <ele>224.2</ele>
        <time>2024-09-19T11:36:51Z</time>
      </trkpt>
      <trkpt lat="45.78436" lon="5.45206">
        <ele>224.2</ele>
        <time>2024-09-19T11:36:52Z</time>
      </trkpt>
      <trkpt lat="45.78433" lon="5.45204">
        <ele>224.4</ele>
        <time>2024-09-19T11:36:53Z</time>
      </trkpt>
      <trkpt lat="45.7843" lon="5.45202">
        <ele>224.4</ele>
        <time>2024-09-19T11:36:54Z</time>
      </trkpt>
      <trkpt lat="45.78427" lon="5.452">
        <ele>224.8</ele>
        <time>2024-09-19T11:36:55Z</time>
      </trkpt>
      <trkpt lat="45.78424" lon="5.45198">
        <ele>224.8</ele>
        <time>2024-09-19T11:36:56Z</time>
      </trkpt>
      <trkpt lat="45.78421" lon="5.45196">
        <ele>225.2</ele>
        <time>2024-09-19T11:36:57Z</time>
      </trkpt>
      <trkpt lat="45.78418" lon="5.45194">
        <ele>225.2</ele>
        <time>2024-09-19T11:36:58Z</time>
      </trkpt>
      <trkpt lat="45.78415" lon="5.45192">
        <ele>225.2</ele>
        <time>2024-09-19T11:36:59Z</time>
      </trkpt>
      <trkpt lat="45.78412" lon="5.4519">
        <ele>225.2</ele>
        <time>2024-09-19T11:37:00Z</time>
      </trkpt>
      <trkpt lat="45.78409" lon="5.45187">
        <ele>225.4</ele>
        <time>2024-09-19T11:37:01Z</time>
      </trkpt>
      <trkpt lat="45.78406" lon="5.45185">
        <ele>225.6</ele>
        <time>2024-09-19T11:37:02Z</time>
      </trkpt>
      <trkpt lat="45.78403" lon="5.45183">
        <ele>225.6</ele>
        <time>2024-09-19T11:37:03Z</time>
      </trkpt>
      <trkpt lat="45.784" lon="5.45181">
        <ele>226</ele>
        <time>2024-09-19T11:37:04Z</time>
      </trkpt>
      <trkpt lat="45.78397" lon="5.45179">
        <ele>226</ele>
        <time>2024-09-19T11:37:05Z</time>
      </trkpt>
      <trkpt lat="45.78393" lon="5.45177">
        <ele>226.2</ele>
        <time>2024-09-19T11:37:06Z</time>
      </trkpt>
      <trkpt lat="45.7839" lon="5.45174">
        <ele>226.4</ele>
        <time>2024-09-19T11:37:07Z</time>
      </trkpt>
      <trkpt lat="45.78387" lon="5.45172">
        <ele>226.4</ele>
        <time>2024-09-19T11:37:08Z</time>
      </trkpt>
      <trkpt lat="45.78384" lon="5.4517">
        <ele>226.4</ele>
        <time>2024-09-19T11:37:09Z</time>
      </trkpt>
      <trkpt lat="45.78381" lon="5.45167">
        <ele>226.6</ele>
        <time>2024-09-19T11:37:10Z</time>
      </trkpt>
      <trkpt lat="45.78378" lon="5.45165">
        <ele>226.6</ele>
        <time>2024-09-19T11:37:11Z</time>
      </trkpt>
      <trkpt lat="45.78375" lon="5.45162">
        <ele>226.6</ele>
        <time>2024-09-19T11:37:12Z</time>
      </trkpt>
      <trkpt lat="45.78371" lon="5.4516">
        <ele>226.6</ele>
        <time>2024-09-19T11:37:13Z</time>
      </trkpt>
      <trkpt lat="45.78368" lon="5.45157">
        <ele>226.6</ele>
        <time>2024-09-19T11:37:14Z</time>
      </trkpt>
      <trkpt lat="45.78364" lon="5.45155">
        <ele>226.6</ele>
        <time>2024-09-19T11:37:15Z</time>
      </trkpt>
      <trkpt lat="45.78361" lon="5.45153">
        <ele>227</ele>
        <time>2024-09-19T11:37:16Z</time>
      </trkpt>
      <trkpt lat="45.78357" lon="5.4515">
        <ele>227</ele>
        <time>2024-09-19T11:37:17Z</time>
      </trkpt>
      <trkpt lat="45.78353" lon="5.45148">
        <ele>227</ele>
        <time>2024-09-19T11:37:18Z</time>
      </trkpt>
      <trkpt lat="45.78349" lon="5.45144">
        <ele>227</ele>
        <time>2024-09-19T11:37:19Z</time>
      </trkpt>
      <trkpt lat="45.78346" lon="5.45142">
        <ele>227</ele>
        <time>2024-09-19T11:37:20Z</time>
      </trkpt>
      <trkpt lat="45.78341" lon="5.45139">
        <ele>227</ele>
        <time>2024-09-19T11:37:21Z</time>
      </trkpt>
      <trkpt lat="45.78337" lon="5.45136">
        <ele>227</ele>
        <time>2024-09-19T11:37:22Z</time>
      </trkpt>
      <trkpt lat="45.78332" lon="5.45133">
        <ele>227</ele>
        <time>2024-09-19T11:37:23Z</time>
      </trkpt>
      <trkpt lat="45.78327" lon="5.45129">
        <ele>226.6</ele>
        <time>2024-09-19T11:37:24Z</time>
      </trkpt>
      <trkpt lat="45.78322" lon="5.45126">
        <ele>226.4</ele>
        <time>2024-09-19T11:37:25Z</time>
      </trkpt>
      <trkpt lat="45.78317" lon="5.45122">
        <ele>226.2</ele>
        <time>2024-09-19T11:37:26Z</time>
      </trkpt>
      <trkpt lat="45.78312" lon="5.45118">
        <ele>226</ele>
        <time>2024-09-19T11:37:27Z</time>
      </trkpt>
      <trkpt lat="45.78306" lon="5.45114">
        <ele>226</ele>
        <time>2024-09-19T11:37:28Z</time>
      </trkpt>
      <trkpt lat="45.78306" lon="5.45114">
        <ele>226.2</ele>
        <time>2024-09-19T11:37:29Z</time>
      </trkpt>
      <trkpt lat="45.78306" lon="5.45114">
        <ele>226</ele>
        <time>2024-09-19T11:37:30Z</time>
      </trkpt>
      <trkpt lat="45.78295" lon="5.45106">
        <ele>225.4</ele>
        <time>2024-09-19T11:37:31Z</time>
      </trkpt>
      <trkpt lat="45.78283" lon="5.45098">
        <ele>225</ele>
        <time>2024-09-19T11:37:32Z</time>
      </trkpt>
      <trkpt lat="45.78277" lon="5.45094">
        <ele>224.8</ele>
        <time>2024-09-19T11:37:33Z</time>
      </trkpt>
      <trkpt lat="45.78271" lon="5.4509">
        <ele>224.8</ele>
        <time>2024-09-19T11:37:34Z</time>
      </trkpt>
      <trkpt lat="45.78265" lon="5.45085">
        <ele>224.6</ele>
        <time>2024-09-19T11:37:35Z</time>
      </trkpt>
      <trkpt lat="45.78259" lon="5.45081">
        <ele>224.6</ele>
        <time>2024-09-19T11:37:36Z</time>
      </trkpt>
      <trkpt lat="45.78253" lon="5.45076">
        <ele>224.4</ele>
        <time>2024-09-19T11:37:37Z</time>
      </trkpt>
      <trkpt lat="45.78247" lon="5.45072">
        <ele>224.4</ele>
        <time>2024-09-19T11:37:38Z</time>
      </trkpt>
      <trkpt lat="45.78241" lon="5.45069">
        <ele>224.4</ele>
        <time>2024-09-19T11:37:39Z</time>
      </trkpt>
      <trkpt lat="45.78235" lon="5.45064">
        <ele>224</ele>
        <time>2024-09-19T11:37:40Z</time>
      </trkpt>
      <trkpt lat="45.7823" lon="5.4506">
        <ele>224</ele>
        <time>2024-09-19T11:37:41Z</time>
      </trkpt>
      <trkpt lat="45.78224" lon="5.45057">
        <ele>224</ele>
        <time>2024-09-19T11:37:42Z</time>
      </trkpt>
      <trkpt lat="45.78219" lon="5.45053">
        <ele>224</ele>
        <time>2024-09-19T11:37:43Z</time>
      </trkpt>
      <trkpt lat="45.78214" lon="5.4505">
        <ele>224</ele>
        <time>2024-09-19T11:37:44Z</time>
      </trkpt>
      <trkpt lat="45.78209" lon="5.45047">
        <ele>224</ele>
        <time>2024-09-19T11:37:45Z</time>
      </trkpt>
      <trkpt lat="45.78204" lon="5.45044">
        <ele>224.2</ele>
        <time>2024-09-19T11:37:46Z</time>
      </trkpt>
      <trkpt lat="45.782" lon="5.45041">
        <ele>224.2</ele>
        <time>2024-09-19T11:37:47Z</time>
      </trkpt>
      <trkpt lat="45.78195" lon="5.45038">
        <ele>224.6</ele>
        <time>2024-09-19T11:37:48Z</time>
      </trkpt>
      <trkpt lat="45.78191" lon="5.45036">
        <ele>224.6</ele>
        <time>2024-09-19T11:37:49Z</time>
      </trkpt>
      <trkpt lat="45.78187" lon="5.45035">
        <ele>224.6</ele>
        <time>2024-09-19T11:37:50Z</time>
      </trkpt>
      <trkpt lat="45.78184" lon="5.45033">
        <ele>225</ele>
        <time>2024-09-19T11:37:51Z</time>
      </trkpt>
      <trkpt lat="45.78181" lon="5.45034">
        <ele>225.2</ele>
        <time>2024-09-19T11:37:52Z</time>
      </trkpt>
      <trkpt lat="45.78178" lon="5.45035">
        <ele>225.2</ele>
        <time>2024-09-19T11:37:53Z</time>
      </trkpt>
      <trkpt lat="45.78176" lon="5.45036">
        <ele>225.4</ele>
        <time>2024-09-19T11:37:54Z</time>
      </trkpt>
      <trkpt lat="45.78175" lon="5.45037">
        <ele>225.4</ele>
        <time>2024-09-19T11:37:55Z</time>
      </trkpt>
      <trkpt lat="45.78174" lon="5.45039">
        <ele>225.8</ele>
        <time>2024-09-19T11:37:56Z</time>
      </trkpt>
      <trkpt lat="45.78173" lon="5.45038">
        <ele>225.8</ele>
        <time>2024-09-19T11:37:57Z</time>
      </trkpt>
      <trkpt lat="45.78172" lon="5.45039">
        <ele>226</ele>
        <time>2024-09-19T11:37:58Z</time>
      </trkpt>
      <trkpt lat="45.78171" lon="5.45039">
        <ele>226</ele>
        <time>2024-09-19T11:37:59Z</time>
      </trkpt>
      <trkpt lat="45.78169" lon="5.45041">
        <ele>225.8</ele>
        <time>2024-09-19T11:38:00Z</time>
      </trkpt>
      <trkpt lat="45.78168" lon="5.45044">
        <ele>225.4</ele>
        <time>2024-09-19T11:38:01Z</time>
      </trkpt>
      <trkpt lat="45.78166" lon="5.45047">
        <ele>225</ele>
        <time>2024-09-19T11:38:02Z</time>
      </trkpt>
      <trkpt lat="45.78165" lon="5.45051">
        <ele>225</ele>
        <time>2024-09-19T11:38:03Z</time>
      </trkpt>
      <trkpt lat="45.78163" lon="5.45056">
        <ele>225</ele>
        <time>2024-09-19T11:38:04Z</time>
      </trkpt>
      <trkpt lat="45.78161" lon="5.45063">
        <ele>224.8</ele>
        <time>2024-09-19T11:38:05Z</time>
      </trkpt>
      <trkpt lat="45.78159" lon="5.45068">
        <ele>224.6</ele>
        <time>2024-09-19T11:38:06Z</time>
      </trkpt>
      <trkpt lat="45.78155" lon="5.45071">
        <ele>224.2</ele>
        <time>2024-09-19T11:38:07Z</time>
      </trkpt>
      <trkpt lat="45.7815" lon="5.45074">
        <ele>223.8</ele>
        <time>2024-09-19T11:38:08Z</time>
      </trkpt>
      <trkpt lat="45.78147" lon="5.45076">
        <ele>223.4</ele>
        <time>2024-09-19T11:38:09Z</time>
      </trkpt>
      <trkpt lat="45.78142" lon="5.45078">
        <ele>223.4</ele>
        <time>2024-09-19T11:38:10Z</time>
      </trkpt>
      <trkpt lat="45.78138" lon="5.4508">
        <ele>223.4</ele>
        <time>2024-09-19T11:38:11Z</time>
      </trkpt>
      <trkpt lat="45.78134" lon="5.45082">
        <ele>222.8</ele>
        <time>2024-09-19T11:38:12Z</time>
      </trkpt>
      <trkpt lat="45.7813" lon="5.45082">
        <ele>222.8</ele>
        <time>2024-09-19T11:38:13Z</time>
      </trkpt>
      <trkpt lat="45.78126" lon="5.45085">
        <ele>222.8</ele>
        <time>2024-09-19T11:38:14Z</time>
      </trkpt>
      <trkpt lat="45.78122" lon="5.45086">
        <ele>222.8</ele>
        <time>2024-09-19T11:38:15Z</time>
      </trkpt>
      <trkpt lat="45.78119" lon="5.45088">
        <ele>223.4</ele>
        <time>2024-09-19T11:38:16Z</time>
      </trkpt>
      <trkpt lat="45.78115" lon="5.45089">
        <ele>223.2</ele>
        <time>2024-09-19T11:38:17Z</time>
      </trkpt>
      <trkpt lat="45.78111" lon="5.4509">
        <ele>223</ele>
        <time>2024-09-19T11:38:18Z</time>
      </trkpt>
      <trkpt lat="45.78107" lon="5.45092">
        <ele>223</ele>
        <time>2024-09-19T11:38:19Z</time>
      </trkpt>
      <trkpt lat="45.78103" lon="5.45093">
        <ele>223</ele>
        <time>2024-09-19T11:38:20Z</time>
      </trkpt>
      <trkpt lat="45.781" lon="5.45096">
        <ele>222.8</ele>
        <time>2024-09-19T11:38:21Z</time>
      </trkpt>
      <trkpt lat="45.78096" lon="5.45098">
        <ele>222.8</ele>
        <time>2024-09-19T11:38:22Z</time>
      </trkpt>
      <trkpt lat="45.78092" lon="5.451">
        <ele>223</ele>
        <time>2024-09-19T11:38:23Z</time>
      </trkpt>
      <trkpt lat="45.78088" lon="5.45102">
        <ele>223.2</ele>
        <time>2024-09-19T11:38:24Z</time>
      </trkpt>
      <trkpt lat="45.78084" lon="5.45103">
        <ele>222.8</ele>
        <time>2024-09-19T11:38:25Z</time>
      </trkpt>
      <trkpt lat="45.7808" lon="5.45105">
        <ele>223</ele>
        <time>2024-09-19T11:38:26Z</time>
      </trkpt>
      <trkpt lat="45.78076" lon="5.45105">
        <ele>223</ele>
        <time>2024-09-19T11:38:27Z</time>
      </trkpt>
      <trkpt lat="45.78073" lon="5.45106">
        <ele>223</ele>
        <time>2024-09-19T11:38:28Z</time>
      </trkpt>
      <trkpt lat="45.7807" lon="5.45107">
        <ele>223</ele>
        <time>2024-09-19T11:38:29Z</time>
      </trkpt>
      <trkpt lat="45.78066" lon="5.45107">
        <ele>223.2</ele>
        <time>2024-09-19T11:38:30Z</time>
      </trkpt>
      <trkpt lat="45.78062" lon="5.45108">
        <ele>223.2</ele>
        <time>2024-09-19T11:38:31Z</time>
      </trkpt>
      <trkpt lat="45.78058" lon="5.45108">
        <ele>223.2</ele>
        <time>2024-09-19T11:38:32Z</time>
      </trkpt>
      <trkpt lat="45.78054" lon="5.45108">
        <ele>223</ele>
        <time>2024-09-19T11:38:33Z</time>
      </trkpt>
      <trkpt lat="45.7805" lon="5.45108">
        <ele>223</ele>
        <time>2024-09-19T11:38:34Z</time>
      </trkpt>
      <trkpt lat="45.78046" lon="5.45108">
        <ele>223</ele>
        <time>2024-09-19T11:38:35Z</time>
      </trkpt>
      <trkpt lat="45.78043" lon="5.45108">
        <ele>223.2</ele>
        <time>2024-09-19T11:38:36Z</time>
      </trkpt>
      <trkpt lat="45.78039" lon="5.45108">
        <ele>223.2</ele>
        <time>2024-09-19T11:38:37Z</time>
      </trkpt>
      <trkpt lat="45.78035" lon="5.45108">
        <ele>224</ele>
        <time>2024-09-19T11:38:38Z</time>
      </trkpt>
      <trkpt lat="45.78031" lon="5.45108">
        <ele>224</ele>
        <time>2024-09-19T11:38:39Z</time>
      </trkpt>
      <trkpt lat="45.78028" lon="5.45108">
        <ele>224</ele>
        <time>2024-09-19T11:38:40Z</time>
      </trkpt>
      <trkpt lat="45.78024" lon="5.45109">
        <ele>223.6</ele>
        <time>2024-09-19T11:38:41Z</time>
      </trkpt>
      <trkpt lat="45.78021" lon="5.45109">
        <ele>223.6</ele>
        <time>2024-09-19T11:38:42Z</time>
      </trkpt>
      <trkpt lat="45.78018" lon="5.45109">
        <ele>223.6</ele>
        <time>2024-09-19T11:38:43Z</time>
      </trkpt>
      <trkpt lat="45.78016" lon="5.45109">
        <ele>223.6</ele>
        <time>2024-09-19T11:38:44Z</time>
      </trkpt>
      <trkpt lat="45.78012" lon="5.45109">
        <ele>224</ele>
        <time>2024-09-19T11:38:45Z</time>
      </trkpt>
      <trkpt lat="45.78009" lon="5.45109">
        <ele>224</ele>
        <time>2024-09-19T11:38:46Z</time>
      </trkpt>
      <trkpt lat="45.78006" lon="5.4511">
        <ele>224</ele>
        <time>2024-09-19T11:38:47Z</time>
      </trkpt>
      <trkpt lat="45.78003" lon="5.45112">
        <ele>223.6</ele>
        <time>2024-09-19T11:38:48Z</time>
      </trkpt>
      <trkpt lat="45.78" lon="5.45115">
        <ele>223.6</ele>
        <time>2024-09-19T11:38:49Z</time>
      </trkpt>
      <trkpt lat="45.77997" lon="5.45119">
        <ele>223.6</ele>
        <time>2024-09-19T11:38:50Z</time>
      </trkpt>
      <trkpt lat="45.77995" lon="5.45123">
        <ele>223.6</ele>
        <time>2024-09-19T11:38:51Z</time>
      </trkpt>
      <trkpt lat="45.77994" lon="5.45128">
        <ele>223.6</ele>
        <time>2024-09-19T11:38:52Z</time>
      </trkpt>
      <trkpt lat="45.77993" lon="5.45133">
        <ele>223.6</ele>
        <time>2024-09-19T11:38:53Z</time>
      </trkpt>
      <trkpt lat="45.77992" lon="5.45137">
        <ele>223.6</ele>
        <time>2024-09-19T11:38:54Z</time>
      </trkpt>
      <trkpt lat="45.77993" lon="5.45143">
        <ele>223.6</ele>
        <time>2024-09-19T11:38:55Z</time>
      </trkpt>
      <trkpt lat="45.77993" lon="5.45149">
        <ele>223.6</ele>
        <time>2024-09-19T11:38:56Z</time>
      </trkpt>
      <trkpt lat="45.77994" lon="5.45155">
        <ele>223.6</ele>
        <time>2024-09-19T11:38:57Z</time>
      </trkpt>
      <trkpt lat="45.77996" lon="5.4516">
        <ele>223.6</ele>
        <time>2024-09-19T11:38:58Z</time>
      </trkpt>
      <trkpt lat="45.77997" lon="5.45165">
        <ele>223.6</ele>
        <time>2024-09-19T11:38:59Z</time>
      </trkpt>
      <trkpt lat="45.77998" lon="5.4517">
        <ele>224</ele>
        <time>2024-09-19T11:39:00Z</time>
      </trkpt>
      <trkpt lat="45.77999" lon="5.45176">
        <ele>223.6</ele>
        <time>2024-09-19T11:39:01Z</time>
      </trkpt>
      <trkpt lat="45.78" lon="5.45181">
        <ele>223.4</ele>
        <time>2024-09-19T11:39:02Z</time>
      </trkpt>
      <trkpt lat="45.78" lon="5.45186">
        <ele>223.4</ele>
        <time>2024-09-19T11:39:03Z</time>
      </trkpt>
      <trkpt lat="45.78" lon="5.45191">
        <ele>223.4</ele>
        <time>2024-09-19T11:39:04Z</time>
      </trkpt>
      <trkpt lat="45.78" lon="5.45196">
        <ele>223.4</ele>
        <time>2024-09-19T11:39:05Z</time>
      </trkpt>
      <trkpt lat="45.77999" lon="5.45201">
        <ele>223.4</ele>
        <time>2024-09-19T11:39:06Z</time>
      </trkpt>
      <trkpt lat="45.77997" lon="5.45205">
        <ele>223.4</ele>
        <time>2024-09-19T11:39:07Z</time>
      </trkpt>
      <trkpt lat="45.77995" lon="5.45209">
        <ele>223.4</ele>
        <time>2024-09-19T11:39:08Z</time>
      </trkpt>
      <trkpt lat="45.77993" lon="5.45212">
        <ele>223.4</ele>
        <time>2024-09-19T11:39:09Z</time>
      </trkpt>
      <trkpt lat="45.77991" lon="5.45215">
        <ele>223.4</ele>
        <time>2024-09-19T11:39:10Z</time>
      </trkpt>
      <trkpt lat="45.77987" lon="5.45218">
        <ele>223.4</ele>
        <time>2024-09-19T11:39:11Z</time>
      </trkpt>
      <trkpt lat="45.77984" lon="5.4522">
        <ele>223.4</ele>
        <time>2024-09-19T11:39:12Z</time>
      </trkpt>
      <trkpt lat="45.77981" lon="5.45222">
        <ele>223.4</ele>
        <time>2024-09-19T11:39:13Z</time>
      </trkpt>
      <trkpt lat="45.77978" lon="5.45224">
        <ele>223.4</ele>
        <time>2024-09-19T11:39:14Z</time>
      </trkpt>
      <trkpt lat="45.77975" lon="5.45226">
        <ele>223.4</ele>
        <time>2024-09-19T11:39:15Z</time>
      </trkpt>
      <trkpt lat="45.77972" lon="5.45228">
        <ele>223.8</ele>
        <time>2024-09-19T11:39:16Z</time>
      </trkpt>
      <trkpt lat="45.77969" lon="5.45231">
        <ele>223.8</ele>
        <time>2024-09-19T11:39:17Z</time>
      </trkpt>
      <trkpt lat="45.77966" lon="5.45233">
        <ele>223.8</ele>
        <time>2024-09-19T11:39:18Z</time>
      </trkpt>
      <trkpt lat="45.77963" lon="5.45236">
        <ele>224.2</ele>
        <time>2024-09-19T11:39:19Z</time>
      </trkpt>
      <trkpt lat="45.7796" lon="5.45238">
        <ele>224.2</ele>
        <time>2024-09-19T11:39:20Z</time>
      </trkpt>
      <trkpt lat="45.77957" lon="5.45241">
        <ele>224</ele>
        <time>2024-09-19T11:39:21Z</time>
      </trkpt>
      <trkpt lat="45.77954" lon="5.45243">
        <ele>223.6</ele>
        <time>2024-09-19T11:39:22Z</time>
      </trkpt>
      <trkpt lat="45.77951" lon="5.45245">
        <ele>223.6</ele>
        <time>2024-09-19T11:39:23Z</time>
      </trkpt>
      <trkpt lat="45.77948" lon="5.45247">
        <ele>223.6</ele>
        <time>2024-09-19T11:39:24Z</time>
      </trkpt>
      <trkpt lat="45.77945" lon="5.45249">
        <ele>224</ele>
        <time>2024-09-19T11:39:25Z</time>
      </trkpt>
      <trkpt lat="45.77942" lon="5.45252">
        <ele>224</ele>
        <time>2024-09-19T11:39:26Z</time>
      </trkpt>
      <trkpt lat="45.77938" lon="5.45254">
        <ele>224</ele>
        <time>2024-09-19T11:39:27Z</time>
      </trkpt>
      <trkpt lat="45.77935" lon="5.45256">
        <ele>224</ele>
        <time>2024-09-19T11:39:28Z</time>
      </trkpt>
      <trkpt lat="45.77931" lon="5.45259">
        <ele>224</ele>
        <time>2024-09-19T11:39:29Z</time>
      </trkpt>
      <trkpt lat="45.77928" lon="5.4526">
        <ele>224</ele>
        <time>2024-09-19T11:39:30Z</time>
      </trkpt>
      <trkpt lat="45.77924" lon="5.45262">
        <ele>224</ele>
        <time>2024-09-19T11:39:31Z</time>
      </trkpt>
      <trkpt lat="45.77921" lon="5.45264">
        <ele>224</ele>
        <time>2024-09-19T11:39:32Z</time>
      </trkpt>
      <trkpt lat="45.77918" lon="5.45265">
        <ele>224</ele>
        <time>2024-09-19T11:39:33Z</time>
      </trkpt>
      <trkpt lat="45.77914" lon="5.45267">
        <ele>224</ele>
        <time>2024-09-19T11:39:34Z</time>
      </trkpt>
      <trkpt lat="45.7791" lon="5.45269">
        <ele>224</ele>
        <time>2024-09-19T11:39:35Z</time>
      </trkpt>
      <trkpt lat="45.77906" lon="5.45271">
        <ele>224</ele>
        <time>2024-09-19T11:39:36Z</time>
      </trkpt>
      <trkpt lat="45.77903" lon="5.45274">
        <ele>224</ele>
        <time>2024-09-19T11:39:37Z</time>
      </trkpt>
      <trkpt lat="45.77899" lon="5.45276">
        <ele>223.6</ele>
        <time>2024-09-19T11:39:38Z</time>
      </trkpt>
      <trkpt lat="45.77895" lon="5.45278">
        <ele>223.6</ele>
        <time>2024-09-19T11:39:39Z</time>
      </trkpt>
      <trkpt lat="45.77891" lon="5.4528">
        <ele>223.6</ele>
        <time>2024-09-19T11:39:40Z</time>
      </trkpt>
      <trkpt lat="45.77887" lon="5.45282">
        <ele>223.6</ele>
        <time>2024-09-19T11:39:41Z</time>
      </trkpt>
      <trkpt lat="45.77883" lon="5.45285">
        <ele>223.6</ele>
        <time>2024-09-19T11:39:42Z</time>
      </trkpt>
      <trkpt lat="45.77879" lon="5.45286">
        <ele>223.6</ele>
        <time>2024-09-19T11:39:43Z</time>
      </trkpt>
      <trkpt lat="45.77875" lon="5.45288">
        <ele>223.6</ele>
        <time>2024-09-19T11:39:44Z</time>
      </trkpt>
      <trkpt lat="45.77872" lon="5.4529">
        <ele>223.6</ele>
        <time>2024-09-19T11:39:45Z</time>
      </trkpt>
      <trkpt lat="45.77868" lon="5.45292">
        <ele>223.6</ele>
        <time>2024-09-19T11:39:46Z</time>
      </trkpt>
      <trkpt lat="45.77864" lon="5.45294">
        <ele>223.6</ele>
        <time>2024-09-19T11:39:47Z</time>
      </trkpt>
      <trkpt lat="45.7786" lon="5.45296">
        <ele>223.4</ele>
        <time>2024-09-19T11:39:48Z</time>
      </trkpt>
      <trkpt lat="45.77857" lon="5.45298">
        <ele>223.4</ele>
        <time>2024-09-19T11:39:49Z</time>
      </trkpt>
      <trkpt lat="45.77853" lon="5.453">
        <ele>223.4</ele>
        <time>2024-09-19T11:39:50Z</time>
      </trkpt>
      <trkpt lat="45.7785" lon="5.45303">
        <ele>223.4</ele>
        <time>2024-09-19T11:39:51Z</time>
      </trkpt>
      <trkpt lat="45.77846" lon="5.45305">
        <ele>223.4</ele>
        <time>2024-09-19T11:39:52Z</time>
      </trkpt>
      <trkpt lat="45.77843" lon="5.45307">
        <ele>223.8</ele>
        <time>2024-09-19T11:39:53Z</time>
      </trkpt>
      <trkpt lat="45.7784" lon="5.45308">
        <ele>223.8</ele>
        <time>2024-09-19T11:39:54Z</time>
      </trkpt>
      <trkpt lat="45.77837" lon="5.4531">
        <ele>223.8</ele>
        <time>2024-09-19T11:39:55Z</time>
      </trkpt>
      <trkpt lat="45.77833" lon="5.45312">
        <ele>223.8</ele>
        <time>2024-09-19T11:39:56Z</time>
      </trkpt>
      <trkpt lat="45.7783" lon="5.45313">
        <ele>223.8</ele>
        <time>2024-09-19T11:39:57Z</time>
      </trkpt>
      <trkpt lat="45.77827" lon="5.45314">
        <ele>223.8</ele>
        <time>2024-09-19T11:39:58Z</time>
      </trkpt>
      <trkpt lat="45.77824" lon="5.45316">
        <ele>223.8</ele>
        <time>2024-09-19T11:39:59Z</time>
      </trkpt>
      <trkpt lat="45.77821" lon="5.45317">
        <ele>223.8</ele>
        <time>2024-09-19T11:40:00Z</time>
      </trkpt>
      <trkpt lat="45.77818" lon="5.45319">
        <ele>224</ele>
        <time>2024-09-19T11:40:01Z</time>
      </trkpt>
      <trkpt lat="45.77815" lon="5.4532">
        <ele>224</ele>
        <time>2024-09-19T11:40:02Z</time>
      </trkpt>
      <trkpt lat="45.77812" lon="5.45321">
        <ele>224</ele>
        <time>2024-09-19T11:40:03Z</time>
      </trkpt>
      <trkpt lat="45.7781" lon="5.45323">
        <ele>224.4</ele>
        <time>2024-09-19T11:40:04Z</time>
      </trkpt>
      <trkpt lat="45.77807" lon="5.45324">
        <ele>224.8</ele>
        <time>2024-09-19T11:40:05Z</time>
      </trkpt>
      <trkpt lat="45.77804" lon="5.45326">
        <ele>224.8</ele>
        <time>2024-09-19T11:40:06Z</time>
      </trkpt>
      <trkpt lat="45.77802" lon="5.45328">
        <ele>224.8</ele>
        <time>2024-09-19T11:40:07Z</time>
      </trkpt>
      <trkpt lat="45.77799" lon="5.45329">
        <ele>225.2</ele>
        <time>2024-09-19T11:40:08Z</time>
      </trkpt>
      <trkpt lat="45.77797" lon="5.4533">
        <ele>225.2</ele>
        <time>2024-09-19T11:40:09Z</time>
      </trkpt>
      <trkpt lat="45.77794" lon="5.45331">
        <ele>225.2</ele>
        <time>2024-09-19T11:40:10Z</time>
      </trkpt>
      <trkpt lat="45.77792" lon="5.45332">
        <ele>225.2</ele>
        <time>2024-09-19T11:40:11Z</time>
      </trkpt>
      <trkpt lat="45.77789" lon="5.45333">
        <ele>225.2</ele>
        <time>2024-09-19T11:40:12Z</time>
      </trkpt>
      <trkpt lat="45.77786" lon="5.45335">
        <ele>225.6</ele>
        <time>2024-09-19T11:40:13Z</time>
      </trkpt>
      <trkpt lat="45.77783" lon="5.45336">
        <ele>225.4</ele>
        <time>2024-09-19T11:40:14Z</time>
      </trkpt>
      <trkpt lat="45.7778" lon="5.45337">
        <ele>225.4</ele>
        <time>2024-09-19T11:40:15Z</time>
      </trkpt>
      <trkpt lat="45.77777" lon="5.45338">
        <ele>225.4</ele>
        <time>2024-09-19T11:40:16Z</time>
      </trkpt>
      <trkpt lat="45.77774" lon="5.45338">
        <ele>225.2</ele>
        <time>2024-09-19T11:40:17Z</time>
      </trkpt>
      <trkpt lat="45.77772" lon="5.45339">
        <ele>225.2</ele>
        <time>2024-09-19T11:40:18Z</time>
      </trkpt>
      <trkpt lat="45.7777" lon="5.45339">
        <ele>225.2</ele>
        <time>2024-09-19T11:40:19Z</time>
      </trkpt>
      <trkpt lat="45.77768" lon="5.45339">
        <ele>225.2</ele>
        <time>2024-09-19T11:40:20Z</time>
      </trkpt>
      <trkpt lat="45.77767" lon="5.45339">
        <ele>225.2</ele>
        <time>2024-09-19T11:40:21Z</time>
      </trkpt>
      <trkpt lat="45.77766" lon="5.45339">
        <ele>225.2</ele>
        <time>2024-09-19T11:40:22Z</time>
      </trkpt>
      <trkpt lat="45.77766" lon="5.45339">
        <ele>225.4</ele>
        <time>2024-09-19T11:40:23Z</time>
      </trkpt>
      <trkpt lat="45.77766" lon="5.4534">
        <ele>225.4</ele>
        <time>2024-09-19T11:40:24Z</time>
      </trkpt>
      <trkpt lat="45.77766" lon="5.4534">
        <ele>225.6</ele>
        <time>2024-09-19T11:40:25Z</time>
      </trkpt>
      <trkpt lat="45.77764" lon="5.45341">
        <ele>225.6</ele>
        <time>2024-09-19T11:40:57Z</time>
      </trkpt>
      <trkpt lat="45.77761" lon="5.45341">
        <ele>225.6</ele>
        <time>2024-09-19T11:40:58Z</time>
      </trkpt>
      <trkpt lat="45.77759" lon="5.45341">
        <ele>225.6</ele>
        <time>2024-09-19T11:40:59Z</time>
      </trkpt>
      <trkpt lat="45.77756" lon="5.45342">
        <ele>225.6</ele>
        <time>2024-09-19T11:41:00Z</time>
      </trkpt>
      <trkpt lat="45.77752" lon="5.45342">
        <ele>225.6</ele>
        <time>2024-09-19T11:41:01Z</time>
      </trkpt>
      <trkpt lat="45.77749" lon="5.45343">
        <ele>225.6</ele>
        <time>2024-09-19T11:41:02Z</time>
      </trkpt>
      <trkpt lat="45.77745" lon="5.45344">
        <ele>225.6</ele>
        <time>2024-09-19T11:41:03Z</time>
      </trkpt>
      <trkpt lat="45.77742" lon="5.45344">
        <ele>225.2</ele>
        <time>2024-09-19T11:41:04Z</time>
      </trkpt>
      <trkpt lat="45.77738" lon="5.45345">
        <ele>225.2</ele>
        <time>2024-09-19T11:41:05Z</time>
      </trkpt>
      <trkpt lat="45.77735" lon="5.45345">
        <ele>225.2</ele>
        <time>2024-09-19T11:41:06Z</time>
      </trkpt>
      <trkpt lat="45.77731" lon="5.45346">
        <ele>225.2</ele>
        <time>2024-09-19T11:41:07Z</time>
      </trkpt>
      <trkpt lat="45.77726" lon="5.45346">
        <ele>225.4</ele>
        <time>2024-09-19T11:41:08Z</time>
      </trkpt>
      <trkpt lat="45.77723" lon="5.45346">
        <ele>225.4</ele>
        <time>2024-09-19T11:41:09Z</time>
      </trkpt>
      <trkpt lat="45.77719" lon="5.45346">
        <ele>225.4</ele>
        <time>2024-09-19T11:41:10Z</time>
      </trkpt>
      <trkpt lat="45.77716" lon="5.45346">
        <ele>225.4</ele>
        <time>2024-09-19T11:41:11Z</time>
      </trkpt>
      <trkpt lat="45.77712" lon="5.45346">
        <ele>225.2</ele>
        <time>2024-09-19T11:41:12Z</time>
      </trkpt>
      <trkpt lat="45.77708" lon="5.45346">
        <ele>225.2</ele>
        <time>2024-09-19T11:41:13Z</time>
      </trkpt>
      <trkpt lat="45.77704" lon="5.45345">
        <ele>225.2</ele>
        <time>2024-09-19T11:41:14Z</time>
      </trkpt>
      <trkpt lat="45.777" lon="5.45344">
        <ele>225</ele>
        <time>2024-09-19T11:41:15Z</time>
      </trkpt>
      <trkpt lat="45.77696" lon="5.45343">
        <ele>225.2</ele>
        <time>2024-09-19T11:41:16Z</time>
      </trkpt>
      <trkpt lat="45.77692" lon="5.45342">
        <ele>225.2</ele>
        <time>2024-09-19T11:41:17Z</time>
      </trkpt>
      <trkpt lat="45.77688" lon="5.4534">
        <ele>225.6</ele>
        <time>2024-09-19T11:41:18Z</time>
      </trkpt>
      <trkpt lat="45.77683" lon="5.45334">
        <ele>225.2</ele>
        <time>2024-09-19T11:41:19Z</time>
      </trkpt>
      <trkpt lat="45.7768" lon="5.4533">
        <ele>225.2</ele>
        <time>2024-09-19T11:41:20Z</time>
      </trkpt>
      <trkpt lat="45.77676" lon="5.45326">
        <ele>225.2</ele>
        <time>2024-09-19T11:41:21Z</time>
      </trkpt>
      <trkpt lat="45.77674" lon="5.45322">
        <ele>225.6</ele>
        <time>2024-09-19T11:41:22Z</time>
      </trkpt>
      <trkpt lat="45.77671" lon="5.45318">
        <ele>225.4</ele>
        <time>2024-09-19T11:41:23Z</time>
      </trkpt>
      <trkpt lat="45.77669" lon="5.45314">
        <ele>225.4</ele>
        <time>2024-09-19T11:41:24Z</time>
      </trkpt>
      <trkpt lat="45.77667" lon="5.45308">
        <ele>224.2</ele>
        <time>2024-09-19T11:41:25Z</time>
      </trkpt>
      <trkpt lat="45.77664" lon="5.45303">
        <ele>224.2</ele>
        <time>2024-09-19T11:41:26Z</time>
      </trkpt>
      <trkpt lat="45.77665" lon="5.45298">
        <ele>224.6</ele>
        <time>2024-09-19T11:41:27Z</time>
      </trkpt>
      <trkpt lat="45.77662" lon="5.45293">
        <ele>224.6</ele>
        <time>2024-09-19T11:41:28Z</time>
      </trkpt>
      <trkpt lat="45.77661" lon="5.4529">
        <ele>225.2</ele>
        <time>2024-09-19T11:41:29Z</time>
      </trkpt>
      <trkpt lat="45.77661" lon="5.45286">
        <ele>225.2</ele>
        <time>2024-09-19T11:41:30Z</time>
      </trkpt>
      <trkpt lat="45.7766" lon="5.45282">
        <ele>225.4</ele>
        <time>2024-09-19T11:41:31Z</time>
      </trkpt>
      <trkpt lat="45.7766" lon="5.45278">
        <ele>225.2</ele>
        <time>2024-09-19T11:41:32Z</time>
      </trkpt>
      <trkpt lat="45.77659" lon="5.45274">
        <ele>225.6</ele>
        <time>2024-09-19T11:41:33Z</time>
      </trkpt>
      <trkpt lat="45.77658" lon="5.45271">
        <ele>225.6</ele>
        <time>2024-09-19T11:41:34Z</time>
      </trkpt>
      <trkpt lat="45.77658" lon="5.45267">
        <ele>225.4</ele>
        <time>2024-09-19T11:41:35Z</time>
      </trkpt>
      <trkpt lat="45.77657" lon="5.45262">
        <ele>225.4</ele>
        <time>2024-09-19T11:41:36Z</time>
      </trkpt>
      <trkpt lat="45.77657" lon="5.45259">
        <ele>226</ele>
        <time>2024-09-19T11:41:37Z</time>
      </trkpt>
      <trkpt lat="45.77657" lon="5.45255">
        <ele>225.8</ele>
        <time>2024-09-19T11:41:38Z</time>
      </trkpt>
      <trkpt lat="45.77658" lon="5.45251">
        <ele>225.8</ele>
        <time>2024-09-19T11:41:39Z</time>
      </trkpt>
      <trkpt lat="45.77658" lon="5.45247">
        <ele>226.2</ele>
        <time>2024-09-19T11:41:40Z</time>
      </trkpt>
      <trkpt lat="45.7766" lon="5.45243">
        <ele>226.4</ele>
        <time>2024-09-19T11:41:41Z</time>
      </trkpt>
      <trkpt lat="45.77661" lon="5.4524">
        <ele>226.6</ele>
        <time>2024-09-19T11:41:42Z</time>
      </trkpt>
      <trkpt lat="45.77663" lon="5.45237">
        <ele>227</ele>
        <time>2024-09-19T11:41:43Z</time>
      </trkpt>
      <trkpt lat="45.77665" lon="5.45234">
        <ele>227</ele>
        <time>2024-09-19T11:41:44Z</time>
      </trkpt>
      <trkpt lat="45.77667" lon="5.45231">
        <ele>227.4</ele>
        <time>2024-09-19T11:41:45Z</time>
      </trkpt>
      <trkpt lat="45.77669" lon="5.45228">
        <ele>227.6</ele>
        <time>2024-09-19T11:41:46Z</time>
      </trkpt>
      <trkpt lat="45.77671" lon="5.45225">
        <ele>228</ele>
        <time>2024-09-19T11:41:47Z</time>
      </trkpt>
      <trkpt lat="45.77673" lon="5.45222">
        <ele>228</ele>
        <time>2024-09-19T11:41:48Z</time>
      </trkpt>
      <trkpt lat="45.77675" lon="5.45219">
        <ele>228</ele>
        <time>2024-09-19T11:41:49Z</time>
      </trkpt>
      <trkpt lat="45.77677" lon="5.45216">
        <ele>228.2</ele>
        <time>2024-09-19T11:41:50Z</time>
      </trkpt>
      <trkpt lat="45.77679" lon="5.45213">
        <ele>228.2</ele>
        <time>2024-09-19T11:41:51Z</time>
      </trkpt>
      <trkpt lat="45.77681" lon="5.4521">
        <ele>228.6</ele>
        <time>2024-09-19T11:41:52Z</time>
      </trkpt>
      <trkpt lat="45.77683" lon="5.45207">
        <ele>228.6</ele>
        <time>2024-09-19T11:41:53Z</time>
      </trkpt>
      <trkpt lat="45.77685" lon="5.45204">
        <ele>228.8</ele>
        <time>2024-09-19T11:41:54Z</time>
      </trkpt>
      <trkpt lat="45.77687" lon="5.45202">
        <ele>228.8</ele>
        <time>2024-09-19T11:41:55Z</time>
      </trkpt>
      <trkpt lat="45.77688" lon="5.45199">
        <ele>228.8</ele>
        <time>2024-09-19T11:41:56Z</time>
      </trkpt>
      <trkpt lat="45.7769" lon="5.45196">
        <ele>229.2</ele>
        <time>2024-09-19T11:41:57Z</time>
      </trkpt>
      <trkpt lat="45.77692" lon="5.45192">
        <ele>229.2</ele>
        <time>2024-09-19T11:41:58Z</time>
      </trkpt>
      <trkpt lat="45.77693" lon="5.45189">
        <ele>229.2</ele>
        <time>2024-09-19T11:41:59Z</time>
      </trkpt>
      <trkpt lat="45.77695" lon="5.45186">
        <ele>229.2</ele>
        <time>2024-09-19T11:42:00Z</time>
      </trkpt>
      <trkpt lat="45.77697" lon="5.45183">
        <ele>229.4</ele>
        <time>2024-09-19T11:42:01Z</time>
      </trkpt>
      <trkpt lat="45.777" lon="5.4518">
        <ele>229.4</ele>
        <time>2024-09-19T11:42:02Z</time>
      </trkpt>
      <trkpt lat="45.77702" lon="5.45177">
        <ele>229.4</ele>
        <time>2024-09-19T11:42:03Z</time>
      </trkpt>
      <trkpt lat="45.77704" lon="5.45174">
        <ele>229.4</ele>
        <time>2024-09-19T11:42:04Z</time>
      </trkpt>
      <trkpt lat="45.77706" lon="5.45171">
        <ele>229.8</ele>
        <time>2024-09-19T11:42:05Z</time>
      </trkpt>
      <trkpt lat="45.77708" lon="5.45168">
        <ele>229.8</ele>
        <time>2024-09-19T11:42:06Z</time>
      </trkpt>
      <trkpt lat="45.7771" lon="5.45165">
        <ele>230</ele>
        <time>2024-09-19T11:42:07Z</time>
      </trkpt>
      <trkpt lat="45.77711" lon="5.45163">
        <ele>230</ele>
        <time>2024-09-19T11:42:08Z</time>
      </trkpt>
      <trkpt lat="45.77712" lon="5.45161">
        <ele>230.2</ele>
        <time>2024-09-19T11:42:09Z</time>
      </trkpt>
      <trkpt lat="45.77713" lon="5.4516">
        <ele>230.2</ele>
        <time>2024-09-19T11:42:10Z</time>
      </trkpt>
      <trkpt lat="45.77713" lon="5.45159">
        <ele>230.2</ele>
        <time>2024-09-19T11:42:11Z</time>
      </trkpt>
      <trkpt lat="45.77713" lon="5.45158">
        <ele>230.2</ele>
        <time>2024-09-19T11:42:12Z</time>
      </trkpt>
      <trkpt lat="45.77713" lon="5.45158">
        <ele>230.4</ele>
        <time>2024-09-19T11:42:13Z</time>
      </trkpt>
      <trkpt lat="45.77713" lon="5.45157">
        <ele>230.4</ele>
        <time>2024-09-19T11:42:14Z</time>
      </trkpt>
      <trkpt lat="45.77713" lon="5.45155">
        <ele>230.4</ele>
        <time>2024-09-19T11:42:15Z</time>
      </trkpt>
      <trkpt lat="45.77713" lon="5.45153">
        <ele>230.4</ele>
        <time>2024-09-19T11:42:16Z</time>
      </trkpt>
      <trkpt lat="45.77713" lon="5.45151">
        <ele>230</ele>
        <time>2024-09-19T11:42:17Z</time>
      </trkpt>
      <trkpt lat="45.77714" lon="5.45149">
        <ele>230.6</ele>
        <time>2024-09-19T11:42:18Z</time>
      </trkpt>
      <trkpt lat="45.77716" lon="5.45148">
        <ele>230.6</ele>
        <time>2024-09-19T11:42:19Z</time>
      </trkpt>
      <trkpt lat="45.77718" lon="5.45147">
        <ele>230.6</ele>
        <time>2024-09-19T11:42:20Z</time>
      </trkpt>
      <trkpt lat="45.7772" lon="5.45146">
        <ele>230.8</ele>
        <time>2024-09-19T11:42:21Z</time>
      </trkpt>
      <trkpt lat="45.77722" lon="5.45145">
        <ele>230.6</ele>
        <time>2024-09-19T11:42:22Z</time>
      </trkpt>
      <trkpt lat="45.77723" lon="5.45143">
        <ele>230.8</ele>
        <time>2024-09-19T11:42:23Z</time>
      </trkpt>
      <trkpt lat="45.77724" lon="5.45141">
        <ele>230.8</ele>
        <time>2024-09-19T11:42:24Z</time>
      </trkpt>
      <trkpt lat="45.77726" lon="5.45139">
        <ele>230.8</ele>
        <time>2024-09-19T11:42:25Z</time>
      </trkpt>
      <trkpt lat="45.77727" lon="5.45137">
        <ele>230.8</ele>
        <time>2024-09-19T11:42:26Z</time>
      </trkpt>
      <trkpt lat="45.77731" lon="5.45131">
        <ele>230.8</ele>
        <time>2024-09-19T11:42:27Z</time>
      </trkpt>
      <trkpt lat="45.77733" lon="5.45128">
        <ele>230.8</ele>
        <time>2024-09-19T11:42:28Z</time>
      </trkpt>
      <trkpt lat="45.77734" lon="5.45126">
        <ele>230.8</ele>
        <time>2024-09-19T11:42:29Z</time>
      </trkpt>
      <trkpt lat="45.77736" lon="5.45124">
        <ele>230.8</ele>
        <time>2024-09-19T11:42:30Z</time>
      </trkpt>
      <trkpt lat="45.77738" lon="5.45121">
        <ele>230.8</ele>
        <time>2024-09-19T11:42:31Z</time>
      </trkpt>
      <trkpt lat="45.7774" lon="5.45118">
        <ele>230.8</ele>
        <time>2024-09-19T11:42:32Z</time>
      </trkpt>
      <trkpt lat="45.77742" lon="5.45115">
        <ele>230.8</ele>
        <time>2024-09-19T11:42:33Z</time>
      </trkpt>
      <trkpt lat="45.77743" lon="5.45112">
        <ele>230.8</ele>
        <time>2024-09-19T11:42:34Z</time>
      </trkpt>
      <trkpt lat="45.77744" lon="5.45109">
        <ele>230.8</ele>
        <time>2024-09-19T11:42:35Z</time>
      </trkpt>
      <trkpt lat="45.77744" lon="5.45106">
        <ele>230.8</ele>
        <time>2024-09-19T11:42:36Z</time>
      </trkpt>
      <trkpt lat="45.77744" lon="5.45104">
        <ele>230.8</ele>
        <time>2024-09-19T11:42:37Z</time>
      </trkpt>
      <trkpt lat="45.77744" lon="5.45102">
        <ele>230.8</ele>
        <time>2024-09-19T11:42:38Z</time>
      </trkpt>
      <trkpt lat="45.77743" lon="5.451">
        <ele>230.8</ele>
        <time>2024-09-19T11:42:39Z</time>
      </trkpt>
      <trkpt lat="45.77743" lon="5.45098">
        <ele>230.8</ele>
        <time>2024-09-19T11:42:40Z</time>
      </trkpt>
      <trkpt lat="45.77743" lon="5.45097">
        <ele>230.8</ele>
        <time>2024-09-19T11:42:41Z</time>
      </trkpt>
      <trkpt lat="45.77743" lon="5.45095">
        <ele>230.6</ele>
        <time>2024-09-19T11:42:42Z</time>
      </trkpt>
      <trkpt lat="45.77742" lon="5.45095">
        <ele>230.6</ele>
        <time>2024-09-19T11:42:43Z</time>
      </trkpt>
      <trkpt lat="45.77742" lon="5.45095">
        <ele>230.6</ele>
        <time>2024-09-19T11:42:44Z</time>
      </trkpt>
      <trkpt lat="45.77742" lon="5.45095">
        <ele>230.6</ele>
        <time>2024-09-19T11:42:45Z</time>
      </trkpt>
      <trkpt lat="45.77741" lon="5.45091">
        <ele>230.4</ele>
        <time>2024-09-19T11:42:52Z</time>
      </trkpt>
      <trkpt lat="45.7774" lon="5.45088">
        <ele>230.4</ele>
        <time>2024-09-19T11:42:53Z</time>
      </trkpt>
      <trkpt lat="45.77738" lon="5.45086">
        <ele>230.4</ele>
        <time>2024-09-19T11:42:54Z</time>
      </trkpt>
      <trkpt lat="45.77734" lon="5.45084">
        <ele>230.2</ele>
        <time>2024-09-19T11:42:55Z</time>
      </trkpt>
      <trkpt lat="45.77731" lon="5.45083">
        <ele>230.2</ele>
        <time>2024-09-19T11:42:56Z</time>
      </trkpt>
      <trkpt lat="45.77726" lon="5.45089">
        <ele>230.2</ele>
        <time>2024-09-19T11:42:57Z</time>
      </trkpt>
      <trkpt lat="45.77722" lon="5.45091">
        <ele>229.8</ele>
        <time>2024-09-19T11:42:58Z</time>
      </trkpt>
      <trkpt lat="45.77718" lon="5.45093">
        <ele>229.8</ele>
        <time>2024-09-19T11:42:59Z</time>
      </trkpt>
      <trkpt lat="45.77713" lon="5.45096">
        <ele>229.6</ele>
        <time>2024-09-19T11:43:00Z</time>
      </trkpt>
      <trkpt lat="45.77708" lon="5.45098">
        <ele>229.6</ele>
        <time>2024-09-19T11:43:01Z</time>
      </trkpt>
      <trkpt lat="45.77703" lon="5.451">
        <ele>229.2</ele>
        <time>2024-09-19T11:43:02Z</time>
      </trkpt>
      <trkpt lat="45.77698" lon="5.45101">
        <ele>228.8</ele>
        <time>2024-09-19T11:43:03Z</time>
      </trkpt>
      <trkpt lat="45.77692" lon="5.45103">
        <ele>228.4</ele>
        <time>2024-09-19T11:43:04Z</time>
      </trkpt>
      <trkpt lat="45.77687" lon="5.45104">
        <ele>228.4</ele>
        <time>2024-09-19T11:43:05Z</time>
      </trkpt>
      <trkpt lat="45.77681" lon="5.45106">
        <ele>228.4</ele>
        <time>2024-09-19T11:43:06Z</time>
      </trkpt>
      <trkpt lat="45.77675" lon="5.45106">
        <ele>228.4</ele>
        <time>2024-09-19T11:43:07Z</time>
      </trkpt>
      <trkpt lat="45.77669" lon="5.45108">
        <ele>228</ele>
        <time>2024-09-19T11:43:08Z</time>
      </trkpt>
      <trkpt lat="45.77663" lon="5.45109">
        <ele>227.6</ele>
        <time>2024-09-19T11:43:09Z</time>
      </trkpt>
      <trkpt lat="45.77656" lon="5.4511">
        <ele>227.4</ele>
        <time>2024-09-19T11:43:10Z</time>
      </trkpt>
      <trkpt lat="45.7765" lon="5.4511">
        <ele>227</ele>
        <time>2024-09-19T11:43:11Z</time>
      </trkpt>
      <trkpt lat="45.77644" lon="5.45111">
        <ele>227</ele>
        <time>2024-09-19T11:43:12Z</time>
      </trkpt>
      <trkpt lat="45.77638" lon="5.45112">
        <ele>227</ele>
        <time>2024-09-19T11:43:13Z</time>
      </trkpt>
      <trkpt lat="45.77632" lon="5.45113">
        <ele>226.6</ele>
        <time>2024-09-19T11:43:14Z</time>
      </trkpt>
      <trkpt lat="45.77627" lon="5.45113">
        <ele>226.6</ele>
        <time>2024-09-19T11:43:15Z</time>
      </trkpt>
      <trkpt lat="45.77623" lon="5.45112">
        <ele>227</ele>
        <time>2024-09-19T11:43:16Z</time>
      </trkpt>
      <trkpt lat="45.77619" lon="5.45111">
        <ele>227</ele>
        <time>2024-09-19T11:43:17Z</time>
      </trkpt>
      <trkpt lat="45.77616" lon="5.45108">
        <ele>227.8</ele>
        <time>2024-09-19T11:43:18Z</time>
      </trkpt>
      <trkpt lat="45.77617" lon="5.45103">
        <ele>227.6</ele>
        <time>2024-09-19T11:43:19Z</time>
      </trkpt>
      <trkpt lat="45.77616" lon="5.45098">
        <ele>227.6</ele>
        <time>2024-09-19T11:43:20Z</time>
      </trkpt>
      <trkpt lat="45.77614" lon="5.45095">
        <ele>227.6</ele>
        <time>2024-09-19T11:43:21Z</time>
      </trkpt>
      <trkpt lat="45.77612" lon="5.45093">
        <ele>227.6</ele>
        <time>2024-09-19T11:43:22Z</time>
      </trkpt>
      <trkpt lat="45.77609" lon="5.45092">
        <ele>226.8</ele>
        <time>2024-09-19T11:43:23Z</time>
      </trkpt>
      <trkpt lat="45.77606" lon="5.45091">
        <ele>226.8</ele>
        <time>2024-09-19T11:43:24Z</time>
      </trkpt>
      <trkpt lat="45.77604" lon="5.45092">
        <ele>226.8</ele>
        <time>2024-09-19T11:43:25Z</time>
      </trkpt>
      <trkpt lat="45.77603" lon="5.45092">
        <ele>226.8</ele>
        <time>2024-09-19T11:43:26Z</time>
      </trkpt>
      <trkpt lat="45.77602" lon="5.45092">
        <ele>226.8</ele>
        <time>2024-09-19T11:43:27Z</time>
      </trkpt>
      <trkpt lat="45.77602" lon="5.45092">
        <ele>226.8</ele>
        <time>2024-09-19T11:43:28Z</time>
      </trkpt>
      <trkpt lat="45.77603" lon="5.45093">
        <ele>227.2</ele>
        <time>2024-09-19T11:43:29Z</time>
      </trkpt>
      <trkpt lat="45.77601" lon="5.45094">
        <ele>227.4</ele>
        <time>2024-09-19T11:44:10Z</time>
      </trkpt>
      <trkpt lat="45.776" lon="5.45094">
        <ele>227.4</ele>
        <time>2024-09-19T11:44:11Z</time>
      </trkpt>
      <trkpt lat="45.77598" lon="5.45094">
        <ele>227.4</ele>
        <time>2024-09-19T11:44:12Z</time>
      </trkpt>
      <trkpt lat="45.77597" lon="5.45095">
        <ele>226.8</ele>
        <time>2024-09-19T11:44:13Z</time>
      </trkpt>
      <trkpt lat="45.77594" lon="5.45095">
        <ele>227.2</ele>
        <time>2024-09-19T11:44:14Z</time>
      </trkpt>
      <trkpt lat="45.77592" lon="5.45096">
        <ele>227.2</ele>
        <time>2024-09-19T11:44:15Z</time>
      </trkpt>
      <trkpt lat="45.77589" lon="5.45096">
        <ele>227.2</ele>
        <time>2024-09-19T11:44:16Z</time>
      </trkpt>
      <trkpt lat="45.77585" lon="5.45097">
        <ele>227.2</ele>
        <time>2024-09-19T11:44:17Z</time>
      </trkpt>
      <trkpt lat="45.77581" lon="5.45097">
        <ele>227.2</ele>
        <time>2024-09-19T11:44:18Z</time>
      </trkpt>
      <trkpt lat="45.77577" lon="5.45098">
        <ele>227.2</ele>
        <time>2024-09-19T11:44:19Z</time>
      </trkpt>
      <trkpt lat="45.77573" lon="5.45098">
        <ele>227.2</ele>
        <time>2024-09-19T11:44:20Z</time>
      </trkpt>
      <trkpt lat="45.77569" lon="5.45099">
        <ele>227.2</ele>
        <time>2024-09-19T11:44:21Z</time>
      </trkpt>
      <trkpt lat="45.77566" lon="5.45099">
        <ele>227.2</ele>
        <time>2024-09-19T11:44:22Z</time>
      </trkpt>
      <trkpt lat="45.77563" lon="5.451">
        <ele>227.2</ele>
        <time>2024-09-19T11:44:23Z</time>
      </trkpt>
      <trkpt lat="45.7756" lon="5.45101">
        <ele>227.2</ele>
        <time>2024-09-19T11:44:24Z</time>
      </trkpt>
      <trkpt lat="45.77556" lon="5.45102">
        <ele>227.4</ele>
        <time>2024-09-19T11:44:25Z</time>
      </trkpt>
      <trkpt lat="45.7755" lon="5.45103">
        <ele>227.8</ele>
        <time>2024-09-19T11:44:26Z</time>
      </trkpt>
      <trkpt lat="45.77546" lon="5.45103">
        <ele>227.8</ele>
        <time>2024-09-19T11:44:27Z</time>
      </trkpt>
      <trkpt lat="45.77542" lon="5.45104">
        <ele>227.4</ele>
        <time>2024-09-19T11:44:28Z</time>
      </trkpt>
      <trkpt lat="45.77537" lon="5.45105">
        <ele>227.4</ele>
        <time>2024-09-19T11:44:29Z</time>
      </trkpt>
      <trkpt lat="45.77534" lon="5.45106">
        <ele>227.4</ele>
        <time>2024-09-19T11:44:30Z</time>
      </trkpt>
      <trkpt lat="45.77529" lon="5.45105">
        <ele>226.4</ele>
        <time>2024-09-19T11:44:31Z</time>
      </trkpt>
      <trkpt lat="45.77524" lon="5.45105">
        <ele>226.8</ele>
        <time>2024-09-19T11:44:32Z</time>
      </trkpt>
      <trkpt lat="45.77519" lon="5.45106">
        <ele>227.2</ele>
        <time>2024-09-19T11:44:33Z</time>
      </trkpt>
      <trkpt lat="45.77517" lon="5.45107">
        <ele>227.2</ele>
        <time>2024-09-19T11:44:34Z</time>
      </trkpt>
      <trkpt lat="45.77515" lon="5.45107">
        <ele>227.6</ele>
        <time>2024-09-19T11:44:35Z</time>
      </trkpt>
      <trkpt lat="45.77513" lon="5.45108">
        <ele>227.6</ele>
        <time>2024-09-19T11:44:36Z</time>
      </trkpt>
      <trkpt lat="45.77511" lon="5.4511">
        <ele>228</ele>
        <time>2024-09-19T11:44:37Z</time>
      </trkpt>
      <trkpt lat="45.77509" lon="5.4511">
        <ele>228.2</ele>
        <time>2024-09-19T11:44:38Z</time>
      </trkpt>
      <trkpt lat="45.77507" lon="5.45111">
        <ele>228.2</ele>
        <time>2024-09-19T11:44:39Z</time>
      </trkpt>
      <trkpt lat="45.77505" lon="5.45111">
        <ele>228.6</ele>
        <time>2024-09-19T11:44:40Z</time>
      </trkpt>
      <trkpt lat="45.77505" lon="5.45111">
        <ele>228.6</ele>
        <time>2024-09-19T11:44:41Z</time>
      </trkpt>
      <trkpt lat="45.77503" lon="5.45113">
        <ele>228.6</ele>
        <time>2024-09-19T11:44:42Z</time>
      </trkpt>
      <trkpt lat="45.77501" lon="5.45112">
        <ele>228.6</ele>
        <time>2024-09-19T11:44:43Z</time>
      </trkpt>
      <trkpt lat="45.77499" lon="5.4511">
        <ele>228.8</ele>
        <time>2024-09-19T11:44:44Z</time>
      </trkpt>
      <trkpt lat="45.77498" lon="5.45109">
        <ele>229.2</ele>
        <time>2024-09-19T11:44:45Z</time>
      </trkpt>
      <trkpt lat="45.77497" lon="5.45107">
        <ele>229.6</ele>
        <time>2024-09-19T11:44:46Z</time>
      </trkpt>
      <trkpt lat="45.77497" lon="5.45104">
        <ele>229.8</ele>
        <time>2024-09-19T11:44:47Z</time>
      </trkpt>
      <trkpt lat="45.77497" lon="5.45101">
        <ele>229.8</ele>
        <time>2024-09-19T11:44:48Z</time>
      </trkpt>
      <trkpt lat="45.77497" lon="5.45099">
        <ele>229.8</ele>
        <time>2024-09-19T11:44:49Z</time>
      </trkpt>
      <trkpt lat="45.77497" lon="5.45098">
        <ele>230</ele>
        <time>2024-09-19T11:44:50Z</time>
      </trkpt>
      <trkpt lat="45.77497" lon="5.45098">
        <ele>230</ele>
        <time>2024-09-19T11:44:51Z</time>
      </trkpt>
      <trkpt lat="45.77497" lon="5.45098">
        <ele>229.8</ele>
        <time>2024-09-19T11:44:52Z</time>
      </trkpt>
      <trkpt lat="45.77498" lon="5.45093">
        <ele>229.8</ele>
        <time>2024-09-19T11:44:55Z</time>
      </trkpt>
      <trkpt lat="45.775" lon="5.4509">
        <ele>229.6</ele>
        <time>2024-09-19T11:44:56Z</time>
      </trkpt>
      <trkpt lat="45.77501" lon="5.45086">
        <ele>229.4</ele>
        <time>2024-09-19T11:44:57Z</time>
      </trkpt>
      <trkpt lat="45.77503" lon="5.45082">
        <ele>229</ele>
        <time>2024-09-19T11:44:58Z</time>
      </trkpt>
      <trkpt lat="45.77505" lon="5.45078">
        <ele>229</ele>
        <time>2024-09-19T11:44:59Z</time>
      </trkpt>
      <trkpt lat="45.77507" lon="5.45073">
        <ele>228.4</ele>
        <time>2024-09-19T11:45:00Z</time>
      </trkpt>
      <trkpt lat="45.77508" lon="5.45069">
        <ele>228.4</ele>
        <time>2024-09-19T11:45:01Z</time>
      </trkpt>
      <trkpt lat="45.77509" lon="5.45065">
        <ele>228.6</ele>
        <time>2024-09-19T11:45:02Z</time>
      </trkpt>
      <trkpt lat="45.7751" lon="5.45061">
        <ele>228.6</ele>
        <time>2024-09-19T11:45:03Z</time>
      </trkpt>
      <trkpt lat="45.77511" lon="5.45056">
        <ele>228.4</ele>
        <time>2024-09-19T11:45:04Z</time>
      </trkpt>
      <trkpt lat="45.77512" lon="5.45053">
        <ele>228.4</ele>
        <time>2024-09-19T11:45:05Z</time>
      </trkpt>
      <trkpt lat="45.77513" lon="5.45049">
        <ele>228.4</ele>
        <time>2024-09-19T11:45:06Z</time>
      </trkpt>
      <trkpt lat="45.77514" lon="5.45044">
        <ele>228.4</ele>
        <time>2024-09-19T11:45:07Z</time>
      </trkpt>
      <trkpt lat="45.77515" lon="5.4504">
        <ele>228.4</ele>
        <time>2024-09-19T11:45:08Z</time>
      </trkpt>
      <trkpt lat="45.77516" lon="5.45035">
        <ele>228.6</ele>
        <time>2024-09-19T11:45:09Z</time>
      </trkpt>
      <trkpt lat="45.77517" lon="5.4503">
        <ele>228.6</ele>
        <time>2024-09-19T11:45:10Z</time>
      </trkpt>
      <trkpt lat="45.77517" lon="5.45025">
        <ele>228.6</ele>
        <time>2024-09-19T11:45:11Z</time>
      </trkpt>
      <trkpt lat="45.77518" lon="5.45021">
        <ele>228.6</ele>
        <time>2024-09-19T11:45:12Z</time>
      </trkpt>
      <trkpt lat="45.77519" lon="5.45016">
        <ele>228.8</ele>
        <time>2024-09-19T11:45:13Z</time>
      </trkpt>
      <trkpt lat="45.7752" lon="5.45011">
        <ele>228.8</ele>
        <time>2024-09-19T11:45:14Z</time>
      </trkpt>
      <trkpt lat="45.77521" lon="5.45007">
        <ele>228.8</ele>
        <time>2024-09-19T11:45:15Z</time>
      </trkpt>
      <trkpt lat="45.77522" lon="5.45003">
        <ele>228.8</ele>
        <time>2024-09-19T11:45:16Z</time>
      </trkpt>
      <trkpt lat="45.77523" lon="5.44998">
        <ele>228.6</ele>
        <time>2024-09-19T11:45:17Z</time>
      </trkpt>
      <trkpt lat="45.77525" lon="5.44993">
        <ele>228.6</ele>
        <time>2024-09-19T11:45:18Z</time>
      </trkpt>
      <trkpt lat="45.77526" lon="5.44988">
        <ele>228.6</ele>
        <time>2024-09-19T11:45:19Z</time>
      </trkpt>
      <trkpt lat="45.77527" lon="5.44983">
        <ele>228.2</ele>
        <time>2024-09-19T11:45:20Z</time>
      </trkpt>
      <trkpt lat="45.77527" lon="5.44978">
        <ele>228.2</ele>
        <time>2024-09-19T11:45:21Z</time>
      </trkpt>
      <trkpt lat="45.77527" lon="5.44973">
        <ele>228.4</ele>
        <time>2024-09-19T11:45:22Z</time>
      </trkpt>
      <trkpt lat="45.77527" lon="5.44968">
        <ele>228.4</ele>
        <time>2024-09-19T11:45:23Z</time>
      </trkpt>
      <trkpt lat="45.77527" lon="5.44962">
        <ele>228.6</ele>
        <time>2024-09-19T11:45:24Z</time>
      </trkpt>
      <trkpt lat="45.77527" lon="5.44958">
        <ele>228.8</ele>
        <time>2024-09-19T11:45:25Z</time>
      </trkpt>
      <trkpt lat="45.77528" lon="5.44952">
        <ele>228.8</ele>
        <time>2024-09-19T11:45:26Z</time>
      </trkpt>
      <trkpt lat="45.77529" lon="5.44946">
        <ele>228.8</ele>
        <time>2024-09-19T11:45:27Z</time>
      </trkpt>
      <trkpt lat="45.7753" lon="5.4494">
        <ele>228.4</ele>
        <time>2024-09-19T11:45:28Z</time>
      </trkpt>
      <trkpt lat="45.7753" lon="5.44935">
        <ele>228.2</ele>
        <time>2024-09-19T11:45:29Z</time>
      </trkpt>
      <trkpt lat="45.77531" lon="5.44931">
        <ele>228.2</ele>
        <time>2024-09-19T11:45:30Z</time>
      </trkpt>
      <trkpt lat="45.77531" lon="5.44931">
        <ele>228.2</ele>
        <time>2024-09-19T11:45:31Z</time>
      </trkpt>
      <trkpt lat="45.77531" lon="5.44927">
        <ele>228.6</ele>
        <time>2024-09-19T11:45:32Z</time>
      </trkpt>
      <trkpt lat="45.77531" lon="5.44924">
        <ele>228.6</ele>
        <time>2024-09-19T11:45:33Z</time>
      </trkpt>
      <trkpt lat="45.7753" lon="5.44922">
        <ele>228.6</ele>
        <time>2024-09-19T11:45:34Z</time>
      </trkpt>
      <trkpt lat="45.77529" lon="5.44918">
        <ele>228.6</ele>
        <time>2024-09-19T11:45:35Z</time>
      </trkpt>
      <trkpt lat="45.77529" lon="5.44914">
        <ele>228.6</ele>
        <time>2024-09-19T11:45:36Z</time>
      </trkpt>
      <trkpt lat="45.77529" lon="5.4491">
        <ele>228.2</ele>
        <time>2024-09-19T11:45:37Z</time>
      </trkpt>
      <trkpt lat="45.77529" lon="5.44907">
        <ele>228.2</ele>
        <time>2024-09-19T11:45:38Z</time>
      </trkpt>
      <trkpt lat="45.7753" lon="5.44903">
        <ele>228.2</ele>
        <time>2024-09-19T11:45:39Z</time>
      </trkpt>
      <trkpt lat="45.77531" lon="5.44897">
        <ele>228.4</ele>
        <time>2024-09-19T11:45:40Z</time>
      </trkpt>
      <trkpt lat="45.77531" lon="5.44892">
        <ele>228.4</ele>
        <time>2024-09-19T11:45:41Z</time>
      </trkpt>
      <trkpt lat="45.77531" lon="5.44886">
        <ele>228.4</ele>
        <time>2024-09-19T11:45:42Z</time>
      </trkpt>
      <trkpt lat="45.77531" lon="5.44874">
        <ele>228.4</ele>
        <time>2024-09-19T11:45:43Z</time>
      </trkpt>
      <trkpt lat="45.77532" lon="5.44868">
        <ele>228</ele>
        <time>2024-09-19T11:45:44Z</time>
      </trkpt>
      <trkpt lat="45.77532" lon="5.44862">
        <ele>227.8</ele>
        <time>2024-09-19T11:45:45Z</time>
      </trkpt>
      <trkpt lat="45.77532" lon="5.44858">
        <ele>227.8</ele>
        <time>2024-09-19T11:45:46Z</time>
      </trkpt>
      <trkpt lat="45.77532" lon="5.44853">
        <ele>228.2</ele>
        <time>2024-09-19T11:45:47Z</time>
      </trkpt>
      <trkpt lat="45.77532" lon="5.44847">
        <ele>228.2</ele>
        <time>2024-09-19T11:45:48Z</time>
      </trkpt>
      <trkpt lat="45.77532" lon="5.44843">
        <ele>228</ele>
        <time>2024-09-19T11:45:49Z</time>
      </trkpt>
      <trkpt lat="45.77532" lon="5.44838">
        <ele>228</ele>
        <time>2024-09-19T11:45:50Z</time>
      </trkpt>
      <trkpt lat="45.77533" lon="5.44833">
        <ele>228</ele>
        <time>2024-09-19T11:45:51Z</time>
      </trkpt>
      <trkpt lat="45.77534" lon="5.44827">
        <ele>228</ele>
        <time>2024-09-19T11:45:52Z</time>
      </trkpt>
      <trkpt lat="45.77534" lon="5.44821">
        <ele>227.8</ele>
        <time>2024-09-19T11:45:53Z</time>
      </trkpt>
      <trkpt lat="45.77534" lon="5.44817">
        <ele>227.8</ele>
        <time>2024-09-19T11:45:54Z</time>
      </trkpt>
      <trkpt lat="45.77534" lon="5.44814">
        <ele>228.2</ele>
        <time>2024-09-19T11:45:55Z</time>
      </trkpt>
      <trkpt lat="45.77534" lon="5.44809">
        <ele>228.2</ele>
        <time>2024-09-19T11:45:56Z</time>
      </trkpt>
      <trkpt lat="45.77534" lon="5.44804">
        <ele>228</ele>
        <time>2024-09-19T11:45:57Z</time>
      </trkpt>
      <trkpt lat="45.77534" lon="5.448">
        <ele>228</ele>
        <time>2024-09-19T11:45:58Z</time>
      </trkpt>
      <trkpt lat="45.77534" lon="5.44796">
        <ele>228</ele>
        <time>2024-09-19T11:45:59Z</time>
      </trkpt>
      <trkpt lat="45.77533" lon="5.44792">
        <ele>228.2</ele>
        <time>2024-09-19T11:46:00Z</time>
      </trkpt>
      <trkpt lat="45.77533" lon="5.44789">
        <ele>228.2</ele>
        <time>2024-09-19T11:46:01Z</time>
      </trkpt>
      <trkpt lat="45.77533" lon="5.44786">
        <ele>228.2</ele>
        <time>2024-09-19T11:46:02Z</time>
      </trkpt>
      <trkpt lat="45.77533" lon="5.44785">
        <ele>228.6</ele>
        <time>2024-09-19T11:46:03Z</time>
      </trkpt>
      <trkpt lat="45.77533" lon="5.44785">
        <ele>228.6</ele>
        <time>2024-09-19T11:46:04Z</time>
      </trkpt>
      <trkpt lat="45.77534" lon="5.44784">
        <ele>228.6</ele>
        <time>2024-09-19T11:46:05Z</time>
      </trkpt>
      <trkpt lat="45.77534" lon="5.44783">
        <ele>228.8</ele>
        <time>2024-09-19T11:46:06Z</time>
      </trkpt>
      <trkpt lat="45.77534" lon="5.44782">
        <ele>228.8</ele>
        <time>2024-09-19T11:46:07Z</time>
      </trkpt>
      <trkpt lat="45.77534" lon="5.44781">
        <ele>228.8</ele>
        <time>2024-09-19T11:46:08Z</time>
      </trkpt>
      <trkpt lat="45.77534" lon="5.44779">
        <ele>228.4</ele>
        <time>2024-09-19T11:46:09Z</time>
      </trkpt>
      <trkpt lat="45.77534" lon="5.44777">
        <ele>228.4</ele>
        <time>2024-09-19T11:46:10Z</time>
      </trkpt>
      <trkpt lat="45.77533" lon="5.44773">
        <ele>228.2</ele>
        <time>2024-09-19T11:46:11Z</time>
      </trkpt>
      <trkpt lat="45.77532" lon="5.44769">
        <ele>228.2</ele>
        <time>2024-09-19T11:46:12Z</time>
      </trkpt>
      <trkpt lat="45.77531" lon="5.44765">
        <ele>228.2</ele>
        <time>2024-09-19T11:46:13Z</time>
      </trkpt>
      <trkpt lat="45.7753" lon="5.4476">
        <ele>228.2</ele>
        <time>2024-09-19T11:46:14Z</time>
      </trkpt>
      <trkpt lat="45.77529" lon="5.44755">
        <ele>227.8</ele>
        <time>2024-09-19T11:46:15Z</time>
      </trkpt>
      <trkpt lat="45.77528" lon="5.4475">
        <ele>227.8</ele>
        <time>2024-09-19T11:46:16Z</time>
      </trkpt>
      <trkpt lat="45.77527" lon="5.44746">
        <ele>227.8</ele>
        <time>2024-09-19T11:46:17Z</time>
      </trkpt>
      <trkpt lat="45.77526" lon="5.44742">
        <ele>227.8</ele>
        <time>2024-09-19T11:46:18Z</time>
      </trkpt>
      <trkpt lat="45.77524" lon="5.44737">
        <ele>228</ele>
        <time>2024-09-19T11:46:19Z</time>
      </trkpt>
      <trkpt lat="45.77523" lon="5.44732">
        <ele>228</ele>
        <time>2024-09-19T11:46:20Z</time>
      </trkpt>
      <trkpt lat="45.77523" lon="5.44728">
        <ele>228</ele>
        <time>2024-09-19T11:46:21Z</time>
      </trkpt>
      <trkpt lat="45.77521" lon="5.44723">
        <ele>228</ele>
        <time>2024-09-19T11:46:22Z</time>
      </trkpt>
      <trkpt lat="45.77519" lon="5.44718">
        <ele>227.6</ele>
        <time>2024-09-19T11:46:23Z</time>
      </trkpt>
      <trkpt lat="45.77518" lon="5.44714">
        <ele>227.8</ele>
        <time>2024-09-19T11:46:24Z</time>
      </trkpt>
      <trkpt lat="45.77517" lon="5.44709">
        <ele>227.8</ele>
        <time>2024-09-19T11:46:25Z</time>
      </trkpt>
      <trkpt lat="45.77516" lon="5.44704">
        <ele>227.8</ele>
        <time>2024-09-19T11:46:26Z</time>
      </trkpt>
      <trkpt lat="45.77514" lon="5.44699">
        <ele>228</ele>
        <time>2024-09-19T11:46:27Z</time>
      </trkpt>
      <trkpt lat="45.77513" lon="5.44694">
        <ele>228</ele>
        <time>2024-09-19T11:46:28Z</time>
      </trkpt>
      <trkpt lat="45.77512" lon="5.44689">
        <ele>228.4</ele>
        <time>2024-09-19T11:46:29Z</time>
      </trkpt>
      <trkpt lat="45.77511" lon="5.44683">
        <ele>228.4</ele>
        <time>2024-09-19T11:46:30Z</time>
      </trkpt>
      <trkpt lat="45.7751" lon="5.44678">
        <ele>228.4</ele>
        <time>2024-09-19T11:46:31Z</time>
      </trkpt>
      <trkpt lat="45.77509" lon="5.44672">
        <ele>228.4</ele>
        <time>2024-09-19T11:46:32Z</time>
      </trkpt>
      <trkpt lat="45.77508" lon="5.44667">
        <ele>227.8</ele>
        <time>2024-09-19T11:46:33Z</time>
      </trkpt>
      <trkpt lat="45.77506" lon="5.44662">
        <ele>227.8</ele>
        <time>2024-09-19T11:46:34Z</time>
      </trkpt>
      <trkpt lat="45.77505" lon="5.44657">
        <ele>227.8</ele>
        <time>2024-09-19T11:46:35Z</time>
      </trkpt>
      <trkpt lat="45.77504" lon="5.44652">
        <ele>228</ele>
        <time>2024-09-19T11:46:36Z</time>
      </trkpt>
      <trkpt lat="45.77502" lon="5.44648">
        <ele>228</ele>
        <time>2024-09-19T11:46:37Z</time>
      </trkpt>
      <trkpt lat="45.77501" lon="5.44644">
        <ele>228</ele>
        <time>2024-09-19T11:46:38Z</time>
      </trkpt>
      <trkpt lat="45.775" lon="5.44639">
        <ele>228.4</ele>
        <time>2024-09-19T11:46:39Z</time>
      </trkpt>
      <trkpt lat="45.77499" lon="5.44635">
        <ele>228.4</ele>
        <time>2024-09-19T11:46:40Z</time>
      </trkpt>
      <trkpt lat="45.77498" lon="5.4463">
        <ele>228.4</ele>
        <time>2024-09-19T11:46:41Z</time>
      </trkpt>
      <trkpt lat="45.77498" lon="5.44625">
        <ele>228.4</ele>
        <time>2024-09-19T11:46:42Z</time>
      </trkpt>
      <trkpt lat="45.77497" lon="5.4462">
        <ele>228.4</ele>
        <time>2024-09-19T11:46:43Z</time>
      </trkpt>
      <trkpt lat="45.77497" lon="5.44615">
        <ele>228.4</ele>
        <time>2024-09-19T11:46:44Z</time>
      </trkpt>
      <trkpt lat="45.77497" lon="5.4461">
        <ele>228.4</ele>
        <time>2024-09-19T11:46:45Z</time>
      </trkpt>
      <trkpt lat="45.77496" lon="5.44606">
        <ele>228.4</ele>
        <time>2024-09-19T11:46:46Z</time>
      </trkpt>
      <trkpt lat="45.77495" lon="5.44601">
        <ele>228.4</ele>
        <time>2024-09-19T11:46:47Z</time>
      </trkpt>
      <trkpt lat="45.77494" lon="5.44596">
        <ele>228.4</ele>
        <time>2024-09-19T11:46:48Z</time>
      </trkpt>
      <trkpt lat="45.77494" lon="5.44591">
        <ele>228.6</ele>
        <time>2024-09-19T11:46:49Z</time>
      </trkpt>
      <trkpt lat="45.77493" lon="5.44586">
        <ele>228.6</ele>
        <time>2024-09-19T11:46:50Z</time>
      </trkpt>
      <trkpt lat="45.77492" lon="5.44581">
        <ele>228.8</ele>
        <time>2024-09-19T11:46:51Z</time>
      </trkpt>
      <trkpt lat="45.77491" lon="5.44576">
        <ele>228.8</ele>
        <time>2024-09-19T11:46:52Z</time>
      </trkpt>
      <trkpt lat="45.7749" lon="5.44572">
        <ele>228.8</ele>
        <time>2024-09-19T11:46:53Z</time>
      </trkpt>
      <trkpt lat="45.7749" lon="5.44567">
        <ele>228.8</ele>
        <time>2024-09-19T11:46:54Z</time>
      </trkpt>
      <trkpt lat="45.77489" lon="5.44562">
        <ele>228.8</ele>
        <time>2024-09-19T11:46:55Z</time>
      </trkpt>
      <trkpt lat="45.77488" lon="5.44557">
        <ele>228.8</ele>
        <time>2024-09-19T11:46:56Z</time>
      </trkpt>
      <trkpt lat="45.77488" lon="5.44552">
        <ele>228.8</ele>
        <time>2024-09-19T11:46:57Z</time>
      </trkpt>
      <trkpt lat="45.77487" lon="5.44547">
        <ele>228.8</ele>
        <time>2024-09-19T11:46:58Z</time>
      </trkpt>
      <trkpt lat="45.77486" lon="5.44543">
        <ele>228.8</ele>
        <time>2024-09-19T11:46:59Z</time>
      </trkpt>
      <trkpt lat="45.77485" lon="5.44538">
        <ele>228.8</ele>
        <time>2024-09-19T11:47:00Z</time>
      </trkpt>
      <trkpt lat="45.77485" lon="5.44534">
        <ele>228.8</ele>
        <time>2024-09-19T11:47:01Z</time>
      </trkpt>
      <trkpt lat="45.77484" lon="5.4453">
        <ele>229.2</ele>
        <time>2024-09-19T11:47:02Z</time>
      </trkpt>
      <trkpt lat="45.77483" lon="5.44525">
        <ele>229.6</ele>
        <time>2024-09-19T11:47:03Z</time>
      </trkpt>
      <trkpt lat="45.77482" lon="5.44521">
        <ele>229.6</ele>
        <time>2024-09-19T11:47:04Z</time>
      </trkpt>
      <trkpt lat="45.77482" lon="5.44516">
        <ele>229.6</ele>
        <time>2024-09-19T11:47:05Z</time>
      </trkpt>
      <trkpt lat="45.77482" lon="5.44512">
        <ele>229.2</ele>
        <time>2024-09-19T11:47:06Z</time>
      </trkpt>
      <trkpt lat="45.77481" lon="5.44507">
        <ele>229.4</ele>
        <time>2024-09-19T11:47:07Z</time>
      </trkpt>
      <trkpt lat="45.77481" lon="5.44503">
        <ele>229.4</ele>
        <time>2024-09-19T11:47:08Z</time>
      </trkpt>
      <trkpt lat="45.7748" lon="5.44498">
        <ele>229.4</ele>
        <time>2024-09-19T11:47:09Z</time>
      </trkpt>
      <trkpt lat="45.77479" lon="5.44493">
        <ele>229.8</ele>
        <time>2024-09-19T11:47:10Z</time>
      </trkpt>
      <trkpt lat="45.77479" lon="5.44488">
        <ele>229.8</ele>
        <time>2024-09-19T11:47:11Z</time>
      </trkpt>
      <trkpt lat="45.77479" lon="5.44483">
        <ele>229.8</ele>
        <time>2024-09-19T11:47:12Z</time>
      </trkpt>
      <trkpt lat="45.77478" lon="5.44478">
        <ele>230</ele>
        <time>2024-09-19T11:47:13Z</time>
      </trkpt>
      <trkpt lat="45.77478" lon="5.44473">
        <ele>230</ele>
        <time>2024-09-19T11:47:14Z</time>
      </trkpt>
      <trkpt lat="45.77478" lon="5.44468">
        <ele>230</ele>
        <time>2024-09-19T11:47:15Z</time>
      </trkpt>
      <trkpt lat="45.77478" lon="5.44464">
        <ele>230</ele>
        <time>2024-09-19T11:47:16Z</time>
      </trkpt>
      <trkpt lat="45.77478" lon="5.44459">
        <ele>230</ele>
        <time>2024-09-19T11:47:17Z</time>
      </trkpt>
      <trkpt lat="45.77478" lon="5.44454">
        <ele>230</ele>
        <time>2024-09-19T11:47:18Z</time>
      </trkpt>
      <trkpt lat="45.77477" lon="5.44448">
        <ele>229.6</ele>
        <time>2024-09-19T11:47:19Z</time>
      </trkpt>
      <trkpt lat="45.77477" lon="5.44443">
        <ele>229.6</ele>
        <time>2024-09-19T11:47:20Z</time>
      </trkpt>
      <trkpt lat="45.77477" lon="5.44438">
        <ele>229.4</ele>
        <time>2024-09-19T11:47:21Z</time>
      </trkpt>
      <trkpt lat="45.77477" lon="5.44434">
        <ele>229.4</ele>
        <time>2024-09-19T11:47:22Z</time>
      </trkpt>
      <trkpt lat="45.77478" lon="5.44428">
        <ele>229.4</ele>
        <time>2024-09-19T11:47:23Z</time>
      </trkpt>
      <trkpt lat="45.77478" lon="5.44422">
        <ele>228.6</ele>
        <time>2024-09-19T11:47:24Z</time>
      </trkpt>
      <trkpt lat="45.77479" lon="5.44416">
        <ele>228.6</ele>
        <time>2024-09-19T11:47:25Z</time>
      </trkpt>
      <trkpt lat="45.7748" lon="5.4441">
        <ele>228.6</ele>
        <time>2024-09-19T11:47:26Z</time>
      </trkpt>
      <trkpt lat="45.77481" lon="5.44404">
        <ele>228.6</ele>
        <time>2024-09-19T11:47:27Z</time>
      </trkpt>
      <trkpt lat="45.77481" lon="5.44399">
        <ele>228.6</ele>
        <time>2024-09-19T11:47:28Z</time>
      </trkpt>
      <trkpt lat="45.77481" lon="5.44393">
        <ele>229.2</ele>
        <time>2024-09-19T11:47:29Z</time>
      </trkpt>
      <trkpt lat="45.7748" lon="5.44387">
        <ele>229.2</ele>
        <time>2024-09-19T11:47:30Z</time>
      </trkpt>
      <trkpt lat="45.77479" lon="5.44383">
        <ele>229.2</ele>
        <time>2024-09-19T11:47:31Z</time>
      </trkpt>
      <trkpt lat="45.77478" lon="5.44379">
        <ele>229.2</ele>
        <time>2024-09-19T11:47:32Z</time>
      </trkpt>
      <trkpt lat="45.77475" lon="5.44375">
        <ele>229.2</ele>
        <time>2024-09-19T11:47:33Z</time>
      </trkpt>
      <trkpt lat="45.77473" lon="5.44371">
        <ele>229.2</ele>
        <time>2024-09-19T11:47:34Z</time>
      </trkpt>
      <trkpt lat="45.7747" lon="5.44367">
        <ele>229.8</ele>
        <time>2024-09-19T11:47:35Z</time>
      </trkpt>
      <trkpt lat="45.77466" lon="5.44362">
        <ele>229</ele>
        <time>2024-09-19T11:47:36Z</time>
      </trkpt>
      <trkpt lat="45.77463" lon="5.44359">
        <ele>228.8</ele>
        <time>2024-09-19T11:47:37Z</time>
      </trkpt>
      <trkpt lat="45.7746" lon="5.44357">
        <ele>228.8</ele>
        <time>2024-09-19T11:47:38Z</time>
      </trkpt>
      <trkpt lat="45.77457" lon="5.44354">
        <ele>229.6</ele>
        <time>2024-09-19T11:47:39Z</time>
      </trkpt>
      <trkpt lat="45.77455" lon="5.44351">
        <ele>229.6</ele>
        <time>2024-09-19T11:47:40Z</time>
      </trkpt>
      <trkpt lat="45.77453" lon="5.44348">
        <ele>229.6</ele>
        <time>2024-09-19T11:47:41Z</time>
      </trkpt>
      <trkpt lat="45.7745" lon="5.44345">
        <ele>229.6</ele>
        <time>2024-09-19T11:47:42Z</time>
      </trkpt>
      <trkpt lat="45.77447" lon="5.4434">
        <ele>229.6</ele>
        <time>2024-09-19T11:47:43Z</time>
      </trkpt>
      <trkpt lat="45.77445" lon="5.44338">
        <ele>229.6</ele>
        <time>2024-09-19T11:47:44Z</time>
      </trkpt>
      <trkpt lat="45.77443" lon="5.44334">
        <ele>229.2</ele>
        <time>2024-09-19T11:47:45Z</time>
      </trkpt>
      <trkpt lat="45.77441" lon="5.4433">
        <ele>229.6</ele>
        <time>2024-09-19T11:47:46Z</time>
      </trkpt>
      <trkpt lat="45.7744" lon="5.44326">
        <ele>229.6</ele>
        <time>2024-09-19T11:47:47Z</time>
      </trkpt>
      <trkpt lat="45.77438" lon="5.44321">
        <ele>229.6</ele>
        <time>2024-09-19T11:47:48Z</time>
      </trkpt>
      <trkpt lat="45.77437" lon="5.44317">
        <ele>229</ele>
        <time>2024-09-19T11:47:49Z</time>
      </trkpt>
      <trkpt lat="45.77435" lon="5.44312">
        <ele>229</ele>
        <time>2024-09-19T11:47:50Z</time>
      </trkpt>
      <trkpt lat="45.77434" lon="5.44306">
        <ele>229</ele>
        <time>2024-09-19T11:47:51Z</time>
      </trkpt>
      <trkpt lat="45.77432" lon="5.44301">
        <ele>228.2</ele>
        <time>2024-09-19T11:47:52Z</time>
      </trkpt>
      <trkpt lat="45.7743" lon="5.44297">
        <ele>228.6</ele>
        <time>2024-09-19T11:47:53Z</time>
      </trkpt>
      <trkpt lat="45.77428" lon="5.44293">
        <ele>228.8</ele>
        <time>2024-09-19T11:47:54Z</time>
      </trkpt>
      <trkpt lat="45.77426" lon="5.44288">
        <ele>228.8</ele>
        <time>2024-09-19T11:47:55Z</time>
      </trkpt>
      <trkpt lat="45.77424" lon="5.44283">
        <ele>228.8</ele>
        <time>2024-09-19T11:47:56Z</time>
      </trkpt>
      <trkpt lat="45.77422" lon="5.44277">
        <ele>229.2</ele>
        <time>2024-09-19T11:47:57Z</time>
      </trkpt>
      <trkpt lat="45.7742" lon="5.44273">
        <ele>229.2</ele>
        <time>2024-09-19T11:47:58Z</time>
      </trkpt>
      <trkpt lat="45.77419" lon="5.44266">
        <ele>229.4</ele>
        <time>2024-09-19T11:47:59Z</time>
      </trkpt>
      <trkpt lat="45.77418" lon="5.44262">
        <ele>229.2</ele>
        <time>2024-09-19T11:48:00Z</time>
      </trkpt>
      <trkpt lat="45.77416" lon="5.44258">
        <ele>229.4</ele>
        <time>2024-09-19T11:48:01Z</time>
      </trkpt>
      <trkpt lat="45.77414" lon="5.44254">
        <ele>229.4</ele>
        <time>2024-09-19T11:48:02Z</time>
      </trkpt>
      <trkpt lat="45.77412" lon="5.4425">
        <ele>229.8</ele>
        <time>2024-09-19T11:48:03Z</time>
      </trkpt>
      <trkpt lat="45.77411" lon="5.44244">
        <ele>229.8</ele>
        <time>2024-09-19T11:48:04Z</time>
      </trkpt>
      <trkpt lat="45.7741" lon="5.44239">
        <ele>229.8</ele>
        <time>2024-09-19T11:48:05Z</time>
      </trkpt>
      <trkpt lat="45.7741" lon="5.44233">
        <ele>229.8</ele>
        <time>2024-09-19T11:48:06Z</time>
      </trkpt>
      <trkpt lat="45.77409" lon="5.44228">
        <ele>230</ele>
        <time>2024-09-19T11:48:07Z</time>
      </trkpt>
      <trkpt lat="45.77406" lon="5.44224">
        <ele>230</ele>
        <time>2024-09-19T11:48:08Z</time>
      </trkpt>
      <trkpt lat="45.77405" lon="5.4422">
        <ele>230</ele>
        <time>2024-09-19T11:48:09Z</time>
      </trkpt>
      <trkpt lat="45.77403" lon="5.44217">
        <ele>230</ele>
        <time>2024-09-19T11:48:10Z</time>
      </trkpt>
      <trkpt lat="45.77402" lon="5.44213">
        <ele>230</ele>
        <time>2024-09-19T11:48:11Z</time>
      </trkpt>
      <trkpt lat="45.774" lon="5.4421">
        <ele>230.4</ele>
        <time>2024-09-19T11:48:12Z</time>
      </trkpt>
      <trkpt lat="45.77399" lon="5.44208">
        <ele>230.8</ele>
        <time>2024-09-19T11:48:13Z</time>
      </trkpt>
      <trkpt lat="45.77398" lon="5.44204">
        <ele>231</ele>
        <time>2024-09-19T11:48:14Z</time>
      </trkpt>
      <trkpt lat="45.77397" lon="5.44202">
        <ele>231.2</ele>
        <time>2024-09-19T11:48:15Z</time>
      </trkpt>
      <trkpt lat="45.77396" lon="5.442">
        <ele>231.2</ele>
        <time>2024-09-19T11:48:16Z</time>
      </trkpt>
      <trkpt lat="45.77396" lon="5.442">
        <ele>231.6</ele>
        <time>2024-09-19T11:48:17Z</time>
      </trkpt>
      <trkpt lat="45.77396" lon="5.442">
        <ele>231.6</ele>
        <time>2024-09-19T11:48:18Z</time>
      </trkpt>
      <trkpt lat="45.77392" lon="5.4419">
        <ele>232</ele>
        <time>2024-09-19T11:48:20Z</time>
      </trkpt>
      <trkpt lat="45.77391" lon="5.44188">
        <ele>232</ele>
        <time>2024-09-19T11:48:21Z</time>
      </trkpt>
      <trkpt lat="45.7739" lon="5.44184">
        <ele>232</ele>
        <time>2024-09-19T11:48:22Z</time>
      </trkpt>
      <trkpt lat="45.7739" lon="5.4418">
        <ele>232</ele>
        <time>2024-09-19T11:48:23Z</time>
      </trkpt>
      <trkpt lat="45.77389" lon="5.44176">
        <ele>232</ele>
        <time>2024-09-19T11:48:24Z</time>
      </trkpt>
      <trkpt lat="45.77388" lon="5.44171">
        <ele>232</ele>
        <time>2024-09-19T11:48:25Z</time>
      </trkpt>
      <trkpt lat="45.77387" lon="5.44166">
        <ele>232</ele>
        <time>2024-09-19T11:48:26Z</time>
      </trkpt>
      <trkpt lat="45.77387" lon="5.4416">
        <ele>232</ele>
        <time>2024-09-19T11:48:27Z</time>
      </trkpt>
      <trkpt lat="45.77386" lon="5.44155">
        <ele>231.8</ele>
        <time>2024-09-19T11:48:28Z</time>
      </trkpt>
      <trkpt lat="45.77385" lon="5.44148">
        <ele>231.8</ele>
        <time>2024-09-19T11:48:29Z</time>
      </trkpt>
      <trkpt lat="45.77384" lon="5.44142">
        <ele>231.8</ele>
        <time>2024-09-19T11:48:30Z</time>
      </trkpt>
      <trkpt lat="45.77382" lon="5.44137">
        <ele>231.6</ele>
        <time>2024-09-19T11:48:31Z</time>
      </trkpt>
      <trkpt lat="45.77382" lon="5.4413">
        <ele>231.6</ele>
        <time>2024-09-19T11:48:32Z</time>
      </trkpt>
      <trkpt lat="45.77381" lon="5.44124">
        <ele>231.6</ele>
        <time>2024-09-19T11:48:33Z</time>
      </trkpt>
      <trkpt lat="45.77381" lon="5.44117">
        <ele>231.6</ele>
        <time>2024-09-19T11:48:34Z</time>
      </trkpt>
      <trkpt lat="45.7738" lon="5.44113">
        <ele>231.4</ele>
        <time>2024-09-19T11:48:35Z</time>
      </trkpt>
      <trkpt lat="45.7738" lon="5.44109">
        <ele>231.4</ele>
        <time>2024-09-19T11:48:36Z</time>
      </trkpt>
      <trkpt lat="45.77379" lon="5.44105">
        <ele>231.4</ele>
        <time>2024-09-19T11:48:37Z</time>
      </trkpt>
      <trkpt lat="45.77378" lon="5.44102">
        <ele>231.4</ele>
        <time>2024-09-19T11:48:38Z</time>
      </trkpt>
      <trkpt lat="45.77377" lon="5.441">
        <ele>231.4</ele>
        <time>2024-09-19T11:48:39Z</time>
      </trkpt>
      <trkpt lat="45.77376" lon="5.44101">
        <ele>231.4</ele>
        <time>2024-09-19T11:48:40Z</time>
      </trkpt>
      <trkpt lat="45.77374" lon="5.44099">
        <ele>231.4</ele>
        <time>2024-09-19T11:48:41Z</time>
      </trkpt>
      <trkpt lat="45.77372" lon="5.44098">
        <ele>231.4</ele>
        <time>2024-09-19T11:48:42Z</time>
      </trkpt>
      <trkpt lat="45.7737" lon="5.44096">
        <ele>231.4</ele>
        <time>2024-09-19T11:48:43Z</time>
      </trkpt>
      <trkpt lat="45.77367" lon="5.44094">
        <ele>231.4</ele>
        <time>2024-09-19T11:48:44Z</time>
      </trkpt>
      <trkpt lat="45.77363" lon="5.44093">
        <ele>231.4</ele>
        <time>2024-09-19T11:48:45Z</time>
      </trkpt>
      <trkpt lat="45.77359" lon="5.44092">
        <ele>231.4</ele>
        <time>2024-09-19T11:48:46Z</time>
      </trkpt>
      <trkpt lat="45.77355" lon="5.4409">
        <ele>231.4</ele>
        <time>2024-09-19T11:48:47Z</time>
      </trkpt>
      <trkpt lat="45.77351" lon="5.44089">
        <ele>231</ele>
        <time>2024-09-19T11:48:48Z</time>
      </trkpt>
      <trkpt lat="45.77348" lon="5.44084">
        <ele>231</ele>
        <time>2024-09-19T11:48:49Z</time>
      </trkpt>
      <trkpt lat="45.77345" lon="5.44079">
        <ele>231</ele>
        <time>2024-09-19T11:48:50Z</time>
      </trkpt>
      <trkpt lat="45.77342" lon="5.44073">
        <ele>231</ele>
        <time>2024-09-19T11:48:51Z</time>
      </trkpt>
      <trkpt lat="45.77339" lon="5.44068">
        <ele>231.2</ele>
        <time>2024-09-19T11:48:52Z</time>
      </trkpt>
      <trkpt lat="45.77336" lon="5.44063">
        <ele>231.2</ele>
        <time>2024-09-19T11:48:53Z</time>
      </trkpt>
      <trkpt lat="45.77334" lon="5.44058">
        <ele>231.4</ele>
        <time>2024-09-19T11:48:54Z</time>
      </trkpt>
      <trkpt lat="45.77329" lon="5.44053">
        <ele>231.8</ele>
        <time>2024-09-19T11:48:55Z</time>
      </trkpt>
      <trkpt lat="45.77328" lon="5.44049">
        <ele>232</ele>
        <time>2024-09-19T11:48:56Z</time>
      </trkpt>
      <trkpt lat="45.77325" lon="5.44045">
        <ele>232.4</ele>
        <time>2024-09-19T11:48:57Z</time>
      </trkpt>
      <trkpt lat="45.77322" lon="5.44041">
        <ele>232.6</ele>
        <time>2024-09-19T11:48:58Z</time>
      </trkpt>
      <trkpt lat="45.7732" lon="5.44037">
        <ele>233</ele>
        <time>2024-09-19T11:48:59Z</time>
      </trkpt>
      <trkpt lat="45.7732" lon="5.44037">
        <ele>233.2</ele>
        <time>2024-09-19T11:49:00Z</time>
      </trkpt>
      <trkpt lat="45.7732" lon="5.44037">
        <ele>233.6</ele>
        <time>2024-09-19T11:49:01Z</time>
      </trkpt>
      <trkpt lat="45.77311" lon="5.44024">
        <ele>233.6</ele>
        <time>2024-09-19T11:49:02Z</time>
      </trkpt>
      <trkpt lat="45.77308" lon="5.44021">
        <ele>233.6</ele>
        <time>2024-09-19T11:49:03Z</time>
      </trkpt>
      <trkpt lat="45.77305" lon="5.44017">
        <ele>233.8</ele>
        <time>2024-09-19T11:49:04Z</time>
      </trkpt>
      <trkpt lat="45.77302" lon="5.44012">
        <ele>234.2</ele>
        <time>2024-09-19T11:49:05Z</time>
      </trkpt>
      <trkpt lat="45.773" lon="5.44008">
        <ele>234.4</ele>
        <time>2024-09-19T11:49:06Z</time>
      </trkpt>
      <trkpt lat="45.77297" lon="5.44004">
        <ele>234.8</ele>
        <time>2024-09-19T11:49:07Z</time>
      </trkpt>
      <trkpt lat="45.77295" lon="5.43999">
        <ele>234.8</ele>
        <time>2024-09-19T11:49:08Z</time>
      </trkpt>
      <trkpt lat="45.77292" lon="5.43995">
        <ele>235.2</ele>
        <time>2024-09-19T11:49:09Z</time>
      </trkpt>
      <trkpt lat="45.77289" lon="5.43991">
        <ele>235.2</ele>
        <time>2024-09-19T11:49:10Z</time>
      </trkpt>
      <trkpt lat="45.77286" lon="5.43986">
        <ele>235.2</ele>
        <time>2024-09-19T11:49:11Z</time>
      </trkpt>
      <trkpt lat="45.77283" lon="5.43983">
        <ele>235.4</ele>
        <time>2024-09-19T11:49:12Z</time>
      </trkpt>
      <trkpt lat="45.77281" lon="5.43979">
        <ele>235.4</ele>
        <time>2024-09-19T11:49:13Z</time>
      </trkpt>
      <trkpt lat="45.77278" lon="5.43974">
        <ele>236</ele>
        <time>2024-09-19T11:49:14Z</time>
      </trkpt>
      <trkpt lat="45.77276" lon="5.4397">
        <ele>236.2</ele>
        <time>2024-09-19T11:49:15Z</time>
      </trkpt>
      <trkpt lat="45.77274" lon="5.43966">
        <ele>236.2</ele>
        <time>2024-09-19T11:49:16Z</time>
      </trkpt>
      <trkpt lat="45.77271" lon="5.43962">
        <ele>236.4</ele>
        <time>2024-09-19T11:49:17Z</time>
      </trkpt>
      <trkpt lat="45.77268" lon="5.43958">
        <ele>237</ele>
        <time>2024-09-19T11:49:18Z</time>
      </trkpt>
      <trkpt lat="45.77265" lon="5.43953">
        <ele>237.2</ele>
        <time>2024-09-19T11:49:19Z</time>
      </trkpt>
      <trkpt lat="45.77263" lon="5.43949">
        <ele>237.6</ele>
        <time>2024-09-19T11:49:20Z</time>
      </trkpt>
      <trkpt lat="45.7726" lon="5.43944">
        <ele>237.6</ele>
        <time>2024-09-19T11:49:21Z</time>
      </trkpt>
      <trkpt lat="45.77258" lon="5.43939">
        <ele>238.2</ele>
        <time>2024-09-19T11:49:22Z</time>
      </trkpt>
      <trkpt lat="45.77256" lon="5.43933">
        <ele>238.4</ele>
        <time>2024-09-19T11:49:23Z</time>
      </trkpt>
      <trkpt lat="45.77254" lon="5.43929">
        <ele>238.4</ele>
        <time>2024-09-19T11:49:24Z</time>
      </trkpt>
      <trkpt lat="45.77252" lon="5.43924">
        <ele>238.4</ele>
        <time>2024-09-19T11:49:25Z</time>
      </trkpt>
      <trkpt lat="45.77249" lon="5.43921">
        <ele>238.2</ele>
        <time>2024-09-19T11:49:26Z</time>
      </trkpt>
      <trkpt lat="45.77247" lon="5.43916">
        <ele>238.2</ele>
        <time>2024-09-19T11:49:27Z</time>
      </trkpt>
      <trkpt lat="45.77244" lon="5.43912">
        <ele>238.8</ele>
        <time>2024-09-19T11:49:28Z</time>
      </trkpt>
      <trkpt lat="45.77242" lon="5.43907">
        <ele>239</ele>
        <time>2024-09-19T11:49:29Z</time>
      </trkpt>
      <trkpt lat="45.7724" lon="5.43901">
        <ele>238.2</ele>
        <time>2024-09-19T11:49:30Z</time>
      </trkpt>
      <trkpt lat="45.77238" lon="5.43895">
        <ele>238.2</ele>
        <time>2024-09-19T11:49:31Z</time>
      </trkpt>
      <trkpt lat="45.77235" lon="5.4389">
        <ele>238.2</ele>
        <time>2024-09-19T11:49:32Z</time>
      </trkpt>
      <trkpt lat="45.77233" lon="5.43884">
        <ele>238.4</ele>
        <time>2024-09-19T11:49:33Z</time>
      </trkpt>
      <trkpt lat="45.77231" lon="5.43878">
        <ele>238.4</ele>
        <time>2024-09-19T11:49:34Z</time>
      </trkpt>
      <trkpt lat="45.77228" lon="5.43872">
        <ele>238.4</ele>
        <time>2024-09-19T11:49:35Z</time>
      </trkpt>
      <trkpt lat="45.77226" lon="5.43867">
        <ele>238.4</ele>
        <time>2024-09-19T11:49:36Z</time>
      </trkpt>
      <trkpt lat="45.77223" lon="5.43862">
        <ele>238.4</ele>
        <time>2024-09-19T11:49:37Z</time>
      </trkpt>
      <trkpt lat="45.7722" lon="5.43857">
        <ele>238.4</ele>
        <time>2024-09-19T11:49:38Z</time>
      </trkpt>
      <trkpt lat="45.77217" lon="5.43851">
        <ele>238.4</ele>
        <time>2024-09-19T11:49:39Z</time>
      </trkpt>
      <trkpt lat="45.77215" lon="5.43846">
        <ele>237.8</ele>
        <time>2024-09-19T11:49:40Z</time>
      </trkpt>
      <trkpt lat="45.77212" lon="5.4384">
        <ele>238.2</ele>
        <time>2024-09-19T11:49:41Z</time>
      </trkpt>
      <trkpt lat="45.77209" lon="5.43835">
        <ele>238.2</ele>
        <time>2024-09-19T11:49:42Z</time>
      </trkpt>
      <trkpt lat="45.77206" lon="5.4383">
        <ele>238.2</ele>
        <time>2024-09-19T11:49:43Z</time>
      </trkpt>
      <trkpt lat="45.77204" lon="5.43824">
        <ele>238</ele>
        <time>2024-09-19T11:49:44Z</time>
      </trkpt>
      <trkpt lat="45.77202" lon="5.43818">
        <ele>237.8</ele>
        <time>2024-09-19T11:49:45Z</time>
      </trkpt>
      <trkpt lat="45.772" lon="5.43811">
        <ele>238.2</ele>
        <time>2024-09-19T11:49:46Z</time>
      </trkpt>
      <trkpt lat="45.77198" lon="5.43805">
        <ele>238.2</ele>
        <time>2024-09-19T11:49:47Z</time>
      </trkpt>
      <trkpt lat="45.77196" lon="5.43799">
        <ele>238.6</ele>
        <time>2024-09-19T11:49:48Z</time>
      </trkpt>
      <trkpt lat="45.77194" lon="5.43793">
        <ele>239.2</ele>
        <time>2024-09-19T11:49:49Z</time>
      </trkpt>
      <trkpt lat="45.77192" lon="5.43787">
        <ele>238.8</ele>
        <time>2024-09-19T11:49:50Z</time>
      </trkpt>
      <trkpt lat="45.7719" lon="5.4378">
        <ele>239.2</ele>
        <time>2024-09-19T11:49:51Z</time>
      </trkpt>
      <trkpt lat="45.77189" lon="5.43775">
        <ele>239</ele>
        <time>2024-09-19T11:49:52Z</time>
      </trkpt>
      <trkpt lat="45.77188" lon="5.43769">
        <ele>239</ele>
        <time>2024-09-19T11:49:53Z</time>
      </trkpt>
      <trkpt lat="45.77187" lon="5.43763">
        <ele>239</ele>
        <time>2024-09-19T11:49:54Z</time>
      </trkpt>
      <trkpt lat="45.77186" lon="5.43758">
        <ele>239</ele>
        <time>2024-09-19T11:49:55Z</time>
      </trkpt>
      <trkpt lat="45.77184" lon="5.43753">
        <ele>238.8</ele>
        <time>2024-09-19T11:49:56Z</time>
      </trkpt>
      <trkpt lat="45.77183" lon="5.43748">
        <ele>239.2</ele>
        <time>2024-09-19T11:49:57Z</time>
      </trkpt>
      <trkpt lat="45.77181" lon="5.43743">
        <ele>239.6</ele>
        <time>2024-09-19T11:49:58Z</time>
      </trkpt>
      <trkpt lat="45.7718" lon="5.43738">
        <ele>239.6</ele>
        <time>2024-09-19T11:49:59Z</time>
      </trkpt>
      <trkpt lat="45.77179" lon="5.43733">
        <ele>239.4</ele>
        <time>2024-09-19T11:50:00Z</time>
      </trkpt>
      <trkpt lat="45.77178" lon="5.43728">
        <ele>239.4</ele>
        <time>2024-09-19T11:50:01Z</time>
      </trkpt>
      <trkpt lat="45.77175" lon="5.43721">
        <ele>240.2</ele>
        <time>2024-09-19T11:50:02Z</time>
      </trkpt>
      <trkpt lat="45.77173" lon="5.43716">
        <ele>239.6</ele>
        <time>2024-09-19T11:50:03Z</time>
      </trkpt>
      <trkpt lat="45.7717" lon="5.43711">
        <ele>238.8</ele>
        <time>2024-09-19T11:50:04Z</time>
      </trkpt>
      <trkpt lat="45.77168" lon="5.43705">
        <ele>238.2</ele>
        <time>2024-09-19T11:50:05Z</time>
      </trkpt>
      <trkpt lat="45.77165" lon="5.43699">
        <ele>238.8</ele>
        <time>2024-09-19T11:50:06Z</time>
      </trkpt>
      <trkpt lat="45.77162" lon="5.43693">
        <ele>238.8</ele>
        <time>2024-09-19T11:50:07Z</time>
      </trkpt>
      <trkpt lat="45.77159" lon="5.43687">
        <ele>239</ele>
        <time>2024-09-19T11:50:08Z</time>
      </trkpt>
      <trkpt lat="45.77156" lon="5.43682">
        <ele>239</ele>
        <time>2024-09-19T11:50:09Z</time>
      </trkpt>
      <trkpt lat="45.77153" lon="5.43676">
        <ele>239</ele>
        <time>2024-09-19T11:50:10Z</time>
      </trkpt>
      <trkpt lat="45.7715" lon="5.43671">
        <ele>238.4</ele>
        <time>2024-09-19T11:50:11Z</time>
      </trkpt>
      <trkpt lat="45.77147" lon="5.43665">
        <ele>238.4</ele>
        <time>2024-09-19T11:50:12Z</time>
      </trkpt>
      <trkpt lat="45.77144" lon="5.43659">
        <ele>238.4</ele>
        <time>2024-09-19T11:50:13Z</time>
      </trkpt>
      <trkpt lat="45.77141" lon="5.43653">
        <ele>238.4</ele>
        <time>2024-09-19T11:50:14Z</time>
      </trkpt>
      <trkpt lat="45.77139" lon="5.43647">
        <ele>238.2</ele>
        <time>2024-09-19T11:50:15Z</time>
      </trkpt>
      <trkpt lat="45.77136" lon="5.43642">
        <ele>238.2</ele>
        <time>2024-09-19T11:50:16Z</time>
      </trkpt>
      <trkpt lat="45.77134" lon="5.43636">
        <ele>238.2</ele>
        <time>2024-09-19T11:50:17Z</time>
      </trkpt>
      <trkpt lat="45.77131" lon="5.43629">
        <ele>238.2</ele>
        <time>2024-09-19T11:50:18Z</time>
      </trkpt>
      <trkpt lat="45.77128" lon="5.43623">
        <ele>238.2</ele>
        <time>2024-09-19T11:50:19Z</time>
      </trkpt>
      <trkpt lat="45.77124" lon="5.43617">
        <ele>238.2</ele>
        <time>2024-09-19T11:50:20Z</time>
      </trkpt>
      <trkpt lat="45.77121" lon="5.4361">
        <ele>238</ele>
        <time>2024-09-19T11:50:21Z</time>
      </trkpt>
      <trkpt lat="45.77118" lon="5.43604">
        <ele>238</ele>
        <time>2024-09-19T11:50:22Z</time>
      </trkpt>
      <trkpt lat="45.77115" lon="5.43597">
        <ele>238</ele>
        <time>2024-09-19T11:50:23Z</time>
      </trkpt>
      <trkpt lat="45.77111" lon="5.4359">
        <ele>238</ele>
        <time>2024-09-19T11:50:24Z</time>
      </trkpt>
      <trkpt lat="45.77108" lon="5.43582">
        <ele>238</ele>
        <time>2024-09-19T11:50:25Z</time>
      </trkpt>
      <trkpt lat="45.77105" lon="5.43576">
        <ele>238</ele>
        <time>2024-09-19T11:50:26Z</time>
      </trkpt>
      <trkpt lat="45.77102" lon="5.43569">
        <ele>238</ele>
        <time>2024-09-19T11:50:27Z</time>
      </trkpt>
      <trkpt lat="45.77098" lon="5.43562">
        <ele>238</ele>
        <time>2024-09-19T11:50:28Z</time>
      </trkpt>
      <trkpt lat="45.77095" lon="5.43555">
        <ele>238</ele>
        <time>2024-09-19T11:50:29Z</time>
      </trkpt>
      <trkpt lat="45.77092" lon="5.43549">
        <ele>238</ele>
        <time>2024-09-19T11:50:30Z</time>
      </trkpt>
      <trkpt lat="45.77089" lon="5.43541">
        <ele>238</ele>
        <time>2024-09-19T11:50:31Z</time>
      </trkpt>
      <trkpt lat="45.77086" lon="5.43533">
        <ele>238</ele>
        <time>2024-09-19T11:50:32Z</time>
      </trkpt>
      <trkpt lat="45.77083" lon="5.43525">
        <ele>237.8</ele>
        <time>2024-09-19T11:50:33Z</time>
      </trkpt>
      <trkpt lat="45.77081" lon="5.43518">
        <ele>237.8</ele>
        <time>2024-09-19T11:50:34Z</time>
      </trkpt>
      <trkpt lat="45.77078" lon="5.4351">
        <ele>237.8</ele>
        <time>2024-09-19T11:50:35Z</time>
      </trkpt>
      <trkpt lat="45.77075" lon="5.43502">
        <ele>237.4</ele>
        <time>2024-09-19T11:50:36Z</time>
      </trkpt>
      <trkpt lat="45.77072" lon="5.43494">
        <ele>237.4</ele>
        <time>2024-09-19T11:50:37Z</time>
      </trkpt>
      <trkpt lat="45.77069" lon="5.43485">
        <ele>237.4</ele>
        <time>2024-09-19T11:50:38Z</time>
      </trkpt>
      <trkpt lat="45.77066" lon="5.43478">
        <ele>237.4</ele>
        <time>2024-09-19T11:50:39Z</time>
      </trkpt>
      <trkpt lat="45.77064" lon="5.4347">
        <ele>237.2</ele>
        <time>2024-09-19T11:50:40Z</time>
      </trkpt>
      <trkpt lat="45.77061" lon="5.43461">
        <ele>237.2</ele>
        <time>2024-09-19T11:50:41Z</time>
      </trkpt>
      <trkpt lat="45.77058" lon="5.43454">
        <ele>237.2</ele>
        <time>2024-09-19T11:50:42Z</time>
      </trkpt>
      <trkpt lat="45.77055" lon="5.43446">
        <ele>237.2</ele>
        <time>2024-09-19T11:50:43Z</time>
      </trkpt>
      <trkpt lat="45.77054" lon="5.43438">
        <ele>237.2</ele>
        <time>2024-09-19T11:50:44Z</time>
      </trkpt>
      <trkpt lat="45.77053" lon="5.43429">
        <ele>236.8</ele>
        <time>2024-09-19T11:50:45Z</time>
      </trkpt>
      <trkpt lat="45.77051" lon="5.4342">
        <ele>236.8</ele>
        <time>2024-09-19T11:50:46Z</time>
      </trkpt>
      <trkpt lat="45.77048" lon="5.43411">
        <ele>236.6</ele>
        <time>2024-09-19T11:50:47Z</time>
      </trkpt>
      <trkpt lat="45.77046" lon="5.43403">
        <ele>236.6</ele>
        <time>2024-09-19T11:50:48Z</time>
      </trkpt>
      <trkpt lat="45.77044" lon="5.43394">
        <ele>236.8</ele>
        <time>2024-09-19T11:50:49Z</time>
      </trkpt>
      <trkpt lat="45.77042" lon="5.43386">
        <ele>236.8</ele>
        <time>2024-09-19T11:50:50Z</time>
      </trkpt>
      <trkpt lat="45.7704" lon="5.43377">
        <ele>236.8</ele>
        <time>2024-09-19T11:50:51Z</time>
      </trkpt>
      <trkpt lat="45.77038" lon="5.43368">
        <ele>237</ele>
        <time>2024-09-19T11:50:52Z</time>
      </trkpt>
      <trkpt lat="45.77035" lon="5.43359">
        <ele>237</ele>
        <time>2024-09-19T11:50:53Z</time>
      </trkpt>
      <trkpt lat="45.77033" lon="5.4335">
        <ele>237</ele>
        <time>2024-09-19T11:50:54Z</time>
      </trkpt>
      <trkpt lat="45.77031" lon="5.43342">
        <ele>236.6</ele>
        <time>2024-09-19T11:50:55Z</time>
      </trkpt>
      <trkpt lat="45.77029" lon="5.43334">
        <ele>236.6</ele>
        <time>2024-09-19T11:50:56Z</time>
      </trkpt>
      <trkpt lat="45.77026" lon="5.43326">
        <ele>236.8</ele>
        <time>2024-09-19T11:50:57Z</time>
      </trkpt>
      <trkpt lat="45.77024" lon="5.43317">
        <ele>236.8</ele>
        <time>2024-09-19T11:50:58Z</time>
      </trkpt>
      <trkpt lat="45.77022" lon="5.43309">
        <ele>236.8</ele>
        <time>2024-09-19T11:50:59Z</time>
      </trkpt>
      <trkpt lat="45.7702" lon="5.43301">
        <ele>236.8</ele>
        <time>2024-09-19T11:51:00Z</time>
      </trkpt>
      <trkpt lat="45.77018" lon="5.43293">
        <ele>237.2</ele>
        <time>2024-09-19T11:51:01Z</time>
      </trkpt>
      <trkpt lat="45.77016" lon="5.43285">
        <ele>237.2</ele>
        <time>2024-09-19T11:51:02Z</time>
      </trkpt>
      <trkpt lat="45.77014" lon="5.43277">
        <ele>237.4</ele>
        <time>2024-09-19T11:51:03Z</time>
      </trkpt>
      <trkpt lat="45.77013" lon="5.43269">
        <ele>237.4</ele>
        <time>2024-09-19T11:51:04Z</time>
      </trkpt>
      <trkpt lat="45.77011" lon="5.43262">
        <ele>237.4</ele>
        <time>2024-09-19T11:51:05Z</time>
      </trkpt>
      <trkpt lat="45.7701" lon="5.43254">
        <ele>237.4</ele>
        <time>2024-09-19T11:51:06Z</time>
      </trkpt>
      <trkpt lat="45.77008" lon="5.43245">
        <ele>237.4</ele>
        <time>2024-09-19T11:51:07Z</time>
      </trkpt>
      <trkpt lat="45.77006" lon="5.43238">
        <ele>237.4</ele>
        <time>2024-09-19T11:51:08Z</time>
      </trkpt>
      <trkpt lat="45.77003" lon="5.4323">
        <ele>237.4</ele>
        <time>2024-09-19T11:51:09Z</time>
      </trkpt>
      <trkpt lat="45.77003" lon="5.4323">
        <ele>237.4</ele>
        <time>2024-09-19T11:51:10Z</time>
      </trkpt>
      <trkpt lat="45.77001" lon="5.43222">
        <ele>237.4</ele>
        <time>2024-09-19T11:51:11Z</time>
      </trkpt>
      <trkpt lat="45.76999" lon="5.43215">
        <ele>237.4</ele>
        <time>2024-09-19T11:51:12Z</time>
      </trkpt>
      <trkpt lat="45.76997" lon="5.43208">
        <ele>237.4</ele>
        <time>2024-09-19T11:51:13Z</time>
      </trkpt>
      <trkpt lat="45.76994" lon="5.43201">
        <ele>237.4</ele>
        <time>2024-09-19T11:51:14Z</time>
      </trkpt>
      <trkpt lat="45.76992" lon="5.43194">
        <ele>237.4</ele>
        <time>2024-09-19T11:51:15Z</time>
      </trkpt>
      <trkpt lat="45.76989" lon="5.43188">
        <ele>237.4</ele>
        <time>2024-09-19T11:51:16Z</time>
      </trkpt>
      <trkpt lat="45.76986" lon="5.43181">
        <ele>237.4</ele>
        <time>2024-09-19T11:51:17Z</time>
      </trkpt>
      <trkpt lat="45.76982" lon="5.43175">
        <ele>237.4</ele>
        <time>2024-09-19T11:51:18Z</time>
      </trkpt>
      <trkpt lat="45.7698" lon="5.43169">
        <ele>237.4</ele>
        <time>2024-09-19T11:51:19Z</time>
      </trkpt>
      <trkpt lat="45.76978" lon="5.43162">
        <ele>237.4</ele>
        <time>2024-09-19T11:51:20Z</time>
      </trkpt>
      <trkpt lat="45.76975" lon="5.43155">
        <ele>237.4</ele>
        <time>2024-09-19T11:51:21Z</time>
      </trkpt>
      <trkpt lat="45.76972" lon="5.43148">
        <ele>237.8</ele>
        <time>2024-09-19T11:51:22Z</time>
      </trkpt>
      <trkpt lat="45.76966" lon="5.43135">
        <ele>237.8</ele>
        <time>2024-09-19T11:51:23Z</time>
      </trkpt>
      <trkpt lat="45.76964" lon="5.43127">
        <ele>238</ele>
        <time>2024-09-19T11:51:24Z</time>
      </trkpt>
      <trkpt lat="45.76961" lon="5.43119">
        <ele>238</ele>
        <time>2024-09-19T11:51:25Z</time>
      </trkpt>
      <trkpt lat="45.76959" lon="5.43111">
        <ele>238</ele>
        <time>2024-09-19T11:51:26Z</time>
      </trkpt>
      <trkpt lat="45.76956" lon="5.43103">
        <ele>237.8</ele>
        <time>2024-09-19T11:51:27Z</time>
      </trkpt>
      <trkpt lat="45.76953" lon="5.43095">
        <ele>237.8</ele>
        <time>2024-09-19T11:51:28Z</time>
      </trkpt>
      <trkpt lat="45.76951" lon="5.43086">
        <ele>237.8</ele>
        <time>2024-09-19T11:51:29Z</time>
      </trkpt>
      <trkpt lat="45.76948" lon="5.43078">
        <ele>237.6</ele>
        <time>2024-09-19T11:51:30Z</time>
      </trkpt>
      <trkpt lat="45.76945" lon="5.43071">
        <ele>237.6</ele>
        <time>2024-09-19T11:51:31Z</time>
      </trkpt>
      <trkpt lat="45.76943" lon="5.43063">
        <ele>237.4</ele>
        <time>2024-09-19T11:51:32Z</time>
      </trkpt>
      <trkpt lat="45.7694" lon="5.43055">
        <ele>237.2</ele>
        <time>2024-09-19T11:51:33Z</time>
      </trkpt>
      <trkpt lat="45.76937" lon="5.43048">
        <ele>237.2</ele>
        <time>2024-09-19T11:51:34Z</time>
      </trkpt>
      <trkpt lat="45.76934" lon="5.4304">
        <ele>237.2</ele>
        <time>2024-09-19T11:51:35Z</time>
      </trkpt>
      <trkpt lat="45.76931" lon="5.43033">
        <ele>237.2</ele>
        <time>2024-09-19T11:51:36Z</time>
      </trkpt>
      <trkpt lat="45.76928" lon="5.43025">
        <ele>237.2</ele>
        <time>2024-09-19T11:51:37Z</time>
      </trkpt>
      <trkpt lat="45.76926" lon="5.43017">
        <ele>237.2</ele>
        <time>2024-09-19T11:51:38Z</time>
      </trkpt>
      <trkpt lat="45.76923" lon="5.43009">
        <ele>237.2</ele>
        <time>2024-09-19T11:51:39Z</time>
      </trkpt>
      <trkpt lat="45.7692" lon="5.43002">
        <ele>237.2</ele>
        <time>2024-09-19T11:51:40Z</time>
      </trkpt>
      <trkpt lat="45.76918" lon="5.42994">
        <ele>237.2</ele>
        <time>2024-09-19T11:51:41Z</time>
      </trkpt>
      <trkpt lat="45.76916" lon="5.42985">
        <ele>237.2</ele>
        <time>2024-09-19T11:51:42Z</time>
      </trkpt>
      <trkpt lat="45.76914" lon="5.42976">
        <ele>237.2</ele>
        <time>2024-09-19T11:51:43Z</time>
      </trkpt>
      <trkpt lat="45.76912" lon="5.42966">
        <ele>237</ele>
        <time>2024-09-19T11:51:44Z</time>
      </trkpt>
      <trkpt lat="45.76912" lon="5.42956">
        <ele>236.6</ele>
        <time>2024-09-19T11:51:45Z</time>
      </trkpt>
      <trkpt lat="45.7691" lon="5.42945">
        <ele>236.2</ele>
        <time>2024-09-19T11:51:46Z</time>
      </trkpt>
      <trkpt lat="45.76907" lon="5.42935">
        <ele>235.8</ele>
        <time>2024-09-19T11:51:47Z</time>
      </trkpt>
      <trkpt lat="45.76904" lon="5.42925">
        <ele>235.6</ele>
        <time>2024-09-19T11:51:48Z</time>
      </trkpt>
      <trkpt lat="45.769" lon="5.42915">
        <ele>235.2</ele>
        <time>2024-09-19T11:51:49Z</time>
      </trkpt>
      <trkpt lat="45.76896" lon="5.42906">
        <ele>235.2</ele>
        <time>2024-09-19T11:51:50Z</time>
      </trkpt>
      <trkpt lat="45.76892" lon="5.42896">
        <ele>235.2</ele>
        <time>2024-09-19T11:51:51Z</time>
      </trkpt>
      <trkpt lat="45.76888" lon="5.42886">
        <ele>235</ele>
        <time>2024-09-19T11:51:52Z</time>
      </trkpt>
      <trkpt lat="45.76884" lon="5.42879">
        <ele>235</ele>
        <time>2024-09-19T11:51:53Z</time>
      </trkpt>
      <trkpt lat="45.76879" lon="5.4287">
        <ele>235</ele>
        <time>2024-09-19T11:51:54Z</time>
      </trkpt>
      <trkpt lat="45.76874" lon="5.42862">
        <ele>235</ele>
        <time>2024-09-19T11:51:55Z</time>
      </trkpt>
      <trkpt lat="45.7687" lon="5.42855">
        <ele>235.4</ele>
        <time>2024-09-19T11:51:56Z</time>
      </trkpt>
      <trkpt lat="45.76864" lon="5.42848">
        <ele>235.4</ele>
        <time>2024-09-19T11:51:57Z</time>
      </trkpt>
      <trkpt lat="45.76859" lon="5.42841">
        <ele>235.4</ele>
        <time>2024-09-19T11:51:58Z</time>
      </trkpt>
      <trkpt lat="45.76854" lon="5.42835">
        <ele>235.4</ele>
        <time>2024-09-19T11:51:59Z</time>
      </trkpt>
      <trkpt lat="45.76848" lon="5.42828">
        <ele>235.4</ele>
        <time>2024-09-19T11:52:00Z</time>
      </trkpt>
      <trkpt lat="45.76844" lon="5.42822">
        <ele>235.4</ele>
        <time>2024-09-19T11:52:01Z</time>
      </trkpt>
      <trkpt lat="45.76838" lon="5.42816">
        <ele>235.4</ele>
        <time>2024-09-19T11:52:02Z</time>
      </trkpt>
      <trkpt lat="45.76832" lon="5.42811">
        <ele>235.4</ele>
        <time>2024-09-19T11:52:03Z</time>
      </trkpt>
      <trkpt lat="45.76827" lon="5.42805">
        <ele>235.4</ele>
        <time>2024-09-19T11:52:04Z</time>
      </trkpt>
      <trkpt lat="45.76822" lon="5.428">
        <ele>235.6</ele>
        <time>2024-09-19T11:52:05Z</time>
      </trkpt>
      <trkpt lat="45.76816" lon="5.42793">
        <ele>235.6</ele>
        <time>2024-09-19T11:52:06Z</time>
      </trkpt>
      <trkpt lat="45.76811" lon="5.42787">
        <ele>235.6</ele>
        <time>2024-09-19T11:52:07Z</time>
      </trkpt>
      <trkpt lat="45.76806" lon="5.4278">
        <ele>235.6</ele>
        <time>2024-09-19T11:52:08Z</time>
      </trkpt>
      <trkpt lat="45.76802" lon="5.42774">
        <ele>235.6</ele>
        <time>2024-09-19T11:52:09Z</time>
      </trkpt>
      <trkpt lat="45.76797" lon="5.42767">
        <ele>235.2</ele>
        <time>2024-09-19T11:52:10Z</time>
      </trkpt>
      <trkpt lat="45.76792" lon="5.4276">
        <ele>234.8</ele>
        <time>2024-09-19T11:52:11Z</time>
      </trkpt>
      <trkpt lat="45.76788" lon="5.42752">
        <ele>234.8</ele>
        <time>2024-09-19T11:52:12Z</time>
      </trkpt>
      <trkpt lat="45.76784" lon="5.42745">
        <ele>234.8</ele>
        <time>2024-09-19T11:52:13Z</time>
      </trkpt>
      <trkpt lat="45.76779" lon="5.42737">
        <ele>234.8</ele>
        <time>2024-09-19T11:52:14Z</time>
      </trkpt>
      <trkpt lat="45.76775" lon="5.42729">
        <ele>234.8</ele>
        <time>2024-09-19T11:52:15Z</time>
      </trkpt>
      <trkpt lat="45.7677" lon="5.42721">
        <ele>234.6</ele>
        <time>2024-09-19T11:52:16Z</time>
      </trkpt>
      <trkpt lat="45.76765" lon="5.42713">
        <ele>234.6</ele>
        <time>2024-09-19T11:52:17Z</time>
      </trkpt>
      <trkpt lat="45.76763" lon="5.42705">
        <ele>234.6</ele>
        <time>2024-09-19T11:52:18Z</time>
      </trkpt>
      <trkpt lat="45.76759" lon="5.42696">
        <ele>234.6</ele>
        <time>2024-09-19T11:52:19Z</time>
      </trkpt>
      <trkpt lat="45.76756" lon="5.42687">
        <ele>234.8</ele>
        <time>2024-09-19T11:52:20Z</time>
      </trkpt>
      <trkpt lat="45.76753" lon="5.42679">
        <ele>234.8</ele>
        <time>2024-09-19T11:52:21Z</time>
      </trkpt>
      <trkpt lat="45.76751" lon="5.42671">
        <ele>235</ele>
        <time>2024-09-19T11:52:22Z</time>
      </trkpt>
      <trkpt lat="45.76749" lon="5.42662">
        <ele>235</ele>
        <time>2024-09-19T11:52:23Z</time>
      </trkpt>
      <trkpt lat="45.76746" lon="5.42655">
        <ele>235</ele>
        <time>2024-09-19T11:52:24Z</time>
      </trkpt>
      <trkpt lat="45.76743" lon="5.42647">
        <ele>235.4</ele>
        <time>2024-09-19T11:52:25Z</time>
      </trkpt>
      <trkpt lat="45.7674" lon="5.42641">
        <ele>235.8</ele>
        <time>2024-09-19T11:52:26Z</time>
      </trkpt>
      <trkpt lat="45.76736" lon="5.42635">
        <ele>235.8</ele>
        <time>2024-09-19T11:52:27Z</time>
      </trkpt>
      <trkpt lat="45.76733" lon="5.42628">
        <ele>236</ele>
        <time>2024-09-19T11:52:28Z</time>
      </trkpt>
      <trkpt lat="45.76729" lon="5.42623">
        <ele>236.4</ele>
        <time>2024-09-19T11:52:29Z</time>
      </trkpt>
      <trkpt lat="45.76725" lon="5.42617">
        <ele>236.4</ele>
        <time>2024-09-19T11:52:30Z</time>
      </trkpt>
      <trkpt lat="45.76721" lon="5.42613">
        <ele>236.4</ele>
        <time>2024-09-19T11:52:31Z</time>
      </trkpt>
      <trkpt lat="45.76717" lon="5.42609">
        <ele>236.4</ele>
        <time>2024-09-19T11:52:32Z</time>
      </trkpt>
      <trkpt lat="45.76712" lon="5.42605">
        <ele>236.4</ele>
        <time>2024-09-19T11:52:33Z</time>
      </trkpt>
      <trkpt lat="45.76706" lon="5.42602">
        <ele>236.8</ele>
        <time>2024-09-19T11:52:34Z</time>
      </trkpt>
      <trkpt lat="45.76701" lon="5.42599">
        <ele>236.8</ele>
        <time>2024-09-19T11:52:35Z</time>
      </trkpt>
      <trkpt lat="45.76696" lon="5.42596">
        <ele>236.8</ele>
        <time>2024-09-19T11:52:36Z</time>
      </trkpt>
      <trkpt lat="45.76691" lon="5.42592">
        <ele>236.8</ele>
        <time>2024-09-19T11:52:37Z</time>
      </trkpt>
      <trkpt lat="45.76685" lon="5.42589">
        <ele>236.8</ele>
        <time>2024-09-19T11:52:38Z</time>
      </trkpt>
      <trkpt lat="45.76681" lon="5.42584">
        <ele>237</ele>
        <time>2024-09-19T11:52:39Z</time>
      </trkpt>
      <trkpt lat="45.76675" lon="5.42582">
        <ele>237</ele>
        <time>2024-09-19T11:52:40Z</time>
      </trkpt>
      <trkpt lat="45.76669" lon="5.42578">
        <ele>237.2</ele>
        <time>2024-09-19T11:52:41Z</time>
      </trkpt>
      <trkpt lat="45.76664" lon="5.42574">
        <ele>237.2</ele>
        <time>2024-09-19T11:52:42Z</time>
      </trkpt>
      <trkpt lat="45.76658" lon="5.42571">
        <ele>237.2</ele>
        <time>2024-09-19T11:52:43Z</time>
      </trkpt>
      <trkpt lat="45.76653" lon="5.42567">
        <ele>237.2</ele>
        <time>2024-09-19T11:52:44Z</time>
      </trkpt>
      <trkpt lat="45.76648" lon="5.42564">
        <ele>237.2</ele>
        <time>2024-09-19T11:52:45Z</time>
      </trkpt>
      <trkpt lat="45.76642" lon="5.4256">
        <ele>237.4</ele>
        <time>2024-09-19T11:52:46Z</time>
      </trkpt>
      <trkpt lat="45.76636" lon="5.42557">
        <ele>237.4</ele>
        <time>2024-09-19T11:52:47Z</time>
      </trkpt>
      <trkpt lat="45.76631" lon="5.42553">
        <ele>237.4</ele>
        <time>2024-09-19T11:52:48Z</time>
      </trkpt>
      <trkpt lat="45.76625" lon="5.42549">
        <ele>237.4</ele>
        <time>2024-09-19T11:52:49Z</time>
      </trkpt>
      <trkpt lat="45.7662" lon="5.42545">
        <ele>237.2</ele>
        <time>2024-09-19T11:52:50Z</time>
      </trkpt>
      <trkpt lat="45.76614" lon="5.4254">
        <ele>237.2</ele>
        <time>2024-09-19T11:52:51Z</time>
      </trkpt>
      <trkpt lat="45.76608" lon="5.42537">
        <ele>237.2</ele>
        <time>2024-09-19T11:52:52Z</time>
      </trkpt>
      <trkpt lat="45.76604" lon="5.42533">
        <ele>237.2</ele>
        <time>2024-09-19T11:52:53Z</time>
      </trkpt>
      <trkpt lat="45.76598" lon="5.42529">
        <ele>237.2</ele>
        <time>2024-09-19T11:52:54Z</time>
      </trkpt>
      <trkpt lat="45.76593" lon="5.42526">
        <ele>237.2</ele>
        <time>2024-09-19T11:52:55Z</time>
      </trkpt>
      <trkpt lat="45.76587" lon="5.42522">
        <ele>237.2</ele>
        <time>2024-09-19T11:52:56Z</time>
      </trkpt>
      <trkpt lat="45.76582" lon="5.42518">
        <ele>237</ele>
        <time>2024-09-19T11:52:57Z</time>
      </trkpt>
      <trkpt lat="45.76576" lon="5.42514">
        <ele>237</ele>
        <time>2024-09-19T11:52:58Z</time>
      </trkpt>
      <trkpt lat="45.76571" lon="5.42511">
        <ele>236.6</ele>
        <time>2024-09-19T11:52:59Z</time>
      </trkpt>
      <trkpt lat="45.76565" lon="5.42507">
        <ele>236.6</ele>
        <time>2024-09-19T11:53:00Z</time>
      </trkpt>
      <trkpt lat="45.76559" lon="5.42504">
        <ele>236.6</ele>
        <time>2024-09-19T11:53:01Z</time>
      </trkpt>
      <trkpt lat="45.76554" lon="5.425">
        <ele>236.6</ele>
        <time>2024-09-19T11:53:02Z</time>
      </trkpt>
      <trkpt lat="45.76548" lon="5.42497">
        <ele>237</ele>
        <time>2024-09-19T11:53:03Z</time>
      </trkpt>
      <trkpt lat="45.76542" lon="5.42495">
        <ele>237</ele>
        <time>2024-09-19T11:53:04Z</time>
      </trkpt>
      <trkpt lat="45.76536" lon="5.42492">
        <ele>237</ele>
        <time>2024-09-19T11:53:05Z</time>
      </trkpt>
      <trkpt lat="45.7653" lon="5.42489">
        <ele>237</ele>
        <time>2024-09-19T11:53:06Z</time>
      </trkpt>
      <trkpt lat="45.76524" lon="5.42486">
        <ele>237</ele>
        <time>2024-09-19T11:53:07Z</time>
      </trkpt>
      <trkpt lat="45.76519" lon="5.42483">
        <ele>237</ele>
        <time>2024-09-19T11:53:08Z</time>
      </trkpt>
      <trkpt lat="45.76512" lon="5.42479">
        <ele>237</ele>
        <time>2024-09-19T11:53:09Z</time>
      </trkpt>
      <trkpt lat="45.76507" lon="5.42476">
        <ele>237</ele>
        <time>2024-09-19T11:53:10Z</time>
      </trkpt>
      <trkpt lat="45.76502" lon="5.42472">
        <ele>237</ele>
        <time>2024-09-19T11:53:11Z</time>
      </trkpt>
      <trkpt lat="45.76496" lon="5.42468">
        <ele>236.8</ele>
        <time>2024-09-19T11:53:12Z</time>
      </trkpt>
      <trkpt lat="45.7649" lon="5.42465">
        <ele>236.8</ele>
        <time>2024-09-19T11:53:13Z</time>
      </trkpt>
      <trkpt lat="45.76484" lon="5.42461">
        <ele>236.8</ele>
        <time>2024-09-19T11:53:14Z</time>
      </trkpt>
      <trkpt lat="45.76478" lon="5.4246">
        <ele>237</ele>
        <time>2024-09-19T11:53:15Z</time>
      </trkpt>
      <trkpt lat="45.76472" lon="5.4246">
        <ele>237</ele>
        <time>2024-09-19T11:53:16Z</time>
      </trkpt>
      <trkpt lat="45.76465" lon="5.4246">
        <ele>237</ele>
        <time>2024-09-19T11:53:17Z</time>
      </trkpt>
      <trkpt lat="45.76458" lon="5.42461">
        <ele>237.2</ele>
        <time>2024-09-19T11:53:18Z</time>
      </trkpt>
      <trkpt lat="45.76452" lon="5.42461">
        <ele>237.2</ele>
        <time>2024-09-19T11:53:19Z</time>
      </trkpt>
      <trkpt lat="45.76446" lon="5.42463">
        <ele>237</ele>
        <time>2024-09-19T11:53:20Z</time>
      </trkpt>
      <trkpt lat="45.76439" lon="5.42463">
        <ele>237</ele>
        <time>2024-09-19T11:53:21Z</time>
      </trkpt>
      <trkpt lat="45.76433" lon="5.42465">
        <ele>236.6</ele>
        <time>2024-09-19T11:53:22Z</time>
      </trkpt>
      <trkpt lat="45.76426" lon="5.42466">
        <ele>236.6</ele>
        <time>2024-09-19T11:53:23Z</time>
      </trkpt>
      <trkpt lat="45.7642" lon="5.42468">
        <ele>236.6</ele>
        <time>2024-09-19T11:53:24Z</time>
      </trkpt>
      <trkpt lat="45.76414" lon="5.4247">
        <ele>236.6</ele>
        <time>2024-09-19T11:53:25Z</time>
      </trkpt>
      <trkpt lat="45.76408" lon="5.42473">
        <ele>236.6</ele>
        <time>2024-09-19T11:53:26Z</time>
      </trkpt>
      <trkpt lat="45.76402" lon="5.42474">
        <ele>236.6</ele>
        <time>2024-09-19T11:53:27Z</time>
      </trkpt>
      <trkpt lat="45.76396" lon="5.42478">
        <ele>236.6</ele>
        <time>2024-09-19T11:53:28Z</time>
      </trkpt>
      <trkpt lat="45.7639" lon="5.4248">
        <ele>237</ele>
        <time>2024-09-19T11:53:29Z</time>
      </trkpt>
      <trkpt lat="45.76385" lon="5.42483">
        <ele>237</ele>
        <time>2024-09-19T11:53:30Z</time>
      </trkpt>
      <trkpt lat="45.76378" lon="5.42484">
        <ele>237</ele>
        <time>2024-09-19T11:53:31Z</time>
      </trkpt>
      <trkpt lat="45.76372" lon="5.42483">
        <ele>237</ele>
        <time>2024-09-19T11:53:32Z</time>
      </trkpt>
      <trkpt lat="45.76366" lon="5.42481">
        <ele>237</ele>
        <time>2024-09-19T11:53:33Z</time>
      </trkpt>
      <trkpt lat="45.7636" lon="5.42477">
        <ele>237</ele>
        <time>2024-09-19T11:53:34Z</time>
      </trkpt>
      <trkpt lat="45.76354" lon="5.42472">
        <ele>237</ele>
        <time>2024-09-19T11:53:35Z</time>
      </trkpt>
      <trkpt lat="45.76349" lon="5.42467">
        <ele>237</ele>
        <time>2024-09-19T11:53:36Z</time>
      </trkpt>
      <trkpt lat="45.76344" lon="5.42462">
        <ele>237</ele>
        <time>2024-09-19T11:53:37Z</time>
      </trkpt>
      <trkpt lat="45.76338" lon="5.42458">
        <ele>237</ele>
        <time>2024-09-19T11:53:38Z</time>
      </trkpt>
      <trkpt lat="45.76331" lon="5.42455">
        <ele>237</ele>
        <time>2024-09-19T11:53:39Z</time>
      </trkpt>
      <trkpt lat="45.76325" lon="5.42453">
        <ele>237</ele>
        <time>2024-09-19T11:53:40Z</time>
      </trkpt>
      <trkpt lat="45.76318" lon="5.42453">
        <ele>236.8</ele>
        <time>2024-09-19T11:53:41Z</time>
      </trkpt>
      <trkpt lat="45.76311" lon="5.42454">
        <ele>236.8</ele>
        <time>2024-09-19T11:53:42Z</time>
      </trkpt>
      <trkpt lat="45.76305" lon="5.42457">
        <ele>236.8</ele>
        <time>2024-09-19T11:53:43Z</time>
      </trkpt>
      <trkpt lat="45.763" lon="5.4246">
        <ele>236.8</ele>
        <time>2024-09-19T11:53:44Z</time>
      </trkpt>
      <trkpt lat="45.76295" lon="5.42464">
        <ele>236.8</ele>
        <time>2024-09-19T11:53:45Z</time>
      </trkpt>
      <trkpt lat="45.76289" lon="5.42466">
        <ele>236.8</ele>
        <time>2024-09-19T11:53:46Z</time>
      </trkpt>
      <trkpt lat="45.76283" lon="5.42467">
        <ele>236.8</ele>
        <time>2024-09-19T11:53:47Z</time>
      </trkpt>
      <trkpt lat="45.76276" lon="5.4247">
        <ele>236.8</ele>
        <time>2024-09-19T11:53:48Z</time>
      </trkpt>
      <trkpt lat="45.7627" lon="5.42468">
        <ele>236.8</ele>
        <time>2024-09-19T11:53:49Z</time>
      </trkpt>
      <trkpt lat="45.76264" lon="5.42468">
        <ele>236.8</ele>
        <time>2024-09-19T11:53:50Z</time>
      </trkpt>
      <trkpt lat="45.76259" lon="5.42467">
        <ele>236.8</ele>
        <time>2024-09-19T11:53:51Z</time>
      </trkpt>
      <trkpt lat="45.7625" lon="5.42465">
        <ele>236.8</ele>
        <time>2024-09-19T11:53:52Z</time>
      </trkpt>
      <trkpt lat="45.76244" lon="5.42464">
        <ele>236.8</ele>
        <time>2024-09-19T11:53:53Z</time>
      </trkpt>
      <trkpt lat="45.76237" lon="5.42464">
        <ele>236.8</ele>
        <time>2024-09-19T11:53:54Z</time>
      </trkpt>
      <trkpt lat="45.76231" lon="5.42463">
        <ele>236.8</ele>
        <time>2024-09-19T11:53:55Z</time>
      </trkpt>
      <trkpt lat="45.76224" lon="5.42462">
        <ele>236.8</ele>
        <time>2024-09-19T11:53:56Z</time>
      </trkpt>
      <trkpt lat="45.76217" lon="5.42461">
        <ele>236.8</ele>
        <time>2024-09-19T11:53:57Z</time>
      </trkpt>
      <trkpt lat="45.76211" lon="5.4246">
        <ele>236.8</ele>
        <time>2024-09-19T11:53:58Z</time>
      </trkpt>
      <trkpt lat="45.76205" lon="5.4246">
        <ele>236</ele>
        <time>2024-09-19T11:53:59Z</time>
      </trkpt>
      <trkpt lat="45.76197" lon="5.42461">
        <ele>236.4</ele>
        <time>2024-09-19T11:54:00Z</time>
      </trkpt>
      <trkpt lat="45.7619" lon="5.42461">
        <ele>236.4</ele>
        <time>2024-09-19T11:54:01Z</time>
      </trkpt>
      <trkpt lat="45.76184" lon="5.42463">
        <ele>236</ele>
        <time>2024-09-19T11:54:02Z</time>
      </trkpt>
      <trkpt lat="45.76177" lon="5.42463">
        <ele>236</ele>
        <time>2024-09-19T11:54:03Z</time>
      </trkpt>
      <trkpt lat="45.76171" lon="5.42464">
        <ele>236</ele>
        <time>2024-09-19T11:54:04Z</time>
      </trkpt>
      <trkpt lat="45.76164" lon="5.42465">
        <ele>236</ele>
        <time>2024-09-19T11:54:05Z</time>
      </trkpt>
      <trkpt lat="45.76158" lon="5.42466">
        <ele>236</ele>
        <time>2024-09-19T11:54:06Z</time>
      </trkpt>
      <trkpt lat="45.76158" lon="5.42466">
        <ele>236</ele>
        <time>2024-09-19T11:54:07Z</time>
      </trkpt>
      <trkpt lat="45.76152" lon="5.42467">
        <ele>236.4</ele>
        <time>2024-09-19T11:54:08Z</time>
      </trkpt>
      <trkpt lat="45.76148" lon="5.42467">
        <ele>236.6</ele>
        <time>2024-09-19T11:54:09Z</time>
      </trkpt>
      <trkpt lat="45.76143" lon="5.42468">
        <ele>237</ele>
        <time>2024-09-19T11:54:10Z</time>
      </trkpt>
      <trkpt lat="45.76138" lon="5.42468">
        <ele>237</ele>
        <time>2024-09-19T11:54:11Z</time>
      </trkpt>
      <trkpt lat="45.76134" lon="5.4247">
        <ele>237.4</ele>
        <time>2024-09-19T11:54:12Z</time>
      </trkpt>
      <trkpt lat="45.7613" lon="5.4247">
        <ele>237.6</ele>
        <time>2024-09-19T11:54:13Z</time>
      </trkpt>
      <trkpt lat="45.76126" lon="5.42469">
        <ele>237.6</ele>
        <time>2024-09-19T11:54:14Z</time>
      </trkpt>
      <trkpt lat="45.76123" lon="5.4247">
        <ele>238</ele>
        <time>2024-09-19T11:54:15Z</time>
      </trkpt>
      <trkpt lat="45.76119" lon="5.42471">
        <ele>238.2</ele>
        <time>2024-09-19T11:54:16Z</time>
      </trkpt>
      <trkpt lat="45.76115" lon="5.42475">
        <ele>238.4</ele>
        <time>2024-09-19T11:54:17Z</time>
      </trkpt>
      <trkpt lat="45.76108" lon="5.4248">
        <ele>238.4</ele>
        <time>2024-09-19T11:54:18Z</time>
      </trkpt>
      <trkpt lat="45.76105" lon="5.42482">
        <ele>238.8</ele>
        <time>2024-09-19T11:54:19Z</time>
      </trkpt>
      <trkpt lat="45.76101" lon="5.42485">
        <ele>238.8</ele>
        <time>2024-09-19T11:54:20Z</time>
      </trkpt>
      <trkpt lat="45.76098" lon="5.42488">
        <ele>239.2</ele>
        <time>2024-09-19T11:54:21Z</time>
      </trkpt>
      <trkpt lat="45.76095" lon="5.4249">
        <ele>239.2</ele>
        <time>2024-09-19T11:54:22Z</time>
      </trkpt>
      <trkpt lat="45.76091" lon="5.42494">
        <ele>239.4</ele>
        <time>2024-09-19T11:54:23Z</time>
      </trkpt>
      <trkpt lat="45.76088" lon="5.42497">
        <ele>239.6</ele>
        <time>2024-09-19T11:54:24Z</time>
      </trkpt>
      <trkpt lat="45.76085" lon="5.42501">
        <ele>239.6</ele>
        <time>2024-09-19T11:54:25Z</time>
      </trkpt>
      <trkpt lat="45.76082" lon="5.42505">
        <ele>240</ele>
        <time>2024-09-19T11:54:26Z</time>
      </trkpt>
      <trkpt lat="45.7608" lon="5.42509">
        <ele>240</ele>
        <time>2024-09-19T11:54:27Z</time>
      </trkpt>
      <trkpt lat="45.76077" lon="5.42513">
        <ele>240</ele>
        <time>2024-09-19T11:54:28Z</time>
      </trkpt>
      <trkpt lat="45.76074" lon="5.42518">
        <ele>240.6</ele>
        <time>2024-09-19T11:54:29Z</time>
      </trkpt>
      <trkpt lat="45.76072" lon="5.42522">
        <ele>240.6</ele>
        <time>2024-09-19T11:54:30Z</time>
      </trkpt>
      <trkpt lat="45.76069" lon="5.42526">
        <ele>240.6</ele>
        <time>2024-09-19T11:54:31Z</time>
      </trkpt>
      <trkpt lat="45.76066" lon="5.42531">
        <ele>240.8</ele>
        <time>2024-09-19T11:54:32Z</time>
      </trkpt>
      <trkpt lat="45.76064" lon="5.42536">
        <ele>240.8</ele>
        <time>2024-09-19T11:54:33Z</time>
      </trkpt>
      <trkpt lat="45.76062" lon="5.42541">
        <ele>241.2</ele>
        <time>2024-09-19T11:54:34Z</time>
      </trkpt>
      <trkpt lat="45.76059" lon="5.42545">
        <ele>241.2</ele>
        <time>2024-09-19T11:54:35Z</time>
      </trkpt>
      <trkpt lat="45.76057" lon="5.4255">
        <ele>241.2</ele>
        <time>2024-09-19T11:54:36Z</time>
      </trkpt>
      <trkpt lat="45.76054" lon="5.42555">
        <ele>241.2</ele>
        <time>2024-09-19T11:54:37Z</time>
      </trkpt>
      <trkpt lat="45.76051" lon="5.4256">
        <ele>241.2</ele>
        <time>2024-09-19T11:54:38Z</time>
      </trkpt>
      <trkpt lat="45.76049" lon="5.42565">
        <ele>241.4</ele>
        <time>2024-09-19T11:54:39Z</time>
      </trkpt>
      <trkpt lat="45.76046" lon="5.4257">
        <ele>241.4</ele>
        <time>2024-09-19T11:54:40Z</time>
      </trkpt>
      <trkpt lat="45.76043" lon="5.42575">
        <ele>241.4</ele>
        <time>2024-09-19T11:54:41Z</time>
      </trkpt>
      <trkpt lat="45.76041" lon="5.4258">
        <ele>241.4</ele>
        <time>2024-09-19T11:54:42Z</time>
      </trkpt>
      <trkpt lat="45.76038" lon="5.42586">
        <ele>241.6</ele>
        <time>2024-09-19T11:54:43Z</time>
      </trkpt>
      <trkpt lat="45.76035" lon="5.42591">
        <ele>241.6</ele>
        <time>2024-09-19T11:54:44Z</time>
      </trkpt>
      <trkpt lat="45.76032" lon="5.42596">
        <ele>242</ele>
        <time>2024-09-19T11:54:45Z</time>
      </trkpt>
      <trkpt lat="45.76029" lon="5.426">
        <ele>242</ele>
        <time>2024-09-19T11:54:46Z</time>
      </trkpt>
      <trkpt lat="45.76026" lon="5.42605">
        <ele>242</ele>
        <time>2024-09-19T11:54:47Z</time>
      </trkpt>
      <trkpt lat="45.76021" lon="5.42609">
        <ele>242</ele>
        <time>2024-09-19T11:54:48Z</time>
      </trkpt>
      <trkpt lat="45.76017" lon="5.42613">
        <ele>242</ele>
        <time>2024-09-19T11:54:49Z</time>
      </trkpt>
      <trkpt lat="45.76012" lon="5.42615">
        <ele>242</ele>
        <time>2024-09-19T11:54:50Z</time>
      </trkpt>
      <trkpt lat="45.76007" lon="5.42617">
        <ele>242</ele>
        <time>2024-09-19T11:54:51Z</time>
      </trkpt>
      <trkpt lat="45.76002" lon="5.42618">
        <ele>242.2</ele>
        <time>2024-09-19T11:54:52Z</time>
      </trkpt>
      <trkpt lat="45.75997" lon="5.42619">
        <ele>242.2</ele>
        <time>2024-09-19T11:54:53Z</time>
      </trkpt>
      <trkpt lat="45.75992" lon="5.42621">
        <ele>242.2</ele>
        <time>2024-09-19T11:54:54Z</time>
      </trkpt>
      <trkpt lat="45.75986" lon="5.42622">
        <ele>242.2</ele>
        <time>2024-09-19T11:54:55Z</time>
      </trkpt>
      <trkpt lat="45.7598" lon="5.42622">
        <ele>242.2</ele>
        <time>2024-09-19T11:54:56Z</time>
      </trkpt>
      <trkpt lat="45.75975" lon="5.42624">
        <ele>242.2</ele>
        <time>2024-09-19T11:54:57Z</time>
      </trkpt>
      <trkpt lat="45.75969" lon="5.42624">
        <ele>242.2</ele>
        <time>2024-09-19T11:54:58Z</time>
      </trkpt>
      <trkpt lat="45.75964" lon="5.42625">
        <ele>242.2</ele>
        <time>2024-09-19T11:54:59Z</time>
      </trkpt>
      <trkpt lat="45.75958" lon="5.42626">
        <ele>242.4</ele>
        <time>2024-09-19T11:55:00Z</time>
      </trkpt>
      <trkpt lat="45.75953" lon="5.42627">
        <ele>242.4</ele>
        <time>2024-09-19T11:55:01Z</time>
      </trkpt>
      <trkpt lat="45.75947" lon="5.42628">
        <ele>242.4</ele>
        <time>2024-09-19T11:55:02Z</time>
      </trkpt>
      <trkpt lat="45.75942" lon="5.42629">
        <ele>242.4</ele>
        <time>2024-09-19T11:55:03Z</time>
      </trkpt>
      <trkpt lat="45.75936" lon="5.42631">
        <ele>242.2</ele>
        <time>2024-09-19T11:55:04Z</time>
      </trkpt>
      <trkpt lat="45.7593" lon="5.42632">
        <ele>242.2</ele>
        <time>2024-09-19T11:55:05Z</time>
      </trkpt>
      <trkpt lat="45.75925" lon="5.42633">
        <ele>242.2</ele>
        <time>2024-09-19T11:55:06Z</time>
      </trkpt>
      <trkpt lat="45.75919" lon="5.42634">
        <ele>242.2</ele>
        <time>2024-09-19T11:55:07Z</time>
      </trkpt>
      <trkpt lat="45.75914" lon="5.42635">
        <ele>241.8</ele>
        <time>2024-09-19T11:55:08Z</time>
      </trkpt>
      <trkpt lat="45.75908" lon="5.42636">
        <ele>241.8</ele>
        <time>2024-09-19T11:55:09Z</time>
      </trkpt>
      <trkpt lat="45.75903" lon="5.42636">
        <ele>241.8</ele>
        <time>2024-09-19T11:55:10Z</time>
      </trkpt>
      <trkpt lat="45.75898" lon="5.42637">
        <ele>241.8</ele>
        <time>2024-09-19T11:55:11Z</time>
      </trkpt>
      <trkpt lat="45.75892" lon="5.42638">
        <ele>241.8</ele>
        <time>2024-09-19T11:55:12Z</time>
      </trkpt>
      <trkpt lat="45.75887" lon="5.4264">
        <ele>241.8</ele>
        <time>2024-09-19T11:55:13Z</time>
      </trkpt>
      <trkpt lat="45.75882" lon="5.42641">
        <ele>242.2</ele>
        <time>2024-09-19T11:55:14Z</time>
      </trkpt>
      <trkpt lat="45.75876" lon="5.42641">
        <ele>242.2</ele>
        <time>2024-09-19T11:55:15Z</time>
      </trkpt>
      <trkpt lat="45.7587" lon="5.42642">
        <ele>242.2</ele>
        <time>2024-09-19T11:55:16Z</time>
      </trkpt>
      <trkpt lat="45.75865" lon="5.42643">
        <ele>242.2</ele>
        <time>2024-09-19T11:55:17Z</time>
      </trkpt>
      <trkpt lat="45.75859" lon="5.42644">
        <ele>242.4</ele>
        <time>2024-09-19T11:55:18Z</time>
      </trkpt>
      <trkpt lat="45.75854" lon="5.42645">
        <ele>242.4</ele>
        <time>2024-09-19T11:55:19Z</time>
      </trkpt>
      <trkpt lat="45.75848" lon="5.42646">
        <ele>242.4</ele>
        <time>2024-09-19T11:55:20Z</time>
      </trkpt>
      <trkpt lat="45.75842" lon="5.42646">
        <ele>242.4</ele>
        <time>2024-09-19T11:55:21Z</time>
      </trkpt>
      <trkpt lat="45.75836" lon="5.42646">
        <ele>242.4</ele>
        <time>2024-09-19T11:55:22Z</time>
      </trkpt>
      <trkpt lat="45.7583" lon="5.42647">
        <ele>242.4</ele>
        <time>2024-09-19T11:55:23Z</time>
      </trkpt>
      <trkpt lat="45.75824" lon="5.42647">
        <ele>242.4</ele>
        <time>2024-09-19T11:55:24Z</time>
      </trkpt>
      <trkpt lat="45.75818" lon="5.42648">
        <ele>242.4</ele>
        <time>2024-09-19T11:55:25Z</time>
      </trkpt>
      <trkpt lat="45.75813" lon="5.42649">
        <ele>242.4</ele>
        <time>2024-09-19T11:55:26Z</time>
      </trkpt>
      <trkpt lat="45.75807" lon="5.4265">
        <ele>242.4</ele>
        <time>2024-09-19T11:55:27Z</time>
      </trkpt>
      <trkpt lat="45.75801" lon="5.4265">
        <ele>242.2</ele>
        <time>2024-09-19T11:55:28Z</time>
      </trkpt>
      <trkpt lat="45.75795" lon="5.4265">
        <ele>242.2</ele>
        <time>2024-09-19T11:55:29Z</time>
      </trkpt>
      <trkpt lat="45.75789" lon="5.4265">
        <ele>242.2</ele>
        <time>2024-09-19T11:55:30Z</time>
      </trkpt>
      <trkpt lat="45.75784" lon="5.42649">
        <ele>242.2</ele>
        <time>2024-09-19T11:55:31Z</time>
      </trkpt>
      <trkpt lat="45.75778" lon="5.42648">
        <ele>242.2</ele>
        <time>2024-09-19T11:55:32Z</time>
      </trkpt>
      <trkpt lat="45.75772" lon="5.42649">
        <ele>242.2</ele>
        <time>2024-09-19T11:55:33Z</time>
      </trkpt>
      <trkpt lat="45.75767" lon="5.42649">
        <ele>242.2</ele>
        <time>2024-09-19T11:55:34Z</time>
      </trkpt>
      <trkpt lat="45.75761" lon="5.42649">
        <ele>242.4</ele>
        <time>2024-09-19T11:55:35Z</time>
      </trkpt>
      <trkpt lat="45.75756" lon="5.42649">
        <ele>242.4</ele>
        <time>2024-09-19T11:55:36Z</time>
      </trkpt>
      <trkpt lat="45.75751" lon="5.4265">
        <ele>242.8</ele>
        <time>2024-09-19T11:55:37Z</time>
      </trkpt>
      <trkpt lat="45.75746" lon="5.4265">
        <ele>242.8</ele>
        <time>2024-09-19T11:55:38Z</time>
      </trkpt>
      <trkpt lat="45.75741" lon="5.4265">
        <ele>242.8</ele>
        <time>2024-09-19T11:55:39Z</time>
      </trkpt>
      <trkpt lat="45.75735" lon="5.42652">
        <ele>242.4</ele>
        <time>2024-09-19T11:55:40Z</time>
      </trkpt>
      <trkpt lat="45.75729" lon="5.42653">
        <ele>242.4</ele>
        <time>2024-09-19T11:55:41Z</time>
      </trkpt>
      <trkpt lat="45.75723" lon="5.42654">
        <ele>242.2</ele>
        <time>2024-09-19T11:55:42Z</time>
      </trkpt>
      <trkpt lat="45.75717" lon="5.42655">
        <ele>242.2</ele>
        <time>2024-09-19T11:55:43Z</time>
      </trkpt>
      <trkpt lat="45.75712" lon="5.42656">
        <ele>242.2</ele>
        <time>2024-09-19T11:55:44Z</time>
      </trkpt>
      <trkpt lat="45.75706" lon="5.42658">
        <ele>242.2</ele>
        <time>2024-09-19T11:55:45Z</time>
      </trkpt>
      <trkpt lat="45.75701" lon="5.42659">
        <ele>242.2</ele>
        <time>2024-09-19T11:55:46Z</time>
      </trkpt>
      <trkpt lat="45.75695" lon="5.42661">
        <ele>242.2</ele>
        <time>2024-09-19T11:55:47Z</time>
      </trkpt>
      <trkpt lat="45.7569" lon="5.42661">
        <ele>242.2</ele>
        <time>2024-09-19T11:55:48Z</time>
      </trkpt>
      <trkpt lat="45.75684" lon="5.42662">
        <ele>242.2</ele>
        <time>2024-09-19T11:55:49Z</time>
      </trkpt>
      <trkpt lat="45.75678" lon="5.42664">
        <ele>242.2</ele>
        <time>2024-09-19T11:55:50Z</time>
      </trkpt>
      <trkpt lat="45.75673" lon="5.42664">
        <ele>242.2</ele>
        <time>2024-09-19T11:55:51Z</time>
      </trkpt>
      <trkpt lat="45.75668" lon="5.42666">
        <ele>242.2</ele>
        <time>2024-09-19T11:55:52Z</time>
      </trkpt>
      <trkpt lat="45.75663" lon="5.42668">
        <ele>242.2</ele>
        <time>2024-09-19T11:55:53Z</time>
      </trkpt>
      <trkpt lat="45.75658" lon="5.42669">
        <ele>242.2</ele>
        <time>2024-09-19T11:55:54Z</time>
      </trkpt>
      <trkpt lat="45.75654" lon="5.42671">
        <ele>242.6</ele>
        <time>2024-09-19T11:55:55Z</time>
      </trkpt>
      <trkpt lat="45.75649" lon="5.42672">
        <ele>242.6</ele>
        <time>2024-09-19T11:55:56Z</time>
      </trkpt>
      <trkpt lat="45.75645" lon="5.42674">
        <ele>243</ele>
        <time>2024-09-19T11:55:57Z</time>
      </trkpt>
      <trkpt lat="45.75641" lon="5.42676">
        <ele>243</ele>
        <time>2024-09-19T11:55:58Z</time>
      </trkpt>
      <trkpt lat="45.75637" lon="5.42679">
        <ele>243.2</ele>
        <time>2024-09-19T11:55:59Z</time>
      </trkpt>
      <trkpt lat="45.75634" lon="5.42682">
        <ele>243.2</ele>
        <time>2024-09-19T11:56:00Z</time>
      </trkpt>
      <trkpt lat="45.75631" lon="5.42686">
        <ele>243.6</ele>
        <time>2024-09-19T11:56:01Z</time>
      </trkpt>
      <trkpt lat="45.75628" lon="5.42689">
        <ele>243.6</ele>
        <time>2024-09-19T11:56:02Z</time>
      </trkpt>
      <trkpt lat="45.75626" lon="5.42693">
        <ele>243.6</ele>
        <time>2024-09-19T11:56:03Z</time>
      </trkpt>
      <trkpt lat="45.75624" lon="5.42698">
        <ele>243.6</ele>
        <time>2024-09-19T11:56:04Z</time>
      </trkpt>
      <trkpt lat="45.75622" lon="5.42703">
        <ele>243.8</ele>
        <time>2024-09-19T11:56:05Z</time>
      </trkpt>
      <trkpt lat="45.7562" lon="5.42707">
        <ele>244</ele>
        <time>2024-09-19T11:56:06Z</time>
      </trkpt>
      <trkpt lat="45.75617" lon="5.4271">
        <ele>244.2</ele>
        <time>2024-09-19T11:56:07Z</time>
      </trkpt>
      <trkpt lat="45.75614" lon="5.42711">
        <ele>244.8</ele>
        <time>2024-09-19T11:56:08Z</time>
      </trkpt>
      <trkpt lat="45.75611" lon="5.4271">
        <ele>245.2</ele>
        <time>2024-09-19T11:56:09Z</time>
      </trkpt>
      <trkpt lat="45.75609" lon="5.42709">
        <ele>245.6</ele>
        <time>2024-09-19T11:56:10Z</time>
      </trkpt>
      <trkpt lat="45.75607" lon="5.42707">
        <ele>245.8</ele>
        <time>2024-09-19T11:56:11Z</time>
      </trkpt>
      <trkpt lat="45.75606" lon="5.42704">
        <ele>246</ele>
        <time>2024-09-19T11:56:12Z</time>
      </trkpt>
      <trkpt lat="45.75605" lon="5.42701">
        <ele>246</ele>
        <time>2024-09-19T11:56:13Z</time>
      </trkpt>
      <trkpt lat="45.75605" lon="5.42696">
        <ele>246.4</ele>
        <time>2024-09-19T11:56:14Z</time>
      </trkpt>
      <trkpt lat="45.75603" lon="5.4269">
        <ele>246.4</ele>
        <time>2024-09-19T11:56:15Z</time>
      </trkpt>
      <trkpt lat="45.75602" lon="5.42685">
        <ele>246.6</ele>
        <time>2024-09-19T11:56:16Z</time>
      </trkpt>
      <trkpt lat="45.756" lon="5.4268">
        <ele>246.6</ele>
        <time>2024-09-19T11:56:17Z</time>
      </trkpt>
      <trkpt lat="45.75598" lon="5.42676">
        <ele>247</ele>
        <time>2024-09-19T11:56:18Z</time>
      </trkpt>
      <trkpt lat="45.75596" lon="5.42671">
        <ele>247</ele>
        <time>2024-09-19T11:56:19Z</time>
      </trkpt>
      <trkpt lat="45.75594" lon="5.42667">
        <ele>247</ele>
        <time>2024-09-19T11:56:20Z</time>
      </trkpt>
      <trkpt lat="45.75592" lon="5.42662">
        <ele>247</ele>
        <time>2024-09-19T11:56:21Z</time>
      </trkpt>
      <trkpt lat="45.75589" lon="5.42658">
        <ele>247</ele>
        <time>2024-09-19T11:56:22Z</time>
      </trkpt>
      <trkpt lat="45.75586" lon="5.42654">
        <ele>247</ele>
        <time>2024-09-19T11:56:23Z</time>
      </trkpt>
      <trkpt lat="45.75584" lon="5.4265">
        <ele>247.4</ele>
        <time>2024-09-19T11:56:24Z</time>
      </trkpt>
      <trkpt lat="45.75581" lon="5.42645">
        <ele>247.4</ele>
        <time>2024-09-19T11:56:25Z</time>
      </trkpt>
      <trkpt lat="45.75578" lon="5.4264">
        <ele>247.6</ele>
        <time>2024-09-19T11:56:26Z</time>
      </trkpt>
      <trkpt lat="45.75576" lon="5.42636">
        <ele>247.6</ele>
        <time>2024-09-19T11:56:27Z</time>
      </trkpt>
      <trkpt lat="45.75573" lon="5.42631">
        <ele>247.6</ele>
        <time>2024-09-19T11:56:28Z</time>
      </trkpt>
      <trkpt lat="45.7557" lon="5.42627">
        <ele>247.6</ele>
        <time>2024-09-19T11:56:29Z</time>
      </trkpt>
      <trkpt lat="45.75568" lon="5.42623">
        <ele>247.6</ele>
        <time>2024-09-19T11:56:30Z</time>
      </trkpt>
      <trkpt lat="45.75565" lon="5.42618">
        <ele>247.6</ele>
        <time>2024-09-19T11:56:31Z</time>
      </trkpt>
      <trkpt lat="45.75562" lon="5.42614">
        <ele>248</ele>
        <time>2024-09-19T11:56:32Z</time>
      </trkpt>
      <trkpt lat="45.7556" lon="5.42609">
        <ele>248</ele>
        <time>2024-09-19T11:56:33Z</time>
      </trkpt>
      <trkpt lat="45.75557" lon="5.42605">
        <ele>248</ele>
        <time>2024-09-19T11:56:34Z</time>
      </trkpt>
      <trkpt lat="45.75554" lon="5.42601">
        <ele>248.4</ele>
        <time>2024-09-19T11:56:35Z</time>
      </trkpt>
      <trkpt lat="45.75551" lon="5.42597">
        <ele>248.4</ele>
        <time>2024-09-19T11:56:36Z</time>
      </trkpt>
      <trkpt lat="45.75547" lon="5.42593">
        <ele>248.4</ele>
        <time>2024-09-19T11:56:37Z</time>
      </trkpt>
      <trkpt lat="45.75543" lon="5.4259">
        <ele>248.4</ele>
        <time>2024-09-19T11:56:38Z</time>
      </trkpt>
      <trkpt lat="45.75538" lon="5.42587">
        <ele>248.4</ele>
        <time>2024-09-19T11:56:39Z</time>
      </trkpt>
      <trkpt lat="45.75533" lon="5.42585">
        <ele>248.2</ele>
        <time>2024-09-19T11:56:40Z</time>
      </trkpt>
      <trkpt lat="45.75528" lon="5.42582">
        <ele>247.8</ele>
        <time>2024-09-19T11:56:41Z</time>
      </trkpt>
      <trkpt lat="45.75522" lon="5.42581">
        <ele>247.6</ele>
        <time>2024-09-19T11:56:42Z</time>
      </trkpt>
      <trkpt lat="45.75517" lon="5.42579">
        <ele>247.2</ele>
        <time>2024-09-19T11:56:43Z</time>
      </trkpt>
      <trkpt lat="45.7551" lon="5.42576">
        <ele>247</ele>
        <time>2024-09-19T11:56:44Z</time>
      </trkpt>
      <trkpt lat="45.75504" lon="5.42575">
        <ele>246.6</ele>
        <time>2024-09-19T11:56:45Z</time>
      </trkpt>
      <trkpt lat="45.75497" lon="5.42573">
        <ele>246</ele>
        <time>2024-09-19T11:56:46Z</time>
      </trkpt>
      <trkpt lat="45.7549" lon="5.4257">
        <ele>245.2</ele>
        <time>2024-09-19T11:56:47Z</time>
      </trkpt>
      <trkpt lat="45.75483" lon="5.42568">
        <ele>245</ele>
        <time>2024-09-19T11:56:48Z</time>
      </trkpt>
      <trkpt lat="45.75476" lon="5.42566">
        <ele>244.4</ele>
        <time>2024-09-19T11:56:49Z</time>
      </trkpt>
      <trkpt lat="45.75468" lon="5.42564">
        <ele>243.8</ele>
        <time>2024-09-19T11:56:50Z</time>
      </trkpt>
      <trkpt lat="45.75461" lon="5.42561">
        <ele>243.4</ele>
        <time>2024-09-19T11:56:51Z</time>
      </trkpt>
      <trkpt lat="45.75453" lon="5.42559">
        <ele>243</ele>
        <time>2024-09-19T11:56:52Z</time>
      </trkpt>
      <trkpt lat="45.75445" lon="5.42557">
        <ele>243</ele>
        <time>2024-09-19T11:56:53Z</time>
      </trkpt>
      <trkpt lat="45.75437" lon="5.42555">
        <ele>242.8</ele>
        <time>2024-09-19T11:56:54Z</time>
      </trkpt>
      <trkpt lat="45.7543" lon="5.42554">
        <ele>242.6</ele>
        <time>2024-09-19T11:56:55Z</time>
      </trkpt>
      <trkpt lat="45.75423" lon="5.42554">
        <ele>242.6</ele>
        <time>2024-09-19T11:56:56Z</time>
      </trkpt>
      <trkpt lat="45.75415" lon="5.42553">
        <ele>242.6</ele>
        <time>2024-09-19T11:56:57Z</time>
      </trkpt>
      <trkpt lat="45.75407" lon="5.42552">
        <ele>242.6</ele>
        <time>2024-09-19T11:56:58Z</time>
      </trkpt>
      <trkpt lat="45.75401" lon="5.42551">
        <ele>242.6</ele>
        <time>2024-09-19T11:56:59Z</time>
      </trkpt>
      <trkpt lat="45.75394" lon="5.42551">
        <ele>243</ele>
        <time>2024-09-19T11:57:00Z</time>
      </trkpt>
      <trkpt lat="45.75388" lon="5.4255">
        <ele>243.2</ele>
        <time>2024-09-19T11:57:01Z</time>
      </trkpt>
      <trkpt lat="45.75381" lon="5.42551">
        <ele>243.4</ele>
        <time>2024-09-19T11:57:02Z</time>
      </trkpt>
      <trkpt lat="45.75375" lon="5.42551">
        <ele>243.8</ele>
        <time>2024-09-19T11:57:03Z</time>
      </trkpt>
      <trkpt lat="45.75369" lon="5.42552">
        <ele>244</ele>
        <time>2024-09-19T11:57:04Z</time>
      </trkpt>
      <trkpt lat="45.75364" lon="5.42552">
        <ele>244.6</ele>
        <time>2024-09-19T11:57:05Z</time>
      </trkpt>
      <trkpt lat="45.75364" lon="5.42552">
        <ele>245</ele>
        <time>2024-09-19T11:57:06Z</time>
      </trkpt>
      <trkpt lat="45.75358" lon="5.42552">
        <ele>245.2</ele>
        <time>2024-09-19T11:57:07Z</time>
      </trkpt>
      <trkpt lat="45.75353" lon="5.42553">
        <ele>245.6</ele>
        <time>2024-09-19T11:57:08Z</time>
      </trkpt>
      <trkpt lat="45.75347" lon="5.42553">
        <ele>245.8</ele>
        <time>2024-09-19T11:57:09Z</time>
      </trkpt>
      <trkpt lat="45.75342" lon="5.42553">
        <ele>245.8</ele>
        <time>2024-09-19T11:57:10Z</time>
      </trkpt>
      <trkpt lat="45.75337" lon="5.42552">
        <ele>246.2</ele>
        <time>2024-09-19T11:57:11Z</time>
      </trkpt>
      <trkpt lat="45.75332" lon="5.42551">
        <ele>246.2</ele>
        <time>2024-09-19T11:57:12Z</time>
      </trkpt>
      <trkpt lat="45.75327" lon="5.42549">
        <ele>246.2</ele>
        <time>2024-09-19T11:57:13Z</time>
      </trkpt>
      <trkpt lat="45.75322" lon="5.42549">
        <ele>246.2</ele>
        <time>2024-09-19T11:57:14Z</time>
      </trkpt>
      <trkpt lat="45.75316" lon="5.42548">
        <ele>246.2</ele>
        <time>2024-09-19T11:57:15Z</time>
      </trkpt>
      <trkpt lat="45.7531" lon="5.42547">
        <ele>246.2</ele>
        <time>2024-09-19T11:57:16Z</time>
      </trkpt>
      <trkpt lat="45.75304" lon="5.42546">
        <ele>246.2</ele>
        <time>2024-09-19T11:57:17Z</time>
      </trkpt>
      <trkpt lat="45.75291" lon="5.42545">
        <ele>245.6</ele>
        <time>2024-09-19T11:57:18Z</time>
      </trkpt>
      <trkpt lat="45.75284" lon="5.42545">
        <ele>245.2</ele>
        <time>2024-09-19T11:57:19Z</time>
      </trkpt>
      <trkpt lat="45.75276" lon="5.42545">
        <ele>244.8</ele>
        <time>2024-09-19T11:57:20Z</time>
      </trkpt>
      <trkpt lat="45.75269" lon="5.42545">
        <ele>244.8</ele>
        <time>2024-09-19T11:57:21Z</time>
      </trkpt>
      <trkpt lat="45.75262" lon="5.42546">
        <ele>244.4</ele>
        <time>2024-09-19T11:57:22Z</time>
      </trkpt>
      <trkpt lat="45.75255" lon="5.42545">
        <ele>244</ele>
        <time>2024-09-19T11:57:23Z</time>
      </trkpt>
      <trkpt lat="45.75248" lon="5.42545">
        <ele>243.6</ele>
        <time>2024-09-19T11:57:24Z</time>
      </trkpt>
      <trkpt lat="45.7524" lon="5.42544">
        <ele>243.4</ele>
        <time>2024-09-19T11:57:25Z</time>
      </trkpt>
      <trkpt lat="45.75234" lon="5.42543">
        <ele>243.4</ele>
        <time>2024-09-19T11:57:26Z</time>
      </trkpt>
      <trkpt lat="45.75226" lon="5.42542">
        <ele>243</ele>
        <time>2024-09-19T11:57:27Z</time>
      </trkpt>
      <trkpt lat="45.7522" lon="5.42541">
        <ele>242.6</ele>
        <time>2024-09-19T11:57:28Z</time>
      </trkpt>
      <trkpt lat="45.75213" lon="5.4254">
        <ele>242.6</ele>
        <time>2024-09-19T11:57:29Z</time>
      </trkpt>
      <trkpt lat="45.75207" lon="5.42539">
        <ele>242.6</ele>
        <time>2024-09-19T11:57:30Z</time>
      </trkpt>
      <trkpt lat="45.75201" lon="5.42539">
        <ele>242.6</ele>
        <time>2024-09-19T11:57:31Z</time>
      </trkpt>
      <trkpt lat="45.75196" lon="5.42539">
        <ele>242.6</ele>
        <time>2024-09-19T11:57:32Z</time>
      </trkpt>
      <trkpt lat="45.7519" lon="5.42538">
        <ele>242.8</ele>
        <time>2024-09-19T11:57:33Z</time>
      </trkpt>
      <trkpt lat="45.75186" lon="5.42536">
        <ele>243.2</ele>
        <time>2024-09-19T11:57:34Z</time>
      </trkpt>
      <trkpt lat="45.75181" lon="5.42536">
        <ele>243.4</ele>
        <time>2024-09-19T11:57:35Z</time>
      </trkpt>
      <trkpt lat="45.75175" lon="5.42536">
        <ele>243.4</ele>
        <time>2024-09-19T11:57:36Z</time>
      </trkpt>
      <trkpt lat="45.7517" lon="5.42535">
        <ele>243.6</ele>
        <time>2024-09-19T11:57:37Z</time>
      </trkpt>
      <trkpt lat="45.75165" lon="5.42534">
        <ele>243.6</ele>
        <time>2024-09-19T11:57:38Z</time>
      </trkpt>
      <trkpt lat="45.75161" lon="5.42533">
        <ele>243.6</ele>
        <time>2024-09-19T11:57:39Z</time>
      </trkpt>
      <trkpt lat="45.75155" lon="5.42532">
        <ele>243.6</ele>
        <time>2024-09-19T11:57:40Z</time>
      </trkpt>
      <trkpt lat="45.75151" lon="5.42531">
        <ele>244</ele>
        <time>2024-09-19T11:57:41Z</time>
      </trkpt>
      <trkpt lat="45.75145" lon="5.4253">
        <ele>244</ele>
        <time>2024-09-19T11:57:42Z</time>
      </trkpt>
      <trkpt lat="45.75139" lon="5.42529">
        <ele>244</ele>
        <time>2024-09-19T11:57:43Z</time>
      </trkpt>
      <trkpt lat="45.75134" lon="5.42528">
        <ele>244</ele>
        <time>2024-09-19T11:57:44Z</time>
      </trkpt>
      <trkpt lat="45.75129" lon="5.42527">
        <ele>244</ele>
        <time>2024-09-19T11:57:45Z</time>
      </trkpt>
      <trkpt lat="45.75124" lon="5.42527">
        <ele>244.2</ele>
        <time>2024-09-19T11:57:46Z</time>
      </trkpt>
      <trkpt lat="45.75119" lon="5.42526">
        <ele>244.2</ele>
        <time>2024-09-19T11:57:47Z</time>
      </trkpt>
      <trkpt lat="45.75114" lon="5.42525">
        <ele>244.6</ele>
        <time>2024-09-19T11:57:48Z</time>
      </trkpt>
      <trkpt lat="45.75109" lon="5.42524">
        <ele>244.6</ele>
        <time>2024-09-19T11:57:49Z</time>
      </trkpt>
      <trkpt lat="45.75103" lon="5.42522">
        <ele>244.8</ele>
        <time>2024-09-19T11:57:50Z</time>
      </trkpt>
      <trkpt lat="45.75098" lon="5.42522">
        <ele>244.8</ele>
        <time>2024-09-19T11:57:51Z</time>
      </trkpt>
      <trkpt lat="45.75093" lon="5.4252">
        <ele>244.8</ele>
        <time>2024-09-19T11:57:52Z</time>
      </trkpt>
      <trkpt lat="45.75088" lon="5.42519">
        <ele>244.8</ele>
        <time>2024-09-19T11:57:53Z</time>
      </trkpt>
      <trkpt lat="45.75083" lon="5.42519">
        <ele>244.8</ele>
        <time>2024-09-19T11:57:54Z</time>
      </trkpt>
      <trkpt lat="45.75079" lon="5.42517">
        <ele>245.2</ele>
        <time>2024-09-19T11:57:55Z</time>
      </trkpt>
      <trkpt lat="45.75074" lon="5.42516">
        <ele>245.2</ele>
        <time>2024-09-19T11:57:56Z</time>
      </trkpt>
      <trkpt lat="45.75069" lon="5.42515">
        <ele>245.2</ele>
        <time>2024-09-19T11:57:57Z</time>
      </trkpt>
      <trkpt lat="45.75064" lon="5.42514">
        <ele>245.4</ele>
        <time>2024-09-19T11:57:58Z</time>
      </trkpt>
      <trkpt lat="45.75059" lon="5.42513">
        <ele>245.4</ele>
        <time>2024-09-19T11:57:59Z</time>
      </trkpt>
      <trkpt lat="45.75054" lon="5.42511">
        <ele>245.4</ele>
        <time>2024-09-19T11:58:00Z</time>
      </trkpt>
      <trkpt lat="45.75049" lon="5.42511">
        <ele>245.4</ele>
        <time>2024-09-19T11:58:01Z</time>
      </trkpt>
      <trkpt lat="45.75044" lon="5.4251">
        <ele>245.4</ele>
        <time>2024-09-19T11:58:02Z</time>
      </trkpt>
      <trkpt lat="45.75038" lon="5.42509">
        <ele>245.4</ele>
        <time>2024-09-19T11:58:03Z</time>
      </trkpt>
      <trkpt lat="45.75032" lon="5.42509">
        <ele>245.4</ele>
        <time>2024-09-19T11:58:04Z</time>
      </trkpt>
      <trkpt lat="45.75027" lon="5.42509">
        <ele>245.2</ele>
        <time>2024-09-19T11:58:05Z</time>
      </trkpt>
      <trkpt lat="45.75021" lon="5.4251">
        <ele>245.2</ele>
        <time>2024-09-19T11:58:06Z</time>
      </trkpt>
      <trkpt lat="45.75015" lon="5.42511">
        <ele>245</ele>
        <time>2024-09-19T11:58:07Z</time>
      </trkpt>
      <trkpt lat="45.75009" lon="5.42512">
        <ele>245</ele>
        <time>2024-09-19T11:58:08Z</time>
      </trkpt>
      <trkpt lat="45.75004" lon="5.42512">
        <ele>245</ele>
        <time>2024-09-19T11:58:09Z</time>
      </trkpt>
      <trkpt lat="45.74998" lon="5.42513">
        <ele>244.6</ele>
        <time>2024-09-19T11:58:10Z</time>
      </trkpt>
      <trkpt lat="45.74993" lon="5.42512">
        <ele>244.6</ele>
        <time>2024-09-19T11:58:11Z</time>
      </trkpt>
      <trkpt lat="45.74988" lon="5.4251">
        <ele>244.6</ele>
        <time>2024-09-19T11:58:12Z</time>
      </trkpt>
      <trkpt lat="45.74983" lon="5.42507">
        <ele>244.6</ele>
        <time>2024-09-19T11:58:13Z</time>
      </trkpt>
      <trkpt lat="45.74982" lon="5.42499">
        <ele>244.6</ele>
        <time>2024-09-19T11:58:14Z</time>
      </trkpt>
      <trkpt lat="45.74981" lon="5.42492">
        <ele>244.6</ele>
        <time>2024-09-19T11:58:15Z</time>
      </trkpt>
      <trkpt lat="45.74981" lon="5.42485">
        <ele>244.4</ele>
        <time>2024-09-19T11:58:16Z</time>
      </trkpt>
      <trkpt lat="45.74979" lon="5.42477">
        <ele>244.4</ele>
        <time>2024-09-19T11:58:17Z</time>
      </trkpt>
      <trkpt lat="45.74976" lon="5.42471">
        <ele>244.4</ele>
        <time>2024-09-19T11:58:18Z</time>
      </trkpt>
      <trkpt lat="45.7497" lon="5.4247">
        <ele>244.4</ele>
        <time>2024-09-19T11:58:19Z</time>
      </trkpt>
      <trkpt lat="45.74965" lon="5.42472">
        <ele>244.4</ele>
        <time>2024-09-19T11:58:20Z</time>
      </trkpt>
      <trkpt lat="45.7496" lon="5.42471">
        <ele>244.4</ele>
        <time>2024-09-19T11:58:21Z</time>
      </trkpt>
      <trkpt lat="45.74955" lon="5.42471">
        <ele>244.2</ele>
        <time>2024-09-19T11:58:22Z</time>
      </trkpt>
      <trkpt lat="45.7495" lon="5.4247">
        <ele>244.2</ele>
        <time>2024-09-19T11:58:23Z</time>
      </trkpt>
      <trkpt lat="45.74944" lon="5.42469">
        <ele>244.2</ele>
        <time>2024-09-19T11:58:24Z</time>
      </trkpt>
      <trkpt lat="45.74939" lon="5.42468">
        <ele>244</ele>
        <time>2024-09-19T11:58:25Z</time>
      </trkpt>
      <trkpt lat="45.74934" lon="5.42466">
        <ele>243.6</ele>
        <time>2024-09-19T11:58:26Z</time>
      </trkpt>
      <trkpt lat="45.74928" lon="5.42464">
        <ele>243.6</ele>
        <time>2024-09-19T11:58:27Z</time>
      </trkpt>
      <trkpt lat="45.74928" lon="5.42464">
        <ele>243.6</ele>
        <time>2024-09-19T11:58:28Z</time>
      </trkpt>
      <trkpt lat="45.74928" lon="5.42464">
        <ele>243.6</ele>
        <time>2024-09-19T11:58:29Z</time>
      </trkpt>
      <trkpt lat="45.74905" lon="5.4246">
        <ele>243.6</ele>
        <time>2024-09-19T11:58:31Z</time>
      </trkpt>
      <trkpt lat="45.749" lon="5.42459">
        <ele>243.6</ele>
        <time>2024-09-19T11:58:32Z</time>
      </trkpt>
      <trkpt lat="45.74894" lon="5.42458">
        <ele>243.6</ele>
        <time>2024-09-19T11:58:33Z</time>
      </trkpt>
      <trkpt lat="45.74888" lon="5.42457">
        <ele>243.6</ele>
        <time>2024-09-19T11:58:34Z</time>
      </trkpt>
      <trkpt lat="45.74882" lon="5.42455">
        <ele>243.6</ele>
        <time>2024-09-19T11:58:35Z</time>
      </trkpt>
      <trkpt lat="45.74876" lon="5.42454">
        <ele>243.6</ele>
        <time>2024-09-19T11:58:36Z</time>
      </trkpt>
      <trkpt lat="45.7487" lon="5.42453">
        <ele>243.6</ele>
        <time>2024-09-19T11:58:37Z</time>
      </trkpt>
      <trkpt lat="45.74864" lon="5.42452">
        <ele>243.6</ele>
        <time>2024-09-19T11:58:38Z</time>
      </trkpt>
      <trkpt lat="45.74858" lon="5.4245">
        <ele>243.6</ele>
        <time>2024-09-19T11:58:39Z</time>
      </trkpt>
      <trkpt lat="45.74852" lon="5.4245">
        <ele>243.6</ele>
        <time>2024-09-19T11:58:40Z</time>
      </trkpt>
      <trkpt lat="45.74846" lon="5.42448">
        <ele>243.6</ele>
        <time>2024-09-19T11:58:41Z</time>
      </trkpt>
      <trkpt lat="45.7484" lon="5.42447">
        <ele>243.6</ele>
        <time>2024-09-19T11:58:42Z</time>
      </trkpt>
      <trkpt lat="45.74833" lon="5.42446">
        <ele>243.4</ele>
        <time>2024-09-19T11:58:43Z</time>
      </trkpt>
      <trkpt lat="45.74827" lon="5.42444">
        <ele>243.4</ele>
        <time>2024-09-19T11:58:44Z</time>
      </trkpt>
      <trkpt lat="45.74821" lon="5.42443">
        <ele>243.4</ele>
        <time>2024-09-19T11:58:45Z</time>
      </trkpt>
      <trkpt lat="45.74815" lon="5.42441">
        <ele>243.4</ele>
        <time>2024-09-19T11:58:46Z</time>
      </trkpt>
      <trkpt lat="45.74809" lon="5.4244">
        <ele>243.4</ele>
        <time>2024-09-19T11:58:47Z</time>
      </trkpt>
      <trkpt lat="45.74803" lon="5.42439">
        <ele>243.4</ele>
        <time>2024-09-19T11:58:48Z</time>
      </trkpt>
      <trkpt lat="45.74797" lon="5.42438">
        <ele>243.4</ele>
        <time>2024-09-19T11:58:49Z</time>
      </trkpt>
      <trkpt lat="45.74791" lon="5.42437">
        <ele>243.6</ele>
        <time>2024-09-19T11:58:50Z</time>
      </trkpt>
      <trkpt lat="45.74786" lon="5.42436">
        <ele>243.8</ele>
        <time>2024-09-19T11:58:51Z</time>
      </trkpt>
      <trkpt lat="45.7478" lon="5.42433">
        <ele>243.8</ele>
        <time>2024-09-19T11:58:52Z</time>
      </trkpt>
      <trkpt lat="45.74775" lon="5.42433">
        <ele>244.2</ele>
        <time>2024-09-19T11:58:53Z</time>
      </trkpt>
      <trkpt lat="45.74769" lon="5.42431">
        <ele>244.2</ele>
        <time>2024-09-19T11:58:54Z</time>
      </trkpt>
      <trkpt lat="45.74763" lon="5.42431">
        <ele>244.2</ele>
        <time>2024-09-19T11:58:55Z</time>
      </trkpt>
      <trkpt lat="45.74758" lon="5.42429">
        <ele>244.2</ele>
        <time>2024-09-19T11:58:56Z</time>
      </trkpt>
      <trkpt lat="45.74752" lon="5.42427">
        <ele>244.2</ele>
        <time>2024-09-19T11:58:57Z</time>
      </trkpt>
      <trkpt lat="45.74746" lon="5.42426">
        <ele>244.2</ele>
        <time>2024-09-19T11:58:58Z</time>
      </trkpt>
      <trkpt lat="45.74741" lon="5.42424">
        <ele>244.2</ele>
        <time>2024-09-19T11:58:59Z</time>
      </trkpt>
      <trkpt lat="45.74735" lon="5.42423">
        <ele>244.2</ele>
        <time>2024-09-19T11:59:00Z</time>
      </trkpt>
      <trkpt lat="45.74729" lon="5.42422">
        <ele>244.2</ele>
        <time>2024-09-19T11:59:01Z</time>
      </trkpt>
      <trkpt lat="45.74723" lon="5.4242">
        <ele>244</ele>
        <time>2024-09-19T11:59:02Z</time>
      </trkpt>
      <trkpt lat="45.74717" lon="5.4242">
        <ele>244</ele>
        <time>2024-09-19T11:59:03Z</time>
      </trkpt>
      <trkpt lat="45.74712" lon="5.42419">
        <ele>244</ele>
        <time>2024-09-19T11:59:04Z</time>
      </trkpt>
      <trkpt lat="45.74706" lon="5.42418">
        <ele>244</ele>
        <time>2024-09-19T11:59:05Z</time>
      </trkpt>
      <trkpt lat="45.74701" lon="5.42417">
        <ele>244.2</ele>
        <time>2024-09-19T11:59:06Z</time>
      </trkpt>
      <trkpt lat="45.74695" lon="5.42415">
        <ele>244.2</ele>
        <time>2024-09-19T11:59:07Z</time>
      </trkpt>
      <trkpt lat="45.7469" lon="5.42414">
        <ele>244.2</ele>
        <time>2024-09-19T11:59:08Z</time>
      </trkpt>
      <trkpt lat="45.74685" lon="5.42412">
        <ele>244.2</ele>
        <time>2024-09-19T11:59:09Z</time>
      </trkpt>
      <trkpt lat="45.7468" lon="5.42411">
        <ele>244.2</ele>
        <time>2024-09-19T11:59:10Z</time>
      </trkpt>
      <trkpt lat="45.74674" lon="5.42409">
        <ele>244.2</ele>
        <time>2024-09-19T11:59:11Z</time>
      </trkpt>
      <trkpt lat="45.74669" lon="5.42408">
        <ele>244.4</ele>
        <time>2024-09-19T11:59:12Z</time>
      </trkpt>
      <trkpt lat="45.74663" lon="5.42406">
        <ele>244.4</ele>
        <time>2024-09-19T11:59:13Z</time>
      </trkpt>
      <trkpt lat="45.74657" lon="5.42405">
        <ele>244.4</ele>
        <time>2024-09-19T11:59:14Z</time>
      </trkpt>
      <trkpt lat="45.74651" lon="5.42405">
        <ele>244.4</ele>
        <time>2024-09-19T11:59:15Z</time>
      </trkpt>
      <trkpt lat="45.74646" lon="5.42403">
        <ele>244.4</ele>
        <time>2024-09-19T11:59:16Z</time>
      </trkpt>
      <trkpt lat="45.74641" lon="5.42401">
        <ele>244.4</ele>
        <time>2024-09-19T11:59:17Z</time>
      </trkpt>
      <trkpt lat="45.74636" lon="5.424">
        <ele>244.4</ele>
        <time>2024-09-19T11:59:18Z</time>
      </trkpt>
      <trkpt lat="45.74631" lon="5.42399">
        <ele>244.4</ele>
        <time>2024-09-19T11:59:19Z</time>
      </trkpt>
      <trkpt lat="45.74626" lon="5.42398">
        <ele>244.6</ele>
        <time>2024-09-19T11:59:20Z</time>
      </trkpt>
      <trkpt lat="45.74621" lon="5.42396">
        <ele>244.6</ele>
        <time>2024-09-19T11:59:21Z</time>
      </trkpt>
      <trkpt lat="45.74616" lon="5.42394">
        <ele>244.6</ele>
        <time>2024-09-19T11:59:22Z</time>
      </trkpt>
      <trkpt lat="45.7461" lon="5.42393">
        <ele>244.6</ele>
        <time>2024-09-19T11:59:23Z</time>
      </trkpt>
      <trkpt lat="45.74605" lon="5.42392">
        <ele>244.8</ele>
        <time>2024-09-19T11:59:24Z</time>
      </trkpt>
      <trkpt lat="45.74599" lon="5.4239">
        <ele>244.8</ele>
        <time>2024-09-19T11:59:25Z</time>
      </trkpt>
      <trkpt lat="45.74594" lon="5.42388">
        <ele>244.8</ele>
        <time>2024-09-19T11:59:26Z</time>
      </trkpt>
      <trkpt lat="45.74589" lon="5.42387">
        <ele>245.2</ele>
        <time>2024-09-19T11:59:27Z</time>
      </trkpt>
      <trkpt lat="45.74582" lon="5.42387">
        <ele>245.2</ele>
        <time>2024-09-19T11:59:28Z</time>
      </trkpt>
      <trkpt lat="45.74577" lon="5.42384">
        <ele>244.8</ele>
        <time>2024-09-19T11:59:29Z</time>
      </trkpt>
      <trkpt lat="45.74572" lon="5.42383">
        <ele>244.8</ele>
        <time>2024-09-19T11:59:30Z</time>
      </trkpt>
      <trkpt lat="45.74567" lon="5.42381">
        <ele>244.8</ele>
        <time>2024-09-19T11:59:31Z</time>
      </trkpt>
      <trkpt lat="45.74562" lon="5.42379">
        <ele>244.8</ele>
        <time>2024-09-19T11:59:32Z</time>
      </trkpt>
      <trkpt lat="45.74556" lon="5.42378">
        <ele>244.8</ele>
        <time>2024-09-19T11:59:33Z</time>
      </trkpt>
      <trkpt lat="45.74551" lon="5.42375">
        <ele>244.2</ele>
        <time>2024-09-19T11:59:34Z</time>
      </trkpt>
      <trkpt lat="45.74545" lon="5.42373">
        <ele>244.2</ele>
        <time>2024-09-19T11:59:35Z</time>
      </trkpt>
      <trkpt lat="45.7454" lon="5.42371">
        <ele>244.2</ele>
        <time>2024-09-19T11:59:36Z</time>
      </trkpt>
      <trkpt lat="45.74534" lon="5.42367">
        <ele>244.6</ele>
        <time>2024-09-19T11:59:37Z</time>
      </trkpt>
      <trkpt lat="45.74528" lon="5.42365">
        <ele>244.6</ele>
        <time>2024-09-19T11:59:38Z</time>
      </trkpt>
      <trkpt lat="45.74522" lon="5.42363">
        <ele>244.8</ele>
        <time>2024-09-19T11:59:39Z</time>
      </trkpt>
      <trkpt lat="45.74516" lon="5.4236">
        <ele>244.8</ele>
        <time>2024-09-19T11:59:40Z</time>
      </trkpt>
      <trkpt lat="45.7451" lon="5.42359">
        <ele>244.6</ele>
        <time>2024-09-19T11:59:41Z</time>
      </trkpt>
      <trkpt lat="45.74504" lon="5.42357">
        <ele>244.6</ele>
        <time>2024-09-19T11:59:42Z</time>
      </trkpt>
      <trkpt lat="45.74499" lon="5.42356">
        <ele>244.6</ele>
        <time>2024-09-19T11:59:43Z</time>
      </trkpt>
      <trkpt lat="45.74494" lon="5.42354">
        <ele>244.8</ele>
        <time>2024-09-19T11:59:44Z</time>
      </trkpt>
      <trkpt lat="45.74489" lon="5.42353">
        <ele>244.8</ele>
        <time>2024-09-19T11:59:45Z</time>
      </trkpt>
      <trkpt lat="45.74489" lon="5.42353">
        <ele>242.8</ele>
        <time>2024-09-19T11:59:46Z</time>
      </trkpt>
      <trkpt lat="45.74489" lon="5.42353">
        <ele>243.6</ele>
        <time>2024-09-19T11:59:47Z</time>
      </trkpt>
      <trkpt lat="45.74474" lon="5.42352">
        <ele>243.8</ele>
        <time>2024-09-19T11:59:48Z</time>
      </trkpt>
      <trkpt lat="45.74468" lon="5.42353">
        <ele>243.8</ele>
        <time>2024-09-19T11:59:49Z</time>
      </trkpt>
      <trkpt lat="45.74464" lon="5.42354">
        <ele>244.2</ele>
        <time>2024-09-19T11:59:50Z</time>
      </trkpt>
      <trkpt lat="45.7446" lon="5.42355">
        <ele>244.4</ele>
        <time>2024-09-19T11:59:51Z</time>
      </trkpt>
      <trkpt lat="45.74455" lon="5.42355">
        <ele>244.4</ele>
        <time>2024-09-19T11:59:52Z</time>
      </trkpt>
      <trkpt lat="45.7445" lon="5.42356">
        <ele>244.4</ele>
        <time>2024-09-19T11:59:53Z</time>
      </trkpt>
      <trkpt lat="45.74446" lon="5.42357">
        <ele>244.4</ele>
        <time>2024-09-19T11:59:54Z</time>
      </trkpt>
      <trkpt lat="45.74441" lon="5.42356">
        <ele>244.4</ele>
        <time>2024-09-19T11:59:55Z</time>
      </trkpt>
      <trkpt lat="45.74437" lon="5.42355">
        <ele>244.8</ele>
        <time>2024-09-19T11:59:56Z</time>
      </trkpt>
      <trkpt lat="45.74432" lon="5.42355">
        <ele>244.8</ele>
        <time>2024-09-19T11:59:57Z</time>
      </trkpt>
      <trkpt lat="45.74428" lon="5.42355">
        <ele>245</ele>
        <time>2024-09-19T11:59:58Z</time>
      </trkpt>
      <trkpt lat="45.74423" lon="5.42356">
        <ele>245</ele>
        <time>2024-09-19T11:59:59Z</time>
      </trkpt>
      <trkpt lat="45.74419" lon="5.42357">
        <ele>245</ele>
        <time>2024-09-19T12:00:00Z</time>
      </trkpt>
      <trkpt lat="45.74416" lon="5.42358">
        <ele>245</ele>
        <time>2024-09-19T12:00:01Z</time>
      </trkpt>
      <trkpt lat="45.74412" lon="5.42358">
        <ele>245.2</ele>
        <time>2024-09-19T12:00:02Z</time>
      </trkpt>
      <trkpt lat="45.74408" lon="5.42358">
        <ele>245.2</ele>
        <time>2024-09-19T12:00:03Z</time>
      </trkpt>
      <trkpt lat="45.74404" lon="5.42357">
        <ele>245.2</ele>
        <time>2024-09-19T12:00:04Z</time>
      </trkpt>
      <trkpt lat="45.74399" lon="5.42355">
        <ele>245.2</ele>
        <time>2024-09-19T12:00:05Z</time>
      </trkpt>
      <trkpt lat="45.74397" lon="5.42354">
        <ele>245.2</ele>
        <time>2024-09-19T12:00:06Z</time>
      </trkpt>
      <trkpt lat="45.74392" lon="5.42355">
        <ele>245.2</ele>
        <time>2024-09-19T12:00:07Z</time>
      </trkpt>
      <trkpt lat="45.74387" lon="5.42353">
        <ele>245.2</ele>
        <time>2024-09-19T12:00:08Z</time>
      </trkpt>
      <trkpt lat="45.74382" lon="5.42352">
        <ele>245.2</ele>
        <time>2024-09-19T12:00:09Z</time>
      </trkpt>
      <trkpt lat="45.74377" lon="5.42351">
        <ele>245</ele>
        <time>2024-09-19T12:00:10Z</time>
      </trkpt>
      <trkpt lat="45.74371" lon="5.4235">
        <ele>245</ele>
        <time>2024-09-19T12:00:11Z</time>
      </trkpt>
      <trkpt lat="45.74367" lon="5.42349">
        <ele>245</ele>
        <time>2024-09-19T12:00:12Z</time>
      </trkpt>
      <trkpt lat="45.74362" lon="5.42348">
        <ele>245</ele>
        <time>2024-09-19T12:00:13Z</time>
      </trkpt>
      <trkpt lat="45.74357" lon="5.42346">
        <ele>245</ele>
        <time>2024-09-19T12:00:14Z</time>
      </trkpt>
      <trkpt lat="45.74351" lon="5.42344">
        <ele>245</ele>
        <time>2024-09-19T12:00:15Z</time>
      </trkpt>
      <trkpt lat="45.74347" lon="5.42343">
        <ele>245</ele>
        <time>2024-09-19T12:00:16Z</time>
      </trkpt>
      <trkpt lat="45.7434" lon="5.42341">
        <ele>245.2</ele>
        <time>2024-09-19T12:00:17Z</time>
      </trkpt>
      <trkpt lat="45.74334" lon="5.4234">
        <ele>245.2</ele>
        <time>2024-09-19T12:00:18Z</time>
      </trkpt>
      <trkpt lat="45.74329" lon="5.42339">
        <ele>245.2</ele>
        <time>2024-09-19T12:00:19Z</time>
      </trkpt>
      <trkpt lat="45.74323" lon="5.42337">
        <ele>245.2</ele>
        <time>2024-09-19T12:00:20Z</time>
      </trkpt>
      <trkpt lat="45.74317" lon="5.42336">
        <ele>245.2</ele>
        <time>2024-09-19T12:00:21Z</time>
      </trkpt>
      <trkpt lat="45.74312" lon="5.42335">
        <ele>245.2</ele>
        <time>2024-09-19T12:00:22Z</time>
      </trkpt>
      <trkpt lat="45.74306" lon="5.42334">
        <ele>245.2</ele>
        <time>2024-09-19T12:00:23Z</time>
      </trkpt>
      <trkpt lat="45.743" lon="5.42333">
        <ele>245.2</ele>
        <time>2024-09-19T12:00:24Z</time>
      </trkpt>
      <trkpt lat="45.74294" lon="5.42332">
        <ele>245.2</ele>
        <time>2024-09-19T12:00:25Z</time>
      </trkpt>
      <trkpt lat="45.74288" lon="5.4233">
        <ele>245.2</ele>
        <time>2024-09-19T12:00:26Z</time>
      </trkpt>
      <trkpt lat="45.74282" lon="5.42329">
        <ele>245.2</ele>
        <time>2024-09-19T12:00:27Z</time>
      </trkpt>
      <trkpt lat="45.74275" lon="5.42328">
        <ele>245.2</ele>
        <time>2024-09-19T12:00:28Z</time>
      </trkpt>
      <trkpt lat="45.74269" lon="5.42327">
        <ele>245.2</ele>
        <time>2024-09-19T12:00:29Z</time>
      </trkpt>
      <trkpt lat="45.74263" lon="5.42326">
        <ele>245.2</ele>
        <time>2024-09-19T12:00:30Z</time>
      </trkpt>
      <trkpt lat="45.74258" lon="5.42325">
        <ele>245.2</ele>
        <time>2024-09-19T12:00:31Z</time>
      </trkpt>
      <trkpt lat="45.74252" lon="5.42323">
        <ele>245.2</ele>
        <time>2024-09-19T12:00:32Z</time>
      </trkpt>
      <trkpt lat="45.74247" lon="5.42321">
        <ele>245.4</ele>
        <time>2024-09-19T12:00:33Z</time>
      </trkpt>
      <trkpt lat="45.74241" lon="5.42319">
        <ele>245.8</ele>
        <time>2024-09-19T12:00:34Z</time>
      </trkpt>
      <trkpt lat="45.74236" lon="5.42319">
        <ele>245.8</ele>
        <time>2024-09-19T12:00:35Z</time>
      </trkpt>
      <trkpt lat="45.74229" lon="5.42317">
        <ele>245.8</ele>
        <time>2024-09-19T12:00:36Z</time>
      </trkpt>
      <trkpt lat="45.74223" lon="5.42316">
        <ele>245.8</ele>
        <time>2024-09-19T12:00:37Z</time>
      </trkpt>
      <trkpt lat="45.74218" lon="5.42313">
        <ele>246.4</ele>
        <time>2024-09-19T12:00:38Z</time>
      </trkpt>
      <trkpt lat="45.74212" lon="5.42312">
        <ele>246.4</ele>
        <time>2024-09-19T12:00:39Z</time>
      </trkpt>
      <trkpt lat="45.74207" lon="5.42313">
        <ele>246.4</ele>
        <time>2024-09-19T12:00:40Z</time>
      </trkpt>
      <trkpt lat="45.74201" lon="5.42312">
        <ele>246.2</ele>
        <time>2024-09-19T12:00:41Z</time>
      </trkpt>
      <trkpt lat="45.74195" lon="5.42311">
        <ele>246.2</ele>
        <time>2024-09-19T12:00:42Z</time>
      </trkpt>
      <trkpt lat="45.7419" lon="5.4231">
        <ele>246</ele>
        <time>2024-09-19T12:00:43Z</time>
      </trkpt>
      <trkpt lat="45.74184" lon="5.42309">
        <ele>246</ele>
        <time>2024-09-19T12:00:44Z</time>
      </trkpt>
      <trkpt lat="45.74178" lon="5.42308">
        <ele>246</ele>
        <time>2024-09-19T12:00:45Z</time>
      </trkpt>
      <trkpt lat="45.74173" lon="5.42307">
        <ele>246</ele>
        <time>2024-09-19T12:00:46Z</time>
      </trkpt>
      <trkpt lat="45.74166" lon="5.42305">
        <ele>246.2</ele>
        <time>2024-09-19T12:00:47Z</time>
      </trkpt>
      <trkpt lat="45.74161" lon="5.42303">
        <ele>246.2</ele>
        <time>2024-09-19T12:00:48Z</time>
      </trkpt>
      <trkpt lat="45.74155" lon="5.42302">
        <ele>246.2</ele>
        <time>2024-09-19T12:00:49Z</time>
      </trkpt>
      <trkpt lat="45.7415" lon="5.423">
        <ele>246.2</ele>
        <time>2024-09-19T12:00:50Z</time>
      </trkpt>
      <trkpt lat="45.74144" lon="5.42299">
        <ele>246.2</ele>
        <time>2024-09-19T12:00:51Z</time>
      </trkpt>
      <trkpt lat="45.74138" lon="5.42297">
        <ele>246.2</ele>
        <time>2024-09-19T12:00:52Z</time>
      </trkpt>
      <trkpt lat="45.74132" lon="5.42296">
        <ele>246.2</ele>
        <time>2024-09-19T12:00:53Z</time>
      </trkpt>
      <trkpt lat="45.74127" lon="5.42294">
        <ele>246.2</ele>
        <time>2024-09-19T12:00:54Z</time>
      </trkpt>
      <trkpt lat="45.74121" lon="5.42293">
        <ele>246.2</ele>
        <time>2024-09-19T12:00:55Z</time>
      </trkpt>
      <trkpt lat="45.74115" lon="5.42291">
        <ele>246.2</ele>
        <time>2024-09-19T12:00:56Z</time>
      </trkpt>
      <trkpt lat="45.7411" lon="5.4229">
        <ele>246.2</ele>
        <time>2024-09-19T12:00:57Z</time>
      </trkpt>
      <trkpt lat="45.74104" lon="5.42288">
        <ele>246.2</ele>
        <time>2024-09-19T12:00:58Z</time>
      </trkpt>
      <trkpt lat="45.74098" lon="5.42287">
        <ele>246.2</ele>
        <time>2024-09-19T12:00:59Z</time>
      </trkpt>
      <trkpt lat="45.74092" lon="5.42286">
        <ele>246.2</ele>
        <time>2024-09-19T12:01:00Z</time>
      </trkpt>
      <trkpt lat="45.74087" lon="5.42284">
        <ele>246.2</ele>
        <time>2024-09-19T12:01:01Z</time>
      </trkpt>
      <trkpt lat="45.74081" lon="5.42283">
        <ele>246.2</ele>
        <time>2024-09-19T12:01:02Z</time>
      </trkpt>
      <trkpt lat="45.74075" lon="5.42282">
        <ele>246.2</ele>
        <time>2024-09-19T12:01:03Z</time>
      </trkpt>
      <trkpt lat="45.74069" lon="5.42281">
        <ele>246.2</ele>
        <time>2024-09-19T12:01:04Z</time>
      </trkpt>
      <trkpt lat="45.74064" lon="5.4228">
        <ele>246</ele>
        <time>2024-09-19T12:01:05Z</time>
      </trkpt>
      <trkpt lat="45.74058" lon="5.42279">
        <ele>246</ele>
        <time>2024-09-19T12:01:06Z</time>
      </trkpt>
      <trkpt lat="45.74052" lon="5.42277">
        <ele>246</ele>
        <time>2024-09-19T12:01:07Z</time>
      </trkpt>
      <trkpt lat="45.74046" lon="5.42275">
        <ele>246</ele>
        <time>2024-09-19T12:01:08Z</time>
      </trkpt>
      <trkpt lat="45.74041" lon="5.42273">
        <ele>246</ele>
        <time>2024-09-19T12:01:09Z</time>
      </trkpt>
      <trkpt lat="45.74035" lon="5.42271">
        <ele>246</ele>
        <time>2024-09-19T12:01:10Z</time>
      </trkpt>
      <trkpt lat="45.74029" lon="5.4227">
        <ele>246</ele>
        <time>2024-09-19T12:01:11Z</time>
      </trkpt>
      <trkpt lat="45.74024" lon="5.42269">
        <ele>246</ele>
        <time>2024-09-19T12:01:12Z</time>
      </trkpt>
      <trkpt lat="45.74017" lon="5.42267">
        <ele>246</ele>
        <time>2024-09-19T12:01:13Z</time>
      </trkpt>
      <trkpt lat="45.74011" lon="5.42266">
        <ele>246</ele>
        <time>2024-09-19T12:01:14Z</time>
      </trkpt>
      <trkpt lat="45.74006" lon="5.42265">
        <ele>246</ele>
        <time>2024-09-19T12:01:15Z</time>
      </trkpt>
      <trkpt lat="45.73999" lon="5.42264">
        <ele>246</ele>
        <time>2024-09-19T12:01:16Z</time>
      </trkpt>
      <trkpt lat="45.73993" lon="5.42263">
        <ele>245.6</ele>
        <time>2024-09-19T12:01:17Z</time>
      </trkpt>
      <trkpt lat="45.73987" lon="5.42261">
        <ele>245.6</ele>
        <time>2024-09-19T12:01:18Z</time>
      </trkpt>
      <trkpt lat="45.73981" lon="5.4226">
        <ele>245.6</ele>
        <time>2024-09-19T12:01:19Z</time>
      </trkpt>
      <trkpt lat="45.73975" lon="5.42259">
        <ele>245.6</ele>
        <time>2024-09-19T12:01:20Z</time>
      </trkpt>
      <trkpt lat="45.73969" lon="5.42258">
        <ele>245.6</ele>
        <time>2024-09-19T12:01:21Z</time>
      </trkpt>
      <trkpt lat="45.73963" lon="5.42257">
        <ele>245.6</ele>
        <time>2024-09-19T12:01:22Z</time>
      </trkpt>
      <trkpt lat="45.73957" lon="5.42256">
        <ele>245.6</ele>
        <time>2024-09-19T12:01:23Z</time>
      </trkpt>
      <trkpt lat="45.73951" lon="5.42253">
        <ele>245.6</ele>
        <time>2024-09-19T12:01:24Z</time>
      </trkpt>
      <trkpt lat="45.73945" lon="5.42253">
        <ele>245.6</ele>
        <time>2024-09-19T12:01:25Z</time>
      </trkpt>
      <trkpt lat="45.7394" lon="5.42252">
        <ele>245.6</ele>
        <time>2024-09-19T12:01:26Z</time>
      </trkpt>
      <trkpt lat="45.73934" lon="5.42251">
        <ele>245.6</ele>
        <time>2024-09-19T12:01:27Z</time>
      </trkpt>
      <trkpt lat="45.73927" lon="5.4225">
        <ele>245.6</ele>
        <time>2024-09-19T12:01:28Z</time>
      </trkpt>
      <trkpt lat="45.73921" lon="5.42249">
        <ele>245.6</ele>
        <time>2024-09-19T12:01:29Z</time>
      </trkpt>
      <trkpt lat="45.73916" lon="5.42248">
        <ele>245.6</ele>
        <time>2024-09-19T12:01:30Z</time>
      </trkpt>
      <trkpt lat="45.7391" lon="5.42247">
        <ele>245.6</ele>
        <time>2024-09-19T12:01:31Z</time>
      </trkpt>
      <trkpt lat="45.73904" lon="5.42246">
        <ele>245.6</ele>
        <time>2024-09-19T12:01:32Z</time>
      </trkpt>
      <trkpt lat="45.73898" lon="5.42243">
        <ele>245.6</ele>
        <time>2024-09-19T12:01:33Z</time>
      </trkpt>
      <trkpt lat="45.73892" lon="5.42243">
        <ele>245.6</ele>
        <time>2024-09-19T12:01:34Z</time>
      </trkpt>
      <trkpt lat="45.73886" lon="5.42241">
        <ele>245.6</ele>
        <time>2024-09-19T12:01:35Z</time>
      </trkpt>
      <trkpt lat="45.73881" lon="5.4224">
        <ele>245.6</ele>
        <time>2024-09-19T12:01:36Z</time>
      </trkpt>
      <trkpt lat="45.73875" lon="5.42239">
        <ele>245.6</ele>
        <time>2024-09-19T12:01:37Z</time>
      </trkpt>
      <trkpt lat="45.7387" lon="5.42237">
        <ele>245.6</ele>
        <time>2024-09-19T12:01:38Z</time>
      </trkpt>
      <trkpt lat="45.73864" lon="5.42236">
        <ele>245.6</ele>
        <time>2024-09-19T12:01:39Z</time>
      </trkpt>
      <trkpt lat="45.73859" lon="5.42235">
        <ele>245.6</ele>
        <time>2024-09-19T12:01:40Z</time>
      </trkpt>
      <trkpt lat="45.73853" lon="5.42234">
        <ele>245.6</ele>
        <time>2024-09-19T12:01:41Z</time>
      </trkpt>
      <trkpt lat="45.73847" lon="5.42233">
        <ele>245.6</ele>
        <time>2024-09-19T12:01:42Z</time>
      </trkpt>
      <trkpt lat="45.73842" lon="5.42231">
        <ele>245.6</ele>
        <time>2024-09-19T12:01:43Z</time>
      </trkpt>
      <trkpt lat="45.73836" lon="5.4223">
        <ele>245.8</ele>
        <time>2024-09-19T12:01:44Z</time>
      </trkpt>
      <trkpt lat="45.73831" lon="5.42228">
        <ele>245.8</ele>
        <time>2024-09-19T12:01:45Z</time>
      </trkpt>
      <trkpt lat="45.73825" lon="5.42227">
        <ele>245.6</ele>
        <time>2024-09-19T12:01:46Z</time>
      </trkpt>
      <trkpt lat="45.73819" lon="5.42227">
        <ele>245.6</ele>
        <time>2024-09-19T12:01:47Z</time>
      </trkpt>
      <trkpt lat="45.73814" lon="5.42225">
        <ele>245.6</ele>
        <time>2024-09-19T12:01:48Z</time>
      </trkpt>
      <trkpt lat="45.73808" lon="5.42224">
        <ele>245.6</ele>
        <time>2024-09-19T12:01:49Z</time>
      </trkpt>
      <trkpt lat="45.73803" lon="5.42222">
        <ele>245.6</ele>
        <time>2024-09-19T12:01:50Z</time>
      </trkpt>
      <trkpt lat="45.73797" lon="5.42221">
        <ele>245.6</ele>
        <time>2024-09-19T12:01:51Z</time>
      </trkpt>
      <trkpt lat="45.73792" lon="5.4222">
        <ele>245.6</ele>
        <time>2024-09-19T12:01:52Z</time>
      </trkpt>
      <trkpt lat="45.73786" lon="5.42219">
        <ele>245.6</ele>
        <time>2024-09-19T12:01:53Z</time>
      </trkpt>
      <trkpt lat="45.73781" lon="5.42218">
        <ele>245.6</ele>
        <time>2024-09-19T12:01:54Z</time>
      </trkpt>
      <trkpt lat="45.73775" lon="5.42217">
        <ele>245.6</ele>
        <time>2024-09-19T12:01:55Z</time>
      </trkpt>
      <trkpt lat="45.73769" lon="5.42216">
        <ele>245.6</ele>
        <time>2024-09-19T12:01:56Z</time>
      </trkpt>
      <trkpt lat="45.73763" lon="5.42214">
        <ele>245.6</ele>
        <time>2024-09-19T12:01:57Z</time>
      </trkpt>
      <trkpt lat="45.73758" lon="5.42214">
        <ele>245.6</ele>
        <time>2024-09-19T12:01:58Z</time>
      </trkpt>
      <trkpt lat="45.73752" lon="5.42211">
        <ele>245.6</ele>
        <time>2024-09-19T12:01:59Z</time>
      </trkpt>
      <trkpt lat="45.73746" lon="5.4221">
        <ele>245.6</ele>
        <time>2024-09-19T12:02:00Z</time>
      </trkpt>
      <trkpt lat="45.7374" lon="5.42208">
        <ele>245.4</ele>
        <time>2024-09-19T12:02:01Z</time>
      </trkpt>
      <trkpt lat="45.73734" lon="5.42207">
        <ele>245.4</ele>
        <time>2024-09-19T12:02:02Z</time>
      </trkpt>
      <trkpt lat="45.73729" lon="5.42206">
        <ele>245.4</ele>
        <time>2024-09-19T12:02:03Z</time>
      </trkpt>
      <trkpt lat="45.73723" lon="5.42205">
        <ele>245.4</ele>
        <time>2024-09-19T12:02:04Z</time>
      </trkpt>
      <trkpt lat="45.73717" lon="5.42204">
        <ele>245.4</ele>
        <time>2024-09-19T12:02:05Z</time>
      </trkpt>
      <trkpt lat="45.73711" lon="5.42203">
        <ele>245.4</ele>
        <time>2024-09-19T12:02:06Z</time>
      </trkpt>
      <trkpt lat="45.73706" lon="5.42201">
        <ele>245.4</ele>
        <time>2024-09-19T12:02:07Z</time>
      </trkpt>
      <trkpt lat="45.73699" lon="5.42201">
        <ele>245.4</ele>
        <time>2024-09-19T12:02:08Z</time>
      </trkpt>
      <trkpt lat="45.73693" lon="5.422">
        <ele>245.4</ele>
        <time>2024-09-19T12:02:09Z</time>
      </trkpt>
      <trkpt lat="45.73687" lon="5.422">
        <ele>245.4</ele>
        <time>2024-09-19T12:02:10Z</time>
      </trkpt>
      <trkpt lat="45.73681" lon="5.42198">
        <ele>245.4</ele>
        <time>2024-09-19T12:02:11Z</time>
      </trkpt>
      <trkpt lat="45.73675" lon="5.42198">
        <ele>245.6</ele>
        <time>2024-09-19T12:02:12Z</time>
      </trkpt>
      <trkpt lat="45.7367" lon="5.42197">
        <ele>245.4</ele>
        <time>2024-09-19T12:02:13Z</time>
      </trkpt>
      <trkpt lat="45.73663" lon="5.42196">
        <ele>245.2</ele>
        <time>2024-09-19T12:02:14Z</time>
      </trkpt>
      <trkpt lat="45.73657" lon="5.42194">
        <ele>245.2</ele>
        <time>2024-09-19T12:02:15Z</time>
      </trkpt>
      <trkpt lat="45.73651" lon="5.42195">
        <ele>245.2</ele>
        <time>2024-09-19T12:02:16Z</time>
      </trkpt>
      <trkpt lat="45.73645" lon="5.42195">
        <ele>245.2</ele>
        <time>2024-09-19T12:02:17Z</time>
      </trkpt>
      <trkpt lat="45.73638" lon="5.42194">
        <ele>245.2</ele>
        <time>2024-09-19T12:02:18Z</time>
      </trkpt>
      <trkpt lat="45.73632" lon="5.42194">
        <ele>245.2</ele>
        <time>2024-09-19T12:02:19Z</time>
      </trkpt>
      <trkpt lat="45.73626" lon="5.42194">
        <ele>245.2</ele>
        <time>2024-09-19T12:02:20Z</time>
      </trkpt>
      <trkpt lat="45.73619" lon="5.42196">
        <ele>245.2</ele>
        <time>2024-09-19T12:02:21Z</time>
      </trkpt>
      <trkpt lat="45.73613" lon="5.42196">
        <ele>245.2</ele>
        <time>2024-09-19T12:02:22Z</time>
      </trkpt>
      <trkpt lat="45.73607" lon="5.42196">
        <ele>245</ele>
        <time>2024-09-19T12:02:23Z</time>
      </trkpt>
      <trkpt lat="45.73601" lon="5.42197">
        <ele>245</ele>
        <time>2024-09-19T12:02:24Z</time>
      </trkpt>
      <trkpt lat="45.73595" lon="5.42198">
        <ele>245.2</ele>
        <time>2024-09-19T12:02:25Z</time>
      </trkpt>
      <trkpt lat="45.73588" lon="5.42199">
        <ele>245.2</ele>
        <time>2024-09-19T12:02:26Z</time>
      </trkpt>
      <trkpt lat="45.73583" lon="5.422">
        <ele>245.2</ele>
        <time>2024-09-19T12:02:27Z</time>
      </trkpt>
      <trkpt lat="45.73577" lon="5.42201">
        <ele>245.2</ele>
        <time>2024-09-19T12:02:28Z</time>
      </trkpt>
      <trkpt lat="45.73572" lon="5.42202">
        <ele>245.2</ele>
        <time>2024-09-19T12:02:29Z</time>
      </trkpt>
      <trkpt lat="45.73565" lon="5.42204">
        <ele>245.6</ele>
        <time>2024-09-19T12:02:30Z</time>
      </trkpt>
      <trkpt lat="45.73559" lon="5.42206">
        <ele>245.6</ele>
        <time>2024-09-19T12:02:31Z</time>
      </trkpt>
      <trkpt lat="45.73553" lon="5.42206">
        <ele>245.6</ele>
        <time>2024-09-19T12:02:32Z</time>
      </trkpt>
      <trkpt lat="45.73547" lon="5.42206">
        <ele>245.8</ele>
        <time>2024-09-19T12:02:33Z</time>
      </trkpt>
      <trkpt lat="45.73541" lon="5.42209">
        <ele>245.8</ele>
        <time>2024-09-19T12:02:34Z</time>
      </trkpt>
      <trkpt lat="45.73535" lon="5.4221">
        <ele>245.8</ele>
        <time>2024-09-19T12:02:35Z</time>
      </trkpt>
      <trkpt lat="45.73529" lon="5.42212">
        <ele>245.8</ele>
        <time>2024-09-19T12:02:36Z</time>
      </trkpt>
      <trkpt lat="45.73524" lon="5.42215">
        <ele>245.8</ele>
        <time>2024-09-19T12:02:37Z</time>
      </trkpt>
      <trkpt lat="45.73518" lon="5.42216">
        <ele>245.8</ele>
        <time>2024-09-19T12:02:38Z</time>
      </trkpt>
      <trkpt lat="45.73512" lon="5.42218">
        <ele>245.8</ele>
        <time>2024-09-19T12:02:39Z</time>
      </trkpt>
      <trkpt lat="45.73506" lon="5.42222">
        <ele>245.8</ele>
        <time>2024-09-19T12:02:40Z</time>
      </trkpt>
      <trkpt lat="45.735" lon="5.42223">
        <ele>245.8</ele>
        <time>2024-09-19T12:02:41Z</time>
      </trkpt>
      <trkpt lat="45.73494" lon="5.42227">
        <ele>245.8</ele>
        <time>2024-09-19T12:02:42Z</time>
      </trkpt>
      <trkpt lat="45.73488" lon="5.42231">
        <ele>245.8</ele>
        <time>2024-09-19T12:02:43Z</time>
      </trkpt>
      <trkpt lat="45.73482" lon="5.42235">
        <ele>245.8</ele>
        <time>2024-09-19T12:02:44Z</time>
      </trkpt>
      <trkpt lat="45.73477" lon="5.42237">
        <ele>245.8</ele>
        <time>2024-09-19T12:02:45Z</time>
      </trkpt>
      <trkpt lat="45.73471" lon="5.4224">
        <ele>245.8</ele>
        <time>2024-09-19T12:02:46Z</time>
      </trkpt>
      <trkpt lat="45.73465" lon="5.42244">
        <ele>245.4</ele>
        <time>2024-09-19T12:02:47Z</time>
      </trkpt>
      <trkpt lat="45.73458" lon="5.42247">
        <ele>245.4</ele>
        <time>2024-09-19T12:02:48Z</time>
      </trkpt>
      <trkpt lat="45.73453" lon="5.42251">
        <ele>245.4</ele>
        <time>2024-09-19T12:02:49Z</time>
      </trkpt>
      <trkpt lat="45.73446" lon="5.42255">
        <ele>245</ele>
        <time>2024-09-19T12:02:50Z</time>
      </trkpt>
      <trkpt lat="45.7344" lon="5.42259">
        <ele>245</ele>
        <time>2024-09-19T12:02:51Z</time>
      </trkpt>
      <trkpt lat="45.73435" lon="5.42264">
        <ele>245</ele>
        <time>2024-09-19T12:02:52Z</time>
      </trkpt>
      <trkpt lat="45.73429" lon="5.42268">
        <ele>245</ele>
        <time>2024-09-19T12:02:53Z</time>
      </trkpt>
      <trkpt lat="45.73424" lon="5.42272">
        <ele>245</ele>
        <time>2024-09-19T12:02:54Z</time>
      </trkpt>
      <trkpt lat="45.73418" lon="5.42278">
        <ele>245</ele>
        <time>2024-09-19T12:02:55Z</time>
      </trkpt>
      <trkpt lat="45.73412" lon="5.42282">
        <ele>245</ele>
        <time>2024-09-19T12:02:56Z</time>
      </trkpt>
      <trkpt lat="45.73407" lon="5.42287">
        <ele>245</ele>
        <time>2024-09-19T12:02:57Z</time>
      </trkpt>
      <trkpt lat="45.73401" lon="5.42292">
        <ele>245</ele>
        <time>2024-09-19T12:02:58Z</time>
      </trkpt>
      <trkpt lat="45.73396" lon="5.42295">
        <ele>245</ele>
        <time>2024-09-19T12:02:59Z</time>
      </trkpt>
      <trkpt lat="45.73391" lon="5.423">
        <ele>245</ele>
        <time>2024-09-19T12:03:00Z</time>
      </trkpt>
      <trkpt lat="45.73385" lon="5.42304">
        <ele>245</ele>
        <time>2024-09-19T12:03:01Z</time>
      </trkpt>
      <trkpt lat="45.73382" lon="5.42309">
        <ele>245.2</ele>
        <time>2024-09-19T12:03:02Z</time>
      </trkpt>
      <trkpt lat="45.73376" lon="5.42314">
        <ele>245.2</ele>
        <time>2024-09-19T12:03:03Z</time>
      </trkpt>
      <trkpt lat="45.73376" lon="5.42314">
        <ele>245.2</ele>
        <time>2024-09-19T12:03:04Z</time>
      </trkpt>
      <trkpt lat="45.7337" lon="5.4232">
        <ele>245</ele>
        <time>2024-09-19T12:03:05Z</time>
      </trkpt>
      <trkpt lat="45.73365" lon="5.42324">
        <ele>245</ele>
        <time>2024-09-19T12:03:06Z</time>
      </trkpt>
      <trkpt lat="45.7336" lon="5.42329">
        <ele>245</ele>
        <time>2024-09-19T12:03:07Z</time>
      </trkpt>
      <trkpt lat="45.73355" lon="5.42334">
        <ele>245</ele>
        <time>2024-09-19T12:03:08Z</time>
      </trkpt>
      <trkpt lat="45.73347" lon="5.4234">
        <ele>245</ele>
        <time>2024-09-19T12:03:09Z</time>
      </trkpt>
      <trkpt lat="45.73343" lon="5.42345">
        <ele>245.2</ele>
        <time>2024-09-19T12:03:10Z</time>
      </trkpt>
      <trkpt lat="45.73339" lon="5.4235">
        <ele>245.2</ele>
        <time>2024-09-19T12:03:11Z</time>
      </trkpt>
      <trkpt lat="45.73335" lon="5.42356">
        <ele>245.2</ele>
        <time>2024-09-19T12:03:12Z</time>
      </trkpt>
      <trkpt lat="45.73329" lon="5.42362">
        <ele>245.2</ele>
        <time>2024-09-19T12:03:13Z</time>
      </trkpt>
      <trkpt lat="45.73325" lon="5.42368">
        <ele>245.2</ele>
        <time>2024-09-19T12:03:14Z</time>
      </trkpt>
      <trkpt lat="45.73321" lon="5.42373">
        <ele>245.2</ele>
        <time>2024-09-19T12:03:15Z</time>
      </trkpt>
      <trkpt lat="45.73312" lon="5.42384">
        <ele>245.2</ele>
        <time>2024-09-19T12:03:16Z</time>
      </trkpt>
      <trkpt lat="45.73307" lon="5.4239">
        <ele>245.2</ele>
        <time>2024-09-19T12:03:17Z</time>
      </trkpt>
      <trkpt lat="45.73301" lon="5.42395">
        <ele>245.2</ele>
        <time>2024-09-19T12:03:18Z</time>
      </trkpt>
      <trkpt lat="45.73296" lon="5.42401">
        <ele>245.4</ele>
        <time>2024-09-19T12:03:19Z</time>
      </trkpt>
      <trkpt lat="45.73292" lon="5.42407">
        <ele>245.4</ele>
        <time>2024-09-19T12:03:20Z</time>
      </trkpt>
      <trkpt lat="45.73287" lon="5.42412">
        <ele>245.4</ele>
        <time>2024-09-19T12:03:21Z</time>
      </trkpt>
      <trkpt lat="45.73283" lon="5.42418">
        <ele>245.4</ele>
        <time>2024-09-19T12:03:22Z</time>
      </trkpt>
      <trkpt lat="45.73279" lon="5.42424">
        <ele>245.8</ele>
        <time>2024-09-19T12:03:23Z</time>
      </trkpt>
      <trkpt lat="45.73275" lon="5.42431">
        <ele>245.8</ele>
        <time>2024-09-19T12:03:24Z</time>
      </trkpt>
      <trkpt lat="45.73271" lon="5.42436">
        <ele>245.8</ele>
        <time>2024-09-19T12:03:25Z</time>
      </trkpt>
      <trkpt lat="45.73267" lon="5.42441">
        <ele>245.8</ele>
        <time>2024-09-19T12:03:26Z</time>
      </trkpt>
      <trkpt lat="45.73262" lon="5.42446">
        <ele>245.8</ele>
        <time>2024-09-19T12:03:27Z</time>
      </trkpt>
      <trkpt lat="45.73259" lon="5.42449">
        <ele>246.2</ele>
        <time>2024-09-19T12:03:28Z</time>
      </trkpt>
      <trkpt lat="45.73256" lon="5.42454">
        <ele>246.2</ele>
        <time>2024-09-19T12:03:29Z</time>
      </trkpt>
      <trkpt lat="45.73253" lon="5.42459">
        <ele>246.4</ele>
        <time>2024-09-19T12:03:30Z</time>
      </trkpt>
      <trkpt lat="45.73249" lon="5.42464">
        <ele>246.4</ele>
        <time>2024-09-19T12:03:31Z</time>
      </trkpt>
      <trkpt lat="45.73247" lon="5.42467">
        <ele>246.4</ele>
        <time>2024-09-19T12:03:32Z</time>
      </trkpt>
      <trkpt lat="45.73244" lon="5.42471">
        <ele>246.4</ele>
        <time>2024-09-19T12:03:33Z</time>
      </trkpt>
      <trkpt lat="45.73241" lon="5.42476">
        <ele>246.8</ele>
        <time>2024-09-19T12:03:34Z</time>
      </trkpt>
      <trkpt lat="45.73238" lon="5.42479">
        <ele>246.8</ele>
        <time>2024-09-19T12:03:35Z</time>
      </trkpt>
      <trkpt lat="45.73235" lon="5.42484">
        <ele>246.8</ele>
        <time>2024-09-19T12:03:36Z</time>
      </trkpt>
      <trkpt lat="45.73232" lon="5.42488">
        <ele>246.8</ele>
        <time>2024-09-19T12:03:37Z</time>
      </trkpt>
      <trkpt lat="45.73228" lon="5.42492">
        <ele>246.8</ele>
        <time>2024-09-19T12:03:38Z</time>
      </trkpt>
      <trkpt lat="45.73224" lon="5.42496">
        <ele>246.2</ele>
        <time>2024-09-19T12:03:39Z</time>
      </trkpt>
      <trkpt lat="45.7322" lon="5.425">
        <ele>246</ele>
        <time>2024-09-19T12:03:40Z</time>
      </trkpt>
      <trkpt lat="45.73216" lon="5.42504">
        <ele>246</ele>
        <time>2024-09-19T12:03:41Z</time>
      </trkpt>
      <trkpt lat="45.73213" lon="5.42509">
        <ele>245.8</ele>
        <time>2024-09-19T12:03:42Z</time>
      </trkpt>
      <trkpt lat="45.73208" lon="5.42512">
        <ele>245.8</ele>
        <time>2024-09-19T12:03:43Z</time>
      </trkpt>
      <trkpt lat="45.73204" lon="5.42517">
        <ele>245.8</ele>
        <time>2024-09-19T12:03:44Z</time>
      </trkpt>
      <trkpt lat="45.73201" lon="5.42521">
        <ele>246</ele>
        <time>2024-09-19T12:03:45Z</time>
      </trkpt>
      <trkpt lat="45.73197" lon="5.42526">
        <ele>245.4</ele>
        <time>2024-09-19T12:03:46Z</time>
      </trkpt>
      <trkpt lat="45.73193" lon="5.4253">
        <ele>246</ele>
        <time>2024-09-19T12:03:47Z</time>
      </trkpt>
      <trkpt lat="45.73189" lon="5.42534">
        <ele>245.6</ele>
        <time>2024-09-19T12:03:48Z</time>
      </trkpt>
      <trkpt lat="45.73185" lon="5.42538">
        <ele>245.6</ele>
        <time>2024-09-19T12:03:49Z</time>
      </trkpt>
      <trkpt lat="45.7318" lon="5.42541">
        <ele>246</ele>
        <time>2024-09-19T12:03:50Z</time>
      </trkpt>
      <trkpt lat="45.73176" lon="5.42544">
        <ele>246</ele>
        <time>2024-09-19T12:03:51Z</time>
      </trkpt>
      <trkpt lat="45.73171" lon="5.42548">
        <ele>246</ele>
        <time>2024-09-19T12:03:52Z</time>
      </trkpt>
      <trkpt lat="45.73166" lon="5.42552">
        <ele>246</ele>
        <time>2024-09-19T12:03:53Z</time>
      </trkpt>
      <trkpt lat="45.73161" lon="5.42555">
        <ele>246</ele>
        <time>2024-09-19T12:03:54Z</time>
      </trkpt>
      <trkpt lat="45.73157" lon="5.42559">
        <ele>245.8</ele>
        <time>2024-09-19T12:03:55Z</time>
      </trkpt>
      <trkpt lat="45.73152" lon="5.42561">
        <ele>245.8</ele>
        <time>2024-09-19T12:03:56Z</time>
      </trkpt>
      <trkpt lat="45.73147" lon="5.42565">
        <ele>245.8</ele>
        <time>2024-09-19T12:03:57Z</time>
      </trkpt>
      <trkpt lat="45.73142" lon="5.42569">
        <ele>245.8</ele>
        <time>2024-09-19T12:03:58Z</time>
      </trkpt>
      <trkpt lat="45.73136" lon="5.42572">
        <ele>245.8</ele>
        <time>2024-09-19T12:03:59Z</time>
      </trkpt>
      <trkpt lat="45.73131" lon="5.42575">
        <ele>245.8</ele>
        <time>2024-09-19T12:04:00Z</time>
      </trkpt>
      <trkpt lat="45.73126" lon="5.42579">
        <ele>245.8</ele>
        <time>2024-09-19T12:04:01Z</time>
      </trkpt>
      <trkpt lat="45.73121" lon="5.42581">
        <ele>245.8</ele>
        <time>2024-09-19T12:04:02Z</time>
      </trkpt>
      <trkpt lat="45.73116" lon="5.42585">
        <ele>245.8</ele>
        <time>2024-09-19T12:04:03Z</time>
      </trkpt>
      <trkpt lat="45.73111" lon="5.42588">
        <ele>245.8</ele>
        <time>2024-09-19T12:04:04Z</time>
      </trkpt>
      <trkpt lat="45.73106" lon="5.42592">
        <ele>245.8</ele>
        <time>2024-09-19T12:04:05Z</time>
      </trkpt>
      <trkpt lat="45.73101" lon="5.42594">
        <ele>245.4</ele>
        <time>2024-09-19T12:04:06Z</time>
      </trkpt>
      <trkpt lat="45.73095" lon="5.42597">
        <ele>245.4</ele>
        <time>2024-09-19T12:04:07Z</time>
      </trkpt>
      <trkpt lat="45.73089" lon="5.42601">
        <ele>245.4</ele>
        <time>2024-09-19T12:04:08Z</time>
      </trkpt>
      <trkpt lat="45.73084" lon="5.42603">
        <ele>245.4</ele>
        <time>2024-09-19T12:04:09Z</time>
      </trkpt>
      <trkpt lat="45.73079" lon="5.42606">
        <ele>245.4</ele>
        <time>2024-09-19T12:04:10Z</time>
      </trkpt>
      <trkpt lat="45.73074" lon="5.42608">
        <ele>245.4</ele>
        <time>2024-09-19T12:04:11Z</time>
      </trkpt>
      <trkpt lat="45.7307" lon="5.42611">
        <ele>245.4</ele>
        <time>2024-09-19T12:04:12Z</time>
      </trkpt>
      <trkpt lat="45.73064" lon="5.42614">
        <ele>245.4</ele>
        <time>2024-09-19T12:04:13Z</time>
      </trkpt>
      <trkpt lat="45.73058" lon="5.42616">
        <ele>245.4</ele>
        <time>2024-09-19T12:04:14Z</time>
      </trkpt>
      <trkpt lat="45.73053" lon="5.42618">
        <ele>245.4</ele>
        <time>2024-09-19T12:04:15Z</time>
      </trkpt>
      <trkpt lat="45.73048" lon="5.4262">
        <ele>245.8</ele>
        <time>2024-09-19T12:04:16Z</time>
      </trkpt>
      <trkpt lat="45.73042" lon="5.42621">
        <ele>245.8</ele>
        <time>2024-09-19T12:04:17Z</time>
      </trkpt>
      <trkpt lat="45.73038" lon="5.42623">
        <ele>245.8</ele>
        <time>2024-09-19T12:04:18Z</time>
      </trkpt>
      <trkpt lat="45.73031" lon="5.42623">
        <ele>245.8</ele>
        <time>2024-09-19T12:04:19Z</time>
      </trkpt>
      <trkpt lat="45.73025" lon="5.42625">
        <ele>245.8</ele>
        <time>2024-09-19T12:04:20Z</time>
      </trkpt>
      <trkpt lat="45.73019" lon="5.42627">
        <ele>245.8</ele>
        <time>2024-09-19T12:04:21Z</time>
      </trkpt>
      <trkpt lat="45.73014" lon="5.42629">
        <ele>245.8</ele>
        <time>2024-09-19T12:04:22Z</time>
      </trkpt>
      <trkpt lat="45.73009" lon="5.4263">
        <ele>245.8</ele>
        <time>2024-09-19T12:04:23Z</time>
      </trkpt>
      <trkpt lat="45.73003" lon="5.42632">
        <ele>245.8</ele>
        <time>2024-09-19T12:04:24Z</time>
      </trkpt>
      <trkpt lat="45.72996" lon="5.42632">
        <ele>245.8</ele>
        <time>2024-09-19T12:04:25Z</time>
      </trkpt>
      <trkpt lat="45.72991" lon="5.42633">
        <ele>245.8</ele>
        <time>2024-09-19T12:04:26Z</time>
      </trkpt>
      <trkpt lat="45.72985" lon="5.42634">
        <ele>245.8</ele>
        <time>2024-09-19T12:04:27Z</time>
      </trkpt>
      <trkpt lat="45.72979" lon="5.42634">
        <ele>246</ele>
        <time>2024-09-19T12:04:28Z</time>
      </trkpt>
      <trkpt lat="45.72974" lon="5.42634">
        <ele>246</ele>
        <time>2024-09-19T12:04:29Z</time>
      </trkpt>
      <trkpt lat="45.72968" lon="5.42635">
        <ele>246</ele>
        <time>2024-09-19T12:04:30Z</time>
      </trkpt>
      <trkpt lat="45.72963" lon="5.42635">
        <ele>246</ele>
        <time>2024-09-19T12:04:31Z</time>
      </trkpt>
      <trkpt lat="45.72957" lon="5.42634">
        <ele>246</ele>
        <time>2024-09-19T12:04:32Z</time>
      </trkpt>
      <trkpt lat="45.72951" lon="5.42634">
        <ele>246</ele>
        <time>2024-09-19T12:04:33Z</time>
      </trkpt>
      <trkpt lat="45.72945" lon="5.42634">
        <ele>246</ele>
        <time>2024-09-19T12:04:34Z</time>
      </trkpt>
      <trkpt lat="45.7294" lon="5.42634">
        <ele>246</ele>
        <time>2024-09-19T12:04:35Z</time>
      </trkpt>
      <trkpt lat="45.72934" lon="5.42633">
        <ele>246</ele>
        <time>2024-09-19T12:04:36Z</time>
      </trkpt>
      <trkpt lat="45.72928" lon="5.42632">
        <ele>246</ele>
        <time>2024-09-19T12:04:37Z</time>
      </trkpt>
      <trkpt lat="45.72922" lon="5.42632">
        <ele>246</ele>
        <time>2024-09-19T12:04:38Z</time>
      </trkpt>
      <trkpt lat="45.72916" lon="5.42632">
        <ele>246</ele>
        <time>2024-09-19T12:04:39Z</time>
      </trkpt>
      <trkpt lat="45.7291" lon="5.42631">
        <ele>246</ele>
        <time>2024-09-19T12:04:40Z</time>
      </trkpt>
      <trkpt lat="45.72904" lon="5.42631">
        <ele>246</ele>
        <time>2024-09-19T12:04:41Z</time>
      </trkpt>
      <trkpt lat="45.72898" lon="5.42631">
        <ele>246</ele>
        <time>2024-09-19T12:04:42Z</time>
      </trkpt>
      <trkpt lat="45.72892" lon="5.4263">
        <ele>246</ele>
        <time>2024-09-19T12:04:43Z</time>
      </trkpt>
      <trkpt lat="45.72887" lon="5.42628">
        <ele>246</ele>
        <time>2024-09-19T12:04:44Z</time>
      </trkpt>
      <trkpt lat="45.72881" lon="5.42627">
        <ele>246</ele>
        <time>2024-09-19T12:04:45Z</time>
      </trkpt>
      <trkpt lat="45.72875" lon="5.42626">
        <ele>246</ele>
        <time>2024-09-19T12:04:46Z</time>
      </trkpt>
      <trkpt lat="45.72869" lon="5.42624">
        <ele>246</ele>
        <time>2024-09-19T12:04:47Z</time>
      </trkpt>
      <trkpt lat="45.72863" lon="5.42623">
        <ele>246</ele>
        <time>2024-09-19T12:04:48Z</time>
      </trkpt>
      <trkpt lat="45.72857" lon="5.42621">
        <ele>246</ele>
        <time>2024-09-19T12:04:49Z</time>
      </trkpt>
      <trkpt lat="45.72851" lon="5.4262">
        <ele>246</ele>
        <time>2024-09-19T12:04:50Z</time>
      </trkpt>
      <trkpt lat="45.72845" lon="5.42617">
        <ele>246</ele>
        <time>2024-09-19T12:04:51Z</time>
      </trkpt>
      <trkpt lat="45.72839" lon="5.42615">
        <ele>246</ele>
        <time>2024-09-19T12:04:52Z</time>
      </trkpt>
      <trkpt lat="45.72833" lon="5.42613">
        <ele>246</ele>
        <time>2024-09-19T12:04:53Z</time>
      </trkpt>
      <trkpt lat="45.72828" lon="5.42611">
        <ele>246</ele>
        <time>2024-09-19T12:04:54Z</time>
      </trkpt>
      <trkpt lat="45.72822" lon="5.42609">
        <ele>246</ele>
        <time>2024-09-19T12:04:55Z</time>
      </trkpt>
      <trkpt lat="45.72816" lon="5.42606">
        <ele>246</ele>
        <time>2024-09-19T12:04:56Z</time>
      </trkpt>
      <trkpt lat="45.7281" lon="5.42604">
        <ele>246</ele>
        <time>2024-09-19T12:04:57Z</time>
      </trkpt>
      <trkpt lat="45.72804" lon="5.42601">
        <ele>245.6</ele>
        <time>2024-09-19T12:04:58Z</time>
      </trkpt>
      <trkpt lat="45.72798" lon="5.42597">
        <ele>245.6</ele>
        <time>2024-09-19T12:04:59Z</time>
      </trkpt>
      <trkpt lat="45.72792" lon="5.42594">
        <ele>245.4</ele>
        <time>2024-09-19T12:05:00Z</time>
      </trkpt>
      <trkpt lat="45.72786" lon="5.42592">
        <ele>245.4</ele>
        <time>2024-09-19T12:05:01Z</time>
      </trkpt>
      <trkpt lat="45.7278" lon="5.42589">
        <ele>245.4</ele>
        <time>2024-09-19T12:05:02Z</time>
      </trkpt>
      <trkpt lat="45.72774" lon="5.42585">
        <ele>245.4</ele>
        <time>2024-09-19T12:05:03Z</time>
      </trkpt>
      <trkpt lat="45.72768" lon="5.42583">
        <ele>245.4</ele>
        <time>2024-09-19T12:05:04Z</time>
      </trkpt>
      <trkpt lat="45.72763" lon="5.4258">
        <ele>245.4</ele>
        <time>2024-09-19T12:05:05Z</time>
      </trkpt>
      <trkpt lat="45.72758" lon="5.42576">
        <ele>245.4</ele>
        <time>2024-09-19T12:05:06Z</time>
      </trkpt>
      <trkpt lat="45.72752" lon="5.42574">
        <ele>245.4</ele>
        <time>2024-09-19T12:05:07Z</time>
      </trkpt>
      <trkpt lat="45.72746" lon="5.42571">
        <ele>245.4</ele>
        <time>2024-09-19T12:05:08Z</time>
      </trkpt>
      <trkpt lat="45.7274" lon="5.42567">
        <ele>245.4</ele>
        <time>2024-09-19T12:05:09Z</time>
      </trkpt>
      <trkpt lat="45.72734" lon="5.42564">
        <ele>245.2</ele>
        <time>2024-09-19T12:05:10Z</time>
      </trkpt>
      <trkpt lat="45.72729" lon="5.4256">
        <ele>245.2</ele>
        <time>2024-09-19T12:05:11Z</time>
      </trkpt>
      <trkpt lat="45.72724" lon="5.42556">
        <ele>245.2</ele>
        <time>2024-09-19T12:05:12Z</time>
      </trkpt>
      <trkpt lat="45.72717" lon="5.42555">
        <ele>245.2</ele>
        <time>2024-09-19T12:05:13Z</time>
      </trkpt>
      <trkpt lat="45.72711" lon="5.42552">
        <ele>245.2</ele>
        <time>2024-09-19T12:05:14Z</time>
      </trkpt>
      <trkpt lat="45.72706" lon="5.42551">
        <ele>245.2</ele>
        <time>2024-09-19T12:05:15Z</time>
      </trkpt>
      <trkpt lat="45.72701" lon="5.42549">
        <ele>245.2</ele>
        <time>2024-09-19T12:05:16Z</time>
      </trkpt>
      <trkpt lat="45.72696" lon="5.42546">
        <ele>245.2</ele>
        <time>2024-09-19T12:05:17Z</time>
      </trkpt>
      <trkpt lat="45.72691" lon="5.42543">
        <ele>245.6</ele>
        <time>2024-09-19T12:05:18Z</time>
      </trkpt>
      <trkpt lat="45.72689" lon="5.4254">
        <ele>245.6</ele>
        <time>2024-09-19T12:05:19Z</time>
      </trkpt>
      <trkpt lat="45.72685" lon="5.42537">
        <ele>245.6</ele>
        <time>2024-09-19T12:05:20Z</time>
      </trkpt>
      <trkpt lat="45.72683" lon="5.42531">
        <ele>245.6</ele>
        <time>2024-09-19T12:05:21Z</time>
      </trkpt>
      <trkpt lat="45.72681" lon="5.42526">
        <ele>245.6</ele>
        <time>2024-09-19T12:05:22Z</time>
      </trkpt>
      <trkpt lat="45.72677" lon="5.42522">
        <ele>245.8</ele>
        <time>2024-09-19T12:05:23Z</time>
      </trkpt>
      <trkpt lat="45.72673" lon="5.42517">
        <ele>245.4</ele>
        <time>2024-09-19T12:05:24Z</time>
      </trkpt>
      <trkpt lat="45.72669" lon="5.42513">
        <ele>245.4</ele>
        <time>2024-09-19T12:05:25Z</time>
      </trkpt>
      <trkpt lat="45.72665" lon="5.42511">
        <ele>245.4</ele>
        <time>2024-09-19T12:05:26Z</time>
      </trkpt>
      <trkpt lat="45.7266" lon="5.42509">
        <ele>244.8</ele>
        <time>2024-09-19T12:05:27Z</time>
      </trkpt>
      <trkpt lat="45.72656" lon="5.42508">
        <ele>244.8</ele>
        <time>2024-09-19T12:05:28Z</time>
      </trkpt>
      <trkpt lat="45.72651" lon="5.42505">
        <ele>244.8</ele>
        <time>2024-09-19T12:05:29Z</time>
      </trkpt>
      <trkpt lat="45.72647" lon="5.42502">
        <ele>244.8</ele>
        <time>2024-09-19T12:05:30Z</time>
      </trkpt>
      <trkpt lat="45.72642" lon="5.425">
        <ele>244.6</ele>
        <time>2024-09-19T12:05:31Z</time>
      </trkpt>
      <trkpt lat="45.72637" lon="5.42497">
        <ele>244.6</ele>
        <time>2024-09-19T12:05:32Z</time>
      </trkpt>
      <trkpt lat="45.72633" lon="5.42494">
        <ele>244.6</ele>
        <time>2024-09-19T12:05:33Z</time>
      </trkpt>
      <trkpt lat="45.72628" lon="5.42492">
        <ele>244.6</ele>
        <time>2024-09-19T12:05:34Z</time>
      </trkpt>
      <trkpt lat="45.72623" lon="5.4249">
        <ele>244.8</ele>
        <time>2024-09-19T12:05:35Z</time>
      </trkpt>
      <trkpt lat="45.72618" lon="5.42488">
        <ele>244.8</ele>
        <time>2024-09-19T12:05:36Z</time>
      </trkpt>
      <trkpt lat="45.72614" lon="5.42486">
        <ele>245.2</ele>
        <time>2024-09-19T12:05:37Z</time>
      </trkpt>
      <trkpt lat="45.72611" lon="5.42484">
        <ele>245.2</ele>
        <time>2024-09-19T12:05:38Z</time>
      </trkpt>
      <trkpt lat="45.72607" lon="5.42481">
        <ele>245.4</ele>
        <time>2024-09-19T12:05:39Z</time>
      </trkpt>
      <trkpt lat="45.72603" lon="5.42479">
        <ele>245.4</ele>
        <time>2024-09-19T12:05:40Z</time>
      </trkpt>
      <trkpt lat="45.72599" lon="5.42477">
        <ele>245.4</ele>
        <time>2024-09-19T12:05:41Z</time>
      </trkpt>
      <trkpt lat="45.72595" lon="5.42473">
        <ele>245.4</ele>
        <time>2024-09-19T12:05:42Z</time>
      </trkpt>
      <trkpt lat="45.7259" lon="5.42471">
        <ele>245.4</ele>
        <time>2024-09-19T12:05:43Z</time>
      </trkpt>
      <trkpt lat="45.72586" lon="5.42468">
        <ele>245.4</ele>
        <time>2024-09-19T12:05:44Z</time>
      </trkpt>
      <trkpt lat="45.72581" lon="5.42466">
        <ele>245.4</ele>
        <time>2024-09-19T12:05:45Z</time>
      </trkpt>
      <trkpt lat="45.72577" lon="5.42464">
        <ele>245.4</ele>
        <time>2024-09-19T12:05:46Z</time>
      </trkpt>
      <trkpt lat="45.72572" lon="5.42461">
        <ele>245.4</ele>
        <time>2024-09-19T12:05:47Z</time>
      </trkpt>
      <trkpt lat="45.72567" lon="5.42459">
        <ele>245.4</ele>
        <time>2024-09-19T12:05:48Z</time>
      </trkpt>
      <trkpt lat="45.72563" lon="5.42457">
        <ele>245.4</ele>
        <time>2024-09-19T12:05:49Z</time>
      </trkpt>
      <trkpt lat="45.72559" lon="5.42454">
        <ele>245.4</ele>
        <time>2024-09-19T12:05:50Z</time>
      </trkpt>
      <trkpt lat="45.72554" lon="5.42451">
        <ele>245.4</ele>
        <time>2024-09-19T12:05:51Z</time>
      </trkpt>
      <trkpt lat="45.7255" lon="5.42449">
        <ele>245.4</ele>
        <time>2024-09-19T12:05:52Z</time>
      </trkpt>
      <trkpt lat="45.72545" lon="5.42447">
        <ele>245.8</ele>
        <time>2024-09-19T12:05:53Z</time>
      </trkpt>
      <trkpt lat="45.72541" lon="5.42444">
        <ele>245.8</ele>
        <time>2024-09-19T12:05:54Z</time>
      </trkpt>
      <trkpt lat="45.72536" lon="5.42442">
        <ele>245.8</ele>
        <time>2024-09-19T12:05:55Z</time>
      </trkpt>
      <trkpt lat="45.72531" lon="5.42439">
        <ele>245.8</ele>
        <time>2024-09-19T12:05:56Z</time>
      </trkpt>
      <trkpt lat="45.72526" lon="5.42437">
        <ele>245.8</ele>
        <time>2024-09-19T12:05:57Z</time>
      </trkpt>
      <trkpt lat="45.72521" lon="5.42434">
        <ele>245.8</ele>
        <time>2024-09-19T12:05:58Z</time>
      </trkpt>
      <trkpt lat="45.72517" lon="5.42432">
        <ele>245.8</ele>
        <time>2024-09-19T12:05:59Z</time>
      </trkpt>
      <trkpt lat="45.72512" lon="5.42429">
        <ele>245.4</ele>
        <time>2024-09-19T12:06:00Z</time>
      </trkpt>
      <trkpt lat="45.72507" lon="5.42426">
        <ele>245.8</ele>
        <time>2024-09-19T12:06:01Z</time>
      </trkpt>
      <trkpt lat="45.72502" lon="5.42424">
        <ele>246</ele>
        <time>2024-09-19T12:06:02Z</time>
      </trkpt>
      <trkpt lat="45.72497" lon="5.42421">
        <ele>246</ele>
        <time>2024-09-19T12:06:03Z</time>
      </trkpt>
      <trkpt lat="45.72492" lon="5.42418">
        <ele>245.6</ele>
        <time>2024-09-19T12:06:04Z</time>
      </trkpt>
      <trkpt lat="45.72487" lon="5.42415">
        <ele>245.8</ele>
        <time>2024-09-19T12:06:05Z</time>
      </trkpt>
      <trkpt lat="45.72482" lon="5.42412">
        <ele>245.8</ele>
        <time>2024-09-19T12:06:06Z</time>
      </trkpt>
      <trkpt lat="45.72477" lon="5.4241">
        <ele>246</ele>
        <time>2024-09-19T12:06:07Z</time>
      </trkpt>
      <trkpt lat="45.72472" lon="5.42408">
        <ele>246</ele>
        <time>2024-09-19T12:06:08Z</time>
      </trkpt>
      <trkpt lat="45.72467" lon="5.42406">
        <ele>246</ele>
        <time>2024-09-19T12:06:09Z</time>
      </trkpt>
      <trkpt lat="45.72462" lon="5.42404">
        <ele>245.8</ele>
        <time>2024-09-19T12:06:10Z</time>
      </trkpt>
      <trkpt lat="45.72457" lon="5.42403">
        <ele>245.8</ele>
        <time>2024-09-19T12:06:11Z</time>
      </trkpt>
      <trkpt lat="45.72452" lon="5.42401">
        <ele>245.8</ele>
        <time>2024-09-19T12:06:12Z</time>
      </trkpt>
      <trkpt lat="45.72448" lon="5.42399">
        <ele>245.8</ele>
        <time>2024-09-19T12:06:13Z</time>
      </trkpt>
      <trkpt lat="45.72443" lon="5.42398">
        <ele>245.8</ele>
        <time>2024-09-19T12:06:14Z</time>
      </trkpt>
      <trkpt lat="45.72439" lon="5.42397">
        <ele>245.8</ele>
        <time>2024-09-19T12:06:15Z</time>
      </trkpt>
      <trkpt lat="45.72435" lon="5.42395">
        <ele>245.4</ele>
        <time>2024-09-19T12:06:16Z</time>
      </trkpt>
      <trkpt lat="45.72431" lon="5.42393">
        <ele>245.4</ele>
        <time>2024-09-19T12:06:17Z</time>
      </trkpt>
      <trkpt lat="45.72426" lon="5.42391">
        <ele>245.4</ele>
        <time>2024-09-19T12:06:18Z</time>
      </trkpt>
      <trkpt lat="45.72422" lon="5.42389">
        <ele>245.4</ele>
        <time>2024-09-19T12:06:19Z</time>
      </trkpt>
      <trkpt lat="45.72417" lon="5.42387">
        <ele>245.4</ele>
        <time>2024-09-19T12:06:20Z</time>
      </trkpt>
      <trkpt lat="45.72417" lon="5.42387">
        <ele>245.6</ele>
        <time>2024-09-19T12:06:21Z</time>
      </trkpt>
      <trkpt lat="45.72413" lon="5.42384">
        <ele>245.6</ele>
        <time>2024-09-19T12:06:22Z</time>
      </trkpt>
      <trkpt lat="45.72409" lon="5.42382">
        <ele>245.6</ele>
        <time>2024-09-19T12:06:23Z</time>
      </trkpt>
      <trkpt lat="45.72405" lon="5.42381">
        <ele>246</ele>
        <time>2024-09-19T12:06:24Z</time>
      </trkpt>
      <trkpt lat="45.72401" lon="5.4238">
        <ele>246</ele>
        <time>2024-09-19T12:06:25Z</time>
      </trkpt>
      <trkpt lat="45.72397" lon="5.42379">
        <ele>246</ele>
        <time>2024-09-19T12:06:26Z</time>
      </trkpt>
      <trkpt lat="45.72394" lon="5.42377">
        <ele>246</ele>
        <time>2024-09-19T12:06:27Z</time>
      </trkpt>
      <trkpt lat="45.7239" lon="5.42375">
        <ele>246</ele>
        <time>2024-09-19T12:06:28Z</time>
      </trkpt>
      <trkpt lat="45.72385" lon="5.42373">
        <ele>246</ele>
        <time>2024-09-19T12:06:29Z</time>
      </trkpt>
      <trkpt lat="45.72382" lon="5.42371">
        <ele>246</ele>
        <time>2024-09-19T12:06:30Z</time>
      </trkpt>
      <trkpt lat="45.72378" lon="5.42369">
        <ele>245.8</ele>
        <time>2024-09-19T12:06:31Z</time>
      </trkpt>
      <trkpt lat="45.72374" lon="5.42368">
        <ele>245.8</ele>
        <time>2024-09-19T12:06:32Z</time>
      </trkpt>
      <trkpt lat="45.72371" lon="5.42366">
        <ele>246</ele>
        <time>2024-09-19T12:06:33Z</time>
      </trkpt>
      <trkpt lat="45.72364" lon="5.42364">
        <ele>246</ele>
        <time>2024-09-19T12:06:34Z</time>
      </trkpt>
      <trkpt lat="45.72361" lon="5.42363">
        <ele>246</ele>
        <time>2024-09-19T12:06:35Z</time>
      </trkpt>
      <trkpt lat="45.72357" lon="5.42362">
        <ele>246</ele>
        <time>2024-09-19T12:06:36Z</time>
      </trkpt>
      <trkpt lat="45.72354" lon="5.42361">
        <ele>246</ele>
        <time>2024-09-19T12:06:37Z</time>
      </trkpt>
      <trkpt lat="45.72351" lon="5.42359">
        <ele>246</ele>
        <time>2024-09-19T12:06:38Z</time>
      </trkpt>
      <trkpt lat="45.72348" lon="5.42357">
        <ele>246</ele>
        <time>2024-09-19T12:06:39Z</time>
      </trkpt>
      <trkpt lat="45.72347" lon="5.42355">
        <ele>246</ele>
        <time>2024-09-19T12:06:40Z</time>
      </trkpt>
      <trkpt lat="45.72347" lon="5.42352">
        <ele>245.8</ele>
        <time>2024-09-19T12:06:41Z</time>
      </trkpt>
      <trkpt lat="45.72347" lon="5.42348">
        <ele>245.8</ele>
        <time>2024-09-19T12:06:42Z</time>
      </trkpt>
      <trkpt lat="45.72348" lon="5.42343">
        <ele>245.8</ele>
        <time>2024-09-19T12:06:43Z</time>
      </trkpt>
      <trkpt lat="45.72349" lon="5.42338">
        <ele>245.2</ele>
        <time>2024-09-19T12:06:44Z</time>
      </trkpt>
      <trkpt lat="45.7235" lon="5.42334">
        <ele>245.2</ele>
        <time>2024-09-19T12:06:45Z</time>
      </trkpt>
      <trkpt lat="45.7235" lon="5.4233">
        <ele>245</ele>
        <time>2024-09-19T12:06:46Z</time>
      </trkpt>
      <trkpt lat="45.7235" lon="5.42325">
        <ele>244.8</ele>
        <time>2024-09-19T12:06:47Z</time>
      </trkpt>
      <trkpt lat="45.7235" lon="5.42322">
        <ele>244.8</ele>
        <time>2024-09-19T12:06:48Z</time>
      </trkpt>
      <trkpt lat="45.7235" lon="5.4232">
        <ele>244.8</ele>
        <time>2024-09-19T12:06:49Z</time>
      </trkpt>
      <trkpt lat="45.7235" lon="5.42317">
        <ele>244.8</ele>
        <time>2024-09-19T12:06:50Z</time>
      </trkpt>
      <trkpt lat="45.7235" lon="5.42314">
        <ele>244.8</ele>
        <time>2024-09-19T12:06:51Z</time>
      </trkpt>
      <trkpt lat="45.72349" lon="5.42312">
        <ele>244.4</ele>
        <time>2024-09-19T12:06:52Z</time>
      </trkpt>
      <trkpt lat="45.72349" lon="5.42309">
        <ele>244.4</ele>
        <time>2024-09-19T12:06:53Z</time>
      </trkpt>
      <trkpt lat="45.72348" lon="5.42308">
        <ele>244</ele>
        <time>2024-09-19T12:06:54Z</time>
      </trkpt>
      <trkpt lat="45.72347" lon="5.42306">
        <ele>244</ele>
        <time>2024-09-19T12:06:55Z</time>
      </trkpt>
      <trkpt lat="45.72347" lon="5.42306">
        <ele>244</ele>
        <time>2024-09-19T12:06:56Z</time>
      </trkpt>
      <trkpt lat="45.72346" lon="5.42306">
        <ele>244</ele>
        <time>2024-09-19T12:06:57Z</time>
      </trkpt>
      <trkpt lat="45.72346" lon="5.42306">
        <ele>244</ele>
        <time>2024-09-19T12:06:58Z</time>
      </trkpt>
      <trkpt lat="45.72347" lon="5.42302">
        <ele>244</ele>
        <time>2024-09-19T12:08:30Z</time>
      </trkpt>
      <trkpt lat="45.72347" lon="5.42302">
        <ele>244</ele>
        <time>2024-09-19T12:08:31Z</time>
      </trkpt>
      <trkpt lat="45.72347" lon="5.42302">
        <ele>244</ele>
        <time>2024-09-19T12:08:32Z</time>
      </trkpt>
      <trkpt lat="45.72351" lon="5.42291">
        <ele>243.6</ele>
        <time>2024-09-19T12:08:34Z</time>
      </trkpt>
      <trkpt lat="45.72352" lon="5.42288">
        <ele>243.6</ele>
        <time>2024-09-19T12:08:35Z</time>
      </trkpt>
      <trkpt lat="45.72353" lon="5.42285">
        <ele>243.2</ele>
        <time>2024-09-19T12:08:36Z</time>
      </trkpt>
      <trkpt lat="45.72354" lon="5.42281">
        <ele>243.2</ele>
        <time>2024-09-19T12:08:37Z</time>
      </trkpt>
      <trkpt lat="45.72354" lon="5.42276">
        <ele>243.2</ele>
        <time>2024-09-19T12:08:38Z</time>
      </trkpt>
      <trkpt lat="45.72355" lon="5.42272">
        <ele>243.2</ele>
        <time>2024-09-19T12:08:39Z</time>
      </trkpt>
      <trkpt lat="45.72355" lon="5.42268">
        <ele>243.2</ele>
        <time>2024-09-19T12:08:40Z</time>
      </trkpt>
      <trkpt lat="45.72356" lon="5.42263">
        <ele>243.2</ele>
        <time>2024-09-19T12:08:41Z</time>
      </trkpt>
      <trkpt lat="45.72356" lon="5.42259">
        <ele>243.2</ele>
        <time>2024-09-19T12:08:42Z</time>
      </trkpt>
      <trkpt lat="45.72356" lon="5.42254">
        <ele>243.2</ele>
        <time>2024-09-19T12:08:43Z</time>
      </trkpt>
      <trkpt lat="45.72356" lon="5.4225">
        <ele>243.2</ele>
        <time>2024-09-19T12:08:44Z</time>
      </trkpt>
      <trkpt lat="45.72356" lon="5.42245">
        <ele>243.2</ele>
        <time>2024-09-19T12:08:45Z</time>
      </trkpt>
      <trkpt lat="45.72357" lon="5.42241">
        <ele>243.2</ele>
        <time>2024-09-19T12:08:46Z</time>
      </trkpt>
      <trkpt lat="45.72357" lon="5.42237">
        <ele>243</ele>
        <time>2024-09-19T12:08:47Z</time>
      </trkpt>
      <trkpt lat="45.72357" lon="5.42233">
        <ele>243</ele>
        <time>2024-09-19T12:08:48Z</time>
      </trkpt>
      <trkpt lat="45.72358" lon="5.42228">
        <ele>243</ele>
        <time>2024-09-19T12:08:49Z</time>
      </trkpt>
      <trkpt lat="45.72358" lon="5.42224">
        <ele>243.4</ele>
        <time>2024-09-19T12:08:50Z</time>
      </trkpt>
      <trkpt lat="45.72358" lon="5.4222">
        <ele>243.4</ele>
        <time>2024-09-19T12:08:51Z</time>
      </trkpt>
      <trkpt lat="45.72358" lon="5.42216">
        <ele>243.4</ele>
        <time>2024-09-19T12:08:52Z</time>
      </trkpt>
      <trkpt lat="45.72358" lon="5.42213">
        <ele>243.4</ele>
        <time>2024-09-19T12:08:53Z</time>
      </trkpt>
      <trkpt lat="45.72358" lon="5.42209">
        <ele>243.4</ele>
        <time>2024-09-19T12:08:54Z</time>
      </trkpt>
      <trkpt lat="45.72358" lon="5.42206">
        <ele>243.4</ele>
        <time>2024-09-19T12:08:55Z</time>
      </trkpt>
      <trkpt lat="45.72358" lon="5.42203">
        <ele>243.6</ele>
        <time>2024-09-19T12:08:56Z</time>
      </trkpt>
      <trkpt lat="45.72358" lon="5.422">
        <ele>243.6</ele>
        <time>2024-09-19T12:08:57Z</time>
      </trkpt>
      <trkpt lat="45.72358" lon="5.42199">
        <ele>243.6</ele>
        <time>2024-09-19T12:08:58Z</time>
      </trkpt>
      <trkpt lat="45.72358" lon="5.42199">
        <ele>243.8</ele>
        <time>2024-09-19T12:08:59Z</time>
      </trkpt>
      <trkpt lat="45.72358" lon="5.42199">
        <ele>243.8</ele>
        <time>2024-09-19T12:09:00Z</time>
      </trkpt>
      <trkpt lat="45.72357" lon="5.42198">
        <ele>243.8</ele>
        <time>2024-09-19T12:09:01Z</time>
      </trkpt>
      <trkpt lat="45.72357" lon="5.42198">
        <ele>243.8</ele>
        <time>2024-09-19T12:09:02Z</time>
      </trkpt>
      <trkpt lat="45.72357" lon="5.42197">
        <ele>243.8</ele>
        <time>2024-09-19T12:09:03Z</time>
      </trkpt>
      <trkpt lat="45.72357" lon="5.42197">
        <ele>243.8</ele>
        <time>2024-09-19T12:09:04Z</time>
      </trkpt>
      <trkpt lat="45.72358" lon="5.42197">
        <ele>243.6</ele>
        <time>2024-09-19T12:09:05Z</time>
      </trkpt>
      <trkpt lat="45.72357" lon="5.42199">
        <ele>244.4</ele>
        <time>2024-09-19T12:10:58Z</time>
      </trkpt>
      <trkpt lat="45.72357" lon="5.42199">
        <ele>244</ele>
        <time>2024-09-19T12:10:59Z</time>
      </trkpt>
      <trkpt lat="45.72358" lon="5.42202">
        <ele>243.8</ele>
        <time>2024-09-19T12:11:12Z</time>
      </trkpt>
      <trkpt lat="45.72358" lon="5.42202">
        <ele>243.8</ele>
        <time>2024-09-19T12:11:13Z</time>
      </trkpt>
      <trkpt lat="45.72358" lon="5.42203">
        <ele>243.8</ele>
        <time>2024-09-19T12:11:14Z</time>
      </trkpt>
      <trkpt lat="45.72358" lon="5.42206">
        <ele>243.8</ele>
        <time>2024-09-19T12:11:15Z</time>
      </trkpt>
      <trkpt lat="45.72358" lon="5.42208">
        <ele>243.8</ele>
        <time>2024-09-19T12:11:16Z</time>
      </trkpt>
      <trkpt lat="45.72358" lon="5.42211">
        <ele>243.8</ele>
        <time>2024-09-19T12:11:17Z</time>
      </trkpt>
      <trkpt lat="45.72359" lon="5.42215">
        <ele>243.6</ele>
        <time>2024-09-19T12:11:18Z</time>
      </trkpt>
      <trkpt lat="45.72359" lon="5.42218">
        <ele>243.6</ele>
        <time>2024-09-19T12:11:19Z</time>
      </trkpt>
      <trkpt lat="45.72359" lon="5.42222">
        <ele>243.6</ele>
        <time>2024-09-19T12:11:20Z</time>
      </trkpt>
      <trkpt lat="45.72358" lon="5.42226">
        <ele>243.4</ele>
        <time>2024-09-19T12:11:21Z</time>
      </trkpt>
      <trkpt lat="45.72358" lon="5.4223">
        <ele>243.4</ele>
        <time>2024-09-19T12:11:22Z</time>
      </trkpt>
      <trkpt lat="45.72358" lon="5.42234">
        <ele>243.6</ele>
        <time>2024-09-19T12:11:23Z</time>
      </trkpt>
      <trkpt lat="45.72357" lon="5.42239">
        <ele>243.6</ele>
        <time>2024-09-19T12:11:24Z</time>
      </trkpt>
      <trkpt lat="45.72357" lon="5.42243">
        <ele>243.6</ele>
        <time>2024-09-19T12:11:25Z</time>
      </trkpt>
      <trkpt lat="45.72356" lon="5.42248">
        <ele>243.6</ele>
        <time>2024-09-19T12:11:26Z</time>
      </trkpt>
      <trkpt lat="45.72356" lon="5.42253">
        <ele>243.6</ele>
        <time>2024-09-19T12:11:27Z</time>
      </trkpt>
      <trkpt lat="45.72356" lon="5.42258">
        <ele>243.6</ele>
        <time>2024-09-19T12:11:28Z</time>
      </trkpt>
      <trkpt lat="45.72356" lon="5.42263">
        <ele>243.6</ele>
        <time>2024-09-19T12:11:29Z</time>
      </trkpt>
      <trkpt lat="45.72356" lon="5.42268">
        <ele>244</ele>
        <time>2024-09-19T12:11:30Z</time>
      </trkpt>
      <trkpt lat="45.72356" lon="5.42273">
        <ele>244</ele>
        <time>2024-09-19T12:11:31Z</time>
      </trkpt>
      <trkpt lat="45.72356" lon="5.42278">
        <ele>244</ele>
        <time>2024-09-19T12:11:32Z</time>
      </trkpt>
      <trkpt lat="45.72355" lon="5.42283">
        <ele>244</ele>
        <time>2024-09-19T12:11:33Z</time>
      </trkpt>
      <trkpt lat="45.72354" lon="5.42289">
        <ele>244</ele>
        <time>2024-09-19T12:11:34Z</time>
      </trkpt>
      <trkpt lat="45.72353" lon="5.42294">
        <ele>243.8</ele>
        <time>2024-09-19T12:11:35Z</time>
      </trkpt>
      <trkpt lat="45.72352" lon="5.42299">
        <ele>243.8</ele>
        <time>2024-09-19T12:11:36Z</time>
      </trkpt>
      <trkpt lat="45.72352" lon="5.42304">
        <ele>243.8</ele>
        <time>2024-09-19T12:11:37Z</time>
      </trkpt>
      <trkpt lat="45.72352" lon="5.42309">
        <ele>243.8</ele>
        <time>2024-09-19T12:11:38Z</time>
      </trkpt>
      <trkpt lat="45.7235" lon="5.42313">
        <ele>244.2</ele>
        <time>2024-09-19T12:11:39Z</time>
      </trkpt>
      <trkpt lat="45.72347" lon="5.42316">
        <ele>243.8</ele>
        <time>2024-09-19T12:11:40Z</time>
      </trkpt>
      <trkpt lat="45.72344" lon="5.42317">
        <ele>243.8</ele>
        <time>2024-09-19T12:11:41Z</time>
      </trkpt>
      <trkpt lat="45.7234" lon="5.42317">
        <ele>243.8</ele>
        <time>2024-09-19T12:11:42Z</time>
      </trkpt>
      <trkpt lat="45.72336" lon="5.42316">
        <ele>243.2</ele>
        <time>2024-09-19T12:11:43Z</time>
      </trkpt>
      <trkpt lat="45.72331" lon="5.42314">
        <ele>243.2</ele>
        <time>2024-09-19T12:11:44Z</time>
      </trkpt>
      <trkpt lat="45.72325" lon="5.42312">
        <ele>244.2</ele>
        <time>2024-09-19T12:11:45Z</time>
      </trkpt>
      <trkpt lat="45.72322" lon="5.42313">
        <ele>244.2</ele>
        <time>2024-09-19T12:11:46Z</time>
      </trkpt>
      <trkpt lat="45.72318" lon="5.42311">
        <ele>243.8</ele>
        <time>2024-09-19T12:11:47Z</time>
      </trkpt>
      <trkpt lat="45.72314" lon="5.4231">
        <ele>243.8</ele>
        <time>2024-09-19T12:11:48Z</time>
      </trkpt>
      <trkpt lat="45.72311" lon="5.42309">
        <ele>243.8</ele>
        <time>2024-09-19T12:11:49Z</time>
      </trkpt>
      <trkpt lat="45.72307" lon="5.42307">
        <ele>243.8</ele>
        <time>2024-09-19T12:11:50Z</time>
      </trkpt>
      <trkpt lat="45.72304" lon="5.42306">
        <ele>243.8</ele>
        <time>2024-09-19T12:11:51Z</time>
      </trkpt>
      <trkpt lat="45.72301" lon="5.42305">
        <ele>243.8</ele>
        <time>2024-09-19T12:11:52Z</time>
      </trkpt>
      <trkpt lat="45.72297" lon="5.42304">
        <ele>243.8</ele>
        <time>2024-09-19T12:11:53Z</time>
      </trkpt>
      <trkpt lat="45.72293" lon="5.42301">
        <ele>243.8</ele>
        <time>2024-09-19T12:11:54Z</time>
      </trkpt>
      <trkpt lat="45.72289" lon="5.42298">
        <ele>243.8</ele>
        <time>2024-09-19T12:11:55Z</time>
      </trkpt>
      <trkpt lat="45.72284" lon="5.42297">
        <ele>243.8</ele>
        <time>2024-09-19T12:11:56Z</time>
      </trkpt>
      <trkpt lat="45.72281" lon="5.42293">
        <ele>243.8</ele>
        <time>2024-09-19T12:11:57Z</time>
      </trkpt>
      <trkpt lat="45.72278" lon="5.42291">
        <ele>243.8</ele>
        <time>2024-09-19T12:11:58Z</time>
      </trkpt>
      <trkpt lat="45.72275" lon="5.42286">
        <ele>243.8</ele>
        <time>2024-09-19T12:11:59Z</time>
      </trkpt>
      <trkpt lat="45.72271" lon="5.42283">
        <ele>243.8</ele>
        <time>2024-09-19T12:12:00Z</time>
      </trkpt>
      <trkpt lat="45.72268" lon="5.42277">
        <ele>243.8</ele>
        <time>2024-09-19T12:12:01Z</time>
      </trkpt>
      <trkpt lat="45.72265" lon="5.42274">
        <ele>243.8</ele>
        <time>2024-09-19T12:12:02Z</time>
      </trkpt>
      <trkpt lat="45.72261" lon="5.42272">
        <ele>244</ele>
        <time>2024-09-19T12:12:03Z</time>
      </trkpt>
      <trkpt lat="45.72258" lon="5.42269">
        <ele>244</ele>
        <time>2024-09-19T12:12:04Z</time>
      </trkpt>
      <trkpt lat="45.72254" lon="5.42269">
        <ele>244</ele>
        <time>2024-09-19T12:12:05Z</time>
      </trkpt>
      <trkpt lat="45.7225" lon="5.42268">
        <ele>244</ele>
        <time>2024-09-19T12:12:06Z</time>
      </trkpt>
      <trkpt lat="45.72246" lon="5.42266">
        <ele>244</ele>
        <time>2024-09-19T12:12:07Z</time>
      </trkpt>
      <trkpt lat="45.72242" lon="5.42265">
        <ele>244</ele>
        <time>2024-09-19T12:12:08Z</time>
      </trkpt>
      <trkpt lat="45.72238" lon="5.42262">
        <ele>244</ele>
        <time>2024-09-19T12:12:09Z</time>
      </trkpt>
      <trkpt lat="45.72234" lon="5.4226">
        <ele>244</ele>
        <time>2024-09-19T12:12:10Z</time>
      </trkpt>
      <trkpt lat="45.72229" lon="5.42256">
        <ele>244.2</ele>
        <time>2024-09-19T12:12:11Z</time>
      </trkpt>
      <trkpt lat="45.72226" lon="5.42253">
        <ele>244.2</ele>
        <time>2024-09-19T12:12:12Z</time>
      </trkpt>
      <trkpt lat="45.72223" lon="5.42251">
        <ele>244.6</ele>
        <time>2024-09-19T12:12:13Z</time>
      </trkpt>
      <trkpt lat="45.7222" lon="5.42248">
        <ele>244.6</ele>
        <time>2024-09-19T12:12:14Z</time>
      </trkpt>
      <trkpt lat="45.72216" lon="5.42244">
        <ele>244.6</ele>
        <time>2024-09-19T12:12:15Z</time>
      </trkpt>
      <trkpt lat="45.72215" lon="5.42242">
        <ele>244.2</ele>
        <time>2024-09-19T12:12:16Z</time>
      </trkpt>
      <trkpt lat="45.7221" lon="5.42238">
        <ele>244.2</ele>
        <time>2024-09-19T12:12:17Z</time>
      </trkpt>
      <trkpt lat="45.72206" lon="5.42237">
        <ele>244.2</ele>
        <time>2024-09-19T12:12:18Z</time>
      </trkpt>
      <trkpt lat="45.72202" lon="5.42236">
        <ele>244.6</ele>
        <time>2024-09-19T12:12:19Z</time>
      </trkpt>
      <trkpt lat="45.72197" lon="5.42236">
        <ele>244.6</ele>
        <time>2024-09-19T12:12:20Z</time>
      </trkpt>
      <trkpt lat="45.72193" lon="5.42235">
        <ele>244.8</ele>
        <time>2024-09-19T12:12:21Z</time>
      </trkpt>
      <trkpt lat="45.72189" lon="5.42235">
        <ele>244.8</ele>
        <time>2024-09-19T12:12:22Z</time>
      </trkpt>
      <trkpt lat="45.72185" lon="5.42236">
        <ele>244.8</ele>
        <time>2024-09-19T12:12:23Z</time>
      </trkpt>
      <trkpt lat="45.7218" lon="5.42238">
        <ele>244.8</ele>
        <time>2024-09-19T12:12:24Z</time>
      </trkpt>
      <trkpt lat="45.72177" lon="5.42239">
        <ele>244.8</ele>
        <time>2024-09-19T12:12:25Z</time>
      </trkpt>
      <trkpt lat="45.72172" lon="5.42239">
        <ele>244.8</ele>
        <time>2024-09-19T12:12:26Z</time>
      </trkpt>
      <trkpt lat="45.72168" lon="5.42241">
        <ele>244.8</ele>
        <time>2024-09-19T12:12:27Z</time>
      </trkpt>
      <trkpt lat="45.72163" lon="5.42242">
        <ele>244.8</ele>
        <time>2024-09-19T12:12:28Z</time>
      </trkpt>
      <trkpt lat="45.72159" lon="5.42243">
        <ele>244.8</ele>
        <time>2024-09-19T12:12:29Z</time>
      </trkpt>
      <trkpt lat="45.72154" lon="5.42243">
        <ele>244.8</ele>
        <time>2024-09-19T12:12:30Z</time>
      </trkpt>
      <trkpt lat="45.7215" lon="5.42245">
        <ele>245.4</ele>
        <time>2024-09-19T12:12:31Z</time>
      </trkpt>
      <trkpt lat="45.72148" lon="5.42247">
        <ele>245.4</ele>
        <time>2024-09-19T12:12:32Z</time>
      </trkpt>
      <trkpt lat="45.72144" lon="5.42247">
        <ele>245.4</ele>
        <time>2024-09-19T12:12:33Z</time>
      </trkpt>
      <trkpt lat="45.7214" lon="5.42249">
        <ele>245.4</ele>
        <time>2024-09-19T12:12:34Z</time>
      </trkpt>
      <trkpt lat="45.72137" lon="5.42251">
        <ele>245.6</ele>
        <time>2024-09-19T12:12:35Z</time>
      </trkpt>
      <trkpt lat="45.72134" lon="5.42251">
        <ele>245.6</ele>
        <time>2024-09-19T12:12:36Z</time>
      </trkpt>
      <trkpt lat="45.72131" lon="5.42251">
        <ele>245.2</ele>
        <time>2024-09-19T12:12:37Z</time>
      </trkpt>
      <trkpt lat="45.72129" lon="5.42252">
        <ele>245.4</ele>
        <time>2024-09-19T12:12:38Z</time>
      </trkpt>
      <trkpt lat="45.72126" lon="5.42254">
        <ele>245.2</ele>
        <time>2024-09-19T12:12:39Z</time>
      </trkpt>
      <trkpt lat="45.72124" lon="5.42255">
        <ele>245.4</ele>
        <time>2024-09-19T12:12:40Z</time>
      </trkpt>
      <trkpt lat="45.72123" lon="5.42257">
        <ele>245.4</ele>
        <time>2024-09-19T12:12:41Z</time>
      </trkpt>
      <trkpt lat="45.72122" lon="5.4226">
        <ele>245.2</ele>
        <time>2024-09-19T12:12:42Z</time>
      </trkpt>
      <trkpt lat="45.72123" lon="5.42262">
        <ele>245.4</ele>
        <time>2024-09-19T12:12:43Z</time>
      </trkpt>
      <trkpt lat="45.72125" lon="5.42262">
        <ele>245.4</ele>
        <time>2024-09-19T12:12:44Z</time>
      </trkpt>
      <trkpt lat="45.72128" lon="5.42262">
        <ele>245.4</ele>
        <time>2024-09-19T12:12:45Z</time>
      </trkpt>
      <trkpt lat="45.7213" lon="5.42261">
        <ele>245.4</ele>
        <time>2024-09-19T12:12:46Z</time>
      </trkpt>
      <trkpt lat="45.72132" lon="5.42261">
        <ele>245.8</ele>
        <time>2024-09-19T12:12:47Z</time>
      </trkpt>
      <trkpt lat="45.72133" lon="5.42261">
        <ele>245.8</ele>
        <time>2024-09-19T12:12:48Z</time>
      </trkpt>
      <trkpt lat="45.72134" lon="5.42262">
        <ele>245.8</ele>
        <time>2024-09-19T12:12:49Z</time>
      </trkpt>
      <trkpt lat="45.72134" lon="5.42263">
        <ele>245.8</ele>
        <time>2024-09-19T12:12:50Z</time>
      </trkpt>
      <trkpt lat="45.72134" lon="5.42265">
        <ele>245.8</ele>
        <time>2024-09-19T12:12:51Z</time>
      </trkpt>
      <trkpt lat="45.72134" lon="5.42267">
        <ele>245.6</ele>
        <time>2024-09-19T12:12:52Z</time>
      </trkpt>
      <trkpt lat="45.72134" lon="5.4227">
        <ele>245.2</ele>
        <time>2024-09-19T12:12:53Z</time>
      </trkpt>
      <trkpt lat="45.72133" lon="5.42273">
        <ele>245.4</ele>
        <time>2024-09-19T12:12:54Z</time>
      </trkpt>
      <trkpt lat="45.72131" lon="5.42276">
        <ele>245.4</ele>
        <time>2024-09-19T12:12:55Z</time>
      </trkpt>
      <trkpt lat="45.72131" lon="5.42276">
        <ele>245.4</ele>
        <time>2024-09-19T12:12:56Z</time>
      </trkpt>
      <trkpt lat="45.72128" lon="5.42278">
        <ele>245.4</ele>
        <time>2024-09-19T12:12:57Z</time>
      </trkpt>
      <trkpt lat="45.72124" lon="5.42278">
        <ele>245.4</ele>
        <time>2024-09-19T12:12:58Z</time>
      </trkpt>
      <trkpt lat="45.72121" lon="5.42278">
        <ele>245.2</ele>
        <time>2024-09-19T12:12:59Z</time>
      </trkpt>
      <trkpt lat="45.72117" lon="5.42276">
        <ele>245</ele>
        <time>2024-09-19T12:13:00Z</time>
      </trkpt>
      <trkpt lat="45.72111" lon="5.42273">
        <ele>245</ele>
        <time>2024-09-19T12:13:01Z</time>
      </trkpt>
      <trkpt lat="45.72108" lon="5.42271">
        <ele>245</ele>
        <time>2024-09-19T12:13:02Z</time>
      </trkpt>
      <trkpt lat="45.72103" lon="5.42272">
        <ele>244.8</ele>
        <time>2024-09-19T12:13:03Z</time>
      </trkpt>
      <trkpt lat="45.72099" lon="5.4227">
        <ele>244.8</ele>
        <time>2024-09-19T12:13:04Z</time>
      </trkpt>
      <trkpt lat="45.72094" lon="5.42269">
        <ele>244.8</ele>
        <time>2024-09-19T12:13:05Z</time>
      </trkpt>
      <trkpt lat="45.7209" lon="5.42267">
        <ele>244.8</ele>
        <time>2024-09-19T12:13:06Z</time>
      </trkpt>
      <trkpt lat="45.72087" lon="5.42266">
        <ele>244.8</ele>
        <time>2024-09-19T12:13:07Z</time>
      </trkpt>
      <trkpt lat="45.72082" lon="5.42265">
        <ele>245.2</ele>
        <time>2024-09-19T12:13:08Z</time>
      </trkpt>
      <trkpt lat="45.72079" lon="5.42264">
        <ele>244.8</ele>
        <time>2024-09-19T12:13:09Z</time>
      </trkpt>
      <trkpt lat="45.72071" lon="5.4226">
        <ele>244.8</ele>
        <time>2024-09-19T12:13:10Z</time>
      </trkpt>
      <trkpt lat="45.72067" lon="5.42258">
        <ele>244.6</ele>
        <time>2024-09-19T12:13:11Z</time>
      </trkpt>
      <trkpt lat="45.72063" lon="5.42256">
        <ele>244.6</ele>
        <time>2024-09-19T12:13:12Z</time>
      </trkpt>
      <trkpt lat="45.7206" lon="5.42255">
        <ele>244.6</ele>
        <time>2024-09-19T12:13:13Z</time>
      </trkpt>
      <trkpt lat="45.72056" lon="5.42254">
        <ele>244.8</ele>
        <time>2024-09-19T12:13:14Z</time>
      </trkpt>
      <trkpt lat="45.72052" lon="5.42253">
        <ele>244.8</ele>
        <time>2024-09-19T12:13:15Z</time>
      </trkpt>
      <trkpt lat="45.72047" lon="5.42252">
        <ele>244.8</ele>
        <time>2024-09-19T12:13:16Z</time>
      </trkpt>
      <trkpt lat="45.72043" lon="5.42251">
        <ele>244.8</ele>
        <time>2024-09-19T12:13:17Z</time>
      </trkpt>
      <trkpt lat="45.72039" lon="5.42251">
        <ele>245.2</ele>
        <time>2024-09-19T12:13:18Z</time>
      </trkpt>
      <trkpt lat="45.72034" lon="5.4225">
        <ele>245.2</ele>
        <time>2024-09-19T12:13:19Z</time>
      </trkpt>
      <trkpt lat="45.7203" lon="5.42249">
        <ele>244.8</ele>
        <time>2024-09-19T12:13:20Z</time>
      </trkpt>
      <trkpt lat="45.72024" lon="5.42248">
        <ele>244.8</ele>
        <time>2024-09-19T12:13:21Z</time>
      </trkpt>
      <trkpt lat="45.7202" lon="5.42246">
        <ele>244.8</ele>
        <time>2024-09-19T12:13:22Z</time>
      </trkpt>
      <trkpt lat="45.72014" lon="5.42245">
        <ele>244.8</ele>
        <time>2024-09-19T12:13:23Z</time>
      </trkpt>
      <trkpt lat="45.7201" lon="5.42243">
        <ele>244.8</ele>
        <time>2024-09-19T12:13:24Z</time>
      </trkpt>
      <trkpt lat="45.72005" lon="5.42242">
        <ele>244.8</ele>
        <time>2024-09-19T12:13:25Z</time>
      </trkpt>
      <trkpt lat="45.72001" lon="5.4224">
        <ele>245</ele>
        <time>2024-09-19T12:13:26Z</time>
      </trkpt>
      <trkpt lat="45.71996" lon="5.42239">
        <ele>245.2</ele>
        <time>2024-09-19T12:13:27Z</time>
      </trkpt>
      <trkpt lat="45.71992" lon="5.42237">
        <ele>245.2</ele>
        <time>2024-09-19T12:13:28Z</time>
      </trkpt>
      <trkpt lat="45.71987" lon="5.42235">
        <ele>245</ele>
        <time>2024-09-19T12:13:29Z</time>
      </trkpt>
      <trkpt lat="45.71982" lon="5.42234">
        <ele>245</ele>
        <time>2024-09-19T12:13:30Z</time>
      </trkpt>
      <trkpt lat="45.71977" lon="5.42232">
        <ele>245.2</ele>
        <time>2024-09-19T12:13:31Z</time>
      </trkpt>
      <trkpt lat="45.71973" lon="5.42231">
        <ele>245.2</ele>
        <time>2024-09-19T12:13:32Z</time>
      </trkpt>
      <trkpt lat="45.71968" lon="5.4223">
        <ele>245.2</ele>
        <time>2024-09-19T12:13:33Z</time>
      </trkpt>
      <trkpt lat="45.71963" lon="5.42229">
        <ele>245.2</ele>
        <time>2024-09-19T12:13:34Z</time>
      </trkpt>
      <trkpt lat="45.71959" lon="5.42228">
        <ele>245.4</ele>
        <time>2024-09-19T12:13:35Z</time>
      </trkpt>
      <trkpt lat="45.71955" lon="5.42226">
        <ele>245.8</ele>
        <time>2024-09-19T12:13:36Z</time>
      </trkpt>
      <trkpt lat="45.71951" lon="5.42224">
        <ele>245.8</ele>
        <time>2024-09-19T12:13:37Z</time>
      </trkpt>
      <trkpt lat="45.71946" lon="5.42224">
        <ele>245.6</ele>
        <time>2024-09-19T12:13:38Z</time>
      </trkpt>
      <trkpt lat="45.71942" lon="5.42223">
        <ele>245.6</ele>
        <time>2024-09-19T12:13:39Z</time>
      </trkpt>
      <trkpt lat="45.71937" lon="5.42221">
        <ele>245.6</ele>
        <time>2024-09-19T12:13:40Z</time>
      </trkpt>
      <trkpt lat="45.71933" lon="5.4222">
        <ele>245.6</ele>
        <time>2024-09-19T12:13:41Z</time>
      </trkpt>
      <trkpt lat="45.71929" lon="5.42218">
        <ele>245.8</ele>
        <time>2024-09-19T12:13:42Z</time>
      </trkpt>
      <trkpt lat="45.71925" lon="5.42217">
        <ele>245.8</ele>
        <time>2024-09-19T12:13:43Z</time>
      </trkpt>
      <trkpt lat="45.71922" lon="5.42214">
        <ele>245.4</ele>
        <time>2024-09-19T12:13:44Z</time>
      </trkpt>
      <trkpt lat="45.71918" lon="5.42212">
        <ele>245.4</ele>
        <time>2024-09-19T12:13:45Z</time>
      </trkpt>
      <trkpt lat="45.71914" lon="5.4221">
        <ele>245.4</ele>
        <time>2024-09-19T12:13:46Z</time>
      </trkpt>
      <trkpt lat="45.7191" lon="5.42208">
        <ele>245.4</ele>
        <time>2024-09-19T12:13:47Z</time>
      </trkpt>
      <trkpt lat="45.71906" lon="5.42206">
        <ele>245.4</ele>
        <time>2024-09-19T12:13:48Z</time>
      </trkpt>
      <trkpt lat="45.719" lon="5.42205">
        <ele>245.4</ele>
        <time>2024-09-19T12:13:49Z</time>
      </trkpt>
      <trkpt lat="45.71896" lon="5.42204">
        <ele>245</ele>
        <time>2024-09-19T12:13:50Z</time>
      </trkpt>
      <trkpt lat="45.71891" lon="5.42204">
        <ele>244.8</ele>
        <time>2024-09-19T12:13:51Z</time>
      </trkpt>
      <trkpt lat="45.71886" lon="5.42203">
        <ele>244.4</ele>
        <time>2024-09-19T12:13:52Z</time>
      </trkpt>
      <trkpt lat="45.71881" lon="5.42203">
        <ele>244.2</ele>
        <time>2024-09-19T12:13:53Z</time>
      </trkpt>
      <trkpt lat="45.71876" lon="5.42204">
        <ele>244</ele>
        <time>2024-09-19T12:13:54Z</time>
      </trkpt>
      <trkpt lat="45.71871" lon="5.42203">
        <ele>244</ele>
        <time>2024-09-19T12:13:55Z</time>
      </trkpt>
      <trkpt lat="45.71865" lon="5.42204">
        <ele>244</ele>
        <time>2024-09-19T12:13:56Z</time>
      </trkpt>
      <trkpt lat="45.7186" lon="5.42206">
        <ele>244</ele>
        <time>2024-09-19T12:13:57Z</time>
      </trkpt>
      <trkpt lat="45.71853" lon="5.42207">
        <ele>243.6</ele>
        <time>2024-09-19T12:13:58Z</time>
      </trkpt>
      <trkpt lat="45.71847" lon="5.42209">
        <ele>243.6</ele>
        <time>2024-09-19T12:13:59Z</time>
      </trkpt>
      <trkpt lat="45.71841" lon="5.42211">
        <ele>243.2</ele>
        <time>2024-09-19T12:14:00Z</time>
      </trkpt>
      <trkpt lat="45.71834" lon="5.42211">
        <ele>242.8</ele>
        <time>2024-09-19T12:14:01Z</time>
      </trkpt>
      <trkpt lat="45.71827" lon="5.42212">
        <ele>242.6</ele>
        <time>2024-09-19T12:14:02Z</time>
      </trkpt>
      <trkpt lat="45.7182" lon="5.42213">
        <ele>242.2</ele>
        <time>2024-09-19T12:14:03Z</time>
      </trkpt>
      <trkpt lat="45.71814" lon="5.42213">
        <ele>242.2</ele>
        <time>2024-09-19T12:14:04Z</time>
      </trkpt>
      <trkpt lat="45.71808" lon="5.42213">
        <ele>242.2</ele>
        <time>2024-09-19T12:14:05Z</time>
      </trkpt>
      <trkpt lat="45.71802" lon="5.42216">
        <ele>242.2</ele>
        <time>2024-09-19T12:14:06Z</time>
      </trkpt>
      <trkpt lat="45.71796" lon="5.42218">
        <ele>242.4</ele>
        <time>2024-09-19T12:14:07Z</time>
      </trkpt>
      <trkpt lat="45.71791" lon="5.4222">
        <ele>242.4</ele>
        <time>2024-09-19T12:14:08Z</time>
      </trkpt>
      <trkpt lat="45.71785" lon="5.42221">
        <ele>242.8</ele>
        <time>2024-09-19T12:14:09Z</time>
      </trkpt>
      <trkpt lat="45.7178" lon="5.42222">
        <ele>243</ele>
        <time>2024-09-19T12:14:10Z</time>
      </trkpt>
      <trkpt lat="45.71776" lon="5.42223">
        <ele>243.2</ele>
        <time>2024-09-19T12:14:11Z</time>
      </trkpt>
      <trkpt lat="45.71771" lon="5.42225">
        <ele>243.6</ele>
        <time>2024-09-19T12:14:12Z</time>
      </trkpt>
      <trkpt lat="45.71766" lon="5.42225">
        <ele>243.6</ele>
        <time>2024-09-19T12:14:13Z</time>
      </trkpt>
      <trkpt lat="45.71761" lon="5.42225">
        <ele>244</ele>
        <time>2024-09-19T12:14:14Z</time>
      </trkpt>
      <trkpt lat="45.71757" lon="5.42223">
        <ele>244.2</ele>
        <time>2024-09-19T12:14:15Z</time>
      </trkpt>
      <trkpt lat="45.71752" lon="5.42224">
        <ele>244.2</ele>
        <time>2024-09-19T12:14:16Z</time>
      </trkpt>
      <trkpt lat="45.71748" lon="5.42225">
        <ele>244.6</ele>
        <time>2024-09-19T12:14:17Z</time>
      </trkpt>
      <trkpt lat="45.71744" lon="5.42224">
        <ele>244.6</ele>
        <time>2024-09-19T12:14:18Z</time>
      </trkpt>
      <trkpt lat="45.71739" lon="5.42225">
        <ele>244.8</ele>
        <time>2024-09-19T12:14:19Z</time>
      </trkpt>
      <trkpt lat="45.71734" lon="5.42226">
        <ele>244.8</ele>
        <time>2024-09-19T12:14:20Z</time>
      </trkpt>
      <trkpt lat="45.7173" lon="5.42226">
        <ele>244.8</ele>
        <time>2024-09-19T12:14:21Z</time>
      </trkpt>
      <trkpt lat="45.71724" lon="5.42227">
        <ele>244.8</ele>
        <time>2024-09-19T12:14:22Z</time>
      </trkpt>
      <trkpt lat="45.71718" lon="5.42226">
        <ele>244.8</ele>
        <time>2024-09-19T12:14:23Z</time>
      </trkpt>
      <trkpt lat="45.71713" lon="5.42226">
        <ele>244.8</ele>
        <time>2024-09-19T12:14:24Z</time>
      </trkpt>
      <trkpt lat="45.71708" lon="5.42225">
        <ele>244.8</ele>
        <time>2024-09-19T12:14:25Z</time>
      </trkpt>
      <trkpt lat="45.71703" lon="5.42225">
        <ele>244.8</ele>
        <time>2024-09-19T12:14:26Z</time>
      </trkpt>
      <trkpt lat="45.71698" lon="5.42225">
        <ele>244.8</ele>
        <time>2024-09-19T12:14:27Z</time>
      </trkpt>
      <trkpt lat="45.71693" lon="5.42225">
        <ele>244.8</ele>
        <time>2024-09-19T12:14:28Z</time>
      </trkpt>
      <trkpt lat="45.71688" lon="5.42224">
        <ele>244.8</ele>
        <time>2024-09-19T12:14:29Z</time>
      </trkpt>
      <trkpt lat="45.71682" lon="5.42225">
        <ele>244.8</ele>
        <time>2024-09-19T12:14:30Z</time>
      </trkpt>
      <trkpt lat="45.71676" lon="5.42224">
        <ele>244.8</ele>
        <time>2024-09-19T12:14:31Z</time>
      </trkpt>
      <trkpt lat="45.71671" lon="5.42225">
        <ele>244.6</ele>
        <time>2024-09-19T12:14:32Z</time>
      </trkpt>
      <trkpt lat="45.71665" lon="5.42225">
        <ele>244.2</ele>
        <time>2024-09-19T12:14:33Z</time>
      </trkpt>
      <trkpt lat="45.71659" lon="5.42225">
        <ele>242.8</ele>
        <time>2024-09-19T12:14:34Z</time>
      </trkpt>
      <trkpt lat="45.71653" lon="5.42225">
        <ele>242.8</ele>
        <time>2024-09-19T12:14:35Z</time>
      </trkpt>
      <trkpt lat="45.71647" lon="5.42225">
        <ele>243</ele>
        <time>2024-09-19T12:14:36Z</time>
      </trkpt>
      <trkpt lat="45.71641" lon="5.42225">
        <ele>243</ele>
        <time>2024-09-19T12:14:37Z</time>
      </trkpt>
      <trkpt lat="45.71635" lon="5.42225">
        <ele>243</ele>
        <time>2024-09-19T12:14:38Z</time>
      </trkpt>
      <trkpt lat="45.71628" lon="5.42225">
        <ele>243</ele>
        <time>2024-09-19T12:14:39Z</time>
      </trkpt>
      <trkpt lat="45.71622" lon="5.42225">
        <ele>243</ele>
        <time>2024-09-19T12:14:40Z</time>
      </trkpt>
      <trkpt lat="45.71616" lon="5.42226">
        <ele>243.2</ele>
        <time>2024-09-19T12:14:41Z</time>
      </trkpt>
      <trkpt lat="45.7161" lon="5.42225">
        <ele>243.2</ele>
        <time>2024-09-19T12:14:42Z</time>
      </trkpt>
      <trkpt lat="45.71603" lon="5.42225">
        <ele>243.2</ele>
        <time>2024-09-19T12:14:43Z</time>
      </trkpt>
      <trkpt lat="45.71597" lon="5.42225">
        <ele>243.2</ele>
        <time>2024-09-19T12:14:44Z</time>
      </trkpt>
      <trkpt lat="45.7159" lon="5.42226">
        <ele>243.2</ele>
        <time>2024-09-19T12:14:45Z</time>
      </trkpt>
      <trkpt lat="45.71583" lon="5.42225">
        <ele>243.2</ele>
        <time>2024-09-19T12:14:46Z</time>
      </trkpt>
      <trkpt lat="45.71576" lon="5.42225">
        <ele>243.2</ele>
        <time>2024-09-19T12:14:47Z</time>
      </trkpt>
      <trkpt lat="45.71571" lon="5.42226">
        <ele>243.2</ele>
        <time>2024-09-19T12:14:48Z</time>
      </trkpt>
      <trkpt lat="45.71566" lon="5.42225">
        <ele>243</ele>
        <time>2024-09-19T12:14:49Z</time>
      </trkpt>
      <trkpt lat="45.71559" lon="5.42224">
        <ele>243</ele>
        <time>2024-09-19T12:14:50Z</time>
      </trkpt>
      <trkpt lat="45.71552" lon="5.42225">
        <ele>243</ele>
        <time>2024-09-19T12:14:51Z</time>
      </trkpt>
      <trkpt lat="45.71545" lon="5.42225">
        <ele>242.6</ele>
        <time>2024-09-19T12:14:52Z</time>
      </trkpt>
      <trkpt lat="45.71539" lon="5.42226">
        <ele>242.6</ele>
        <time>2024-09-19T12:14:53Z</time>
      </trkpt>
      <trkpt lat="45.71532" lon="5.42225">
        <ele>242.6</ele>
        <time>2024-09-19T12:14:54Z</time>
      </trkpt>
      <trkpt lat="45.71526" lon="5.42225">
        <ele>242.4</ele>
        <time>2024-09-19T12:14:55Z</time>
      </trkpt>
      <trkpt lat="45.71519" lon="5.42225">
        <ele>242.4</ele>
        <time>2024-09-19T12:14:56Z</time>
      </trkpt>
      <trkpt lat="45.71513" lon="5.42226">
        <ele>242</ele>
        <time>2024-09-19T12:14:57Z</time>
      </trkpt>
      <trkpt lat="45.71507" lon="5.42225">
        <ele>242</ele>
        <time>2024-09-19T12:14:58Z</time>
      </trkpt>
      <trkpt lat="45.71501" lon="5.42224">
        <ele>242</ele>
        <time>2024-09-19T12:14:59Z</time>
      </trkpt>
      <trkpt lat="45.71494" lon="5.42224">
        <ele>241.8</ele>
        <time>2024-09-19T12:15:00Z</time>
      </trkpt>
      <trkpt lat="45.71488" lon="5.42224">
        <ele>241.8</ele>
        <time>2024-09-19T12:15:01Z</time>
      </trkpt>
      <trkpt lat="45.71483" lon="5.42223">
        <ele>241.8</ele>
        <time>2024-09-19T12:15:02Z</time>
      </trkpt>
      <trkpt lat="45.71476" lon="5.42223">
        <ele>241.8</ele>
        <time>2024-09-19T12:15:03Z</time>
      </trkpt>
      <trkpt lat="45.7147" lon="5.42224">
        <ele>241.8</ele>
        <time>2024-09-19T12:15:04Z</time>
      </trkpt>
      <trkpt lat="45.71463" lon="5.42223">
        <ele>242</ele>
        <time>2024-09-19T12:15:05Z</time>
      </trkpt>
      <trkpt lat="45.71457" lon="5.42224">
        <ele>242</ele>
        <time>2024-09-19T12:15:06Z</time>
      </trkpt>
      <trkpt lat="45.7145" lon="5.42224">
        <ele>241.6</ele>
        <time>2024-09-19T12:15:07Z</time>
      </trkpt>
      <trkpt lat="45.71444" lon="5.42223">
        <ele>241.6</ele>
        <time>2024-09-19T12:15:08Z</time>
      </trkpt>
      <trkpt lat="45.71437" lon="5.42223">
        <ele>241.2</ele>
        <time>2024-09-19T12:15:09Z</time>
      </trkpt>
      <trkpt lat="45.71431" lon="5.42223">
        <ele>241</ele>
        <time>2024-09-19T12:15:10Z</time>
      </trkpt>
      <trkpt lat="45.71425" lon="5.42222">
        <ele>240.6</ele>
        <time>2024-09-19T12:15:11Z</time>
      </trkpt>
      <trkpt lat="45.71419" lon="5.42222">
        <ele>240.6</ele>
        <time>2024-09-19T12:15:12Z</time>
      </trkpt>
      <trkpt lat="45.71413" lon="5.4222">
        <ele>240.6</ele>
        <time>2024-09-19T12:15:13Z</time>
      </trkpt>
      <trkpt lat="45.71407" lon="5.4222">
        <ele>240.6</ele>
        <time>2024-09-19T12:15:14Z</time>
      </trkpt>
      <trkpt lat="45.714" lon="5.42219">
        <ele>240.6</ele>
        <time>2024-09-19T12:15:15Z</time>
      </trkpt>
      <trkpt lat="45.71394" lon="5.42218">
        <ele>240.6</ele>
        <time>2024-09-19T12:15:16Z</time>
      </trkpt>
      <trkpt lat="45.71388" lon="5.42217">
        <ele>240.6</ele>
        <time>2024-09-19T12:15:17Z</time>
      </trkpt>
      <trkpt lat="45.71382" lon="5.42216">
        <ele>240.6</ele>
        <time>2024-09-19T12:15:18Z</time>
      </trkpt>
      <trkpt lat="45.71375" lon="5.42215">
        <ele>240.6</ele>
        <time>2024-09-19T12:15:19Z</time>
      </trkpt>
      <trkpt lat="45.71369" lon="5.42214">
        <ele>240.6</ele>
        <time>2024-09-19T12:15:20Z</time>
      </trkpt>
      <trkpt lat="45.71363" lon="5.42212">
        <ele>240.6</ele>
        <time>2024-09-19T12:15:21Z</time>
      </trkpt>
      <trkpt lat="45.71356" lon="5.4221">
        <ele>240.6</ele>
        <time>2024-09-19T12:15:22Z</time>
      </trkpt>
      <trkpt lat="45.7135" lon="5.42208">
        <ele>240.6</ele>
        <time>2024-09-19T12:15:23Z</time>
      </trkpt>
      <trkpt lat="45.71344" lon="5.42207">
        <ele>240.6</ele>
        <time>2024-09-19T12:15:24Z</time>
      </trkpt>
      <trkpt lat="45.71338" lon="5.42205">
        <ele>240.6</ele>
        <time>2024-09-19T12:15:25Z</time>
      </trkpt>
      <trkpt lat="45.71331" lon="5.42202">
        <ele>240.6</ele>
        <time>2024-09-19T12:15:26Z</time>
      </trkpt>
      <trkpt lat="45.71325" lon="5.422">
        <ele>240.6</ele>
        <time>2024-09-19T12:15:27Z</time>
      </trkpt>
      <trkpt lat="45.71319" lon="5.42197">
        <ele>240.6</ele>
        <time>2024-09-19T12:15:28Z</time>
      </trkpt>
      <trkpt lat="45.71313" lon="5.42195">
        <ele>240.6</ele>
        <time>2024-09-19T12:15:29Z</time>
      </trkpt>
      <trkpt lat="45.71308" lon="5.42192">
        <ele>240.6</ele>
        <time>2024-09-19T12:15:30Z</time>
      </trkpt>
      <trkpt lat="45.71301" lon="5.4219">
        <ele>240.6</ele>
        <time>2024-09-19T12:15:31Z</time>
      </trkpt>
      <trkpt lat="45.71296" lon="5.42187">
        <ele>240.4</ele>
        <time>2024-09-19T12:15:32Z</time>
      </trkpt>
      <trkpt lat="45.7129" lon="5.42184">
        <ele>240.4</ele>
        <time>2024-09-19T12:15:33Z</time>
      </trkpt>
      <trkpt lat="45.71284" lon="5.42181">
        <ele>240.4</ele>
        <time>2024-09-19T12:15:34Z</time>
      </trkpt>
      <trkpt lat="45.71278" lon="5.42177">
        <ele>240.2</ele>
        <time>2024-09-19T12:15:35Z</time>
      </trkpt>
      <trkpt lat="45.71272" lon="5.42174">
        <ele>240.2</ele>
        <time>2024-09-19T12:15:36Z</time>
      </trkpt>
      <trkpt lat="45.71266" lon="5.4217">
        <ele>240.2</ele>
        <time>2024-09-19T12:15:37Z</time>
      </trkpt>
      <trkpt lat="45.7126" lon="5.42166">
        <ele>240.2</ele>
        <time>2024-09-19T12:15:38Z</time>
      </trkpt>
      <trkpt lat="45.71255" lon="5.42163">
        <ele>240.2</ele>
        <time>2024-09-19T12:15:39Z</time>
      </trkpt>
      <trkpt lat="45.71249" lon="5.42159">
        <ele>240.2</ele>
        <time>2024-09-19T12:15:40Z</time>
      </trkpt>
      <trkpt lat="45.71243" lon="5.42155">
        <ele>240.2</ele>
        <time>2024-09-19T12:15:41Z</time>
      </trkpt>
      <trkpt lat="45.71238" lon="5.42151">
        <ele>240.2</ele>
        <time>2024-09-19T12:15:42Z</time>
      </trkpt>
      <trkpt lat="45.71232" lon="5.42146">
        <ele>240.2</ele>
        <time>2024-09-19T12:15:43Z</time>
      </trkpt>
      <trkpt lat="45.71227" lon="5.42142">
        <ele>240</ele>
        <time>2024-09-19T12:15:44Z</time>
      </trkpt>
      <trkpt lat="45.71221" lon="5.42138">
        <ele>240</ele>
        <time>2024-09-19T12:15:45Z</time>
      </trkpt>
      <trkpt lat="45.71215" lon="5.42133">
        <ele>240</ele>
        <time>2024-09-19T12:15:46Z</time>
      </trkpt>
      <trkpt lat="45.71209" lon="5.42128">
        <ele>240</ele>
        <time>2024-09-19T12:15:47Z</time>
      </trkpt>
      <trkpt lat="45.71204" lon="5.42124">
        <ele>240</ele>
        <time>2024-09-19T12:15:48Z</time>
      </trkpt>
      <trkpt lat="45.71198" lon="5.42119">
        <ele>239.8</ele>
        <time>2024-09-19T12:15:49Z</time>
      </trkpt>
      <trkpt lat="45.71192" lon="5.42114">
        <ele>239.8</ele>
        <time>2024-09-19T12:15:50Z</time>
      </trkpt>
      <trkpt lat="45.71187" lon="5.42109">
        <ele>239.8</ele>
        <time>2024-09-19T12:15:51Z</time>
      </trkpt>
      <trkpt lat="45.71182" lon="5.42103">
        <ele>239.8</ele>
        <time>2024-09-19T12:15:52Z</time>
      </trkpt>
      <trkpt lat="45.71177" lon="5.42098">
        <ele>239.8</ele>
        <time>2024-09-19T12:15:53Z</time>
      </trkpt>
      <trkpt lat="45.71171" lon="5.42093">
        <ele>239.8</ele>
        <time>2024-09-19T12:15:54Z</time>
      </trkpt>
      <trkpt lat="45.71166" lon="5.42087">
        <ele>239.4</ele>
        <time>2024-09-19T12:15:55Z</time>
      </trkpt>
      <trkpt lat="45.71161" lon="5.42081">
        <ele>239.4</ele>
        <time>2024-09-19T12:15:56Z</time>
      </trkpt>
      <trkpt lat="45.71156" lon="5.42075">
        <ele>239.2</ele>
        <time>2024-09-19T12:15:57Z</time>
      </trkpt>
      <trkpt lat="45.71152" lon="5.42068">
        <ele>239.2</ele>
        <time>2024-09-19T12:15:58Z</time>
      </trkpt>
      <trkpt lat="45.71147" lon="5.42061">
        <ele>239</ele>
        <time>2024-09-19T12:15:59Z</time>
      </trkpt>
      <trkpt lat="45.71141" lon="5.42055">
        <ele>239</ele>
        <time>2024-09-19T12:16:00Z</time>
      </trkpt>
      <trkpt lat="45.71137" lon="5.42049">
        <ele>239</ele>
        <time>2024-09-19T12:16:01Z</time>
      </trkpt>
      <trkpt lat="45.71132" lon="5.42042">
        <ele>239</ele>
        <time>2024-09-19T12:16:02Z</time>
      </trkpt>
      <trkpt lat="45.71128" lon="5.42037">
        <ele>238.2</ele>
        <time>2024-09-19T12:16:03Z</time>
      </trkpt>
      <trkpt lat="45.71128" lon="5.42037">
        <ele>238.6</ele>
        <time>2024-09-19T12:16:04Z</time>
      </trkpt>
      <trkpt lat="45.71125" lon="5.42033">
        <ele>238.8</ele>
        <time>2024-09-19T12:16:05Z</time>
      </trkpt>
      <trkpt lat="45.71123" lon="5.42029">
        <ele>239.2</ele>
        <time>2024-09-19T12:16:06Z</time>
      </trkpt>
      <trkpt lat="45.71121" lon="5.42027">
        <ele>239.2</ele>
        <time>2024-09-19T12:16:07Z</time>
      </trkpt>
      <trkpt lat="45.71119" lon="5.42025">
        <ele>239.2</ele>
        <time>2024-09-19T12:16:08Z</time>
      </trkpt>
      <trkpt lat="45.71117" lon="5.42022">
        <ele>239.2</ele>
        <time>2024-09-19T12:16:09Z</time>
      </trkpt>
      <trkpt lat="45.71115" lon="5.42018">
        <ele>239.2</ele>
        <time>2024-09-19T12:16:10Z</time>
      </trkpt>
      <trkpt lat="45.71112" lon="5.42014">
        <ele>239.2</ele>
        <time>2024-09-19T12:16:11Z</time>
      </trkpt>
      <trkpt lat="45.7111" lon="5.42009">
        <ele>239.2</ele>
        <time>2024-09-19T12:16:12Z</time>
      </trkpt>
      <trkpt lat="45.71107" lon="5.42004">
        <ele>239.2</ele>
        <time>2024-09-19T12:16:13Z</time>
      </trkpt>
      <trkpt lat="45.71103" lon="5.41999">
        <ele>239.2</ele>
        <time>2024-09-19T12:16:14Z</time>
      </trkpt>
      <trkpt lat="45.71099" lon="5.41994">
        <ele>239</ele>
        <time>2024-09-19T12:16:15Z</time>
      </trkpt>
      <trkpt lat="45.71096" lon="5.41988">
        <ele>239</ele>
        <time>2024-09-19T12:16:16Z</time>
      </trkpt>
      <trkpt lat="45.71089" lon="5.41977">
        <ele>238.6</ele>
        <time>2024-09-19T12:16:17Z</time>
      </trkpt>
      <trkpt lat="45.71085" lon="5.41971">
        <ele>238.6</ele>
        <time>2024-09-19T12:16:18Z</time>
      </trkpt>
      <trkpt lat="45.71082" lon="5.41964">
        <ele>238.6</ele>
        <time>2024-09-19T12:16:19Z</time>
      </trkpt>
      <trkpt lat="45.71078" lon="5.41958">
        <ele>238.2</ele>
        <time>2024-09-19T12:16:20Z</time>
      </trkpt>
      <trkpt lat="45.71075" lon="5.41951">
        <ele>237.8</ele>
        <time>2024-09-19T12:16:21Z</time>
      </trkpt>
      <trkpt lat="45.71071" lon="5.41944">
        <ele>237.6</ele>
        <time>2024-09-19T12:16:22Z</time>
      </trkpt>
      <trkpt lat="45.71068" lon="5.41937">
        <ele>237.4</ele>
        <time>2024-09-19T12:16:23Z</time>
      </trkpt>
      <trkpt lat="45.71064" lon="5.4193">
        <ele>237.2</ele>
        <time>2024-09-19T12:16:24Z</time>
      </trkpt>
      <trkpt lat="45.71061" lon="5.41922">
        <ele>237.2</ele>
        <time>2024-09-19T12:16:25Z</time>
      </trkpt>
      <trkpt lat="45.71058" lon="5.41915">
        <ele>237.2</ele>
        <time>2024-09-19T12:16:26Z</time>
      </trkpt>
      <trkpt lat="45.71055" lon="5.41908">
        <ele>237</ele>
        <time>2024-09-19T12:16:27Z</time>
      </trkpt>
      <trkpt lat="45.71052" lon="5.419">
        <ele>237</ele>
        <time>2024-09-19T12:16:28Z</time>
      </trkpt>
      <trkpt lat="45.71049" lon="5.41892">
        <ele>237</ele>
        <time>2024-09-19T12:16:29Z</time>
      </trkpt>
      <trkpt lat="45.71046" lon="5.41884">
        <ele>237</ele>
        <time>2024-09-19T12:16:30Z</time>
      </trkpt>
      <trkpt lat="45.71043" lon="5.41877">
        <ele>236.8</ele>
        <time>2024-09-19T12:16:31Z</time>
      </trkpt>
      <trkpt lat="45.7104" lon="5.41869">
        <ele>236.8</ele>
        <time>2024-09-19T12:16:32Z</time>
      </trkpt>
      <trkpt lat="45.71037" lon="5.4186">
        <ele>236.8</ele>
        <time>2024-09-19T12:16:33Z</time>
      </trkpt>
      <trkpt lat="45.71034" lon="5.41853">
        <ele>236.4</ele>
        <time>2024-09-19T12:16:34Z</time>
      </trkpt>
      <trkpt lat="45.71031" lon="5.41844">
        <ele>236.4</ele>
        <time>2024-09-19T12:16:35Z</time>
      </trkpt>
      <trkpt lat="45.71028" lon="5.41836">
        <ele>236.2</ele>
        <time>2024-09-19T12:16:36Z</time>
      </trkpt>
      <trkpt lat="45.71025" lon="5.41828">
        <ele>236.2</ele>
        <time>2024-09-19T12:16:37Z</time>
      </trkpt>
      <trkpt lat="45.71021" lon="5.4182">
        <ele>235.8</ele>
        <time>2024-09-19T12:16:38Z</time>
      </trkpt>
      <trkpt lat="45.71019" lon="5.41812">
        <ele>235.8</ele>
        <time>2024-09-19T12:16:39Z</time>
      </trkpt>
      <trkpt lat="45.71015" lon="5.41804">
        <ele>235.8</ele>
        <time>2024-09-19T12:16:40Z</time>
      </trkpt>
      <trkpt lat="45.71013" lon="5.41797">
        <ele>235.8</ele>
        <time>2024-09-19T12:16:41Z</time>
      </trkpt>
      <trkpt lat="45.7101" lon="5.41788">
        <ele>235.8</ele>
        <time>2024-09-19T12:16:42Z</time>
      </trkpt>
      <trkpt lat="45.71007" lon="5.4178">
        <ele>235.8</ele>
        <time>2024-09-19T12:16:43Z</time>
      </trkpt>
      <trkpt lat="45.71004" lon="5.41773">
        <ele>235.8</ele>
        <time>2024-09-19T12:16:44Z</time>
      </trkpt>
      <trkpt lat="45.71001" lon="5.41765">
        <ele>235.8</ele>
        <time>2024-09-19T12:16:45Z</time>
      </trkpt>
      <trkpt lat="45.70998" lon="5.41757">
        <ele>235.8</ele>
        <time>2024-09-19T12:16:46Z</time>
      </trkpt>
      <trkpt lat="45.70995" lon="5.4175">
        <ele>235.8</ele>
        <time>2024-09-19T12:16:47Z</time>
      </trkpt>
      <trkpt lat="45.70992" lon="5.41742">
        <ele>235.8</ele>
        <time>2024-09-19T12:16:48Z</time>
      </trkpt>
      <trkpt lat="45.7099" lon="5.41735">
        <ele>235.8</ele>
        <time>2024-09-19T12:16:49Z</time>
      </trkpt>
      <trkpt lat="45.70987" lon="5.41728">
        <ele>235.8</ele>
        <time>2024-09-19T12:16:50Z</time>
      </trkpt>
      <trkpt lat="45.70985" lon="5.41722">
        <ele>235.8</ele>
        <time>2024-09-19T12:16:51Z</time>
      </trkpt>
      <trkpt lat="45.70982" lon="5.41718">
        <ele>235.8</ele>
        <time>2024-09-19T12:16:52Z</time>
      </trkpt>
      <trkpt lat="45.70981" lon="5.41715">
        <ele>236.2</ele>
        <time>2024-09-19T12:16:53Z</time>
      </trkpt>
      <trkpt lat="45.70981" lon="5.41711">
        <ele>236.4</ele>
        <time>2024-09-19T12:16:54Z</time>
      </trkpt>
      <trkpt lat="45.7098" lon="5.41709">
        <ele>236.8</ele>
        <time>2024-09-19T12:16:55Z</time>
      </trkpt>
      <trkpt lat="45.7098" lon="5.41707">
        <ele>236.8</ele>
        <time>2024-09-19T12:16:56Z</time>
      </trkpt>
      <trkpt lat="45.7098" lon="5.41706">
        <ele>236.8</ele>
        <time>2024-09-19T12:16:57Z</time>
      </trkpt>
      <trkpt lat="45.70978" lon="5.41704">
        <ele>236.4</ele>
        <time>2024-09-19T12:16:58Z</time>
      </trkpt>
      <trkpt lat="45.70977" lon="5.41702">
        <ele>236.2</ele>
        <time>2024-09-19T12:16:59Z</time>
      </trkpt>
      <trkpt lat="45.70975" lon="5.41699">
        <ele>236.2</ele>
        <time>2024-09-19T12:17:00Z</time>
      </trkpt>
      <trkpt lat="45.70974" lon="5.41696">
        <ele>235.8</ele>
        <time>2024-09-19T12:17:01Z</time>
      </trkpt>
      <trkpt lat="45.70972" lon="5.41692">
        <ele>235.8</ele>
        <time>2024-09-19T12:17:02Z</time>
      </trkpt>
      <trkpt lat="45.7097" lon="5.41687">
        <ele>235.8</ele>
        <time>2024-09-19T12:17:03Z</time>
      </trkpt>
      <trkpt lat="45.70967" lon="5.41681">
        <ele>235.8</ele>
        <time>2024-09-19T12:17:04Z</time>
      </trkpt>
      <trkpt lat="45.70967" lon="5.41676">
        <ele>235.8</ele>
        <time>2024-09-19T12:17:05Z</time>
      </trkpt>
      <trkpt lat="45.70964" lon="5.41669">
        <ele>235.8</ele>
        <time>2024-09-19T12:17:06Z</time>
      </trkpt>
      <trkpt lat="45.70962" lon="5.41663">
        <ele>235.2</ele>
        <time>2024-09-19T12:17:07Z</time>
      </trkpt>
      <trkpt lat="45.7096" lon="5.41657">
        <ele>235.2</ele>
        <time>2024-09-19T12:17:08Z</time>
      </trkpt>
      <trkpt lat="45.70958" lon="5.41651">
        <ele>235.2</ele>
        <time>2024-09-19T12:17:09Z</time>
      </trkpt>
      <trkpt lat="45.70956" lon="5.41644">
        <ele>235.6</ele>
        <time>2024-09-19T12:17:10Z</time>
      </trkpt>
      <trkpt lat="45.70954" lon="5.41637">
        <ele>235.6</ele>
        <time>2024-09-19T12:17:11Z</time>
      </trkpt>
      <trkpt lat="45.70951" lon="5.41631">
        <ele>235.6</ele>
        <time>2024-09-19T12:17:12Z</time>
      </trkpt>
      <trkpt lat="45.70949" lon="5.41626">
        <ele>235.6</ele>
        <time>2024-09-19T12:17:13Z</time>
      </trkpt>
      <trkpt lat="45.70948" lon="5.4162">
        <ele>235.6</ele>
        <time>2024-09-19T12:17:14Z</time>
      </trkpt>
      <trkpt lat="45.70946" lon="5.41616">
        <ele>235.6</ele>
        <time>2024-09-19T12:17:15Z</time>
      </trkpt>
      <trkpt lat="45.70945" lon="5.41616">
        <ele>236</ele>
        <time>2024-09-19T12:17:16Z</time>
      </trkpt>
      <trkpt lat="45.70943" lon="5.41613">
        <ele>236</ele>
        <time>2024-09-19T12:17:17Z</time>
      </trkpt>
      <trkpt lat="45.70943" lon="5.41614">
        <ele>236.2</ele>
        <time>2024-09-19T12:17:18Z</time>
      </trkpt>
      <trkpt lat="45.70944" lon="5.41614">
        <ele>236.2</ele>
        <time>2024-09-19T12:17:19Z</time>
      </trkpt>
      <trkpt lat="45.70943" lon="5.41614">
        <ele>236.2</ele>
        <time>2024-09-19T12:17:20Z</time>
      </trkpt>
      <trkpt lat="45.70942" lon="5.4161">
        <ele>236.8</ele>
        <time>2024-09-19T12:18:13Z</time>
      </trkpt>
      <trkpt lat="45.70941" lon="5.41607">
        <ele>236.8</ele>
        <time>2024-09-19T12:18:14Z</time>
      </trkpt>
      <trkpt lat="45.70941" lon="5.41605">
        <ele>236</ele>
        <time>2024-09-19T12:18:15Z</time>
      </trkpt>
      <trkpt lat="45.70941" lon="5.41602">
        <ele>235.8</ele>
        <time>2024-09-19T12:18:16Z</time>
      </trkpt>
      <trkpt lat="45.7094" lon="5.41598">
        <ele>235.8</ele>
        <time>2024-09-19T12:18:17Z</time>
      </trkpt>
      <trkpt lat="45.70939" lon="5.41594">
        <ele>235.8</ele>
        <time>2024-09-19T12:18:18Z</time>
      </trkpt>
      <trkpt lat="45.70938" lon="5.4159">
        <ele>235.4</ele>
        <time>2024-09-19T12:18:19Z</time>
      </trkpt>
      <trkpt lat="45.70937" lon="5.41587">
        <ele>235.4</ele>
        <time>2024-09-19T12:18:20Z</time>
      </trkpt>
      <trkpt lat="45.70933" lon="5.41578">
        <ele>235.4</ele>
        <time>2024-09-19T12:18:21Z</time>
      </trkpt>
      <trkpt lat="45.70931" lon="5.41573">
        <ele>235.4</ele>
        <time>2024-09-19T12:18:22Z</time>
      </trkpt>
      <trkpt lat="45.70928" lon="5.41567">
        <ele>235.4</ele>
        <time>2024-09-19T12:18:23Z</time>
      </trkpt>
      <trkpt lat="45.70926" lon="5.4156">
        <ele>235.2</ele>
        <time>2024-09-19T12:18:24Z</time>
      </trkpt>
      <trkpt lat="45.70923" lon="5.41553">
        <ele>235.2</ele>
        <time>2024-09-19T12:18:25Z</time>
      </trkpt>
      <trkpt lat="45.70921" lon="5.41548">
        <ele>234.6</ele>
        <time>2024-09-19T12:18:26Z</time>
      </trkpt>
      <trkpt lat="45.70918" lon="5.41542">
        <ele>234.6</ele>
        <time>2024-09-19T12:18:27Z</time>
      </trkpt>
      <trkpt lat="45.70915" lon="5.41536">
        <ele>234.6</ele>
        <time>2024-09-19T12:18:28Z</time>
      </trkpt>
      <trkpt lat="45.70913" lon="5.41529">
        <ele>234.8</ele>
        <time>2024-09-19T12:18:29Z</time>
      </trkpt>
      <trkpt lat="45.7091" lon="5.41522">
        <ele>234.8</ele>
        <time>2024-09-19T12:18:30Z</time>
      </trkpt>
      <trkpt lat="45.70907" lon="5.41515">
        <ele>234.8</ele>
        <time>2024-09-19T12:18:31Z</time>
      </trkpt>
      <trkpt lat="45.70905" lon="5.41509">
        <ele>234.8</ele>
        <time>2024-09-19T12:18:32Z</time>
      </trkpt>
      <trkpt lat="45.70901" lon="5.41502">
        <ele>234.6</ele>
        <time>2024-09-19T12:18:33Z</time>
      </trkpt>
      <trkpt lat="45.70898" lon="5.41495">
        <ele>233.2</ele>
        <time>2024-09-19T12:18:34Z</time>
      </trkpt>
      <trkpt lat="45.70896" lon="5.41488">
        <ele>233.6</ele>
        <time>2024-09-19T12:18:35Z</time>
      </trkpt>
      <trkpt lat="45.70893" lon="5.41481">
        <ele>234.4</ele>
        <time>2024-09-19T12:18:36Z</time>
      </trkpt>
      <trkpt lat="45.7089" lon="5.41473">
        <ele>234.4</ele>
        <time>2024-09-19T12:18:37Z</time>
      </trkpt>
      <trkpt lat="45.70887" lon="5.41466">
        <ele>234.4</ele>
        <time>2024-09-19T12:18:38Z</time>
      </trkpt>
      <trkpt lat="45.70885" lon="5.41459">
        <ele>234</ele>
        <time>2024-09-19T12:18:39Z</time>
      </trkpt>
      <trkpt lat="45.70882" lon="5.41452">
        <ele>234</ele>
        <time>2024-09-19T12:18:40Z</time>
      </trkpt>
      <trkpt lat="45.70878" lon="5.41445">
        <ele>233.6</ele>
        <time>2024-09-19T12:18:41Z</time>
      </trkpt>
      <trkpt lat="45.70875" lon="5.41437">
        <ele>234</ele>
        <time>2024-09-19T12:18:42Z</time>
      </trkpt>
      <trkpt lat="45.70873" lon="5.41431">
        <ele>234</ele>
        <time>2024-09-19T12:18:43Z</time>
      </trkpt>
      <trkpt lat="45.70869" lon="5.41424">
        <ele>234.4</ele>
        <time>2024-09-19T12:18:44Z</time>
      </trkpt>
      <trkpt lat="45.70866" lon="5.41418">
        <ele>234.4</ele>
        <time>2024-09-19T12:18:45Z</time>
      </trkpt>
      <trkpt lat="45.70863" lon="5.4141">
        <ele>234.2</ele>
        <time>2024-09-19T12:18:46Z</time>
      </trkpt>
      <trkpt lat="45.70861" lon="5.41403">
        <ele>234.2</ele>
        <time>2024-09-19T12:18:47Z</time>
      </trkpt>
      <trkpt lat="45.70858" lon="5.41395">
        <ele>234.4</ele>
        <time>2024-09-19T12:18:48Z</time>
      </trkpt>
      <trkpt lat="45.70854" lon="5.41388">
        <ele>234.4</ele>
        <time>2024-09-19T12:18:49Z</time>
      </trkpt>
      <trkpt lat="45.70853" lon="5.41382">
        <ele>234.4</ele>
        <time>2024-09-19T12:18:50Z</time>
      </trkpt>
      <trkpt lat="45.7085" lon="5.41374">
        <ele>234.2</ele>
        <time>2024-09-19T12:18:51Z</time>
      </trkpt>
      <trkpt lat="45.70847" lon="5.41368">
        <ele>234.4</ele>
        <time>2024-09-19T12:18:52Z</time>
      </trkpt>
      <trkpt lat="45.70844" lon="5.4136">
        <ele>233.8</ele>
        <time>2024-09-19T12:18:53Z</time>
      </trkpt>
      <trkpt lat="45.70842" lon="5.41352">
        <ele>233.8</ele>
        <time>2024-09-19T12:18:54Z</time>
      </trkpt>
      <trkpt lat="45.70839" lon="5.41345">
        <ele>233.8</ele>
        <time>2024-09-19T12:18:55Z</time>
      </trkpt>
      <trkpt lat="45.70836" lon="5.41339">
        <ele>234.8</ele>
        <time>2024-09-19T12:18:56Z</time>
      </trkpt>
      <trkpt lat="45.70833" lon="5.41331">
        <ele>235.2</ele>
        <time>2024-09-19T12:18:57Z</time>
      </trkpt>
      <trkpt lat="45.7083" lon="5.41324">
        <ele>234.8</ele>
        <time>2024-09-19T12:18:58Z</time>
      </trkpt>
      <trkpt lat="45.70827" lon="5.41316">
        <ele>234.8</ele>
        <time>2024-09-19T12:18:59Z</time>
      </trkpt>
      <trkpt lat="45.70824" lon="5.41308">
        <ele>234.8</ele>
        <time>2024-09-19T12:19:00Z</time>
      </trkpt>
      <trkpt lat="45.70822" lon="5.41302">
        <ele>234.8</ele>
        <time>2024-09-19T12:19:01Z</time>
      </trkpt>
      <trkpt lat="45.70818" lon="5.41295">
        <ele>234.6</ele>
        <time>2024-09-19T12:19:02Z</time>
      </trkpt>
      <trkpt lat="45.70814" lon="5.41288">
        <ele>234.4</ele>
        <time>2024-09-19T12:19:03Z</time>
      </trkpt>
      <trkpt lat="45.70811" lon="5.41281">
        <ele>234.4</ele>
        <time>2024-09-19T12:19:04Z</time>
      </trkpt>
      <trkpt lat="45.70807" lon="5.41274">
        <ele>234.4</ele>
        <time>2024-09-19T12:19:05Z</time>
      </trkpt>
      <trkpt lat="45.70804" lon="5.41268">
        <ele>234.8</ele>
        <time>2024-09-19T12:19:06Z</time>
      </trkpt>
      <trkpt lat="45.70801" lon="5.4126">
        <ele>235</ele>
        <time>2024-09-19T12:19:07Z</time>
      </trkpt>
      <trkpt lat="45.70798" lon="5.41253">
        <ele>234.4</ele>
        <time>2024-09-19T12:19:08Z</time>
      </trkpt>
      <trkpt lat="45.70794" lon="5.41247">
        <ele>234.2</ele>
        <time>2024-09-19T12:19:09Z</time>
      </trkpt>
      <trkpt lat="45.70791" lon="5.41239">
        <ele>234.2</ele>
        <time>2024-09-19T12:19:10Z</time>
      </trkpt>
      <trkpt lat="45.70789" lon="5.41233">
        <ele>234.6</ele>
        <time>2024-09-19T12:19:11Z</time>
      </trkpt>
      <trkpt lat="45.70784" lon="5.41226">
        <ele>234.6</ele>
        <time>2024-09-19T12:19:12Z</time>
      </trkpt>
      <trkpt lat="45.70783" lon="5.41221">
        <ele>233.8</ele>
        <time>2024-09-19T12:19:13Z</time>
      </trkpt>
      <trkpt lat="45.70779" lon="5.41214">
        <ele>233.8</ele>
        <time>2024-09-19T12:19:14Z</time>
      </trkpt>
      <trkpt lat="45.70775" lon="5.41208">
        <ele>234.4</ele>
        <time>2024-09-19T12:19:15Z</time>
      </trkpt>
      <trkpt lat="45.70771" lon="5.41202">
        <ele>234.4</ele>
        <time>2024-09-19T12:19:16Z</time>
      </trkpt>
      <trkpt lat="45.70768" lon="5.41195">
        <ele>234.6</ele>
        <time>2024-09-19T12:19:17Z</time>
      </trkpt>
      <trkpt lat="45.70765" lon="5.41188">
        <ele>234.6</ele>
        <time>2024-09-19T12:19:18Z</time>
      </trkpt>
      <trkpt lat="45.70761" lon="5.41182">
        <ele>234.2</ele>
        <time>2024-09-19T12:19:19Z</time>
      </trkpt>
      <trkpt lat="45.70757" lon="5.41174">
        <ele>234.2</ele>
        <time>2024-09-19T12:19:20Z</time>
      </trkpt>
      <trkpt lat="45.70757" lon="5.41174">
        <ele>234.2</ele>
        <time>2024-09-19T12:19:21Z</time>
      </trkpt>
      <trkpt lat="45.70757" lon="5.41174">
        <ele>234.8</ele>
        <time>2024-09-19T12:19:22Z</time>
      </trkpt>
      <trkpt lat="45.70743" lon="5.41149">
        <ele>235.2</ele>
        <time>2024-09-19T12:19:24Z</time>
      </trkpt>
      <trkpt lat="45.70739" lon="5.41142">
        <ele>235</ele>
        <time>2024-09-19T12:19:25Z</time>
      </trkpt>
      <trkpt lat="45.70734" lon="5.41136">
        <ele>234.8</ele>
        <time>2024-09-19T12:19:26Z</time>
      </trkpt>
      <trkpt lat="45.7073" lon="5.4113">
        <ele>234.8</ele>
        <time>2024-09-19T12:19:27Z</time>
      </trkpt>
      <trkpt lat="45.70726" lon="5.41124">
        <ele>234.8</ele>
        <time>2024-09-19T12:19:28Z</time>
      </trkpt>
      <trkpt lat="45.70722" lon="5.41117">
        <ele>234.4</ele>
        <time>2024-09-19T12:19:29Z</time>
      </trkpt>
      <trkpt lat="45.70718" lon="5.4111">
        <ele>234.6</ele>
        <time>2024-09-19T12:19:30Z</time>
      </trkpt>
      <trkpt lat="45.70714" lon="5.41102">
        <ele>234.8</ele>
        <time>2024-09-19T12:19:31Z</time>
      </trkpt>
      <trkpt lat="45.70712" lon="5.41096">
        <ele>234.6</ele>
        <time>2024-09-19T12:19:32Z</time>
      </trkpt>
      <trkpt lat="45.70708" lon="5.4109">
        <ele>234.6</ele>
        <time>2024-09-19T12:19:33Z</time>
      </trkpt>
      <trkpt lat="45.70705" lon="5.41084">
        <ele>234.6</ele>
        <time>2024-09-19T12:19:34Z</time>
      </trkpt>
      <trkpt lat="45.70702" lon="5.41076">
        <ele>235</ele>
        <time>2024-09-19T12:19:35Z</time>
      </trkpt>
      <trkpt lat="45.70698" lon="5.4107">
        <ele>235.2</ele>
        <time>2024-09-19T12:19:36Z</time>
      </trkpt>
      <trkpt lat="45.70695" lon="5.41064">
        <ele>235</ele>
        <time>2024-09-19T12:19:37Z</time>
      </trkpt>
      <trkpt lat="45.70691" lon="5.41058">
        <ele>234.6</ele>
        <time>2024-09-19T12:19:38Z</time>
      </trkpt>
      <trkpt lat="45.70688" lon="5.41051">
        <ele>234.8</ele>
        <time>2024-09-19T12:19:39Z</time>
      </trkpt>
      <trkpt lat="45.70685" lon="5.41045">
        <ele>234.6</ele>
        <time>2024-09-19T12:19:40Z</time>
      </trkpt>
      <trkpt lat="45.70682" lon="5.41039">
        <ele>234.2</ele>
        <time>2024-09-19T12:19:41Z</time>
      </trkpt>
      <trkpt lat="45.70679" lon="5.41031">
        <ele>234.6</ele>
        <time>2024-09-19T12:19:42Z</time>
      </trkpt>
      <trkpt lat="45.70676" lon="5.41025">
        <ele>234.6</ele>
        <time>2024-09-19T12:19:43Z</time>
      </trkpt>
      <trkpt lat="45.70672" lon="5.41018">
        <ele>234.6</ele>
        <time>2024-09-19T12:19:44Z</time>
      </trkpt>
      <trkpt lat="45.70668" lon="5.41012">
        <ele>234.6</ele>
        <time>2024-09-19T12:19:45Z</time>
      </trkpt>
      <trkpt lat="45.70666" lon="5.41005">
        <ele>234.6</ele>
        <time>2024-09-19T12:19:46Z</time>
      </trkpt>
      <trkpt lat="45.70662" lon="5.40999">
        <ele>234.6</ele>
        <time>2024-09-19T12:19:47Z</time>
      </trkpt>
      <trkpt lat="45.70659" lon="5.40994">
        <ele>234.6</ele>
        <time>2024-09-19T12:19:48Z</time>
      </trkpt>
      <trkpt lat="45.70656" lon="5.40987">
        <ele>234.8</ele>
        <time>2024-09-19T12:19:49Z</time>
      </trkpt>
      <trkpt lat="45.70652" lon="5.40982">
        <ele>234.8</ele>
        <time>2024-09-19T12:19:50Z</time>
      </trkpt>
      <trkpt lat="45.7065" lon="5.40976">
        <ele>235.2</ele>
        <time>2024-09-19T12:19:51Z</time>
      </trkpt>
      <trkpt lat="45.70646" lon="5.40968">
        <ele>235.2</ele>
        <time>2024-09-19T12:19:52Z</time>
      </trkpt>
      <trkpt lat="45.70643" lon="5.40963">
        <ele>235.2</ele>
        <time>2024-09-19T12:19:53Z</time>
      </trkpt>
      <trkpt lat="45.70639" lon="5.40956">
        <ele>235.2</ele>
        <time>2024-09-19T12:19:54Z</time>
      </trkpt>
      <trkpt lat="45.70636" lon="5.40951">
        <ele>234.8</ele>
        <time>2024-09-19T12:19:55Z</time>
      </trkpt>
      <trkpt lat="45.70632" lon="5.40944">
        <ele>234.8</ele>
        <time>2024-09-19T12:19:56Z</time>
      </trkpt>
      <trkpt lat="45.70629" lon="5.40937">
        <ele>234.8</ele>
        <time>2024-09-19T12:19:57Z</time>
      </trkpt>
      <trkpt lat="45.70626" lon="5.40931">
        <ele>234.8</ele>
        <time>2024-09-19T12:19:58Z</time>
      </trkpt>
      <trkpt lat="45.70622" lon="5.40925">
        <ele>234.8</ele>
        <time>2024-09-19T12:19:59Z</time>
      </trkpt>
      <trkpt lat="45.70618" lon="5.40919">
        <ele>234.8</ele>
        <time>2024-09-19T12:20:00Z</time>
      </trkpt>
      <trkpt lat="45.70616" lon="5.40913">
        <ele>235.4</ele>
        <time>2024-09-19T12:20:01Z</time>
      </trkpt>
      <trkpt lat="45.70613" lon="5.40907">
        <ele>235.4</ele>
        <time>2024-09-19T12:20:02Z</time>
      </trkpt>
      <trkpt lat="45.70608" lon="5.40901">
        <ele>235.8</ele>
        <time>2024-09-19T12:20:03Z</time>
      </trkpt>
      <trkpt lat="45.70605" lon="5.40895">
        <ele>236.2</ele>
        <time>2024-09-19T12:20:04Z</time>
      </trkpt>
      <trkpt lat="45.70601" lon="5.40889">
        <ele>236.2</ele>
        <time>2024-09-19T12:20:05Z</time>
      </trkpt>
      <trkpt lat="45.70598" lon="5.40882">
        <ele>236.2</ele>
        <time>2024-09-19T12:20:06Z</time>
      </trkpt>
      <trkpt lat="45.70595" lon="5.40876">
        <ele>235.8</ele>
        <time>2024-09-19T12:20:07Z</time>
      </trkpt>
      <trkpt lat="45.70593" lon="5.40869">
        <ele>235.8</ele>
        <time>2024-09-19T12:20:08Z</time>
      </trkpt>
      <trkpt lat="45.70589" lon="5.40863">
        <ele>236</ele>
        <time>2024-09-19T12:20:09Z</time>
      </trkpt>
      <trkpt lat="45.70586" lon="5.40857">
        <ele>235.6</ele>
        <time>2024-09-19T12:20:10Z</time>
      </trkpt>
      <trkpt lat="45.70583" lon="5.40851">
        <ele>235.6</ele>
        <time>2024-09-19T12:20:11Z</time>
      </trkpt>
      <trkpt lat="45.70579" lon="5.40845">
        <ele>235.4</ele>
        <time>2024-09-19T12:20:12Z</time>
      </trkpt>
      <trkpt lat="45.70575" lon="5.40841">
        <ele>235.4</ele>
        <time>2024-09-19T12:20:13Z</time>
      </trkpt>
      <trkpt lat="45.70572" lon="5.40836">
        <ele>235</ele>
        <time>2024-09-19T12:20:14Z</time>
      </trkpt>
      <trkpt lat="45.70568" lon="5.40829">
        <ele>235.2</ele>
        <time>2024-09-19T12:20:15Z</time>
      </trkpt>
      <trkpt lat="45.70565" lon="5.40822">
        <ele>235.8</ele>
        <time>2024-09-19T12:20:16Z</time>
      </trkpt>
      <trkpt lat="45.70563" lon="5.40815">
        <ele>235.8</ele>
        <time>2024-09-19T12:20:17Z</time>
      </trkpt>
      <trkpt lat="45.70559" lon="5.40809">
        <ele>235.4</ele>
        <time>2024-09-19T12:20:18Z</time>
      </trkpt>
      <trkpt lat="45.70556" lon="5.40803">
        <ele>235.8</ele>
        <time>2024-09-19T12:20:19Z</time>
      </trkpt>
      <trkpt lat="45.70552" lon="5.40796">
        <ele>235.2</ele>
        <time>2024-09-19T12:20:20Z</time>
      </trkpt>
      <trkpt lat="45.70549" lon="5.4079">
        <ele>235.2</ele>
        <time>2024-09-19T12:20:21Z</time>
      </trkpt>
      <trkpt lat="45.70546" lon="5.40783">
        <ele>235</ele>
        <time>2024-09-19T12:20:22Z</time>
      </trkpt>
      <trkpt lat="45.70543" lon="5.40777">
        <ele>235.6</ele>
        <time>2024-09-19T12:20:23Z</time>
      </trkpt>
      <trkpt lat="45.70539" lon="5.4077">
        <ele>235.6</ele>
        <time>2024-09-19T12:20:24Z</time>
      </trkpt>
      <trkpt lat="45.70536" lon="5.40764">
        <ele>236.2</ele>
        <time>2024-09-19T12:20:25Z</time>
      </trkpt>
      <trkpt lat="45.70533" lon="5.40758">
        <ele>236.2</ele>
        <time>2024-09-19T12:20:26Z</time>
      </trkpt>
      <trkpt lat="45.70529" lon="5.40752">
        <ele>235.8</ele>
        <time>2024-09-19T12:20:27Z</time>
      </trkpt>
      <trkpt lat="45.70526" lon="5.40745">
        <ele>235.6</ele>
        <time>2024-09-19T12:20:28Z</time>
      </trkpt>
      <trkpt lat="45.70522" lon="5.40739">
        <ele>236</ele>
        <time>2024-09-19T12:20:29Z</time>
      </trkpt>
      <trkpt lat="45.70519" lon="5.40733">
        <ele>235.2</ele>
        <time>2024-09-19T12:20:30Z</time>
      </trkpt>
      <trkpt lat="45.70515" lon="5.40727">
        <ele>236</ele>
        <time>2024-09-19T12:20:31Z</time>
      </trkpt>
      <trkpt lat="45.70512" lon="5.40721">
        <ele>236</ele>
        <time>2024-09-19T12:20:32Z</time>
      </trkpt>
      <trkpt lat="45.70509" lon="5.40713">
        <ele>236</ele>
        <time>2024-09-19T12:20:33Z</time>
      </trkpt>
      <trkpt lat="45.70505" lon="5.40704">
        <ele>236</ele>
        <time>2024-09-19T12:20:34Z</time>
      </trkpt>
      <trkpt lat="45.70501" lon="5.40701">
        <ele>235.8</ele>
        <time>2024-09-19T12:20:35Z</time>
      </trkpt>
      <trkpt lat="45.70498" lon="5.40694">
        <ele>235.6</ele>
        <time>2024-09-19T12:20:36Z</time>
      </trkpt>
      <trkpt lat="45.70495" lon="5.40689">
        <ele>235.6</ele>
        <time>2024-09-19T12:20:37Z</time>
      </trkpt>
      <trkpt lat="45.70491" lon="5.40682">
        <ele>235.6</ele>
        <time>2024-09-19T12:20:38Z</time>
      </trkpt>
      <trkpt lat="45.70488" lon="5.40675">
        <ele>235.6</ele>
        <time>2024-09-19T12:20:39Z</time>
      </trkpt>
      <trkpt lat="45.70484" lon="5.40669">
        <ele>235.6</ele>
        <time>2024-09-19T12:20:40Z</time>
      </trkpt>
      <trkpt lat="45.70482" lon="5.40661">
        <ele>235.8</ele>
        <time>2024-09-19T12:20:41Z</time>
      </trkpt>
      <trkpt lat="45.70478" lon="5.40654">
        <ele>235.6</ele>
        <time>2024-09-19T12:20:42Z</time>
      </trkpt>
      <trkpt lat="45.70475" lon="5.40648">
        <ele>235.6</ele>
        <time>2024-09-19T12:20:43Z</time>
      </trkpt>
      <trkpt lat="45.70471" lon="5.40642">
        <ele>235.6</ele>
        <time>2024-09-19T12:20:44Z</time>
      </trkpt>
      <trkpt lat="45.70469" lon="5.40636">
        <ele>235.2</ele>
        <time>2024-09-19T12:20:45Z</time>
      </trkpt>
      <trkpt lat="45.70466" lon="5.40629">
        <ele>235.2</ele>
        <time>2024-09-19T12:20:46Z</time>
      </trkpt>
      <trkpt lat="45.70464" lon="5.40624">
        <ele>235.8</ele>
        <time>2024-09-19T12:20:47Z</time>
      </trkpt>
      <trkpt lat="45.7046" lon="5.40616">
        <ele>236</ele>
        <time>2024-09-19T12:20:48Z</time>
      </trkpt>
      <trkpt lat="45.70457" lon="5.40611">
        <ele>235.6</ele>
        <time>2024-09-19T12:20:49Z</time>
      </trkpt>
      <trkpt lat="45.70454" lon="5.40604">
        <ele>235.6</ele>
        <time>2024-09-19T12:20:50Z</time>
      </trkpt>
      <trkpt lat="45.70451" lon="5.40598">
        <ele>235.6</ele>
        <time>2024-09-19T12:20:51Z</time>
      </trkpt>
      <trkpt lat="45.70447" lon="5.40594">
        <ele>235.6</ele>
        <time>2024-09-19T12:20:52Z</time>
      </trkpt>
      <trkpt lat="45.70443" lon="5.40588">
        <ele>235.6</ele>
        <time>2024-09-19T12:20:53Z</time>
      </trkpt>
      <trkpt lat="45.70439" lon="5.40581">
        <ele>236</ele>
        <time>2024-09-19T12:20:54Z</time>
      </trkpt>
      <trkpt lat="45.70436" lon="5.40574">
        <ele>236</ele>
        <time>2024-09-19T12:20:55Z</time>
      </trkpt>
      <trkpt lat="45.70432" lon="5.40568">
        <ele>236.2</ele>
        <time>2024-09-19T12:20:56Z</time>
      </trkpt>
      <trkpt lat="45.70429" lon="5.40562">
        <ele>235.8</ele>
        <time>2024-09-19T12:20:57Z</time>
      </trkpt>
      <trkpt lat="45.70425" lon="5.40555">
        <ele>235.8</ele>
        <time>2024-09-19T12:20:58Z</time>
      </trkpt>
      <trkpt lat="45.70421" lon="5.40549">
        <ele>235.8</ele>
        <time>2024-09-19T12:20:59Z</time>
      </trkpt>
      <trkpt lat="45.70418" lon="5.40543">
        <ele>236</ele>
        <time>2024-09-19T12:21:00Z</time>
      </trkpt>
      <trkpt lat="45.70415" lon="5.40535">
        <ele>236.6</ele>
        <time>2024-09-19T12:21:01Z</time>
      </trkpt>
      <trkpt lat="45.70412" lon="5.40528">
        <ele>236.8</ele>
        <time>2024-09-19T12:21:02Z</time>
      </trkpt>
      <trkpt lat="45.70408" lon="5.40522">
        <ele>236.4</ele>
        <time>2024-09-19T12:21:03Z</time>
      </trkpt>
      <trkpt lat="45.70405" lon="5.40515">
        <ele>236.4</ele>
        <time>2024-09-19T12:21:04Z</time>
      </trkpt>
      <trkpt lat="45.70402" lon="5.40508">
        <ele>236.6</ele>
        <time>2024-09-19T12:21:05Z</time>
      </trkpt>
      <trkpt lat="45.70398" lon="5.40503">
        <ele>236.6</ele>
        <time>2024-09-19T12:21:06Z</time>
      </trkpt>
      <trkpt lat="45.70394" lon="5.40497">
        <ele>237</ele>
        <time>2024-09-19T12:21:07Z</time>
      </trkpt>
      <trkpt lat="45.7039" lon="5.40491">
        <ele>236.8</ele>
        <time>2024-09-19T12:21:08Z</time>
      </trkpt>
      <trkpt lat="45.70387" lon="5.40484">
        <ele>236.8</ele>
        <time>2024-09-19T12:21:09Z</time>
      </trkpt>
      <trkpt lat="45.70383" lon="5.40477">
        <ele>236.6</ele>
        <time>2024-09-19T12:21:10Z</time>
      </trkpt>
      <trkpt lat="45.70381" lon="5.4047">
        <ele>236.6</ele>
        <time>2024-09-19T12:21:11Z</time>
      </trkpt>
      <trkpt lat="45.70379" lon="5.40464">
        <ele>236.6</ele>
        <time>2024-09-19T12:21:12Z</time>
      </trkpt>
      <trkpt lat="45.70375" lon="5.40455">
        <ele>236.6</ele>
        <time>2024-09-19T12:21:13Z</time>
      </trkpt>
      <trkpt lat="45.70373" lon="5.40448">
        <ele>236</ele>
        <time>2024-09-19T12:21:14Z</time>
      </trkpt>
      <trkpt lat="45.70369" lon="5.40442">
        <ele>236</ele>
        <time>2024-09-19T12:21:15Z</time>
      </trkpt>
      <trkpt lat="45.70369" lon="5.40442">
        <ele>236.2</ele>
        <time>2024-09-19T12:21:16Z</time>
      </trkpt>
      <trkpt lat="45.70363" lon="5.40428">
        <ele>236.2</ele>
        <time>2024-09-19T12:21:17Z</time>
      </trkpt>
      <trkpt lat="45.70359" lon="5.40422">
        <ele>236.4</ele>
        <time>2024-09-19T12:21:18Z</time>
      </trkpt>
      <trkpt lat="45.70356" lon="5.40416">
        <ele>237</ele>
        <time>2024-09-19T12:21:19Z</time>
      </trkpt>
      <trkpt lat="45.70353" lon="5.4041">
        <ele>237</ele>
        <time>2024-09-19T12:21:20Z</time>
      </trkpt>
      <trkpt lat="45.70349" lon="5.40405">
        <ele>237</ele>
        <time>2024-09-19T12:21:21Z</time>
      </trkpt>
      <trkpt lat="45.70345" lon="5.40399">
        <ele>237.2</ele>
        <time>2024-09-19T12:21:22Z</time>
      </trkpt>
      <trkpt lat="45.70341" lon="5.40393">
        <ele>237.2</ele>
        <time>2024-09-19T12:21:23Z</time>
      </trkpt>
      <trkpt lat="45.70338" lon="5.40388">
        <ele>236.8</ele>
        <time>2024-09-19T12:21:24Z</time>
      </trkpt>
      <trkpt lat="45.70333" lon="5.40381">
        <ele>236.4</ele>
        <time>2024-09-19T12:21:25Z</time>
      </trkpt>
      <trkpt lat="45.70331" lon="5.40374">
        <ele>236.4</ele>
        <time>2024-09-19T12:21:26Z</time>
      </trkpt>
      <trkpt lat="45.70327" lon="5.40368">
        <ele>236.2</ele>
        <time>2024-09-19T12:21:27Z</time>
      </trkpt>
      <trkpt lat="45.70324" lon="5.4036">
        <ele>236.2</ele>
        <time>2024-09-19T12:21:28Z</time>
      </trkpt>
      <trkpt lat="45.70321" lon="5.40353">
        <ele>237</ele>
        <time>2024-09-19T12:21:29Z</time>
      </trkpt>
      <trkpt lat="45.70318" lon="5.40346">
        <ele>237</ele>
        <time>2024-09-19T12:21:30Z</time>
      </trkpt>
      <trkpt lat="45.70315" lon="5.4034">
        <ele>237</ele>
        <time>2024-09-19T12:21:31Z</time>
      </trkpt>
      <trkpt lat="45.70312" lon="5.40334">
        <ele>237</ele>
        <time>2024-09-19T12:21:32Z</time>
      </trkpt>
      <trkpt lat="45.70308" lon="5.40328">
        <ele>237</ele>
        <time>2024-09-19T12:21:33Z</time>
      </trkpt>
      <trkpt lat="45.70305" lon="5.40322">
        <ele>237</ele>
        <time>2024-09-19T12:21:34Z</time>
      </trkpt>
      <trkpt lat="45.70302" lon="5.40315">
        <ele>237.2</ele>
        <time>2024-09-19T12:21:35Z</time>
      </trkpt>
      <trkpt lat="45.70298" lon="5.40308">
        <ele>236.6</ele>
        <time>2024-09-19T12:21:36Z</time>
      </trkpt>
      <trkpt lat="45.70295" lon="5.40302">
        <ele>236.6</ele>
        <time>2024-09-19T12:21:37Z</time>
      </trkpt>
      <trkpt lat="45.70291" lon="5.40295">
        <ele>236.6</ele>
        <time>2024-09-19T12:21:38Z</time>
      </trkpt>
      <trkpt lat="45.70288" lon="5.40288">
        <ele>237</ele>
        <time>2024-09-19T12:21:39Z</time>
      </trkpt>
      <trkpt lat="45.70285" lon="5.40281">
        <ele>236.6</ele>
        <time>2024-09-19T12:21:40Z</time>
      </trkpt>
      <trkpt lat="45.70281" lon="5.40275">
        <ele>236.6</ele>
        <time>2024-09-19T12:21:41Z</time>
      </trkpt>
      <trkpt lat="45.70278" lon="5.40269">
        <ele>236.4</ele>
        <time>2024-09-19T12:21:42Z</time>
      </trkpt>
      <trkpt lat="45.70276" lon="5.40263">
        <ele>237</ele>
        <time>2024-09-19T12:21:43Z</time>
      </trkpt>
      <trkpt lat="45.70272" lon="5.40258">
        <ele>237</ele>
        <time>2024-09-19T12:21:44Z</time>
      </trkpt>
      <trkpt lat="45.70268" lon="5.40251">
        <ele>237</ele>
        <time>2024-09-19T12:21:45Z</time>
      </trkpt>
      <trkpt lat="45.70265" lon="5.40244">
        <ele>236.6</ele>
        <time>2024-09-19T12:21:46Z</time>
      </trkpt>
      <trkpt lat="45.70263" lon="5.40237">
        <ele>236.6</ele>
        <time>2024-09-19T12:21:47Z</time>
      </trkpt>
      <trkpt lat="45.7026" lon="5.40231">
        <ele>236.4</ele>
        <time>2024-09-19T12:21:48Z</time>
      </trkpt>
      <trkpt lat="45.70257" lon="5.40225">
        <ele>236</ele>
        <time>2024-09-19T12:21:49Z</time>
      </trkpt>
      <trkpt lat="45.70253" lon="5.40217">
        <ele>236.8</ele>
        <time>2024-09-19T12:21:50Z</time>
      </trkpt>
      <trkpt lat="45.70249" lon="5.40209">
        <ele>237</ele>
        <time>2024-09-19T12:21:51Z</time>
      </trkpt>
      <trkpt lat="45.70243" lon="5.40204">
        <ele>237.2</ele>
        <time>2024-09-19T12:21:52Z</time>
      </trkpt>
      <trkpt lat="45.7024" lon="5.40199">
        <ele>236.8</ele>
        <time>2024-09-19T12:21:53Z</time>
      </trkpt>
      <trkpt lat="45.70241" lon="5.4019">
        <ele>236.6</ele>
        <time>2024-09-19T12:21:54Z</time>
      </trkpt>
      <trkpt lat="45.70236" lon="5.40184">
        <ele>236.6</ele>
        <time>2024-09-19T12:21:55Z</time>
      </trkpt>
      <trkpt lat="45.70234" lon="5.40178">
        <ele>237.2</ele>
        <time>2024-09-19T12:21:56Z</time>
      </trkpt>
      <trkpt lat="45.70231" lon="5.40172">
        <ele>236.8</ele>
        <time>2024-09-19T12:21:57Z</time>
      </trkpt>
      <trkpt lat="45.70225" lon="5.40166">
        <ele>236.2</ele>
        <time>2024-09-19T12:21:58Z</time>
      </trkpt>
      <trkpt lat="45.70224" lon="5.4016">
        <ele>236.2</ele>
        <time>2024-09-19T12:21:59Z</time>
      </trkpt>
      <trkpt lat="45.7022" lon="5.40154">
        <ele>236.2</ele>
        <time>2024-09-19T12:22:00Z</time>
      </trkpt>
      <trkpt lat="45.70216" lon="5.40148">
        <ele>236.6</ele>
        <time>2024-09-19T12:22:01Z</time>
      </trkpt>
      <trkpt lat="45.70212" lon="5.40141">
        <ele>237.2</ele>
        <time>2024-09-19T12:22:02Z</time>
      </trkpt>
      <trkpt lat="45.70209" lon="5.40134">
        <ele>237.6</ele>
        <time>2024-09-19T12:22:03Z</time>
      </trkpt>
      <trkpt lat="45.70205" lon="5.4013">
        <ele>237.2</ele>
        <time>2024-09-19T12:22:04Z</time>
      </trkpt>
      <trkpt lat="45.70201" lon="5.40124">
        <ele>236.6</ele>
        <time>2024-09-19T12:22:05Z</time>
      </trkpt>
      <trkpt lat="45.70198" lon="5.40117">
        <ele>236.6</ele>
        <time>2024-09-19T12:22:06Z</time>
      </trkpt>
      <trkpt lat="45.70194" lon="5.4011">
        <ele>236.6</ele>
        <time>2024-09-19T12:22:07Z</time>
      </trkpt>
      <trkpt lat="45.7019" lon="5.40103">
        <ele>236.6</ele>
        <time>2024-09-19T12:22:08Z</time>
      </trkpt>
      <trkpt lat="45.70187" lon="5.40095">
        <ele>236.6</ele>
        <time>2024-09-19T12:22:09Z</time>
      </trkpt>
      <trkpt lat="45.70184" lon="5.40089">
        <ele>236.6</ele>
        <time>2024-09-19T12:22:10Z</time>
      </trkpt>
      <trkpt lat="45.70179" lon="5.40082">
        <ele>237</ele>
        <time>2024-09-19T12:22:11Z</time>
      </trkpt>
      <trkpt lat="45.70177" lon="5.40075">
        <ele>236.6</ele>
        <time>2024-09-19T12:22:12Z</time>
      </trkpt>
      <trkpt lat="45.70174" lon="5.40069">
        <ele>236.2</ele>
        <time>2024-09-19T12:22:13Z</time>
      </trkpt>
      <trkpt lat="45.7017" lon="5.40062">
        <ele>236</ele>
        <time>2024-09-19T12:22:14Z</time>
      </trkpt>
      <trkpt lat="45.70167" lon="5.40056">
        <ele>236.4</ele>
        <time>2024-09-19T12:22:15Z</time>
      </trkpt>
      <trkpt lat="45.70164" lon="5.40048">
        <ele>236.6</ele>
        <time>2024-09-19T12:22:16Z</time>
      </trkpt>
      <trkpt lat="45.7016" lon="5.40042">
        <ele>236.6</ele>
        <time>2024-09-19T12:22:17Z</time>
      </trkpt>
      <trkpt lat="45.70158" lon="5.40036">
        <ele>236.6</ele>
        <time>2024-09-19T12:22:18Z</time>
      </trkpt>
      <trkpt lat="45.70154" lon="5.4003">
        <ele>236.4</ele>
        <time>2024-09-19T12:22:19Z</time>
      </trkpt>
      <trkpt lat="45.7015" lon="5.40024">
        <ele>236.6</ele>
        <time>2024-09-19T12:22:20Z</time>
      </trkpt>
      <trkpt lat="45.70147" lon="5.40019">
        <ele>236.6</ele>
        <time>2024-09-19T12:22:21Z</time>
      </trkpt>
      <trkpt lat="45.70144" lon="5.40011">
        <ele>237.6</ele>
        <time>2024-09-19T12:22:22Z</time>
      </trkpt>
      <trkpt lat="45.70141" lon="5.40005">
        <ele>237</ele>
        <time>2024-09-19T12:22:23Z</time>
      </trkpt>
      <trkpt lat="45.70137" lon="5.39999">
        <ele>236.4</ele>
        <time>2024-09-19T12:22:24Z</time>
      </trkpt>
      <trkpt lat="45.70137" lon="5.39999">
        <ele>236.4</ele>
        <time>2024-09-19T12:22:25Z</time>
      </trkpt>
      <trkpt lat="45.70134" lon="5.39993">
        <ele>236.4</ele>
        <time>2024-09-19T12:22:26Z</time>
      </trkpt>
      <trkpt lat="45.70131" lon="5.39987">
        <ele>236.4</ele>
        <time>2024-09-19T12:22:27Z</time>
      </trkpt>
      <trkpt lat="45.70128" lon="5.39982">
        <ele>236.4</ele>
        <time>2024-09-19T12:22:28Z</time>
      </trkpt>
      <trkpt lat="45.70126" lon="5.39974">
        <ele>236.4</ele>
        <time>2024-09-19T12:22:29Z</time>
      </trkpt>
      <trkpt lat="45.70126" lon="5.39965">
        <ele>236.4</ele>
        <time>2024-09-19T12:22:30Z</time>
      </trkpt>
      <trkpt lat="45.70122" lon="5.39959">
        <ele>236.4</ele>
        <time>2024-09-19T12:22:31Z</time>
      </trkpt>
      <trkpt lat="45.70118" lon="5.39951">
        <ele>236.4</ele>
        <time>2024-09-19T12:22:32Z</time>
      </trkpt>
      <trkpt lat="45.70114" lon="5.39946">
        <ele>236.4</ele>
        <time>2024-09-19T12:22:33Z</time>
      </trkpt>
      <trkpt lat="45.70113" lon="5.39939">
        <ele>237.2</ele>
        <time>2024-09-19T12:22:34Z</time>
      </trkpt>
      <trkpt lat="45.70108" lon="5.39932">
        <ele>237.2</ele>
        <time>2024-09-19T12:22:35Z</time>
      </trkpt>
      <trkpt lat="45.70107" lon="5.39927">
        <ele>237.2</ele>
        <time>2024-09-19T12:22:36Z</time>
      </trkpt>
      <trkpt lat="45.70096" lon="5.39913">
        <ele>237.2</ele>
        <time>2024-09-19T12:22:37Z</time>
      </trkpt>
      <trkpt lat="45.70093" lon="5.39907">
        <ele>237.6</ele>
        <time>2024-09-19T12:22:38Z</time>
      </trkpt>
      <trkpt lat="45.70089" lon="5.399">
        <ele>238</ele>
        <time>2024-09-19T12:22:39Z</time>
      </trkpt>
      <trkpt lat="45.70086" lon="5.39893">
        <ele>238</ele>
        <time>2024-09-19T12:22:40Z</time>
      </trkpt>
      <trkpt lat="45.70081" lon="5.39887">
        <ele>237.4</ele>
        <time>2024-09-19T12:22:41Z</time>
      </trkpt>
      <trkpt lat="45.70077" lon="5.39881">
        <ele>237.4</ele>
        <time>2024-09-19T12:22:42Z</time>
      </trkpt>
      <trkpt lat="45.70073" lon="5.39876">
        <ele>237</ele>
        <time>2024-09-19T12:22:43Z</time>
      </trkpt>
      <trkpt lat="45.70068" lon="5.3987">
        <ele>237</ele>
        <time>2024-09-19T12:22:44Z</time>
      </trkpt>
      <trkpt lat="45.70065" lon="5.39864">
        <ele>237</ele>
        <time>2024-09-19T12:22:45Z</time>
      </trkpt>
      <trkpt lat="45.70062" lon="5.39858">
        <ele>236.6</ele>
        <time>2024-09-19T12:22:46Z</time>
      </trkpt>
      <trkpt lat="45.70058" lon="5.39852">
        <ele>236.8</ele>
        <time>2024-09-19T12:22:47Z</time>
      </trkpt>
      <trkpt lat="45.70055" lon="5.39847">
        <ele>236.8</ele>
        <time>2024-09-19T12:22:48Z</time>
      </trkpt>
      <trkpt lat="45.70051" lon="5.39841">
        <ele>236.8</ele>
        <time>2024-09-19T12:22:49Z</time>
      </trkpt>
      <trkpt lat="45.70049" lon="5.39834">
        <ele>236.8</ele>
        <time>2024-09-19T12:22:50Z</time>
      </trkpt>
      <trkpt lat="45.70045" lon="5.39827">
        <ele>237.2</ele>
        <time>2024-09-19T12:22:51Z</time>
      </trkpt>
      <trkpt lat="45.70042" lon="5.39822">
        <ele>237.2</ele>
        <time>2024-09-19T12:22:52Z</time>
      </trkpt>
      <trkpt lat="45.70039" lon="5.39814">
        <ele>237</ele>
        <time>2024-09-19T12:22:53Z</time>
      </trkpt>
      <trkpt lat="45.70036" lon="5.39807">
        <ele>237</ele>
        <time>2024-09-19T12:22:54Z</time>
      </trkpt>
      <trkpt lat="45.70033" lon="5.39801">
        <ele>237</ele>
        <time>2024-09-19T12:22:55Z</time>
      </trkpt>
      <trkpt lat="45.70029" lon="5.39795">
        <ele>237</ele>
        <time>2024-09-19T12:22:56Z</time>
      </trkpt>
      <trkpt lat="45.70027" lon="5.39788">
        <ele>236.6</ele>
        <time>2024-09-19T12:22:57Z</time>
      </trkpt>
      <trkpt lat="45.70024" lon="5.39783">
        <ele>236.6</ele>
        <time>2024-09-19T12:22:58Z</time>
      </trkpt>
      <trkpt lat="45.7002" lon="5.39775">
        <ele>236.6</ele>
        <time>2024-09-19T12:22:59Z</time>
      </trkpt>
      <trkpt lat="45.70018" lon="5.39769">
        <ele>237</ele>
        <time>2024-09-19T12:23:00Z</time>
      </trkpt>
      <trkpt lat="45.70015" lon="5.39762">
        <ele>237</ele>
        <time>2024-09-19T12:23:01Z</time>
      </trkpt>
      <trkpt lat="45.70013" lon="5.39755">
        <ele>237</ele>
        <time>2024-09-19T12:23:02Z</time>
      </trkpt>
      <trkpt lat="45.7001" lon="5.3975">
        <ele>237</ele>
        <time>2024-09-19T12:23:03Z</time>
      </trkpt>
      <trkpt lat="45.70005" lon="5.39744">
        <ele>237.4</ele>
        <time>2024-09-19T12:23:04Z</time>
      </trkpt>
      <trkpt lat="45.70002" lon="5.39738">
        <ele>237.4</ele>
        <time>2024-09-19T12:23:05Z</time>
      </trkpt>
      <trkpt lat="45.69998" lon="5.39731">
        <ele>237</ele>
        <time>2024-09-19T12:23:06Z</time>
      </trkpt>
      <trkpt lat="45.69995" lon="5.39724">
        <ele>237.6</ele>
        <time>2024-09-19T12:23:07Z</time>
      </trkpt>
      <trkpt lat="45.69991" lon="5.39718">
        <ele>237.6</ele>
        <time>2024-09-19T12:23:08Z</time>
      </trkpt>
      <trkpt lat="45.69988" lon="5.39712">
        <ele>238</ele>
        <time>2024-09-19T12:23:09Z</time>
      </trkpt>
      <trkpt lat="45.69985" lon="5.39706">
        <ele>237.8</ele>
        <time>2024-09-19T12:23:10Z</time>
      </trkpt>
      <trkpt lat="45.69981" lon="5.39699">
        <ele>237.8</ele>
        <time>2024-09-19T12:23:11Z</time>
      </trkpt>
      <trkpt lat="45.69978" lon="5.39693">
        <ele>237.4</ele>
        <time>2024-09-19T12:23:12Z</time>
      </trkpt>
      <trkpt lat="45.69974" lon="5.39687">
        <ele>237.4</ele>
        <time>2024-09-19T12:23:13Z</time>
      </trkpt>
      <trkpt lat="45.69971" lon="5.39682">
        <ele>237.4</ele>
        <time>2024-09-19T12:23:14Z</time>
      </trkpt>
      <trkpt lat="45.69969" lon="5.39676">
        <ele>236.8</ele>
        <time>2024-09-19T12:23:15Z</time>
      </trkpt>
      <trkpt lat="45.69966" lon="5.3967">
        <ele>236.8</ele>
        <time>2024-09-19T12:23:16Z</time>
      </trkpt>
      <trkpt lat="45.6996" lon="5.39664">
        <ele>236.8</ele>
        <time>2024-09-19T12:23:17Z</time>
      </trkpt>
      <trkpt lat="45.69956" lon="5.39658">
        <ele>237.2</ele>
        <time>2024-09-19T12:23:18Z</time>
      </trkpt>
      <trkpt lat="45.69952" lon="5.39652">
        <ele>237.6</ele>
        <time>2024-09-19T12:23:19Z</time>
      </trkpt>
      <trkpt lat="45.69947" lon="5.39646">
        <ele>237.6</ele>
        <time>2024-09-19T12:23:20Z</time>
      </trkpt>
      <trkpt lat="45.69943" lon="5.3964">
        <ele>238</ele>
        <time>2024-09-19T12:23:21Z</time>
      </trkpt>
      <trkpt lat="45.69942" lon="5.39636">
        <ele>238</ele>
        <time>2024-09-19T12:23:22Z</time>
      </trkpt>
      <trkpt lat="45.69939" lon="5.39628">
        <ele>237</ele>
        <time>2024-09-19T12:23:23Z</time>
      </trkpt>
      <trkpt lat="45.69935" lon="5.39621">
        <ele>237.6</ele>
        <time>2024-09-19T12:23:24Z</time>
      </trkpt>
      <trkpt lat="45.69932" lon="5.39614">
        <ele>237.6</ele>
        <time>2024-09-19T12:23:25Z</time>
      </trkpt>
      <trkpt lat="45.69929" lon="5.39607">
        <ele>237.8</ele>
        <time>2024-09-19T12:23:26Z</time>
      </trkpt>
      <trkpt lat="45.69925" lon="5.396">
        <ele>237.8</ele>
        <time>2024-09-19T12:23:27Z</time>
      </trkpt>
      <trkpt lat="45.69921" lon="5.39593">
        <ele>237.8</ele>
        <time>2024-09-19T12:23:28Z</time>
      </trkpt>
      <trkpt lat="45.69917" lon="5.39586">
        <ele>237</ele>
        <time>2024-09-19T12:23:29Z</time>
      </trkpt>
      <trkpt lat="45.69914" lon="5.3958">
        <ele>237.4</ele>
        <time>2024-09-19T12:23:30Z</time>
      </trkpt>
      <trkpt lat="45.69909" lon="5.39574">
        <ele>237.8</ele>
        <time>2024-09-19T12:23:31Z</time>
      </trkpt>
      <trkpt lat="45.69906" lon="5.39568">
        <ele>237.4</ele>
        <time>2024-09-19T12:23:32Z</time>
      </trkpt>
      <trkpt lat="45.69903" lon="5.39561">
        <ele>236.8</ele>
        <time>2024-09-19T12:23:33Z</time>
      </trkpt>
      <trkpt lat="45.699" lon="5.39556">
        <ele>236.2</ele>
        <time>2024-09-19T12:23:34Z</time>
      </trkpt>
      <trkpt lat="45.69896" lon="5.39548">
        <ele>235.8</ele>
        <time>2024-09-19T12:23:35Z</time>
      </trkpt>
      <trkpt lat="45.69894" lon="5.39541">
        <ele>235.4</ele>
        <time>2024-09-19T12:23:36Z</time>
      </trkpt>
      <trkpt lat="45.6989" lon="5.39535">
        <ele>236.6</ele>
        <time>2024-09-19T12:23:37Z</time>
      </trkpt>
      <trkpt lat="45.69887" lon="5.39528">
        <ele>236.2</ele>
        <time>2024-09-19T12:23:38Z</time>
      </trkpt>
      <trkpt lat="45.69883" lon="5.39522">
        <ele>236.6</ele>
        <time>2024-09-19T12:23:39Z</time>
      </trkpt>
      <trkpt lat="45.69879" lon="5.39517">
        <ele>237</ele>
        <time>2024-09-19T12:23:40Z</time>
      </trkpt>
      <trkpt lat="45.69876" lon="5.39508">
        <ele>236.6</ele>
        <time>2024-09-19T12:23:41Z</time>
      </trkpt>
      <trkpt lat="45.69872" lon="5.39502">
        <ele>237.4</ele>
        <time>2024-09-19T12:23:42Z</time>
      </trkpt>
      <trkpt lat="45.69869" lon="5.39495">
        <ele>237</ele>
        <time>2024-09-19T12:23:43Z</time>
      </trkpt>
      <trkpt lat="45.69867" lon="5.39489">
        <ele>237.8</ele>
        <time>2024-09-19T12:23:44Z</time>
      </trkpt>
      <trkpt lat="45.69864" lon="5.39482">
        <ele>237</ele>
        <time>2024-09-19T12:23:45Z</time>
      </trkpt>
      <trkpt lat="45.6986" lon="5.39476">
        <ele>237</ele>
        <time>2024-09-19T12:23:46Z</time>
      </trkpt>
      <trkpt lat="45.69857" lon="5.39469">
        <ele>237.6</ele>
        <time>2024-09-19T12:23:47Z</time>
      </trkpt>
      <trkpt lat="45.69853" lon="5.39462">
        <ele>237.6</ele>
        <time>2024-09-19T12:23:48Z</time>
      </trkpt>
      <trkpt lat="45.69849" lon="5.39456">
        <ele>237.6</ele>
        <time>2024-09-19T12:23:49Z</time>
      </trkpt>
      <trkpt lat="45.69844" lon="5.39449">
        <ele>238</ele>
        <time>2024-09-19T12:23:50Z</time>
      </trkpt>
      <trkpt lat="45.69841" lon="5.39444">
        <ele>237.6</ele>
        <time>2024-09-19T12:23:51Z</time>
      </trkpt>
      <trkpt lat="45.69838" lon="5.39437">
        <ele>237.8</ele>
        <time>2024-09-19T12:23:52Z</time>
      </trkpt>
      <trkpt lat="45.69835" lon="5.3943">
        <ele>238.6</ele>
        <time>2024-09-19T12:23:53Z</time>
      </trkpt>
      <trkpt lat="45.69831" lon="5.39423">
        <ele>237.6</ele>
        <time>2024-09-19T12:23:54Z</time>
      </trkpt>
      <trkpt lat="45.69827" lon="5.39417">
        <ele>236.8</ele>
        <time>2024-09-19T12:23:55Z</time>
      </trkpt>
      <trkpt lat="45.69823" lon="5.39412">
        <ele>236.8</ele>
        <time>2024-09-19T12:23:56Z</time>
      </trkpt>
      <trkpt lat="45.69819" lon="5.39407">
        <ele>236.8</ele>
        <time>2024-09-19T12:23:57Z</time>
      </trkpt>
      <trkpt lat="45.69815" lon="5.39401">
        <ele>237.2</ele>
        <time>2024-09-19T12:23:58Z</time>
      </trkpt>
      <trkpt lat="45.69812" lon="5.39395">
        <ele>237.2</ele>
        <time>2024-09-19T12:23:59Z</time>
      </trkpt>
      <trkpt lat="45.69809" lon="5.3939">
        <ele>237.2</ele>
        <time>2024-09-19T12:24:00Z</time>
      </trkpt>
      <trkpt lat="45.69805" lon="5.39386">
        <ele>237.6</ele>
        <time>2024-09-19T12:24:01Z</time>
      </trkpt>
      <trkpt lat="45.69801" lon="5.39381">
        <ele>237.2</ele>
        <time>2024-09-19T12:24:02Z</time>
      </trkpt>
      <trkpt lat="45.69796" lon="5.39376">
        <ele>236.8</ele>
        <time>2024-09-19T12:24:03Z</time>
      </trkpt>
      <trkpt lat="45.69792" lon="5.3937">
        <ele>236.8</ele>
        <time>2024-09-19T12:24:04Z</time>
      </trkpt>
      <trkpt lat="45.69788" lon="5.39366">
        <ele>236.6</ele>
        <time>2024-09-19T12:24:05Z</time>
      </trkpt>
      <trkpt lat="45.69784" lon="5.3936">
        <ele>237.2</ele>
        <time>2024-09-19T12:24:06Z</time>
      </trkpt>
      <trkpt lat="45.6978" lon="5.39355">
        <ele>237.2</ele>
        <time>2024-09-19T12:24:07Z</time>
      </trkpt>
      <trkpt lat="45.69774" lon="5.3935">
        <ele>237</ele>
        <time>2024-09-19T12:24:08Z</time>
      </trkpt>
      <trkpt lat="45.69772" lon="5.39344">
        <ele>237.4</ele>
        <time>2024-09-19T12:24:09Z</time>
      </trkpt>
      <trkpt lat="45.69767" lon="5.39338">
        <ele>237.6</ele>
        <time>2024-09-19T12:24:10Z</time>
      </trkpt>
      <trkpt lat="45.69764" lon="5.39334">
        <ele>237.8</ele>
        <time>2024-09-19T12:24:11Z</time>
      </trkpt>
      <trkpt lat="45.69759" lon="5.39329">
        <ele>237.8</ele>
        <time>2024-09-19T12:24:12Z</time>
      </trkpt>
      <trkpt lat="45.69754" lon="5.39323">
        <ele>238.2</ele>
        <time>2024-09-19T12:24:13Z</time>
      </trkpt>
      <trkpt lat="45.69748" lon="5.39319">
        <ele>237.6</ele>
        <time>2024-09-19T12:24:14Z</time>
      </trkpt>
      <trkpt lat="45.69743" lon="5.39314">
        <ele>238</ele>
        <time>2024-09-19T12:24:15Z</time>
      </trkpt>
      <trkpt lat="45.69739" lon="5.3931">
        <ele>238</ele>
        <time>2024-09-19T12:24:16Z</time>
      </trkpt>
      <trkpt lat="45.69735" lon="5.39305">
        <ele>238</ele>
        <time>2024-09-19T12:24:17Z</time>
      </trkpt>
      <trkpt lat="45.6973" lon="5.39301">
        <ele>237.8</ele>
        <time>2024-09-19T12:24:18Z</time>
      </trkpt>
      <trkpt lat="45.69725" lon="5.39297">
        <ele>237.8</ele>
        <time>2024-09-19T12:24:19Z</time>
      </trkpt>
      <trkpt lat="45.69722" lon="5.39291">
        <ele>237.8</ele>
        <time>2024-09-19T12:24:20Z</time>
      </trkpt>
      <trkpt lat="45.69717" lon="5.39287">
        <ele>238.2</ele>
        <time>2024-09-19T12:24:21Z</time>
      </trkpt>
      <trkpt lat="45.69713" lon="5.39282">
        <ele>238.2</ele>
        <time>2024-09-19T12:24:22Z</time>
      </trkpt>
      <trkpt lat="45.69709" lon="5.39278">
        <ele>238.4</ele>
        <time>2024-09-19T12:24:23Z</time>
      </trkpt>
      <trkpt lat="45.69704" lon="5.39274">
        <ele>238.4</ele>
        <time>2024-09-19T12:24:24Z</time>
      </trkpt>
      <trkpt lat="45.697" lon="5.3927">
        <ele>238.2</ele>
        <time>2024-09-19T12:24:25Z</time>
      </trkpt>
      <trkpt lat="45.69695" lon="5.39266">
        <ele>238.4</ele>
        <time>2024-09-19T12:24:26Z</time>
      </trkpt>
      <trkpt lat="45.6969" lon="5.39262">
        <ele>238.4</ele>
        <time>2024-09-19T12:24:27Z</time>
      </trkpt>
      <trkpt lat="45.69684" lon="5.39259">
        <ele>238.4</ele>
        <time>2024-09-19T12:24:28Z</time>
      </trkpt>
      <trkpt lat="45.6968" lon="5.39254">
        <ele>238.4</ele>
        <time>2024-09-19T12:24:29Z</time>
      </trkpt>
      <trkpt lat="45.69674" lon="5.39251">
        <ele>238.2</ele>
        <time>2024-09-19T12:24:30Z</time>
      </trkpt>
      <trkpt lat="45.69669" lon="5.39247">
        <ele>238.4</ele>
        <time>2024-09-19T12:24:31Z</time>
      </trkpt>
      <trkpt lat="45.69664" lon="5.39243">
        <ele>237.6</ele>
        <time>2024-09-19T12:24:32Z</time>
      </trkpt>
      <trkpt lat="45.69659" lon="5.3924">
        <ele>237.8</ele>
        <time>2024-09-19T12:24:33Z</time>
      </trkpt>
      <trkpt lat="45.69653" lon="5.39237">
        <ele>237.6</ele>
        <time>2024-09-19T12:24:34Z</time>
      </trkpt>
      <trkpt lat="45.69649" lon="5.39233">
        <ele>237.6</ele>
        <time>2024-09-19T12:24:35Z</time>
      </trkpt>
      <trkpt lat="45.69644" lon="5.39229">
        <ele>237.6</ele>
        <time>2024-09-19T12:24:36Z</time>
      </trkpt>
      <trkpt lat="45.69639" lon="5.39225">
        <ele>237.8</ele>
        <time>2024-09-19T12:24:37Z</time>
      </trkpt>
      <trkpt lat="45.69633" lon="5.39222">
        <ele>237.8</ele>
        <time>2024-09-19T12:24:38Z</time>
      </trkpt>
      <trkpt lat="45.69627" lon="5.39218">
        <ele>237.8</ele>
        <time>2024-09-19T12:24:39Z</time>
      </trkpt>
      <trkpt lat="45.69622" lon="5.39216">
        <ele>237.8</ele>
        <time>2024-09-19T12:24:40Z</time>
      </trkpt>
      <trkpt lat="45.69617" lon="5.39214">
        <ele>238</ele>
        <time>2024-09-19T12:24:41Z</time>
      </trkpt>
      <trkpt lat="45.69611" lon="5.39211">
        <ele>237.6</ele>
        <time>2024-09-19T12:24:42Z</time>
      </trkpt>
      <trkpt lat="45.69606" lon="5.39208">
        <ele>237.4</ele>
        <time>2024-09-19T12:24:43Z</time>
      </trkpt>
      <trkpt lat="45.69601" lon="5.39206">
        <ele>237.4</ele>
        <time>2024-09-19T12:24:44Z</time>
      </trkpt>
      <trkpt lat="45.69595" lon="5.39203">
        <ele>237.8</ele>
        <time>2024-09-19T12:24:45Z</time>
      </trkpt>
      <trkpt lat="45.69589" lon="5.39201">
        <ele>237.4</ele>
        <time>2024-09-19T12:24:46Z</time>
      </trkpt>
      <trkpt lat="45.69583" lon="5.39199">
        <ele>237.6</ele>
        <time>2024-09-19T12:24:47Z</time>
      </trkpt>
      <trkpt lat="45.69578" lon="5.39196">
        <ele>237.6</ele>
        <time>2024-09-19T12:24:48Z</time>
      </trkpt>
      <trkpt lat="45.69573" lon="5.39194">
        <ele>237.2</ele>
        <time>2024-09-19T12:24:49Z</time>
      </trkpt>
      <trkpt lat="45.69568" lon="5.39192">
        <ele>237.6</ele>
        <time>2024-09-19T12:24:50Z</time>
      </trkpt>
      <trkpt lat="45.69562" lon="5.39191">
        <ele>237.4</ele>
        <time>2024-09-19T12:24:51Z</time>
      </trkpt>
      <trkpt lat="45.69557" lon="5.39188">
        <ele>237.4</ele>
        <time>2024-09-19T12:24:52Z</time>
      </trkpt>
      <trkpt lat="45.69551" lon="5.39186">
        <ele>237.4</ele>
        <time>2024-09-19T12:24:53Z</time>
      </trkpt>
      <trkpt lat="45.69546" lon="5.39183">
        <ele>237.2</ele>
        <time>2024-09-19T12:24:54Z</time>
      </trkpt>
      <trkpt lat="45.6954" lon="5.39181">
        <ele>236.8</ele>
        <time>2024-09-19T12:24:55Z</time>
      </trkpt>
      <trkpt lat="45.69535" lon="5.39178">
        <ele>236.8</ele>
        <time>2024-09-19T12:24:56Z</time>
      </trkpt>
      <trkpt lat="45.69529" lon="5.39177">
        <ele>236.6</ele>
        <time>2024-09-19T12:24:57Z</time>
      </trkpt>
      <trkpt lat="45.69524" lon="5.39173">
        <ele>236.6</ele>
        <time>2024-09-19T12:24:58Z</time>
      </trkpt>
      <trkpt lat="45.69518" lon="5.39171">
        <ele>236.4</ele>
        <time>2024-09-19T12:24:59Z</time>
      </trkpt>
      <trkpt lat="45.69513" lon="5.39169">
        <ele>236.8</ele>
        <time>2024-09-19T12:25:00Z</time>
      </trkpt>
      <trkpt lat="45.69509" lon="5.39166">
        <ele>237</ele>
        <time>2024-09-19T12:25:01Z</time>
      </trkpt>
      <trkpt lat="45.69504" lon="5.39164">
        <ele>237</ele>
        <time>2024-09-19T12:25:02Z</time>
      </trkpt>
      <trkpt lat="45.69501" lon="5.39164">
        <ele>237</ele>
        <time>2024-09-19T12:25:03Z</time>
      </trkpt>
      <trkpt lat="45.69496" lon="5.39164">
        <ele>237.2</ele>
        <time>2024-09-19T12:25:04Z</time>
      </trkpt>
      <trkpt lat="45.69493" lon="5.3916">
        <ele>237.6</ele>
        <time>2024-09-19T12:25:05Z</time>
      </trkpt>
      <trkpt lat="45.69489" lon="5.39158">
        <ele>237.6</ele>
        <time>2024-09-19T12:25:06Z</time>
      </trkpt>
      <trkpt lat="45.69484" lon="5.39157">
        <ele>237.6</ele>
        <time>2024-09-19T12:25:07Z</time>
      </trkpt>
      <trkpt lat="45.69481" lon="5.39155">
        <ele>237.6</ele>
        <time>2024-09-19T12:25:08Z</time>
      </trkpt>
      <trkpt lat="45.69476" lon="5.39154">
        <ele>237.6</ele>
        <time>2024-09-19T12:25:09Z</time>
      </trkpt>
      <trkpt lat="45.69472" lon="5.39151">
        <ele>237.6</ele>
        <time>2024-09-19T12:25:10Z</time>
      </trkpt>
      <trkpt lat="45.69468" lon="5.3915">
        <ele>237.2</ele>
        <time>2024-09-19T12:25:11Z</time>
      </trkpt>
      <trkpt lat="45.69463" lon="5.39147">
        <ele>237.2</ele>
        <time>2024-09-19T12:25:12Z</time>
      </trkpt>
      <trkpt lat="45.69463" lon="5.39147">
        <ele>237.2</ele>
        <time>2024-09-19T12:25:13Z</time>
      </trkpt>
      <trkpt lat="45.69459" lon="5.39145">
        <ele>237.2</ele>
        <time>2024-09-19T12:25:14Z</time>
      </trkpt>
      <trkpt lat="45.69455" lon="5.39143">
        <ele>237.2</ele>
        <time>2024-09-19T12:25:15Z</time>
      </trkpt>
      <trkpt lat="45.6945" lon="5.3914">
        <ele>237.2</ele>
        <time>2024-09-19T12:25:16Z</time>
      </trkpt>
      <trkpt lat="45.69445" lon="5.39138">
        <ele>237.2</ele>
        <time>2024-09-19T12:25:17Z</time>
      </trkpt>
      <trkpt lat="45.69441" lon="5.39135">
        <ele>237.2</ele>
        <time>2024-09-19T12:25:18Z</time>
      </trkpt>
      <trkpt lat="45.69436" lon="5.39132">
        <ele>237.2</ele>
        <time>2024-09-19T12:25:19Z</time>
      </trkpt>
      <trkpt lat="45.69431" lon="5.3913">
        <ele>237.2</ele>
        <time>2024-09-19T12:25:20Z</time>
      </trkpt>
      <trkpt lat="45.69427" lon="5.39127">
        <ele>237.6</ele>
        <time>2024-09-19T12:25:21Z</time>
      </trkpt>
      <trkpt lat="45.69422" lon="5.39124">
        <ele>237.8</ele>
        <time>2024-09-19T12:25:22Z</time>
      </trkpt>
      <trkpt lat="45.69418" lon="5.39119">
        <ele>237.4</ele>
        <time>2024-09-19T12:25:23Z</time>
      </trkpt>
      <trkpt lat="45.69413" lon="5.39117">
        <ele>237.8</ele>
        <time>2024-09-19T12:25:24Z</time>
      </trkpt>
      <trkpt lat="45.69409" lon="5.39113">
        <ele>238</ele>
        <time>2024-09-19T12:25:25Z</time>
      </trkpt>
      <trkpt lat="45.694" lon="5.39107">
        <ele>237.6</ele>
        <time>2024-09-19T12:25:26Z</time>
      </trkpt>
      <trkpt lat="45.69395" lon="5.39104">
        <ele>237.6</ele>
        <time>2024-09-19T12:25:27Z</time>
      </trkpt>
      <trkpt lat="45.69392" lon="5.39098">
        <ele>237.8</ele>
        <time>2024-09-19T12:25:28Z</time>
      </trkpt>
      <trkpt lat="45.69387" lon="5.39094">
        <ele>237.8</ele>
        <time>2024-09-19T12:25:29Z</time>
      </trkpt>
      <trkpt lat="45.69382" lon="5.39091">
        <ele>237.8</ele>
        <time>2024-09-19T12:25:30Z</time>
      </trkpt>
      <trkpt lat="45.69377" lon="5.39088">
        <ele>237.8</ele>
        <time>2024-09-19T12:25:31Z</time>
      </trkpt>
      <trkpt lat="45.69372" lon="5.39084">
        <ele>237.8</ele>
        <time>2024-09-19T12:25:32Z</time>
      </trkpt>
      <trkpt lat="45.69367" lon="5.39079">
        <ele>237.6</ele>
        <time>2024-09-19T12:25:33Z</time>
      </trkpt>
      <trkpt lat="45.69362" lon="5.39075">
        <ele>237.4</ele>
        <time>2024-09-19T12:25:34Z</time>
      </trkpt>
      <trkpt lat="45.69357" lon="5.39071">
        <ele>237.4</ele>
        <time>2024-09-19T12:25:35Z</time>
      </trkpt>
      <trkpt lat="45.69352" lon="5.39066">
        <ele>237.4</ele>
        <time>2024-09-19T12:25:36Z</time>
      </trkpt>
      <trkpt lat="45.69348" lon="5.39063">
        <ele>237.4</ele>
        <time>2024-09-19T12:25:37Z</time>
      </trkpt>
      <trkpt lat="45.69343" lon="5.39058">
        <ele>237.4</ele>
        <time>2024-09-19T12:25:38Z</time>
      </trkpt>
      <trkpt lat="45.69338" lon="5.39054">
        <ele>237</ele>
        <time>2024-09-19T12:25:39Z</time>
      </trkpt>
      <trkpt lat="45.69334" lon="5.39049">
        <ele>237</ele>
        <time>2024-09-19T12:25:40Z</time>
      </trkpt>
      <trkpt lat="45.6933" lon="5.39043">
        <ele>236.8</ele>
        <time>2024-09-19T12:25:41Z</time>
      </trkpt>
      <trkpt lat="45.69326" lon="5.39037">
        <ele>236.8</ele>
        <time>2024-09-19T12:25:42Z</time>
      </trkpt>
      <trkpt lat="45.69322" lon="5.39032">
        <ele>236.8</ele>
        <time>2024-09-19T12:25:43Z</time>
      </trkpt>
      <trkpt lat="45.69317" lon="5.39026">
        <ele>236.8</ele>
        <time>2024-09-19T12:25:44Z</time>
      </trkpt>
      <trkpt lat="45.69313" lon="5.3902">
        <ele>236.8</ele>
        <time>2024-09-19T12:25:45Z</time>
      </trkpt>
      <trkpt lat="45.69308" lon="5.39016">
        <ele>236.8</ele>
        <time>2024-09-19T12:25:46Z</time>
      </trkpt>
      <trkpt lat="45.69304" lon="5.3901">
        <ele>237</ele>
        <time>2024-09-19T12:25:47Z</time>
      </trkpt>
      <trkpt lat="45.693" lon="5.39004">
        <ele>237</ele>
        <time>2024-09-19T12:25:48Z</time>
      </trkpt>
      <trkpt lat="45.69295" lon="5.38999">
        <ele>237</ele>
        <time>2024-09-19T12:25:49Z</time>
      </trkpt>
      <trkpt lat="45.69292" lon="5.38993">
        <ele>237</ele>
        <time>2024-09-19T12:25:50Z</time>
      </trkpt>
      <trkpt lat="45.69288" lon="5.38987">
        <ele>237</ele>
        <time>2024-09-19T12:25:51Z</time>
      </trkpt>
      <trkpt lat="45.69284" lon="5.38981">
        <ele>237.6</ele>
        <time>2024-09-19T12:25:52Z</time>
      </trkpt>
      <trkpt lat="45.6928" lon="5.38974">
        <ele>237.6</ele>
        <time>2024-09-19T12:25:53Z</time>
      </trkpt>
      <trkpt lat="45.69276" lon="5.38969">
        <ele>238</ele>
        <time>2024-09-19T12:25:54Z</time>
      </trkpt>
      <trkpt lat="45.69272" lon="5.38963">
        <ele>238</ele>
        <time>2024-09-19T12:25:55Z</time>
      </trkpt>
      <trkpt lat="45.69268" lon="5.38957">
        <ele>238.6</ele>
        <time>2024-09-19T12:25:56Z</time>
      </trkpt>
      <trkpt lat="45.69264" lon="5.3895">
        <ele>238.6</ele>
        <time>2024-09-19T12:25:57Z</time>
      </trkpt>
      <trkpt lat="45.6926" lon="5.38944">
        <ele>238.2</ele>
        <time>2024-09-19T12:25:58Z</time>
      </trkpt>
      <trkpt lat="45.69256" lon="5.38938">
        <ele>238</ele>
        <time>2024-09-19T12:25:59Z</time>
      </trkpt>
      <trkpt lat="45.69253" lon="5.38932">
        <ele>237.4</ele>
        <time>2024-09-19T12:26:00Z</time>
      </trkpt>
      <trkpt lat="45.69249" lon="5.38925">
        <ele>237.4</ele>
        <time>2024-09-19T12:26:01Z</time>
      </trkpt>
      <trkpt lat="45.69245" lon="5.38919">
        <ele>237.4</ele>
        <time>2024-09-19T12:26:02Z</time>
      </trkpt>
      <trkpt lat="45.69242" lon="5.38913">
        <ele>237.2</ele>
        <time>2024-09-19T12:26:03Z</time>
      </trkpt>
      <trkpt lat="45.69239" lon="5.38906">
        <ele>237.2</ele>
        <time>2024-09-19T12:26:04Z</time>
      </trkpt>
      <trkpt lat="45.69235" lon="5.389">
        <ele>237.2</ele>
        <time>2024-09-19T12:26:05Z</time>
      </trkpt>
      <trkpt lat="45.69232" lon="5.38893">
        <ele>237.2</ele>
        <time>2024-09-19T12:26:06Z</time>
      </trkpt>
      <trkpt lat="45.69229" lon="5.38887">
        <ele>236.8</ele>
        <time>2024-09-19T12:26:07Z</time>
      </trkpt>
      <trkpt lat="45.69223" lon="5.38882">
        <ele>236.8</ele>
        <time>2024-09-19T12:26:08Z</time>
      </trkpt>
      <trkpt lat="45.69221" lon="5.38875">
        <ele>237.2</ele>
        <time>2024-09-19T12:26:09Z</time>
      </trkpt>
      <trkpt lat="45.69218" lon="5.38869">
        <ele>237.2</ele>
        <time>2024-09-19T12:26:10Z</time>
      </trkpt>
      <trkpt lat="45.69216" lon="5.38862">
        <ele>237.4</ele>
        <time>2024-09-19T12:26:11Z</time>
      </trkpt>
      <trkpt lat="45.69213" lon="5.38855">
        <ele>237.8</ele>
        <time>2024-09-19T12:26:12Z</time>
      </trkpt>
      <trkpt lat="45.6921" lon="5.3885">
        <ele>237.8</ele>
        <time>2024-09-19T12:26:13Z</time>
      </trkpt>
      <trkpt lat="45.69207" lon="5.38844">
        <ele>237.8</ele>
        <time>2024-09-19T12:26:14Z</time>
      </trkpt>
      <trkpt lat="45.69204" lon="5.38839">
        <ele>238.4</ele>
        <time>2024-09-19T12:26:15Z</time>
      </trkpt>
      <trkpt lat="45.69202" lon="5.38834">
        <ele>238.4</ele>
        <time>2024-09-19T12:26:16Z</time>
      </trkpt>
      <trkpt lat="45.69199" lon="5.38828">
        <ele>238.4</ele>
        <time>2024-09-19T12:26:17Z</time>
      </trkpt>
      <trkpt lat="45.69196" lon="5.38822">
        <ele>238.6</ele>
        <time>2024-09-19T12:26:18Z</time>
      </trkpt>
      <trkpt lat="45.69193" lon="5.38816">
        <ele>238</ele>
        <time>2024-09-19T12:26:19Z</time>
      </trkpt>
      <trkpt lat="45.6919" lon="5.38809">
        <ele>238</ele>
        <time>2024-09-19T12:26:20Z</time>
      </trkpt>
      <trkpt lat="45.69187" lon="5.38803">
        <ele>238</ele>
        <time>2024-09-19T12:26:21Z</time>
      </trkpt>
      <trkpt lat="45.69184" lon="5.38797">
        <ele>237.8</ele>
        <time>2024-09-19T12:26:22Z</time>
      </trkpt>
      <trkpt lat="45.69181" lon="5.38791">
        <ele>237.8</ele>
        <time>2024-09-19T12:26:23Z</time>
      </trkpt>
      <trkpt lat="45.69177" lon="5.38784">
        <ele>237.8</ele>
        <time>2024-09-19T12:26:24Z</time>
      </trkpt>
      <trkpt lat="45.69174" lon="5.38778">
        <ele>237.8</ele>
        <time>2024-09-19T12:26:25Z</time>
      </trkpt>
      <trkpt lat="45.69171" lon="5.38771">
        <ele>237.4</ele>
        <time>2024-09-19T12:26:26Z</time>
      </trkpt>
      <trkpt lat="45.69167" lon="5.38765">
        <ele>237.4</ele>
        <time>2024-09-19T12:26:27Z</time>
      </trkpt>
      <trkpt lat="45.69165" lon="5.38757">
        <ele>237.8</ele>
        <time>2024-09-19T12:26:28Z</time>
      </trkpt>
      <trkpt lat="45.69162" lon="5.3875">
        <ele>237.6</ele>
        <time>2024-09-19T12:26:29Z</time>
      </trkpt>
      <trkpt lat="45.69159" lon="5.38744">
        <ele>237.6</ele>
        <time>2024-09-19T12:26:30Z</time>
      </trkpt>
      <trkpt lat="45.69155" lon="5.38739">
        <ele>237.6</ele>
        <time>2024-09-19T12:26:31Z</time>
      </trkpt>
      <trkpt lat="45.69152" lon="5.38732">
        <ele>237.6</ele>
        <time>2024-09-19T12:26:32Z</time>
      </trkpt>
      <trkpt lat="45.69148" lon="5.38726">
        <ele>237.8</ele>
        <time>2024-09-19T12:26:33Z</time>
      </trkpt>
      <trkpt lat="45.69145" lon="5.38719">
        <ele>238.2</ele>
        <time>2024-09-19T12:26:34Z</time>
      </trkpt>
      <trkpt lat="45.69142" lon="5.38713">
        <ele>238.2</ele>
        <time>2024-09-19T12:26:35Z</time>
      </trkpt>
      <trkpt lat="45.69138" lon="5.38707">
        <ele>238.2</ele>
        <time>2024-09-19T12:26:36Z</time>
      </trkpt>
      <trkpt lat="45.69135" lon="5.387">
        <ele>238</ele>
        <time>2024-09-19T12:26:37Z</time>
      </trkpt>
      <trkpt lat="45.69131" lon="5.38694">
        <ele>238</ele>
        <time>2024-09-19T12:26:38Z</time>
      </trkpt>
      <trkpt lat="45.69129" lon="5.38688">
        <ele>238</ele>
        <time>2024-09-19T12:26:39Z</time>
      </trkpt>
      <trkpt lat="45.69125" lon="5.38682">
        <ele>237.6</ele>
        <time>2024-09-19T12:26:40Z</time>
      </trkpt>
      <trkpt lat="45.69122" lon="5.38677">
        <ele>238</ele>
        <time>2024-09-19T12:26:41Z</time>
      </trkpt>
      <trkpt lat="45.69118" lon="5.3867">
        <ele>238</ele>
        <time>2024-09-19T12:26:42Z</time>
      </trkpt>
      <trkpt lat="45.69115" lon="5.38663">
        <ele>238</ele>
        <time>2024-09-19T12:26:43Z</time>
      </trkpt>
      <trkpt lat="45.69111" lon="5.38657">
        <ele>238</ele>
        <time>2024-09-19T12:26:44Z</time>
      </trkpt>
      <trkpt lat="45.69108" lon="5.3865">
        <ele>238</ele>
        <time>2024-09-19T12:26:45Z</time>
      </trkpt>
      <trkpt lat="45.69106" lon="5.38645">
        <ele>237.6</ele>
        <time>2024-09-19T12:26:46Z</time>
      </trkpt>
      <trkpt lat="45.69103" lon="5.38637">
        <ele>237.6</ele>
        <time>2024-09-19T12:26:47Z</time>
      </trkpt>
      <trkpt lat="45.691" lon="5.38633">
        <ele>237.6</ele>
        <time>2024-09-19T12:26:48Z</time>
      </trkpt>
      <trkpt lat="45.69095" lon="5.38626">
        <ele>238.2</ele>
        <time>2024-09-19T12:26:49Z</time>
      </trkpt>
      <trkpt lat="45.69094" lon="5.38619">
        <ele>238.2</ele>
        <time>2024-09-19T12:26:50Z</time>
      </trkpt>
      <trkpt lat="45.69089" lon="5.38612">
        <ele>238.4</ele>
        <time>2024-09-19T12:26:51Z</time>
      </trkpt>
      <trkpt lat="45.69086" lon="5.38605">
        <ele>238.4</ele>
        <time>2024-09-19T12:26:52Z</time>
      </trkpt>
      <trkpt lat="45.69083" lon="5.38598">
        <ele>238.4</ele>
        <time>2024-09-19T12:26:53Z</time>
      </trkpt>
      <trkpt lat="45.69079" lon="5.38593">
        <ele>238.4</ele>
        <time>2024-09-19T12:26:54Z</time>
      </trkpt>
      <trkpt lat="45.69076" lon="5.38585">
        <ele>238.4</ele>
        <time>2024-09-19T12:26:55Z</time>
      </trkpt>
      <trkpt lat="45.69073" lon="5.38579">
        <ele>238.2</ele>
        <time>2024-09-19T12:26:56Z</time>
      </trkpt>
      <trkpt lat="45.69069" lon="5.3857">
        <ele>238.2</ele>
        <time>2024-09-19T12:26:57Z</time>
      </trkpt>
      <trkpt lat="45.69067" lon="5.38564">
        <ele>238.8</ele>
        <time>2024-09-19T12:26:58Z</time>
      </trkpt>
      <trkpt lat="45.69063" lon="5.38557">
        <ele>238.4</ele>
        <time>2024-09-19T12:26:59Z</time>
      </trkpt>
      <trkpt lat="45.69059" lon="5.38551">
        <ele>238.8</ele>
        <time>2024-09-19T12:27:00Z</time>
      </trkpt>
      <trkpt lat="45.69056" lon="5.38544">
        <ele>238.8</ele>
        <time>2024-09-19T12:27:01Z</time>
      </trkpt>
      <trkpt lat="45.69053" lon="5.38536">
        <ele>238.4</ele>
        <time>2024-09-19T12:27:02Z</time>
      </trkpt>
      <trkpt lat="45.6905" lon="5.3853">
        <ele>238.4</ele>
        <time>2024-09-19T12:27:03Z</time>
      </trkpt>
      <trkpt lat="45.69048" lon="5.38522">
        <ele>238.4</ele>
        <time>2024-09-19T12:27:04Z</time>
      </trkpt>
      <trkpt lat="45.69045" lon="5.38514">
        <ele>237.8</ele>
        <time>2024-09-19T12:27:05Z</time>
      </trkpt>
      <trkpt lat="45.69042" lon="5.38505">
        <ele>237.8</ele>
        <time>2024-09-19T12:27:06Z</time>
      </trkpt>
      <trkpt lat="45.6904" lon="5.38498">
        <ele>237.8</ele>
        <time>2024-09-19T12:27:07Z</time>
      </trkpt>
      <trkpt lat="45.69037" lon="5.3849">
        <ele>237.8</ele>
        <time>2024-09-19T12:27:08Z</time>
      </trkpt>
      <trkpt lat="45.69035" lon="5.38482">
        <ele>238.4</ele>
        <time>2024-09-19T12:27:09Z</time>
      </trkpt>
      <trkpt lat="45.69033" lon="5.38474">
        <ele>238.4</ele>
        <time>2024-09-19T12:27:10Z</time>
      </trkpt>
      <trkpt lat="45.6903" lon="5.38466">
        <ele>238.4</ele>
        <time>2024-09-19T12:27:11Z</time>
      </trkpt>
      <trkpt lat="45.69028" lon="5.38459">
        <ele>238.4</ele>
        <time>2024-09-19T12:27:12Z</time>
      </trkpt>
      <trkpt lat="45.69026" lon="5.3845">
        <ele>238.2</ele>
        <time>2024-09-19T12:27:13Z</time>
      </trkpt>
      <trkpt lat="45.69024" lon="5.38442">
        <ele>238.6</ele>
        <time>2024-09-19T12:27:14Z</time>
      </trkpt>
      <trkpt lat="45.69022" lon="5.38434">
        <ele>238.6</ele>
        <time>2024-09-19T12:27:15Z</time>
      </trkpt>
      <trkpt lat="45.6902" lon="5.38426">
        <ele>238.6</ele>
        <time>2024-09-19T12:27:16Z</time>
      </trkpt>
      <trkpt lat="45.69018" lon="5.38418">
        <ele>237.8</ele>
        <time>2024-09-19T12:27:17Z</time>
      </trkpt>
      <trkpt lat="45.69016" lon="5.3841">
        <ele>237.8</ele>
        <time>2024-09-19T12:27:18Z</time>
      </trkpt>
      <trkpt lat="45.69014" lon="5.38401">
        <ele>237.8</ele>
        <time>2024-09-19T12:27:19Z</time>
      </trkpt>
      <trkpt lat="45.69013" lon="5.38393">
        <ele>238.2</ele>
        <time>2024-09-19T12:27:20Z</time>
      </trkpt>
      <trkpt lat="45.69012" lon="5.38385">
        <ele>238.2</ele>
        <time>2024-09-19T12:27:21Z</time>
      </trkpt>
      <trkpt lat="45.6901" lon="5.38376">
        <ele>238.4</ele>
        <time>2024-09-19T12:27:22Z</time>
      </trkpt>
      <trkpt lat="45.69009" lon="5.38368">
        <ele>238.4</ele>
        <time>2024-09-19T12:27:23Z</time>
      </trkpt>
      <trkpt lat="45.69007" lon="5.38359">
        <ele>237.8</ele>
        <time>2024-09-19T12:27:24Z</time>
      </trkpt>
      <trkpt lat="45.69006" lon="5.38351">
        <ele>237.8</ele>
        <time>2024-09-19T12:27:25Z</time>
      </trkpt>
      <trkpt lat="45.69005" lon="5.38343">
        <ele>237.8</ele>
        <time>2024-09-19T12:27:26Z</time>
      </trkpt>
      <trkpt lat="45.69004" lon="5.38335">
        <ele>238</ele>
        <time>2024-09-19T12:27:27Z</time>
      </trkpt>
      <trkpt lat="45.69003" lon="5.38327">
        <ele>238</ele>
        <time>2024-09-19T12:27:28Z</time>
      </trkpt>
      <trkpt lat="45.69001" lon="5.3832">
        <ele>238.4</ele>
        <time>2024-09-19T12:27:29Z</time>
      </trkpt>
      <trkpt lat="45.69" lon="5.38312">
        <ele>238</ele>
        <time>2024-09-19T12:27:30Z</time>
      </trkpt>
      <trkpt lat="45.68998" lon="5.38305">
        <ele>238</ele>
        <time>2024-09-19T12:27:31Z</time>
      </trkpt>
      <trkpt lat="45.68998" lon="5.38298">
        <ele>238</ele>
        <time>2024-09-19T12:27:32Z</time>
      </trkpt>
      <trkpt lat="45.69" lon="5.38291">
        <ele>238</ele>
        <time>2024-09-19T12:27:33Z</time>
      </trkpt>
      <trkpt lat="45.69" lon="5.38284">
        <ele>238</ele>
        <time>2024-09-19T12:27:34Z</time>
      </trkpt>
      <trkpt lat="45.69002" lon="5.38277">
        <ele>238</ele>
        <time>2024-09-19T12:27:35Z</time>
      </trkpt>
      <trkpt lat="45.69005" lon="5.38272">
        <ele>238.2</ele>
        <time>2024-09-19T12:27:36Z</time>
      </trkpt>
      <trkpt lat="45.69009" lon="5.38267">
        <ele>238.4</ele>
        <time>2024-09-19T12:27:37Z</time>
      </trkpt>
      <trkpt lat="45.69012" lon="5.38263">
        <ele>238.4</ele>
        <time>2024-09-19T12:27:38Z</time>
      </trkpt>
      <trkpt lat="45.69016" lon="5.38259">
        <ele>238.2</ele>
        <time>2024-09-19T12:27:39Z</time>
      </trkpt>
      <trkpt lat="45.6902" lon="5.38255">
        <ele>238.2</ele>
        <time>2024-09-19T12:27:40Z</time>
      </trkpt>
      <trkpt lat="45.69024" lon="5.38251">
        <ele>238.2</ele>
        <time>2024-09-19T12:27:41Z</time>
      </trkpt>
      <trkpt lat="45.69028" lon="5.38247">
        <ele>237.8</ele>
        <time>2024-09-19T12:27:42Z</time>
      </trkpt>
      <trkpt lat="45.69033" lon="5.38244">
        <ele>237.8</ele>
        <time>2024-09-19T12:27:43Z</time>
      </trkpt>
      <trkpt lat="45.69037" lon="5.38241">
        <ele>237.8</ele>
        <time>2024-09-19T12:27:44Z</time>
      </trkpt>
      <trkpt lat="45.6904" lon="5.38238">
        <ele>237.6</ele>
        <time>2024-09-19T12:27:45Z</time>
      </trkpt>
      <trkpt lat="45.69043" lon="5.38235">
        <ele>237.6</ele>
        <time>2024-09-19T12:27:46Z</time>
      </trkpt>
      <trkpt lat="45.69044" lon="5.3823">
        <ele>237.6</ele>
        <time>2024-09-19T12:27:47Z</time>
      </trkpt>
      <trkpt lat="45.69045" lon="5.38225">
        <ele>237.6</ele>
        <time>2024-09-19T12:27:48Z</time>
      </trkpt>
      <trkpt lat="45.69044" lon="5.38221">
        <ele>237.8</ele>
        <time>2024-09-19T12:27:49Z</time>
      </trkpt>
      <trkpt lat="45.69042" lon="5.38218">
        <ele>237.8</ele>
        <time>2024-09-19T12:27:50Z</time>
      </trkpt>
      <trkpt lat="45.69039" lon="5.38214">
        <ele>237.8</ele>
        <time>2024-09-19T12:27:51Z</time>
      </trkpt>
      <trkpt lat="45.69037" lon="5.3821">
        <ele>237.8</ele>
        <time>2024-09-19T12:27:52Z</time>
      </trkpt>
      <trkpt lat="45.69035" lon="5.38206">
        <ele>238.2</ele>
        <time>2024-09-19T12:27:53Z</time>
      </trkpt>
      <trkpt lat="45.69033" lon="5.38201">
        <ele>238.2</ele>
        <time>2024-09-19T12:27:54Z</time>
      </trkpt>
      <trkpt lat="45.69031" lon="5.38196">
        <ele>238.2</ele>
        <time>2024-09-19T12:27:55Z</time>
      </trkpt>
      <trkpt lat="45.69029" lon="5.3819">
        <ele>238</ele>
        <time>2024-09-19T12:27:56Z</time>
      </trkpt>
      <trkpt lat="45.69029" lon="5.38184">
        <ele>238</ele>
        <time>2024-09-19T12:27:57Z</time>
      </trkpt>
      <trkpt lat="45.69029" lon="5.38177">
        <ele>238</ele>
        <time>2024-09-19T12:27:58Z</time>
      </trkpt>
      <trkpt lat="45.69029" lon="5.38171">
        <ele>238</ele>
        <time>2024-09-19T12:27:59Z</time>
      </trkpt>
      <trkpt lat="45.69029" lon="5.38165">
        <ele>238</ele>
        <time>2024-09-19T12:28:00Z</time>
      </trkpt>
      <trkpt lat="45.69029" lon="5.38159">
        <ele>238</ele>
        <time>2024-09-19T12:28:01Z</time>
      </trkpt>
      <trkpt lat="45.69029" lon="5.38153">
        <ele>238</ele>
        <time>2024-09-19T12:28:02Z</time>
      </trkpt>
      <trkpt lat="45.69029" lon="5.38146">
        <ele>238.2</ele>
        <time>2024-09-19T12:28:03Z</time>
      </trkpt>
      <trkpt lat="45.69028" lon="5.3814">
        <ele>238.2</ele>
        <time>2024-09-19T12:28:04Z</time>
      </trkpt>
      <trkpt lat="45.69028" lon="5.38134">
        <ele>238.2</ele>
        <time>2024-09-19T12:28:05Z</time>
      </trkpt>
      <trkpt lat="45.69028" lon="5.38127">
        <ele>238.2</ele>
        <time>2024-09-19T12:28:06Z</time>
      </trkpt>
      <trkpt lat="45.69027" lon="5.3812">
        <ele>238.2</ele>
        <time>2024-09-19T12:28:07Z</time>
      </trkpt>
      <trkpt lat="45.69028" lon="5.38114">
        <ele>238.2</ele>
        <time>2024-09-19T12:28:08Z</time>
      </trkpt>
      <trkpt lat="45.69028" lon="5.38107">
        <ele>238.2</ele>
        <time>2024-09-19T12:28:09Z</time>
      </trkpt>
      <trkpt lat="45.69027" lon="5.38101">
        <ele>238.2</ele>
        <time>2024-09-19T12:28:10Z</time>
      </trkpt>
      <trkpt lat="45.69026" lon="5.38095">
        <ele>238.2</ele>
        <time>2024-09-19T12:28:11Z</time>
      </trkpt>
      <trkpt lat="45.69026" lon="5.38089">
        <ele>238.2</ele>
        <time>2024-09-19T12:28:12Z</time>
      </trkpt>
      <trkpt lat="45.69025" lon="5.38084">
        <ele>238.2</ele>
        <time>2024-09-19T12:28:13Z</time>
      </trkpt>
      <trkpt lat="45.69025" lon="5.38078">
        <ele>238.2</ele>
        <time>2024-09-19T12:28:14Z</time>
      </trkpt>
      <trkpt lat="45.69026" lon="5.38074">
        <ele>238.4</ele>
        <time>2024-09-19T12:28:15Z</time>
      </trkpt>
      <trkpt lat="45.69025" lon="5.38069">
        <ele>238.4</ele>
        <time>2024-09-19T12:28:16Z</time>
      </trkpt>
      <trkpt lat="45.69023" lon="5.38068">
        <ele>238.4</ele>
        <time>2024-09-19T12:28:17Z</time>
      </trkpt>
      <trkpt lat="45.69022" lon="5.38066">
        <ele>238.8</ele>
        <time>2024-09-19T12:28:18Z</time>
      </trkpt>
      <trkpt lat="45.6902" lon="5.38066">
        <ele>238.8</ele>
        <time>2024-09-19T12:28:19Z</time>
      </trkpt>
      <trkpt lat="45.69017" lon="5.38066">
        <ele>238.8</ele>
        <time>2024-09-19T12:28:20Z</time>
      </trkpt>
      <trkpt lat="45.69014" lon="5.38067">
        <ele>238.8</ele>
        <time>2024-09-19T12:28:21Z</time>
      </trkpt>
      <trkpt lat="45.69011" lon="5.38067">
        <ele>239</ele>
        <time>2024-09-19T12:28:22Z</time>
      </trkpt>
      <trkpt lat="45.69011" lon="5.38067">
        <ele>239</ele>
        <time>2024-09-19T12:28:23Z</time>
      </trkpt>
      <trkpt lat="45.69007" lon="5.38068">
        <ele>239</ele>
        <time>2024-09-19T12:28:24Z</time>
      </trkpt>
      <trkpt lat="45.69003" lon="5.38069">
        <ele>239</ele>
        <time>2024-09-19T12:28:25Z</time>
      </trkpt>
      <trkpt lat="45.69" lon="5.38068">
        <ele>239</ele>
        <time>2024-09-19T12:28:26Z</time>
      </trkpt>
      <trkpt lat="45.68997" lon="5.38066">
        <ele>239</ele>
        <time>2024-09-19T12:28:27Z</time>
      </trkpt>
      <trkpt lat="45.68995" lon="5.38062">
        <ele>239.2</ele>
        <time>2024-09-19T12:28:28Z</time>
      </trkpt>
      <trkpt lat="45.68995" lon="5.38056">
        <ele>239.2</ele>
        <time>2024-09-19T12:28:29Z</time>
      </trkpt>
      <trkpt lat="45.68996" lon="5.3805">
        <ele>239.2</ele>
        <time>2024-09-19T12:28:30Z</time>
      </trkpt>
      <trkpt lat="45.68996" lon="5.38044">
        <ele>239.2</ele>
        <time>2024-09-19T12:28:31Z</time>
      </trkpt>
      <trkpt lat="45.68997" lon="5.38037">
        <ele>239.2</ele>
        <time>2024-09-19T12:28:32Z</time>
      </trkpt>
      <trkpt lat="45.68998" lon="5.38029">
        <ele>239.2</ele>
        <time>2024-09-19T12:28:33Z</time>
      </trkpt>
      <trkpt lat="45.68998" lon="5.38016">
        <ele>239</ele>
        <time>2024-09-19T12:28:34Z</time>
      </trkpt>
      <trkpt lat="45.68997" lon="5.38009">
        <ele>239</ele>
        <time>2024-09-19T12:28:35Z</time>
      </trkpt>
      <trkpt lat="45.68997" lon="5.38002">
        <ele>239</ele>
        <time>2024-09-19T12:28:36Z</time>
      </trkpt>
      <trkpt lat="45.68997" lon="5.37995">
        <ele>239</ele>
        <time>2024-09-19T12:28:37Z</time>
      </trkpt>
      <trkpt lat="45.68997" lon="5.37987">
        <ele>238.8</ele>
        <time>2024-09-19T12:28:38Z</time>
      </trkpt>
      <trkpt lat="45.68997" lon="5.3798">
        <ele>238.8</ele>
        <time>2024-09-19T12:28:39Z</time>
      </trkpt>
      <trkpt lat="45.68997" lon="5.37973">
        <ele>238.8</ele>
        <time>2024-09-19T12:28:40Z</time>
      </trkpt>
      <trkpt lat="45.68997" lon="5.37966">
        <ele>238.8</ele>
        <time>2024-09-19T12:28:41Z</time>
      </trkpt>
      <trkpt lat="45.68997" lon="5.37959">
        <ele>238.8</ele>
        <time>2024-09-19T12:28:42Z</time>
      </trkpt>
      <trkpt lat="45.68997" lon="5.37951">
        <ele>238.8</ele>
        <time>2024-09-19T12:28:43Z</time>
      </trkpt>
      <trkpt lat="45.68996" lon="5.37944">
        <ele>238.8</ele>
        <time>2024-09-19T12:28:44Z</time>
      </trkpt>
      <trkpt lat="45.68996" lon="5.37936">
        <ele>238.8</ele>
        <time>2024-09-19T12:28:45Z</time>
      </trkpt>
      <trkpt lat="45.68996" lon="5.37929">
        <ele>239</ele>
        <time>2024-09-19T12:28:46Z</time>
      </trkpt>
      <trkpt lat="45.68995" lon="5.37922">
        <ele>239</ele>
        <time>2024-09-19T12:28:47Z</time>
      </trkpt>
      <trkpt lat="45.68995" lon="5.37914">
        <ele>239.2</ele>
        <time>2024-09-19T12:28:48Z</time>
      </trkpt>
      <trkpt lat="45.68995" lon="5.37907">
        <ele>239.4</ele>
        <time>2024-09-19T12:28:49Z</time>
      </trkpt>
      <trkpt lat="45.68994" lon="5.379">
        <ele>239.4</ele>
        <time>2024-09-19T12:28:50Z</time>
      </trkpt>
      <trkpt lat="45.68994" lon="5.37892">
        <ele>239.2</ele>
        <time>2024-09-19T12:28:51Z</time>
      </trkpt>
      <trkpt lat="45.68994" lon="5.37884">
        <ele>239.2</ele>
        <time>2024-09-19T12:28:52Z</time>
      </trkpt>
      <trkpt lat="45.68993" lon="5.37877">
        <ele>239.2</ele>
        <time>2024-09-19T12:28:53Z</time>
      </trkpt>
      <trkpt lat="45.68993" lon="5.3787">
        <ele>239</ele>
        <time>2024-09-19T12:28:54Z</time>
      </trkpt>
      <trkpt lat="45.68993" lon="5.37862">
        <ele>239</ele>
        <time>2024-09-19T12:28:55Z</time>
      </trkpt>
      <trkpt lat="45.68993" lon="5.37855">
        <ele>238.8</ele>
        <time>2024-09-19T12:28:56Z</time>
      </trkpt>
      <trkpt lat="45.68992" lon="5.37847">
        <ele>238.8</ele>
        <time>2024-09-19T12:28:57Z</time>
      </trkpt>
      <trkpt lat="45.68992" lon="5.37839">
        <ele>238.8</ele>
        <time>2024-09-19T12:28:58Z</time>
      </trkpt>
      <trkpt lat="45.68992" lon="5.37832">
        <ele>238.8</ele>
        <time>2024-09-19T12:28:59Z</time>
      </trkpt>
      <trkpt lat="45.68992" lon="5.37824">
        <ele>239</ele>
        <time>2024-09-19T12:29:00Z</time>
      </trkpt>
      <trkpt lat="45.68991" lon="5.37816">
        <ele>238.8</ele>
        <time>2024-09-19T12:29:01Z</time>
      </trkpt>
      <trkpt lat="45.68991" lon="5.37808">
        <ele>238.8</ele>
        <time>2024-09-19T12:29:02Z</time>
      </trkpt>
      <trkpt lat="45.68991" lon="5.378">
        <ele>238.8</ele>
        <time>2024-09-19T12:29:03Z</time>
      </trkpt>
      <trkpt lat="45.68991" lon="5.37792">
        <ele>239</ele>
        <time>2024-09-19T12:29:04Z</time>
      </trkpt>
      <trkpt lat="45.6899" lon="5.37785">
        <ele>239</ele>
        <time>2024-09-19T12:29:05Z</time>
      </trkpt>
      <trkpt lat="45.6899" lon="5.37778">
        <ele>239.4</ele>
        <time>2024-09-19T12:29:06Z</time>
      </trkpt>
      <trkpt lat="45.6899" lon="5.37771">
        <ele>238.8</ele>
        <time>2024-09-19T12:29:07Z</time>
      </trkpt>
      <trkpt lat="45.6899" lon="5.37764">
        <ele>239.2</ele>
        <time>2024-09-19T12:29:08Z</time>
      </trkpt>
      <trkpt lat="45.6899" lon="5.37757">
        <ele>239.2</ele>
        <time>2024-09-19T12:29:09Z</time>
      </trkpt>
      <trkpt lat="45.6899" lon="5.3775">
        <ele>239.4</ele>
        <time>2024-09-19T12:29:10Z</time>
      </trkpt>
      <trkpt lat="45.6899" lon="5.37745">
        <ele>239.4</ele>
        <time>2024-09-19T12:29:11Z</time>
      </trkpt>
      <trkpt lat="45.68986" lon="5.37739">
        <ele>239.4</ele>
        <time>2024-09-19T12:29:12Z</time>
      </trkpt>
      <trkpt lat="45.68984" lon="5.37735">
        <ele>239.4</ele>
        <time>2024-09-19T12:29:13Z</time>
      </trkpt>
      <trkpt lat="45.68979" lon="5.37737">
        <ele>239.4</ele>
        <time>2024-09-19T12:29:14Z</time>
      </trkpt>
      <trkpt lat="45.68976" lon="5.37733">
        <ele>239.6</ele>
        <time>2024-09-19T12:29:15Z</time>
      </trkpt>
      <trkpt lat="45.68974" lon="5.37728">
        <ele>239.6</ele>
        <time>2024-09-19T12:29:16Z</time>
      </trkpt>
      <trkpt lat="45.68973" lon="5.37723">
        <ele>239.6</ele>
        <time>2024-09-19T12:29:17Z</time>
      </trkpt>
      <trkpt lat="45.68974" lon="5.37717">
        <ele>239.6</ele>
        <time>2024-09-19T12:29:18Z</time>
      </trkpt>
      <trkpt lat="45.68974" lon="5.37711">
        <ele>239.6</ele>
        <time>2024-09-19T12:29:19Z</time>
      </trkpt>
      <trkpt lat="45.68974" lon="5.37703">
        <ele>239.6</ele>
        <time>2024-09-19T12:29:20Z</time>
      </trkpt>
      <trkpt lat="45.68973" lon="5.37697">
        <ele>239.4</ele>
        <time>2024-09-19T12:29:21Z</time>
      </trkpt>
      <trkpt lat="45.68975" lon="5.37692">
        <ele>239.4</ele>
        <time>2024-09-19T12:29:22Z</time>
      </trkpt>
      <trkpt lat="45.68971" lon="5.37684">
        <ele>239.2</ele>
        <time>2024-09-19T12:29:23Z</time>
      </trkpt>
      <trkpt lat="45.68971" lon="5.37678">
        <ele>239.2</ele>
        <time>2024-09-19T12:29:24Z</time>
      </trkpt>
      <trkpt lat="45.68971" lon="5.3767">
        <ele>239.2</ele>
        <time>2024-09-19T12:29:25Z</time>
      </trkpt>
      <trkpt lat="45.68969" lon="5.37663">
        <ele>239.2</ele>
        <time>2024-09-19T12:29:26Z</time>
      </trkpt>
      <trkpt lat="45.68969" lon="5.37659">
        <ele>239.2</ele>
        <time>2024-09-19T12:29:27Z</time>
      </trkpt>
      <trkpt lat="45.68971" lon="5.37651">
        <ele>239.2</ele>
        <time>2024-09-19T12:29:28Z</time>
      </trkpt>
      <trkpt lat="45.68972" lon="5.37645">
        <ele>239.2</ele>
        <time>2024-09-19T12:29:29Z</time>
      </trkpt>
      <trkpt lat="45.68974" lon="5.37638">
        <ele>239.2</ele>
        <time>2024-09-19T12:29:30Z</time>
      </trkpt>
      <trkpt lat="45.68974" lon="5.3763">
        <ele>239.2</ele>
        <time>2024-09-19T12:29:31Z</time>
      </trkpt>
      <trkpt lat="45.68973" lon="5.37623">
        <ele>239.2</ele>
        <time>2024-09-19T12:29:32Z</time>
      </trkpt>
      <trkpt lat="45.68972" lon="5.37616">
        <ele>239.2</ele>
        <time>2024-09-19T12:29:33Z</time>
      </trkpt>
      <trkpt lat="45.68972" lon="5.3761">
        <ele>239.2</ele>
        <time>2024-09-19T12:29:34Z</time>
      </trkpt>
      <trkpt lat="45.68971" lon="5.37604">
        <ele>239.4</ele>
        <time>2024-09-19T12:29:35Z</time>
      </trkpt>
      <trkpt lat="45.6897" lon="5.37597">
        <ele>239.4</ele>
        <time>2024-09-19T12:29:36Z</time>
      </trkpt>
      <trkpt lat="45.68968" lon="5.37592">
        <ele>239.4</ele>
        <time>2024-09-19T12:29:37Z</time>
      </trkpt>
      <trkpt lat="45.68966" lon="5.37588">
        <ele>239.4</ele>
        <time>2024-09-19T12:29:38Z</time>
      </trkpt>
      <trkpt lat="45.68963" lon="5.37583">
        <ele>239.4</ele>
        <time>2024-09-19T12:29:39Z</time>
      </trkpt>
      <trkpt lat="45.6896" lon="5.37578">
        <ele>239.4</ele>
        <time>2024-09-19T12:29:40Z</time>
      </trkpt>
      <trkpt lat="45.68957" lon="5.37572">
        <ele>239</ele>
        <time>2024-09-19T12:29:41Z</time>
      </trkpt>
      <trkpt lat="45.68955" lon="5.37566">
        <ele>238.8</ele>
        <time>2024-09-19T12:29:42Z</time>
      </trkpt>
      <trkpt lat="45.68954" lon="5.37559">
        <ele>238.6</ele>
        <time>2024-09-19T12:29:43Z</time>
      </trkpt>
      <trkpt lat="45.68953" lon="5.37552">
        <ele>238.6</ele>
        <time>2024-09-19T12:29:44Z</time>
      </trkpt>
      <trkpt lat="45.68954" lon="5.37545">
        <ele>238.6</ele>
        <time>2024-09-19T12:29:45Z</time>
      </trkpt>
      <trkpt lat="45.68954" lon="5.37537">
        <ele>238.2</ele>
        <time>2024-09-19T12:29:46Z</time>
      </trkpt>
      <trkpt lat="45.68954" lon="5.3753">
        <ele>238.2</ele>
        <time>2024-09-19T12:29:47Z</time>
      </trkpt>
      <trkpt lat="45.68954" lon="5.3753">
        <ele>238.2</ele>
        <time>2024-09-19T12:29:48Z</time>
      </trkpt>
      <trkpt lat="45.68954" lon="5.3753">
        <ele>238.6</ele>
        <time>2024-09-19T12:29:49Z</time>
      </trkpt>
      <trkpt lat="45.68954" lon="5.37502">
        <ele>238.8</ele>
        <time>2024-09-19T12:29:51Z</time>
      </trkpt>
      <trkpt lat="45.68954" lon="5.37495">
        <ele>238.8</ele>
        <time>2024-09-19T12:29:52Z</time>
      </trkpt>
      <trkpt lat="45.68954" lon="5.37487">
        <ele>238.8</ele>
        <time>2024-09-19T12:29:53Z</time>
      </trkpt>
      <trkpt lat="45.68954" lon="5.3748">
        <ele>238.8</ele>
        <time>2024-09-19T12:29:54Z</time>
      </trkpt>
      <trkpt lat="45.68954" lon="5.37472">
        <ele>239</ele>
        <time>2024-09-19T12:29:55Z</time>
      </trkpt>
      <trkpt lat="45.68954" lon="5.37465">
        <ele>239</ele>
        <time>2024-09-19T12:29:56Z</time>
      </trkpt>
      <trkpt lat="45.68953" lon="5.37457">
        <ele>239</ele>
        <time>2024-09-19T12:29:57Z</time>
      </trkpt>
      <trkpt lat="45.68952" lon="5.37449">
        <ele>239</ele>
        <time>2024-09-19T12:29:58Z</time>
      </trkpt>
      <trkpt lat="45.68952" lon="5.37442">
        <ele>239</ele>
        <time>2024-09-19T12:29:59Z</time>
      </trkpt>
      <trkpt lat="45.68952" lon="5.37434">
        <ele>239</ele>
        <time>2024-09-19T12:30:00Z</time>
      </trkpt>
      <trkpt lat="45.68952" lon="5.37427">
        <ele>239.2</ele>
        <time>2024-09-19T12:30:01Z</time>
      </trkpt>
      <trkpt lat="45.68953" lon="5.37421">
        <ele>239.2</ele>
        <time>2024-09-19T12:30:02Z</time>
      </trkpt>
      <trkpt lat="45.68954" lon="5.37413">
        <ele>239.2</ele>
        <time>2024-09-19T12:30:03Z</time>
      </trkpt>
      <trkpt lat="45.68954" lon="5.37406">
        <ele>239.2</ele>
        <time>2024-09-19T12:30:04Z</time>
      </trkpt>
      <trkpt lat="45.68954" lon="5.374">
        <ele>239.2</ele>
        <time>2024-09-19T12:30:05Z</time>
      </trkpt>
      <trkpt lat="45.68953" lon="5.37393">
        <ele>239.2</ele>
        <time>2024-09-19T12:30:06Z</time>
      </trkpt>
      <trkpt lat="45.68953" lon="5.37386">
        <ele>239</ele>
        <time>2024-09-19T12:30:07Z</time>
      </trkpt>
      <trkpt lat="45.68953" lon="5.3738">
        <ele>238.4</ele>
        <time>2024-09-19T12:30:08Z</time>
      </trkpt>
      <trkpt lat="45.68953" lon="5.3738">
        <ele>239.2</ele>
        <time>2024-09-19T12:30:09Z</time>
      </trkpt>
      <trkpt lat="45.68951" lon="5.37373">
        <ele>239.2</ele>
        <time>2024-09-19T12:30:10Z</time>
      </trkpt>
      <trkpt lat="45.68951" lon="5.3736">
        <ele>239.2</ele>
        <time>2024-09-19T12:30:11Z</time>
      </trkpt>
      <trkpt lat="45.68951" lon="5.37355">
        <ele>239.2</ele>
        <time>2024-09-19T12:30:12Z</time>
      </trkpt>
      <trkpt lat="45.68951" lon="5.37351">
        <ele>239.6</ele>
        <time>2024-09-19T12:30:13Z</time>
      </trkpt>
      <trkpt lat="45.68951" lon="5.37348">
        <ele>239.8</ele>
        <time>2024-09-19T12:30:14Z</time>
      </trkpt>
      <trkpt lat="45.68952" lon="5.37346">
        <ele>239.8</ele>
        <time>2024-09-19T12:30:15Z</time>
      </trkpt>
      <trkpt lat="45.68953" lon="5.37343">
        <ele>240</ele>
        <time>2024-09-19T12:30:16Z</time>
      </trkpt>
      <trkpt lat="45.68953" lon="5.37342">
        <ele>240</ele>
        <time>2024-09-19T12:30:17Z</time>
      </trkpt>
      <trkpt lat="45.68953" lon="5.3734">
        <ele>240.4</ele>
        <time>2024-09-19T12:30:18Z</time>
      </trkpt>
      <trkpt lat="45.68954" lon="5.37337">
        <ele>240.4</ele>
        <time>2024-09-19T12:30:19Z</time>
      </trkpt>
      <trkpt lat="45.68955" lon="5.37333">
        <ele>240.4</ele>
        <time>2024-09-19T12:30:20Z</time>
      </trkpt>
      <trkpt lat="45.68957" lon="5.37329">
        <ele>240.4</ele>
        <time>2024-09-19T12:30:21Z</time>
      </trkpt>
      <trkpt lat="45.68958" lon="5.37323">
        <ele>240</ele>
        <time>2024-09-19T12:30:22Z</time>
      </trkpt>
      <trkpt lat="45.68959" lon="5.37316">
        <ele>239.8</ele>
        <time>2024-09-19T12:30:23Z</time>
      </trkpt>
      <trkpt lat="45.68958" lon="5.37308">
        <ele>239.8</ele>
        <time>2024-09-19T12:30:24Z</time>
      </trkpt>
      <trkpt lat="45.68959" lon="5.37301">
        <ele>239.8</ele>
        <time>2024-09-19T12:30:25Z</time>
      </trkpt>
      <trkpt lat="45.6896" lon="5.37294">
        <ele>239.4</ele>
        <time>2024-09-19T12:30:26Z</time>
      </trkpt>
      <trkpt lat="45.6896" lon="5.37286">
        <ele>239.4</ele>
        <time>2024-09-19T12:30:27Z</time>
      </trkpt>
      <trkpt lat="45.68962" lon="5.37278">
        <ele>239.4</ele>
        <time>2024-09-19T12:30:28Z</time>
      </trkpt>
      <trkpt lat="45.68963" lon="5.3727">
        <ele>239</ele>
        <time>2024-09-19T12:30:29Z</time>
      </trkpt>
      <trkpt lat="45.68964" lon="5.37262">
        <ele>239</ele>
        <time>2024-09-19T12:30:30Z</time>
      </trkpt>
      <trkpt lat="45.68965" lon="5.37254">
        <ele>239</ele>
        <time>2024-09-19T12:30:31Z</time>
      </trkpt>
      <trkpt lat="45.68965" lon="5.37247">
        <ele>239.4</ele>
        <time>2024-09-19T12:30:32Z</time>
      </trkpt>
      <trkpt lat="45.68966" lon="5.37239">
        <ele>239.4</ele>
        <time>2024-09-19T12:30:33Z</time>
      </trkpt>
      <trkpt lat="45.68966" lon="5.37231">
        <ele>239.4</ele>
        <time>2024-09-19T12:30:34Z</time>
      </trkpt>
      <trkpt lat="45.68965" lon="5.37223">
        <ele>239.2</ele>
        <time>2024-09-19T12:30:35Z</time>
      </trkpt>
      <trkpt lat="45.68965" lon="5.37215">
        <ele>239.2</ele>
        <time>2024-09-19T12:30:36Z</time>
      </trkpt>
      <trkpt lat="45.68965" lon="5.37206">
        <ele>239.6</ele>
        <time>2024-09-19T12:30:37Z</time>
      </trkpt>
      <trkpt lat="45.68965" lon="5.37198">
        <ele>239.6</ele>
        <time>2024-09-19T12:30:38Z</time>
      </trkpt>
      <trkpt lat="45.68965" lon="5.3719">
        <ele>239.4</ele>
        <time>2024-09-19T12:30:39Z</time>
      </trkpt>
      <trkpt lat="45.68965" lon="5.37183">
        <ele>239.2</ele>
        <time>2024-09-19T12:30:40Z</time>
      </trkpt>
      <trkpt lat="45.68964" lon="5.37175">
        <ele>239.8</ele>
        <time>2024-09-19T12:30:41Z</time>
      </trkpt>
      <trkpt lat="45.68964" lon="5.37167">
        <ele>240.2</ele>
        <time>2024-09-19T12:30:42Z</time>
      </trkpt>
      <trkpt lat="45.68964" lon="5.37159">
        <ele>240</ele>
        <time>2024-09-19T12:30:43Z</time>
      </trkpt>
      <trkpt lat="45.68963" lon="5.37151">
        <ele>239.6</ele>
        <time>2024-09-19T12:30:44Z</time>
      </trkpt>
      <trkpt lat="45.68963" lon="5.37143">
        <ele>239.8</ele>
        <time>2024-09-19T12:30:45Z</time>
      </trkpt>
      <trkpt lat="45.68963" lon="5.37135">
        <ele>239.8</ele>
        <time>2024-09-19T12:30:46Z</time>
      </trkpt>
      <trkpt lat="45.68963" lon="5.37128">
        <ele>239.8</ele>
        <time>2024-09-19T12:30:47Z</time>
      </trkpt>
      <trkpt lat="45.68963" lon="5.3712">
        <ele>240</ele>
        <time>2024-09-19T12:30:48Z</time>
      </trkpt>
      <trkpt lat="45.68962" lon="5.37113">
        <ele>239.4</ele>
        <time>2024-09-19T12:30:49Z</time>
      </trkpt>
      <trkpt lat="45.68962" lon="5.37105">
        <ele>239.4</ele>
        <time>2024-09-19T12:30:50Z</time>
      </trkpt>
      <trkpt lat="45.68961" lon="5.37098">
        <ele>239.4</ele>
        <time>2024-09-19T12:30:51Z</time>
      </trkpt>
      <trkpt lat="45.6896" lon="5.37091">
        <ele>239.6</ele>
        <time>2024-09-19T12:30:52Z</time>
      </trkpt>
      <trkpt lat="45.6896" lon="5.37083">
        <ele>239.6</ele>
        <time>2024-09-19T12:30:53Z</time>
      </trkpt>
      <trkpt lat="45.6896" lon="5.37075">
        <ele>239.2</ele>
        <time>2024-09-19T12:30:54Z</time>
      </trkpt>
      <trkpt lat="45.6896" lon="5.37068">
        <ele>239.6</ele>
        <time>2024-09-19T12:30:55Z</time>
      </trkpt>
      <trkpt lat="45.6896" lon="5.3706">
        <ele>239.6</ele>
        <time>2024-09-19T12:30:56Z</time>
      </trkpt>
      <trkpt lat="45.68959" lon="5.37053">
        <ele>239.6</ele>
        <time>2024-09-19T12:30:57Z</time>
      </trkpt>
      <trkpt lat="45.68959" lon="5.37046">
        <ele>239.6</ele>
        <time>2024-09-19T12:30:58Z</time>
      </trkpt>
      <trkpt lat="45.68959" lon="5.37039">
        <ele>239.6</ele>
        <time>2024-09-19T12:30:59Z</time>
      </trkpt>
      <trkpt lat="45.68959" lon="5.37032">
        <ele>239</ele>
        <time>2024-09-19T12:31:00Z</time>
      </trkpt>
      <trkpt lat="45.68958" lon="5.37025">
        <ele>239</ele>
        <time>2024-09-19T12:31:01Z</time>
      </trkpt>
      <trkpt lat="45.68958" lon="5.37018">
        <ele>239.6</ele>
        <time>2024-09-19T12:31:02Z</time>
      </trkpt>
      <trkpt lat="45.68959" lon="5.3701">
        <ele>239.6</ele>
        <time>2024-09-19T12:31:03Z</time>
      </trkpt>
      <trkpt lat="45.68959" lon="5.37003">
        <ele>239.6</ele>
        <time>2024-09-19T12:31:04Z</time>
      </trkpt>
      <trkpt lat="45.68958" lon="5.36996">
        <ele>239.6</ele>
        <time>2024-09-19T12:31:05Z</time>
      </trkpt>
      <trkpt lat="45.68958" lon="5.36989">
        <ele>240</ele>
        <time>2024-09-19T12:31:06Z</time>
      </trkpt>
      <trkpt lat="45.68958" lon="5.36982">
        <ele>240</ele>
        <time>2024-09-19T12:31:07Z</time>
      </trkpt>
      <trkpt lat="45.68958" lon="5.36976">
        <ele>240.4</ele>
        <time>2024-09-19T12:31:08Z</time>
      </trkpt>
      <trkpt lat="45.68958" lon="5.36969">
        <ele>240.4</ele>
        <time>2024-09-19T12:31:09Z</time>
      </trkpt>
      <trkpt lat="45.68957" lon="5.36962">
        <ele>240.6</ele>
        <time>2024-09-19T12:31:10Z</time>
      </trkpt>
      <trkpt lat="45.68957" lon="5.36956">
        <ele>240.4</ele>
        <time>2024-09-19T12:31:11Z</time>
      </trkpt>
      <trkpt lat="45.68957" lon="5.3695">
        <ele>240.6</ele>
        <time>2024-09-19T12:31:12Z</time>
      </trkpt>
      <trkpt lat="45.68956" lon="5.36943">
        <ele>240.2</ele>
        <time>2024-09-19T12:31:13Z</time>
      </trkpt>
      <trkpt lat="45.68956" lon="5.36937">
        <ele>240.2</ele>
        <time>2024-09-19T12:31:14Z</time>
      </trkpt>
      <trkpt lat="45.68956" lon="5.36931">
        <ele>240</ele>
        <time>2024-09-19T12:31:15Z</time>
      </trkpt>
      <trkpt lat="45.68956" lon="5.36924">
        <ele>240</ele>
        <time>2024-09-19T12:31:16Z</time>
      </trkpt>
      <trkpt lat="45.68956" lon="5.36919">
        <ele>240.4</ele>
        <time>2024-09-19T12:31:17Z</time>
      </trkpt>
      <trkpt lat="45.68956" lon="5.36914">
        <ele>240.6</ele>
        <time>2024-09-19T12:31:18Z</time>
      </trkpt>
      <trkpt lat="45.68955" lon="5.36908">
        <ele>240.4</ele>
        <time>2024-09-19T12:31:19Z</time>
      </trkpt>
      <trkpt lat="45.68954" lon="5.36901">
        <ele>240.4</ele>
        <time>2024-09-19T12:31:20Z</time>
      </trkpt>
      <trkpt lat="45.68954" lon="5.36895">
        <ele>240.4</ele>
        <time>2024-09-19T12:31:21Z</time>
      </trkpt>
      <trkpt lat="45.68953" lon="5.36888">
        <ele>240.6</ele>
        <time>2024-09-19T12:31:22Z</time>
      </trkpt>
      <trkpt lat="45.68952" lon="5.36882">
        <ele>240.6</ele>
        <time>2024-09-19T12:31:23Z</time>
      </trkpt>
      <trkpt lat="45.68951" lon="5.36875">
        <ele>240.2</ele>
        <time>2024-09-19T12:31:24Z</time>
      </trkpt>
      <trkpt lat="45.68951" lon="5.36868">
        <ele>240.2</ele>
        <time>2024-09-19T12:31:25Z</time>
      </trkpt>
      <trkpt lat="45.6895" lon="5.36861">
        <ele>240.4</ele>
        <time>2024-09-19T12:31:26Z</time>
      </trkpt>
      <trkpt lat="45.68949" lon="5.36854">
        <ele>240</ele>
        <time>2024-09-19T12:31:27Z</time>
      </trkpt>
      <trkpt lat="45.68947" lon="5.36847">
        <ele>240</ele>
        <time>2024-09-19T12:31:28Z</time>
      </trkpt>
      <trkpt lat="45.68947" lon="5.3684">
        <ele>240.2</ele>
        <time>2024-09-19T12:31:29Z</time>
      </trkpt>
      <trkpt lat="45.68947" lon="5.36836">
        <ele>240.2</ele>
        <time>2024-09-19T12:31:30Z</time>
      </trkpt>
      <trkpt lat="45.68947" lon="5.36832">
        <ele>240.6</ele>
        <time>2024-09-19T12:31:31Z</time>
      </trkpt>
      <trkpt lat="45.68947" lon="5.36829">
        <ele>241</ele>
        <time>2024-09-19T12:31:32Z</time>
      </trkpt>
      <trkpt lat="45.68946" lon="5.36827">
        <ele>241</ele>
        <time>2024-09-19T12:31:33Z</time>
      </trkpt>
      <trkpt lat="45.68944" lon="5.36824">
        <ele>241.2</ele>
        <time>2024-09-19T12:31:34Z</time>
      </trkpt>
      <trkpt lat="45.68944" lon="5.36822">
        <ele>241.2</ele>
        <time>2024-09-19T12:31:35Z</time>
      </trkpt>
      <trkpt lat="45.68945" lon="5.3682">
        <ele>241.2</ele>
        <time>2024-09-19T12:31:36Z</time>
      </trkpt>
      <trkpt lat="45.68945" lon="5.36816">
        <ele>240.8</ele>
        <time>2024-09-19T12:31:37Z</time>
      </trkpt>
      <trkpt lat="45.68945" lon="5.36812">
        <ele>240.8</ele>
        <time>2024-09-19T12:31:38Z</time>
      </trkpt>
      <trkpt lat="45.68944" lon="5.36808">
        <ele>240.8</ele>
        <time>2024-09-19T12:31:39Z</time>
      </trkpt>
      <trkpt lat="45.68943" lon="5.36803">
        <ele>240.8</ele>
        <time>2024-09-19T12:31:40Z</time>
      </trkpt>
      <trkpt lat="45.68943" lon="5.36799">
        <ele>240.4</ele>
        <time>2024-09-19T12:31:41Z</time>
      </trkpt>
      <trkpt lat="45.68942" lon="5.36793">
        <ele>240.4</ele>
        <time>2024-09-19T12:31:42Z</time>
      </trkpt>
      <trkpt lat="45.68941" lon="5.36788">
        <ele>240.4</ele>
        <time>2024-09-19T12:31:43Z</time>
      </trkpt>
      <trkpt lat="45.6894" lon="5.36782">
        <ele>240</ele>
        <time>2024-09-19T12:31:44Z</time>
      </trkpt>
      <trkpt lat="45.68939" lon="5.36776">
        <ele>240</ele>
        <time>2024-09-19T12:31:45Z</time>
      </trkpt>
      <trkpt lat="45.68938" lon="5.3677">
        <ele>239.8</ele>
        <time>2024-09-19T12:31:46Z</time>
      </trkpt>
      <trkpt lat="45.68937" lon="5.36764">
        <ele>240</ele>
        <time>2024-09-19T12:31:47Z</time>
      </trkpt>
      <trkpt lat="45.68936" lon="5.36758">
        <ele>240</ele>
        <time>2024-09-19T12:31:48Z</time>
      </trkpt>
      <trkpt lat="45.68935" lon="5.36752">
        <ele>240</ele>
        <time>2024-09-19T12:31:49Z</time>
      </trkpt>
      <trkpt lat="45.68934" lon="5.36745">
        <ele>240</ele>
        <time>2024-09-19T12:31:50Z</time>
      </trkpt>
      <trkpt lat="45.68933" lon="5.36739">
        <ele>239.6</ele>
        <time>2024-09-19T12:31:51Z</time>
      </trkpt>
      <trkpt lat="45.68931" lon="5.36733">
        <ele>240.2</ele>
        <time>2024-09-19T12:31:52Z</time>
      </trkpt>
      <trkpt lat="45.68931" lon="5.36726">
        <ele>240.2</ele>
        <time>2024-09-19T12:31:53Z</time>
      </trkpt>
      <trkpt lat="45.6893" lon="5.36719">
        <ele>240.2</ele>
        <time>2024-09-19T12:31:54Z</time>
      </trkpt>
      <trkpt lat="45.68929" lon="5.36712">
        <ele>240.2</ele>
        <time>2024-09-19T12:31:55Z</time>
      </trkpt>
      <trkpt lat="45.68929" lon="5.36706">
        <ele>240.2</ele>
        <time>2024-09-19T12:31:56Z</time>
      </trkpt>
      <trkpt lat="45.68927" lon="5.36698">
        <ele>240.6</ele>
        <time>2024-09-19T12:31:57Z</time>
      </trkpt>
      <trkpt lat="45.68926" lon="5.36691">
        <ele>240.6</ele>
        <time>2024-09-19T12:31:58Z</time>
      </trkpt>
      <trkpt lat="45.68924" lon="5.36684">
        <ele>240.6</ele>
        <time>2024-09-19T12:31:59Z</time>
      </trkpt>
      <trkpt lat="45.68923" lon="5.36677">
        <ele>240.2</ele>
        <time>2024-09-19T12:32:00Z</time>
      </trkpt>
      <trkpt lat="45.68921" lon="5.36671">
        <ele>240.2</ele>
        <time>2024-09-19T12:32:01Z</time>
      </trkpt>
      <trkpt lat="45.6892" lon="5.36664">
        <ele>240.2</ele>
        <time>2024-09-19T12:32:02Z</time>
      </trkpt>
      <trkpt lat="45.68918" lon="5.36656">
        <ele>240.6</ele>
        <time>2024-09-19T12:32:03Z</time>
      </trkpt>
      <trkpt lat="45.68916" lon="5.3665">
        <ele>241</ele>
        <time>2024-09-19T12:32:04Z</time>
      </trkpt>
      <trkpt lat="45.68914" lon="5.36642">
        <ele>241</ele>
        <time>2024-09-19T12:32:05Z</time>
      </trkpt>
      <trkpt lat="45.68914" lon="5.36635">
        <ele>240.6</ele>
        <time>2024-09-19T12:32:06Z</time>
      </trkpt>
      <trkpt lat="45.68912" lon="5.36629">
        <ele>240.6</ele>
        <time>2024-09-19T12:32:07Z</time>
      </trkpt>
      <trkpt lat="45.6891" lon="5.36621">
        <ele>240.4</ele>
        <time>2024-09-19T12:32:08Z</time>
      </trkpt>
      <trkpt lat="45.68908" lon="5.36615">
        <ele>240.4</ele>
        <time>2024-09-19T12:32:09Z</time>
      </trkpt>
      <trkpt lat="45.68906" lon="5.36608">
        <ele>240.4</ele>
        <time>2024-09-19T12:32:10Z</time>
      </trkpt>
      <trkpt lat="45.68904" lon="5.36602">
        <ele>240.8</ele>
        <time>2024-09-19T12:32:11Z</time>
      </trkpt>
      <trkpt lat="45.68902" lon="5.36596">
        <ele>240.4</ele>
        <time>2024-09-19T12:32:12Z</time>
      </trkpt>
      <trkpt lat="45.68901" lon="5.3659">
        <ele>240.4</ele>
        <time>2024-09-19T12:32:13Z</time>
      </trkpt>
      <trkpt lat="45.68899" lon="5.36584">
        <ele>240.4</ele>
        <time>2024-09-19T12:32:14Z</time>
      </trkpt>
      <trkpt lat="45.68898" lon="5.36578">
        <ele>241</ele>
        <time>2024-09-19T12:32:15Z</time>
      </trkpt>
      <trkpt lat="45.68896" lon="5.36573">
        <ele>240.2</ele>
        <time>2024-09-19T12:32:16Z</time>
      </trkpt>
      <trkpt lat="45.68895" lon="5.36567">
        <ele>240.2</ele>
        <time>2024-09-19T12:32:17Z</time>
      </trkpt>
      <trkpt lat="45.68893" lon="5.36563">
        <ele>240.2</ele>
        <time>2024-09-19T12:32:18Z</time>
      </trkpt>
      <trkpt lat="45.68891" lon="5.36558">
        <ele>240.2</ele>
        <time>2024-09-19T12:32:19Z</time>
      </trkpt>
      <trkpt lat="45.6889" lon="5.36553">
        <ele>240.2</ele>
        <time>2024-09-19T12:32:20Z</time>
      </trkpt>
      <trkpt lat="45.68888" lon="5.36548">
        <ele>240.2</ele>
        <time>2024-09-19T12:32:21Z</time>
      </trkpt>
      <trkpt lat="45.68887" lon="5.36543">
        <ele>240.4</ele>
        <time>2024-09-19T12:32:22Z</time>
      </trkpt>
      <trkpt lat="45.68886" lon="5.36539">
        <ele>240.6</ele>
        <time>2024-09-19T12:32:23Z</time>
      </trkpt>
      <trkpt lat="45.68884" lon="5.36535">
        <ele>240.6</ele>
        <time>2024-09-19T12:32:24Z</time>
      </trkpt>
      <trkpt lat="45.68883" lon="5.3653">
        <ele>240.6</ele>
        <time>2024-09-19T12:32:25Z</time>
      </trkpt>
      <trkpt lat="45.68882" lon="5.36526">
        <ele>240.4</ele>
        <time>2024-09-19T12:32:26Z</time>
      </trkpt>
      <trkpt lat="45.6888" lon="5.36522">
        <ele>240.4</ele>
        <time>2024-09-19T12:32:27Z</time>
      </trkpt>
      <trkpt lat="45.68879" lon="5.36519">
        <ele>240</ele>
        <time>2024-09-19T12:32:28Z</time>
      </trkpt>
      <trkpt lat="45.68879" lon="5.36514">
        <ele>240.2</ele>
        <time>2024-09-19T12:32:29Z</time>
      </trkpt>
      <trkpt lat="45.68878" lon="5.3651">
        <ele>240.2</ele>
        <time>2024-09-19T12:32:30Z</time>
      </trkpt>
      <trkpt lat="45.68878" lon="5.36505">
        <ele>240.6</ele>
        <time>2024-09-19T12:32:31Z</time>
      </trkpt>
      <trkpt lat="45.68876" lon="5.36501">
        <ele>240.8</ele>
        <time>2024-09-19T12:32:32Z</time>
      </trkpt>
      <trkpt lat="45.68875" lon="5.36497">
        <ele>240.8</ele>
        <time>2024-09-19T12:32:33Z</time>
      </trkpt>
      <trkpt lat="45.68874" lon="5.36494">
        <ele>240.4</ele>
        <time>2024-09-19T12:32:34Z</time>
      </trkpt>
      <trkpt lat="45.68873" lon="5.3649">
        <ele>240.4</ele>
        <time>2024-09-19T12:32:35Z</time>
      </trkpt>
      <trkpt lat="45.68872" lon="5.36486">
        <ele>240.4</ele>
        <time>2024-09-19T12:32:36Z</time>
      </trkpt>
      <trkpt lat="45.68871" lon="5.36482">
        <ele>240.8</ele>
        <time>2024-09-19T12:32:37Z</time>
      </trkpt>
      <trkpt lat="45.68869" lon="5.3648">
        <ele>240.8</ele>
        <time>2024-09-19T12:32:38Z</time>
      </trkpt>
      <trkpt lat="45.68868" lon="5.36476">
        <ele>240.8</ele>
        <time>2024-09-19T12:32:39Z</time>
      </trkpt>
      <trkpt lat="45.68867" lon="5.36471">
        <ele>241</ele>
        <time>2024-09-19T12:32:40Z</time>
      </trkpt>
      <trkpt lat="45.68866" lon="5.36467">
        <ele>241</ele>
        <time>2024-09-19T12:32:41Z</time>
      </trkpt>
      <trkpt lat="45.68865" lon="5.36462">
        <ele>240.8</ele>
        <time>2024-09-19T12:32:42Z</time>
      </trkpt>
      <trkpt lat="45.68864" lon="5.36457">
        <ele>240.8</ele>
        <time>2024-09-19T12:32:43Z</time>
      </trkpt>
      <trkpt lat="45.68863" lon="5.36453">
        <ele>240.2</ele>
        <time>2024-09-19T12:32:44Z</time>
      </trkpt>
      <trkpt lat="45.68862" lon="5.36448">
        <ele>240.2</ele>
        <time>2024-09-19T12:32:45Z</time>
      </trkpt>
      <trkpt lat="45.6886" lon="5.36443">
        <ele>240.2</ele>
        <time>2024-09-19T12:32:46Z</time>
      </trkpt>
      <trkpt lat="45.68859" lon="5.36438">
        <ele>240.2</ele>
        <time>2024-09-19T12:32:47Z</time>
      </trkpt>
      <trkpt lat="45.68857" lon="5.36433">
        <ele>240.2</ele>
        <time>2024-09-19T12:32:48Z</time>
      </trkpt>
      <trkpt lat="45.68856" lon="5.36427">
        <ele>240</ele>
        <time>2024-09-19T12:32:49Z</time>
      </trkpt>
      <trkpt lat="45.68855" lon="5.36421">
        <ele>240</ele>
        <time>2024-09-19T12:32:50Z</time>
      </trkpt>
      <trkpt lat="45.68854" lon="5.36415">
        <ele>240</ele>
        <time>2024-09-19T12:32:51Z</time>
      </trkpt>
      <trkpt lat="45.68852" lon="5.36408">
        <ele>239.8</ele>
        <time>2024-09-19T12:32:52Z</time>
      </trkpt>
      <trkpt lat="45.68851" lon="5.36402">
        <ele>240.2</ele>
        <time>2024-09-19T12:32:53Z</time>
      </trkpt>
      <trkpt lat="45.68849" lon="5.36397">
        <ele>239.8</ele>
        <time>2024-09-19T12:32:54Z</time>
      </trkpt>
      <trkpt lat="45.68847" lon="5.36391">
        <ele>239.8</ele>
        <time>2024-09-19T12:32:55Z</time>
      </trkpt>
      <trkpt lat="45.68846" lon="5.36385">
        <ele>239.8</ele>
        <time>2024-09-19T12:32:56Z</time>
      </trkpt>
      <trkpt lat="45.68844" lon="5.36378">
        <ele>239.6</ele>
        <time>2024-09-19T12:32:57Z</time>
      </trkpt>
      <trkpt lat="45.68842" lon="5.36373">
        <ele>240.2</ele>
        <time>2024-09-19T12:32:58Z</time>
      </trkpt>
      <trkpt lat="45.68841" lon="5.36366">
        <ele>240.2</ele>
        <time>2024-09-19T12:32:59Z</time>
      </trkpt>
      <trkpt lat="45.68839" lon="5.3636">
        <ele>240.2</ele>
        <time>2024-09-19T12:33:00Z</time>
      </trkpt>
      <trkpt lat="45.68837" lon="5.36353">
        <ele>240.4</ele>
        <time>2024-09-19T12:33:01Z</time>
      </trkpt>
      <trkpt lat="45.68835" lon="5.36346">
        <ele>240</ele>
        <time>2024-09-19T12:33:02Z</time>
      </trkpt>
      <trkpt lat="45.68833" lon="5.36339">
        <ele>240.8</ele>
        <time>2024-09-19T12:33:03Z</time>
      </trkpt>
      <trkpt lat="45.68831" lon="5.36332">
        <ele>241.4</ele>
        <time>2024-09-19T12:33:04Z</time>
      </trkpt>
      <trkpt lat="45.68828" lon="5.36326">
        <ele>241.4</ele>
        <time>2024-09-19T12:33:05Z</time>
      </trkpt>
      <trkpt lat="45.68826" lon="5.36319">
        <ele>241</ele>
        <time>2024-09-19T12:33:06Z</time>
      </trkpt>
      <trkpt lat="45.68824" lon="5.36312">
        <ele>240.6</ele>
        <time>2024-09-19T12:33:07Z</time>
      </trkpt>
      <trkpt lat="45.68822" lon="5.36306">
        <ele>240.6</ele>
        <time>2024-09-19T12:33:08Z</time>
      </trkpt>
      <trkpt lat="45.6882" lon="5.36299">
        <ele>239.8</ele>
        <time>2024-09-19T12:33:09Z</time>
      </trkpt>
      <trkpt lat="45.68819" lon="5.36291">
        <ele>240.2</ele>
        <time>2024-09-19T12:33:10Z</time>
      </trkpt>
      <trkpt lat="45.68817" lon="5.36285">
        <ele>240.2</ele>
        <time>2024-09-19T12:33:11Z</time>
      </trkpt>
      <trkpt lat="45.68815" lon="5.36278">
        <ele>240</ele>
        <time>2024-09-19T12:33:12Z</time>
      </trkpt>
      <trkpt lat="45.68813" lon="5.36273">
        <ele>240.4</ele>
        <time>2024-09-19T12:33:13Z</time>
      </trkpt>
      <trkpt lat="45.68811" lon="5.36266">
        <ele>240.4</ele>
        <time>2024-09-19T12:33:14Z</time>
      </trkpt>
      <trkpt lat="45.6881" lon="5.36259">
        <ele>239.4</ele>
        <time>2024-09-19T12:33:15Z</time>
      </trkpt>
      <trkpt lat="45.68808" lon="5.36251">
        <ele>240</ele>
        <time>2024-09-19T12:33:16Z</time>
      </trkpt>
      <trkpt lat="45.68807" lon="5.36245">
        <ele>240</ele>
        <time>2024-09-19T12:33:17Z</time>
      </trkpt>
      <trkpt lat="45.68805" lon="5.36238">
        <ele>240</ele>
        <time>2024-09-19T12:33:18Z</time>
      </trkpt>
      <trkpt lat="45.68803" lon="5.36232">
        <ele>240</ele>
        <time>2024-09-19T12:33:19Z</time>
      </trkpt>
      <trkpt lat="45.68801" lon="5.36225">
        <ele>239.6</ele>
        <time>2024-09-19T12:33:20Z</time>
      </trkpt>
      <trkpt lat="45.68801" lon="5.36218">
        <ele>240</ele>
        <time>2024-09-19T12:33:21Z</time>
      </trkpt>
      <trkpt lat="45.68799" lon="5.36211">
        <ele>240</ele>
        <time>2024-09-19T12:33:22Z</time>
      </trkpt>
      <trkpt lat="45.68798" lon="5.36204">
        <ele>240</ele>
        <time>2024-09-19T12:33:23Z</time>
      </trkpt>
      <trkpt lat="45.68797" lon="5.36197">
        <ele>240</ele>
        <time>2024-09-19T12:33:24Z</time>
      </trkpt>
      <trkpt lat="45.68796" lon="5.3619">
        <ele>240.4</ele>
        <time>2024-09-19T12:33:25Z</time>
      </trkpt>
      <trkpt lat="45.68794" lon="5.36184">
        <ele>240.4</ele>
        <time>2024-09-19T12:33:26Z</time>
      </trkpt>
      <trkpt lat="45.68792" lon="5.36177">
        <ele>240.6</ele>
        <time>2024-09-19T12:33:27Z</time>
      </trkpt>
      <trkpt lat="45.68792" lon="5.36169">
        <ele>241.4</ele>
        <time>2024-09-19T12:33:28Z</time>
      </trkpt>
      <trkpt lat="45.68791" lon="5.36163">
        <ele>242</ele>
        <time>2024-09-19T12:33:29Z</time>
      </trkpt>
      <trkpt lat="45.6879" lon="5.36155">
        <ele>241.6</ele>
        <time>2024-09-19T12:33:30Z</time>
      </trkpt>
      <trkpt lat="45.68791" lon="5.36148">
        <ele>241.8</ele>
        <time>2024-09-19T12:33:31Z</time>
      </trkpt>
      <trkpt lat="45.6879" lon="5.36142">
        <ele>241.6</ele>
        <time>2024-09-19T12:33:32Z</time>
      </trkpt>
      <trkpt lat="45.6879" lon="5.36136">
        <ele>241.6</ele>
        <time>2024-09-19T12:33:33Z</time>
      </trkpt>
      <trkpt lat="45.6879" lon="5.36129">
        <ele>241.6</ele>
        <time>2024-09-19T12:33:34Z</time>
      </trkpt>
      <trkpt lat="45.6879" lon="5.36122">
        <ele>241.6</ele>
        <time>2024-09-19T12:33:35Z</time>
      </trkpt>
      <trkpt lat="45.68787" lon="5.36119">
        <ele>241.2</ele>
        <time>2024-09-19T12:33:36Z</time>
      </trkpt>
      <trkpt lat="45.68787" lon="5.36112">
        <ele>241.2</ele>
        <time>2024-09-19T12:33:37Z</time>
      </trkpt>
      <trkpt lat="45.68787" lon="5.36105">
        <ele>241.2</ele>
        <time>2024-09-19T12:33:38Z</time>
      </trkpt>
      <trkpt lat="45.68786" lon="5.361">
        <ele>241.2</ele>
        <time>2024-09-19T12:33:39Z</time>
      </trkpt>
      <trkpt lat="45.68787" lon="5.36092">
        <ele>241.2</ele>
        <time>2024-09-19T12:33:40Z</time>
      </trkpt>
      <trkpt lat="45.68786" lon="5.36085">
        <ele>241</ele>
        <time>2024-09-19T12:33:41Z</time>
      </trkpt>
      <trkpt lat="45.68786" lon="5.36077">
        <ele>240.6</ele>
        <time>2024-09-19T12:33:42Z</time>
      </trkpt>
      <trkpt lat="45.68786" lon="5.36071">
        <ele>240.4</ele>
        <time>2024-09-19T12:33:43Z</time>
      </trkpt>
      <trkpt lat="45.68785" lon="5.36063">
        <ele>240.4</ele>
        <time>2024-09-19T12:33:44Z</time>
      </trkpt>
      <trkpt lat="45.68785" lon="5.36057">
        <ele>240</ele>
        <time>2024-09-19T12:33:45Z</time>
      </trkpt>
      <trkpt lat="45.68785" lon="5.36049">
        <ele>240.4</ele>
        <time>2024-09-19T12:33:46Z</time>
      </trkpt>
      <trkpt lat="45.68785" lon="5.36041">
        <ele>240</ele>
        <time>2024-09-19T12:33:47Z</time>
      </trkpt>
      <trkpt lat="45.68785" lon="5.36034">
        <ele>239.8</ele>
        <time>2024-09-19T12:33:48Z</time>
      </trkpt>
      <trkpt lat="45.68785" lon="5.36026">
        <ele>240.2</ele>
        <time>2024-09-19T12:33:49Z</time>
      </trkpt>
      <trkpt lat="45.68785" lon="5.36018">
        <ele>240.8</ele>
        <time>2024-09-19T12:33:50Z</time>
      </trkpt>
      <trkpt lat="45.68785" lon="5.3601">
        <ele>240.6</ele>
        <time>2024-09-19T12:33:51Z</time>
      </trkpt>
      <trkpt lat="45.68785" lon="5.36003">
        <ele>240.6</ele>
        <time>2024-09-19T12:33:52Z</time>
      </trkpt>
      <trkpt lat="45.68787" lon="5.35996">
        <ele>240.6</ele>
        <time>2024-09-19T12:33:53Z</time>
      </trkpt>
      <trkpt lat="45.68788" lon="5.35991">
        <ele>240.6</ele>
        <time>2024-09-19T12:33:54Z</time>
      </trkpt>
      <trkpt lat="45.68789" lon="5.35987">
        <ele>240.8</ele>
        <time>2024-09-19T12:33:55Z</time>
      </trkpt>
      <trkpt lat="45.68791" lon="5.35984">
        <ele>240.8</ele>
        <time>2024-09-19T12:33:56Z</time>
      </trkpt>
      <trkpt lat="45.68791" lon="5.3598">
        <ele>240.8</ele>
        <time>2024-09-19T12:33:57Z</time>
      </trkpt>
      <trkpt lat="45.68791" lon="5.35975">
        <ele>240.8</ele>
        <time>2024-09-19T12:33:58Z</time>
      </trkpt>
      <trkpt lat="45.68791" lon="5.35971">
        <ele>240.8</ele>
        <time>2024-09-19T12:33:59Z</time>
      </trkpt>
      <trkpt lat="45.68792" lon="5.35966">
        <ele>240.8</ele>
        <time>2024-09-19T12:34:00Z</time>
      </trkpt>
      <trkpt lat="45.68792" lon="5.3596">
        <ele>240.8</ele>
        <time>2024-09-19T12:34:01Z</time>
      </trkpt>
      <trkpt lat="45.68793" lon="5.35953">
        <ele>240.4</ele>
        <time>2024-09-19T12:34:02Z</time>
      </trkpt>
      <trkpt lat="45.68794" lon="5.35946">
        <ele>240.2</ele>
        <time>2024-09-19T12:34:03Z</time>
      </trkpt>
      <trkpt lat="45.68795" lon="5.3594">
        <ele>240.4</ele>
        <time>2024-09-19T12:34:04Z</time>
      </trkpt>
      <trkpt lat="45.68796" lon="5.35933">
        <ele>240.4</ele>
        <time>2024-09-19T12:34:05Z</time>
      </trkpt>
      <trkpt lat="45.68797" lon="5.35926">
        <ele>241</ele>
        <time>2024-09-19T12:34:06Z</time>
      </trkpt>
      <trkpt lat="45.68797" lon="5.35919">
        <ele>241.4</ele>
        <time>2024-09-19T12:34:07Z</time>
      </trkpt>
      <trkpt lat="45.68798" lon="5.35913">
        <ele>240.8</ele>
        <time>2024-09-19T12:34:08Z</time>
      </trkpt>
      <trkpt lat="45.68799" lon="5.35906">
        <ele>240.8</ele>
        <time>2024-09-19T12:34:09Z</time>
      </trkpt>
      <trkpt lat="45.688" lon="5.35899">
        <ele>240.4</ele>
        <time>2024-09-19T12:34:10Z</time>
      </trkpt>
      <trkpt lat="45.68801" lon="5.35892">
        <ele>240.8</ele>
        <time>2024-09-19T12:34:11Z</time>
      </trkpt>
      <trkpt lat="45.68803" lon="5.35885">
        <ele>240.8</ele>
        <time>2024-09-19T12:34:12Z</time>
      </trkpt>
      <trkpt lat="45.68803" lon="5.35885">
        <ele>241</ele>
        <time>2024-09-19T12:34:13Z</time>
      </trkpt>
      <trkpt lat="45.68804" lon="5.35878">
        <ele>240.6</ele>
        <time>2024-09-19T12:34:14Z</time>
      </trkpt>
      <trkpt lat="45.68805" lon="5.35871">
        <ele>240.8</ele>
        <time>2024-09-19T12:34:15Z</time>
      </trkpt>
      <trkpt lat="45.68806" lon="5.35865">
        <ele>241</ele>
        <time>2024-09-19T12:34:16Z</time>
      </trkpt>
      <trkpt lat="45.68807" lon="5.35858">
        <ele>241</ele>
        <time>2024-09-19T12:34:17Z</time>
      </trkpt>
      <trkpt lat="45.68809" lon="5.35851">
        <ele>241</ele>
        <time>2024-09-19T12:34:18Z</time>
      </trkpt>
      <trkpt lat="45.6881" lon="5.35845">
        <ele>240.8</ele>
        <time>2024-09-19T12:34:19Z</time>
      </trkpt>
      <trkpt lat="45.68811" lon="5.35838">
        <ele>240.8</ele>
        <time>2024-09-19T12:34:20Z</time>
      </trkpt>
      <trkpt lat="45.68812" lon="5.35831">
        <ele>240.8</ele>
        <time>2024-09-19T12:34:21Z</time>
      </trkpt>
      <trkpt lat="45.68813" lon="5.35824">
        <ele>240.2</ele>
        <time>2024-09-19T12:34:22Z</time>
      </trkpt>
      <trkpt lat="45.68815" lon="5.35817">
        <ele>240.6</ele>
        <time>2024-09-19T12:34:23Z</time>
      </trkpt>
      <trkpt lat="45.68816" lon="5.35803">
        <ele>240.6</ele>
        <time>2024-09-19T12:34:24Z</time>
      </trkpt>
      <trkpt lat="45.68818" lon="5.35795">
        <ele>240.8</ele>
        <time>2024-09-19T12:34:25Z</time>
      </trkpt>
      <trkpt lat="45.68819" lon="5.35788">
        <ele>240.8</ele>
        <time>2024-09-19T12:34:26Z</time>
      </trkpt>
      <trkpt lat="45.68821" lon="5.35781">
        <ele>240.8</ele>
        <time>2024-09-19T12:34:27Z</time>
      </trkpt>
      <trkpt lat="45.68822" lon="5.35772">
        <ele>241.2</ele>
        <time>2024-09-19T12:34:28Z</time>
      </trkpt>
      <trkpt lat="45.68823" lon="5.35765">
        <ele>241</ele>
        <time>2024-09-19T12:34:29Z</time>
      </trkpt>
      <trkpt lat="45.68825" lon="5.35759">
        <ele>241.2</ele>
        <time>2024-09-19T12:34:30Z</time>
      </trkpt>
      <trkpt lat="45.68826" lon="5.35751">
        <ele>241.8</ele>
        <time>2024-09-19T12:34:31Z</time>
      </trkpt>
      <trkpt lat="45.68827" lon="5.35745">
        <ele>241.8</ele>
        <time>2024-09-19T12:34:32Z</time>
      </trkpt>
      <trkpt lat="45.68828" lon="5.35737">
        <ele>241.6</ele>
        <time>2024-09-19T12:34:33Z</time>
      </trkpt>
      <trkpt lat="45.68829" lon="5.3573">
        <ele>241.2</ele>
        <time>2024-09-19T12:34:34Z</time>
      </trkpt>
      <trkpt lat="45.6883" lon="5.35722">
        <ele>241.2</ele>
        <time>2024-09-19T12:34:35Z</time>
      </trkpt>
      <trkpt lat="45.68831" lon="5.35716">
        <ele>241.2</ele>
        <time>2024-09-19T12:34:36Z</time>
      </trkpt>
      <trkpt lat="45.68832" lon="5.35709">
        <ele>241.2</ele>
        <time>2024-09-19T12:34:37Z</time>
      </trkpt>
      <trkpt lat="45.68833" lon="5.35702">
        <ele>240.8</ele>
        <time>2024-09-19T12:34:38Z</time>
      </trkpt>
      <trkpt lat="45.68835" lon="5.35695">
        <ele>241</ele>
        <time>2024-09-19T12:34:39Z</time>
      </trkpt>
      <trkpt lat="45.68836" lon="5.35688">
        <ele>241.6</ele>
        <time>2024-09-19T12:34:40Z</time>
      </trkpt>
      <trkpt lat="45.68837" lon="5.35681">
        <ele>241.6</ele>
        <time>2024-09-19T12:34:41Z</time>
      </trkpt>
      <trkpt lat="45.68838" lon="5.35674">
        <ele>241.2</ele>
        <time>2024-09-19T12:34:42Z</time>
      </trkpt>
      <trkpt lat="45.68839" lon="5.35667">
        <ele>241.2</ele>
        <time>2024-09-19T12:34:43Z</time>
      </trkpt>
      <trkpt lat="45.6884" lon="5.3566">
        <ele>241.2</ele>
        <time>2024-09-19T12:34:44Z</time>
      </trkpt>
      <trkpt lat="45.68841" lon="5.35653">
        <ele>241.2</ele>
        <time>2024-09-19T12:34:45Z</time>
      </trkpt>
      <trkpt lat="45.68842" lon="5.35646">
        <ele>241.2</ele>
        <time>2024-09-19T12:34:46Z</time>
      </trkpt>
      <trkpt lat="45.68843" lon="5.35639">
        <ele>240.8</ele>
        <time>2024-09-19T12:34:47Z</time>
      </trkpt>
      <trkpt lat="45.68844" lon="5.35632">
        <ele>240.8</ele>
        <time>2024-09-19T12:34:48Z</time>
      </trkpt>
      <trkpt lat="45.68845" lon="5.35625">
        <ele>240.8</ele>
        <time>2024-09-19T12:34:49Z</time>
      </trkpt>
      <trkpt lat="45.68846" lon="5.35619">
        <ele>240.2</ele>
        <time>2024-09-19T12:34:50Z</time>
      </trkpt>
      <trkpt lat="45.68847" lon="5.35612">
        <ele>240.8</ele>
        <time>2024-09-19T12:34:51Z</time>
      </trkpt>
      <trkpt lat="45.68848" lon="5.35605">
        <ele>241</ele>
        <time>2024-09-19T12:34:52Z</time>
      </trkpt>
      <trkpt lat="45.68849" lon="5.35598">
        <ele>241.4</ele>
        <time>2024-09-19T12:34:53Z</time>
      </trkpt>
      <trkpt lat="45.68851" lon="5.35592">
        <ele>241.8</ele>
        <time>2024-09-19T12:34:54Z</time>
      </trkpt>
      <trkpt lat="45.68852" lon="5.35585">
        <ele>241.8</ele>
        <time>2024-09-19T12:34:55Z</time>
      </trkpt>
      <trkpt lat="45.68853" lon="5.35578">
        <ele>241</ele>
        <time>2024-09-19T12:34:56Z</time>
      </trkpt>
      <trkpt lat="45.68854" lon="5.35572">
        <ele>241.4</ele>
        <time>2024-09-19T12:34:57Z</time>
      </trkpt>
      <trkpt lat="45.68856" lon="5.35565">
        <ele>241.4</ele>
        <time>2024-09-19T12:34:58Z</time>
      </trkpt>
      <trkpt lat="45.68857" lon="5.35559">
        <ele>242</ele>
        <time>2024-09-19T12:34:59Z</time>
      </trkpt>
      <trkpt lat="45.68858" lon="5.35552">
        <ele>242</ele>
        <time>2024-09-19T12:35:00Z</time>
      </trkpt>
      <trkpt lat="45.68859" lon="5.35545">
        <ele>242.4</ele>
        <time>2024-09-19T12:35:01Z</time>
      </trkpt>
      <trkpt lat="45.6886" lon="5.35538">
        <ele>242.8</ele>
        <time>2024-09-19T12:35:02Z</time>
      </trkpt>
      <trkpt lat="45.68861" lon="5.35531">
        <ele>242.8</ele>
        <time>2024-09-19T12:35:03Z</time>
      </trkpt>
      <trkpt lat="45.68862" lon="5.35525">
        <ele>242.8</ele>
        <time>2024-09-19T12:35:04Z</time>
      </trkpt>
      <trkpt lat="45.68864" lon="5.35519">
        <ele>242.8</ele>
        <time>2024-09-19T12:35:05Z</time>
      </trkpt>
      <trkpt lat="45.68865" lon="5.35512">
        <ele>242.8</ele>
        <time>2024-09-19T12:35:06Z</time>
      </trkpt>
      <trkpt lat="45.68867" lon="5.35506">
        <ele>242.8</ele>
        <time>2024-09-19T12:35:07Z</time>
      </trkpt>
      <trkpt lat="45.68868" lon="5.35499">
        <ele>243.4</ele>
        <time>2024-09-19T12:35:08Z</time>
      </trkpt>
      <trkpt lat="45.68869" lon="5.35492">
        <ele>243.4</ele>
        <time>2024-09-19T12:35:09Z</time>
      </trkpt>
      <trkpt lat="45.6887" lon="5.35485">
        <ele>243.2</ele>
        <time>2024-09-19T12:35:10Z</time>
      </trkpt>
      <trkpt lat="45.68871" lon="5.35479">
        <ele>243.4</ele>
        <time>2024-09-19T12:35:11Z</time>
      </trkpt>
      <trkpt lat="45.68871" lon="5.35473">
        <ele>243.4</ele>
        <time>2024-09-19T12:35:12Z</time>
      </trkpt>
      <trkpt lat="45.68872" lon="5.35466">
        <ele>243.4</ele>
        <time>2024-09-19T12:35:13Z</time>
      </trkpt>
      <trkpt lat="45.68873" lon="5.35459">
        <ele>243</ele>
        <time>2024-09-19T12:35:14Z</time>
      </trkpt>
      <trkpt lat="45.68875" lon="5.35452">
        <ele>243</ele>
        <time>2024-09-19T12:35:15Z</time>
      </trkpt>
      <trkpt lat="45.68876" lon="5.35445">
        <ele>243.2</ele>
        <time>2024-09-19T12:35:16Z</time>
      </trkpt>
      <trkpt lat="45.68877" lon="5.35439">
        <ele>243</ele>
        <time>2024-09-19T12:35:17Z</time>
      </trkpt>
      <trkpt lat="45.68878" lon="5.35432">
        <ele>242.4</ele>
        <time>2024-09-19T12:35:18Z</time>
      </trkpt>
      <trkpt lat="45.68879" lon="5.35425">
        <ele>242.8</ele>
        <time>2024-09-19T12:35:19Z</time>
      </trkpt>
      <trkpt lat="45.6888" lon="5.35419">
        <ele>242.8</ele>
        <time>2024-09-19T12:35:20Z</time>
      </trkpt>
      <trkpt lat="45.68881" lon="5.35412">
        <ele>243.2</ele>
        <time>2024-09-19T12:35:21Z</time>
      </trkpt>
      <trkpt lat="45.68882" lon="5.35406">
        <ele>243.6</ele>
        <time>2024-09-19T12:35:22Z</time>
      </trkpt>
      <trkpt lat="45.68884" lon="5.35399">
        <ele>243.6</ele>
        <time>2024-09-19T12:35:23Z</time>
      </trkpt>
      <trkpt lat="45.68885" lon="5.35392">
        <ele>243.6</ele>
        <time>2024-09-19T12:35:24Z</time>
      </trkpt>
      <trkpt lat="45.68887" lon="5.35385">
        <ele>243.4</ele>
        <time>2024-09-19T12:35:25Z</time>
      </trkpt>
      <trkpt lat="45.68888" lon="5.35379">
        <ele>243.6</ele>
        <time>2024-09-19T12:35:26Z</time>
      </trkpt>
      <trkpt lat="45.68889" lon="5.35372">
        <ele>243.6</ele>
        <time>2024-09-19T12:35:27Z</time>
      </trkpt>
      <trkpt lat="45.68889" lon="5.35364">
        <ele>244</ele>
        <time>2024-09-19T12:35:28Z</time>
      </trkpt>
      <trkpt lat="45.68891" lon="5.35357">
        <ele>243.4</ele>
        <time>2024-09-19T12:35:29Z</time>
      </trkpt>
      <trkpt lat="45.68892" lon="5.35349">
        <ele>243.4</ele>
        <time>2024-09-19T12:35:30Z</time>
      </trkpt>
      <trkpt lat="45.68893" lon="5.35342">
        <ele>243.4</ele>
        <time>2024-09-19T12:35:31Z</time>
      </trkpt>
      <trkpt lat="45.68893" lon="5.35336">
        <ele>243.4</ele>
        <time>2024-09-19T12:35:32Z</time>
      </trkpt>
      <trkpt lat="45.68894" lon="5.35329">
        <ele>243.2</ele>
        <time>2024-09-19T12:35:33Z</time>
      </trkpt>
      <trkpt lat="45.68896" lon="5.35322">
        <ele>243</ele>
        <time>2024-09-19T12:35:34Z</time>
      </trkpt>
      <trkpt lat="45.68897" lon="5.35315">
        <ele>243.4</ele>
        <time>2024-09-19T12:35:35Z</time>
      </trkpt>
      <trkpt lat="45.68898" lon="5.35308">
        <ele>243.4</ele>
        <time>2024-09-19T12:35:36Z</time>
      </trkpt>
      <trkpt lat="45.68899" lon="5.35301">
        <ele>243.4</ele>
        <time>2024-09-19T12:35:37Z</time>
      </trkpt>
      <trkpt lat="45.68901" lon="5.35294">
        <ele>243.4</ele>
        <time>2024-09-19T12:35:38Z</time>
      </trkpt>
      <trkpt lat="45.68901" lon="5.35287">
        <ele>243.4</ele>
        <time>2024-09-19T12:35:39Z</time>
      </trkpt>
      <trkpt lat="45.68903" lon="5.3528">
        <ele>243.2</ele>
        <time>2024-09-19T12:35:40Z</time>
      </trkpt>
      <trkpt lat="45.68904" lon="5.35273">
        <ele>243.2</ele>
        <time>2024-09-19T12:35:41Z</time>
      </trkpt>
      <trkpt lat="45.68905" lon="5.35266">
        <ele>242.8</ele>
        <time>2024-09-19T12:35:42Z</time>
      </trkpt>
      <trkpt lat="45.68906" lon="5.35259">
        <ele>243.2</ele>
        <time>2024-09-19T12:35:43Z</time>
      </trkpt>
      <trkpt lat="45.68908" lon="5.35252">
        <ele>243.2</ele>
        <time>2024-09-19T12:35:44Z</time>
      </trkpt>
      <trkpt lat="45.68908" lon="5.35245">
        <ele>243.6</ele>
        <time>2024-09-19T12:35:45Z</time>
      </trkpt>
      <trkpt lat="45.6891" lon="5.35238">
        <ele>243</ele>
        <time>2024-09-19T12:35:46Z</time>
      </trkpt>
      <trkpt lat="45.68911" lon="5.35231">
        <ele>242.8</ele>
        <time>2024-09-19T12:35:47Z</time>
      </trkpt>
      <trkpt lat="45.68912" lon="5.35224">
        <ele>243.6</ele>
        <time>2024-09-19T12:35:48Z</time>
      </trkpt>
      <trkpt lat="45.68914" lon="5.35217">
        <ele>243.6</ele>
        <time>2024-09-19T12:35:49Z</time>
      </trkpt>
      <trkpt lat="45.68915" lon="5.35209">
        <ele>243.2</ele>
        <time>2024-09-19T12:35:50Z</time>
      </trkpt>
      <trkpt lat="45.68916" lon="5.35203">
        <ele>243.2</ele>
        <time>2024-09-19T12:35:51Z</time>
      </trkpt>
      <trkpt lat="45.68917" lon="5.35196">
        <ele>243.4</ele>
        <time>2024-09-19T12:35:52Z</time>
      </trkpt>
      <trkpt lat="45.68917" lon="5.35189">
        <ele>243.4</ele>
        <time>2024-09-19T12:35:53Z</time>
      </trkpt>
      <trkpt lat="45.68918" lon="5.35182">
        <ele>243.4</ele>
        <time>2024-09-19T12:35:54Z</time>
      </trkpt>
      <trkpt lat="45.68919" lon="5.35175">
        <ele>243.4</ele>
        <time>2024-09-19T12:35:55Z</time>
      </trkpt>
      <trkpt lat="45.6892" lon="5.35169">
        <ele>243.4</ele>
        <time>2024-09-19T12:35:56Z</time>
      </trkpt>
      <trkpt lat="45.6892" lon="5.35162">
        <ele>243.4</ele>
        <time>2024-09-19T12:35:57Z</time>
      </trkpt>
      <trkpt lat="45.68921" lon="5.35156">
        <ele>243.4</ele>
        <time>2024-09-19T12:35:58Z</time>
      </trkpt>
      <trkpt lat="45.68922" lon="5.35151">
        <ele>243.8</ele>
        <time>2024-09-19T12:35:59Z</time>
      </trkpt>
      <trkpt lat="45.68922" lon="5.35145">
        <ele>244.8</ele>
        <time>2024-09-19T12:36:00Z</time>
      </trkpt>
      <trkpt lat="45.68923" lon="5.35139">
        <ele>244.4</ele>
        <time>2024-09-19T12:36:01Z</time>
      </trkpt>
      <trkpt lat="45.68923" lon="5.35133">
        <ele>244.4</ele>
        <time>2024-09-19T12:36:02Z</time>
      </trkpt>
      <trkpt lat="45.68923" lon="5.35128">
        <ele>244.4</ele>
        <time>2024-09-19T12:36:03Z</time>
      </trkpt>
      <trkpt lat="45.68924" lon="5.35123">
        <ele>244.2</ele>
        <time>2024-09-19T12:36:04Z</time>
      </trkpt>
      <trkpt lat="45.68925" lon="5.35117">
        <ele>243.8</ele>
        <time>2024-09-19T12:36:05Z</time>
      </trkpt>
      <trkpt lat="45.68926" lon="5.35111">
        <ele>243.4</ele>
        <time>2024-09-19T12:36:06Z</time>
      </trkpt>
      <trkpt lat="45.68926" lon="5.35105">
        <ele>243.4</ele>
        <time>2024-09-19T12:36:07Z</time>
      </trkpt>
      <trkpt lat="45.68927" lon="5.35099">
        <ele>244</ele>
        <time>2024-09-19T12:36:08Z</time>
      </trkpt>
      <trkpt lat="45.68928" lon="5.35092">
        <ele>243.8</ele>
        <time>2024-09-19T12:36:09Z</time>
      </trkpt>
      <trkpt lat="45.68928" lon="5.35087">
        <ele>243.4</ele>
        <time>2024-09-19T12:36:10Z</time>
      </trkpt>
      <trkpt lat="45.68928" lon="5.35081">
        <ele>243.4</ele>
        <time>2024-09-19T12:36:11Z</time>
      </trkpt>
      <trkpt lat="45.68928" lon="5.35075">
        <ele>243.4</ele>
        <time>2024-09-19T12:36:12Z</time>
      </trkpt>
      <trkpt lat="45.68929" lon="5.3507">
        <ele>243.4</ele>
        <time>2024-09-19T12:36:13Z</time>
      </trkpt>
      <trkpt lat="45.68929" lon="5.35063">
        <ele>243.4</ele>
        <time>2024-09-19T12:36:14Z</time>
      </trkpt>
      <trkpt lat="45.68929" lon="5.35057">
        <ele>243.4</ele>
        <time>2024-09-19T12:36:15Z</time>
      </trkpt>
      <trkpt lat="45.6893" lon="5.35051">
        <ele>243.8</ele>
        <time>2024-09-19T12:36:16Z</time>
      </trkpt>
      <trkpt lat="45.68931" lon="5.35044">
        <ele>244</ele>
        <time>2024-09-19T12:36:17Z</time>
      </trkpt>
      <trkpt lat="45.68931" lon="5.35037">
        <ele>244.4</ele>
        <time>2024-09-19T12:36:18Z</time>
      </trkpt>
      <trkpt lat="45.68932" lon="5.35031">
        <ele>244.4</ele>
        <time>2024-09-19T12:36:19Z</time>
      </trkpt>
      <trkpt lat="45.68934" lon="5.35024">
        <ele>244</ele>
        <time>2024-09-19T12:36:20Z</time>
      </trkpt>
      <trkpt lat="45.68934" lon="5.35018">
        <ele>243.6</ele>
        <time>2024-09-19T12:36:21Z</time>
      </trkpt>
      <trkpt lat="45.68936" lon="5.3501">
        <ele>243.6</ele>
        <time>2024-09-19T12:36:22Z</time>
      </trkpt>
      <trkpt lat="45.68937" lon="5.35004">
        <ele>243.6</ele>
        <time>2024-09-19T12:36:23Z</time>
      </trkpt>
      <trkpt lat="45.68937" lon="5.34996">
        <ele>243.6</ele>
        <time>2024-09-19T12:36:24Z</time>
      </trkpt>
      <trkpt lat="45.68938" lon="5.34989">
        <ele>243.6</ele>
        <time>2024-09-19T12:36:25Z</time>
      </trkpt>
      <trkpt lat="45.68938" lon="5.34982">
        <ele>243.6</ele>
        <time>2024-09-19T12:36:26Z</time>
      </trkpt>
      <trkpt lat="45.68938" lon="5.34974">
        <ele>243.6</ele>
        <time>2024-09-19T12:36:27Z</time>
      </trkpt>
      <trkpt lat="45.68939" lon="5.34967">
        <ele>244.2</ele>
        <time>2024-09-19T12:36:28Z</time>
      </trkpt>
      <trkpt lat="45.68939" lon="5.34958">
        <ele>244</ele>
        <time>2024-09-19T12:36:29Z</time>
      </trkpt>
      <trkpt lat="45.6894" lon="5.34951">
        <ele>244</ele>
        <time>2024-09-19T12:36:30Z</time>
      </trkpt>
      <trkpt lat="45.6894" lon="5.34943">
        <ele>243.6</ele>
        <time>2024-09-19T12:36:31Z</time>
      </trkpt>
      <trkpt lat="45.68941" lon="5.34936">
        <ele>243.6</ele>
        <time>2024-09-19T12:36:32Z</time>
      </trkpt>
      <trkpt lat="45.68941" lon="5.34929">
        <ele>243.4</ele>
        <time>2024-09-19T12:36:33Z</time>
      </trkpt>
      <trkpt lat="45.68941" lon="5.34921">
        <ele>243.8</ele>
        <time>2024-09-19T12:36:34Z</time>
      </trkpt>
      <trkpt lat="45.68942" lon="5.34914">
        <ele>243.8</ele>
        <time>2024-09-19T12:36:35Z</time>
      </trkpt>
      <trkpt lat="45.68942" lon="5.34907">
        <ele>244.2</ele>
        <time>2024-09-19T12:36:36Z</time>
      </trkpt>
      <trkpt lat="45.68944" lon="5.349">
        <ele>244.2</ele>
        <time>2024-09-19T12:36:37Z</time>
      </trkpt>
      <trkpt lat="45.68944" lon="5.34893">
        <ele>244.2</ele>
        <time>2024-09-19T12:36:38Z</time>
      </trkpt>
      <trkpt lat="45.68944" lon="5.34886">
        <ele>244.2</ele>
        <time>2024-09-19T12:36:39Z</time>
      </trkpt>
      <trkpt lat="45.68945" lon="5.34878">
        <ele>244.2</ele>
        <time>2024-09-19T12:36:40Z</time>
      </trkpt>
      <trkpt lat="45.68946" lon="5.34871">
        <ele>243.6</ele>
        <time>2024-09-19T12:36:41Z</time>
      </trkpt>
      <trkpt lat="45.68946" lon="5.34864">
        <ele>243.6</ele>
        <time>2024-09-19T12:36:42Z</time>
      </trkpt>
      <trkpt lat="45.68946" lon="5.34857">
        <ele>243.8</ele>
        <time>2024-09-19T12:36:43Z</time>
      </trkpt>
      <trkpt lat="45.68947" lon="5.34849">
        <ele>243.8</ele>
        <time>2024-09-19T12:36:44Z</time>
      </trkpt>
      <trkpt lat="45.68946" lon="5.34843">
        <ele>244.2</ele>
        <time>2024-09-19T12:36:45Z</time>
      </trkpt>
      <trkpt lat="45.68946" lon="5.34834">
        <ele>243.6</ele>
        <time>2024-09-19T12:36:46Z</time>
      </trkpt>
      <trkpt lat="45.68947" lon="5.34828">
        <ele>243.6</ele>
        <time>2024-09-19T12:36:47Z</time>
      </trkpt>
      <trkpt lat="45.68947" lon="5.3482">
        <ele>243.6</ele>
        <time>2024-09-19T12:36:48Z</time>
      </trkpt>
      <trkpt lat="45.68948" lon="5.34813">
        <ele>243.6</ele>
        <time>2024-09-19T12:36:49Z</time>
      </trkpt>
      <trkpt lat="45.68948" lon="5.34807">
        <ele>243.6</ele>
        <time>2024-09-19T12:36:50Z</time>
      </trkpt>
      <trkpt lat="45.68949" lon="5.34801">
        <ele>243.6</ele>
        <time>2024-09-19T12:36:51Z</time>
      </trkpt>
      <trkpt lat="45.68948" lon="5.34795">
        <ele>243.6</ele>
        <time>2024-09-19T12:36:52Z</time>
      </trkpt>
      <trkpt lat="45.68949" lon="5.34788">
        <ele>244</ele>
        <time>2024-09-19T12:36:53Z</time>
      </trkpt>
      <trkpt lat="45.68949" lon="5.34782">
        <ele>244</ele>
        <time>2024-09-19T12:36:54Z</time>
      </trkpt>
      <trkpt lat="45.68948" lon="5.34776">
        <ele>244</ele>
        <time>2024-09-19T12:36:55Z</time>
      </trkpt>
      <trkpt lat="45.6895" lon="5.34769">
        <ele>243.8</ele>
        <time>2024-09-19T12:36:56Z</time>
      </trkpt>
      <trkpt lat="45.6895" lon="5.34762">
        <ele>243.8</ele>
        <time>2024-09-19T12:36:57Z</time>
      </trkpt>
      <trkpt lat="45.68949" lon="5.34755">
        <ele>243.8</ele>
        <time>2024-09-19T12:36:58Z</time>
      </trkpt>
      <trkpt lat="45.68949" lon="5.34755">
        <ele>243.8</ele>
        <time>2024-09-19T12:36:59Z</time>
      </trkpt>
      <trkpt lat="45.68951" lon="5.34747">
        <ele>243.2</ele>
        <time>2024-09-19T12:37:00Z</time>
      </trkpt>
      <trkpt lat="45.68951" lon="5.3474">
        <ele>243.2</ele>
        <time>2024-09-19T12:37:01Z</time>
      </trkpt>
      <trkpt lat="45.68952" lon="5.34732">
        <ele>243.6</ele>
        <time>2024-09-19T12:37:02Z</time>
      </trkpt>
      <trkpt lat="45.68952" lon="5.34725">
        <ele>243.6</ele>
        <time>2024-09-19T12:37:03Z</time>
      </trkpt>
      <trkpt lat="45.68953" lon="5.34718">
        <ele>243.8</ele>
        <time>2024-09-19T12:37:04Z</time>
      </trkpt>
      <trkpt lat="45.68953" lon="5.3471">
        <ele>244</ele>
        <time>2024-09-19T12:37:05Z</time>
      </trkpt>
      <trkpt lat="45.68954" lon="5.34703">
        <ele>244</ele>
        <time>2024-09-19T12:37:06Z</time>
      </trkpt>
      <trkpt lat="45.68955" lon="5.34696">
        <ele>244.2</ele>
        <time>2024-09-19T12:37:07Z</time>
      </trkpt>
      <trkpt lat="45.68955" lon="5.34688">
        <ele>244</ele>
        <time>2024-09-19T12:37:08Z</time>
      </trkpt>
      <trkpt lat="45.68956" lon="5.34681">
        <ele>244</ele>
        <time>2024-09-19T12:37:09Z</time>
      </trkpt>
      <trkpt lat="45.68957" lon="5.34674">
        <ele>244</ele>
        <time>2024-09-19T12:37:10Z</time>
      </trkpt>
      <trkpt lat="45.68957" lon="5.34666">
        <ele>244</ele>
        <time>2024-09-19T12:37:11Z</time>
      </trkpt>
      <trkpt lat="45.68957" lon="5.34659">
        <ele>244</ele>
        <time>2024-09-19T12:37:12Z</time>
      </trkpt>
      <trkpt lat="45.68958" lon="5.34645">
        <ele>244.4</ele>
        <time>2024-09-19T12:37:13Z</time>
      </trkpt>
      <trkpt lat="45.68959" lon="5.34637">
        <ele>244.8</ele>
        <time>2024-09-19T12:37:14Z</time>
      </trkpt>
      <trkpt lat="45.6896" lon="5.3463">
        <ele>244.8</ele>
        <time>2024-09-19T12:37:15Z</time>
      </trkpt>
      <trkpt lat="45.6896" lon="5.34623">
        <ele>244.4</ele>
        <time>2024-09-19T12:37:16Z</time>
      </trkpt>
      <trkpt lat="45.68961" lon="5.34615">
        <ele>244</ele>
        <time>2024-09-19T12:37:17Z</time>
      </trkpt>
      <trkpt lat="45.68961" lon="5.34608">
        <ele>244</ele>
        <time>2024-09-19T12:37:18Z</time>
      </trkpt>
      <trkpt lat="45.68962" lon="5.34602">
        <ele>244</ele>
        <time>2024-09-19T12:37:19Z</time>
      </trkpt>
      <trkpt lat="45.68962" lon="5.34594">
        <ele>244.2</ele>
        <time>2024-09-19T12:37:20Z</time>
      </trkpt>
      <trkpt lat="45.68963" lon="5.34587">
        <ele>244.2</ele>
        <time>2024-09-19T12:37:21Z</time>
      </trkpt>
      <trkpt lat="45.68963" lon="5.34579">
        <ele>244.2</ele>
        <time>2024-09-19T12:37:22Z</time>
      </trkpt>
      <trkpt lat="45.68964" lon="5.34572">
        <ele>244.2</ele>
        <time>2024-09-19T12:37:23Z</time>
      </trkpt>
      <trkpt lat="45.68965" lon="5.34565">
        <ele>244.6</ele>
        <time>2024-09-19T12:37:24Z</time>
      </trkpt>
      <trkpt lat="45.68965" lon="5.34558">
        <ele>244.4</ele>
        <time>2024-09-19T12:37:25Z</time>
      </trkpt>
      <trkpt lat="45.68966" lon="5.3455">
        <ele>244.4</ele>
        <time>2024-09-19T12:37:26Z</time>
      </trkpt>
      <trkpt lat="45.68966" lon="5.34543">
        <ele>244.4</ele>
        <time>2024-09-19T12:37:27Z</time>
      </trkpt>
      <trkpt lat="45.68966" lon="5.34536">
        <ele>245</ele>
        <time>2024-09-19T12:37:28Z</time>
      </trkpt>
      <trkpt lat="45.68967" lon="5.34529">
        <ele>245</ele>
        <time>2024-09-19T12:37:29Z</time>
      </trkpt>
      <trkpt lat="45.68968" lon="5.34522">
        <ele>245</ele>
        <time>2024-09-19T12:37:30Z</time>
      </trkpt>
      <trkpt lat="45.68969" lon="5.34514">
        <ele>244.6</ele>
        <time>2024-09-19T12:37:31Z</time>
      </trkpt>
      <trkpt lat="45.68969" lon="5.34507">
        <ele>244.6</ele>
        <time>2024-09-19T12:37:32Z</time>
      </trkpt>
      <trkpt lat="45.68969" lon="5.345">
        <ele>244.6</ele>
        <time>2024-09-19T12:37:33Z</time>
      </trkpt>
      <trkpt lat="45.6897" lon="5.34493">
        <ele>244.6</ele>
        <time>2024-09-19T12:37:34Z</time>
      </trkpt>
      <trkpt lat="45.6897" lon="5.34486">
        <ele>244.8</ele>
        <time>2024-09-19T12:37:35Z</time>
      </trkpt>
      <trkpt lat="45.68971" lon="5.34479">
        <ele>245.2</ele>
        <time>2024-09-19T12:37:36Z</time>
      </trkpt>
      <trkpt lat="45.68972" lon="5.34472">
        <ele>245.2</ele>
        <time>2024-09-19T12:37:37Z</time>
      </trkpt>
      <trkpt lat="45.68973" lon="5.34464">
        <ele>245.2</ele>
        <time>2024-09-19T12:37:38Z</time>
      </trkpt>
      <trkpt lat="45.68973" lon="5.34457">
        <ele>245.6</ele>
        <time>2024-09-19T12:37:39Z</time>
      </trkpt>
      <trkpt lat="45.68973" lon="5.34451">
        <ele>245.6</ele>
        <time>2024-09-19T12:37:40Z</time>
      </trkpt>
      <trkpt lat="45.68974" lon="5.34443">
        <ele>245.8</ele>
        <time>2024-09-19T12:37:41Z</time>
      </trkpt>
      <trkpt lat="45.68975" lon="5.34437">
        <ele>245.8</ele>
        <time>2024-09-19T12:37:42Z</time>
      </trkpt>
      <trkpt lat="45.68975" lon="5.3443">
        <ele>246.2</ele>
        <time>2024-09-19T12:37:43Z</time>
      </trkpt>
      <trkpt lat="45.68975" lon="5.34423">
        <ele>246.2</ele>
        <time>2024-09-19T12:37:44Z</time>
      </trkpt>
      <trkpt lat="45.68975" lon="5.34416">
        <ele>246.4</ele>
        <time>2024-09-19T12:37:45Z</time>
      </trkpt>
      <trkpt lat="45.68976" lon="5.3441">
        <ele>246.4</ele>
        <time>2024-09-19T12:37:46Z</time>
      </trkpt>
      <trkpt lat="45.68976" lon="5.34404">
        <ele>246.6</ele>
        <time>2024-09-19T12:37:47Z</time>
      </trkpt>
      <trkpt lat="45.68977" lon="5.34397">
        <ele>246.2</ele>
        <time>2024-09-19T12:37:48Z</time>
      </trkpt>
      <trkpt lat="45.68977" lon="5.34391">
        <ele>246.2</ele>
        <time>2024-09-19T12:37:49Z</time>
      </trkpt>
      <trkpt lat="45.68977" lon="5.34384">
        <ele>246.4</ele>
        <time>2024-09-19T12:37:50Z</time>
      </trkpt>
      <trkpt lat="45.68977" lon="5.34378">
        <ele>246.2</ele>
        <time>2024-09-19T12:37:51Z</time>
      </trkpt>
      <trkpt lat="45.68978" lon="5.34372">
        <ele>246.2</ele>
        <time>2024-09-19T12:37:52Z</time>
      </trkpt>
      <trkpt lat="45.68979" lon="5.34365">
        <ele>246.2</ele>
        <time>2024-09-19T12:37:53Z</time>
      </trkpt>
      <trkpt lat="45.68979" lon="5.34358">
        <ele>246.2</ele>
        <time>2024-09-19T12:37:54Z</time>
      </trkpt>
      <trkpt lat="45.68979" lon="5.34352">
        <ele>246.2</ele>
        <time>2024-09-19T12:37:55Z</time>
      </trkpt>
      <trkpt lat="45.6898" lon="5.34345">
        <ele>246.2</ele>
        <time>2024-09-19T12:37:56Z</time>
      </trkpt>
      <trkpt lat="45.6898" lon="5.34338">
        <ele>246.2</ele>
        <time>2024-09-19T12:37:57Z</time>
      </trkpt>
      <trkpt lat="45.68981" lon="5.34331">
        <ele>246.2</ele>
        <time>2024-09-19T12:37:58Z</time>
      </trkpt>
      <trkpt lat="45.68982" lon="5.34324">
        <ele>246.2</ele>
        <time>2024-09-19T12:37:59Z</time>
      </trkpt>
      <trkpt lat="45.68983" lon="5.34318">
        <ele>246.2</ele>
        <time>2024-09-19T12:38:00Z</time>
      </trkpt>
      <trkpt lat="45.68983" lon="5.34311">
        <ele>246.2</ele>
        <time>2024-09-19T12:38:01Z</time>
      </trkpt>
      <trkpt lat="45.68984" lon="5.34304">
        <ele>246.2</ele>
        <time>2024-09-19T12:38:02Z</time>
      </trkpt>
      <trkpt lat="45.68985" lon="5.34298">
        <ele>245.8</ele>
        <time>2024-09-19T12:38:03Z</time>
      </trkpt>
      <trkpt lat="45.68985" lon="5.34291">
        <ele>246.4</ele>
        <time>2024-09-19T12:38:04Z</time>
      </trkpt>
      <trkpt lat="45.68985" lon="5.34285">
        <ele>246.4</ele>
        <time>2024-09-19T12:38:05Z</time>
      </trkpt>
      <trkpt lat="45.68985" lon="5.34278">
        <ele>246.4</ele>
        <time>2024-09-19T12:38:06Z</time>
      </trkpt>
      <trkpt lat="45.68986" lon="5.34272">
        <ele>246.4</ele>
        <time>2024-09-19T12:38:07Z</time>
      </trkpt>
      <trkpt lat="45.68987" lon="5.34264">
        <ele>246.6</ele>
        <time>2024-09-19T12:38:08Z</time>
      </trkpt>
      <trkpt lat="45.68987" lon="5.34258">
        <ele>247</ele>
        <time>2024-09-19T12:38:09Z</time>
      </trkpt>
      <trkpt lat="45.68987" lon="5.34251">
        <ele>247</ele>
        <time>2024-09-19T12:38:10Z</time>
      </trkpt>
      <trkpt lat="45.68988" lon="5.34244">
        <ele>247</ele>
        <time>2024-09-19T12:38:11Z</time>
      </trkpt>
      <trkpt lat="45.68988" lon="5.34237">
        <ele>247</ele>
        <time>2024-09-19T12:38:12Z</time>
      </trkpt>
      <trkpt lat="45.6899" lon="5.34231">
        <ele>247</ele>
        <time>2024-09-19T12:38:13Z</time>
      </trkpt>
      <trkpt lat="45.68988" lon="5.34225">
        <ele>247</ele>
        <time>2024-09-19T12:38:14Z</time>
      </trkpt>
      <trkpt lat="45.68989" lon="5.34218">
        <ele>247</ele>
        <time>2024-09-19T12:38:15Z</time>
      </trkpt>
      <trkpt lat="45.68988" lon="5.34212">
        <ele>247.4</ele>
        <time>2024-09-19T12:38:16Z</time>
      </trkpt>
      <trkpt lat="45.68989" lon="5.34205">
        <ele>247.4</ele>
        <time>2024-09-19T12:38:17Z</time>
      </trkpt>
      <trkpt lat="45.6899" lon="5.34199">
        <ele>247.4</ele>
        <time>2024-09-19T12:38:18Z</time>
      </trkpt>
      <trkpt lat="45.68991" lon="5.34192">
        <ele>247.4</ele>
        <time>2024-09-19T12:38:19Z</time>
      </trkpt>
      <trkpt lat="45.68991" lon="5.34186">
        <ele>247</ele>
        <time>2024-09-19T12:38:20Z</time>
      </trkpt>
      <trkpt lat="45.68992" lon="5.34179">
        <ele>247</ele>
        <time>2024-09-19T12:38:21Z</time>
      </trkpt>
      <trkpt lat="45.68992" lon="5.34173">
        <ele>247</ele>
        <time>2024-09-19T12:38:22Z</time>
      </trkpt>
      <trkpt lat="45.68992" lon="5.34166">
        <ele>247.4</ele>
        <time>2024-09-19T12:38:23Z</time>
      </trkpt>
      <trkpt lat="45.68992" lon="5.34159">
        <ele>247.2</ele>
        <time>2024-09-19T12:38:24Z</time>
      </trkpt>
      <trkpt lat="45.68993" lon="5.34153">
        <ele>247.2</ele>
        <time>2024-09-19T12:38:25Z</time>
      </trkpt>
      <trkpt lat="45.68993" lon="5.34146">
        <ele>247.2</ele>
        <time>2024-09-19T12:38:26Z</time>
      </trkpt>
      <trkpt lat="45.68993" lon="5.3414">
        <ele>247.2</ele>
        <time>2024-09-19T12:38:27Z</time>
      </trkpt>
      <trkpt lat="45.68994" lon="5.34133">
        <ele>247.8</ele>
        <time>2024-09-19T12:38:28Z</time>
      </trkpt>
      <trkpt lat="45.68995" lon="5.34127">
        <ele>247.8</ele>
        <time>2024-09-19T12:38:29Z</time>
      </trkpt>
      <trkpt lat="45.68995" lon="5.3412">
        <ele>247.4</ele>
        <time>2024-09-19T12:38:30Z</time>
      </trkpt>
      <trkpt lat="45.68995" lon="5.34114">
        <ele>247.4</ele>
        <time>2024-09-19T12:38:31Z</time>
      </trkpt>
      <trkpt lat="45.68996" lon="5.34107">
        <ele>247.4</ele>
        <time>2024-09-19T12:38:32Z</time>
      </trkpt>
      <trkpt lat="45.68997" lon="5.34101">
        <ele>247.4</ele>
        <time>2024-09-19T12:38:33Z</time>
      </trkpt>
      <trkpt lat="45.68997" lon="5.34095">
        <ele>247.8</ele>
        <time>2024-09-19T12:38:34Z</time>
      </trkpt>
      <trkpt lat="45.68998" lon="5.3409">
        <ele>247.8</ele>
        <time>2024-09-19T12:38:35Z</time>
      </trkpt>
      <trkpt lat="45.68998" lon="5.34083">
        <ele>248.2</ele>
        <time>2024-09-19T12:38:36Z</time>
      </trkpt>
      <trkpt lat="45.68998" lon="5.34077">
        <ele>248.2</ele>
        <time>2024-09-19T12:38:37Z</time>
      </trkpt>
      <trkpt lat="45.68998" lon="5.34072">
        <ele>247.8</ele>
        <time>2024-09-19T12:38:38Z</time>
      </trkpt>
      <trkpt lat="45.68999" lon="5.34065">
        <ele>248</ele>
        <time>2024-09-19T12:38:39Z</time>
      </trkpt>
      <trkpt lat="45.69" lon="5.34059">
        <ele>248.8</ele>
        <time>2024-09-19T12:38:40Z</time>
      </trkpt>
      <trkpt lat="45.69" lon="5.34054">
        <ele>249.6</ele>
        <time>2024-09-19T12:38:41Z</time>
      </trkpt>
      <trkpt lat="45.69001" lon="5.34049">
        <ele>249.8</ele>
        <time>2024-09-19T12:38:42Z</time>
      </trkpt>
      <trkpt lat="45.69002" lon="5.34044">
        <ele>249.8</ele>
        <time>2024-09-19T12:38:43Z</time>
      </trkpt>
      <trkpt lat="45.69003" lon="5.34039">
        <ele>250.2</ele>
        <time>2024-09-19T12:38:44Z</time>
      </trkpt>
      <trkpt lat="45.69003" lon="5.34035">
        <ele>250.2</ele>
        <time>2024-09-19T12:38:45Z</time>
      </trkpt>
      <trkpt lat="45.69003" lon="5.34031">
        <ele>250.2</ele>
        <time>2024-09-19T12:38:46Z</time>
      </trkpt>
      <trkpt lat="45.69003" lon="5.34027">
        <ele>250.4</ele>
        <time>2024-09-19T12:38:47Z</time>
      </trkpt>
      <trkpt lat="45.69003" lon="5.34022">
        <ele>250.4</ele>
        <time>2024-09-19T12:38:48Z</time>
      </trkpt>
      <trkpt lat="45.69003" lon="5.34018">
        <ele>250.8</ele>
        <time>2024-09-19T12:38:49Z</time>
      </trkpt>
      <trkpt lat="45.69004" lon="5.34014">
        <ele>251.2</ele>
        <time>2024-09-19T12:38:50Z</time>
      </trkpt>
      <trkpt lat="45.69004" lon="5.34009">
        <ele>251.2</ele>
        <time>2024-09-19T12:38:51Z</time>
      </trkpt>
      <trkpt lat="45.69005" lon="5.34005">
        <ele>251.2</ele>
        <time>2024-09-19T12:38:52Z</time>
      </trkpt>
      <trkpt lat="45.69005" lon="5.34">
        <ele>251.6</ele>
        <time>2024-09-19T12:38:53Z</time>
      </trkpt>
      <trkpt lat="45.69005" lon="5.33995">
        <ele>251.6</ele>
        <time>2024-09-19T12:38:54Z</time>
      </trkpt>
      <trkpt lat="45.69006" lon="5.3399">
        <ele>252</ele>
        <time>2024-09-19T12:38:55Z</time>
      </trkpt>
      <trkpt lat="45.69007" lon="5.33986">
        <ele>252</ele>
        <time>2024-09-19T12:38:56Z</time>
      </trkpt>
      <trkpt lat="45.69008" lon="5.33981">
        <ele>252</ele>
        <time>2024-09-19T12:38:57Z</time>
      </trkpt>
      <trkpt lat="45.69008" lon="5.33977">
        <ele>252</ele>
        <time>2024-09-19T12:38:58Z</time>
      </trkpt>
      <trkpt lat="45.69008" lon="5.33972">
        <ele>252</ele>
        <time>2024-09-19T12:38:59Z</time>
      </trkpt>
      <trkpt lat="45.69008" lon="5.33968">
        <ele>251.6</ele>
        <time>2024-09-19T12:39:00Z</time>
      </trkpt>
      <trkpt lat="45.69008" lon="5.33964">
        <ele>251.6</ele>
        <time>2024-09-19T12:39:01Z</time>
      </trkpt>
      <trkpt lat="45.69007" lon="5.33961">
        <ele>251.6</ele>
        <time>2024-09-19T12:39:02Z</time>
      </trkpt>
      <trkpt lat="45.69007" lon="5.33957">
        <ele>251.6</ele>
        <time>2024-09-19T12:39:03Z</time>
      </trkpt>
      <trkpt lat="45.69007" lon="5.33953">
        <ele>251.6</ele>
        <time>2024-09-19T12:39:04Z</time>
      </trkpt>
      <trkpt lat="45.69007" lon="5.33949">
        <ele>252</ele>
        <time>2024-09-19T12:39:05Z</time>
      </trkpt>
      <trkpt lat="45.69007" lon="5.33945">
        <ele>252</ele>
        <time>2024-09-19T12:39:06Z</time>
      </trkpt>
      <trkpt lat="45.69006" lon="5.33941">
        <ele>252</ele>
        <time>2024-09-19T12:39:07Z</time>
      </trkpt>
      <trkpt lat="45.69006" lon="5.33938">
        <ele>252</ele>
        <time>2024-09-19T12:39:08Z</time>
      </trkpt>
      <trkpt lat="45.69005" lon="5.33936">
        <ele>252.2</ele>
        <time>2024-09-19T12:39:09Z</time>
      </trkpt>
      <trkpt lat="45.69005" lon="5.33933">
        <ele>252.2</ele>
        <time>2024-09-19T12:39:10Z</time>
      </trkpt>
      <trkpt lat="45.69005" lon="5.33931">
        <ele>252</ele>
        <time>2024-09-19T12:39:11Z</time>
      </trkpt>
      <trkpt lat="45.69005" lon="5.33928">
        <ele>252</ele>
        <time>2024-09-19T12:39:12Z</time>
      </trkpt>
      <trkpt lat="45.69004" lon="5.33925">
        <ele>251.8</ele>
        <time>2024-09-19T12:39:13Z</time>
      </trkpt>
      <trkpt lat="45.69003" lon="5.33921">
        <ele>251.8</ele>
        <time>2024-09-19T12:39:14Z</time>
      </trkpt>
      <trkpt lat="45.69001" lon="5.33917">
        <ele>251.8</ele>
        <time>2024-09-19T12:39:15Z</time>
      </trkpt>
      <trkpt lat="45.69001" lon="5.33913">
        <ele>251.4</ele>
        <time>2024-09-19T12:39:16Z</time>
      </trkpt>
      <trkpt lat="45.69" lon="5.3391">
        <ele>251.4</ele>
        <time>2024-09-19T12:39:17Z</time>
      </trkpt>
      <trkpt lat="45.69001" lon="5.33906">
        <ele>251.4</ele>
        <time>2024-09-19T12:39:18Z</time>
      </trkpt>
      <trkpt lat="45.69" lon="5.33901">
        <ele>251.2</ele>
        <time>2024-09-19T12:39:19Z</time>
      </trkpt>
      <trkpt lat="45.69" lon="5.33896">
        <ele>251.2</ele>
        <time>2024-09-19T12:39:20Z</time>
      </trkpt>
      <trkpt lat="45.69" lon="5.33891">
        <ele>251</ele>
        <time>2024-09-19T12:39:21Z</time>
      </trkpt>
      <trkpt lat="45.69" lon="5.33886">
        <ele>251</ele>
        <time>2024-09-19T12:39:22Z</time>
      </trkpt>
      <trkpt lat="45.69" lon="5.3388">
        <ele>250.8</ele>
        <time>2024-09-19T12:39:23Z</time>
      </trkpt>
      <trkpt lat="45.69" lon="5.33874">
        <ele>250.4</ele>
        <time>2024-09-19T12:39:24Z</time>
      </trkpt>
      <trkpt lat="45.69001" lon="5.33867">
        <ele>250.2</ele>
        <time>2024-09-19T12:39:25Z</time>
      </trkpt>
      <trkpt lat="45.69001" lon="5.33861">
        <ele>249.4</ele>
        <time>2024-09-19T12:39:26Z</time>
      </trkpt>
      <trkpt lat="45.69" lon="5.33853">
        <ele>249.4</ele>
        <time>2024-09-19T12:39:27Z</time>
      </trkpt>
      <trkpt lat="45.69" lon="5.33848">
        <ele>249.4</ele>
        <time>2024-09-19T12:39:28Z</time>
      </trkpt>
      <trkpt lat="45.68999" lon="5.33841">
        <ele>249.4</ele>
        <time>2024-09-19T12:39:29Z</time>
      </trkpt>
      <trkpt lat="45.69" lon="5.33835">
        <ele>249.4</ele>
        <time>2024-09-19T12:39:30Z</time>
      </trkpt>
      <trkpt lat="45.68997" lon="5.33828">
        <ele>249</ele>
        <time>2024-09-19T12:39:31Z</time>
      </trkpt>
      <trkpt lat="45.68997" lon="5.33821">
        <ele>249</ele>
        <time>2024-09-19T12:39:32Z</time>
      </trkpt>
      <trkpt lat="45.68996" lon="5.33815">
        <ele>249</ele>
        <time>2024-09-19T12:39:33Z</time>
      </trkpt>
      <trkpt lat="45.68995" lon="5.33809">
        <ele>248.8</ele>
        <time>2024-09-19T12:39:34Z</time>
      </trkpt>
      <trkpt lat="45.68995" lon="5.33803">
        <ele>248.8</ele>
        <time>2024-09-19T12:39:35Z</time>
      </trkpt>
      <trkpt lat="45.68992" lon="5.33798">
        <ele>248.8</ele>
        <time>2024-09-19T12:39:36Z</time>
      </trkpt>
      <trkpt lat="45.68992" lon="5.33793">
        <ele>249.2</ele>
        <time>2024-09-19T12:39:37Z</time>
      </trkpt>
      <trkpt lat="45.68992" lon="5.33786">
        <ele>249.2</ele>
        <time>2024-09-19T12:39:38Z</time>
      </trkpt>
      <trkpt lat="45.68991" lon="5.33781">
        <ele>249.2</ele>
        <time>2024-09-19T12:39:39Z</time>
      </trkpt>
      <trkpt lat="45.6899" lon="5.33774">
        <ele>249.2</ele>
        <time>2024-09-19T12:39:40Z</time>
      </trkpt>
      <trkpt lat="45.6899" lon="5.3377">
        <ele>249.2</ele>
        <time>2024-09-19T12:39:41Z</time>
      </trkpt>
      <trkpt lat="45.68989" lon="5.33764">
        <ele>248.4</ele>
        <time>2024-09-19T12:39:42Z</time>
      </trkpt>
      <trkpt lat="45.68989" lon="5.33758">
        <ele>248.4</ele>
        <time>2024-09-19T12:39:43Z</time>
      </trkpt>
      <trkpt lat="45.68988" lon="5.33753">
        <ele>248.4</ele>
        <time>2024-09-19T12:39:44Z</time>
      </trkpt>
      <trkpt lat="45.68986" lon="5.33748">
        <ele>248.4</ele>
        <time>2024-09-19T12:39:45Z</time>
      </trkpt>
      <trkpt lat="45.68984" lon="5.33742">
        <ele>248</ele>
        <time>2024-09-19T12:39:46Z</time>
      </trkpt>
      <trkpt lat="45.68983" lon="5.33737">
        <ele>248</ele>
        <time>2024-09-19T12:39:47Z</time>
      </trkpt>
      <trkpt lat="45.68981" lon="5.33732">
        <ele>248.6</ele>
        <time>2024-09-19T12:39:48Z</time>
      </trkpt>
      <trkpt lat="45.68978" lon="5.33728">
        <ele>248.6</ele>
        <time>2024-09-19T12:39:49Z</time>
      </trkpt>
      <trkpt lat="45.68977" lon="5.33722">
        <ele>249.4</ele>
        <time>2024-09-19T12:39:50Z</time>
      </trkpt>
      <trkpt lat="45.68975" lon="5.33716">
        <ele>248.8</ele>
        <time>2024-09-19T12:39:51Z</time>
      </trkpt>
      <trkpt lat="45.68973" lon="5.3371">
        <ele>248.4</ele>
        <time>2024-09-19T12:39:52Z</time>
      </trkpt>
      <trkpt lat="45.68971" lon="5.33703">
        <ele>248.4</ele>
        <time>2024-09-19T12:39:53Z</time>
      </trkpt>
      <trkpt lat="45.68969" lon="5.33697">
        <ele>248.4</ele>
        <time>2024-09-19T12:39:54Z</time>
      </trkpt>
      <trkpt lat="45.68966" lon="5.33692">
        <ele>248.6</ele>
        <time>2024-09-19T12:39:55Z</time>
      </trkpt>
      <trkpt lat="45.68963" lon="5.33684">
        <ele>248.6</ele>
        <time>2024-09-19T12:39:56Z</time>
      </trkpt>
      <trkpt lat="45.68963" lon="5.33684">
        <ele>248</ele>
        <time>2024-09-19T12:39:57Z</time>
      </trkpt>
      <trkpt lat="45.68963" lon="5.33684">
        <ele>248</ele>
        <time>2024-09-19T12:39:58Z</time>
      </trkpt>
      <trkpt lat="45.68954" lon="5.3366">
        <ele>248.4</ele>
        <time>2024-09-19T12:40:00Z</time>
      </trkpt>
      <trkpt lat="45.68952" lon="5.33655">
        <ele>248.4</ele>
        <time>2024-09-19T12:40:01Z</time>
      </trkpt>
      <trkpt lat="45.68951" lon="5.33649">
        <ele>248.2</ele>
        <time>2024-09-19T12:40:02Z</time>
      </trkpt>
      <trkpt lat="45.68949" lon="5.33643">
        <ele>248.2</ele>
        <time>2024-09-19T12:40:03Z</time>
      </trkpt>
      <trkpt lat="45.68945" lon="5.33637">
        <ele>248.4</ele>
        <time>2024-09-19T12:40:04Z</time>
      </trkpt>
      <trkpt lat="45.68944" lon="5.33632">
        <ele>248.4</ele>
        <time>2024-09-19T12:40:05Z</time>
      </trkpt>
      <trkpt lat="45.68943" lon="5.33627">
        <ele>248.4</ele>
        <time>2024-09-19T12:40:06Z</time>
      </trkpt>
      <trkpt lat="45.68942" lon="5.33622">
        <ele>248.4</ele>
        <time>2024-09-19T12:40:07Z</time>
      </trkpt>
      <trkpt lat="45.6894" lon="5.33618">
        <ele>248.2</ele>
        <time>2024-09-19T12:40:08Z</time>
      </trkpt>
      <trkpt lat="45.68939" lon="5.33613">
        <ele>248.2</ele>
        <time>2024-09-19T12:40:09Z</time>
      </trkpt>
      <trkpt lat="45.68937" lon="5.33609">
        <ele>248.2</ele>
        <time>2024-09-19T12:40:10Z</time>
      </trkpt>
      <trkpt lat="45.68936" lon="5.33604">
        <ele>248.2</ele>
        <time>2024-09-19T12:40:11Z</time>
      </trkpt>
      <trkpt lat="45.68936" lon="5.336">
        <ele>248.2</ele>
        <time>2024-09-19T12:40:12Z</time>
      </trkpt>
      <trkpt lat="45.68935" lon="5.33596">
        <ele>248.2</ele>
        <time>2024-09-19T12:40:13Z</time>
      </trkpt>
      <trkpt lat="45.68933" lon="5.33592">
        <ele>248.2</ele>
        <time>2024-09-19T12:40:14Z</time>
      </trkpt>
      <trkpt lat="45.68932" lon="5.33588">
        <ele>248.2</ele>
        <time>2024-09-19T12:40:15Z</time>
      </trkpt>
      <trkpt lat="45.68931" lon="5.33583">
        <ele>248.2</ele>
        <time>2024-09-19T12:40:16Z</time>
      </trkpt>
      <trkpt lat="45.6893" lon="5.33578">
        <ele>248.6</ele>
        <time>2024-09-19T12:40:17Z</time>
      </trkpt>
      <trkpt lat="45.6893" lon="5.33574">
        <ele>248.6</ele>
        <time>2024-09-19T12:40:18Z</time>
      </trkpt>
      <trkpt lat="45.68928" lon="5.33569">
        <ele>248.6</ele>
        <time>2024-09-19T12:40:19Z</time>
      </trkpt>
      <trkpt lat="45.68926" lon="5.33563">
        <ele>248.8</ele>
        <time>2024-09-19T12:40:20Z</time>
      </trkpt>
      <trkpt lat="45.68925" lon="5.33558">
        <ele>248.8</ele>
        <time>2024-09-19T12:40:21Z</time>
      </trkpt>
      <trkpt lat="45.68923" lon="5.33553">
        <ele>248</ele>
        <time>2024-09-19T12:40:22Z</time>
      </trkpt>
      <trkpt lat="45.68921" lon="5.33549">
        <ele>248</ele>
        <time>2024-09-19T12:40:23Z</time>
      </trkpt>
      <trkpt lat="45.68918" lon="5.33545">
        <ele>248</ele>
        <time>2024-09-19T12:40:24Z</time>
      </trkpt>
      <trkpt lat="45.68913" lon="5.33534">
        <ele>247.6</ele>
        <time>2024-09-19T12:40:25Z</time>
      </trkpt>
      <trkpt lat="45.68912" lon="5.33527">
        <ele>247.6</ele>
        <time>2024-09-19T12:40:26Z</time>
      </trkpt>
      <trkpt lat="45.68909" lon="5.3352">
        <ele>248.2</ele>
        <time>2024-09-19T12:40:27Z</time>
      </trkpt>
      <trkpt lat="45.68905" lon="5.33513">
        <ele>248.2</ele>
        <time>2024-09-19T12:40:28Z</time>
      </trkpt>
      <trkpt lat="45.68903" lon="5.33506">
        <ele>248.2</ele>
        <time>2024-09-19T12:40:29Z</time>
      </trkpt>
      <trkpt lat="45.68901" lon="5.33499">
        <ele>248.2</ele>
        <time>2024-09-19T12:40:30Z</time>
      </trkpt>
      <trkpt lat="45.68898" lon="5.33492">
        <ele>248.4</ele>
        <time>2024-09-19T12:40:31Z</time>
      </trkpt>
      <trkpt lat="45.68896" lon="5.33486">
        <ele>248.4</ele>
        <time>2024-09-19T12:40:32Z</time>
      </trkpt>
      <trkpt lat="45.68894" lon="5.3348">
        <ele>248.4</ele>
        <time>2024-09-19T12:40:33Z</time>
      </trkpt>
      <trkpt lat="45.68892" lon="5.33474">
        <ele>248.8</ele>
        <time>2024-09-19T12:40:34Z</time>
      </trkpt>
      <trkpt lat="45.6889" lon="5.33468">
        <ele>248.8</ele>
        <time>2024-09-19T12:40:35Z</time>
      </trkpt>
      <trkpt lat="45.68888" lon="5.33461">
        <ele>248.8</ele>
        <time>2024-09-19T12:40:36Z</time>
      </trkpt>
      <trkpt lat="45.68887" lon="5.33455">
        <ele>248.8</ele>
        <time>2024-09-19T12:40:37Z</time>
      </trkpt>
      <trkpt lat="45.68885" lon="5.33449">
        <ele>248.8</ele>
        <time>2024-09-19T12:40:38Z</time>
      </trkpt>
      <trkpt lat="45.68882" lon="5.33443">
        <ele>248.8</ele>
        <time>2024-09-19T12:40:39Z</time>
      </trkpt>
      <trkpt lat="45.68881" lon="5.33437">
        <ele>248.8</ele>
        <time>2024-09-19T12:40:40Z</time>
      </trkpt>
      <trkpt lat="45.68878" lon="5.33431">
        <ele>249</ele>
        <time>2024-09-19T12:40:41Z</time>
      </trkpt>
      <trkpt lat="45.68876" lon="5.33425">
        <ele>248.6</ele>
        <time>2024-09-19T12:40:42Z</time>
      </trkpt>
      <trkpt lat="45.68874" lon="5.33421">
        <ele>248.8</ele>
        <time>2024-09-19T12:40:43Z</time>
      </trkpt>
      <trkpt lat="45.68872" lon="5.33414">
        <ele>249</ele>
        <time>2024-09-19T12:40:44Z</time>
      </trkpt>
      <trkpt lat="45.6887" lon="5.33409">
        <ele>249</ele>
        <time>2024-09-19T12:40:45Z</time>
      </trkpt>
      <trkpt lat="45.6887" lon="5.33405">
        <ele>248.6</ele>
        <time>2024-09-19T12:40:46Z</time>
      </trkpt>
      <trkpt lat="45.68867" lon="5.334">
        <ele>248.6</ele>
        <time>2024-09-19T12:40:47Z</time>
      </trkpt>
      <trkpt lat="45.68866" lon="5.33394">
        <ele>249.2</ele>
        <time>2024-09-19T12:40:48Z</time>
      </trkpt>
      <trkpt lat="45.68862" lon="5.33388">
        <ele>249.4</ele>
        <time>2024-09-19T12:40:49Z</time>
      </trkpt>
      <trkpt lat="45.6886" lon="5.33382">
        <ele>249.4</ele>
        <time>2024-09-19T12:40:50Z</time>
      </trkpt>
      <trkpt lat="45.68858" lon="5.33376">
        <ele>249.4</ele>
        <time>2024-09-19T12:40:51Z</time>
      </trkpt>
      <trkpt lat="45.68855" lon="5.3337">
        <ele>249.6</ele>
        <time>2024-09-19T12:40:52Z</time>
      </trkpt>
      <trkpt lat="45.68853" lon="5.33365">
        <ele>248.8</ele>
        <time>2024-09-19T12:40:53Z</time>
      </trkpt>
      <trkpt lat="45.6885" lon="5.33358">
        <ele>249.4</ele>
        <time>2024-09-19T12:40:54Z</time>
      </trkpt>
      <trkpt lat="45.68848" lon="5.33352">
        <ele>248.8</ele>
        <time>2024-09-19T12:40:55Z</time>
      </trkpt>
      <trkpt lat="45.68846" lon="5.33346">
        <ele>248.8</ele>
        <time>2024-09-19T12:40:56Z</time>
      </trkpt>
      <trkpt lat="45.68843" lon="5.3334">
        <ele>248.4</ele>
        <time>2024-09-19T12:40:57Z</time>
      </trkpt>
      <trkpt lat="45.68842" lon="5.33334">
        <ele>249</ele>
        <time>2024-09-19T12:40:58Z</time>
      </trkpt>
      <trkpt lat="45.6884" lon="5.33327">
        <ele>249.4</ele>
        <time>2024-09-19T12:40:59Z</time>
      </trkpt>
      <trkpt lat="45.68837" lon="5.33321">
        <ele>249.8</ele>
        <time>2024-09-19T12:41:00Z</time>
      </trkpt>
      <trkpt lat="45.68835" lon="5.33315">
        <ele>249.8</ele>
        <time>2024-09-19T12:41:01Z</time>
      </trkpt>
      <trkpt lat="45.68833" lon="5.33308">
        <ele>249.8</ele>
        <time>2024-09-19T12:41:02Z</time>
      </trkpt>
      <trkpt lat="45.68831" lon="5.33302">
        <ele>250</ele>
        <time>2024-09-19T12:41:03Z</time>
      </trkpt>
      <trkpt lat="45.68829" lon="5.33295">
        <ele>250</ele>
        <time>2024-09-19T12:41:04Z</time>
      </trkpt>
      <trkpt lat="45.68827" lon="5.33289">
        <ele>250</ele>
        <time>2024-09-19T12:41:05Z</time>
      </trkpt>
      <trkpt lat="45.68825" lon="5.33283">
        <ele>250</ele>
        <time>2024-09-19T12:41:06Z</time>
      </trkpt>
      <trkpt lat="45.68823" lon="5.33278">
        <ele>249.8</ele>
        <time>2024-09-19T12:41:07Z</time>
      </trkpt>
      <trkpt lat="45.68821" lon="5.33271">
        <ele>249.8</ele>
        <time>2024-09-19T12:41:08Z</time>
      </trkpt>
      <trkpt lat="45.68818" lon="5.33266">
        <ele>249.8</ele>
        <time>2024-09-19T12:41:09Z</time>
      </trkpt>
      <trkpt lat="45.68816" lon="5.33259">
        <ele>250</ele>
        <time>2024-09-19T12:41:10Z</time>
      </trkpt>
      <trkpt lat="45.68815" lon="5.33254">
        <ele>250</ele>
        <time>2024-09-19T12:41:11Z</time>
      </trkpt>
      <trkpt lat="45.68812" lon="5.33246">
        <ele>250.4</ele>
        <time>2024-09-19T12:41:12Z</time>
      </trkpt>
      <trkpt lat="45.6881" lon="5.3324">
        <ele>249.8</ele>
        <time>2024-09-19T12:41:13Z</time>
      </trkpt>
      <trkpt lat="45.68808" lon="5.33234">
        <ele>249.8</ele>
        <time>2024-09-19T12:41:14Z</time>
      </trkpt>
      <trkpt lat="45.68806" lon="5.33229">
        <ele>249.8</ele>
        <time>2024-09-19T12:41:15Z</time>
      </trkpt>
      <trkpt lat="45.68806" lon="5.33229">
        <ele>249.8</ele>
        <time>2024-09-19T12:41:16Z</time>
      </trkpt>
      <trkpt lat="45.68802" lon="5.33215">
        <ele>249.8</ele>
        <time>2024-09-19T12:41:17Z</time>
      </trkpt>
      <trkpt lat="45.688" lon="5.3321">
        <ele>249.8</ele>
        <time>2024-09-19T12:41:18Z</time>
      </trkpt>
      <trkpt lat="45.68798" lon="5.33205">
        <ele>250</ele>
        <time>2024-09-19T12:41:19Z</time>
      </trkpt>
      <trkpt lat="45.68795" lon="5.33199">
        <ele>250</ele>
        <time>2024-09-19T12:41:20Z</time>
      </trkpt>
      <trkpt lat="45.68792" lon="5.33192">
        <ele>250</ele>
        <time>2024-09-19T12:41:21Z</time>
      </trkpt>
      <trkpt lat="45.68789" lon="5.33188">
        <ele>250</ele>
        <time>2024-09-19T12:41:22Z</time>
      </trkpt>
      <trkpt lat="45.68787" lon="5.33182">
        <ele>250</ele>
        <time>2024-09-19T12:41:23Z</time>
      </trkpt>
      <trkpt lat="45.68785" lon="5.33176">
        <ele>249.8</ele>
        <time>2024-09-19T12:41:24Z</time>
      </trkpt>
      <trkpt lat="45.68783" lon="5.3317">
        <ele>250.4</ele>
        <time>2024-09-19T12:41:25Z</time>
      </trkpt>
      <trkpt lat="45.68781" lon="5.33164">
        <ele>250.4</ele>
        <time>2024-09-19T12:41:26Z</time>
      </trkpt>
      <trkpt lat="45.68779" lon="5.33158">
        <ele>250.4</ele>
        <time>2024-09-19T12:41:27Z</time>
      </trkpt>
      <trkpt lat="45.68776" lon="5.33152">
        <ele>250.4</ele>
        <time>2024-09-19T12:41:28Z</time>
      </trkpt>
      <trkpt lat="45.68775" lon="5.33143">
        <ele>250.4</ele>
        <time>2024-09-19T12:41:29Z</time>
      </trkpt>
      <trkpt lat="45.68773" lon="5.33137">
        <ele>250.4</ele>
        <time>2024-09-19T12:41:30Z</time>
      </trkpt>
      <trkpt lat="45.68771" lon="5.33131">
        <ele>250.4</ele>
        <time>2024-09-19T12:41:31Z</time>
      </trkpt>
      <trkpt lat="45.68768" lon="5.33125">
        <ele>250.4</ele>
        <time>2024-09-19T12:41:32Z</time>
      </trkpt>
      <trkpt lat="45.68767" lon="5.33118">
        <ele>250.8</ele>
        <time>2024-09-19T12:41:33Z</time>
      </trkpt>
      <trkpt lat="45.68764" lon="5.33111">
        <ele>251</ele>
        <time>2024-09-19T12:41:34Z</time>
      </trkpt>
      <trkpt lat="45.68763" lon="5.33105">
        <ele>251.2</ele>
        <time>2024-09-19T12:41:35Z</time>
      </trkpt>
      <trkpt lat="45.68761" lon="5.331">
        <ele>251</ele>
        <time>2024-09-19T12:41:36Z</time>
      </trkpt>
      <trkpt lat="45.68758" lon="5.33093">
        <ele>251</ele>
        <time>2024-09-19T12:41:37Z</time>
      </trkpt>
      <trkpt lat="45.68756" lon="5.33087">
        <ele>250.6</ele>
        <time>2024-09-19T12:41:38Z</time>
      </trkpt>
      <trkpt lat="45.68754" lon="5.33082">
        <ele>251.2</ele>
        <time>2024-09-19T12:41:39Z</time>
      </trkpt>
      <trkpt lat="45.68752" lon="5.33076">
        <ele>252</ele>
        <time>2024-09-19T12:41:40Z</time>
      </trkpt>
      <trkpt lat="45.68751" lon="5.3307">
        <ele>251.6</ele>
        <time>2024-09-19T12:41:41Z</time>
      </trkpt>
      <trkpt lat="45.68749" lon="5.33063">
        <ele>251.6</ele>
        <time>2024-09-19T12:41:42Z</time>
      </trkpt>
      <trkpt lat="45.68746" lon="5.33057">
        <ele>251</ele>
        <time>2024-09-19T12:41:43Z</time>
      </trkpt>
      <trkpt lat="45.68744" lon="5.33051">
        <ele>251</ele>
        <time>2024-09-19T12:41:44Z</time>
      </trkpt>
      <trkpt lat="45.68742" lon="5.33044">
        <ele>251.2</ele>
        <time>2024-09-19T12:41:45Z</time>
      </trkpt>
      <trkpt lat="45.6874" lon="5.33038">
        <ele>252.4</ele>
        <time>2024-09-19T12:41:46Z</time>
      </trkpt>
      <trkpt lat="45.68738" lon="5.33032">
        <ele>252.4</ele>
        <time>2024-09-19T12:41:47Z</time>
      </trkpt>
      <trkpt lat="45.68736" lon="5.33026">
        <ele>252.4</ele>
        <time>2024-09-19T12:41:48Z</time>
      </trkpt>
      <trkpt lat="45.68734" lon="5.3302">
        <ele>251.8</ele>
        <time>2024-09-19T12:41:49Z</time>
      </trkpt>
      <trkpt lat="45.68733" lon="5.33014">
        <ele>251.4</ele>
        <time>2024-09-19T12:41:50Z</time>
      </trkpt>
      <trkpt lat="45.6873" lon="5.33008">
        <ele>251.8</ele>
        <time>2024-09-19T12:41:51Z</time>
      </trkpt>
      <trkpt lat="45.68728" lon="5.33002">
        <ele>251.8</ele>
        <time>2024-09-19T12:41:52Z</time>
      </trkpt>
      <trkpt lat="45.68726" lon="5.32997">
        <ele>251.8</ele>
        <time>2024-09-19T12:41:53Z</time>
      </trkpt>
      <trkpt lat="45.68724" lon="5.32991">
        <ele>252.2</ele>
        <time>2024-09-19T12:41:54Z</time>
      </trkpt>
      <trkpt lat="45.68722" lon="5.32985">
        <ele>252.8</ele>
        <time>2024-09-19T12:41:55Z</time>
      </trkpt>
      <trkpt lat="45.6872" lon="5.32979">
        <ele>253</ele>
        <time>2024-09-19T12:41:56Z</time>
      </trkpt>
      <trkpt lat="45.68718" lon="5.32973">
        <ele>252.4</ele>
        <time>2024-09-19T12:41:57Z</time>
      </trkpt>
      <trkpt lat="45.68716" lon="5.32967">
        <ele>252</ele>
        <time>2024-09-19T12:41:58Z</time>
      </trkpt>
      <trkpt lat="45.68714" lon="5.32961">
        <ele>252</ele>
        <time>2024-09-19T12:41:59Z</time>
      </trkpt>
      <trkpt lat="45.68711" lon="5.32955">
        <ele>252</ele>
        <time>2024-09-19T12:42:00Z</time>
      </trkpt>
      <trkpt lat="45.6871" lon="5.32949">
        <ele>252</ele>
        <time>2024-09-19T12:42:01Z</time>
      </trkpt>
      <trkpt lat="45.68708" lon="5.32943">
        <ele>252.4</ele>
        <time>2024-09-19T12:42:02Z</time>
      </trkpt>
      <trkpt lat="45.68705" lon="5.32937">
        <ele>253</ele>
        <time>2024-09-19T12:42:03Z</time>
      </trkpt>
      <trkpt lat="45.68703" lon="5.32931">
        <ele>252.4</ele>
        <time>2024-09-19T12:42:04Z</time>
      </trkpt>
      <trkpt lat="45.68701" lon="5.32925">
        <ele>252.4</ele>
        <time>2024-09-19T12:42:05Z</time>
      </trkpt>
      <trkpt lat="45.68699" lon="5.32919">
        <ele>251.8</ele>
        <time>2024-09-19T12:42:06Z</time>
      </trkpt>
      <trkpt lat="45.68696" lon="5.32913">
        <ele>251.8</ele>
        <time>2024-09-19T12:42:07Z</time>
      </trkpt>
      <trkpt lat="45.68694" lon="5.32907">
        <ele>251.8</ele>
        <time>2024-09-19T12:42:08Z</time>
      </trkpt>
      <trkpt lat="45.68693" lon="5.329">
        <ele>252.2</ele>
        <time>2024-09-19T12:42:09Z</time>
      </trkpt>
      <trkpt lat="45.68691" lon="5.32893">
        <ele>252.6</ele>
        <time>2024-09-19T12:42:10Z</time>
      </trkpt>
      <trkpt lat="45.68688" lon="5.32887">
        <ele>252</ele>
        <time>2024-09-19T12:42:11Z</time>
      </trkpt>
      <trkpt lat="45.68686" lon="5.32881">
        <ele>252.4</ele>
        <time>2024-09-19T12:42:12Z</time>
      </trkpt>
      <trkpt lat="45.68684" lon="5.32875">
        <ele>252.6</ele>
        <time>2024-09-19T12:42:13Z</time>
      </trkpt>
      <trkpt lat="45.68682" lon="5.32869">
        <ele>253</ele>
        <time>2024-09-19T12:42:14Z</time>
      </trkpt>
      <trkpt lat="45.68679" lon="5.32863">
        <ele>253</ele>
        <time>2024-09-19T12:42:15Z</time>
      </trkpt>
      <trkpt lat="45.68677" lon="5.32856">
        <ele>253.2</ele>
        <time>2024-09-19T12:42:16Z</time>
      </trkpt>
      <trkpt lat="45.68675" lon="5.3285">
        <ele>253.2</ele>
        <time>2024-09-19T12:42:17Z</time>
      </trkpt>
      <trkpt lat="45.68673" lon="5.32843">
        <ele>253.2</ele>
        <time>2024-09-19T12:42:18Z</time>
      </trkpt>
      <trkpt lat="45.68671" lon="5.32837">
        <ele>253.2</ele>
        <time>2024-09-19T12:42:19Z</time>
      </trkpt>
      <trkpt lat="45.68668" lon="5.32831">
        <ele>253.2</ele>
        <time>2024-09-19T12:42:20Z</time>
      </trkpt>
      <trkpt lat="45.68666" lon="5.32825">
        <ele>252.8</ele>
        <time>2024-09-19T12:42:21Z</time>
      </trkpt>
      <trkpt lat="45.68664" lon="5.32819">
        <ele>253.4</ele>
        <time>2024-09-19T12:42:22Z</time>
      </trkpt>
      <trkpt lat="45.68662" lon="5.32813">
        <ele>253.4</ele>
        <time>2024-09-19T12:42:23Z</time>
      </trkpt>
      <trkpt lat="45.6866" lon="5.32807">
        <ele>253.4</ele>
        <time>2024-09-19T12:42:24Z</time>
      </trkpt>
      <trkpt lat="45.68658" lon="5.32801">
        <ele>253.4</ele>
        <time>2024-09-19T12:42:25Z</time>
      </trkpt>
      <trkpt lat="45.68656" lon="5.32795">
        <ele>253.8</ele>
        <time>2024-09-19T12:42:26Z</time>
      </trkpt>
      <trkpt lat="45.68654" lon="5.32789">
        <ele>253.8</ele>
        <time>2024-09-19T12:42:27Z</time>
      </trkpt>
      <trkpt lat="45.68652" lon="5.32783">
        <ele>254.2</ele>
        <time>2024-09-19T12:42:28Z</time>
      </trkpt>
      <trkpt lat="45.68649" lon="5.32777">
        <ele>254.2</ele>
        <time>2024-09-19T12:42:29Z</time>
      </trkpt>
      <trkpt lat="45.68647" lon="5.32771">
        <ele>253.6</ele>
        <time>2024-09-19T12:42:30Z</time>
      </trkpt>
      <trkpt lat="45.68645" lon="5.32764">
        <ele>254</ele>
        <time>2024-09-19T12:42:31Z</time>
      </trkpt>
      <trkpt lat="45.68642" lon="5.32758">
        <ele>254</ele>
        <time>2024-09-19T12:42:32Z</time>
      </trkpt>
      <trkpt lat="45.68639" lon="5.32753">
        <ele>254.2</ele>
        <time>2024-09-19T12:42:33Z</time>
      </trkpt>
      <trkpt lat="45.68637" lon="5.32746">
        <ele>254.2</ele>
        <time>2024-09-19T12:42:34Z</time>
      </trkpt>
      <trkpt lat="45.68636" lon="5.32741">
        <ele>254.2</ele>
        <time>2024-09-19T12:42:35Z</time>
      </trkpt>
      <trkpt lat="45.68632" lon="5.32735">
        <ele>255</ele>
        <time>2024-09-19T12:42:36Z</time>
      </trkpt>
      <trkpt lat="45.68629" lon="5.32728">
        <ele>254.8</ele>
        <time>2024-09-19T12:42:37Z</time>
      </trkpt>
      <trkpt lat="45.68627" lon="5.32723">
        <ele>254.8</ele>
        <time>2024-09-19T12:42:38Z</time>
      </trkpt>
      <trkpt lat="45.68625" lon="5.32716">
        <ele>254.8</ele>
        <time>2024-09-19T12:42:39Z</time>
      </trkpt>
      <trkpt lat="45.68622" lon="5.32711">
        <ele>255</ele>
        <time>2024-09-19T12:42:40Z</time>
      </trkpt>
      <trkpt lat="45.68621" lon="5.32705">
        <ele>254.6</ele>
        <time>2024-09-19T12:42:41Z</time>
      </trkpt>
      <trkpt lat="45.68618" lon="5.32698">
        <ele>254.6</ele>
        <time>2024-09-19T12:42:42Z</time>
      </trkpt>
      <trkpt lat="45.68615" lon="5.32691">
        <ele>254.6</ele>
        <time>2024-09-19T12:42:43Z</time>
      </trkpt>
      <trkpt lat="45.68613" lon="5.32686">
        <ele>254.6</ele>
        <time>2024-09-19T12:42:44Z</time>
      </trkpt>
      <trkpt lat="45.68611" lon="5.3268">
        <ele>255</ele>
        <time>2024-09-19T12:42:45Z</time>
      </trkpt>
      <trkpt lat="45.68609" lon="5.32675">
        <ele>255</ele>
        <time>2024-09-19T12:42:46Z</time>
      </trkpt>
      <trkpt lat="45.68606" lon="5.3267">
        <ele>255.6</ele>
        <time>2024-09-19T12:42:47Z</time>
      </trkpt>
      <trkpt lat="45.68604" lon="5.32665">
        <ele>255.2</ele>
        <time>2024-09-19T12:42:48Z</time>
      </trkpt>
      <trkpt lat="45.68602" lon="5.32659">
        <ele>254.8</ele>
        <time>2024-09-19T12:42:49Z</time>
      </trkpt>
      <trkpt lat="45.686" lon="5.32655">
        <ele>254.8</ele>
        <time>2024-09-19T12:42:50Z</time>
      </trkpt>
      <trkpt lat="45.68598" lon="5.3265">
        <ele>254.8</ele>
        <time>2024-09-19T12:42:51Z</time>
      </trkpt>
      <trkpt lat="45.68598" lon="5.3265">
        <ele>254.2</ele>
        <time>2024-09-19T12:42:52Z</time>
      </trkpt>
      <trkpt lat="45.68596" lon="5.32644">
        <ele>254.6</ele>
        <time>2024-09-19T12:42:53Z</time>
      </trkpt>
      <trkpt lat="45.68594" lon="5.32639">
        <ele>255</ele>
        <time>2024-09-19T12:42:54Z</time>
      </trkpt>
      <trkpt lat="45.68591" lon="5.32633">
        <ele>255</ele>
        <time>2024-09-19T12:42:55Z</time>
      </trkpt>
      <trkpt lat="45.68589" lon="5.32628">
        <ele>255</ele>
        <time>2024-09-19T12:42:56Z</time>
      </trkpt>
      <trkpt lat="45.68587" lon="5.32622">
        <ele>254.8</ele>
        <time>2024-09-19T12:42:57Z</time>
      </trkpt>
      <trkpt lat="45.68585" lon="5.32617">
        <ele>254.8</ele>
        <time>2024-09-19T12:42:58Z</time>
      </trkpt>
      <trkpt lat="45.68582" lon="5.32612">
        <ele>255.2</ele>
        <time>2024-09-19T12:42:59Z</time>
      </trkpt>
      <trkpt lat="45.68579" lon="5.32606">
        <ele>255.4</ele>
        <time>2024-09-19T12:43:00Z</time>
      </trkpt>
      <trkpt lat="45.68577" lon="5.32602">
        <ele>255</ele>
        <time>2024-09-19T12:43:01Z</time>
      </trkpt>
      <trkpt lat="45.68574" lon="5.32598">
        <ele>255.4</ele>
        <time>2024-09-19T12:43:02Z</time>
      </trkpt>
      <trkpt lat="45.68572" lon="5.32592">
        <ele>255.4</ele>
        <time>2024-09-19T12:43:03Z</time>
      </trkpt>
      <trkpt lat="45.68567" lon="5.32585">
        <ele>255.4</ele>
        <time>2024-09-19T12:43:04Z</time>
      </trkpt>
      <trkpt lat="45.68565" lon="5.32581">
        <ele>255.6</ele>
        <time>2024-09-19T12:43:05Z</time>
      </trkpt>
      <trkpt lat="45.68562" lon="5.32576">
        <ele>255.6</ele>
        <time>2024-09-19T12:43:06Z</time>
      </trkpt>
      <trkpt lat="45.68561" lon="5.3257">
        <ele>255.6</ele>
        <time>2024-09-19T12:43:07Z</time>
      </trkpt>
      <trkpt lat="45.68559" lon="5.32565">
        <ele>255.6</ele>
        <time>2024-09-19T12:43:08Z</time>
      </trkpt>
      <trkpt lat="45.68557" lon="5.3256">
        <ele>255.6</ele>
        <time>2024-09-19T12:43:09Z</time>
      </trkpt>
      <trkpt lat="45.68555" lon="5.32557">
        <ele>255.6</ele>
        <time>2024-09-19T12:43:10Z</time>
      </trkpt>
      <trkpt lat="45.68553" lon="5.32551">
        <ele>255.6</ele>
        <time>2024-09-19T12:43:11Z</time>
      </trkpt>
      <trkpt lat="45.6855" lon="5.32546">
        <ele>256.2</ele>
        <time>2024-09-19T12:43:12Z</time>
      </trkpt>
      <trkpt lat="45.68548" lon="5.32542">
        <ele>256.4</ele>
        <time>2024-09-19T12:43:13Z</time>
      </trkpt>
      <trkpt lat="45.68546" lon="5.32538">
        <ele>256.4</ele>
        <time>2024-09-19T12:43:14Z</time>
      </trkpt>
      <trkpt lat="45.68544" lon="5.32533">
        <ele>256.4</ele>
        <time>2024-09-19T12:43:15Z</time>
      </trkpt>
      <trkpt lat="45.68542" lon="5.32528">
        <ele>256.4</ele>
        <time>2024-09-19T12:43:16Z</time>
      </trkpt>
      <trkpt lat="45.6854" lon="5.32523">
        <ele>256.8</ele>
        <time>2024-09-19T12:43:17Z</time>
      </trkpt>
      <trkpt lat="45.68539" lon="5.3252">
        <ele>256.8</ele>
        <time>2024-09-19T12:43:18Z</time>
      </trkpt>
      <trkpt lat="45.68538" lon="5.32517">
        <ele>257</ele>
        <time>2024-09-19T12:43:19Z</time>
      </trkpt>
      <trkpt lat="45.68537" lon="5.32513">
        <ele>257.2</ele>
        <time>2024-09-19T12:43:20Z</time>
      </trkpt>
      <trkpt lat="45.68536" lon="5.3251">
        <ele>257.2</ele>
        <time>2024-09-19T12:43:21Z</time>
      </trkpt>
      <trkpt lat="45.68533" lon="5.32507">
        <ele>257.2</ele>
        <time>2024-09-19T12:43:22Z</time>
      </trkpt>
      <trkpt lat="45.68532" lon="5.32504">
        <ele>257.6</ele>
        <time>2024-09-19T12:43:23Z</time>
      </trkpt>
      <trkpt lat="45.6853" lon="5.325">
        <ele>257.6</ele>
        <time>2024-09-19T12:43:24Z</time>
      </trkpt>
      <trkpt lat="45.68527" lon="5.32496">
        <ele>257.6</ele>
        <time>2024-09-19T12:43:25Z</time>
      </trkpt>
      <trkpt lat="45.68525" lon="5.32491">
        <ele>257.2</ele>
        <time>2024-09-19T12:43:26Z</time>
      </trkpt>
      <trkpt lat="45.68522" lon="5.32487">
        <ele>257.2</ele>
        <time>2024-09-19T12:43:27Z</time>
      </trkpt>
      <trkpt lat="45.6852" lon="5.32483">
        <ele>257.2</ele>
        <time>2024-09-19T12:43:28Z</time>
      </trkpt>
      <trkpt lat="45.68517" lon="5.32478">
        <ele>257.2</ele>
        <time>2024-09-19T12:43:29Z</time>
      </trkpt>
      <trkpt lat="45.68515" lon="5.32473">
        <ele>257.2</ele>
        <time>2024-09-19T12:43:30Z</time>
      </trkpt>
      <trkpt lat="45.68512" lon="5.32469">
        <ele>257</ele>
        <time>2024-09-19T12:43:31Z</time>
      </trkpt>
      <trkpt lat="45.6851" lon="5.32464">
        <ele>257</ele>
        <time>2024-09-19T12:43:32Z</time>
      </trkpt>
      <trkpt lat="45.68508" lon="5.32459">
        <ele>256.8</ele>
        <time>2024-09-19T12:43:33Z</time>
      </trkpt>
      <trkpt lat="45.68506" lon="5.32454">
        <ele>256.4</ele>
        <time>2024-09-19T12:43:34Z</time>
      </trkpt>
      <trkpt lat="45.68504" lon="5.32449">
        <ele>256.4</ele>
        <time>2024-09-19T12:43:35Z</time>
      </trkpt>
      <trkpt lat="45.68502" lon="5.32442">
        <ele>256.8</ele>
        <time>2024-09-19T12:43:36Z</time>
      </trkpt>
      <trkpt lat="45.68499" lon="5.32438">
        <ele>256.8</ele>
        <time>2024-09-19T12:43:37Z</time>
      </trkpt>
      <trkpt lat="45.68496" lon="5.32434">
        <ele>257</ele>
        <time>2024-09-19T12:43:38Z</time>
      </trkpt>
      <trkpt lat="45.68493" lon="5.32428">
        <ele>257.2</ele>
        <time>2024-09-19T12:43:39Z</time>
      </trkpt>
      <trkpt lat="45.68491" lon="5.32424">
        <ele>257.4</ele>
        <time>2024-09-19T12:43:40Z</time>
      </trkpt>
      <trkpt lat="45.68489" lon="5.32419">
        <ele>257.4</ele>
        <time>2024-09-19T12:43:41Z</time>
      </trkpt>
      <trkpt lat="45.68486" lon="5.32414">
        <ele>257.8</ele>
        <time>2024-09-19T12:43:42Z</time>
      </trkpt>
      <trkpt lat="45.68484" lon="5.32411">
        <ele>257.8</ele>
        <time>2024-09-19T12:43:43Z</time>
      </trkpt>
      <trkpt lat="45.68481" lon="5.32407">
        <ele>257.8</ele>
        <time>2024-09-19T12:43:44Z</time>
      </trkpt>
      <trkpt lat="45.68478" lon="5.32402">
        <ele>257.4</ele>
        <time>2024-09-19T12:43:45Z</time>
      </trkpt>
      <trkpt lat="45.68476" lon="5.32398">
        <ele>257.4</ele>
        <time>2024-09-19T12:43:46Z</time>
      </trkpt>
      <trkpt lat="45.68474" lon="5.32394">
        <ele>257.4</ele>
        <time>2024-09-19T12:43:47Z</time>
      </trkpt>
      <trkpt lat="45.68471" lon="5.32389">
        <ele>257.8</ele>
        <time>2024-09-19T12:43:48Z</time>
      </trkpt>
      <trkpt lat="45.68469" lon="5.32385">
        <ele>258</ele>
        <time>2024-09-19T12:43:49Z</time>
      </trkpt>
      <trkpt lat="45.68466" lon="5.32381">
        <ele>258</ele>
        <time>2024-09-19T12:43:50Z</time>
      </trkpt>
      <trkpt lat="45.68464" lon="5.32376">
        <ele>258</ele>
        <time>2024-09-19T12:43:51Z</time>
      </trkpt>
      <trkpt lat="45.68461" lon="5.32373">
        <ele>258</ele>
        <time>2024-09-19T12:43:52Z</time>
      </trkpt>
      <trkpt lat="45.68459" lon="5.32369">
        <ele>258</ele>
        <time>2024-09-19T12:43:53Z</time>
      </trkpt>
      <trkpt lat="45.68457" lon="5.32364">
        <ele>258</ele>
        <time>2024-09-19T12:43:54Z</time>
      </trkpt>
      <trkpt lat="45.68455" lon="5.3236">
        <ele>257.6</ele>
        <time>2024-09-19T12:43:55Z</time>
      </trkpt>
      <trkpt lat="45.68452" lon="5.32355">
        <ele>257.6</ele>
        <time>2024-09-19T12:43:56Z</time>
      </trkpt>
      <trkpt lat="45.6845" lon="5.32351">
        <ele>257.6</ele>
        <time>2024-09-19T12:43:57Z</time>
      </trkpt>
      <trkpt lat="45.68447" lon="5.32347">
        <ele>258</ele>
        <time>2024-09-19T12:43:58Z</time>
      </trkpt>
      <trkpt lat="45.68444" lon="5.32342">
        <ele>258.4</ele>
        <time>2024-09-19T12:43:59Z</time>
      </trkpt>
      <trkpt lat="45.68442" lon="5.32338">
        <ele>258.4</ele>
        <time>2024-09-19T12:44:00Z</time>
      </trkpt>
      <trkpt lat="45.68439" lon="5.32333">
        <ele>258.4</ele>
        <time>2024-09-19T12:44:01Z</time>
      </trkpt>
      <trkpt lat="45.68437" lon="5.32328">
        <ele>258.8</ele>
        <time>2024-09-19T12:44:02Z</time>
      </trkpt>
      <trkpt lat="45.68434" lon="5.32323">
        <ele>258.8</ele>
        <time>2024-09-19T12:44:03Z</time>
      </trkpt>
      <trkpt lat="45.68431" lon="5.32319">
        <ele>258.8</ele>
        <time>2024-09-19T12:44:04Z</time>
      </trkpt>
      <trkpt lat="45.68428" lon="5.32315">
        <ele>258.8</ele>
        <time>2024-09-19T12:44:05Z</time>
      </trkpt>
      <trkpt lat="45.68426" lon="5.3231">
        <ele>258.8</ele>
        <time>2024-09-19T12:44:06Z</time>
      </trkpt>
      <trkpt lat="45.68423" lon="5.32306">
        <ele>258.4</ele>
        <time>2024-09-19T12:44:07Z</time>
      </trkpt>
      <trkpt lat="45.68421" lon="5.32301">
        <ele>258.4</ele>
        <time>2024-09-19T12:44:08Z</time>
      </trkpt>
      <trkpt lat="45.68419" lon="5.32298">
        <ele>258.4</ele>
        <time>2024-09-19T12:44:09Z</time>
      </trkpt>
      <trkpt lat="45.68416" lon="5.32293">
        <ele>258.4</ele>
        <time>2024-09-19T12:44:10Z</time>
      </trkpt>
      <trkpt lat="45.68414" lon="5.32288">
        <ele>259</ele>
        <time>2024-09-19T12:44:11Z</time>
      </trkpt>
      <trkpt lat="45.68412" lon="5.32284">
        <ele>258.4</ele>
        <time>2024-09-19T12:44:12Z</time>
      </trkpt>
      <trkpt lat="45.68409" lon="5.32279">
        <ele>258.4</ele>
        <time>2024-09-19T12:44:13Z</time>
      </trkpt>
      <trkpt lat="45.68407" lon="5.32275">
        <ele>258</ele>
        <time>2024-09-19T12:44:14Z</time>
      </trkpt>
      <trkpt lat="45.68404" lon="5.3227">
        <ele>258</ele>
        <time>2024-09-19T12:44:15Z</time>
      </trkpt>
      <trkpt lat="45.68401" lon="5.32266">
        <ele>258</ele>
        <time>2024-09-19T12:44:16Z</time>
      </trkpt>
      <trkpt lat="45.68399" lon="5.32262">
        <ele>258</ele>
        <time>2024-09-19T12:44:17Z</time>
      </trkpt>
      <trkpt lat="45.68397" lon="5.32257">
        <ele>258.6</ele>
        <time>2024-09-19T12:44:18Z</time>
      </trkpt>
      <trkpt lat="45.68394" lon="5.32253">
        <ele>258.8</ele>
        <time>2024-09-19T12:44:19Z</time>
      </trkpt>
      <trkpt lat="45.68393" lon="5.32249">
        <ele>259.2</ele>
        <time>2024-09-19T12:44:20Z</time>
      </trkpt>
      <trkpt lat="45.6839" lon="5.32245">
        <ele>259.2</ele>
        <time>2024-09-19T12:44:21Z</time>
      </trkpt>
      <trkpt lat="45.68387" lon="5.32241">
        <ele>259</ele>
        <time>2024-09-19T12:44:22Z</time>
      </trkpt>
      <trkpt lat="45.68385" lon="5.32237">
        <ele>258.6</ele>
        <time>2024-09-19T12:44:23Z</time>
      </trkpt>
      <trkpt lat="45.68383" lon="5.32233">
        <ele>258.2</ele>
        <time>2024-09-19T12:44:24Z</time>
      </trkpt>
      <trkpt lat="45.68381" lon="5.32229">
        <ele>258.2</ele>
        <time>2024-09-19T12:44:25Z</time>
      </trkpt>
      <trkpt lat="45.68379" lon="5.32223">
        <ele>258.2</ele>
        <time>2024-09-19T12:44:26Z</time>
      </trkpt>
      <trkpt lat="45.68376" lon="5.32218">
        <ele>258.6</ele>
        <time>2024-09-19T12:44:27Z</time>
      </trkpt>
      <trkpt lat="45.68373" lon="5.32213">
        <ele>258.6</ele>
        <time>2024-09-19T12:44:28Z</time>
      </trkpt>
      <trkpt lat="45.68371" lon="5.32209">
        <ele>258.6</ele>
        <time>2024-09-19T12:44:29Z</time>
      </trkpt>
      <trkpt lat="45.68369" lon="5.32205">
        <ele>258.6</ele>
        <time>2024-09-19T12:44:30Z</time>
      </trkpt>
      <trkpt lat="45.68367" lon="5.322">
        <ele>259</ele>
        <time>2024-09-19T12:44:31Z</time>
      </trkpt>
      <trkpt lat="45.68365" lon="5.32196">
        <ele>259</ele>
        <time>2024-09-19T12:44:32Z</time>
      </trkpt>
      <trkpt lat="45.68363" lon="5.32192">
        <ele>259.2</ele>
        <time>2024-09-19T12:44:33Z</time>
      </trkpt>
      <trkpt lat="45.6836" lon="5.32184">
        <ele>259</ele>
        <time>2024-09-19T12:44:34Z</time>
      </trkpt>
      <trkpt lat="45.68357" lon="5.3218">
        <ele>258.6</ele>
        <time>2024-09-19T12:44:35Z</time>
      </trkpt>
      <trkpt lat="45.68355" lon="5.32173">
        <ele>258.4</ele>
        <time>2024-09-19T12:44:36Z</time>
      </trkpt>
      <trkpt lat="45.68352" lon="5.32168">
        <ele>259</ele>
        <time>2024-09-19T12:44:37Z</time>
      </trkpt>
      <trkpt lat="45.6835" lon="5.32163">
        <ele>259</ele>
        <time>2024-09-19T12:44:38Z</time>
      </trkpt>
      <trkpt lat="45.68347" lon="5.32158">
        <ele>259</ele>
        <time>2024-09-19T12:44:39Z</time>
      </trkpt>
      <trkpt lat="45.68344" lon="5.32153">
        <ele>259</ele>
        <time>2024-09-19T12:44:40Z</time>
      </trkpt>
      <trkpt lat="45.68342" lon="5.32147">
        <ele>259</ele>
        <time>2024-09-19T12:44:41Z</time>
      </trkpt>
      <trkpt lat="45.68339" lon="5.32144">
        <ele>259.2</ele>
        <time>2024-09-19T12:44:42Z</time>
      </trkpt>
      <trkpt lat="45.68337" lon="5.32139">
        <ele>259.2</ele>
        <time>2024-09-19T12:44:43Z</time>
      </trkpt>
      <trkpt lat="45.68335" lon="5.32134">
        <ele>259.2</ele>
        <time>2024-09-19T12:44:44Z</time>
      </trkpt>
      <trkpt lat="45.68333" lon="5.32129">
        <ele>259.8</ele>
        <time>2024-09-19T12:44:45Z</time>
      </trkpt>
      <trkpt lat="45.6833" lon="5.32125">
        <ele>260.2</ele>
        <time>2024-09-19T12:44:46Z</time>
      </trkpt>
      <trkpt lat="45.68328" lon="5.32119">
        <ele>260.8</ele>
        <time>2024-09-19T12:44:47Z</time>
      </trkpt>
      <trkpt lat="45.68324" lon="5.32113">
        <ele>260.4</ele>
        <time>2024-09-19T12:44:48Z</time>
      </trkpt>
      <trkpt lat="45.68323" lon="5.32107">
        <ele>260.8</ele>
        <time>2024-09-19T12:44:49Z</time>
      </trkpt>
      <trkpt lat="45.6832" lon="5.32102">
        <ele>261</ele>
        <time>2024-09-19T12:44:50Z</time>
      </trkpt>
      <trkpt lat="45.68318" lon="5.32096">
        <ele>261</ele>
        <time>2024-09-19T12:44:51Z</time>
      </trkpt>
      <trkpt lat="45.68315" lon="5.32091">
        <ele>261</ele>
        <time>2024-09-19T12:44:52Z</time>
      </trkpt>
      <trkpt lat="45.68313" lon="5.32085">
        <ele>261.2</ele>
        <time>2024-09-19T12:44:53Z</time>
      </trkpt>
      <trkpt lat="45.68309" lon="5.3208">
        <ele>261.6</ele>
        <time>2024-09-19T12:44:54Z</time>
      </trkpt>
      <trkpt lat="45.68307" lon="5.32074">
        <ele>260.8</ele>
        <time>2024-09-19T12:44:55Z</time>
      </trkpt>
      <trkpt lat="45.68304" lon="5.32069">
        <ele>261.2</ele>
        <time>2024-09-19T12:44:56Z</time>
      </trkpt>
      <trkpt lat="45.68301" lon="5.32063">
        <ele>261.2</ele>
        <time>2024-09-19T12:44:57Z</time>
      </trkpt>
      <trkpt lat="45.68299" lon="5.32058">
        <ele>261.2</ele>
        <time>2024-09-19T12:44:58Z</time>
      </trkpt>
      <trkpt lat="45.68297" lon="5.32053">
        <ele>261.4</ele>
        <time>2024-09-19T12:44:59Z</time>
      </trkpt>
      <trkpt lat="45.68295" lon="5.32048">
        <ele>261</ele>
        <time>2024-09-19T12:45:00Z</time>
      </trkpt>
      <trkpt lat="45.68292" lon="5.32042">
        <ele>261.4</ele>
        <time>2024-09-19T12:45:01Z</time>
      </trkpt>
      <trkpt lat="45.68289" lon="5.32036">
        <ele>261.2</ele>
        <time>2024-09-19T12:45:02Z</time>
      </trkpt>
      <trkpt lat="45.68287" lon="5.32032">
        <ele>261.6</ele>
        <time>2024-09-19T12:45:03Z</time>
      </trkpt>
      <trkpt lat="45.68284" lon="5.32026">
        <ele>261.6</ele>
        <time>2024-09-19T12:45:04Z</time>
      </trkpt>
      <trkpt lat="45.68282" lon="5.3202">
        <ele>261.6</ele>
        <time>2024-09-19T12:45:05Z</time>
      </trkpt>
      <trkpt lat="45.68279" lon="5.32015">
        <ele>261.2</ele>
        <time>2024-09-19T12:45:06Z</time>
      </trkpt>
      <trkpt lat="45.68276" lon="5.32011">
        <ele>261.2</ele>
        <time>2024-09-19T12:45:07Z</time>
      </trkpt>
      <trkpt lat="45.68274" lon="5.32006">
        <ele>261.4</ele>
        <time>2024-09-19T12:45:08Z</time>
      </trkpt>
      <trkpt lat="45.68272" lon="5.32001">
        <ele>261.6</ele>
        <time>2024-09-19T12:45:09Z</time>
      </trkpt>
      <trkpt lat="45.68271" lon="5.31997">
        <ele>261.6</ele>
        <time>2024-09-19T12:45:10Z</time>
      </trkpt>
      <trkpt lat="45.6827" lon="5.31992">
        <ele>262</ele>
        <time>2024-09-19T12:45:11Z</time>
      </trkpt>
      <trkpt lat="45.68268" lon="5.31987">
        <ele>262</ele>
        <time>2024-09-19T12:45:12Z</time>
      </trkpt>
      <trkpt lat="45.68266" lon="5.31983">
        <ele>262</ele>
        <time>2024-09-19T12:45:13Z</time>
      </trkpt>
      <trkpt lat="45.68264" lon="5.31978">
        <ele>262</ele>
        <time>2024-09-19T12:45:14Z</time>
      </trkpt>
      <trkpt lat="45.68262" lon="5.31975">
        <ele>262</ele>
        <time>2024-09-19T12:45:15Z</time>
      </trkpt>
      <trkpt lat="45.6826" lon="5.31971">
        <ele>262</ele>
        <time>2024-09-19T12:45:16Z</time>
      </trkpt>
      <trkpt lat="45.68258" lon="5.31966">
        <ele>262</ele>
        <time>2024-09-19T12:45:17Z</time>
      </trkpt>
      <trkpt lat="45.68255" lon="5.31962">
        <ele>261.8</ele>
        <time>2024-09-19T12:45:18Z</time>
      </trkpt>
      <trkpt lat="45.68253" lon="5.31957">
        <ele>261.8</ele>
        <time>2024-09-19T12:45:19Z</time>
      </trkpt>
      <trkpt lat="45.68251" lon="5.31952">
        <ele>261.8</ele>
        <time>2024-09-19T12:45:20Z</time>
      </trkpt>
      <trkpt lat="45.68249" lon="5.31947">
        <ele>261.8</ele>
        <time>2024-09-19T12:45:21Z</time>
      </trkpt>
      <trkpt lat="45.68247" lon="5.31942">
        <ele>261.8</ele>
        <time>2024-09-19T12:45:22Z</time>
      </trkpt>
      <trkpt lat="45.68244" lon="5.31938">
        <ele>261.8</ele>
        <time>2024-09-19T12:45:23Z</time>
      </trkpt>
      <trkpt lat="45.68242" lon="5.31933">
        <ele>261.8</ele>
        <time>2024-09-19T12:45:24Z</time>
      </trkpt>
      <trkpt lat="45.6824" lon="5.31929">
        <ele>261.8</ele>
        <time>2024-09-19T12:45:25Z</time>
      </trkpt>
      <trkpt lat="45.68239" lon="5.31924">
        <ele>261.8</ele>
        <time>2024-09-19T12:45:26Z</time>
      </trkpt>
      <trkpt lat="45.68237" lon="5.3192">
        <ele>261.8</ele>
        <time>2024-09-19T12:45:27Z</time>
      </trkpt>
      <trkpt lat="45.68235" lon="5.31917">
        <ele>261.8</ele>
        <time>2024-09-19T12:45:28Z</time>
      </trkpt>
      <trkpt lat="45.68233" lon="5.31915">
        <ele>262</ele>
        <time>2024-09-19T12:45:29Z</time>
      </trkpt>
      <trkpt lat="45.68231" lon="5.31909">
        <ele>262</ele>
        <time>2024-09-19T12:45:30Z</time>
      </trkpt>
      <trkpt lat="45.68229" lon="5.31905">
        <ele>262.2</ele>
        <time>2024-09-19T12:45:31Z</time>
      </trkpt>
      <trkpt lat="45.68226" lon="5.31901">
        <ele>262.2</ele>
        <time>2024-09-19T12:45:32Z</time>
      </trkpt>
      <trkpt lat="45.68224" lon="5.31898">
        <ele>262.2</ele>
        <time>2024-09-19T12:45:33Z</time>
      </trkpt>
      <trkpt lat="45.68222" lon="5.31891">
        <ele>262.2</ele>
        <time>2024-09-19T12:45:34Z</time>
      </trkpt>
      <trkpt lat="45.6822" lon="5.31886">
        <ele>262.2</ele>
        <time>2024-09-19T12:45:35Z</time>
      </trkpt>
      <trkpt lat="45.68218" lon="5.3188">
        <ele>262.2</ele>
        <time>2024-09-19T12:45:36Z</time>
      </trkpt>
      <trkpt lat="45.68216" lon="5.31874">
        <ele>262.2</ele>
        <time>2024-09-19T12:45:37Z</time>
      </trkpt>
      <trkpt lat="45.68214" lon="5.31868">
        <ele>262.2</ele>
        <time>2024-09-19T12:45:38Z</time>
      </trkpt>
      <trkpt lat="45.68212" lon="5.31864">
        <ele>262.2</ele>
        <time>2024-09-19T12:45:39Z</time>
      </trkpt>
      <trkpt lat="45.6821" lon="5.31859">
        <ele>262.2</ele>
        <time>2024-09-19T12:45:40Z</time>
      </trkpt>
      <trkpt lat="45.68208" lon="5.31856">
        <ele>262.2</ele>
        <time>2024-09-19T12:45:41Z</time>
      </trkpt>
      <trkpt lat="45.68206" lon="5.31851">
        <ele>262.6</ele>
        <time>2024-09-19T12:45:42Z</time>
      </trkpt>
      <trkpt lat="45.68204" lon="5.31847">
        <ele>262.6</ele>
        <time>2024-09-19T12:45:43Z</time>
      </trkpt>
      <trkpt lat="45.68202" lon="5.31844">
        <ele>262.8</ele>
        <time>2024-09-19T12:45:44Z</time>
      </trkpt>
      <trkpt lat="45.68202" lon="5.31844">
        <ele>262.8</ele>
        <time>2024-09-19T12:45:45Z</time>
      </trkpt>
      <trkpt lat="45.682" lon="5.3184">
        <ele>262.8</ele>
        <time>2024-09-19T12:45:46Z</time>
      </trkpt>
      <trkpt lat="45.68199" lon="5.31835">
        <ele>262.8</ele>
        <time>2024-09-19T12:45:47Z</time>
      </trkpt>
      <trkpt lat="45.68197" lon="5.31832">
        <ele>263</ele>
        <time>2024-09-19T12:45:48Z</time>
      </trkpt>
      <trkpt lat="45.68195" lon="5.31828">
        <ele>263</ele>
        <time>2024-09-19T12:45:49Z</time>
      </trkpt>
      <trkpt lat="45.68193" lon="5.31823">
        <ele>263</ele>
        <time>2024-09-19T12:45:50Z</time>
      </trkpt>
      <trkpt lat="45.68191" lon="5.31819">
        <ele>263</ele>
        <time>2024-09-19T12:45:51Z</time>
      </trkpt>
      <trkpt lat="45.68189" lon="5.31814">
        <ele>263</ele>
        <time>2024-09-19T12:45:52Z</time>
      </trkpt>
      <trkpt lat="45.68186" lon="5.3181">
        <ele>263</ele>
        <time>2024-09-19T12:45:53Z</time>
      </trkpt>
      <trkpt lat="45.68184" lon="5.31805">
        <ele>263</ele>
        <time>2024-09-19T12:45:54Z</time>
      </trkpt>
      <trkpt lat="45.68182" lon="5.318">
        <ele>263</ele>
        <time>2024-09-19T12:45:55Z</time>
      </trkpt>
      <trkpt lat="45.68178" lon="5.3179">
        <ele>263</ele>
        <time>2024-09-19T12:45:56Z</time>
      </trkpt>
      <trkpt lat="45.68175" lon="5.31786">
        <ele>263</ele>
        <time>2024-09-19T12:45:57Z</time>
      </trkpt>
      <trkpt lat="45.68173" lon="5.31781">
        <ele>263</ele>
        <time>2024-09-19T12:45:58Z</time>
      </trkpt>
      <trkpt lat="45.68171" lon="5.31777">
        <ele>263.2</ele>
        <time>2024-09-19T12:45:59Z</time>
      </trkpt>
      <trkpt lat="45.68169" lon="5.31773">
        <ele>263.2</ele>
        <time>2024-09-19T12:46:00Z</time>
      </trkpt>
      <trkpt lat="45.68166" lon="5.31769">
        <ele>263.2</ele>
        <time>2024-09-19T12:46:01Z</time>
      </trkpt>
      <trkpt lat="45.68164" lon="5.31764">
        <ele>263.2</ele>
        <time>2024-09-19T12:46:02Z</time>
      </trkpt>
      <trkpt lat="45.68162" lon="5.31759">
        <ele>263.2</ele>
        <time>2024-09-19T12:46:03Z</time>
      </trkpt>
      <trkpt lat="45.6816" lon="5.31754">
        <ele>263.2</ele>
        <time>2024-09-19T12:46:04Z</time>
      </trkpt>
      <trkpt lat="45.68158" lon="5.31749">
        <ele>263.2</ele>
        <time>2024-09-19T12:46:05Z</time>
      </trkpt>
      <trkpt lat="45.68155" lon="5.31744">
        <ele>263.6</ele>
        <time>2024-09-19T12:46:06Z</time>
      </trkpt>
      <trkpt lat="45.68153" lon="5.31739">
        <ele>263.6</ele>
        <time>2024-09-19T12:46:07Z</time>
      </trkpt>
      <trkpt lat="45.6815" lon="5.31734">
        <ele>263.6</ele>
        <time>2024-09-19T12:46:08Z</time>
      </trkpt>
      <trkpt lat="45.68148" lon="5.31729">
        <ele>263.6</ele>
        <time>2024-09-19T12:46:09Z</time>
      </trkpt>
      <trkpt lat="45.68145" lon="5.31723">
        <ele>263.6</ele>
        <time>2024-09-19T12:46:10Z</time>
      </trkpt>
      <trkpt lat="45.68143" lon="5.31718">
        <ele>263.6</ele>
        <time>2024-09-19T12:46:11Z</time>
      </trkpt>
      <trkpt lat="45.68141" lon="5.31713">
        <ele>263.8</ele>
        <time>2024-09-19T12:46:12Z</time>
      </trkpt>
      <trkpt lat="45.68138" lon="5.31708">
        <ele>263.8</ele>
        <time>2024-09-19T12:46:13Z</time>
      </trkpt>
      <trkpt lat="45.68136" lon="5.31704">
        <ele>263.8</ele>
        <time>2024-09-19T12:46:14Z</time>
      </trkpt>
      <trkpt lat="45.68133" lon="5.31699">
        <ele>264</ele>
        <time>2024-09-19T12:46:15Z</time>
      </trkpt>
      <trkpt lat="45.68131" lon="5.31694">
        <ele>264</ele>
        <time>2024-09-19T12:46:16Z</time>
      </trkpt>
      <trkpt lat="45.68128" lon="5.31689">
        <ele>264</ele>
        <time>2024-09-19T12:46:17Z</time>
      </trkpt>
      <trkpt lat="45.68126" lon="5.31684">
        <ele>264</ele>
        <time>2024-09-19T12:46:18Z</time>
      </trkpt>
      <trkpt lat="45.68122" lon="5.3168">
        <ele>264.4</ele>
        <time>2024-09-19T12:46:19Z</time>
      </trkpt>
      <trkpt lat="45.6812" lon="5.31675">
        <ele>264.4</ele>
        <time>2024-09-19T12:46:20Z</time>
      </trkpt>
      <trkpt lat="45.68119" lon="5.31669">
        <ele>264.4</ele>
        <time>2024-09-19T12:46:21Z</time>
      </trkpt>
      <trkpt lat="45.68117" lon="5.31663">
        <ele>264.6</ele>
        <time>2024-09-19T12:46:22Z</time>
      </trkpt>
      <trkpt lat="45.68114" lon="5.31659">
        <ele>264.6</ele>
        <time>2024-09-19T12:46:23Z</time>
      </trkpt>
      <trkpt lat="45.68112" lon="5.31653">
        <ele>264.6</ele>
        <time>2024-09-19T12:46:24Z</time>
      </trkpt>
      <trkpt lat="45.6811" lon="5.3165">
        <ele>264.8</ele>
        <time>2024-09-19T12:46:25Z</time>
      </trkpt>
      <trkpt lat="45.68108" lon="5.31646">
        <ele>264.8</ele>
        <time>2024-09-19T12:46:26Z</time>
      </trkpt>
      <trkpt lat="45.68108" lon="5.31642">
        <ele>264.8</ele>
        <time>2024-09-19T12:46:27Z</time>
      </trkpt>
      <trkpt lat="45.68107" lon="5.3164">
        <ele>265</ele>
        <time>2024-09-19T12:46:28Z</time>
      </trkpt>
      <trkpt lat="45.68107" lon="5.31637">
        <ele>265</ele>
        <time>2024-09-19T12:46:29Z</time>
      </trkpt>
      <trkpt lat="45.68106" lon="5.31636">
        <ele>265</ele>
        <time>2024-09-19T12:46:30Z</time>
      </trkpt>
      <trkpt lat="45.68106" lon="5.31634">
        <ele>265</ele>
        <time>2024-09-19T12:46:31Z</time>
      </trkpt>
      <trkpt lat="45.68105" lon="5.31631">
        <ele>265</ele>
        <time>2024-09-19T12:46:32Z</time>
      </trkpt>
      <trkpt lat="45.68105" lon="5.31628">
        <ele>265</ele>
        <time>2024-09-19T12:46:33Z</time>
      </trkpt>
      <trkpt lat="45.68106" lon="5.31624">
        <ele>265</ele>
        <time>2024-09-19T12:46:34Z</time>
      </trkpt>
      <trkpt lat="45.68107" lon="5.3162">
        <ele>265</ele>
        <time>2024-09-19T12:46:35Z</time>
      </trkpt>
      <trkpt lat="45.68108" lon="5.31616">
        <ele>265</ele>
        <time>2024-09-19T12:46:36Z</time>
      </trkpt>
      <trkpt lat="45.68109" lon="5.31612">
        <ele>265</ele>
        <time>2024-09-19T12:46:37Z</time>
      </trkpt>
      <trkpt lat="45.68109" lon="5.31608">
        <ele>265</ele>
        <time>2024-09-19T12:46:38Z</time>
      </trkpt>
      <trkpt lat="45.68108" lon="5.31603">
        <ele>265</ele>
        <time>2024-09-19T12:46:39Z</time>
      </trkpt>
      <trkpt lat="45.68107" lon="5.31599">
        <ele>265.4</ele>
        <time>2024-09-19T12:46:40Z</time>
      </trkpt>
      <trkpt lat="45.68106" lon="5.31594">
        <ele>265.4</ele>
        <time>2024-09-19T12:46:41Z</time>
      </trkpt>
      <trkpt lat="45.68105" lon="5.31589">
        <ele>265.4</ele>
        <time>2024-09-19T12:46:42Z</time>
      </trkpt>
      <trkpt lat="45.68104" lon="5.31585">
        <ele>265.4</ele>
        <time>2024-09-19T12:46:43Z</time>
      </trkpt>
      <trkpt lat="45.68103" lon="5.31581">
        <ele>265.6</ele>
        <time>2024-09-19T12:46:44Z</time>
      </trkpt>
      <trkpt lat="45.68102" lon="5.31576">
        <ele>265.6</ele>
        <time>2024-09-19T12:46:45Z</time>
      </trkpt>
      <trkpt lat="45.68101" lon="5.31572">
        <ele>266</ele>
        <time>2024-09-19T12:46:46Z</time>
      </trkpt>
      <trkpt lat="45.681" lon="5.31567">
        <ele>266</ele>
        <time>2024-09-19T12:46:47Z</time>
      </trkpt>
      <trkpt lat="45.68098" lon="5.31563">
        <ele>266</ele>
        <time>2024-09-19T12:46:48Z</time>
      </trkpt>
      <trkpt lat="45.68097" lon="5.31559">
        <ele>266</ele>
        <time>2024-09-19T12:46:49Z</time>
      </trkpt>
      <trkpt lat="45.68095" lon="5.31556">
        <ele>266</ele>
        <time>2024-09-19T12:46:50Z</time>
      </trkpt>
      <trkpt lat="45.68094" lon="5.31553">
        <ele>266</ele>
        <time>2024-09-19T12:46:51Z</time>
      </trkpt>
      <trkpt lat="45.68093" lon="5.31549">
        <ele>266</ele>
        <time>2024-09-19T12:46:52Z</time>
      </trkpt>
      <trkpt lat="45.68092" lon="5.31544">
        <ele>266</ele>
        <time>2024-09-19T12:46:53Z</time>
      </trkpt>
      <trkpt lat="45.6809" lon="5.31539">
        <ele>266</ele>
        <time>2024-09-19T12:46:54Z</time>
      </trkpt>
      <trkpt lat="45.68089" lon="5.31534">
        <ele>266</ele>
        <time>2024-09-19T12:46:55Z</time>
      </trkpt>
      <trkpt lat="45.68088" lon="5.31529">
        <ele>266</ele>
        <time>2024-09-19T12:46:56Z</time>
      </trkpt>
      <trkpt lat="45.68087" lon="5.31523">
        <ele>266</ele>
        <time>2024-09-19T12:46:57Z</time>
      </trkpt>
      <trkpt lat="45.68087" lon="5.31516">
        <ele>265.6</ele>
        <time>2024-09-19T12:46:58Z</time>
      </trkpt>
      <trkpt lat="45.68086" lon="5.31509">
        <ele>265.6</ele>
        <time>2024-09-19T12:46:59Z</time>
      </trkpt>
      <trkpt lat="45.68085" lon="5.31502">
        <ele>265.4</ele>
        <time>2024-09-19T12:47:00Z</time>
      </trkpt>
      <trkpt lat="45.68083" lon="5.31496">
        <ele>265</ele>
        <time>2024-09-19T12:47:01Z</time>
      </trkpt>
      <trkpt lat="45.6808" lon="5.31492">
        <ele>265</ele>
        <time>2024-09-19T12:47:02Z</time>
      </trkpt>
      <trkpt lat="45.68075" lon="5.31489">
        <ele>265</ele>
        <time>2024-09-19T12:47:03Z</time>
      </trkpt>
      <trkpt lat="45.68072" lon="5.31485">
        <ele>265</ele>
        <time>2024-09-19T12:47:04Z</time>
      </trkpt>
      <trkpt lat="45.68068" lon="5.31483">
        <ele>265</ele>
        <time>2024-09-19T12:47:05Z</time>
      </trkpt>
      <trkpt lat="45.68064" lon="5.31478">
        <ele>265</ele>
        <time>2024-09-19T12:47:06Z</time>
      </trkpt>
      <trkpt lat="45.68061" lon="5.31473">
        <ele>265</ele>
        <time>2024-09-19T12:47:07Z</time>
      </trkpt>
      <trkpt lat="45.68057" lon="5.31467">
        <ele>265.4</ele>
        <time>2024-09-19T12:47:08Z</time>
      </trkpt>
      <trkpt lat="45.68054" lon="5.31462">
        <ele>265.4</ele>
        <time>2024-09-19T12:47:09Z</time>
      </trkpt>
      <trkpt lat="45.68051" lon="5.31457">
        <ele>265.4</ele>
        <time>2024-09-19T12:47:10Z</time>
      </trkpt>
      <trkpt lat="45.68048" lon="5.3145">
        <ele>265.4</ele>
        <time>2024-09-19T12:47:11Z</time>
      </trkpt>
      <trkpt lat="45.68046" lon="5.31444">
        <ele>265.4</ele>
        <time>2024-09-19T12:47:12Z</time>
      </trkpt>
      <trkpt lat="45.68043" lon="5.31439">
        <ele>265.4</ele>
        <time>2024-09-19T12:47:13Z</time>
      </trkpt>
      <trkpt lat="45.6804" lon="5.31432">
        <ele>265.4</ele>
        <time>2024-09-19T12:47:14Z</time>
      </trkpt>
      <trkpt lat="45.68038" lon="5.31426">
        <ele>265.4</ele>
        <time>2024-09-19T12:47:15Z</time>
      </trkpt>
      <trkpt lat="45.68034" lon="5.31421">
        <ele>265.4</ele>
        <time>2024-09-19T12:47:16Z</time>
      </trkpt>
      <trkpt lat="45.68032" lon="5.31415">
        <ele>265.4</ele>
        <time>2024-09-19T12:47:17Z</time>
      </trkpt>
      <trkpt lat="45.6803" lon="5.31409">
        <ele>265.4</ele>
        <time>2024-09-19T12:47:18Z</time>
      </trkpt>
      <trkpt lat="45.68027" lon="5.31404">
        <ele>265.4</ele>
        <time>2024-09-19T12:47:19Z</time>
      </trkpt>
      <trkpt lat="45.68024" lon="5.31398">
        <ele>265.4</ele>
        <time>2024-09-19T12:47:20Z</time>
      </trkpt>
      <trkpt lat="45.68022" lon="5.31391">
        <ele>265.4</ele>
        <time>2024-09-19T12:47:21Z</time>
      </trkpt>
      <trkpt lat="45.68019" lon="5.31384">
        <ele>265</ele>
        <time>2024-09-19T12:47:22Z</time>
      </trkpt>
      <trkpt lat="45.68016" lon="5.31378">
        <ele>264.8</ele>
        <time>2024-09-19T12:47:23Z</time>
      </trkpt>
      <trkpt lat="45.68013" lon="5.3137">
        <ele>264.8</ele>
        <time>2024-09-19T12:47:24Z</time>
      </trkpt>
      <trkpt lat="45.68014" lon="5.31362">
        <ele>264.6</ele>
        <time>2024-09-19T12:47:25Z</time>
      </trkpt>
      <trkpt lat="45.68015" lon="5.31354">
        <ele>264.6</ele>
        <time>2024-09-19T12:47:26Z</time>
      </trkpt>
      <trkpt lat="45.68014" lon="5.31346">
        <ele>264.4</ele>
        <time>2024-09-19T12:47:27Z</time>
      </trkpt>
      <trkpt lat="45.68014" lon="5.31339">
        <ele>264.4</ele>
        <time>2024-09-19T12:47:28Z</time>
      </trkpt>
      <trkpt lat="45.68012" lon="5.31332">
        <ele>264.4</ele>
        <time>2024-09-19T12:47:29Z</time>
      </trkpt>
      <trkpt lat="45.6801" lon="5.31326">
        <ele>264.6</ele>
        <time>2024-09-19T12:47:30Z</time>
      </trkpt>
      <trkpt lat="45.68008" lon="5.3132">
        <ele>264.6</ele>
        <time>2024-09-19T12:47:31Z</time>
      </trkpt>
      <trkpt lat="45.68005" lon="5.31314">
        <ele>264.6</ele>
        <time>2024-09-19T12:47:32Z</time>
      </trkpt>
      <trkpt lat="45.68003" lon="5.31308">
        <ele>264.8</ele>
        <time>2024-09-19T12:47:33Z</time>
      </trkpt>
      <trkpt lat="45.68001" lon="5.31301">
        <ele>264.8</ele>
        <time>2024-09-19T12:47:34Z</time>
      </trkpt>
      <trkpt lat="45.67998" lon="5.31295">
        <ele>264.8</ele>
        <time>2024-09-19T12:47:35Z</time>
      </trkpt>
      <trkpt lat="45.67996" lon="5.31289">
        <ele>264.8</ele>
        <time>2024-09-19T12:47:36Z</time>
      </trkpt>
      <trkpt lat="45.67994" lon="5.31283">
        <ele>264.8</ele>
        <time>2024-09-19T12:47:37Z</time>
      </trkpt>
      <trkpt lat="45.67991" lon="5.31277">
        <ele>264.8</ele>
        <time>2024-09-19T12:47:38Z</time>
      </trkpt>
      <trkpt lat="45.67988" lon="5.31271">
        <ele>265.2</ele>
        <time>2024-09-19T12:47:39Z</time>
      </trkpt>
      <trkpt lat="45.67986" lon="5.31265">
        <ele>265.2</ele>
        <time>2024-09-19T12:47:40Z</time>
      </trkpt>
      <trkpt lat="45.67984" lon="5.3126">
        <ele>265.2</ele>
        <time>2024-09-19T12:47:41Z</time>
      </trkpt>
      <trkpt lat="45.67981" lon="5.31254">
        <ele>265.2</ele>
        <time>2024-09-19T12:47:42Z</time>
      </trkpt>
      <trkpt lat="45.67978" lon="5.31249">
        <ele>265.2</ele>
        <time>2024-09-19T12:47:43Z</time>
      </trkpt>
      <trkpt lat="45.67976" lon="5.31243">
        <ele>265.2</ele>
        <time>2024-09-19T12:47:44Z</time>
      </trkpt>
      <trkpt lat="45.67973" lon="5.31237">
        <ele>265.2</ele>
        <time>2024-09-19T12:47:45Z</time>
      </trkpt>
      <trkpt lat="45.6797" lon="5.31231">
        <ele>265.4</ele>
        <time>2024-09-19T12:47:46Z</time>
      </trkpt>
      <trkpt lat="45.67967" lon="5.31227">
        <ele>265.4</ele>
        <time>2024-09-19T12:47:47Z</time>
      </trkpt>
      <trkpt lat="45.67965" lon="5.31222">
        <ele>265.4</ele>
        <time>2024-09-19T12:47:48Z</time>
      </trkpt>
      <trkpt lat="45.67961" lon="5.31218">
        <ele>265.4</ele>
        <time>2024-09-19T12:47:49Z</time>
      </trkpt>
      <trkpt lat="45.6796" lon="5.31212">
        <ele>265.6</ele>
        <time>2024-09-19T12:47:50Z</time>
      </trkpt>
      <trkpt lat="45.67957" lon="5.31208">
        <ele>265.6</ele>
        <time>2024-09-19T12:47:51Z</time>
      </trkpt>
      <trkpt lat="45.67955" lon="5.31202">
        <ele>265.6</ele>
        <time>2024-09-19T12:47:52Z</time>
      </trkpt>
      <trkpt lat="45.67954" lon="5.31202">
        <ele>265.6</ele>
        <time>2024-09-19T12:47:53Z</time>
      </trkpt>
      <trkpt lat="45.67953" lon="5.31198">
        <ele>265.8</ele>
        <time>2024-09-19T12:47:54Z</time>
      </trkpt>
      <trkpt lat="45.67952" lon="5.31195">
        <ele>265.8</ele>
        <time>2024-09-19T12:47:55Z</time>
      </trkpt>
      <trkpt lat="45.67949" lon="5.31194">
        <ele>265.8</ele>
        <time>2024-09-19T12:47:56Z</time>
      </trkpt>
      <trkpt lat="45.67947" lon="5.31196">
        <ele>265.8</ele>
        <time>2024-09-19T12:47:57Z</time>
      </trkpt>
      <trkpt lat="45.67944" lon="5.31197">
        <ele>265.8</ele>
        <time>2024-09-19T12:47:58Z</time>
      </trkpt>
      <trkpt lat="45.6794" lon="5.31199">
        <ele>265.6</ele>
        <time>2024-09-19T12:47:59Z</time>
      </trkpt>
      <trkpt lat="45.67937" lon="5.31201">
        <ele>265.2</ele>
        <time>2024-09-19T12:48:00Z</time>
      </trkpt>
      <trkpt lat="45.67934" lon="5.31203">
        <ele>265</ele>
        <time>2024-09-19T12:48:01Z</time>
      </trkpt>
      <trkpt lat="45.6793" lon="5.31205">
        <ele>264.8</ele>
        <time>2024-09-19T12:48:02Z</time>
      </trkpt>
      <trkpt lat="45.67925" lon="5.31205">
        <ele>264.6</ele>
        <time>2024-09-19T12:48:03Z</time>
      </trkpt>
      <trkpt lat="45.6792" lon="5.31201">
        <ele>264.2</ele>
        <time>2024-09-19T12:48:04Z</time>
      </trkpt>
      <trkpt lat="45.67916" lon="5.31196">
        <ele>264.2</ele>
        <time>2024-09-19T12:48:05Z</time>
      </trkpt>
      <trkpt lat="45.67912" lon="5.31191">
        <ele>264.2</ele>
        <time>2024-09-19T12:48:06Z</time>
      </trkpt>
      <trkpt lat="45.67908" lon="5.31186">
        <ele>264.2</ele>
        <time>2024-09-19T12:48:07Z</time>
      </trkpt>
      <trkpt lat="45.67904" lon="5.31182">
        <ele>264.4</ele>
        <time>2024-09-19T12:48:08Z</time>
      </trkpt>
      <trkpt lat="45.679" lon="5.31178">
        <ele>264.4</ele>
        <time>2024-09-19T12:48:09Z</time>
      </trkpt>
      <trkpt lat="45.67895" lon="5.31173">
        <ele>264.4</ele>
        <time>2024-09-19T12:48:10Z</time>
      </trkpt>
      <trkpt lat="45.67891" lon="5.31169">
        <ele>264.8</ele>
        <time>2024-09-19T12:48:11Z</time>
      </trkpt>
      <trkpt lat="45.67888" lon="5.31165">
        <ele>264.8</ele>
        <time>2024-09-19T12:48:12Z</time>
      </trkpt>
      <trkpt lat="45.67884" lon="5.31161">
        <ele>265</ele>
        <time>2024-09-19T12:48:13Z</time>
      </trkpt>
      <trkpt lat="45.67882" lon="5.31155">
        <ele>265.2</ele>
        <time>2024-09-19T12:48:14Z</time>
      </trkpt>
      <trkpt lat="45.67879" lon="5.31151">
        <ele>265.2</ele>
        <time>2024-09-19T12:48:15Z</time>
      </trkpt>
      <trkpt lat="45.67877" lon="5.31146">
        <ele>265.4</ele>
        <time>2024-09-19T12:48:16Z</time>
      </trkpt>
      <trkpt lat="45.67874" lon="5.31141">
        <ele>265.8</ele>
        <time>2024-09-19T12:48:17Z</time>
      </trkpt>
      <trkpt lat="45.67872" lon="5.31136">
        <ele>265.8</ele>
        <time>2024-09-19T12:48:18Z</time>
      </trkpt>
      <trkpt lat="45.67869" lon="5.31131">
        <ele>265.8</ele>
        <time>2024-09-19T12:48:19Z</time>
      </trkpt>
      <trkpt lat="45.67867" lon="5.31126">
        <ele>266</ele>
        <time>2024-09-19T12:48:20Z</time>
      </trkpt>
      <trkpt lat="45.67864" lon="5.31121">
        <ele>265.8</ele>
        <time>2024-09-19T12:48:21Z</time>
      </trkpt>
      <trkpt lat="45.67861" lon="5.31116">
        <ele>265.8</ele>
        <time>2024-09-19T12:48:22Z</time>
      </trkpt>
      <trkpt lat="45.67856" lon="5.3111">
        <ele>265</ele>
        <time>2024-09-19T12:48:23Z</time>
      </trkpt>
      <trkpt lat="45.67852" lon="5.31105">
        <ele>265</ele>
        <time>2024-09-19T12:48:24Z</time>
      </trkpt>
      <trkpt lat="45.67848" lon="5.311">
        <ele>265</ele>
        <time>2024-09-19T12:48:25Z</time>
      </trkpt>
      <trkpt lat="45.67844" lon="5.31094">
        <ele>265</ele>
        <time>2024-09-19T12:48:26Z</time>
      </trkpt>
      <trkpt lat="45.6784" lon="5.31089">
        <ele>265</ele>
        <time>2024-09-19T12:48:27Z</time>
      </trkpt>
      <trkpt lat="45.67836" lon="5.31082">
        <ele>265</ele>
        <time>2024-09-19T12:48:28Z</time>
      </trkpt>
      <trkpt lat="45.67832" lon="5.31075">
        <ele>265</ele>
        <time>2024-09-19T12:48:29Z</time>
      </trkpt>
      <trkpt lat="45.67828" lon="5.31069">
        <ele>265.4</ele>
        <time>2024-09-19T12:48:30Z</time>
      </trkpt>
      <trkpt lat="45.67824" lon="5.31064">
        <ele>265.4</ele>
        <time>2024-09-19T12:48:31Z</time>
      </trkpt>
      <trkpt lat="45.6782" lon="5.31057">
        <ele>265.6</ele>
        <time>2024-09-19T12:48:32Z</time>
      </trkpt>
      <trkpt lat="45.67816" lon="5.31052">
        <ele>265.4</ele>
        <time>2024-09-19T12:48:33Z</time>
      </trkpt>
      <trkpt lat="45.67812" lon="5.31046">
        <ele>265.2</ele>
        <time>2024-09-19T12:48:34Z</time>
      </trkpt>
      <trkpt lat="45.67809" lon="5.31041">
        <ele>265.2</ele>
        <time>2024-09-19T12:48:35Z</time>
      </trkpt>
      <trkpt lat="45.67805" lon="5.31036">
        <ele>265.2</ele>
        <time>2024-09-19T12:48:36Z</time>
      </trkpt>
      <trkpt lat="45.678" lon="5.31031">
        <ele>265.2</ele>
        <time>2024-09-19T12:48:37Z</time>
      </trkpt>
      <trkpt lat="45.67797" lon="5.31027">
        <ele>265.2</ele>
        <time>2024-09-19T12:48:38Z</time>
      </trkpt>
      <trkpt lat="45.67793" lon="5.31022">
        <ele>265.6</ele>
        <time>2024-09-19T12:48:39Z</time>
      </trkpt>
      <trkpt lat="45.6779" lon="5.31017">
        <ele>265.6</ele>
        <time>2024-09-19T12:48:40Z</time>
      </trkpt>
      <trkpt lat="45.67786" lon="5.31011">
        <ele>265.6</ele>
        <time>2024-09-19T12:48:41Z</time>
      </trkpt>
      <trkpt lat="45.67782" lon="5.31006">
        <ele>265.6</ele>
        <time>2024-09-19T12:48:42Z</time>
      </trkpt>
      <trkpt lat="45.67778" lon="5.31001">
        <ele>266.2</ele>
        <time>2024-09-19T12:48:43Z</time>
      </trkpt>
      <trkpt lat="45.67775" lon="5.30996">
        <ele>266</ele>
        <time>2024-09-19T12:48:44Z</time>
      </trkpt>
      <trkpt lat="45.67771" lon="5.30992">
        <ele>266</ele>
        <time>2024-09-19T12:48:45Z</time>
      </trkpt>
      <trkpt lat="45.67767" lon="5.30988">
        <ele>265</ele>
        <time>2024-09-19T12:48:46Z</time>
      </trkpt>
      <trkpt lat="45.67762" lon="5.30984">
        <ele>265</ele>
        <time>2024-09-19T12:48:47Z</time>
      </trkpt>
      <trkpt lat="45.67758" lon="5.30979">
        <ele>265</ele>
        <time>2024-09-19T12:48:48Z</time>
      </trkpt>
      <trkpt lat="45.67758" lon="5.30979">
        <ele>265</ele>
        <time>2024-09-19T12:48:49Z</time>
      </trkpt>
      <trkpt lat="45.67755" lon="5.30974">
        <ele>265.4</ele>
        <time>2024-09-19T12:48:50Z</time>
      </trkpt>
      <trkpt lat="45.67751" lon="5.30969">
        <ele>265.4</ele>
        <time>2024-09-19T12:48:51Z</time>
      </trkpt>
      <trkpt lat="45.67747" lon="5.30965">
        <ele>266</ele>
        <time>2024-09-19T12:48:52Z</time>
      </trkpt>
      <trkpt lat="45.67743" lon="5.30961">
        <ele>265.8</ele>
        <time>2024-09-19T12:48:53Z</time>
      </trkpt>
      <trkpt lat="45.67739" lon="5.30957">
        <ele>265.8</ele>
        <time>2024-09-19T12:48:54Z</time>
      </trkpt>
      <trkpt lat="45.67736" lon="5.30953">
        <ele>266.2</ele>
        <time>2024-09-19T12:48:55Z</time>
      </trkpt>
      <trkpt lat="45.67732" lon="5.30949">
        <ele>265.8</ele>
        <time>2024-09-19T12:48:56Z</time>
      </trkpt>
      <trkpt lat="45.67728" lon="5.30944">
        <ele>266</ele>
        <time>2024-09-19T12:48:57Z</time>
      </trkpt>
      <trkpt lat="45.67725" lon="5.30939">
        <ele>266.6</ele>
        <time>2024-09-19T12:48:58Z</time>
      </trkpt>
      <trkpt lat="45.67721" lon="5.30936">
        <ele>266.8</ele>
        <time>2024-09-19T12:48:59Z</time>
      </trkpt>
      <trkpt lat="45.67717" lon="5.30931">
        <ele>266.8</ele>
        <time>2024-09-19T12:49:00Z</time>
      </trkpt>
      <trkpt lat="45.67713" lon="5.30926">
        <ele>266.8</ele>
        <time>2024-09-19T12:49:01Z</time>
      </trkpt>
      <trkpt lat="45.67706" lon="5.30917">
        <ele>267.6</ele>
        <time>2024-09-19T12:49:02Z</time>
      </trkpt>
      <trkpt lat="45.67702" lon="5.30912">
        <ele>267.4</ele>
        <time>2024-09-19T12:49:03Z</time>
      </trkpt>
      <trkpt lat="45.67698" lon="5.30907">
        <ele>267.4</ele>
        <time>2024-09-19T12:49:04Z</time>
      </trkpt>
      <trkpt lat="45.67694" lon="5.30902">
        <ele>267.6</ele>
        <time>2024-09-19T12:49:05Z</time>
      </trkpt>
      <trkpt lat="45.67691" lon="5.30898">
        <ele>267.4</ele>
        <time>2024-09-19T12:49:06Z</time>
      </trkpt>
      <trkpt lat="45.67687" lon="5.30894">
        <ele>267</ele>
        <time>2024-09-19T12:49:07Z</time>
      </trkpt>
      <trkpt lat="45.67684" lon="5.30889">
        <ele>267</ele>
        <time>2024-09-19T12:49:08Z</time>
      </trkpt>
      <trkpt lat="45.6768" lon="5.30885">
        <ele>267.4</ele>
        <time>2024-09-19T12:49:09Z</time>
      </trkpt>
      <trkpt lat="45.67677" lon="5.3088">
        <ele>267.6</ele>
        <time>2024-09-19T12:49:10Z</time>
      </trkpt>
      <trkpt lat="45.67673" lon="5.30875">
        <ele>267.8</ele>
        <time>2024-09-19T12:49:11Z</time>
      </trkpt>
      <trkpt lat="45.67669" lon="5.30871">
        <ele>267.8</ele>
        <time>2024-09-19T12:49:12Z</time>
      </trkpt>
      <trkpt lat="45.67665" lon="5.30866">
        <ele>267.8</ele>
        <time>2024-09-19T12:49:13Z</time>
      </trkpt>
      <trkpt lat="45.67662" lon="5.30861">
        <ele>267.8</ele>
        <time>2024-09-19T12:49:14Z</time>
      </trkpt>
      <trkpt lat="45.67659" lon="5.30856">
        <ele>267.8</ele>
        <time>2024-09-19T12:49:15Z</time>
      </trkpt>
      <trkpt lat="45.67657" lon="5.3085">
        <ele>267.8</ele>
        <time>2024-09-19T12:49:16Z</time>
      </trkpt>
      <trkpt lat="45.67653" lon="5.30845">
        <ele>267.8</ele>
        <time>2024-09-19T12:49:17Z</time>
      </trkpt>
      <trkpt lat="45.6765" lon="5.30841">
        <ele>267.4</ele>
        <time>2024-09-19T12:49:18Z</time>
      </trkpt>
      <trkpt lat="45.67647" lon="5.30836">
        <ele>267.4</ele>
        <time>2024-09-19T12:49:19Z</time>
      </trkpt>
      <trkpt lat="45.67644" lon="5.3083">
        <ele>268</ele>
        <time>2024-09-19T12:49:20Z</time>
      </trkpt>
      <trkpt lat="45.67641" lon="5.30825">
        <ele>268</ele>
        <time>2024-09-19T12:49:21Z</time>
      </trkpt>
      <trkpt lat="45.67638" lon="5.30819">
        <ele>267.8</ele>
        <time>2024-09-19T12:49:22Z</time>
      </trkpt>
      <trkpt lat="45.67635" lon="5.30814">
        <ele>267.8</ele>
        <time>2024-09-19T12:49:23Z</time>
      </trkpt>
      <trkpt lat="45.67631" lon="5.30809">
        <ele>267.8</ele>
        <time>2024-09-19T12:49:24Z</time>
      </trkpt>
      <trkpt lat="45.67628" lon="5.30803">
        <ele>268</ele>
        <time>2024-09-19T12:49:25Z</time>
      </trkpt>
      <trkpt lat="45.67625" lon="5.30798">
        <ele>267.8</ele>
        <time>2024-09-19T12:49:26Z</time>
      </trkpt>
      <trkpt lat="45.67623" lon="5.30793">
        <ele>267.8</ele>
        <time>2024-09-19T12:49:27Z</time>
      </trkpt>
      <trkpt lat="45.67622" lon="5.30785">
        <ele>268</ele>
        <time>2024-09-19T12:49:28Z</time>
      </trkpt>
      <trkpt lat="45.67619" lon="5.30781">
        <ele>268.6</ele>
        <time>2024-09-19T12:49:29Z</time>
      </trkpt>
      <trkpt lat="45.67616" lon="5.30776">
        <ele>268.6</ele>
        <time>2024-09-19T12:49:30Z</time>
      </trkpt>
      <trkpt lat="45.67614" lon="5.30771">
        <ele>268.6</ele>
        <time>2024-09-19T12:49:31Z</time>
      </trkpt>
      <trkpt lat="45.67611" lon="5.30766">
        <ele>268.6</ele>
        <time>2024-09-19T12:49:32Z</time>
      </trkpt>
      <trkpt lat="45.67608" lon="5.30762">
        <ele>268.8</ele>
        <time>2024-09-19T12:49:33Z</time>
      </trkpt>
      <trkpt lat="45.67606" lon="5.30756">
        <ele>268.8</ele>
        <time>2024-09-19T12:49:34Z</time>
      </trkpt>
      <trkpt lat="45.67603" lon="5.30751">
        <ele>269</ele>
        <time>2024-09-19T12:49:35Z</time>
      </trkpt>
      <trkpt lat="45.67601" lon="5.30746">
        <ele>268.8</ele>
        <time>2024-09-19T12:49:36Z</time>
      </trkpt>
      <trkpt lat="45.67598" lon="5.30741">
        <ele>268.8</ele>
        <time>2024-09-19T12:49:37Z</time>
      </trkpt>
      <trkpt lat="45.67596" lon="5.30736">
        <ele>269.2</ele>
        <time>2024-09-19T12:49:38Z</time>
      </trkpt>
      <trkpt lat="45.67593" lon="5.30731">
        <ele>269.2</ele>
        <time>2024-09-19T12:49:39Z</time>
      </trkpt>
      <trkpt lat="45.67591" lon="5.30726">
        <ele>269.2</ele>
        <time>2024-09-19T12:49:40Z</time>
      </trkpt>
      <trkpt lat="45.67589" lon="5.30721">
        <ele>269.2</ele>
        <time>2024-09-19T12:49:41Z</time>
      </trkpt>
      <trkpt lat="45.67587" lon="5.30715">
        <ele>269.2</ele>
        <time>2024-09-19T12:49:42Z</time>
      </trkpt>
      <trkpt lat="45.67585" lon="5.3071">
        <ele>269</ele>
        <time>2024-09-19T12:49:43Z</time>
      </trkpt>
      <trkpt lat="45.67582" lon="5.30704">
        <ele>268.4</ele>
        <time>2024-09-19T12:49:44Z</time>
      </trkpt>
      <trkpt lat="45.6758" lon="5.30698">
        <ele>269</ele>
        <time>2024-09-19T12:49:45Z</time>
      </trkpt>
      <trkpt lat="45.67578" lon="5.30692">
        <ele>269</ele>
        <time>2024-09-19T12:49:46Z</time>
      </trkpt>
      <trkpt lat="45.67576" lon="5.30686">
        <ele>269.2</ele>
        <time>2024-09-19T12:49:47Z</time>
      </trkpt>
      <trkpt lat="45.67573" lon="5.30681">
        <ele>269.2</ele>
        <time>2024-09-19T12:49:48Z</time>
      </trkpt>
      <trkpt lat="45.67572" lon="5.30675">
        <ele>269.2</ele>
        <time>2024-09-19T12:49:49Z</time>
      </trkpt>
      <trkpt lat="45.6757" lon="5.30669">
        <ele>269.2</ele>
        <time>2024-09-19T12:49:50Z</time>
      </trkpt>
      <trkpt lat="45.67568" lon="5.30663">
        <ele>269.2</ele>
        <time>2024-09-19T12:49:51Z</time>
      </trkpt>
      <trkpt lat="45.67566" lon="5.30656">
        <ele>269.2</ele>
        <time>2024-09-19T12:49:52Z</time>
      </trkpt>
      <trkpt lat="45.67565" lon="5.3065">
        <ele>269.8</ele>
        <time>2024-09-19T12:49:53Z</time>
      </trkpt>
      <trkpt lat="45.67563" lon="5.30644">
        <ele>269.8</ele>
        <time>2024-09-19T12:49:54Z</time>
      </trkpt>
      <trkpt lat="45.67561" lon="5.30639">
        <ele>270</ele>
        <time>2024-09-19T12:49:55Z</time>
      </trkpt>
      <trkpt lat="45.67559" lon="5.30632">
        <ele>270</ele>
        <time>2024-09-19T12:49:56Z</time>
      </trkpt>
      <trkpt lat="45.67557" lon="5.30626">
        <ele>270.8</ele>
        <time>2024-09-19T12:49:57Z</time>
      </trkpt>
      <trkpt lat="45.67556" lon="5.3062">
        <ele>271.2</ele>
        <time>2024-09-19T12:49:58Z</time>
      </trkpt>
      <trkpt lat="45.67554" lon="5.30613">
        <ele>271</ele>
        <time>2024-09-19T12:49:59Z</time>
      </trkpt>
      <trkpt lat="45.67553" lon="5.30607">
        <ele>271</ele>
        <time>2024-09-19T12:50:00Z</time>
      </trkpt>
      <trkpt lat="45.67552" lon="5.30602">
        <ele>271</ele>
        <time>2024-09-19T12:50:01Z</time>
      </trkpt>
      <trkpt lat="45.6755" lon="5.30596">
        <ele>270.4</ele>
        <time>2024-09-19T12:50:02Z</time>
      </trkpt>
      <trkpt lat="45.67548" lon="5.3059">
        <ele>270.2</ele>
        <time>2024-09-19T12:50:03Z</time>
      </trkpt>
      <trkpt lat="45.67548" lon="5.30584">
        <ele>270.4</ele>
        <time>2024-09-19T12:50:04Z</time>
      </trkpt>
      <trkpt lat="45.67547" lon="5.30578">
        <ele>270.4</ele>
        <time>2024-09-19T12:50:05Z</time>
      </trkpt>
      <trkpt lat="45.67546" lon="5.30572">
        <ele>270</ele>
        <time>2024-09-19T12:50:06Z</time>
      </trkpt>
      <trkpt lat="45.67545" lon="5.30566">
        <ele>270</ele>
        <time>2024-09-19T12:50:07Z</time>
      </trkpt>
      <trkpt lat="45.67544" lon="5.3056">
        <ele>270.6</ele>
        <time>2024-09-19T12:50:08Z</time>
      </trkpt>
      <trkpt lat="45.67543" lon="5.30554">
        <ele>270.6</ele>
        <time>2024-09-19T12:50:09Z</time>
      </trkpt>
      <trkpt lat="45.67542" lon="5.30548">
        <ele>270.8</ele>
        <time>2024-09-19T12:50:10Z</time>
      </trkpt>
      <trkpt lat="45.67541" lon="5.30541">
        <ele>270.8</ele>
        <time>2024-09-19T12:50:11Z</time>
      </trkpt>
      <trkpt lat="45.6754" lon="5.30535">
        <ele>271.2</ele>
        <time>2024-09-19T12:50:12Z</time>
      </trkpt>
      <trkpt lat="45.67539" lon="5.30529">
        <ele>271.2</ele>
        <time>2024-09-19T12:50:13Z</time>
      </trkpt>
      <trkpt lat="45.67538" lon="5.30523">
        <ele>271.2</ele>
        <time>2024-09-19T12:50:14Z</time>
      </trkpt>
      <trkpt lat="45.67537" lon="5.30516">
        <ele>271.2</ele>
        <time>2024-09-19T12:50:15Z</time>
      </trkpt>
      <trkpt lat="45.67536" lon="5.3051">
        <ele>271</ele>
        <time>2024-09-19T12:50:16Z</time>
      </trkpt>
      <trkpt lat="45.67536" lon="5.30504">
        <ele>270.6</ele>
        <time>2024-09-19T12:50:17Z</time>
      </trkpt>
      <trkpt lat="45.67536" lon="5.30498">
        <ele>270.8</ele>
        <time>2024-09-19T12:50:18Z</time>
      </trkpt>
      <trkpt lat="45.67535" lon="5.30492">
        <ele>270.8</ele>
        <time>2024-09-19T12:50:19Z</time>
      </trkpt>
      <trkpt lat="45.67534" lon="5.30485">
        <ele>270.8</ele>
        <time>2024-09-19T12:50:20Z</time>
      </trkpt>
      <trkpt lat="45.67534" lon="5.30479">
        <ele>271.6</ele>
        <time>2024-09-19T12:50:21Z</time>
      </trkpt>
      <trkpt lat="45.67533" lon="5.30473">
        <ele>271.6</ele>
        <time>2024-09-19T12:50:22Z</time>
      </trkpt>
      <trkpt lat="45.67533" lon="5.30466">
        <ele>272.2</ele>
        <time>2024-09-19T12:50:23Z</time>
      </trkpt>
      <trkpt lat="45.67533" lon="5.3046">
        <ele>271.4</ele>
        <time>2024-09-19T12:50:24Z</time>
      </trkpt>
      <trkpt lat="45.67533" lon="5.30454">
        <ele>271.4</ele>
        <time>2024-09-19T12:50:25Z</time>
      </trkpt>
      <trkpt lat="45.67533" lon="5.30448">
        <ele>271.4</ele>
        <time>2024-09-19T12:50:26Z</time>
      </trkpt>
      <trkpt lat="45.67532" lon="5.30442">
        <ele>271.4</ele>
        <time>2024-09-19T12:50:27Z</time>
      </trkpt>
      <trkpt lat="45.67532" lon="5.30436">
        <ele>271.4</ele>
        <time>2024-09-19T12:50:28Z</time>
      </trkpt>
      <trkpt lat="45.67532" lon="5.3043">
        <ele>271.4</ele>
        <time>2024-09-19T12:50:29Z</time>
      </trkpt>
      <trkpt lat="45.67532" lon="5.30424">
        <ele>271.4</ele>
        <time>2024-09-19T12:50:30Z</time>
      </trkpt>
      <trkpt lat="45.67531" lon="5.30418">
        <ele>271.4</ele>
        <time>2024-09-19T12:50:31Z</time>
      </trkpt>
      <trkpt lat="45.67531" lon="5.30411">
        <ele>271.4</ele>
        <time>2024-09-19T12:50:32Z</time>
      </trkpt>
      <trkpt lat="45.6753" lon="5.30406">
        <ele>272</ele>
        <time>2024-09-19T12:50:33Z</time>
      </trkpt>
      <trkpt lat="45.67531" lon="5.30399">
        <ele>272</ele>
        <time>2024-09-19T12:50:34Z</time>
      </trkpt>
      <trkpt lat="45.67531" lon="5.30393">
        <ele>272.8</ele>
        <time>2024-09-19T12:50:35Z</time>
      </trkpt>
      <trkpt lat="45.67531" lon="5.30387">
        <ele>272.8</ele>
        <time>2024-09-19T12:50:36Z</time>
      </trkpt>
      <trkpt lat="45.67532" lon="5.30381">
        <ele>272.4</ele>
        <time>2024-09-19T12:50:37Z</time>
      </trkpt>
      <trkpt lat="45.67532" lon="5.30375">
        <ele>272.2</ele>
        <time>2024-09-19T12:50:38Z</time>
      </trkpt>
      <trkpt lat="45.67532" lon="5.30368">
        <ele>272.2</ele>
        <time>2024-09-19T12:50:39Z</time>
      </trkpt>
      <trkpt lat="45.67532" lon="5.30362">
        <ele>272.2</ele>
        <time>2024-09-19T12:50:40Z</time>
      </trkpt>
      <trkpt lat="45.67532" lon="5.30355">
        <ele>272.2</ele>
        <time>2024-09-19T12:50:41Z</time>
      </trkpt>
      <trkpt lat="45.67533" lon="5.30349">
        <ele>272.4</ele>
        <time>2024-09-19T12:50:42Z</time>
      </trkpt>
      <trkpt lat="45.67533" lon="5.30343">
        <ele>272.4</ele>
        <time>2024-09-19T12:50:43Z</time>
      </trkpt>
      <trkpt lat="45.67534" lon="5.30337">
        <ele>272.4</ele>
        <time>2024-09-19T12:50:44Z</time>
      </trkpt>
      <trkpt lat="45.67535" lon="5.30331">
        <ele>272.2</ele>
        <time>2024-09-19T12:50:45Z</time>
      </trkpt>
      <trkpt lat="45.67535" lon="5.30326">
        <ele>272.2</ele>
        <time>2024-09-19T12:50:46Z</time>
      </trkpt>
      <trkpt lat="45.67534" lon="5.30322">
        <ele>272.2</ele>
        <time>2024-09-19T12:50:47Z</time>
      </trkpt>
      <trkpt lat="45.67534" lon="5.30319">
        <ele>272.2</ele>
        <time>2024-09-19T12:50:48Z</time>
      </trkpt>
      <trkpt lat="45.67535" lon="5.30317">
        <ele>272.2</ele>
        <time>2024-09-19T12:50:49Z</time>
      </trkpt>
      <trkpt lat="45.67535" lon="5.30313">
        <ele>272.6</ele>
        <time>2024-09-19T12:50:50Z</time>
      </trkpt>
      <trkpt lat="45.67535" lon="5.30311">
        <ele>272.8</ele>
        <time>2024-09-19T12:50:51Z</time>
      </trkpt>
      <trkpt lat="45.67535" lon="5.3031">
        <ele>272.8</ele>
        <time>2024-09-19T12:50:52Z</time>
      </trkpt>
      <trkpt lat="45.67535" lon="5.30309">
        <ele>272.8</ele>
        <time>2024-09-19T12:50:53Z</time>
      </trkpt>
      <trkpt lat="45.67535" lon="5.30308">
        <ele>273</ele>
        <time>2024-09-19T12:50:54Z</time>
      </trkpt>
      <trkpt lat="45.67535" lon="5.30307">
        <ele>273.4</ele>
        <time>2024-09-19T12:50:55Z</time>
      </trkpt>
      <trkpt lat="45.67535" lon="5.30306">
        <ele>273.4</ele>
        <time>2024-09-19T12:50:56Z</time>
      </trkpt>
      <trkpt lat="45.67535" lon="5.30306">
        <ele>273.4</ele>
        <time>2024-09-19T12:50:57Z</time>
      </trkpt>
      <trkpt lat="45.67536" lon="5.303">
        <ele>273.6</ele>
        <time>2024-09-19T12:51:37Z</time>
      </trkpt>
      <trkpt lat="45.67537" lon="5.30297">
        <ele>273.6</ele>
        <time>2024-09-19T12:51:38Z</time>
      </trkpt>
      <trkpt lat="45.67538" lon="5.30293">
        <ele>273.2</ele>
        <time>2024-09-19T12:51:39Z</time>
      </trkpt>
      <trkpt lat="45.67538" lon="5.30288">
        <ele>272.8</ele>
        <time>2024-09-19T12:51:40Z</time>
      </trkpt>
      <trkpt lat="45.67538" lon="5.30283">
        <ele>272.8</ele>
        <time>2024-09-19T12:51:41Z</time>
      </trkpt>
      <trkpt lat="45.67539" lon="5.30278">
        <ele>273.2</ele>
        <time>2024-09-19T12:51:42Z</time>
      </trkpt>
      <trkpt lat="45.6754" lon="5.30272">
        <ele>273</ele>
        <time>2024-09-19T12:51:43Z</time>
      </trkpt>
      <trkpt lat="45.67541" lon="5.30267">
        <ele>272.8</ele>
        <time>2024-09-19T12:51:44Z</time>
      </trkpt>
      <trkpt lat="45.67542" lon="5.30262">
        <ele>272.8</ele>
        <time>2024-09-19T12:51:45Z</time>
      </trkpt>
      <trkpt lat="45.67543" lon="5.30257">
        <ele>272.4</ele>
        <time>2024-09-19T12:51:46Z</time>
      </trkpt>
      <trkpt lat="45.67545" lon="5.30252">
        <ele>272.8</ele>
        <time>2024-09-19T12:51:47Z</time>
      </trkpt>
      <trkpt lat="45.67546" lon="5.30246">
        <ele>272.8</ele>
        <time>2024-09-19T12:51:48Z</time>
      </trkpt>
      <trkpt lat="45.67546" lon="5.30238">
        <ele>273.4</ele>
        <time>2024-09-19T12:51:49Z</time>
      </trkpt>
      <trkpt lat="45.67548" lon="5.30232">
        <ele>273.6</ele>
        <time>2024-09-19T12:51:50Z</time>
      </trkpt>
      <trkpt lat="45.67549" lon="5.30225">
        <ele>273</ele>
        <time>2024-09-19T12:51:51Z</time>
      </trkpt>
      <trkpt lat="45.6755" lon="5.30219">
        <ele>273</ele>
        <time>2024-09-19T12:51:52Z</time>
      </trkpt>
      <trkpt lat="45.67552" lon="5.30213">
        <ele>273.2</ele>
        <time>2024-09-19T12:51:53Z</time>
      </trkpt>
      <trkpt lat="45.67554" lon="5.30206">
        <ele>273</ele>
        <time>2024-09-19T12:51:54Z</time>
      </trkpt>
      <trkpt lat="45.67555" lon="5.30199">
        <ele>273</ele>
        <time>2024-09-19T12:51:55Z</time>
      </trkpt>
      <trkpt lat="45.67557" lon="5.30192">
        <ele>273.6</ele>
        <time>2024-09-19T12:51:56Z</time>
      </trkpt>
      <trkpt lat="45.67559" lon="5.30185">
        <ele>273.6</ele>
        <time>2024-09-19T12:51:57Z</time>
      </trkpt>
      <trkpt lat="45.67561" lon="5.30179">
        <ele>273.6</ele>
        <time>2024-09-19T12:51:58Z</time>
      </trkpt>
      <trkpt lat="45.67562" lon="5.30173">
        <ele>273.6</ele>
        <time>2024-09-19T12:51:59Z</time>
      </trkpt>
      <trkpt lat="45.67562" lon="5.30173">
        <ele>273.2</ele>
        <time>2024-09-19T12:52:00Z</time>
      </trkpt>
      <trkpt lat="45.67562" lon="5.30173">
        <ele>273.2</ele>
        <time>2024-09-19T12:52:01Z</time>
      </trkpt>
      <trkpt lat="45.67566" lon="5.30154">
        <ele>272.8</ele>
        <time>2024-09-19T12:52:02Z</time>
      </trkpt>
      <trkpt lat="45.67569" lon="5.30148">
        <ele>272.8</ele>
        <time>2024-09-19T12:52:03Z</time>
      </trkpt>
      <trkpt lat="45.67571" lon="5.30141">
        <ele>273.2</ele>
        <time>2024-09-19T12:52:04Z</time>
      </trkpt>
      <trkpt lat="45.67572" lon="5.30135">
        <ele>273.2</ele>
        <time>2024-09-19T12:52:05Z</time>
      </trkpt>
      <trkpt lat="45.67574" lon="5.30129">
        <ele>273.8</ele>
        <time>2024-09-19T12:52:06Z</time>
      </trkpt>
      <trkpt lat="45.67576" lon="5.30122">
        <ele>273.6</ele>
        <time>2024-09-19T12:52:07Z</time>
      </trkpt>
      <trkpt lat="45.67578" lon="5.30118">
        <ele>273.6</ele>
        <time>2024-09-19T12:52:08Z</time>
      </trkpt>
      <trkpt lat="45.67582" lon="5.3011">
        <ele>274</ele>
        <time>2024-09-19T12:52:09Z</time>
      </trkpt>
      <trkpt lat="45.67585" lon="5.30105">
        <ele>274.4</ele>
        <time>2024-09-19T12:52:10Z</time>
      </trkpt>
      <trkpt lat="45.67587" lon="5.30098">
        <ele>274.4</ele>
        <time>2024-09-19T12:52:11Z</time>
      </trkpt>
      <trkpt lat="45.6759" lon="5.30093">
        <ele>274.2</ele>
        <time>2024-09-19T12:52:12Z</time>
      </trkpt>
      <trkpt lat="45.67593" lon="5.30087">
        <ele>274.2</ele>
        <time>2024-09-19T12:52:13Z</time>
      </trkpt>
      <trkpt lat="45.67595" lon="5.30081">
        <ele>274.4</ele>
        <time>2024-09-19T12:52:14Z</time>
      </trkpt>
      <trkpt lat="45.67597" lon="5.30075">
        <ele>274</ele>
        <time>2024-09-19T12:52:15Z</time>
      </trkpt>
      <trkpt lat="45.67599" lon="5.30068">
        <ele>274</ele>
        <time>2024-09-19T12:52:16Z</time>
      </trkpt>
      <trkpt lat="45.67602" lon="5.30063">
        <ele>274</ele>
        <time>2024-09-19T12:52:17Z</time>
      </trkpt>
      <trkpt lat="45.67604" lon="5.30057">
        <ele>273.6</ele>
        <time>2024-09-19T12:52:18Z</time>
      </trkpt>
      <trkpt lat="45.67607" lon="5.30051">
        <ele>274</ele>
        <time>2024-09-19T12:52:19Z</time>
      </trkpt>
      <trkpt lat="45.67609" lon="5.30044">
        <ele>274.2</ele>
        <time>2024-09-19T12:52:20Z</time>
      </trkpt>
      <trkpt lat="45.67612" lon="5.30038">
        <ele>274.2</ele>
        <time>2024-09-19T12:52:21Z</time>
      </trkpt>
      <trkpt lat="45.67615" lon="5.30032">
        <ele>274.2</ele>
        <time>2024-09-19T12:52:22Z</time>
      </trkpt>
      <trkpt lat="45.67619" lon="5.30026">
        <ele>274.2</ele>
        <time>2024-09-19T12:52:23Z</time>
      </trkpt>
      <trkpt lat="45.67622" lon="5.30021">
        <ele>274.2</ele>
        <time>2024-09-19T12:52:24Z</time>
      </trkpt>
      <trkpt lat="45.67625" lon="5.30014">
        <ele>275.2</ele>
        <time>2024-09-19T12:52:25Z</time>
      </trkpt>
      <trkpt lat="45.67628" lon="5.30008">
        <ele>274.8</ele>
        <time>2024-09-19T12:52:26Z</time>
      </trkpt>
      <trkpt lat="45.67631" lon="5.30004">
        <ele>275</ele>
        <time>2024-09-19T12:52:27Z</time>
      </trkpt>
      <trkpt lat="45.67634" lon="5.29998">
        <ele>274.4</ele>
        <time>2024-09-19T12:52:28Z</time>
      </trkpt>
      <trkpt lat="45.67637" lon="5.29994">
        <ele>274.4</ele>
        <time>2024-09-19T12:52:29Z</time>
      </trkpt>
      <trkpt lat="45.67641" lon="5.29988">
        <ele>274.6</ele>
        <time>2024-09-19T12:52:30Z</time>
      </trkpt>
      <trkpt lat="45.67643" lon="5.29982">
        <ele>274.6</ele>
        <time>2024-09-19T12:52:31Z</time>
      </trkpt>
      <trkpt lat="45.67647" lon="5.29976">
        <ele>274.6</ele>
        <time>2024-09-19T12:52:32Z</time>
      </trkpt>
      <trkpt lat="45.6765" lon="5.29971">
        <ele>274.4</ele>
        <time>2024-09-19T12:52:33Z</time>
      </trkpt>
      <trkpt lat="45.67653" lon="5.29967">
        <ele>274.6</ele>
        <time>2024-09-19T12:52:34Z</time>
      </trkpt>
      <trkpt lat="45.67657" lon="5.29961">
        <ele>274.6</ele>
        <time>2024-09-19T12:52:35Z</time>
      </trkpt>
      <trkpt lat="45.6766" lon="5.29956">
        <ele>274.6</ele>
        <time>2024-09-19T12:52:36Z</time>
      </trkpt>
      <trkpt lat="45.67663" lon="5.29951">
        <ele>275.4</ele>
        <time>2024-09-19T12:52:37Z</time>
      </trkpt>
      <trkpt lat="45.67667" lon="5.29947">
        <ele>275.4</ele>
        <time>2024-09-19T12:52:38Z</time>
      </trkpt>
      <trkpt lat="45.67671" lon="5.29943">
        <ele>275.4</ele>
        <time>2024-09-19T12:52:39Z</time>
      </trkpt>
      <trkpt lat="45.67674" lon="5.29938">
        <ele>275.4</ele>
        <time>2024-09-19T12:52:40Z</time>
      </trkpt>
      <trkpt lat="45.67678" lon="5.29934">
        <ele>275.6</ele>
        <time>2024-09-19T12:52:41Z</time>
      </trkpt>
      <trkpt lat="45.67681" lon="5.29928">
        <ele>275.6</ele>
        <time>2024-09-19T12:52:42Z</time>
      </trkpt>
      <trkpt lat="45.67684" lon="5.29923">
        <ele>275.6</ele>
        <time>2024-09-19T12:52:43Z</time>
      </trkpt>
      <trkpt lat="45.67688" lon="5.29918">
        <ele>276</ele>
        <time>2024-09-19T12:52:44Z</time>
      </trkpt>
      <trkpt lat="45.67692" lon="5.29914">
        <ele>276</ele>
        <time>2024-09-19T12:52:45Z</time>
      </trkpt>
      <trkpt lat="45.67695" lon="5.29909">
        <ele>275.6</ele>
        <time>2024-09-19T12:52:46Z</time>
      </trkpt>
      <trkpt lat="45.67698" lon="5.29904">
        <ele>275.6</ele>
        <time>2024-09-19T12:52:47Z</time>
      </trkpt>
      <trkpt lat="45.67702" lon="5.29899">
        <ele>275.6</ele>
        <time>2024-09-19T12:52:48Z</time>
      </trkpt>
      <trkpt lat="45.67706" lon="5.29893">
        <ele>275.6</ele>
        <time>2024-09-19T12:52:49Z</time>
      </trkpt>
      <trkpt lat="45.67709" lon="5.29889">
        <ele>275.8</ele>
        <time>2024-09-19T12:52:50Z</time>
      </trkpt>
      <trkpt lat="45.67713" lon="5.29884">
        <ele>275.8</ele>
        <time>2024-09-19T12:52:51Z</time>
      </trkpt>
      <trkpt lat="45.67717" lon="5.29879">
        <ele>276.2</ele>
        <time>2024-09-19T12:52:52Z</time>
      </trkpt>
      <trkpt lat="45.6772" lon="5.29875">
        <ele>276.2</ele>
        <time>2024-09-19T12:52:53Z</time>
      </trkpt>
      <trkpt lat="45.67724" lon="5.2987">
        <ele>276.2</ele>
        <time>2024-09-19T12:52:54Z</time>
      </trkpt>
      <trkpt lat="45.67728" lon="5.29866">
        <ele>275.6</ele>
        <time>2024-09-19T12:52:55Z</time>
      </trkpt>
      <trkpt lat="45.67732" lon="5.29862">
        <ele>275.6</ele>
        <time>2024-09-19T12:52:56Z</time>
      </trkpt>
      <trkpt lat="45.67737" lon="5.29857">
        <ele>276.2</ele>
        <time>2024-09-19T12:52:57Z</time>
      </trkpt>
      <trkpt lat="45.6774" lon="5.29853">
        <ele>276.2</ele>
        <time>2024-09-19T12:52:58Z</time>
      </trkpt>
      <trkpt lat="45.67744" lon="5.29848">
        <ele>276.6</ele>
        <time>2024-09-19T12:52:59Z</time>
      </trkpt>
      <trkpt lat="45.67748" lon="5.29843">
        <ele>276.6</ele>
        <time>2024-09-19T12:53:00Z</time>
      </trkpt>
      <trkpt lat="45.67752" lon="5.29838">
        <ele>276.6</ele>
        <time>2024-09-19T12:53:01Z</time>
      </trkpt>
      <trkpt lat="45.67756" lon="5.29834">
        <ele>276.6</ele>
        <time>2024-09-19T12:53:02Z</time>
      </trkpt>
      <trkpt lat="45.67761" lon="5.29829">
        <ele>277.2</ele>
        <time>2024-09-19T12:53:03Z</time>
      </trkpt>
      <trkpt lat="45.67766" lon="5.29825">
        <ele>277.2</ele>
        <time>2024-09-19T12:53:04Z</time>
      </trkpt>
      <trkpt lat="45.6777" lon="5.29821">
        <ele>277.2</ele>
        <time>2024-09-19T12:53:05Z</time>
      </trkpt>
      <trkpt lat="45.67774" lon="5.29816">
        <ele>276.8</ele>
        <time>2024-09-19T12:53:06Z</time>
      </trkpt>
      <trkpt lat="45.67778" lon="5.29813">
        <ele>277</ele>
        <time>2024-09-19T12:53:07Z</time>
      </trkpt>
      <trkpt lat="45.67783" lon="5.29809">
        <ele>277.2</ele>
        <time>2024-09-19T12:53:08Z</time>
      </trkpt>
      <trkpt lat="45.67787" lon="5.29805">
        <ele>277.2</ele>
        <time>2024-09-19T12:53:09Z</time>
      </trkpt>
      <trkpt lat="45.67791" lon="5.298">
        <ele>277.6</ele>
        <time>2024-09-19T12:53:10Z</time>
      </trkpt>
      <trkpt lat="45.67795" lon="5.29796">
        <ele>277.6</ele>
        <time>2024-09-19T12:53:11Z</time>
      </trkpt>
      <trkpt lat="45.678" lon="5.29793">
        <ele>277</ele>
        <time>2024-09-19T12:53:12Z</time>
      </trkpt>
      <trkpt lat="45.67803" lon="5.29789">
        <ele>276.6</ele>
        <time>2024-09-19T12:53:13Z</time>
      </trkpt>
      <trkpt lat="45.67807" lon="5.29785">
        <ele>276.6</ele>
        <time>2024-09-19T12:53:14Z</time>
      </trkpt>
      <trkpt lat="45.67811" lon="5.29781">
        <ele>276.6</ele>
        <time>2024-09-19T12:53:15Z</time>
      </trkpt>
      <trkpt lat="45.67815" lon="5.29778">
        <ele>277.8</ele>
        <time>2024-09-19T12:53:16Z</time>
      </trkpt>
      <trkpt lat="45.67819" lon="5.29775">
        <ele>277.4</ele>
        <time>2024-09-19T12:53:17Z</time>
      </trkpt>
      <trkpt lat="45.67823" lon="5.29771">
        <ele>278.2</ele>
        <time>2024-09-19T12:53:18Z</time>
      </trkpt>
      <trkpt lat="45.67826" lon="5.29768">
        <ele>278.8</ele>
        <time>2024-09-19T12:53:19Z</time>
      </trkpt>
      <trkpt lat="45.67829" lon="5.29765">
        <ele>278</ele>
        <time>2024-09-19T12:53:20Z</time>
      </trkpt>
      <trkpt lat="45.67833" lon="5.2976">
        <ele>278.4</ele>
        <time>2024-09-19T12:53:21Z</time>
      </trkpt>
      <trkpt lat="45.67837" lon="5.29756">
        <ele>278</ele>
        <time>2024-09-19T12:53:22Z</time>
      </trkpt>
      <trkpt lat="45.67841" lon="5.29753">
        <ele>277.6</ele>
        <time>2024-09-19T12:53:23Z</time>
      </trkpt>
      <trkpt lat="45.67845" lon="5.29749">
        <ele>277.6</ele>
        <time>2024-09-19T12:53:24Z</time>
      </trkpt>
      <trkpt lat="45.67849" lon="5.29746">
        <ele>277.4</ele>
        <time>2024-09-19T12:53:25Z</time>
      </trkpt>
      <trkpt lat="45.67855" lon="5.29742">
        <ele>277.8</ele>
        <time>2024-09-19T12:53:26Z</time>
      </trkpt>
      <trkpt lat="45.67859" lon="5.29738">
        <ele>277.8</ele>
        <time>2024-09-19T12:53:27Z</time>
      </trkpt>
      <trkpt lat="45.67864" lon="5.29735">
        <ele>277.6</ele>
        <time>2024-09-19T12:53:28Z</time>
      </trkpt>
      <trkpt lat="45.67868" lon="5.29732">
        <ele>277.4</ele>
        <time>2024-09-19T12:53:29Z</time>
      </trkpt>
      <trkpt lat="45.67872" lon="5.29728">
        <ele>277.4</ele>
        <time>2024-09-19T12:53:30Z</time>
      </trkpt>
      <trkpt lat="45.67876" lon="5.29724">
        <ele>277.4</ele>
        <time>2024-09-19T12:53:31Z</time>
      </trkpt>
      <trkpt lat="45.67881" lon="5.2972">
        <ele>277.4</ele>
        <time>2024-09-19T12:53:32Z</time>
      </trkpt>
      <trkpt lat="45.67885" lon="5.29716">
        <ele>277.6</ele>
        <time>2024-09-19T12:53:33Z</time>
      </trkpt>
      <trkpt lat="45.6789" lon="5.29712">
        <ele>277.6</ele>
        <time>2024-09-19T12:53:34Z</time>
      </trkpt>
      <trkpt lat="45.67894" lon="5.29709">
        <ele>278.2</ele>
        <time>2024-09-19T12:53:35Z</time>
      </trkpt>
      <trkpt lat="45.67899" lon="5.29705">
        <ele>277.8</ele>
        <time>2024-09-19T12:53:36Z</time>
      </trkpt>
      <trkpt lat="45.67903" lon="5.29702">
        <ele>277.8</ele>
        <time>2024-09-19T12:53:37Z</time>
      </trkpt>
      <trkpt lat="45.67907" lon="5.29698">
        <ele>277.8</ele>
        <time>2024-09-19T12:53:38Z</time>
      </trkpt>
      <trkpt lat="45.67912" lon="5.29694">
        <ele>277.6</ele>
        <time>2024-09-19T12:53:39Z</time>
      </trkpt>
      <trkpt lat="45.67917" lon="5.2969">
        <ele>278</ele>
        <time>2024-09-19T12:53:40Z</time>
      </trkpt>
      <trkpt lat="45.67921" lon="5.29686">
        <ele>277.6</ele>
        <time>2024-09-19T12:53:41Z</time>
      </trkpt>
      <trkpt lat="45.67925" lon="5.29682">
        <ele>277.6</ele>
        <time>2024-09-19T12:53:42Z</time>
      </trkpt>
      <trkpt lat="45.6793" lon="5.29679">
        <ele>278</ele>
        <time>2024-09-19T12:53:43Z</time>
      </trkpt>
      <trkpt lat="45.67934" lon="5.29675">
        <ele>278.6</ele>
        <time>2024-09-19T12:53:44Z</time>
      </trkpt>
      <trkpt lat="45.67938" lon="5.29671">
        <ele>278.8</ele>
        <time>2024-09-19T12:53:45Z</time>
      </trkpt>
      <trkpt lat="45.67943" lon="5.29667">
        <ele>278.8</ele>
        <time>2024-09-19T12:53:46Z</time>
      </trkpt>
      <trkpt lat="45.67946" lon="5.29664">
        <ele>278.8</ele>
        <time>2024-09-19T12:53:47Z</time>
      </trkpt>
      <trkpt lat="45.6795" lon="5.29662">
        <ele>278.6</ele>
        <time>2024-09-19T12:53:48Z</time>
      </trkpt>
      <trkpt lat="45.67955" lon="5.29657">
        <ele>278.6</ele>
        <time>2024-09-19T12:53:49Z</time>
      </trkpt>
      <trkpt lat="45.67959" lon="5.29653">
        <ele>278</ele>
        <time>2024-09-19T12:53:50Z</time>
      </trkpt>
      <trkpt lat="45.67964" lon="5.2965">
        <ele>277.8</ele>
        <time>2024-09-19T12:53:51Z</time>
      </trkpt>
      <trkpt lat="45.67969" lon="5.29646">
        <ele>277.8</ele>
        <time>2024-09-19T12:53:52Z</time>
      </trkpt>
      <trkpt lat="45.67973" lon="5.29642">
        <ele>277.8</ele>
        <time>2024-09-19T12:53:53Z</time>
      </trkpt>
      <trkpt lat="45.67977" lon="5.29638">
        <ele>277.8</ele>
        <time>2024-09-19T12:53:54Z</time>
      </trkpt>
      <trkpt lat="45.67982" lon="5.29635">
        <ele>277.8</ele>
        <time>2024-09-19T12:53:55Z</time>
      </trkpt>
      <trkpt lat="45.67986" lon="5.29631">
        <ele>278</ele>
        <time>2024-09-19T12:53:56Z</time>
      </trkpt>
      <trkpt lat="45.6799" lon="5.29627">
        <ele>278</ele>
        <time>2024-09-19T12:53:57Z</time>
      </trkpt>
      <trkpt lat="45.67994" lon="5.29624">
        <ele>277.6</ele>
        <time>2024-09-19T12:53:58Z</time>
      </trkpt>
      <trkpt lat="45.67999" lon="5.2962">
        <ele>277.6</ele>
        <time>2024-09-19T12:53:59Z</time>
      </trkpt>
      <trkpt lat="45.68003" lon="5.29616">
        <ele>278.2</ele>
        <time>2024-09-19T12:54:00Z</time>
      </trkpt>
      <trkpt lat="45.68007" lon="5.29613">
        <ele>277.8</ele>
        <time>2024-09-19T12:54:01Z</time>
      </trkpt>
      <trkpt lat="45.68011" lon="5.29609">
        <ele>278.2</ele>
        <time>2024-09-19T12:54:02Z</time>
      </trkpt>
      <trkpt lat="45.68015" lon="5.29606">
        <ele>278.8</ele>
        <time>2024-09-19T12:54:03Z</time>
      </trkpt>
      <trkpt lat="45.68019" lon="5.29602">
        <ele>278.8</ele>
        <time>2024-09-19T12:54:04Z</time>
      </trkpt>
      <trkpt lat="45.68024" lon="5.29599">
        <ele>278.8</ele>
        <time>2024-09-19T12:54:05Z</time>
      </trkpt>
      <trkpt lat="45.68028" lon="5.29595">
        <ele>279</ele>
        <time>2024-09-19T12:54:06Z</time>
      </trkpt>
      <trkpt lat="45.68033" lon="5.29591">
        <ele>278.6</ele>
        <time>2024-09-19T12:54:07Z</time>
      </trkpt>
      <trkpt lat="45.68037" lon="5.29587">
        <ele>278.6</ele>
        <time>2024-09-19T12:54:08Z</time>
      </trkpt>
      <trkpt lat="45.68042" lon="5.29584">
        <ele>279.2</ele>
        <time>2024-09-19T12:54:09Z</time>
      </trkpt>
      <trkpt lat="45.68046" lon="5.2958">
        <ele>279.6</ele>
        <time>2024-09-19T12:54:10Z</time>
      </trkpt>
      <trkpt lat="45.6805" lon="5.29576">
        <ele>279.2</ele>
        <time>2024-09-19T12:54:11Z</time>
      </trkpt>
      <trkpt lat="45.68055" lon="5.29572">
        <ele>278.8</ele>
        <time>2024-09-19T12:54:12Z</time>
      </trkpt>
      <trkpt lat="45.68059" lon="5.29567">
        <ele>278.6</ele>
        <time>2024-09-19T12:54:13Z</time>
      </trkpt>
      <trkpt lat="45.68064" lon="5.29564">
        <ele>279</ele>
        <time>2024-09-19T12:54:14Z</time>
      </trkpt>
      <trkpt lat="45.68068" lon="5.2956">
        <ele>278.6</ele>
        <time>2024-09-19T12:54:15Z</time>
      </trkpt>
      <trkpt lat="45.68073" lon="5.29556">
        <ele>278.6</ele>
        <time>2024-09-19T12:54:16Z</time>
      </trkpt>
      <trkpt lat="45.68077" lon="5.29552">
        <ele>279.4</ele>
        <time>2024-09-19T12:54:17Z</time>
      </trkpt>
      <trkpt lat="45.68081" lon="5.29548">
        <ele>279.4</ele>
        <time>2024-09-19T12:54:18Z</time>
      </trkpt>
      <trkpt lat="45.68086" lon="5.29544">
        <ele>279.8</ele>
        <time>2024-09-19T12:54:19Z</time>
      </trkpt>
      <trkpt lat="45.6809" lon="5.29539">
        <ele>279</ele>
        <time>2024-09-19T12:54:20Z</time>
      </trkpt>
      <trkpt lat="45.68095" lon="5.29535">
        <ele>279</ele>
        <time>2024-09-19T12:54:21Z</time>
      </trkpt>
      <trkpt lat="45.68099" lon="5.29532">
        <ele>279.4</ele>
        <time>2024-09-19T12:54:22Z</time>
      </trkpt>
      <trkpt lat="45.68104" lon="5.29528">
        <ele>279.8</ele>
        <time>2024-09-19T12:54:23Z</time>
      </trkpt>
      <trkpt lat="45.68108" lon="5.29524">
        <ele>279.8</ele>
        <time>2024-09-19T12:54:24Z</time>
      </trkpt>
      <trkpt lat="45.68113" lon="5.29521">
        <ele>279.8</ele>
        <time>2024-09-19T12:54:25Z</time>
      </trkpt>
      <trkpt lat="45.68117" lon="5.29517">
        <ele>279.6</ele>
        <time>2024-09-19T12:54:26Z</time>
      </trkpt>
      <trkpt lat="45.68122" lon="5.29514">
        <ele>280</ele>
        <time>2024-09-19T12:54:27Z</time>
      </trkpt>
      <trkpt lat="45.68126" lon="5.2951">
        <ele>280</ele>
        <time>2024-09-19T12:54:28Z</time>
      </trkpt>
      <trkpt lat="45.68131" lon="5.29506">
        <ele>280</ele>
        <time>2024-09-19T12:54:29Z</time>
      </trkpt>
      <trkpt lat="45.68135" lon="5.29503">
        <ele>280.4</ele>
        <time>2024-09-19T12:54:30Z</time>
      </trkpt>
      <trkpt lat="45.68139" lon="5.29499">
        <ele>280.6</ele>
        <time>2024-09-19T12:54:31Z</time>
      </trkpt>
      <trkpt lat="45.68144" lon="5.29495">
        <ele>281</ele>
        <time>2024-09-19T12:54:32Z</time>
      </trkpt>
      <trkpt lat="45.68148" lon="5.29491">
        <ele>280.6</ele>
        <time>2024-09-19T12:54:33Z</time>
      </trkpt>
      <trkpt lat="45.68152" lon="5.29487">
        <ele>280.4</ele>
        <time>2024-09-19T12:54:34Z</time>
      </trkpt>
      <trkpt lat="45.68156" lon="5.29483">
        <ele>280</ele>
        <time>2024-09-19T12:54:35Z</time>
      </trkpt>
      <trkpt lat="45.68161" lon="5.2948">
        <ele>280</ele>
        <time>2024-09-19T12:54:36Z</time>
      </trkpt>
      <trkpt lat="45.68166" lon="5.29476">
        <ele>279.8</ele>
        <time>2024-09-19T12:54:37Z</time>
      </trkpt>
      <trkpt lat="45.6817" lon="5.29472">
        <ele>279.8</ele>
        <time>2024-09-19T12:54:38Z</time>
      </trkpt>
      <trkpt lat="45.68175" lon="5.29468">
        <ele>280.4</ele>
        <time>2024-09-19T12:54:39Z</time>
      </trkpt>
      <trkpt lat="45.68179" lon="5.29465">
        <ele>280.4</ele>
        <time>2024-09-19T12:54:40Z</time>
      </trkpt>
      <trkpt lat="45.68182" lon="5.29462">
        <ele>280.2</ele>
        <time>2024-09-19T12:54:41Z</time>
      </trkpt>
      <trkpt lat="45.68187" lon="5.29458">
        <ele>280.2</ele>
        <time>2024-09-19T12:54:42Z</time>
      </trkpt>
      <trkpt lat="45.68188" lon="5.29455">
        <ele>280</ele>
        <time>2024-09-19T12:54:43Z</time>
      </trkpt>
      <trkpt lat="45.68193" lon="5.2945">
        <ele>281</ele>
        <time>2024-09-19T12:54:44Z</time>
      </trkpt>
      <trkpt lat="45.68198" lon="5.29447">
        <ele>281.2</ele>
        <time>2024-09-19T12:54:45Z</time>
      </trkpt>
      <trkpt lat="45.68202" lon="5.29443">
        <ele>281.2</ele>
        <time>2024-09-19T12:54:46Z</time>
      </trkpt>
      <trkpt lat="45.68206" lon="5.29439">
        <ele>281.2</ele>
        <time>2024-09-19T12:54:47Z</time>
      </trkpt>
      <trkpt lat="45.6821" lon="5.29435">
        <ele>281.2</ele>
        <time>2024-09-19T12:54:48Z</time>
      </trkpt>
      <trkpt lat="45.6821" lon="5.29435">
        <ele>280.8</ele>
        <time>2024-09-19T12:54:49Z</time>
      </trkpt>
      <trkpt lat="45.68214" lon="5.2943">
        <ele>280.8</ele>
        <time>2024-09-19T12:54:50Z</time>
      </trkpt>
      <trkpt lat="45.68219" lon="5.29426">
        <ele>280.8</ele>
        <time>2024-09-19T12:54:51Z</time>
      </trkpt>
      <trkpt lat="45.68224" lon="5.29423">
        <ele>280.8</ele>
        <time>2024-09-19T12:54:52Z</time>
      </trkpt>
      <trkpt lat="45.68228" lon="5.29419">
        <ele>280.8</ele>
        <time>2024-09-19T12:54:53Z</time>
      </trkpt>
      <trkpt lat="45.68232" lon="5.29415">
        <ele>280.2</ele>
        <time>2024-09-19T12:54:54Z</time>
      </trkpt>
      <trkpt lat="45.68236" lon="5.2941">
        <ele>280.2</ele>
        <time>2024-09-19T12:54:55Z</time>
      </trkpt>
      <trkpt lat="45.68242" lon="5.29407">
        <ele>280.2</ele>
        <time>2024-09-19T12:54:56Z</time>
      </trkpt>
      <trkpt lat="45.68246" lon="5.29403">
        <ele>281</ele>
        <time>2024-09-19T12:54:57Z</time>
      </trkpt>
      <trkpt lat="45.68251" lon="5.29399">
        <ele>280.6</ele>
        <time>2024-09-19T12:54:58Z</time>
      </trkpt>
      <trkpt lat="45.68255" lon="5.29395">
        <ele>280.6</ele>
        <time>2024-09-19T12:54:59Z</time>
      </trkpt>
      <trkpt lat="45.6826" lon="5.2939">
        <ele>280.8</ele>
        <time>2024-09-19T12:55:00Z</time>
      </trkpt>
      <trkpt lat="45.68263" lon="5.29386">
        <ele>280.6</ele>
        <time>2024-09-19T12:55:01Z</time>
      </trkpt>
      <trkpt lat="45.68272" lon="5.29376">
        <ele>280.6</ele>
        <time>2024-09-19T12:55:02Z</time>
      </trkpt>
      <trkpt lat="45.68275" lon="5.29371">
        <ele>280.6</ele>
        <time>2024-09-19T12:55:03Z</time>
      </trkpt>
      <trkpt lat="45.6828" lon="5.29367">
        <ele>280.8</ele>
        <time>2024-09-19T12:55:04Z</time>
      </trkpt>
      <trkpt lat="45.68283" lon="5.29362">
        <ele>281.2</ele>
        <time>2024-09-19T12:55:05Z</time>
      </trkpt>
      <trkpt lat="45.68288" lon="5.29358">
        <ele>281.2</ele>
        <time>2024-09-19T12:55:06Z</time>
      </trkpt>
      <trkpt lat="45.68292" lon="5.29353">
        <ele>280.8</ele>
        <time>2024-09-19T12:55:07Z</time>
      </trkpt>
      <trkpt lat="45.68296" lon="5.29348">
        <ele>280.4</ele>
        <time>2024-09-19T12:55:08Z</time>
      </trkpt>
      <trkpt lat="45.68299" lon="5.29342">
        <ele>280.8</ele>
        <time>2024-09-19T12:55:09Z</time>
      </trkpt>
      <trkpt lat="45.68302" lon="5.29338">
        <ele>280.8</ele>
        <time>2024-09-19T12:55:10Z</time>
      </trkpt>
      <trkpt lat="45.68307" lon="5.29332">
        <ele>280.8</ele>
        <time>2024-09-19T12:55:11Z</time>
      </trkpt>
      <trkpt lat="45.68312" lon="5.29326">
        <ele>281</ele>
        <time>2024-09-19T12:55:12Z</time>
      </trkpt>
      <trkpt lat="45.68316" lon="5.29321">
        <ele>281</ele>
        <time>2024-09-19T12:55:13Z</time>
      </trkpt>
      <trkpt lat="45.6832" lon="5.29315">
        <ele>281.8</ele>
        <time>2024-09-19T12:55:14Z</time>
      </trkpt>
      <trkpt lat="45.68323" lon="5.2931">
        <ele>281.4</ele>
        <time>2024-09-19T12:55:15Z</time>
      </trkpt>
      <trkpt lat="45.68327" lon="5.29304">
        <ele>282</ele>
        <time>2024-09-19T12:55:16Z</time>
      </trkpt>
      <trkpt lat="45.68331" lon="5.29298">
        <ele>282.4</ele>
        <time>2024-09-19T12:55:17Z</time>
      </trkpt>
      <trkpt lat="45.68335" lon="5.29293">
        <ele>281.6</ele>
        <time>2024-09-19T12:55:18Z</time>
      </trkpt>
      <trkpt lat="45.68338" lon="5.29287">
        <ele>282</ele>
        <time>2024-09-19T12:55:19Z</time>
      </trkpt>
      <trkpt lat="45.68341" lon="5.29281">
        <ele>281.8</ele>
        <time>2024-09-19T12:55:20Z</time>
      </trkpt>
      <trkpt lat="45.68345" lon="5.29275">
        <ele>281.8</ele>
        <time>2024-09-19T12:55:21Z</time>
      </trkpt>
      <trkpt lat="45.68348" lon="5.29269">
        <ele>281.8</ele>
        <time>2024-09-19T12:55:22Z</time>
      </trkpt>
      <trkpt lat="45.68352" lon="5.29264">
        <ele>282.2</ele>
        <time>2024-09-19T12:55:23Z</time>
      </trkpt>
      <trkpt lat="45.68354" lon="5.29258">
        <ele>281.6</ele>
        <time>2024-09-19T12:55:24Z</time>
      </trkpt>
      <trkpt lat="45.68358" lon="5.29253">
        <ele>280.8</ele>
        <time>2024-09-19T12:55:25Z</time>
      </trkpt>
      <trkpt lat="45.68362" lon="5.29247">
        <ele>281.4</ele>
        <time>2024-09-19T12:55:26Z</time>
      </trkpt>
      <trkpt lat="45.68364" lon="5.29241">
        <ele>281.8</ele>
        <time>2024-09-19T12:55:27Z</time>
      </trkpt>
      <trkpt lat="45.68367" lon="5.29235">
        <ele>281</ele>
        <time>2024-09-19T12:55:28Z</time>
      </trkpt>
      <trkpt lat="45.68369" lon="5.29228">
        <ele>281.6</ele>
        <time>2024-09-19T12:55:29Z</time>
      </trkpt>
      <trkpt lat="45.68372" lon="5.29223">
        <ele>281.8</ele>
        <time>2024-09-19T12:55:30Z</time>
      </trkpt>
      <trkpt lat="45.68375" lon="5.29217">
        <ele>281.8</ele>
        <time>2024-09-19T12:55:31Z</time>
      </trkpt>
      <trkpt lat="45.68377" lon="5.29211">
        <ele>282</ele>
        <time>2024-09-19T12:55:32Z</time>
      </trkpt>
      <trkpt lat="45.6838" lon="5.29205">
        <ele>281.6</ele>
        <time>2024-09-19T12:55:33Z</time>
      </trkpt>
      <trkpt lat="45.68383" lon="5.29199">
        <ele>281.2</ele>
        <time>2024-09-19T12:55:34Z</time>
      </trkpt>
      <trkpt lat="45.68385" lon="5.29193">
        <ele>281.2</ele>
        <time>2024-09-19T12:55:35Z</time>
      </trkpt>
      <trkpt lat="45.68388" lon="5.29187">
        <ele>281.4</ele>
        <time>2024-09-19T12:55:36Z</time>
      </trkpt>
      <trkpt lat="45.6839" lon="5.2918">
        <ele>281.4</ele>
        <time>2024-09-19T12:55:37Z</time>
      </trkpt>
      <trkpt lat="45.68393" lon="5.29175">
        <ele>280.8</ele>
        <time>2024-09-19T12:55:38Z</time>
      </trkpt>
      <trkpt lat="45.68395" lon="5.29169">
        <ele>280.8</ele>
        <time>2024-09-19T12:55:39Z</time>
      </trkpt>
      <trkpt lat="45.68397" lon="5.29162">
        <ele>281</ele>
        <time>2024-09-19T12:55:40Z</time>
      </trkpt>
      <trkpt lat="45.684" lon="5.29155">
        <ele>281</ele>
        <time>2024-09-19T12:55:41Z</time>
      </trkpt>
      <trkpt lat="45.68402" lon="5.29148">
        <ele>281</ele>
        <time>2024-09-19T12:55:42Z</time>
      </trkpt>
      <trkpt lat="45.68404" lon="5.29142">
        <ele>281</ele>
        <time>2024-09-19T12:55:43Z</time>
      </trkpt>
      <trkpt lat="45.68406" lon="5.29136">
        <ele>281</ele>
        <time>2024-09-19T12:55:44Z</time>
      </trkpt>
      <trkpt lat="45.68409" lon="5.29131">
        <ele>281.8</ele>
        <time>2024-09-19T12:55:45Z</time>
      </trkpt>
      <trkpt lat="45.68411" lon="5.29124">
        <ele>281.8</ele>
        <time>2024-09-19T12:55:46Z</time>
      </trkpt>
      <trkpt lat="45.68414" lon="5.29118">
        <ele>281.8</ele>
        <time>2024-09-19T12:55:47Z</time>
      </trkpt>
      <trkpt lat="45.68416" lon="5.29113">
        <ele>281.4</ele>
        <time>2024-09-19T12:55:48Z</time>
      </trkpt>
      <trkpt lat="45.68419" lon="5.29107">
        <ele>281.4</ele>
        <time>2024-09-19T12:55:49Z</time>
      </trkpt>
      <trkpt lat="45.68423" lon="5.29101">
        <ele>281.4</ele>
        <time>2024-09-19T12:55:50Z</time>
      </trkpt>
      <trkpt lat="45.68426" lon="5.29096">
        <ele>281.4</ele>
        <time>2024-09-19T12:55:51Z</time>
      </trkpt>
      <trkpt lat="45.68427" lon="5.29091">
        <ele>281.6</ele>
        <time>2024-09-19T12:55:52Z</time>
      </trkpt>
      <trkpt lat="45.6843" lon="5.29084">
        <ele>281.6</ele>
        <time>2024-09-19T12:55:53Z</time>
      </trkpt>
      <trkpt lat="45.68432" lon="5.29079">
        <ele>281.6</ele>
        <time>2024-09-19T12:55:54Z</time>
      </trkpt>
      <trkpt lat="45.68434" lon="5.29074">
        <ele>282.4</ele>
        <time>2024-09-19T12:55:55Z</time>
      </trkpt>
      <trkpt lat="45.68437" lon="5.29069">
        <ele>282.4</ele>
        <time>2024-09-19T12:55:56Z</time>
      </trkpt>
      <trkpt lat="45.68438" lon="5.29062">
        <ele>282.6</ele>
        <time>2024-09-19T12:55:57Z</time>
      </trkpt>
      <trkpt lat="45.6844" lon="5.29057">
        <ele>282.2</ele>
        <time>2024-09-19T12:55:58Z</time>
      </trkpt>
      <trkpt lat="45.68442" lon="5.29051">
        <ele>282.2</ele>
        <time>2024-09-19T12:55:59Z</time>
      </trkpt>
      <trkpt lat="45.68444" lon="5.29045">
        <ele>282.2</ele>
        <time>2024-09-19T12:56:00Z</time>
      </trkpt>
      <trkpt lat="45.68447" lon="5.29039">
        <ele>282.2</ele>
        <time>2024-09-19T12:56:01Z</time>
      </trkpt>
      <trkpt lat="45.6845" lon="5.29034">
        <ele>281.8</ele>
        <time>2024-09-19T12:56:02Z</time>
      </trkpt>
      <trkpt lat="45.68451" lon="5.29028">
        <ele>281.8</ele>
        <time>2024-09-19T12:56:03Z</time>
      </trkpt>
      <trkpt lat="45.68453" lon="5.29023">
        <ele>282.2</ele>
        <time>2024-09-19T12:56:04Z</time>
      </trkpt>
      <trkpt lat="45.68454" lon="5.29018">
        <ele>282.2</ele>
        <time>2024-09-19T12:56:05Z</time>
      </trkpt>
      <trkpt lat="45.68456" lon="5.29013">
        <ele>282.6</ele>
        <time>2024-09-19T12:56:06Z</time>
      </trkpt>
      <trkpt lat="45.68457" lon="5.29008">
        <ele>282.6</ele>
        <time>2024-09-19T12:56:07Z</time>
      </trkpt>
      <trkpt lat="45.68459" lon="5.29004">
        <ele>282.8</ele>
        <time>2024-09-19T12:56:08Z</time>
      </trkpt>
      <trkpt lat="45.68461" lon="5.28999">
        <ele>282.8</ele>
        <time>2024-09-19T12:56:09Z</time>
      </trkpt>
      <trkpt lat="45.68463" lon="5.28993">
        <ele>282.8</ele>
        <time>2024-09-19T12:56:10Z</time>
      </trkpt>
      <trkpt lat="45.68466" lon="5.2899">
        <ele>282.8</ele>
        <time>2024-09-19T12:56:11Z</time>
      </trkpt>
      <trkpt lat="45.68466" lon="5.28982">
        <ele>283</ele>
        <time>2024-09-19T12:56:12Z</time>
      </trkpt>
      <trkpt lat="45.68466" lon="5.28978">
        <ele>283</ele>
        <time>2024-09-19T12:56:13Z</time>
      </trkpt>
      <trkpt lat="45.68465" lon="5.28973">
        <ele>283</ele>
        <time>2024-09-19T12:56:14Z</time>
      </trkpt>
      <trkpt lat="45.68464" lon="5.28969">
        <ele>283</ele>
        <time>2024-09-19T12:56:15Z</time>
      </trkpt>
      <trkpt lat="45.68463" lon="5.28965">
        <ele>283</ele>
        <time>2024-09-19T12:56:16Z</time>
      </trkpt>
      <trkpt lat="45.68463" lon="5.2896">
        <ele>283</ele>
        <time>2024-09-19T12:56:17Z</time>
      </trkpt>
      <trkpt lat="45.68462" lon="5.28955">
        <ele>283</ele>
        <time>2024-09-19T12:56:18Z</time>
      </trkpt>
      <trkpt lat="45.68462" lon="5.2895">
        <ele>283</ele>
        <time>2024-09-19T12:56:19Z</time>
      </trkpt>
      <trkpt lat="45.68463" lon="5.28945">
        <ele>283</ele>
        <time>2024-09-19T12:56:20Z</time>
      </trkpt>
      <trkpt lat="45.68464" lon="5.2894">
        <ele>283</ele>
        <time>2024-09-19T12:56:21Z</time>
      </trkpt>
      <trkpt lat="45.68466" lon="5.28936">
        <ele>283.4</ele>
        <time>2024-09-19T12:56:22Z</time>
      </trkpt>
      <trkpt lat="45.68467" lon="5.2893">
        <ele>283.4</ele>
        <time>2024-09-19T12:56:23Z</time>
      </trkpt>
      <trkpt lat="45.68469" lon="5.28925">
        <ele>283.4</ele>
        <time>2024-09-19T12:56:24Z</time>
      </trkpt>
      <trkpt lat="45.68473" lon="5.2892">
        <ele>283.4</ele>
        <time>2024-09-19T12:56:25Z</time>
      </trkpt>
      <trkpt lat="45.68476" lon="5.28915">
        <ele>283.4</ele>
        <time>2024-09-19T12:56:26Z</time>
      </trkpt>
      <trkpt lat="45.68479" lon="5.28912">
        <ele>283.4</ele>
        <time>2024-09-19T12:56:27Z</time>
      </trkpt>
      <trkpt lat="45.68482" lon="5.28907">
        <ele>283.4</ele>
        <time>2024-09-19T12:56:28Z</time>
      </trkpt>
      <trkpt lat="45.68485" lon="5.28903">
        <ele>283.4</ele>
        <time>2024-09-19T12:56:29Z</time>
      </trkpt>
      <trkpt lat="45.68487" lon="5.28899">
        <ele>283.4</ele>
        <time>2024-09-19T12:56:30Z</time>
      </trkpt>
      <trkpt lat="45.68489" lon="5.28895">
        <ele>283.4</ele>
        <time>2024-09-19T12:56:31Z</time>
      </trkpt>
      <trkpt lat="45.68491" lon="5.28891">
        <ele>283.6</ele>
        <time>2024-09-19T12:56:32Z</time>
      </trkpt>
      <trkpt lat="45.68493" lon="5.28887">
        <ele>283.6</ele>
        <time>2024-09-19T12:56:33Z</time>
      </trkpt>
      <trkpt lat="45.68494" lon="5.28882">
        <ele>283.6</ele>
        <time>2024-09-19T12:56:34Z</time>
      </trkpt>
      <trkpt lat="45.68496" lon="5.28878">
        <ele>283.6</ele>
        <time>2024-09-19T12:56:35Z</time>
      </trkpt>
      <trkpt lat="45.68498" lon="5.28875">
        <ele>283.6</ele>
        <time>2024-09-19T12:56:36Z</time>
      </trkpt>
      <trkpt lat="45.68499" lon="5.28871">
        <ele>283.8</ele>
        <time>2024-09-19T12:56:37Z</time>
      </trkpt>
      <trkpt lat="45.68501" lon="5.28867">
        <ele>283.8</ele>
        <time>2024-09-19T12:56:38Z</time>
      </trkpt>
      <trkpt lat="45.68502" lon="5.28864">
        <ele>283.8</ele>
        <time>2024-09-19T12:56:39Z</time>
      </trkpt>
      <trkpt lat="45.68503" lon="5.28863">
        <ele>283.8</ele>
        <time>2024-09-19T12:56:40Z</time>
      </trkpt>
      <trkpt lat="45.68505" lon="5.28862">
        <ele>284.2</ele>
        <time>2024-09-19T12:56:41Z</time>
      </trkpt>
      <trkpt lat="45.68508" lon="5.28863">
        <ele>284.2</ele>
        <time>2024-09-19T12:56:42Z</time>
      </trkpt>
      <trkpt lat="45.6851" lon="5.28865">
        <ele>284.2</ele>
        <time>2024-09-19T12:56:43Z</time>
      </trkpt>
      <trkpt lat="45.68512" lon="5.28866">
        <ele>284.2</ele>
        <time>2024-09-19T12:56:44Z</time>
      </trkpt>
      <trkpt lat="45.68515" lon="5.28865">
        <ele>284.2</ele>
        <time>2024-09-19T12:56:45Z</time>
      </trkpt>
      <trkpt lat="45.68518" lon="5.28861">
        <ele>283.8</ele>
        <time>2024-09-19T12:56:46Z</time>
      </trkpt>
      <trkpt lat="45.6852" lon="5.28857">
        <ele>283.6</ele>
        <time>2024-09-19T12:56:47Z</time>
      </trkpt>
      <trkpt lat="45.68521" lon="5.28851">
        <ele>283.6</ele>
        <time>2024-09-19T12:56:48Z</time>
      </trkpt>
      <trkpt lat="45.68523" lon="5.28846">
        <ele>283.4</ele>
        <time>2024-09-19T12:56:49Z</time>
      </trkpt>
      <trkpt lat="45.68525" lon="5.28841">
        <ele>283.4</ele>
        <time>2024-09-19T12:56:50Z</time>
      </trkpt>
      <trkpt lat="45.68527" lon="5.28835">
        <ele>283.4</ele>
        <time>2024-09-19T12:56:51Z</time>
      </trkpt>
      <trkpt lat="45.6853" lon="5.2883">
        <ele>283.4</ele>
        <time>2024-09-19T12:56:52Z</time>
      </trkpt>
      <trkpt lat="45.68531" lon="5.28823">
        <ele>283.4</ele>
        <time>2024-09-19T12:56:53Z</time>
      </trkpt>
      <trkpt lat="45.68533" lon="5.28818">
        <ele>283.4</ele>
        <time>2024-09-19T12:56:54Z</time>
      </trkpt>
      <trkpt lat="45.68536" lon="5.28812">
        <ele>283</ele>
        <time>2024-09-19T12:56:55Z</time>
      </trkpt>
      <trkpt lat="45.68538" lon="5.28806">
        <ele>283</ele>
        <time>2024-09-19T12:56:56Z</time>
      </trkpt>
      <trkpt lat="45.68541" lon="5.288">
        <ele>282.8</ele>
        <time>2024-09-19T12:56:57Z</time>
      </trkpt>
      <trkpt lat="45.68543" lon="5.28794">
        <ele>282.8</ele>
        <time>2024-09-19T12:56:58Z</time>
      </trkpt>
      <trkpt lat="45.68546" lon="5.28787">
        <ele>282.8</ele>
        <time>2024-09-19T12:56:59Z</time>
      </trkpt>
      <trkpt lat="45.68548" lon="5.28782">
        <ele>282.8</ele>
        <time>2024-09-19T12:57:00Z</time>
      </trkpt>
      <trkpt lat="45.68551" lon="5.28776">
        <ele>282.8</ele>
        <time>2024-09-19T12:57:01Z</time>
      </trkpt>
      <trkpt lat="45.68554" lon="5.2877">
        <ele>282.6</ele>
        <time>2024-09-19T12:57:02Z</time>
      </trkpt>
      <trkpt lat="45.68556" lon="5.28765">
        <ele>282.2</ele>
        <time>2024-09-19T12:57:03Z</time>
      </trkpt>
      <trkpt lat="45.68559" lon="5.28759">
        <ele>282.2</ele>
        <time>2024-09-19T12:57:04Z</time>
      </trkpt>
      <trkpt lat="45.68561" lon="5.28753">
        <ele>282.2</ele>
        <time>2024-09-19T12:57:05Z</time>
      </trkpt>
      <trkpt lat="45.68564" lon="5.28747">
        <ele>282.4</ele>
        <time>2024-09-19T12:57:06Z</time>
      </trkpt>
      <trkpt lat="45.68565" lon="5.2874">
        <ele>283</ele>
        <time>2024-09-19T12:57:07Z</time>
      </trkpt>
      <trkpt lat="45.68568" lon="5.28735">
        <ele>282.6</ele>
        <time>2024-09-19T12:57:08Z</time>
      </trkpt>
      <trkpt lat="45.6857" lon="5.28729">
        <ele>282.6</ele>
        <time>2024-09-19T12:57:09Z</time>
      </trkpt>
      <trkpt lat="45.68572" lon="5.28723">
        <ele>282.6</ele>
        <time>2024-09-19T12:57:10Z</time>
      </trkpt>
      <trkpt lat="45.68574" lon="5.28717">
        <ele>282.6</ele>
        <time>2024-09-19T12:57:11Z</time>
      </trkpt>
      <trkpt lat="45.68577" lon="5.28715">
        <ele>282.6</ele>
        <time>2024-09-19T12:57:12Z</time>
      </trkpt>
      <trkpt lat="45.6858" lon="5.28713">
        <ele>283.2</ele>
        <time>2024-09-19T12:57:13Z</time>
      </trkpt>
      <trkpt lat="45.68582" lon="5.28713">
        <ele>283.4</ele>
        <time>2024-09-19T12:57:14Z</time>
      </trkpt>
      <trkpt lat="45.68584" lon="5.28713">
        <ele>283.6</ele>
        <time>2024-09-19T12:57:15Z</time>
      </trkpt>
      <trkpt lat="45.68586" lon="5.28711">
        <ele>283.8</ele>
        <time>2024-09-19T12:57:16Z</time>
      </trkpt>
      <trkpt lat="45.68588" lon="5.28708">
        <ele>283.8</ele>
        <time>2024-09-19T12:57:17Z</time>
      </trkpt>
      <trkpt lat="45.6859" lon="5.28704">
        <ele>283.8</ele>
        <time>2024-09-19T12:57:18Z</time>
      </trkpt>
      <trkpt lat="45.68592" lon="5.287">
        <ele>283.6</ele>
        <time>2024-09-19T12:57:19Z</time>
      </trkpt>
      <trkpt lat="45.68594" lon="5.28695">
        <ele>283.6</ele>
        <time>2024-09-19T12:57:20Z</time>
      </trkpt>
      <trkpt lat="45.68596" lon="5.28689">
        <ele>284</ele>
        <time>2024-09-19T12:57:21Z</time>
      </trkpt>
      <trkpt lat="45.68598" lon="5.28685">
        <ele>284.4</ele>
        <time>2024-09-19T12:57:22Z</time>
      </trkpt>
      <trkpt lat="45.686" lon="5.28679">
        <ele>284.4</ele>
        <time>2024-09-19T12:57:23Z</time>
      </trkpt>
      <trkpt lat="45.68601" lon="5.28675">
        <ele>284.4</ele>
        <time>2024-09-19T12:57:24Z</time>
      </trkpt>
      <trkpt lat="45.68603" lon="5.28669">
        <ele>284.4</ele>
        <time>2024-09-19T12:57:25Z</time>
      </trkpt>
      <trkpt lat="45.68605" lon="5.28664">
        <ele>284</ele>
        <time>2024-09-19T12:57:26Z</time>
      </trkpt>
      <trkpt lat="45.68607" lon="5.28658">
        <ele>284</ele>
        <time>2024-09-19T12:57:27Z</time>
      </trkpt>
      <trkpt lat="45.68608" lon="5.28652">
        <ele>284</ele>
        <time>2024-09-19T12:57:28Z</time>
      </trkpt>
      <trkpt lat="45.6861" lon="5.28648">
        <ele>284</ele>
        <time>2024-09-19T12:57:29Z</time>
      </trkpt>
      <trkpt lat="45.68612" lon="5.28642">
        <ele>283.6</ele>
        <time>2024-09-19T12:57:30Z</time>
      </trkpt>
      <trkpt lat="45.68613" lon="5.28636">
        <ele>283.4</ele>
        <time>2024-09-19T12:57:31Z</time>
      </trkpt>
      <trkpt lat="45.68616" lon="5.2863">
        <ele>283.4</ele>
        <time>2024-09-19T12:57:32Z</time>
      </trkpt>
      <trkpt lat="45.68618" lon="5.28624">
        <ele>283.4</ele>
        <time>2024-09-19T12:57:33Z</time>
      </trkpt>
      <trkpt lat="45.6862" lon="5.28619">
        <ele>283.4</ele>
        <time>2024-09-19T12:57:34Z</time>
      </trkpt>
      <trkpt lat="45.68622" lon="5.28612">
        <ele>283.4</ele>
        <time>2024-09-19T12:57:35Z</time>
      </trkpt>
      <trkpt lat="45.68624" lon="5.28606">
        <ele>283.4</ele>
        <time>2024-09-19T12:57:36Z</time>
      </trkpt>
      <trkpt lat="45.68626" lon="5.286">
        <ele>283.4</ele>
        <time>2024-09-19T12:57:37Z</time>
      </trkpt>
      <trkpt lat="45.68628" lon="5.28594">
        <ele>283.2</ele>
        <time>2024-09-19T12:57:38Z</time>
      </trkpt>
      <trkpt lat="45.6863" lon="5.28589">
        <ele>283.2</ele>
        <time>2024-09-19T12:57:39Z</time>
      </trkpt>
      <trkpt lat="45.68633" lon="5.28583">
        <ele>283.6</ele>
        <time>2024-09-19T12:57:40Z</time>
      </trkpt>
      <trkpt lat="45.68636" lon="5.28577">
        <ele>283.6</ele>
        <time>2024-09-19T12:57:41Z</time>
      </trkpt>
      <trkpt lat="45.68638" lon="5.28572">
        <ele>283.4</ele>
        <time>2024-09-19T12:57:42Z</time>
      </trkpt>
      <trkpt lat="45.68641" lon="5.28565">
        <ele>283.4</ele>
        <time>2024-09-19T12:57:43Z</time>
      </trkpt>
      <trkpt lat="45.68644" lon="5.2856">
        <ele>283.2</ele>
        <time>2024-09-19T12:57:44Z</time>
      </trkpt>
      <trkpt lat="45.68647" lon="5.28554">
        <ele>283.4</ele>
        <time>2024-09-19T12:57:45Z</time>
      </trkpt>
      <trkpt lat="45.6865" lon="5.28548">
        <ele>283.8</ele>
        <time>2024-09-19T12:57:46Z</time>
      </trkpt>
      <trkpt lat="45.68653" lon="5.28542">
        <ele>283.4</ele>
        <time>2024-09-19T12:57:47Z</time>
      </trkpt>
      <trkpt lat="45.68657" lon="5.28536">
        <ele>283.4</ele>
        <time>2024-09-19T12:57:48Z</time>
      </trkpt>
      <trkpt lat="45.6866" lon="5.28531">
        <ele>283.4</ele>
        <time>2024-09-19T12:57:49Z</time>
      </trkpt>
      <trkpt lat="45.68663" lon="5.28526">
        <ele>282.8</ele>
        <time>2024-09-19T12:57:50Z</time>
      </trkpt>
      <trkpt lat="45.68667" lon="5.28521">
        <ele>282.8</ele>
        <time>2024-09-19T12:57:51Z</time>
      </trkpt>
      <trkpt lat="45.6867" lon="5.28516">
        <ele>283.2</ele>
        <time>2024-09-19T12:57:52Z</time>
      </trkpt>
      <trkpt lat="45.68673" lon="5.28511">
        <ele>283.2</ele>
        <time>2024-09-19T12:57:53Z</time>
      </trkpt>
      <trkpt lat="45.68677" lon="5.28507">
        <ele>283.2</ele>
        <time>2024-09-19T12:57:54Z</time>
      </trkpt>
      <trkpt lat="45.68681" lon="5.28502">
        <ele>283.4</ele>
        <time>2024-09-19T12:57:55Z</time>
      </trkpt>
      <trkpt lat="45.68684" lon="5.28497">
        <ele>283.8</ele>
        <time>2024-09-19T12:57:56Z</time>
      </trkpt>
      <trkpt lat="45.68688" lon="5.28492">
        <ele>283.8</ele>
        <time>2024-09-19T12:57:57Z</time>
      </trkpt>
      <trkpt lat="45.68692" lon="5.28487">
        <ele>284</ele>
        <time>2024-09-19T12:57:58Z</time>
      </trkpt>
      <trkpt lat="45.68696" lon="5.28482">
        <ele>284</ele>
        <time>2024-09-19T12:57:59Z</time>
      </trkpt>
      <trkpt lat="45.687" lon="5.28478">
        <ele>284</ele>
        <time>2024-09-19T12:58:00Z</time>
      </trkpt>
      <trkpt lat="45.68705" lon="5.28474">
        <ele>284.2</ele>
        <time>2024-09-19T12:58:01Z</time>
      </trkpt>
      <trkpt lat="45.6871" lon="5.2847">
        <ele>284</ele>
        <time>2024-09-19T12:58:02Z</time>
      </trkpt>
      <trkpt lat="45.68714" lon="5.28466">
        <ele>284</ele>
        <time>2024-09-19T12:58:03Z</time>
      </trkpt>
      <trkpt lat="45.68718" lon="5.28462">
        <ele>283.6</ele>
        <time>2024-09-19T12:58:04Z</time>
      </trkpt>
      <trkpt lat="45.68723" lon="5.28458">
        <ele>283.6</ele>
        <time>2024-09-19T12:58:05Z</time>
      </trkpt>
      <trkpt lat="45.68727" lon="5.28454">
        <ele>283.6</ele>
        <time>2024-09-19T12:58:06Z</time>
      </trkpt>
      <trkpt lat="45.68732" lon="5.2845">
        <ele>283.8</ele>
        <time>2024-09-19T12:58:07Z</time>
      </trkpt>
      <trkpt lat="45.68737" lon="5.28447">
        <ele>283.8</ele>
        <time>2024-09-19T12:58:08Z</time>
      </trkpt>
      <trkpt lat="45.68741" lon="5.28443">
        <ele>283.8</ele>
        <time>2024-09-19T12:58:09Z</time>
      </trkpt>
      <trkpt lat="45.68746" lon="5.28439">
        <ele>282.8</ele>
        <time>2024-09-19T12:58:10Z</time>
      </trkpt>
      <trkpt lat="45.68751" lon="5.28436">
        <ele>283.2</ele>
        <time>2024-09-19T12:58:11Z</time>
      </trkpt>
      <trkpt lat="45.68756" lon="5.28433">
        <ele>283.2</ele>
        <time>2024-09-19T12:58:12Z</time>
      </trkpt>
      <trkpt lat="45.68756" lon="5.28433">
        <ele>283.6</ele>
        <time>2024-09-19T12:58:13Z</time>
      </trkpt>
      <trkpt lat="45.6876" lon="5.2843">
        <ele>283.6</ele>
        <time>2024-09-19T12:58:14Z</time>
      </trkpt>
      <trkpt lat="45.68766" lon="5.28427">
        <ele>283.6</ele>
        <time>2024-09-19T12:58:15Z</time>
      </trkpt>
      <trkpt lat="45.68771" lon="5.28424">
        <ele>283.6</ele>
        <time>2024-09-19T12:58:16Z</time>
      </trkpt>
      <trkpt lat="45.68777" lon="5.28422">
        <ele>283.6</ele>
        <time>2024-09-19T12:58:17Z</time>
      </trkpt>
      <trkpt lat="45.68782" lon="5.2842">
        <ele>283.4</ele>
        <time>2024-09-19T12:58:18Z</time>
      </trkpt>
      <trkpt lat="45.68787" lon="5.28418">
        <ele>283.4</ele>
        <time>2024-09-19T12:58:19Z</time>
      </trkpt>
      <trkpt lat="45.68793" lon="5.28415">
        <ele>283.4</ele>
        <time>2024-09-19T12:58:20Z</time>
      </trkpt>
      <trkpt lat="45.68798" lon="5.28413">
        <ele>283.4</ele>
        <time>2024-09-19T12:58:21Z</time>
      </trkpt>
      <trkpt lat="45.68804" lon="5.28411">
        <ele>283.4</ele>
        <time>2024-09-19T12:58:22Z</time>
      </trkpt>
      <trkpt lat="45.6881" lon="5.28409">
        <ele>283.4</ele>
        <time>2024-09-19T12:58:23Z</time>
      </trkpt>
      <trkpt lat="45.68815" lon="5.28406">
        <ele>282.6</ele>
        <time>2024-09-19T12:58:24Z</time>
      </trkpt>
      <trkpt lat="45.68826" lon="5.284">
        <ele>282.6</ele>
        <time>2024-09-19T12:58:25Z</time>
      </trkpt>
      <trkpt lat="45.68831" lon="5.28399">
        <ele>282.6</ele>
        <time>2024-09-19T12:58:26Z</time>
      </trkpt>
      <trkpt lat="45.68837" lon="5.28396">
        <ele>282.6</ele>
        <time>2024-09-19T12:58:27Z</time>
      </trkpt>
      <trkpt lat="45.68842" lon="5.28394">
        <ele>282.6</ele>
        <time>2024-09-19T12:58:28Z</time>
      </trkpt>
      <trkpt lat="45.68847" lon="5.28391">
        <ele>283</ele>
        <time>2024-09-19T12:58:29Z</time>
      </trkpt>
      <trkpt lat="45.68854" lon="5.2839">
        <ele>283</ele>
        <time>2024-09-19T12:58:30Z</time>
      </trkpt>
      <trkpt lat="45.68859" lon="5.28388">
        <ele>283.2</ele>
        <time>2024-09-19T12:58:31Z</time>
      </trkpt>
      <trkpt lat="45.68865" lon="5.28387">
        <ele>283.2</ele>
        <time>2024-09-19T12:58:32Z</time>
      </trkpt>
      <trkpt lat="45.68872" lon="5.28386">
        <ele>283.2</ele>
        <time>2024-09-19T12:58:33Z</time>
      </trkpt>
      <trkpt lat="45.68877" lon="5.28385">
        <ele>283.2</ele>
        <time>2024-09-19T12:58:34Z</time>
      </trkpt>
      <trkpt lat="45.68884" lon="5.28384">
        <ele>283.2</ele>
        <time>2024-09-19T12:58:35Z</time>
      </trkpt>
      <trkpt lat="45.68889" lon="5.28383">
        <ele>283.6</ele>
        <time>2024-09-19T12:58:36Z</time>
      </trkpt>
      <trkpt lat="45.68897" lon="5.28382">
        <ele>283.6</ele>
        <time>2024-09-19T12:58:37Z</time>
      </trkpt>
      <trkpt lat="45.68902" lon="5.28382">
        <ele>283.4</ele>
        <time>2024-09-19T12:58:38Z</time>
      </trkpt>
      <trkpt lat="45.68908" lon="5.28381">
        <ele>283.4</ele>
        <time>2024-09-19T12:58:39Z</time>
      </trkpt>
      <trkpt lat="45.68914" lon="5.28381">
        <ele>283</ele>
        <time>2024-09-19T12:58:40Z</time>
      </trkpt>
      <trkpt lat="45.68919" lon="5.2838">
        <ele>282.4</ele>
        <time>2024-09-19T12:58:41Z</time>
      </trkpt>
      <trkpt lat="45.68926" lon="5.2838">
        <ele>282.4</ele>
        <time>2024-09-19T12:58:42Z</time>
      </trkpt>
      <trkpt lat="45.6893" lon="5.2838">
        <ele>282.6</ele>
        <time>2024-09-19T12:58:43Z</time>
      </trkpt>
      <trkpt lat="45.68937" lon="5.28382">
        <ele>282.6</ele>
        <time>2024-09-19T12:58:44Z</time>
      </trkpt>
      <trkpt lat="45.68943" lon="5.28381">
        <ele>282.6</ele>
        <time>2024-09-19T12:58:45Z</time>
      </trkpt>
      <trkpt lat="45.68949" lon="5.28382">
        <ele>282.6</ele>
        <time>2024-09-19T12:58:46Z</time>
      </trkpt>
      <trkpt lat="45.68955" lon="5.28383">
        <ele>282.8</ele>
        <time>2024-09-19T12:58:47Z</time>
      </trkpt>
      <trkpt lat="45.68961" lon="5.28383">
        <ele>281.8</ele>
        <time>2024-09-19T12:58:48Z</time>
      </trkpt>
      <trkpt lat="45.68967" lon="5.28385">
        <ele>281.6</ele>
        <time>2024-09-19T12:58:49Z</time>
      </trkpt>
      <trkpt lat="45.68972" lon="5.28385">
        <ele>281.8</ele>
        <time>2024-09-19T12:58:50Z</time>
      </trkpt>
      <trkpt lat="45.68978" lon="5.28387">
        <ele>281.4</ele>
        <time>2024-09-19T12:58:51Z</time>
      </trkpt>
      <trkpt lat="45.68983" lon="5.28389">
        <ele>281.4</ele>
        <time>2024-09-19T12:58:52Z</time>
      </trkpt>
      <trkpt lat="45.68989" lon="5.28391">
        <ele>281.4</ele>
        <time>2024-09-19T12:58:53Z</time>
      </trkpt>
      <trkpt lat="45.68995" lon="5.28392">
        <ele>281.4</ele>
        <time>2024-09-19T12:58:54Z</time>
      </trkpt>
      <trkpt lat="45.69002" lon="5.28394">
        <ele>282</ele>
        <time>2024-09-19T12:58:55Z</time>
      </trkpt>
      <trkpt lat="45.69007" lon="5.28395">
        <ele>282</ele>
        <time>2024-09-19T12:58:56Z</time>
      </trkpt>
      <trkpt lat="45.69013" lon="5.28398">
        <ele>282</ele>
        <time>2024-09-19T12:58:57Z</time>
      </trkpt>
      <trkpt lat="45.6902" lon="5.284">
        <ele>282</ele>
        <time>2024-09-19T12:58:58Z</time>
      </trkpt>
      <trkpt lat="45.69025" lon="5.28402">
        <ele>282</ele>
        <time>2024-09-19T12:58:59Z</time>
      </trkpt>
      <trkpt lat="45.69031" lon="5.28404">
        <ele>282</ele>
        <time>2024-09-19T12:59:00Z</time>
      </trkpt>
      <trkpt lat="45.69035" lon="5.28406">
        <ele>282</ele>
        <time>2024-09-19T12:59:01Z</time>
      </trkpt>
      <trkpt lat="45.6904" lon="5.28408">
        <ele>282</ele>
        <time>2024-09-19T12:59:02Z</time>
      </trkpt>
      <trkpt lat="45.69047" lon="5.2841">
        <ele>282.4</ele>
        <time>2024-09-19T12:59:03Z</time>
      </trkpt>
      <trkpt lat="45.69051" lon="5.28409">
        <ele>282.4</ele>
        <time>2024-09-19T12:59:04Z</time>
      </trkpt>
      <trkpt lat="45.69056" lon="5.28412">
        <ele>282.2</ele>
        <time>2024-09-19T12:59:05Z</time>
      </trkpt>
      <trkpt lat="45.6906" lon="5.28416">
        <ele>282.2</ele>
        <time>2024-09-19T12:59:06Z</time>
      </trkpt>
      <trkpt lat="45.69067" lon="5.28419">
        <ele>282</ele>
        <time>2024-09-19T12:59:07Z</time>
      </trkpt>
      <trkpt lat="45.69072" lon="5.28421">
        <ele>282</ele>
        <time>2024-09-19T12:59:08Z</time>
      </trkpt>
      <trkpt lat="45.69077" lon="5.28423">
        <ele>282.2</ele>
        <time>2024-09-19T12:59:09Z</time>
      </trkpt>
      <trkpt lat="45.6908" lon="5.28426">
        <ele>282.2</ele>
        <time>2024-09-19T12:59:10Z</time>
      </trkpt>
      <trkpt lat="45.69085" lon="5.28427">
        <ele>282.6</ele>
        <time>2024-09-19T12:59:11Z</time>
      </trkpt>
      <trkpt lat="45.69091" lon="5.28428">
        <ele>282.6</ele>
        <time>2024-09-19T12:59:12Z</time>
      </trkpt>
      <trkpt lat="45.69096" lon="5.2843">
        <ele>282.8</ele>
        <time>2024-09-19T12:59:13Z</time>
      </trkpt>
      <trkpt lat="45.69101" lon="5.28433">
        <ele>283</ele>
        <time>2024-09-19T12:59:14Z</time>
      </trkpt>
      <trkpt lat="45.69106" lon="5.28435">
        <ele>282.2</ele>
        <time>2024-09-19T12:59:15Z</time>
      </trkpt>
      <trkpt lat="45.69113" lon="5.28437">
        <ele>282.6</ele>
        <time>2024-09-19T12:59:16Z</time>
      </trkpt>
      <trkpt lat="45.69118" lon="5.28439">
        <ele>282.6</ele>
        <time>2024-09-19T12:59:17Z</time>
      </trkpt>
      <trkpt lat="45.69123" lon="5.2844">
        <ele>282.6</ele>
        <time>2024-09-19T12:59:18Z</time>
      </trkpt>
      <trkpt lat="45.69128" lon="5.28443">
        <ele>282.6</ele>
        <time>2024-09-19T12:59:19Z</time>
      </trkpt>
      <trkpt lat="45.69134" lon="5.28445">
        <ele>282.2</ele>
        <time>2024-09-19T12:59:20Z</time>
      </trkpt>
      <trkpt lat="45.6914" lon="5.28447">
        <ele>282.2</ele>
        <time>2024-09-19T12:59:21Z</time>
      </trkpt>
      <trkpt lat="45.69147" lon="5.2845">
        <ele>281.8</ele>
        <time>2024-09-19T12:59:22Z</time>
      </trkpt>
      <trkpt lat="45.69152" lon="5.28452">
        <ele>281.8</ele>
        <time>2024-09-19T12:59:23Z</time>
      </trkpt>
      <trkpt lat="45.69158" lon="5.28456">
        <ele>281.8</ele>
        <time>2024-09-19T12:59:24Z</time>
      </trkpt>
      <trkpt lat="45.69164" lon="5.28458">
        <ele>281.6</ele>
        <time>2024-09-19T12:59:25Z</time>
      </trkpt>
      <trkpt lat="45.69171" lon="5.28459">
        <ele>281.6</ele>
        <time>2024-09-19T12:59:26Z</time>
      </trkpt>
      <trkpt lat="45.69176" lon="5.2846">
        <ele>281.6</ele>
        <time>2024-09-19T12:59:27Z</time>
      </trkpt>
      <trkpt lat="45.69181" lon="5.28461">
        <ele>281.6</ele>
        <time>2024-09-19T12:59:28Z</time>
      </trkpt>
      <trkpt lat="45.69187" lon="5.28462">
        <ele>282</ele>
        <time>2024-09-19T12:59:29Z</time>
      </trkpt>
      <trkpt lat="45.69192" lon="5.28465">
        <ele>281.6</ele>
        <time>2024-09-19T12:59:30Z</time>
      </trkpt>
      <trkpt lat="45.69199" lon="5.28468">
        <ele>281.4</ele>
        <time>2024-09-19T12:59:31Z</time>
      </trkpt>
      <trkpt lat="45.69204" lon="5.28469">
        <ele>281.4</ele>
        <time>2024-09-19T12:59:32Z</time>
      </trkpt>
      <trkpt lat="45.69208" lon="5.2847">
        <ele>281.4</ele>
        <time>2024-09-19T12:59:33Z</time>
      </trkpt>
      <trkpt lat="45.69213" lon="5.28473">
        <ele>281</ele>
        <time>2024-09-19T12:59:34Z</time>
      </trkpt>
      <trkpt lat="45.69219" lon="5.28475">
        <ele>281.4</ele>
        <time>2024-09-19T12:59:35Z</time>
      </trkpt>
      <trkpt lat="45.69226" lon="5.28477">
        <ele>281.4</ele>
        <time>2024-09-19T12:59:36Z</time>
      </trkpt>
      <trkpt lat="45.69231" lon="5.2848">
        <ele>281.8</ele>
        <time>2024-09-19T12:59:37Z</time>
      </trkpt>
      <trkpt lat="45.69236" lon="5.28481">
        <ele>281.8</ele>
        <time>2024-09-19T12:59:38Z</time>
      </trkpt>
      <trkpt lat="45.69241" lon="5.28484">
        <ele>281.8</ele>
        <time>2024-09-19T12:59:39Z</time>
      </trkpt>
      <trkpt lat="45.69248" lon="5.28487">
        <ele>281.8</ele>
        <time>2024-09-19T12:59:40Z</time>
      </trkpt>
      <trkpt lat="45.69253" lon="5.2849">
        <ele>281.8</ele>
        <time>2024-09-19T12:59:41Z</time>
      </trkpt>
      <trkpt lat="45.69259" lon="5.28492">
        <ele>281.8</ele>
        <time>2024-09-19T12:59:42Z</time>
      </trkpt>
      <trkpt lat="45.69265" lon="5.28495">
        <ele>281.8</ele>
        <time>2024-09-19T12:59:43Z</time>
      </trkpt>
      <trkpt lat="45.69271" lon="5.28499">
        <ele>281.8</ele>
        <time>2024-09-19T12:59:44Z</time>
      </trkpt>
      <trkpt lat="45.69277" lon="5.285">
        <ele>281.8</ele>
        <time>2024-09-19T12:59:45Z</time>
      </trkpt>
      <trkpt lat="45.69283" lon="5.28503">
        <ele>281.8</ele>
        <time>2024-09-19T12:59:46Z</time>
      </trkpt>
      <trkpt lat="45.69288" lon="5.28506">
        <ele>281.4</ele>
        <time>2024-09-19T12:59:47Z</time>
      </trkpt>
      <trkpt lat="45.69294" lon="5.2851">
        <ele>281.4</ele>
        <time>2024-09-19T12:59:48Z</time>
      </trkpt>
      <trkpt lat="45.69299" lon="5.28513">
        <ele>281.4</ele>
        <time>2024-09-19T12:59:49Z</time>
      </trkpt>
      <trkpt lat="45.69305" lon="5.28516">
        <ele>281.4</ele>
        <time>2024-09-19T12:59:50Z</time>
      </trkpt>
      <trkpt lat="45.69311" lon="5.28521">
        <ele>280.8</ele>
        <time>2024-09-19T12:59:51Z</time>
      </trkpt>
      <trkpt lat="45.69317" lon="5.28523">
        <ele>280.8</ele>
        <time>2024-09-19T12:59:52Z</time>
      </trkpt>
      <trkpt lat="45.69322" lon="5.28526">
        <ele>281</ele>
        <time>2024-09-19T12:59:53Z</time>
      </trkpt>
      <trkpt lat="45.69327" lon="5.28529">
        <ele>280.6</ele>
        <time>2024-09-19T12:59:54Z</time>
      </trkpt>
      <trkpt lat="45.69331" lon="5.28532">
        <ele>280.6</ele>
        <time>2024-09-19T12:59:55Z</time>
      </trkpt>
      <trkpt lat="45.69336" lon="5.28535">
        <ele>281</ele>
        <time>2024-09-19T12:59:56Z</time>
      </trkpt>
      <trkpt lat="45.69341" lon="5.28537">
        <ele>281</ele>
        <time>2024-09-19T12:59:57Z</time>
      </trkpt>
      <trkpt lat="45.69345" lon="5.28541">
        <ele>281</ele>
        <time>2024-09-19T12:59:58Z</time>
      </trkpt>
      <trkpt lat="45.69351" lon="5.28544">
        <ele>281.2</ele>
        <time>2024-09-19T12:59:59Z</time>
      </trkpt>
      <trkpt lat="45.69356" lon="5.28548">
        <ele>281.2</ele>
        <time>2024-09-19T13:00:00Z</time>
      </trkpt>
      <trkpt lat="45.6936" lon="5.28551">
        <ele>281</ele>
        <time>2024-09-19T13:00:01Z</time>
      </trkpt>
      <trkpt lat="45.69366" lon="5.28555">
        <ele>280.4</ele>
        <time>2024-09-19T13:00:02Z</time>
      </trkpt>
      <trkpt lat="45.69371" lon="5.28559">
        <ele>281</ele>
        <time>2024-09-19T13:00:03Z</time>
      </trkpt>
      <trkpt lat="45.69376" lon="5.28564">
        <ele>280.4</ele>
        <time>2024-09-19T13:00:04Z</time>
      </trkpt>
      <trkpt lat="45.6938" lon="5.28568">
        <ele>280.8</ele>
        <time>2024-09-19T13:00:05Z</time>
      </trkpt>
      <trkpt lat="45.69385" lon="5.28572">
        <ele>281.4</ele>
        <time>2024-09-19T13:00:06Z</time>
      </trkpt>
      <trkpt lat="45.6939" lon="5.28576">
        <ele>281</ele>
        <time>2024-09-19T13:00:07Z</time>
      </trkpt>
      <trkpt lat="45.69396" lon="5.28581">
        <ele>281</ele>
        <time>2024-09-19T13:00:08Z</time>
      </trkpt>
      <trkpt lat="45.69401" lon="5.28585">
        <ele>281</ele>
        <time>2024-09-19T13:00:09Z</time>
      </trkpt>
      <trkpt lat="45.69406" lon="5.28591">
        <ele>280.6</ele>
        <time>2024-09-19T13:00:10Z</time>
      </trkpt>
      <trkpt lat="45.69409" lon="5.28596">
        <ele>281.2</ele>
        <time>2024-09-19T13:00:11Z</time>
      </trkpt>
      <trkpt lat="45.69414" lon="5.28601">
        <ele>281.8</ele>
        <time>2024-09-19T13:00:12Z</time>
      </trkpt>
      <trkpt lat="45.69418" lon="5.28605">
        <ele>280.8</ele>
        <time>2024-09-19T13:00:13Z</time>
      </trkpt>
      <trkpt lat="45.69423" lon="5.28609">
        <ele>281.4</ele>
        <time>2024-09-19T13:00:14Z</time>
      </trkpt>
      <trkpt lat="45.69428" lon="5.28613">
        <ele>281</ele>
        <time>2024-09-19T13:00:15Z</time>
      </trkpt>
      <trkpt lat="45.69433" lon="5.28617">
        <ele>282</ele>
        <time>2024-09-19T13:00:16Z</time>
      </trkpt>
      <trkpt lat="45.69438" lon="5.28622">
        <ele>281.4</ele>
        <time>2024-09-19T13:00:17Z</time>
      </trkpt>
      <trkpt lat="45.69442" lon="5.28625">
        <ele>281.4</ele>
        <time>2024-09-19T13:00:18Z</time>
      </trkpt>
      <trkpt lat="45.69447" lon="5.2863">
        <ele>281</ele>
        <time>2024-09-19T13:00:19Z</time>
      </trkpt>
      <trkpt lat="45.69452" lon="5.28635">
        <ele>280.8</ele>
        <time>2024-09-19T13:00:20Z</time>
      </trkpt>
      <trkpt lat="45.69457" lon="5.28639">
        <ele>280.4</ele>
        <time>2024-09-19T13:00:21Z</time>
      </trkpt>
      <trkpt lat="45.69462" lon="5.28644">
        <ele>281.2</ele>
        <time>2024-09-19T13:00:22Z</time>
      </trkpt>
      <trkpt lat="45.69467" lon="5.28649">
        <ele>281.2</ele>
        <time>2024-09-19T13:00:23Z</time>
      </trkpt>
      <trkpt lat="45.69471" lon="5.28654">
        <ele>281.2</ele>
        <time>2024-09-19T13:00:24Z</time>
      </trkpt>
      <trkpt lat="45.69475" lon="5.28657">
        <ele>281.6</ele>
        <time>2024-09-19T13:00:25Z</time>
      </trkpt>
      <trkpt lat="45.69479" lon="5.28661">
        <ele>281.6</ele>
        <time>2024-09-19T13:00:26Z</time>
      </trkpt>
      <trkpt lat="45.69484" lon="5.28666">
        <ele>281.6</ele>
        <time>2024-09-19T13:00:27Z</time>
      </trkpt>
      <trkpt lat="45.69489" lon="5.28671">
        <ele>281.4</ele>
        <time>2024-09-19T13:00:28Z</time>
      </trkpt>
      <trkpt lat="45.69493" lon="5.28676">
        <ele>280.6</ele>
        <time>2024-09-19T13:00:29Z</time>
      </trkpt>
      <trkpt lat="45.69499" lon="5.28681">
        <ele>281.4</ele>
        <time>2024-09-19T13:00:30Z</time>
      </trkpt>
      <trkpt lat="45.69504" lon="5.28686">
        <ele>281</ele>
        <time>2024-09-19T13:00:31Z</time>
      </trkpt>
      <trkpt lat="45.69508" lon="5.28691">
        <ele>281</ele>
        <time>2024-09-19T13:00:32Z</time>
      </trkpt>
      <trkpt lat="45.69512" lon="5.28696">
        <ele>280.4</ele>
        <time>2024-09-19T13:00:33Z</time>
      </trkpt>
      <trkpt lat="45.69518" lon="5.28701">
        <ele>279.8</ele>
        <time>2024-09-19T13:00:34Z</time>
      </trkpt>
      <trkpt lat="45.69523" lon="5.28704">
        <ele>279.8</ele>
        <time>2024-09-19T13:00:35Z</time>
      </trkpt>
      <trkpt lat="45.69528" lon="5.2871">
        <ele>279.8</ele>
        <time>2024-09-19T13:00:36Z</time>
      </trkpt>
      <trkpt lat="45.69533" lon="5.28714">
        <ele>280</ele>
        <time>2024-09-19T13:00:37Z</time>
      </trkpt>
      <trkpt lat="45.69538" lon="5.28719">
        <ele>279.6</ele>
        <time>2024-09-19T13:00:38Z</time>
      </trkpt>
      <trkpt lat="45.69543" lon="5.28724">
        <ele>279.6</ele>
        <time>2024-09-19T13:00:39Z</time>
      </trkpt>
      <trkpt lat="45.69548" lon="5.28729">
        <ele>280.4</ele>
        <time>2024-09-19T13:00:40Z</time>
      </trkpt>
      <trkpt lat="45.69553" lon="5.28734">
        <ele>280.4</ele>
        <time>2024-09-19T13:00:41Z</time>
      </trkpt>
      <trkpt lat="45.69557" lon="5.28738">
        <ele>280.4</ele>
        <time>2024-09-19T13:00:42Z</time>
      </trkpt>
      <trkpt lat="45.69562" lon="5.28742">
        <ele>280.6</ele>
        <time>2024-09-19T13:00:43Z</time>
      </trkpt>
      <trkpt lat="45.69565" lon="5.28746">
        <ele>280.6</ele>
        <time>2024-09-19T13:00:44Z</time>
      </trkpt>
      <trkpt lat="45.69569" lon="5.2875">
        <ele>280.6</ele>
        <time>2024-09-19T13:00:45Z</time>
      </trkpt>
      <trkpt lat="45.69573" lon="5.28753">
        <ele>280.6</ele>
        <time>2024-09-19T13:00:46Z</time>
      </trkpt>
      <trkpt lat="45.69578" lon="5.28759">
        <ele>280.6</ele>
        <time>2024-09-19T13:00:47Z</time>
      </trkpt>
      <trkpt lat="45.69582" lon="5.28763">
        <ele>280.6</ele>
        <time>2024-09-19T13:00:48Z</time>
      </trkpt>
      <trkpt lat="45.69586" lon="5.28769">
        <ele>280.4</ele>
        <time>2024-09-19T13:00:49Z</time>
      </trkpt>
      <trkpt lat="45.69591" lon="5.28772">
        <ele>280.2</ele>
        <time>2024-09-19T13:00:50Z</time>
      </trkpt>
      <trkpt lat="45.69595" lon="5.28777">
        <ele>280.2</ele>
        <time>2024-09-19T13:00:51Z</time>
      </trkpt>
      <trkpt lat="45.69601" lon="5.28781">
        <ele>279.8</ele>
        <time>2024-09-19T13:00:52Z</time>
      </trkpt>
      <trkpt lat="45.69605" lon="5.28785">
        <ele>279.8</ele>
        <time>2024-09-19T13:00:53Z</time>
      </trkpt>
      <trkpt lat="45.6961" lon="5.28789">
        <ele>280</ele>
        <time>2024-09-19T13:00:54Z</time>
      </trkpt>
      <trkpt lat="45.69615" lon="5.28794">
        <ele>280</ele>
        <time>2024-09-19T13:00:55Z</time>
      </trkpt>
      <trkpt lat="45.69619" lon="5.28799">
        <ele>280</ele>
        <time>2024-09-19T13:00:56Z</time>
      </trkpt>
      <trkpt lat="45.69623" lon="5.28805">
        <ele>279.6</ele>
        <time>2024-09-19T13:00:57Z</time>
      </trkpt>
      <trkpt lat="45.69627" lon="5.2881">
        <ele>279.8</ele>
        <time>2024-09-19T13:00:58Z</time>
      </trkpt>
      <trkpt lat="45.69632" lon="5.28814">
        <ele>279.8</ele>
        <time>2024-09-19T13:00:59Z</time>
      </trkpt>
      <trkpt lat="45.69636" lon="5.28819">
        <ele>279.8</ele>
        <time>2024-09-19T13:01:00Z</time>
      </trkpt>
      <trkpt lat="45.69642" lon="5.28823">
        <ele>279.8</ele>
        <time>2024-09-19T13:01:01Z</time>
      </trkpt>
      <trkpt lat="45.69647" lon="5.28827">
        <ele>279.2</ele>
        <time>2024-09-19T13:01:02Z</time>
      </trkpt>
      <trkpt lat="45.69651" lon="5.28831">
        <ele>279.6</ele>
        <time>2024-09-19T13:01:03Z</time>
      </trkpt>
      <trkpt lat="45.69656" lon="5.28836">
        <ele>279.6</ele>
        <time>2024-09-19T13:01:04Z</time>
      </trkpt>
      <trkpt lat="45.6966" lon="5.2884">
        <ele>279.6</ele>
        <time>2024-09-19T13:01:05Z</time>
      </trkpt>
      <trkpt lat="45.69664" lon="5.28845">
        <ele>279.8</ele>
        <time>2024-09-19T13:01:06Z</time>
      </trkpt>
      <trkpt lat="45.6967" lon="5.28849">
        <ele>279.8</ele>
        <time>2024-09-19T13:01:07Z</time>
      </trkpt>
      <trkpt lat="45.69673" lon="5.28853">
        <ele>279.4</ele>
        <time>2024-09-19T13:01:08Z</time>
      </trkpt>
      <trkpt lat="45.69678" lon="5.28857">
        <ele>279.4</ele>
        <time>2024-09-19T13:01:09Z</time>
      </trkpt>
      <trkpt lat="45.69682" lon="5.28861">
        <ele>279.6</ele>
        <time>2024-09-19T13:01:10Z</time>
      </trkpt>
      <trkpt lat="45.69686" lon="5.28866">
        <ele>279.6</ele>
        <time>2024-09-19T13:01:11Z</time>
      </trkpt>
      <trkpt lat="45.69691" lon="5.28871">
        <ele>279.6</ele>
        <time>2024-09-19T13:01:12Z</time>
      </trkpt>
      <trkpt lat="45.69691" lon="5.28871">
        <ele>280</ele>
        <time>2024-09-19T13:01:13Z</time>
      </trkpt>
      <trkpt lat="45.69696" lon="5.28877">
        <ele>279.8</ele>
        <time>2024-09-19T13:01:14Z</time>
      </trkpt>
      <trkpt lat="45.69701" lon="5.28881">
        <ele>279.8</ele>
        <time>2024-09-19T13:01:15Z</time>
      </trkpt>
      <trkpt lat="45.69705" lon="5.28885">
        <ele>279.8</ele>
        <time>2024-09-19T13:01:16Z</time>
      </trkpt>
      <trkpt lat="45.6971" lon="5.2889">
        <ele>279.8</ele>
        <time>2024-09-19T13:01:17Z</time>
      </trkpt>
      <trkpt lat="45.69715" lon="5.28894">
        <ele>279.4</ele>
        <time>2024-09-19T13:01:18Z</time>
      </trkpt>
      <trkpt lat="45.69719" lon="5.28899">
        <ele>279.4</ele>
        <time>2024-09-19T13:01:19Z</time>
      </trkpt>
      <trkpt lat="45.69724" lon="5.28903">
        <ele>279.4</ele>
        <time>2024-09-19T13:01:20Z</time>
      </trkpt>
      <trkpt lat="45.69728" lon="5.28907">
        <ele>280</ele>
        <time>2024-09-19T13:01:21Z</time>
      </trkpt>
      <trkpt lat="45.69733" lon="5.2891">
        <ele>280</ele>
        <time>2024-09-19T13:01:22Z</time>
      </trkpt>
      <trkpt lat="45.69737" lon="5.28913">
        <ele>280.2</ele>
        <time>2024-09-19T13:01:23Z</time>
      </trkpt>
      <trkpt lat="45.69742" lon="5.28918">
        <ele>280.2</ele>
        <time>2024-09-19T13:01:24Z</time>
      </trkpt>
      <trkpt lat="45.6975" lon="5.28926">
        <ele>280.2</ele>
        <time>2024-09-19T13:01:25Z</time>
      </trkpt>
      <trkpt lat="45.69755" lon="5.28931">
        <ele>280.2</ele>
        <time>2024-09-19T13:01:26Z</time>
      </trkpt>
      <trkpt lat="45.69759" lon="5.28935">
        <ele>280.4</ele>
        <time>2024-09-19T13:01:27Z</time>
      </trkpt>
      <trkpt lat="45.69763" lon="5.28936">
        <ele>280.4</ele>
        <time>2024-09-19T13:01:28Z</time>
      </trkpt>
      <trkpt lat="45.69768" lon="5.2894">
        <ele>281</ele>
        <time>2024-09-19T13:01:29Z</time>
      </trkpt>
      <trkpt lat="45.69772" lon="5.28945">
        <ele>280.6</ele>
        <time>2024-09-19T13:01:30Z</time>
      </trkpt>
      <trkpt lat="45.69776" lon="5.28948">
        <ele>279.6</ele>
        <time>2024-09-19T13:01:31Z</time>
      </trkpt>
      <trkpt lat="45.69781" lon="5.28951">
        <ele>279.2</ele>
        <time>2024-09-19T13:01:32Z</time>
      </trkpt>
      <trkpt lat="45.69787" lon="5.28954">
        <ele>279.2</ele>
        <time>2024-09-19T13:01:33Z</time>
      </trkpt>
      <trkpt lat="45.69791" lon="5.28956">
        <ele>279.8</ele>
        <time>2024-09-19T13:01:34Z</time>
      </trkpt>
      <trkpt lat="45.69795" lon="5.28958">
        <ele>279.8</ele>
        <time>2024-09-19T13:01:35Z</time>
      </trkpt>
      <trkpt lat="45.69801" lon="5.28963">
        <ele>279.4</ele>
        <time>2024-09-19T13:01:36Z</time>
      </trkpt>
      <trkpt lat="45.69801" lon="5.28963">
        <ele>280.2</ele>
        <time>2024-09-19T13:01:37Z</time>
      </trkpt>
      <trkpt lat="45.69801" lon="5.28963">
        <ele>280.4</ele>
        <time>2024-09-19T13:01:38Z</time>
      </trkpt>
      <trkpt lat="45.69801" lon="5.28963">
        <ele>280.4</ele>
        <time>2024-09-19T13:01:39Z</time>
      </trkpt>
      <trkpt lat="45.69817" lon="5.28975">
        <ele>280.2</ele>
        <time>2024-09-19T13:01:40Z</time>
      </trkpt>
      <trkpt lat="45.69821" lon="5.28978">
        <ele>280.2</ele>
        <time>2024-09-19T13:01:41Z</time>
      </trkpt>
      <trkpt lat="45.69826" lon="5.2898">
        <ele>279.4</ele>
        <time>2024-09-19T13:01:42Z</time>
      </trkpt>
      <trkpt lat="45.6983" lon="5.28983">
        <ele>280.2</ele>
        <time>2024-09-19T13:01:43Z</time>
      </trkpt>
      <trkpt lat="45.69835" lon="5.28985">
        <ele>280.2</ele>
        <time>2024-09-19T13:01:44Z</time>
      </trkpt>
      <trkpt lat="45.69839" lon="5.28988">
        <ele>279.4</ele>
        <time>2024-09-19T13:01:45Z</time>
      </trkpt>
      <trkpt lat="45.69843" lon="5.2899">
        <ele>279.4</ele>
        <time>2024-09-19T13:01:46Z</time>
      </trkpt>
      <trkpt lat="45.69848" lon="5.28991">
        <ele>279.4</ele>
        <time>2024-09-19T13:01:47Z</time>
      </trkpt>
      <trkpt lat="45.69853" lon="5.28994">
        <ele>279</ele>
        <time>2024-09-19T13:01:48Z</time>
      </trkpt>
      <trkpt lat="45.69858" lon="5.28996">
        <ele>280</ele>
        <time>2024-09-19T13:01:49Z</time>
      </trkpt>
      <trkpt lat="45.69863" lon="5.28998">
        <ele>280</ele>
        <time>2024-09-19T13:01:50Z</time>
      </trkpt>
      <trkpt lat="45.69868" lon="5.29">
        <ele>280</ele>
        <time>2024-09-19T13:01:51Z</time>
      </trkpt>
      <trkpt lat="45.69873" lon="5.29003">
        <ele>279.4</ele>
        <time>2024-09-19T13:01:52Z</time>
      </trkpt>
      <trkpt lat="45.69878" lon="5.29005">
        <ele>279.8</ele>
        <time>2024-09-19T13:01:53Z</time>
      </trkpt>
      <trkpt lat="45.69881" lon="5.29007">
        <ele>279.8</ele>
        <time>2024-09-19T13:01:54Z</time>
      </trkpt>
      <trkpt lat="45.69885" lon="5.29008">
        <ele>279.8</ele>
        <time>2024-09-19T13:01:55Z</time>
      </trkpt>
      <trkpt lat="45.69891" lon="5.2901">
        <ele>279.4</ele>
        <time>2024-09-19T13:01:56Z</time>
      </trkpt>
      <trkpt lat="45.69897" lon="5.29012">
        <ele>279.6</ele>
        <time>2024-09-19T13:01:57Z</time>
      </trkpt>
      <trkpt lat="45.69902" lon="5.29014">
        <ele>279.4</ele>
        <time>2024-09-19T13:01:58Z</time>
      </trkpt>
      <trkpt lat="45.69907" lon="5.29015">
        <ele>279.4</ele>
        <time>2024-09-19T13:01:59Z</time>
      </trkpt>
      <trkpt lat="45.69907" lon="5.29015">
        <ele>279.8</ele>
        <time>2024-09-19T13:02:00Z</time>
      </trkpt>
      <trkpt lat="45.69916" lon="5.29019">
        <ele>279.4</ele>
        <time>2024-09-19T13:02:01Z</time>
      </trkpt>
      <trkpt lat="45.69922" lon="5.29021">
        <ele>279</ele>
        <time>2024-09-19T13:02:02Z</time>
      </trkpt>
      <trkpt lat="45.69928" lon="5.29021">
        <ele>279</ele>
        <time>2024-09-19T13:02:03Z</time>
      </trkpt>
      <trkpt lat="45.69933" lon="5.29023">
        <ele>280</ele>
        <time>2024-09-19T13:02:04Z</time>
      </trkpt>
      <trkpt lat="45.69938" lon="5.29024">
        <ele>279.8</ele>
        <time>2024-09-19T13:02:05Z</time>
      </trkpt>
      <trkpt lat="45.69944" lon="5.29024">
        <ele>279.8</ele>
        <time>2024-09-19T13:02:06Z</time>
      </trkpt>
      <trkpt lat="45.69949" lon="5.29024">
        <ele>280.4</ele>
        <time>2024-09-19T13:02:07Z</time>
      </trkpt>
      <trkpt lat="45.69955" lon="5.29023">
        <ele>280.4</ele>
        <time>2024-09-19T13:02:08Z</time>
      </trkpt>
      <trkpt lat="45.6996" lon="5.29023">
        <ele>280</ele>
        <time>2024-09-19T13:02:09Z</time>
      </trkpt>
      <trkpt lat="45.69965" lon="5.29023">
        <ele>279.4</ele>
        <time>2024-09-19T13:02:10Z</time>
      </trkpt>
      <trkpt lat="45.69971" lon="5.29022">
        <ele>279.4</ele>
        <time>2024-09-19T13:02:11Z</time>
      </trkpt>
      <trkpt lat="45.69975" lon="5.29021">
        <ele>279.4</ele>
        <time>2024-09-19T13:02:12Z</time>
      </trkpt>
      <trkpt lat="45.69979" lon="5.29023">
        <ele>279.4</ele>
        <time>2024-09-19T13:02:13Z</time>
      </trkpt>
      <trkpt lat="45.69984" lon="5.29022">
        <ele>279.6</ele>
        <time>2024-09-19T13:02:14Z</time>
      </trkpt>
      <trkpt lat="45.69989" lon="5.29022">
        <ele>279.4</ele>
        <time>2024-09-19T13:02:15Z</time>
      </trkpt>
      <trkpt lat="45.69994" lon="5.29022">
        <ele>279.6</ele>
        <time>2024-09-19T13:02:16Z</time>
      </trkpt>
      <trkpt lat="45.69998" lon="5.29022">
        <ele>279.6</ele>
        <time>2024-09-19T13:02:17Z</time>
      </trkpt>
      <trkpt lat="45.70003" lon="5.29021">
        <ele>279.6</ele>
        <time>2024-09-19T13:02:18Z</time>
      </trkpt>
      <trkpt lat="45.70008" lon="5.29022">
        <ele>280</ele>
        <time>2024-09-19T13:02:19Z</time>
      </trkpt>
      <trkpt lat="45.70013" lon="5.29021">
        <ele>280</ele>
        <time>2024-09-19T13:02:20Z</time>
      </trkpt>
      <trkpt lat="45.70019" lon="5.2902">
        <ele>280</ele>
        <time>2024-09-19T13:02:21Z</time>
      </trkpt>
      <trkpt lat="45.70024" lon="5.29019">
        <ele>279.6</ele>
        <time>2024-09-19T13:02:22Z</time>
      </trkpt>
      <trkpt lat="45.7003" lon="5.29018">
        <ele>280</ele>
        <time>2024-09-19T13:02:23Z</time>
      </trkpt>
      <trkpt lat="45.70035" lon="5.29017">
        <ele>280</ele>
        <time>2024-09-19T13:02:24Z</time>
      </trkpt>
      <trkpt lat="45.70041" lon="5.29016">
        <ele>280</ele>
        <time>2024-09-19T13:02:25Z</time>
      </trkpt>
      <trkpt lat="45.70046" lon="5.29014">
        <ele>280.2</ele>
        <time>2024-09-19T13:02:26Z</time>
      </trkpt>
      <trkpt lat="45.70052" lon="5.29013">
        <ele>279.8</ele>
        <time>2024-09-19T13:02:27Z</time>
      </trkpt>
      <trkpt lat="45.70057" lon="5.29011">
        <ele>280</ele>
        <time>2024-09-19T13:02:28Z</time>
      </trkpt>
      <trkpt lat="45.70063" lon="5.2901">
        <ele>279.8</ele>
        <time>2024-09-19T13:02:29Z</time>
      </trkpt>
      <trkpt lat="45.70068" lon="5.29009">
        <ele>279.4</ele>
        <time>2024-09-19T13:02:30Z</time>
      </trkpt>
      <trkpt lat="45.70073" lon="5.29008">
        <ele>278.6</ele>
        <time>2024-09-19T13:02:31Z</time>
      </trkpt>
      <trkpt lat="45.70078" lon="5.29007">
        <ele>278.6</ele>
        <time>2024-09-19T13:02:32Z</time>
      </trkpt>
      <trkpt lat="45.70083" lon="5.29005">
        <ele>278.8</ele>
        <time>2024-09-19T13:02:33Z</time>
      </trkpt>
      <trkpt lat="45.70088" lon="5.29003">
        <ele>279.2</ele>
        <time>2024-09-19T13:02:34Z</time>
      </trkpt>
      <trkpt lat="45.70092" lon="5.29002">
        <ele>279.6</ele>
        <time>2024-09-19T13:02:35Z</time>
      </trkpt>
      <trkpt lat="45.70096" lon="5.29">
        <ele>279.6</ele>
        <time>2024-09-19T13:02:36Z</time>
      </trkpt>
      <trkpt lat="45.701" lon="5.28999">
        <ele>279.6</ele>
        <time>2024-09-19T13:02:37Z</time>
      </trkpt>
      <trkpt lat="45.70104" lon="5.28997">
        <ele>279.6</ele>
        <time>2024-09-19T13:02:38Z</time>
      </trkpt>
      <trkpt lat="45.70108" lon="5.28997">
        <ele>279.6</ele>
        <time>2024-09-19T13:02:39Z</time>
      </trkpt>
      <trkpt lat="45.70111" lon="5.28996">
        <ele>279.8</ele>
        <time>2024-09-19T13:02:40Z</time>
      </trkpt>
      <trkpt lat="45.70114" lon="5.28993">
        <ele>279.8</ele>
        <time>2024-09-19T13:02:41Z</time>
      </trkpt>
      <trkpt lat="45.70117" lon="5.28993">
        <ele>279.8</ele>
        <time>2024-09-19T13:02:42Z</time>
      </trkpt>
      <trkpt lat="45.7012" lon="5.28991">
        <ele>279.8</ele>
        <time>2024-09-19T13:02:43Z</time>
      </trkpt>
      <trkpt lat="45.70123" lon="5.2899">
        <ele>279.8</ele>
        <time>2024-09-19T13:02:44Z</time>
      </trkpt>
      <trkpt lat="45.70126" lon="5.28988">
        <ele>279.8</ele>
        <time>2024-09-19T13:02:45Z</time>
      </trkpt>
      <trkpt lat="45.70129" lon="5.28986">
        <ele>279.8</ele>
        <time>2024-09-19T13:02:46Z</time>
      </trkpt>
      <trkpt lat="45.70132" lon="5.28984">
        <ele>279.6</ele>
        <time>2024-09-19T13:02:47Z</time>
      </trkpt>
      <trkpt lat="45.70135" lon="5.28983">
        <ele>279.6</ele>
        <time>2024-09-19T13:02:48Z</time>
      </trkpt>
      <trkpt lat="45.70137" lon="5.28982">
        <ele>279.6</ele>
        <time>2024-09-19T13:02:49Z</time>
      </trkpt>
      <trkpt lat="45.7014" lon="5.28981">
        <ele>279.6</ele>
        <time>2024-09-19T13:02:50Z</time>
      </trkpt>
      <trkpt lat="45.70143" lon="5.28981">
        <ele>279.8</ele>
        <time>2024-09-19T13:02:51Z</time>
      </trkpt>
      <trkpt lat="45.70145" lon="5.28982">
        <ele>279.8</ele>
        <time>2024-09-19T13:02:52Z</time>
      </trkpt>
      <trkpt lat="45.70148" lon="5.28983">
        <ele>279.8</ele>
        <time>2024-09-19T13:02:53Z</time>
      </trkpt>
      <trkpt lat="45.70151" lon="5.28984">
        <ele>280.2</ele>
        <time>2024-09-19T13:02:54Z</time>
      </trkpt>
      <trkpt lat="45.70153" lon="5.28984">
        <ele>280.2</ele>
        <time>2024-09-19T13:02:55Z</time>
      </trkpt>
      <trkpt lat="45.70156" lon="5.28983">
        <ele>280.4</ele>
        <time>2024-09-19T13:02:56Z</time>
      </trkpt>
      <trkpt lat="45.70159" lon="5.28982">
        <ele>280.4</ele>
        <time>2024-09-19T13:02:57Z</time>
      </trkpt>
      <trkpt lat="45.70162" lon="5.28982">
        <ele>280.4</ele>
        <time>2024-09-19T13:02:58Z</time>
      </trkpt>
      <trkpt lat="45.70165" lon="5.2898">
        <ele>280.4</ele>
        <time>2024-09-19T13:02:59Z</time>
      </trkpt>
      <trkpt lat="45.70168" lon="5.28978">
        <ele>280.4</ele>
        <time>2024-09-19T13:03:00Z</time>
      </trkpt>
      <trkpt lat="45.70171" lon="5.28976">
        <ele>280.4</ele>
        <time>2024-09-19T13:03:01Z</time>
      </trkpt>
      <trkpt lat="45.70174" lon="5.28973">
        <ele>280.4</ele>
        <time>2024-09-19T13:03:02Z</time>
      </trkpt>
      <trkpt lat="45.70177" lon="5.2897">
        <ele>280.4</ele>
        <time>2024-09-19T13:03:03Z</time>
      </trkpt>
      <trkpt lat="45.70178" lon="5.28965">
        <ele>280.4</ele>
        <time>2024-09-19T13:03:04Z</time>
      </trkpt>
      <trkpt lat="45.7018" lon="5.2896">
        <ele>280.4</ele>
        <time>2024-09-19T13:03:05Z</time>
      </trkpt>
      <trkpt lat="45.70182" lon="5.28954">
        <ele>280.4</ele>
        <time>2024-09-19T13:03:06Z</time>
      </trkpt>
      <trkpt lat="45.70185" lon="5.28951">
        <ele>280.4</ele>
        <time>2024-09-19T13:03:07Z</time>
      </trkpt>
      <trkpt lat="45.70189" lon="5.28948">
        <ele>280.6</ele>
        <time>2024-09-19T13:03:08Z</time>
      </trkpt>
      <trkpt lat="45.70193" lon="5.28945">
        <ele>280.6</ele>
        <time>2024-09-19T13:03:09Z</time>
      </trkpt>
      <trkpt lat="45.70198" lon="5.28943">
        <ele>280.2</ele>
        <time>2024-09-19T13:03:10Z</time>
      </trkpt>
      <trkpt lat="45.70202" lon="5.2894">
        <ele>279.6</ele>
        <time>2024-09-19T13:03:11Z</time>
      </trkpt>
      <trkpt lat="45.70206" lon="5.28937">
        <ele>279</ele>
        <time>2024-09-19T13:03:12Z</time>
      </trkpt>
      <trkpt lat="45.7021" lon="5.28934">
        <ele>279</ele>
        <time>2024-09-19T13:03:13Z</time>
      </trkpt>
      <trkpt lat="45.70215" lon="5.2893">
        <ele>278.8</ele>
        <time>2024-09-19T13:03:14Z</time>
      </trkpt>
      <trkpt lat="45.70219" lon="5.28927">
        <ele>278.8</ele>
        <time>2024-09-19T13:03:15Z</time>
      </trkpt>
      <trkpt lat="45.70224" lon="5.28923">
        <ele>278.8</ele>
        <time>2024-09-19T13:03:16Z</time>
      </trkpt>
      <trkpt lat="45.70229" lon="5.2892">
        <ele>278.8</ele>
        <time>2024-09-19T13:03:17Z</time>
      </trkpt>
      <trkpt lat="45.70233" lon="5.28916">
        <ele>278.8</ele>
        <time>2024-09-19T13:03:18Z</time>
      </trkpt>
      <trkpt lat="45.70238" lon="5.28913">
        <ele>279</ele>
        <time>2024-09-19T13:03:19Z</time>
      </trkpt>
      <trkpt lat="45.70243" lon="5.28907">
        <ele>279.4</ele>
        <time>2024-09-19T13:03:20Z</time>
      </trkpt>
      <trkpt lat="45.70247" lon="5.28903">
        <ele>279.2</ele>
        <time>2024-09-19T13:03:21Z</time>
      </trkpt>
      <trkpt lat="45.70252" lon="5.28899">
        <ele>278.6</ele>
        <time>2024-09-19T13:03:22Z</time>
      </trkpt>
      <trkpt lat="45.70256" lon="5.28895">
        <ele>278.2</ele>
        <time>2024-09-19T13:03:23Z</time>
      </trkpt>
      <trkpt lat="45.70261" lon="5.2889">
        <ele>278.4</ele>
        <time>2024-09-19T13:03:24Z</time>
      </trkpt>
      <trkpt lat="45.70266" lon="5.28885">
        <ele>278.4</ele>
        <time>2024-09-19T13:03:25Z</time>
      </trkpt>
      <trkpt lat="45.7027" lon="5.2888">
        <ele>278.4</ele>
        <time>2024-09-19T13:03:26Z</time>
      </trkpt>
      <trkpt lat="45.70275" lon="5.28875">
        <ele>279.4</ele>
        <time>2024-09-19T13:03:27Z</time>
      </trkpt>
      <trkpt lat="45.7028" lon="5.28871">
        <ele>278.4</ele>
        <time>2024-09-19T13:03:28Z</time>
      </trkpt>
      <trkpt lat="45.70285" lon="5.28866">
        <ele>278.4</ele>
        <time>2024-09-19T13:03:29Z</time>
      </trkpt>
      <trkpt lat="45.70291" lon="5.28862">
        <ele>278.8</ele>
        <time>2024-09-19T13:03:30Z</time>
      </trkpt>
      <trkpt lat="45.70294" lon="5.28856">
        <ele>278.8</ele>
        <time>2024-09-19T13:03:31Z</time>
      </trkpt>
      <trkpt lat="45.70299" lon="5.28851">
        <ele>278.6</ele>
        <time>2024-09-19T13:03:32Z</time>
      </trkpt>
      <trkpt lat="45.70303" lon="5.28846">
        <ele>279</ele>
        <time>2024-09-19T13:03:33Z</time>
      </trkpt>
      <trkpt lat="45.70308" lon="5.28841">
        <ele>279</ele>
        <time>2024-09-19T13:03:34Z</time>
      </trkpt>
      <trkpt lat="45.70313" lon="5.28835">
        <ele>279</ele>
        <time>2024-09-19T13:03:35Z</time>
      </trkpt>
      <trkpt lat="45.70318" lon="5.28829">
        <ele>279</ele>
        <time>2024-09-19T13:03:36Z</time>
      </trkpt>
      <trkpt lat="45.70322" lon="5.28824">
        <ele>278.6</ele>
        <time>2024-09-19T13:03:37Z</time>
      </trkpt>
      <trkpt lat="45.70326" lon="5.28819">
        <ele>278</ele>
        <time>2024-09-19T13:03:38Z</time>
      </trkpt>
      <trkpt lat="45.70331" lon="5.28813">
        <ele>278.6</ele>
        <time>2024-09-19T13:03:39Z</time>
      </trkpt>
      <trkpt lat="45.70335" lon="5.28806">
        <ele>277.8</ele>
        <time>2024-09-19T13:03:40Z</time>
      </trkpt>
      <trkpt lat="45.7034" lon="5.288">
        <ele>277.4</ele>
        <time>2024-09-19T13:03:41Z</time>
      </trkpt>
      <trkpt lat="45.70344" lon="5.28793">
        <ele>278</ele>
        <time>2024-09-19T13:03:42Z</time>
      </trkpt>
      <trkpt lat="45.70348" lon="5.28787">
        <ele>277.6</ele>
        <time>2024-09-19T13:03:43Z</time>
      </trkpt>
      <trkpt lat="45.70351" lon="5.2878">
        <ele>277.6</ele>
        <time>2024-09-19T13:03:44Z</time>
      </trkpt>
      <trkpt lat="45.70356" lon="5.28774">
        <ele>277</ele>
        <time>2024-09-19T13:03:45Z</time>
      </trkpt>
      <trkpt lat="45.7036" lon="5.28767">
        <ele>276.6</ele>
        <time>2024-09-19T13:03:46Z</time>
      </trkpt>
      <trkpt lat="45.70363" lon="5.28759">
        <ele>276.2</ele>
        <time>2024-09-19T13:03:47Z</time>
      </trkpt>
      <trkpt lat="45.70368" lon="5.28754">
        <ele>276.2</ele>
        <time>2024-09-19T13:03:48Z</time>
      </trkpt>
      <trkpt lat="45.70372" lon="5.28747">
        <ele>276.6</ele>
        <time>2024-09-19T13:03:49Z</time>
      </trkpt>
      <trkpt lat="45.70376" lon="5.2874">
        <ele>277</ele>
        <time>2024-09-19T13:03:50Z</time>
      </trkpt>
      <trkpt lat="45.7038" lon="5.28734">
        <ele>277</ele>
        <time>2024-09-19T13:03:51Z</time>
      </trkpt>
      <trkpt lat="45.70383" lon="5.28728">
        <ele>277</ele>
        <time>2024-09-19T13:03:52Z</time>
      </trkpt>
      <trkpt lat="45.70387" lon="5.28721">
        <ele>276.8</ele>
        <time>2024-09-19T13:03:53Z</time>
      </trkpt>
      <trkpt lat="45.7039" lon="5.28715">
        <ele>276.4</ele>
        <time>2024-09-19T13:03:54Z</time>
      </trkpt>
      <trkpt lat="45.70394" lon="5.28708">
        <ele>276.4</ele>
        <time>2024-09-19T13:03:55Z</time>
      </trkpt>
      <trkpt lat="45.70398" lon="5.28701">
        <ele>276.6</ele>
        <time>2024-09-19T13:03:56Z</time>
      </trkpt>
      <trkpt lat="45.70402" lon="5.28694">
        <ele>276.4</ele>
        <time>2024-09-19T13:03:57Z</time>
      </trkpt>
      <trkpt lat="45.70406" lon="5.28687">
        <ele>276.2</ele>
        <time>2024-09-19T13:03:58Z</time>
      </trkpt>
      <trkpt lat="45.7041" lon="5.2868">
        <ele>276.2</ele>
        <time>2024-09-19T13:03:59Z</time>
      </trkpt>
      <trkpt lat="45.70413" lon="5.28673">
        <ele>276.2</ele>
        <time>2024-09-19T13:04:00Z</time>
      </trkpt>
      <trkpt lat="45.70417" lon="5.28667">
        <ele>276.2</ele>
        <time>2024-09-19T13:04:01Z</time>
      </trkpt>
      <trkpt lat="45.70422" lon="5.28659">
        <ele>276.2</ele>
        <time>2024-09-19T13:04:02Z</time>
      </trkpt>
      <trkpt lat="45.70425" lon="5.28653">
        <ele>275.8</ele>
        <time>2024-09-19T13:04:03Z</time>
      </trkpt>
      <trkpt lat="45.7043" lon="5.28645">
        <ele>275.8</ele>
        <time>2024-09-19T13:04:04Z</time>
      </trkpt>
      <trkpt lat="45.70433" lon="5.28638">
        <ele>276</ele>
        <time>2024-09-19T13:04:05Z</time>
      </trkpt>
      <trkpt lat="45.70438" lon="5.28631">
        <ele>276</ele>
        <time>2024-09-19T13:04:06Z</time>
      </trkpt>
      <trkpt lat="45.70441" lon="5.28624">
        <ele>276</ele>
        <time>2024-09-19T13:04:07Z</time>
      </trkpt>
      <trkpt lat="45.70445" lon="5.28617">
        <ele>275.6</ele>
        <time>2024-09-19T13:04:08Z</time>
      </trkpt>
      <trkpt lat="45.70449" lon="5.2861">
        <ele>275.6</ele>
        <time>2024-09-19T13:04:09Z</time>
      </trkpt>
      <trkpt lat="45.70454" lon="5.28603">
        <ele>275.6</ele>
        <time>2024-09-19T13:04:10Z</time>
      </trkpt>
      <trkpt lat="45.70458" lon="5.28595">
        <ele>275.6</ele>
        <time>2024-09-19T13:04:11Z</time>
      </trkpt>
      <trkpt lat="45.70462" lon="5.28588">
        <ele>275.4</ele>
        <time>2024-09-19T13:04:12Z</time>
      </trkpt>
      <trkpt lat="45.70465" lon="5.28581">
        <ele>275.4</ele>
        <time>2024-09-19T13:04:13Z</time>
      </trkpt>
      <trkpt lat="45.70469" lon="5.28574">
        <ele>275.4</ele>
        <time>2024-09-19T13:04:14Z</time>
      </trkpt>
      <trkpt lat="45.70474" lon="5.28567">
        <ele>275.4</ele>
        <time>2024-09-19T13:04:15Z</time>
      </trkpt>
      <trkpt lat="45.70477" lon="5.28559">
        <ele>275.8</ele>
        <time>2024-09-19T13:04:16Z</time>
      </trkpt>
      <trkpt lat="45.70481" lon="5.28553">
        <ele>275.4</ele>
        <time>2024-09-19T13:04:17Z</time>
      </trkpt>
      <trkpt lat="45.70485" lon="5.28546">
        <ele>275.4</ele>
        <time>2024-09-19T13:04:18Z</time>
      </trkpt>
      <trkpt lat="45.70489" lon="5.28539">
        <ele>275.4</ele>
        <time>2024-09-19T13:04:19Z</time>
      </trkpt>
      <trkpt lat="45.70492" lon="5.28532">
        <ele>275.8</ele>
        <time>2024-09-19T13:04:20Z</time>
      </trkpt>
      <trkpt lat="45.70497" lon="5.28525">
        <ele>275.4</ele>
        <time>2024-09-19T13:04:21Z</time>
      </trkpt>
      <trkpt lat="45.70501" lon="5.28518">
        <ele>275.4</ele>
        <time>2024-09-19T13:04:22Z</time>
      </trkpt>
      <trkpt lat="45.70505" lon="5.28512">
        <ele>275.4</ele>
        <time>2024-09-19T13:04:23Z</time>
      </trkpt>
      <trkpt lat="45.70508" lon="5.28505">
        <ele>275</ele>
        <time>2024-09-19T13:04:24Z</time>
      </trkpt>
      <trkpt lat="45.70508" lon="5.28505">
        <ele>275</ele>
        <time>2024-09-19T13:04:25Z</time>
      </trkpt>
      <trkpt lat="45.70512" lon="5.28498">
        <ele>274.4</ele>
        <time>2024-09-19T13:04:26Z</time>
      </trkpt>
      <trkpt lat="45.70516" lon="5.2849">
        <ele>274.4</ele>
        <time>2024-09-19T13:04:27Z</time>
      </trkpt>
      <trkpt lat="45.7052" lon="5.28482">
        <ele>274.4</ele>
        <time>2024-09-19T13:04:28Z</time>
      </trkpt>
      <trkpt lat="45.70525" lon="5.28476">
        <ele>274.4</ele>
        <time>2024-09-19T13:04:29Z</time>
      </trkpt>
      <trkpt lat="45.70529" lon="5.28469">
        <ele>274.8</ele>
        <time>2024-09-19T13:04:30Z</time>
      </trkpt>
      <trkpt lat="45.70533" lon="5.28462">
        <ele>274.8</ele>
        <time>2024-09-19T13:04:31Z</time>
      </trkpt>
      <trkpt lat="45.70536" lon="5.28455">
        <ele>274.8</ele>
        <time>2024-09-19T13:04:32Z</time>
      </trkpt>
      <trkpt lat="45.70539" lon="5.28448">
        <ele>274.6</ele>
        <time>2024-09-19T13:04:33Z</time>
      </trkpt>
      <trkpt lat="45.70543" lon="5.28442">
        <ele>275</ele>
        <time>2024-09-19T13:04:34Z</time>
      </trkpt>
      <trkpt lat="45.70546" lon="5.28436">
        <ele>275</ele>
        <time>2024-09-19T13:04:35Z</time>
      </trkpt>
      <trkpt lat="45.7055" lon="5.28429">
        <ele>275.4</ele>
        <time>2024-09-19T13:04:36Z</time>
      </trkpt>
      <trkpt lat="45.70553" lon="5.28421">
        <ele>274.4</ele>
        <time>2024-09-19T13:04:37Z</time>
      </trkpt>
      <trkpt lat="45.70561" lon="5.28407">
        <ele>274.8</ele>
        <time>2024-09-19T13:04:38Z</time>
      </trkpt>
      <trkpt lat="45.70565" lon="5.28401">
        <ele>274.8</ele>
        <time>2024-09-19T13:04:39Z</time>
      </trkpt>
      <trkpt lat="45.70569" lon="5.28394">
        <ele>275</ele>
        <time>2024-09-19T13:04:40Z</time>
      </trkpt>
      <trkpt lat="45.70572" lon="5.28388">
        <ele>275</ele>
        <time>2024-09-19T13:04:41Z</time>
      </trkpt>
      <trkpt lat="45.70576" lon="5.28382">
        <ele>275</ele>
        <time>2024-09-19T13:04:42Z</time>
      </trkpt>
      <trkpt lat="45.7058" lon="5.28374">
        <ele>275</ele>
        <time>2024-09-19T13:04:43Z</time>
      </trkpt>
      <trkpt lat="45.70583" lon="5.28368">
        <ele>274.4</ele>
        <time>2024-09-19T13:04:44Z</time>
      </trkpt>
      <trkpt lat="45.70587" lon="5.28362">
        <ele>274.4</ele>
        <time>2024-09-19T13:04:45Z</time>
      </trkpt>
      <trkpt lat="45.70591" lon="5.28356">
        <ele>274</ele>
        <time>2024-09-19T13:04:46Z</time>
      </trkpt>
      <trkpt lat="45.70594" lon="5.28349">
        <ele>274</ele>
        <time>2024-09-19T13:04:47Z</time>
      </trkpt>
      <trkpt lat="45.70598" lon="5.28343">
        <ele>273.4</ele>
        <time>2024-09-19T13:04:48Z</time>
      </trkpt>
      <trkpt lat="45.70601" lon="5.28336">
        <ele>273.6</ele>
        <time>2024-09-19T13:04:49Z</time>
      </trkpt>
      <trkpt lat="45.70605" lon="5.2833">
        <ele>273.6</ele>
        <time>2024-09-19T13:04:50Z</time>
      </trkpt>
      <trkpt lat="45.70608" lon="5.28324">
        <ele>274</ele>
        <time>2024-09-19T13:04:51Z</time>
      </trkpt>
      <trkpt lat="45.70611" lon="5.28317">
        <ele>274</ele>
        <time>2024-09-19T13:04:52Z</time>
      </trkpt>
      <trkpt lat="45.70615" lon="5.28311">
        <ele>274.4</ele>
        <time>2024-09-19T13:04:53Z</time>
      </trkpt>
      <trkpt lat="45.70619" lon="5.28305">
        <ele>274.4</ele>
        <time>2024-09-19T13:04:54Z</time>
      </trkpt>
      <trkpt lat="45.70623" lon="5.28298">
        <ele>274</ele>
        <time>2024-09-19T13:04:55Z</time>
      </trkpt>
      <trkpt lat="45.70627" lon="5.28291">
        <ele>273.8</ele>
        <time>2024-09-19T13:04:56Z</time>
      </trkpt>
      <trkpt lat="45.70631" lon="5.28285">
        <ele>274.2</ele>
        <time>2024-09-19T13:04:57Z</time>
      </trkpt>
      <trkpt lat="45.70635" lon="5.28278">
        <ele>274.2</ele>
        <time>2024-09-19T13:04:58Z</time>
      </trkpt>
      <trkpt lat="45.70639" lon="5.2827">
        <ele>274.2</ele>
        <time>2024-09-19T13:04:59Z</time>
      </trkpt>
      <trkpt lat="45.70642" lon="5.28263">
        <ele>274.2</ele>
        <time>2024-09-19T13:05:00Z</time>
      </trkpt>
      <trkpt lat="45.70645" lon="5.28257">
        <ele>274.2</ele>
        <time>2024-09-19T13:05:01Z</time>
      </trkpt>
      <trkpt lat="45.70649" lon="5.28251">
        <ele>274.2</ele>
        <time>2024-09-19T13:05:02Z</time>
      </trkpt>
      <trkpt lat="45.70652" lon="5.28243">
        <ele>274.2</ele>
        <time>2024-09-19T13:05:03Z</time>
      </trkpt>
      <trkpt lat="45.70656" lon="5.28237">
        <ele>274.6</ele>
        <time>2024-09-19T13:05:04Z</time>
      </trkpt>
      <trkpt lat="45.70659" lon="5.28231">
        <ele>274.6</ele>
        <time>2024-09-19T13:05:05Z</time>
      </trkpt>
      <trkpt lat="45.70662" lon="5.28225">
        <ele>274.6</ele>
        <time>2024-09-19T13:05:06Z</time>
      </trkpt>
      <trkpt lat="45.70666" lon="5.28218">
        <ele>274.6</ele>
        <time>2024-09-19T13:05:07Z</time>
      </trkpt>
      <trkpt lat="45.7067" lon="5.28212">
        <ele>274.6</ele>
        <time>2024-09-19T13:05:08Z</time>
      </trkpt>
      <trkpt lat="45.70673" lon="5.28205">
        <ele>274.6</ele>
        <time>2024-09-19T13:05:09Z</time>
      </trkpt>
      <trkpt lat="45.70676" lon="5.28199">
        <ele>274.6</ele>
        <time>2024-09-19T13:05:10Z</time>
      </trkpt>
      <trkpt lat="45.7068" lon="5.28193">
        <ele>274.6</ele>
        <time>2024-09-19T13:05:11Z</time>
      </trkpt>
      <trkpt lat="45.70683" lon="5.28186">
        <ele>274.2</ele>
        <time>2024-09-19T13:05:12Z</time>
      </trkpt>
      <trkpt lat="45.70686" lon="5.28179">
        <ele>274</ele>
        <time>2024-09-19T13:05:13Z</time>
      </trkpt>
      <trkpt lat="45.70691" lon="5.28173">
        <ele>274</ele>
        <time>2024-09-19T13:05:14Z</time>
      </trkpt>
      <trkpt lat="45.70694" lon="5.28166">
        <ele>274</ele>
        <time>2024-09-19T13:05:15Z</time>
      </trkpt>
      <trkpt lat="45.70699" lon="5.28159">
        <ele>273.6</ele>
        <time>2024-09-19T13:05:16Z</time>
      </trkpt>
      <trkpt lat="45.70702" lon="5.28153">
        <ele>273.6</ele>
        <time>2024-09-19T13:05:17Z</time>
      </trkpt>
      <trkpt lat="45.70706" lon="5.28145">
        <ele>273.6</ele>
        <time>2024-09-19T13:05:18Z</time>
      </trkpt>
      <trkpt lat="45.70709" lon="5.28139">
        <ele>273.6</ele>
        <time>2024-09-19T13:05:19Z</time>
      </trkpt>
      <trkpt lat="45.70712" lon="5.28132">
        <ele>273.8</ele>
        <time>2024-09-19T13:05:20Z</time>
      </trkpt>
      <trkpt lat="45.70716" lon="5.28126">
        <ele>273.4</ele>
        <time>2024-09-19T13:05:21Z</time>
      </trkpt>
      <trkpt lat="45.70719" lon="5.28119">
        <ele>273.4</ele>
        <time>2024-09-19T13:05:22Z</time>
      </trkpt>
      <trkpt lat="45.70723" lon="5.28113">
        <ele>274</ele>
        <time>2024-09-19T13:05:23Z</time>
      </trkpt>
      <trkpt lat="45.70729" lon="5.28108">
        <ele>273.8</ele>
        <time>2024-09-19T13:05:24Z</time>
      </trkpt>
      <trkpt lat="45.70732" lon="5.28101">
        <ele>273.8</ele>
        <time>2024-09-19T13:05:25Z</time>
      </trkpt>
      <trkpt lat="45.70735" lon="5.28094">
        <ele>274.6</ele>
        <time>2024-09-19T13:05:26Z</time>
      </trkpt>
      <trkpt lat="45.70738" lon="5.28087">
        <ele>275</ele>
        <time>2024-09-19T13:05:27Z</time>
      </trkpt>
      <trkpt lat="45.70742" lon="5.28081">
        <ele>273.4</ele>
        <time>2024-09-19T13:05:28Z</time>
      </trkpt>
      <trkpt lat="45.70746" lon="5.28074">
        <ele>273.6</ele>
        <time>2024-09-19T13:05:29Z</time>
      </trkpt>
      <trkpt lat="45.70748" lon="5.28067">
        <ele>273.6</ele>
        <time>2024-09-19T13:05:30Z</time>
      </trkpt>
      <trkpt lat="45.70753" lon="5.2806">
        <ele>273.6</ele>
        <time>2024-09-19T13:05:31Z</time>
      </trkpt>
      <trkpt lat="45.70755" lon="5.28055">
        <ele>273.6</ele>
        <time>2024-09-19T13:05:32Z</time>
      </trkpt>
      <trkpt lat="45.70759" lon="5.28047">
        <ele>273.6</ele>
        <time>2024-09-19T13:05:33Z</time>
      </trkpt>
      <trkpt lat="45.70762" lon="5.28041">
        <ele>273.6</ele>
        <time>2024-09-19T13:05:34Z</time>
      </trkpt>
      <trkpt lat="45.70766" lon="5.28034">
        <ele>273.6</ele>
        <time>2024-09-19T13:05:35Z</time>
      </trkpt>
      <trkpt lat="45.70768" lon="5.28026">
        <ele>273.4</ele>
        <time>2024-09-19T13:05:36Z</time>
      </trkpt>
      <trkpt lat="45.70772" lon="5.28019">
        <ele>273.2</ele>
        <time>2024-09-19T13:05:37Z</time>
      </trkpt>
      <trkpt lat="45.70776" lon="5.28012">
        <ele>273.2</ele>
        <time>2024-09-19T13:05:38Z</time>
      </trkpt>
      <trkpt lat="45.7078" lon="5.28005">
        <ele>273.2</ele>
        <time>2024-09-19T13:05:39Z</time>
      </trkpt>
      <trkpt lat="45.70784" lon="5.28">
        <ele>273.6</ele>
        <time>2024-09-19T13:05:40Z</time>
      </trkpt>
      <trkpt lat="45.70787" lon="5.27993">
        <ele>273.2</ele>
        <time>2024-09-19T13:05:41Z</time>
      </trkpt>
      <trkpt lat="45.70791" lon="5.27986">
        <ele>273.4</ele>
        <time>2024-09-19T13:05:42Z</time>
      </trkpt>
      <trkpt lat="45.70794" lon="5.27979">
        <ele>273.4</ele>
        <time>2024-09-19T13:05:43Z</time>
      </trkpt>
      <trkpt lat="45.70798" lon="5.27973">
        <ele>273.2</ele>
        <time>2024-09-19T13:05:44Z</time>
      </trkpt>
      <trkpt lat="45.70801" lon="5.27966">
        <ele>273.2</ele>
        <time>2024-09-19T13:05:45Z</time>
      </trkpt>
      <trkpt lat="45.70805" lon="5.27959">
        <ele>273</ele>
        <time>2024-09-19T13:05:46Z</time>
      </trkpt>
      <trkpt lat="45.70809" lon="5.27952">
        <ele>273</ele>
        <time>2024-09-19T13:05:47Z</time>
      </trkpt>
      <trkpt lat="45.70813" lon="5.27945">
        <ele>272.6</ele>
        <time>2024-09-19T13:05:48Z</time>
      </trkpt>
      <trkpt lat="45.70816" lon="5.27938">
        <ele>273</ele>
        <time>2024-09-19T13:05:49Z</time>
      </trkpt>
      <trkpt lat="45.7082" lon="5.27932">
        <ele>273</ele>
        <time>2024-09-19T13:05:50Z</time>
      </trkpt>
      <trkpt lat="45.70823" lon="5.27926">
        <ele>273</ele>
        <time>2024-09-19T13:05:51Z</time>
      </trkpt>
      <trkpt lat="45.70826" lon="5.27919">
        <ele>273</ele>
        <time>2024-09-19T13:05:52Z</time>
      </trkpt>
      <trkpt lat="45.7083" lon="5.27913">
        <ele>273.2</ele>
        <time>2024-09-19T13:05:53Z</time>
      </trkpt>
      <trkpt lat="45.70834" lon="5.27908">
        <ele>273.2</ele>
        <time>2024-09-19T13:05:54Z</time>
      </trkpt>
      <trkpt lat="45.70837" lon="5.27902">
        <ele>273</ele>
        <time>2024-09-19T13:05:55Z</time>
      </trkpt>
      <trkpt lat="45.7084" lon="5.27896">
        <ele>273</ele>
        <time>2024-09-19T13:05:56Z</time>
      </trkpt>
      <trkpt lat="45.70843" lon="5.2789">
        <ele>272.8</ele>
        <time>2024-09-19T13:05:57Z</time>
      </trkpt>
      <trkpt lat="45.70846" lon="5.27885">
        <ele>273</ele>
        <time>2024-09-19T13:05:58Z</time>
      </trkpt>
      <trkpt lat="45.70849" lon="5.27881">
        <ele>273</ele>
        <time>2024-09-19T13:05:59Z</time>
      </trkpt>
      <trkpt lat="45.70852" lon="5.27876">
        <ele>273</ele>
        <time>2024-09-19T13:06:00Z</time>
      </trkpt>
      <trkpt lat="45.70854" lon="5.27871">
        <ele>273</ele>
        <time>2024-09-19T13:06:01Z</time>
      </trkpt>
      <trkpt lat="45.70857" lon="5.27866">
        <ele>273</ele>
        <time>2024-09-19T13:06:02Z</time>
      </trkpt>
      <trkpt lat="45.70859" lon="5.27861">
        <ele>273.2</ele>
        <time>2024-09-19T13:06:03Z</time>
      </trkpt>
      <trkpt lat="45.70861" lon="5.27857">
        <ele>273.2</ele>
        <time>2024-09-19T13:06:04Z</time>
      </trkpt>
      <trkpt lat="45.70863" lon="5.27852">
        <ele>273.2</ele>
        <time>2024-09-19T13:06:05Z</time>
      </trkpt>
      <trkpt lat="45.70865" lon="5.27848">
        <ele>273.2</ele>
        <time>2024-09-19T13:06:06Z</time>
      </trkpt>
      <trkpt lat="45.70864" lon="5.27844">
        <ele>273.4</ele>
        <time>2024-09-19T13:06:07Z</time>
      </trkpt>
      <trkpt lat="45.70864" lon="5.27842">
        <ele>273.4</ele>
        <time>2024-09-19T13:06:08Z</time>
      </trkpt>
      <trkpt lat="45.70863" lon="5.27839">
        <ele>273.8</ele>
        <time>2024-09-19T13:06:09Z</time>
      </trkpt>
      <trkpt lat="45.70862" lon="5.27835">
        <ele>273.8</ele>
        <time>2024-09-19T13:06:10Z</time>
      </trkpt>
      <trkpt lat="45.7086" lon="5.27832">
        <ele>273.8</ele>
        <time>2024-09-19T13:06:11Z</time>
      </trkpt>
      <trkpt lat="45.70858" lon="5.27829">
        <ele>273.8</ele>
        <time>2024-09-19T13:06:12Z</time>
      </trkpt>
      <trkpt lat="45.70857" lon="5.27825">
        <ele>273.8</ele>
        <time>2024-09-19T13:06:13Z</time>
      </trkpt>
      <trkpt lat="45.70857" lon="5.2782">
        <ele>273.8</ele>
        <time>2024-09-19T13:06:14Z</time>
      </trkpt>
      <trkpt lat="45.70859" lon="5.27815">
        <ele>273.8</ele>
        <time>2024-09-19T13:06:15Z</time>
      </trkpt>
      <trkpt lat="45.70861" lon="5.27811">
        <ele>273.6</ele>
        <time>2024-09-19T13:06:16Z</time>
      </trkpt>
      <trkpt lat="45.70864" lon="5.27807">
        <ele>273.6</ele>
        <time>2024-09-19T13:06:17Z</time>
      </trkpt>
      <trkpt lat="45.70866" lon="5.27803">
        <ele>273</ele>
        <time>2024-09-19T13:06:18Z</time>
      </trkpt>
      <trkpt lat="45.70868" lon="5.27798">
        <ele>273.4</ele>
        <time>2024-09-19T13:06:19Z</time>
      </trkpt>
      <trkpt lat="45.7087" lon="5.27794">
        <ele>273</ele>
        <time>2024-09-19T13:06:20Z</time>
      </trkpt>
      <trkpt lat="45.70872" lon="5.27789">
        <ele>273.4</ele>
        <time>2024-09-19T13:06:21Z</time>
      </trkpt>
      <trkpt lat="45.70875" lon="5.27783">
        <ele>273.4</ele>
        <time>2024-09-19T13:06:22Z</time>
      </trkpt>
      <trkpt lat="45.70877" lon="5.2778">
        <ele>273.4</ele>
        <time>2024-09-19T13:06:23Z</time>
      </trkpt>
      <trkpt lat="45.70879" lon="5.27775">
        <ele>273.4</ele>
        <time>2024-09-19T13:06:24Z</time>
      </trkpt>
      <trkpt lat="45.7088" lon="5.27771">
        <ele>273.4</ele>
        <time>2024-09-19T13:06:25Z</time>
      </trkpt>
      <trkpt lat="45.70882" lon="5.27765">
        <ele>273</ele>
        <time>2024-09-19T13:06:26Z</time>
      </trkpt>
      <trkpt lat="45.70883" lon="5.2776">
        <ele>272.8</ele>
        <time>2024-09-19T13:06:27Z</time>
      </trkpt>
      <trkpt lat="45.70884" lon="5.27756">
        <ele>272.8</ele>
        <time>2024-09-19T13:06:28Z</time>
      </trkpt>
      <trkpt lat="45.70887" lon="5.27751">
        <ele>272.6</ele>
        <time>2024-09-19T13:06:29Z</time>
      </trkpt>
      <trkpt lat="45.70889" lon="5.27746">
        <ele>272.6</ele>
        <time>2024-09-19T13:06:30Z</time>
      </trkpt>
      <trkpt lat="45.7089" lon="5.27741">
        <ele>272.4</ele>
        <time>2024-09-19T13:06:31Z</time>
      </trkpt>
      <trkpt lat="45.70892" lon="5.27736">
        <ele>272</ele>
        <time>2024-09-19T13:06:32Z</time>
      </trkpt>
      <trkpt lat="45.70894" lon="5.27731">
        <ele>272</ele>
        <time>2024-09-19T13:06:33Z</time>
      </trkpt>
      <trkpt lat="45.70896" lon="5.27726">
        <ele>272</ele>
        <time>2024-09-19T13:06:34Z</time>
      </trkpt>
      <trkpt lat="45.70898" lon="5.27721">
        <ele>272</ele>
        <time>2024-09-19T13:06:35Z</time>
      </trkpt>
      <trkpt lat="45.709" lon="5.27716">
        <ele>272</ele>
        <time>2024-09-19T13:06:36Z</time>
      </trkpt>
      <trkpt lat="45.70902" lon="5.27711">
        <ele>272</ele>
        <time>2024-09-19T13:06:37Z</time>
      </trkpt>
      <trkpt lat="45.70904" lon="5.27706">
        <ele>272</ele>
        <time>2024-09-19T13:06:38Z</time>
      </trkpt>
      <trkpt lat="45.70905" lon="5.27701">
        <ele>272</ele>
        <time>2024-09-19T13:06:39Z</time>
      </trkpt>
      <trkpt lat="45.70906" lon="5.27697">
        <ele>272</ele>
        <time>2024-09-19T13:06:40Z</time>
      </trkpt>
      <trkpt lat="45.70907" lon="5.27693">
        <ele>272.2</ele>
        <time>2024-09-19T13:06:41Z</time>
      </trkpt>
      <trkpt lat="45.70909" lon="5.27687">
        <ele>272.2</ele>
        <time>2024-09-19T13:06:42Z</time>
      </trkpt>
      <trkpt lat="45.70911" lon="5.27682">
        <ele>272.6</ele>
        <time>2024-09-19T13:06:43Z</time>
      </trkpt>
      <trkpt lat="45.70913" lon="5.27677">
        <ele>272.8</ele>
        <time>2024-09-19T13:06:44Z</time>
      </trkpt>
      <trkpt lat="45.70917" lon="5.27671">
        <ele>272.8</ele>
        <time>2024-09-19T13:06:45Z</time>
      </trkpt>
      <trkpt lat="45.70919" lon="5.27667">
        <ele>272.8</ele>
        <time>2024-09-19T13:06:46Z</time>
      </trkpt>
      <trkpt lat="45.70921" lon="5.27661">
        <ele>272.6</ele>
        <time>2024-09-19T13:06:47Z</time>
      </trkpt>
      <trkpt lat="45.70923" lon="5.27654">
        <ele>272.6</ele>
        <time>2024-09-19T13:06:48Z</time>
      </trkpt>
      <trkpt lat="45.70926" lon="5.27648">
        <ele>272.6</ele>
        <time>2024-09-19T13:06:49Z</time>
      </trkpt>
      <trkpt lat="45.7093" lon="5.27641">
        <ele>272.6</ele>
        <time>2024-09-19T13:06:50Z</time>
      </trkpt>
      <trkpt lat="45.70933" lon="5.27636">
        <ele>273</ele>
        <time>2024-09-19T13:06:51Z</time>
      </trkpt>
      <trkpt lat="45.70934" lon="5.2763">
        <ele>273.4</ele>
        <time>2024-09-19T13:06:52Z</time>
      </trkpt>
      <trkpt lat="45.70936" lon="5.27626">
        <ele>273.4</ele>
        <time>2024-09-19T13:06:53Z</time>
      </trkpt>
      <trkpt lat="45.70938" lon="5.2762">
        <ele>273</ele>
        <time>2024-09-19T13:06:54Z</time>
      </trkpt>
      <trkpt lat="45.7094" lon="5.27614">
        <ele>272.4</ele>
        <time>2024-09-19T13:06:55Z</time>
      </trkpt>
      <trkpt lat="45.70942" lon="5.27608">
        <ele>272.8</ele>
        <time>2024-09-19T13:06:56Z</time>
      </trkpt>
      <trkpt lat="45.70944" lon="5.27602">
        <ele>272.8</ele>
        <time>2024-09-19T13:06:57Z</time>
      </trkpt>
      <trkpt lat="45.70945" lon="5.27595">
        <ele>272.8</ele>
        <time>2024-09-19T13:06:58Z</time>
      </trkpt>
      <trkpt lat="45.70949" lon="5.27589">
        <ele>273.2</ele>
        <time>2024-09-19T13:06:59Z</time>
      </trkpt>
      <trkpt lat="45.7095" lon="5.27583">
        <ele>273.4</ele>
        <time>2024-09-19T13:07:00Z</time>
      </trkpt>
      <trkpt lat="45.70951" lon="5.27577">
        <ele>273.2</ele>
        <time>2024-09-19T13:07:01Z</time>
      </trkpt>
      <trkpt lat="45.70953" lon="5.27571">
        <ele>273.2</ele>
        <time>2024-09-19T13:07:02Z</time>
      </trkpt>
      <trkpt lat="45.70956" lon="5.27565">
        <ele>273.2</ele>
        <time>2024-09-19T13:07:03Z</time>
      </trkpt>
      <trkpt lat="45.70959" lon="5.27558">
        <ele>273</ele>
        <time>2024-09-19T13:07:04Z</time>
      </trkpt>
      <trkpt lat="45.70962" lon="5.2755">
        <ele>273.2</ele>
        <time>2024-09-19T13:07:05Z</time>
      </trkpt>
      <trkpt lat="45.70964" lon="5.27543">
        <ele>273.2</ele>
        <time>2024-09-19T13:07:06Z</time>
      </trkpt>
      <trkpt lat="45.70967" lon="5.27537">
        <ele>272.8</ele>
        <time>2024-09-19T13:07:07Z</time>
      </trkpt>
      <trkpt lat="45.70969" lon="5.2753">
        <ele>272.6</ele>
        <time>2024-09-19T13:07:08Z</time>
      </trkpt>
      <trkpt lat="45.70972" lon="5.27523">
        <ele>272.2</ele>
        <time>2024-09-19T13:07:09Z</time>
      </trkpt>
      <trkpt lat="45.70973" lon="5.27516">
        <ele>272.2</ele>
        <time>2024-09-19T13:07:10Z</time>
      </trkpt>
      <trkpt lat="45.70975" lon="5.27509">
        <ele>272.2</ele>
        <time>2024-09-19T13:07:11Z</time>
      </trkpt>
      <trkpt lat="45.70978" lon="5.27502">
        <ele>271.8</ele>
        <time>2024-09-19T13:07:12Z</time>
      </trkpt>
      <trkpt lat="45.70983" lon="5.27496">
        <ele>271.8</ele>
        <time>2024-09-19T13:07:13Z</time>
      </trkpt>
      <trkpt lat="45.70986" lon="5.27491">
        <ele>271.2</ele>
        <time>2024-09-19T13:07:14Z</time>
      </trkpt>
      <trkpt lat="45.7099" lon="5.27482">
        <ele>272.2</ele>
        <time>2024-09-19T13:07:15Z</time>
      </trkpt>
      <trkpt lat="45.70991" lon="5.27477">
        <ele>272</ele>
        <time>2024-09-19T13:07:16Z</time>
      </trkpt>
      <trkpt lat="45.70994" lon="5.27469">
        <ele>272</ele>
        <time>2024-09-19T13:07:17Z</time>
      </trkpt>
      <trkpt lat="45.70995" lon="5.27462">
        <ele>272</ele>
        <time>2024-09-19T13:07:18Z</time>
      </trkpt>
      <trkpt lat="45.70997" lon="5.27455">
        <ele>272</ele>
        <time>2024-09-19T13:07:19Z</time>
      </trkpt>
      <trkpt lat="45.70999" lon="5.27449">
        <ele>271.4</ele>
        <time>2024-09-19T13:07:20Z</time>
      </trkpt>
      <trkpt lat="45.71001" lon="5.27442">
        <ele>271.8</ele>
        <time>2024-09-19T13:07:21Z</time>
      </trkpt>
      <trkpt lat="45.71003" lon="5.27435">
        <ele>272.4</ele>
        <time>2024-09-19T13:07:22Z</time>
      </trkpt>
      <trkpt lat="45.71005" lon="5.27428">
        <ele>272</ele>
        <time>2024-09-19T13:07:23Z</time>
      </trkpt>
      <trkpt lat="45.71007" lon="5.27422">
        <ele>272</ele>
        <time>2024-09-19T13:07:24Z</time>
      </trkpt>
      <trkpt lat="45.7101" lon="5.27415">
        <ele>272</ele>
        <time>2024-09-19T13:07:25Z</time>
      </trkpt>
      <trkpt lat="45.7101" lon="5.27408">
        <ele>272</ele>
        <time>2024-09-19T13:07:26Z</time>
      </trkpt>
      <trkpt lat="45.71014" lon="5.27402">
        <ele>272</ele>
        <time>2024-09-19T13:07:27Z</time>
      </trkpt>
      <trkpt lat="45.71017" lon="5.27393">
        <ele>272</ele>
        <time>2024-09-19T13:07:28Z</time>
      </trkpt>
      <trkpt lat="45.7102" lon="5.27388">
        <ele>272</ele>
        <time>2024-09-19T13:07:29Z</time>
      </trkpt>
      <trkpt lat="45.71021" lon="5.27383">
        <ele>271.8</ele>
        <time>2024-09-19T13:07:30Z</time>
      </trkpt>
      <trkpt lat="45.71022" lon="5.2738">
        <ele>271.8</ele>
        <time>2024-09-19T13:07:31Z</time>
      </trkpt>
      <trkpt lat="45.71023" lon="5.27377">
        <ele>272</ele>
        <time>2024-09-19T13:07:32Z</time>
      </trkpt>
      <trkpt lat="45.71023" lon="5.27375">
        <ele>272</ele>
        <time>2024-09-19T13:07:33Z</time>
      </trkpt>
      <trkpt lat="45.71022" lon="5.27372">
        <ele>272</ele>
        <time>2024-09-19T13:07:34Z</time>
      </trkpt>
      <trkpt lat="45.71025" lon="5.27368">
        <ele>272.4</ele>
        <time>2024-09-19T13:07:35Z</time>
      </trkpt>
      <trkpt lat="45.71028" lon="5.27364">
        <ele>272.4</ele>
        <time>2024-09-19T13:07:36Z</time>
      </trkpt>
      <trkpt lat="45.7103" lon="5.27358">
        <ele>272.4</ele>
        <time>2024-09-19T13:07:37Z</time>
      </trkpt>
      <trkpt lat="45.71033" lon="5.2735">
        <ele>273</ele>
        <time>2024-09-19T13:07:38Z</time>
      </trkpt>
      <trkpt lat="45.71034" lon="5.27347">
        <ele>273</ele>
        <time>2024-09-19T13:07:39Z</time>
      </trkpt>
      <trkpt lat="45.71036" lon="5.27343">
        <ele>273</ele>
        <time>2024-09-19T13:07:40Z</time>
      </trkpt>
      <trkpt lat="45.71038" lon="5.27338">
        <ele>273.2</ele>
        <time>2024-09-19T13:07:41Z</time>
      </trkpt>
      <trkpt lat="45.71041" lon="5.27333">
        <ele>273.4</ele>
        <time>2024-09-19T13:07:42Z</time>
      </trkpt>
      <trkpt lat="45.71044" lon="5.27326">
        <ele>272.8</ele>
        <time>2024-09-19T13:07:43Z</time>
      </trkpt>
      <trkpt lat="45.71044" lon="5.27326">
        <ele>272.8</ele>
        <time>2024-09-19T13:07:44Z</time>
      </trkpt>
      <trkpt lat="45.71047" lon="5.2732">
        <ele>272.8</ele>
        <time>2024-09-19T13:07:45Z</time>
      </trkpt>
      <trkpt lat="45.7105" lon="5.27314">
        <ele>272.8</ele>
        <time>2024-09-19T13:07:46Z</time>
      </trkpt>
      <trkpt lat="45.71053" lon="5.27309">
        <ele>272.2</ele>
        <time>2024-09-19T13:07:47Z</time>
      </trkpt>
      <trkpt lat="45.71055" lon="5.27303">
        <ele>272.2</ele>
        <time>2024-09-19T13:07:48Z</time>
      </trkpt>
      <trkpt lat="45.71057" lon="5.27297">
        <ele>272.2</ele>
        <time>2024-09-19T13:07:49Z</time>
      </trkpt>
      <trkpt lat="45.71061" lon="5.27292">
        <ele>272.2</ele>
        <time>2024-09-19T13:07:50Z</time>
      </trkpt>
      <trkpt lat="45.71065" lon="5.27284">
        <ele>272.2</ele>
        <time>2024-09-19T13:07:51Z</time>
      </trkpt>
      <trkpt lat="45.71066" lon="5.27278">
        <ele>271.8</ele>
        <time>2024-09-19T13:07:52Z</time>
      </trkpt>
      <trkpt lat="45.71069" lon="5.27271">
        <ele>272.2</ele>
        <time>2024-09-19T13:07:53Z</time>
      </trkpt>
      <trkpt lat="45.71071" lon="5.27264">
        <ele>272.2</ele>
        <time>2024-09-19T13:07:54Z</time>
      </trkpt>
      <trkpt lat="45.71074" lon="5.27257">
        <ele>271.8</ele>
        <time>2024-09-19T13:07:55Z</time>
      </trkpt>
      <trkpt lat="45.71076" lon="5.27251">
        <ele>271.8</ele>
        <time>2024-09-19T13:07:56Z</time>
      </trkpt>
      <trkpt lat="45.71079" lon="5.27245">
        <ele>271.2</ele>
        <time>2024-09-19T13:07:57Z</time>
      </trkpt>
      <trkpt lat="45.71085" lon="5.27231">
        <ele>271.8</ele>
        <time>2024-09-19T13:07:58Z</time>
      </trkpt>
      <trkpt lat="45.71087" lon="5.27224">
        <ele>271.4</ele>
        <time>2024-09-19T13:07:59Z</time>
      </trkpt>
      <trkpt lat="45.71089" lon="5.27217">
        <ele>271.4</ele>
        <time>2024-09-19T13:08:00Z</time>
      </trkpt>
      <trkpt lat="45.71091" lon="5.27211">
        <ele>271.2</ele>
        <time>2024-09-19T13:08:01Z</time>
      </trkpt>
      <trkpt lat="45.71094" lon="5.27203">
        <ele>271.8</ele>
        <time>2024-09-19T13:08:02Z</time>
      </trkpt>
      <trkpt lat="45.71097" lon="5.27197">
        <ele>271.6</ele>
        <time>2024-09-19T13:08:03Z</time>
      </trkpt>
      <trkpt lat="45.711" lon="5.2719">
        <ele>272</ele>
        <time>2024-09-19T13:08:04Z</time>
      </trkpt>
      <trkpt lat="45.71103" lon="5.27182">
        <ele>271.6</ele>
        <time>2024-09-19T13:08:05Z</time>
      </trkpt>
      <trkpt lat="45.71107" lon="5.27174">
        <ele>270.8</ele>
        <time>2024-09-19T13:08:06Z</time>
      </trkpt>
      <trkpt lat="45.7111" lon="5.27167">
        <ele>270.4</ele>
        <time>2024-09-19T13:08:07Z</time>
      </trkpt>
      <trkpt lat="45.71114" lon="5.27159">
        <ele>270.6</ele>
        <time>2024-09-19T13:08:08Z</time>
      </trkpt>
      <trkpt lat="45.71117" lon="5.27151">
        <ele>270.2</ele>
        <time>2024-09-19T13:08:09Z</time>
      </trkpt>
      <trkpt lat="45.71121" lon="5.27143">
        <ele>270.2</ele>
        <time>2024-09-19T13:08:10Z</time>
      </trkpt>
      <trkpt lat="45.71124" lon="5.27135">
        <ele>270.2</ele>
        <time>2024-09-19T13:08:11Z</time>
      </trkpt>
      <trkpt lat="45.71129" lon="5.27127">
        <ele>269.8</ele>
        <time>2024-09-19T13:08:12Z</time>
      </trkpt>
      <trkpt lat="45.71131" lon="5.27119">
        <ele>269.6</ele>
        <time>2024-09-19T13:08:13Z</time>
      </trkpt>
      <trkpt lat="45.71133" lon="5.27113">
        <ele>269.6</ele>
        <time>2024-09-19T13:08:14Z</time>
      </trkpt>
      <trkpt lat="45.71138" lon="5.27106">
        <ele>269.6</ele>
        <time>2024-09-19T13:08:15Z</time>
      </trkpt>
      <trkpt lat="45.71142" lon="5.27099">
        <ele>270</ele>
        <time>2024-09-19T13:08:16Z</time>
      </trkpt>
      <trkpt lat="45.71145" lon="5.27092">
        <ele>270.4</ele>
        <time>2024-09-19T13:08:17Z</time>
      </trkpt>
      <trkpt lat="45.71149" lon="5.27084">
        <ele>269.6</ele>
        <time>2024-09-19T13:08:18Z</time>
      </trkpt>
      <trkpt lat="45.71152" lon="5.27078">
        <ele>269</ele>
        <time>2024-09-19T13:08:19Z</time>
      </trkpt>
      <trkpt lat="45.71155" lon="5.2707">
        <ele>268.8</ele>
        <time>2024-09-19T13:08:20Z</time>
      </trkpt>
      <trkpt lat="45.7116" lon="5.27062">
        <ele>269</ele>
        <time>2024-09-19T13:08:21Z</time>
      </trkpt>
      <trkpt lat="45.71162" lon="5.27055">
        <ele>268.8</ele>
        <time>2024-09-19T13:08:22Z</time>
      </trkpt>
      <trkpt lat="45.71165" lon="5.27049">
        <ele>269.4</ele>
        <time>2024-09-19T13:08:23Z</time>
      </trkpt>
      <trkpt lat="45.7117" lon="5.27042">
        <ele>269.4</ele>
        <time>2024-09-19T13:08:24Z</time>
      </trkpt>
      <trkpt lat="45.71172" lon="5.27037">
        <ele>269.8</ele>
        <time>2024-09-19T13:08:25Z</time>
      </trkpt>
      <trkpt lat="45.71173" lon="5.27035">
        <ele>269.8</ele>
        <time>2024-09-19T13:08:26Z</time>
      </trkpt>
      <trkpt lat="45.71174" lon="5.27035">
        <ele>270</ele>
        <time>2024-09-19T13:08:27Z</time>
      </trkpt>
      <trkpt lat="45.71174" lon="5.27035">
        <ele>270</ele>
        <time>2024-09-19T13:08:28Z</time>
      </trkpt>
      <trkpt lat="45.71175" lon="5.27035">
        <ele>270</ele>
        <time>2024-09-19T13:08:29Z</time>
      </trkpt>
      <trkpt lat="45.71176" lon="5.27036">
        <ele>270</ele>
        <time>2024-09-19T13:08:30Z</time>
      </trkpt>
      <trkpt lat="45.71176" lon="5.27035">
        <ele>270.2</ele>
        <time>2024-09-19T13:08:31Z</time>
      </trkpt>
      <trkpt lat="45.71176" lon="5.27034">
        <ele>270.2</ele>
        <time>2024-09-19T13:08:32Z</time>
      </trkpt>
      <trkpt lat="45.71177" lon="5.27033">
        <ele>270.2</ele>
        <time>2024-09-19T13:08:33Z</time>
      </trkpt>
      <trkpt lat="45.71178" lon="5.27032">
        <ele>270.4</ele>
        <time>2024-09-19T13:08:34Z</time>
      </trkpt>
      <trkpt lat="45.71178" lon="5.2703">
        <ele>270.4</ele>
        <time>2024-09-19T13:08:35Z</time>
      </trkpt>
      <trkpt lat="45.71178" lon="5.27029">
        <ele>270.2</ele>
        <time>2024-09-19T13:08:36Z</time>
      </trkpt>
      <trkpt lat="45.71178" lon="5.2703">
        <ele>270.2</ele>
        <time>2024-09-19T13:08:37Z</time>
      </trkpt>
      <trkpt lat="45.71179" lon="5.27029">
        <ele>270.2</ele>
        <time>2024-09-19T13:08:38Z</time>
      </trkpt>
      <trkpt lat="45.71179" lon="5.27029">
        <ele>270.2</ele>
        <time>2024-09-19T13:08:39Z</time>
      </trkpt>
      <trkpt lat="45.71179" lon="5.27029">
        <ele>270.2</ele>
        <time>2024-09-19T13:08:40Z</time>
      </trkpt>
      <trkpt lat="45.7118" lon="5.27028">
        <ele>270.2</ele>
        <time>2024-09-19T13:08:41Z</time>
      </trkpt>
      <trkpt lat="45.71181" lon="5.27025">
        <ele>270</ele>
        <time>2024-09-19T13:08:42Z</time>
      </trkpt>
      <trkpt lat="45.71183" lon="5.27022">
        <ele>270</ele>
        <time>2024-09-19T13:08:43Z</time>
      </trkpt>
      <trkpt lat="45.71185" lon="5.27019">
        <ele>269.6</ele>
        <time>2024-09-19T13:08:44Z</time>
      </trkpt>
      <trkpt lat="45.71188" lon="5.27015">
        <ele>269.6</ele>
        <time>2024-09-19T13:08:45Z</time>
      </trkpt>
      <trkpt lat="45.7119" lon="5.27011">
        <ele>269.6</ele>
        <time>2024-09-19T13:08:46Z</time>
      </trkpt>
      <trkpt lat="45.71192" lon="5.27006">
        <ele>269.6</ele>
        <time>2024-09-19T13:08:47Z</time>
      </trkpt>
      <trkpt lat="45.71195" lon="5.27001">
        <ele>269.6</ele>
        <time>2024-09-19T13:08:48Z</time>
      </trkpt>
      <trkpt lat="45.71197" lon="5.26996">
        <ele>269.2</ele>
        <time>2024-09-19T13:08:49Z</time>
      </trkpt>
      <trkpt lat="45.712" lon="5.26991">
        <ele>269.2</ele>
        <time>2024-09-19T13:08:50Z</time>
      </trkpt>
      <trkpt lat="45.71203" lon="5.26987">
        <ele>269.2</ele>
        <time>2024-09-19T13:08:51Z</time>
      </trkpt>
      <trkpt lat="45.71206" lon="5.26979">
        <ele>268.8</ele>
        <time>2024-09-19T13:08:52Z</time>
      </trkpt>
      <trkpt lat="45.71209" lon="5.26972">
        <ele>268.8</ele>
        <time>2024-09-19T13:08:53Z</time>
      </trkpt>
      <trkpt lat="45.71213" lon="5.26967">
        <ele>268.6</ele>
        <time>2024-09-19T13:08:54Z</time>
      </trkpt>
      <trkpt lat="45.71216" lon="5.26961">
        <ele>268.6</ele>
        <time>2024-09-19T13:08:55Z</time>
      </trkpt>
      <trkpt lat="45.71217" lon="5.26957">
        <ele>268.4</ele>
        <time>2024-09-19T13:08:56Z</time>
      </trkpt>
      <trkpt lat="45.7122" lon="5.26951">
        <ele>268.2</ele>
        <time>2024-09-19T13:08:57Z</time>
      </trkpt>
      <trkpt lat="45.71223" lon="5.26945">
        <ele>268.2</ele>
        <time>2024-09-19T13:08:58Z</time>
      </trkpt>
      <trkpt lat="45.71225" lon="5.26942">
        <ele>268.2</ele>
        <time>2024-09-19T13:08:59Z</time>
      </trkpt>
      <trkpt lat="45.71229" lon="5.26935">
        <ele>268.2</ele>
        <time>2024-09-19T13:09:00Z</time>
      </trkpt>
      <trkpt lat="45.71234" lon="5.26928">
        <ele>268</ele>
        <time>2024-09-19T13:09:01Z</time>
      </trkpt>
      <trkpt lat="45.71235" lon="5.26923">
        <ele>268</ele>
        <time>2024-09-19T13:09:02Z</time>
      </trkpt>
      <trkpt lat="45.7124" lon="5.26916">
        <ele>268.8</ele>
        <time>2024-09-19T13:09:03Z</time>
      </trkpt>
      <trkpt lat="45.71243" lon="5.26911">
        <ele>268.8</ele>
        <time>2024-09-19T13:09:04Z</time>
      </trkpt>
      <trkpt lat="45.71246" lon="5.26905">
        <ele>268.4</ele>
        <time>2024-09-19T13:09:05Z</time>
      </trkpt>
      <trkpt lat="45.7125" lon="5.26898">
        <ele>268.4</ele>
        <time>2024-09-19T13:09:06Z</time>
      </trkpt>
      <trkpt lat="45.71254" lon="5.26891">
        <ele>268</ele>
        <time>2024-09-19T13:09:07Z</time>
      </trkpt>
      <trkpt lat="45.71258" lon="5.26887">
        <ele>267.4</ele>
        <time>2024-09-19T13:09:08Z</time>
      </trkpt>
      <trkpt lat="45.71261" lon="5.26879">
        <ele>267.4</ele>
        <time>2024-09-19T13:09:09Z</time>
      </trkpt>
      <trkpt lat="45.71265" lon="5.26872">
        <ele>266.8</ele>
        <time>2024-09-19T13:09:10Z</time>
      </trkpt>
      <trkpt lat="45.71269" lon="5.26866">
        <ele>267.2</ele>
        <time>2024-09-19T13:09:11Z</time>
      </trkpt>
      <trkpt lat="45.71273" lon="5.26861">
        <ele>267.2</ele>
        <time>2024-09-19T13:09:12Z</time>
      </trkpt>
      <trkpt lat="45.71276" lon="5.26856">
        <ele>266.6</ele>
        <time>2024-09-19T13:09:13Z</time>
      </trkpt>
      <trkpt lat="45.71279" lon="5.2685">
        <ele>266.4</ele>
        <time>2024-09-19T13:09:14Z</time>
      </trkpt>
      <trkpt lat="45.71283" lon="5.26845">
        <ele>266.6</ele>
        <time>2024-09-19T13:09:15Z</time>
      </trkpt>
      <trkpt lat="45.71286" lon="5.26839">
        <ele>266.8</ele>
        <time>2024-09-19T13:09:16Z</time>
      </trkpt>
      <trkpt lat="45.71288" lon="5.26833">
        <ele>267.2</ele>
        <time>2024-09-19T13:09:17Z</time>
      </trkpt>
      <trkpt lat="45.71293" lon="5.26828">
        <ele>267.2</ele>
        <time>2024-09-19T13:09:18Z</time>
      </trkpt>
      <trkpt lat="45.71296" lon="5.26822">
        <ele>266.8</ele>
        <time>2024-09-19T13:09:19Z</time>
      </trkpt>
      <trkpt lat="45.71299" lon="5.26816">
        <ele>266.8</ele>
        <time>2024-09-19T13:09:20Z</time>
      </trkpt>
      <trkpt lat="45.71302" lon="5.2681">
        <ele>266.8</ele>
        <time>2024-09-19T13:09:21Z</time>
      </trkpt>
      <trkpt lat="45.71306" lon="5.26805">
        <ele>266.8</ele>
        <time>2024-09-19T13:09:22Z</time>
      </trkpt>
      <trkpt lat="45.7131" lon="5.26801">
        <ele>266.8</ele>
        <time>2024-09-19T13:09:23Z</time>
      </trkpt>
      <trkpt lat="45.71315" lon="5.26794">
        <ele>266.6</ele>
        <time>2024-09-19T13:09:24Z</time>
      </trkpt>
      <trkpt lat="45.71316" lon="5.26788">
        <ele>266.2</ele>
        <time>2024-09-19T13:09:25Z</time>
      </trkpt>
      <trkpt lat="45.7132" lon="5.26781">
        <ele>266.6</ele>
        <time>2024-09-19T13:09:26Z</time>
      </trkpt>
      <trkpt lat="45.71323" lon="5.26775">
        <ele>266</ele>
        <time>2024-09-19T13:09:27Z</time>
      </trkpt>
      <trkpt lat="45.71327" lon="5.26768">
        <ele>266</ele>
        <time>2024-09-19T13:09:28Z</time>
      </trkpt>
      <trkpt lat="45.71332" lon="5.26763">
        <ele>266.6</ele>
        <time>2024-09-19T13:09:29Z</time>
      </trkpt>
      <trkpt lat="45.71336" lon="5.26756">
        <ele>266.6</ele>
        <time>2024-09-19T13:09:30Z</time>
      </trkpt>
      <trkpt lat="45.71339" lon="5.2675">
        <ele>266.2</ele>
        <time>2024-09-19T13:09:31Z</time>
      </trkpt>
      <trkpt lat="45.71343" lon="5.26744">
        <ele>265.4</ele>
        <time>2024-09-19T13:09:32Z</time>
      </trkpt>
      <trkpt lat="45.71345" lon="5.26738">
        <ele>266</ele>
        <time>2024-09-19T13:09:33Z</time>
      </trkpt>
      <trkpt lat="45.71347" lon="5.26732">
        <ele>266</ele>
        <time>2024-09-19T13:09:34Z</time>
      </trkpt>
      <trkpt lat="45.71349" lon="5.26726">
        <ele>266.6</ele>
        <time>2024-09-19T13:09:35Z</time>
      </trkpt>
      <trkpt lat="45.71353" lon="5.26721">
        <ele>265.4</ele>
        <time>2024-09-19T13:09:36Z</time>
      </trkpt>
      <trkpt lat="45.71355" lon="5.26716">
        <ele>266</ele>
        <time>2024-09-19T13:09:37Z</time>
      </trkpt>
      <trkpt lat="45.71359" lon="5.26709">
        <ele>266</ele>
        <time>2024-09-19T13:09:38Z</time>
      </trkpt>
      <trkpt lat="45.71362" lon="5.26704">
        <ele>266.4</ele>
        <time>2024-09-19T13:09:39Z</time>
      </trkpt>
      <trkpt lat="45.71367" lon="5.26699">
        <ele>266</ele>
        <time>2024-09-19T13:09:40Z</time>
      </trkpt>
      <trkpt lat="45.71371" lon="5.26693">
        <ele>266.2</ele>
        <time>2024-09-19T13:09:41Z</time>
      </trkpt>
      <trkpt lat="45.71375" lon="5.26686">
        <ele>266</ele>
        <time>2024-09-19T13:09:42Z</time>
      </trkpt>
      <trkpt lat="45.71378" lon="5.26681">
        <ele>266</ele>
        <time>2024-09-19T13:09:43Z</time>
      </trkpt>
      <trkpt lat="45.71382" lon="5.26674">
        <ele>266</ele>
        <time>2024-09-19T13:09:44Z</time>
      </trkpt>
      <trkpt lat="45.71384" lon="5.26666">
        <ele>266</ele>
        <time>2024-09-19T13:09:45Z</time>
      </trkpt>
      <trkpt lat="45.71389" lon="5.26658">
        <ele>266</ele>
        <time>2024-09-19T13:09:46Z</time>
      </trkpt>
      <trkpt lat="45.71394" lon="5.26652">
        <ele>265.6</ele>
        <time>2024-09-19T13:09:47Z</time>
      </trkpt>
      <trkpt lat="45.71398" lon="5.26642">
        <ele>265.6</ele>
        <time>2024-09-19T13:09:48Z</time>
      </trkpt>
      <trkpt lat="45.71401" lon="5.26634">
        <ele>265.6</ele>
        <time>2024-09-19T13:09:49Z</time>
      </trkpt>
      <trkpt lat="45.71405" lon="5.26626">
        <ele>266</ele>
        <time>2024-09-19T13:09:50Z</time>
      </trkpt>
      <trkpt lat="45.71408" lon="5.26619">
        <ele>266.4</ele>
        <time>2024-09-19T13:09:51Z</time>
      </trkpt>
      <trkpt lat="45.71411" lon="5.26611">
        <ele>266.6</ele>
        <time>2024-09-19T13:09:52Z</time>
      </trkpt>
      <trkpt lat="45.71414" lon="5.26605">
        <ele>266.2</ele>
        <time>2024-09-19T13:09:53Z</time>
      </trkpt>
      <trkpt lat="45.71418" lon="5.26598">
        <ele>266.2</ele>
        <time>2024-09-19T13:09:54Z</time>
      </trkpt>
      <trkpt lat="45.71421" lon="5.26592">
        <ele>265.6</ele>
        <time>2024-09-19T13:09:55Z</time>
      </trkpt>
      <trkpt lat="45.71424" lon="5.26584">
        <ele>265.4</ele>
        <time>2024-09-19T13:09:56Z</time>
      </trkpt>
      <trkpt lat="45.71427" lon="5.26577">
        <ele>264.6</ele>
        <time>2024-09-19T13:09:57Z</time>
      </trkpt>
      <trkpt lat="45.7143" lon="5.2657">
        <ele>264.4</ele>
        <time>2024-09-19T13:09:58Z</time>
      </trkpt>
      <trkpt lat="45.71433" lon="5.26562">
        <ele>264</ele>
        <time>2024-09-19T13:09:59Z</time>
      </trkpt>
      <trkpt lat="45.71437" lon="5.26554">
        <ele>264</ele>
        <time>2024-09-19T13:10:00Z</time>
      </trkpt>
      <trkpt lat="45.71442" lon="5.26547">
        <ele>264.4</ele>
        <time>2024-09-19T13:10:01Z</time>
      </trkpt>
      <trkpt lat="45.71444" lon="5.26539">
        <ele>265.2</ele>
        <time>2024-09-19T13:10:02Z</time>
      </trkpt>
      <trkpt lat="45.71446" lon="5.26533">
        <ele>265.2</ele>
        <time>2024-09-19T13:10:03Z</time>
      </trkpt>
      <trkpt lat="45.7145" lon="5.26524">
        <ele>264.8</ele>
        <time>2024-09-19T13:10:04Z</time>
      </trkpt>
      <trkpt lat="45.71451" lon="5.26515">
        <ele>264.8</ele>
        <time>2024-09-19T13:10:05Z</time>
      </trkpt>
      <trkpt lat="45.71452" lon="5.26508">
        <ele>264.8</ele>
        <time>2024-09-19T13:10:06Z</time>
      </trkpt>
      <trkpt lat="45.71454" lon="5.26501">
        <ele>264.8</ele>
        <time>2024-09-19T13:10:07Z</time>
      </trkpt>
      <trkpt lat="45.71456" lon="5.26493">
        <ele>265.2</ele>
        <time>2024-09-19T13:10:08Z</time>
      </trkpt>
      <trkpt lat="45.71458" lon="5.26486">
        <ele>264.8</ele>
        <time>2024-09-19T13:10:09Z</time>
      </trkpt>
      <trkpt lat="45.71461" lon="5.26477">
        <ele>264.8</ele>
        <time>2024-09-19T13:10:10Z</time>
      </trkpt>
      <trkpt lat="45.71462" lon="5.2647">
        <ele>264.6</ele>
        <time>2024-09-19T13:10:11Z</time>
      </trkpt>
      <trkpt lat="45.71464" lon="5.26463">
        <ele>264.6</ele>
        <time>2024-09-19T13:10:12Z</time>
      </trkpt>
      <trkpt lat="45.71469" lon="5.26457">
        <ele>264.6</ele>
        <time>2024-09-19T13:10:13Z</time>
      </trkpt>
      <trkpt lat="45.7147" lon="5.26449">
        <ele>264.6</ele>
        <time>2024-09-19T13:10:14Z</time>
      </trkpt>
      <trkpt lat="45.71473" lon="5.26441">
        <ele>264</ele>
        <time>2024-09-19T13:10:15Z</time>
      </trkpt>
      <trkpt lat="45.71474" lon="5.26435">
        <ele>264.8</ele>
        <time>2024-09-19T13:10:16Z</time>
      </trkpt>
      <trkpt lat="45.71476" lon="5.26427">
        <ele>264.4</ele>
        <time>2024-09-19T13:10:17Z</time>
      </trkpt>
      <trkpt lat="45.71477" lon="5.2642">
        <ele>264.4</ele>
        <time>2024-09-19T13:10:18Z</time>
      </trkpt>
      <trkpt lat="45.71479" lon="5.26412">
        <ele>263.2</ele>
        <time>2024-09-19T13:10:19Z</time>
      </trkpt>
      <trkpt lat="45.71482" lon="5.26402">
        <ele>263.4</ele>
        <time>2024-09-19T13:10:20Z</time>
      </trkpt>
      <trkpt lat="45.71487" lon="5.26393">
        <ele>264</ele>
        <time>2024-09-19T13:10:21Z</time>
      </trkpt>
      <trkpt lat="45.7149" lon="5.26384">
        <ele>263.6</ele>
        <time>2024-09-19T13:10:22Z</time>
      </trkpt>
      <trkpt lat="45.71493" lon="5.26373">
        <ele>264.2</ele>
        <time>2024-09-19T13:10:23Z</time>
      </trkpt>
      <trkpt lat="45.71496" lon="5.26365">
        <ele>263.8</ele>
        <time>2024-09-19T13:10:24Z</time>
      </trkpt>
      <trkpt lat="45.71498" lon="5.26356">
        <ele>263.8</ele>
        <time>2024-09-19T13:10:25Z</time>
      </trkpt>
      <trkpt lat="45.71502" lon="5.26346">
        <ele>263</ele>
        <time>2024-09-19T13:10:26Z</time>
      </trkpt>
      <trkpt lat="45.71503" lon="5.26338">
        <ele>262.6</ele>
        <time>2024-09-19T13:10:27Z</time>
      </trkpt>
      <trkpt lat="45.71505" lon="5.26329">
        <ele>262.2</ele>
        <time>2024-09-19T13:10:28Z</time>
      </trkpt>
      <trkpt lat="45.71508" lon="5.2632">
        <ele>261.8</ele>
        <time>2024-09-19T13:10:29Z</time>
      </trkpt>
      <trkpt lat="45.71511" lon="5.26311">
        <ele>261.8</ele>
        <time>2024-09-19T13:10:30Z</time>
      </trkpt>
      <trkpt lat="45.71513" lon="5.26301">
        <ele>261.6</ele>
        <time>2024-09-19T13:10:31Z</time>
      </trkpt>
      <trkpt lat="45.71516" lon="5.26294">
        <ele>261.6</ele>
        <time>2024-09-19T13:10:32Z</time>
      </trkpt>
      <trkpt lat="45.71518" lon="5.26287">
        <ele>262</ele>
        <time>2024-09-19T13:10:33Z</time>
      </trkpt>
      <trkpt lat="45.71521" lon="5.26279">
        <ele>262</ele>
        <time>2024-09-19T13:10:34Z</time>
      </trkpt>
      <trkpt lat="45.71524" lon="5.26272">
        <ele>262.2</ele>
        <time>2024-09-19T13:10:35Z</time>
      </trkpt>
      <trkpt lat="45.71525" lon="5.26263">
        <ele>262.2</ele>
        <time>2024-09-19T13:10:36Z</time>
      </trkpt>
      <trkpt lat="45.71528" lon="5.26254">
        <ele>262.2</ele>
        <time>2024-09-19T13:10:37Z</time>
      </trkpt>
      <trkpt lat="45.71531" lon="5.26245">
        <ele>261.4</ele>
        <time>2024-09-19T13:10:38Z</time>
      </trkpt>
      <trkpt lat="45.71531" lon="5.26245">
        <ele>261.2</ele>
        <time>2024-09-19T13:10:39Z</time>
      </trkpt>
      <trkpt lat="45.71533" lon="5.26235">
        <ele>261</ele>
        <time>2024-09-19T13:10:40Z</time>
      </trkpt>
      <trkpt lat="45.71535" lon="5.26226">
        <ele>261</ele>
        <time>2024-09-19T13:10:41Z</time>
      </trkpt>
      <trkpt lat="45.71538" lon="5.26216">
        <ele>261</ele>
        <time>2024-09-19T13:10:42Z</time>
      </trkpt>
      <trkpt lat="45.7154" lon="5.26207">
        <ele>261</ele>
        <time>2024-09-19T13:10:43Z</time>
      </trkpt>
      <trkpt lat="45.71543" lon="5.26198">
        <ele>260.2</ele>
        <time>2024-09-19T13:10:44Z</time>
      </trkpt>
      <trkpt lat="45.71546" lon="5.26189">
        <ele>259.6</ele>
        <time>2024-09-19T13:10:45Z</time>
      </trkpt>
      <trkpt lat="45.7155" lon="5.2618">
        <ele>259.4</ele>
        <time>2024-09-19T13:10:46Z</time>
      </trkpt>
      <trkpt lat="45.71553" lon="5.26171">
        <ele>259.4</ele>
        <time>2024-09-19T13:10:47Z</time>
      </trkpt>
      <trkpt lat="45.71557" lon="5.26161">
        <ele>259.8</ele>
        <time>2024-09-19T13:10:48Z</time>
      </trkpt>
      <trkpt lat="45.7156" lon="5.26153">
        <ele>259</ele>
        <time>2024-09-19T13:10:49Z</time>
      </trkpt>
      <trkpt lat="45.71564" lon="5.26144">
        <ele>259</ele>
        <time>2024-09-19T13:10:50Z</time>
      </trkpt>
      <trkpt lat="45.71566" lon="5.26134">
        <ele>258.4</ele>
        <time>2024-09-19T13:10:51Z</time>
      </trkpt>
      <trkpt lat="45.71569" lon="5.26126">
        <ele>258</ele>
        <time>2024-09-19T13:10:52Z</time>
      </trkpt>
      <trkpt lat="45.71571" lon="5.26117">
        <ele>258.8</ele>
        <time>2024-09-19T13:10:53Z</time>
      </trkpt>
      <trkpt lat="45.71573" lon="5.26108">
        <ele>259.4</ele>
        <time>2024-09-19T13:10:54Z</time>
      </trkpt>
      <trkpt lat="45.7158" lon="5.26091">
        <ele>259.4</ele>
        <time>2024-09-19T13:10:55Z</time>
      </trkpt>
      <trkpt lat="45.71583" lon="5.26082">
        <ele>259.4</ele>
        <time>2024-09-19T13:10:56Z</time>
      </trkpt>
      <trkpt lat="45.71584" lon="5.26073">
        <ele>259.2</ele>
        <time>2024-09-19T13:10:57Z</time>
      </trkpt>
      <trkpt lat="45.71586" lon="5.26065">
        <ele>258.4</ele>
        <time>2024-09-19T13:10:58Z</time>
      </trkpt>
      <trkpt lat="45.71589" lon="5.26055">
        <ele>258</ele>
        <time>2024-09-19T13:10:59Z</time>
      </trkpt>
      <trkpt lat="45.71591" lon="5.26046">
        <ele>258</ele>
        <time>2024-09-19T13:11:00Z</time>
      </trkpt>
      <trkpt lat="45.71594" lon="5.26037">
        <ele>258.4</ele>
        <time>2024-09-19T13:11:01Z</time>
      </trkpt>
      <trkpt lat="45.71596" lon="5.26029">
        <ele>257.4</ele>
        <time>2024-09-19T13:11:02Z</time>
      </trkpt>
      <trkpt lat="45.71598" lon="5.26021">
        <ele>257.4</ele>
        <time>2024-09-19T13:11:03Z</time>
      </trkpt>
      <trkpt lat="45.71599" lon="5.26013">
        <ele>257</ele>
        <time>2024-09-19T13:11:04Z</time>
      </trkpt>
      <trkpt lat="45.71603" lon="5.26006">
        <ele>256.8</ele>
        <time>2024-09-19T13:11:05Z</time>
      </trkpt>
      <trkpt lat="45.71604" lon="5.25997">
        <ele>256.6</ele>
        <time>2024-09-19T13:11:06Z</time>
      </trkpt>
      <trkpt lat="45.71611" lon="5.25987">
        <ele>256.6</ele>
        <time>2024-09-19T13:11:07Z</time>
      </trkpt>
      <trkpt lat="45.71613" lon="5.25978">
        <ele>256.6</ele>
        <time>2024-09-19T13:11:08Z</time>
      </trkpt>
      <trkpt lat="45.71617" lon="5.2597">
        <ele>256.8</ele>
        <time>2024-09-19T13:11:09Z</time>
      </trkpt>
      <trkpt lat="45.71618" lon="5.25962">
        <ele>256.8</ele>
        <time>2024-09-19T13:11:10Z</time>
      </trkpt>
      <trkpt lat="45.7162" lon="5.25955">
        <ele>257.2</ele>
        <time>2024-09-19T13:11:11Z</time>
      </trkpt>
      <trkpt lat="45.71623" lon="5.25946">
        <ele>257</ele>
        <time>2024-09-19T13:11:12Z</time>
      </trkpt>
      <trkpt lat="45.71627" lon="5.25937">
        <ele>256.6</ele>
        <time>2024-09-19T13:11:13Z</time>
      </trkpt>
      <trkpt lat="45.7163" lon="5.25929">
        <ele>256.2</ele>
        <time>2024-09-19T13:11:14Z</time>
      </trkpt>
      <trkpt lat="45.71631" lon="5.25923">
        <ele>256.2</ele>
        <time>2024-09-19T13:11:15Z</time>
      </trkpt>
      <trkpt lat="45.71636" lon="5.25914">
        <ele>255.6</ele>
        <time>2024-09-19T13:11:16Z</time>
      </trkpt>
      <trkpt lat="45.7164" lon="5.25903">
        <ele>255.8</ele>
        <time>2024-09-19T13:11:17Z</time>
      </trkpt>
      <trkpt lat="45.71646" lon="5.25894">
        <ele>255.6</ele>
        <time>2024-09-19T13:11:18Z</time>
      </trkpt>
      <trkpt lat="45.7165" lon="5.25884">
        <ele>255.6</ele>
        <time>2024-09-19T13:11:19Z</time>
      </trkpt>
      <trkpt lat="45.71655" lon="5.25875">
        <ele>255.6</ele>
        <time>2024-09-19T13:11:20Z</time>
      </trkpt>
      <trkpt lat="45.7166" lon="5.25866">
        <ele>255.2</ele>
        <time>2024-09-19T13:11:21Z</time>
      </trkpt>
      <trkpt lat="45.71663" lon="5.25859">
        <ele>255.2</ele>
        <time>2024-09-19T13:11:22Z</time>
      </trkpt>
      <trkpt lat="45.71667" lon="5.25851">
        <ele>255.6</ele>
        <time>2024-09-19T13:11:23Z</time>
      </trkpt>
      <trkpt lat="45.7167" lon="5.25845">
        <ele>255.6</ele>
        <time>2024-09-19T13:11:24Z</time>
      </trkpt>
      <trkpt lat="45.71672" lon="5.25838">
        <ele>255.6</ele>
        <time>2024-09-19T13:11:25Z</time>
      </trkpt>
      <trkpt lat="45.71675" lon="5.25834">
        <ele>256</ele>
        <time>2024-09-19T13:11:26Z</time>
      </trkpt>
      <trkpt lat="45.71675" lon="5.25831">
        <ele>256</ele>
        <time>2024-09-19T13:11:27Z</time>
      </trkpt>
      <trkpt lat="45.71678" lon="5.25827">
        <ele>256.4</ele>
        <time>2024-09-19T13:11:28Z</time>
      </trkpt>
      <trkpt lat="45.71677" lon="5.25831">
        <ele>256.4</ele>
        <time>2024-09-19T13:11:29Z</time>
      </trkpt>
      <trkpt lat="45.71678" lon="5.2583">
        <ele>256.6</ele>
        <time>2024-09-19T13:11:30Z</time>
      </trkpt>
      <trkpt lat="45.71678" lon="5.25828">
        <ele>256.6</ele>
        <time>2024-09-19T13:11:31Z</time>
      </trkpt>
      <trkpt lat="45.71678" lon="5.25829">
        <ele>256.6</ele>
        <time>2024-09-19T13:11:32Z</time>
      </trkpt>
      <trkpt lat="45.71678" lon="5.25829">
        <ele>256.4</ele>
        <time>2024-09-19T13:11:33Z</time>
      </trkpt>
      <trkpt lat="45.7168" lon="5.25827">
        <ele>256.4</ele>
        <time>2024-09-19T13:11:37Z</time>
      </trkpt>
      <trkpt lat="45.71682" lon="5.25825">
        <ele>255.8</ele>
        <time>2024-09-19T13:11:38Z</time>
      </trkpt>
      <trkpt lat="45.71684" lon="5.25822">
        <ele>255.6</ele>
        <time>2024-09-19T13:11:39Z</time>
      </trkpt>
      <trkpt lat="45.71687" lon="5.25819">
        <ele>255.6</ele>
        <time>2024-09-19T13:11:40Z</time>
      </trkpt>
      <trkpt lat="45.7169" lon="5.25815">
        <ele>255.6</ele>
        <time>2024-09-19T13:11:41Z</time>
      </trkpt>
      <trkpt lat="45.71693" lon="5.25811">
        <ele>255.6</ele>
        <time>2024-09-19T13:11:42Z</time>
      </trkpt>
      <trkpt lat="45.71696" lon="5.25804">
        <ele>255.4</ele>
        <time>2024-09-19T13:11:43Z</time>
      </trkpt>
      <trkpt lat="45.71699" lon="5.258">
        <ele>255.4</ele>
        <time>2024-09-19T13:11:44Z</time>
      </trkpt>
      <trkpt lat="45.71701" lon="5.25796">
        <ele>255.2</ele>
        <time>2024-09-19T13:11:45Z</time>
      </trkpt>
      <trkpt lat="45.71704" lon="5.25791">
        <ele>255.4</ele>
        <time>2024-09-19T13:11:46Z</time>
      </trkpt>
      <trkpt lat="45.71708" lon="5.25786">
        <ele>255.4</ele>
        <time>2024-09-19T13:11:47Z</time>
      </trkpt>
      <trkpt lat="45.71711" lon="5.25781">
        <ele>254.6</ele>
        <time>2024-09-19T13:11:48Z</time>
      </trkpt>
      <trkpt lat="45.71714" lon="5.25777">
        <ele>254.6</ele>
        <time>2024-09-19T13:11:49Z</time>
      </trkpt>
      <trkpt lat="45.71717" lon="5.25772">
        <ele>254.6</ele>
        <time>2024-09-19T13:11:50Z</time>
      </trkpt>
      <trkpt lat="45.71722" lon="5.25765">
        <ele>254.4</ele>
        <time>2024-09-19T13:11:51Z</time>
      </trkpt>
      <trkpt lat="45.71726" lon="5.25757">
        <ele>254.4</ele>
        <time>2024-09-19T13:11:52Z</time>
      </trkpt>
      <trkpt lat="45.71731" lon="5.25751">
        <ele>254.4</ele>
        <time>2024-09-19T13:11:53Z</time>
      </trkpt>
      <trkpt lat="45.71736" lon="5.25744">
        <ele>254.4</ele>
        <time>2024-09-19T13:11:54Z</time>
      </trkpt>
      <trkpt lat="45.71739" lon="5.2574">
        <ele>254.2</ele>
        <time>2024-09-19T13:11:55Z</time>
      </trkpt>
      <trkpt lat="45.71744" lon="5.25735">
        <ele>254.2</ele>
        <time>2024-09-19T13:11:56Z</time>
      </trkpt>
      <trkpt lat="45.71749" lon="5.2573">
        <ele>254.2</ele>
        <time>2024-09-19T13:11:57Z</time>
      </trkpt>
      <trkpt lat="45.71752" lon="5.25725">
        <ele>254</ele>
        <time>2024-09-19T13:11:58Z</time>
      </trkpt>
      <trkpt lat="45.71759" lon="5.25721">
        <ele>254</ele>
        <time>2024-09-19T13:11:59Z</time>
      </trkpt>
      <trkpt lat="45.71765" lon="5.25715">
        <ele>253.6</ele>
        <time>2024-09-19T13:12:00Z</time>
      </trkpt>
      <trkpt lat="45.7177" lon="5.2571">
        <ele>253.4</ele>
        <time>2024-09-19T13:12:01Z</time>
      </trkpt>
      <trkpt lat="45.71774" lon="5.25702">
        <ele>253.4</ele>
        <time>2024-09-19T13:12:02Z</time>
      </trkpt>
      <trkpt lat="45.71778" lon="5.25697">
        <ele>253.4</ele>
        <time>2024-09-19T13:12:03Z</time>
      </trkpt>
      <trkpt lat="45.7178" lon="5.2569">
        <ele>253.4</ele>
        <time>2024-09-19T13:12:04Z</time>
      </trkpt>
      <trkpt lat="45.71782" lon="5.25682">
        <ele>253.4</ele>
        <time>2024-09-19T13:12:05Z</time>
      </trkpt>
      <trkpt lat="45.71783" lon="5.25675">
        <ele>253.4</ele>
        <time>2024-09-19T13:12:06Z</time>
      </trkpt>
      <trkpt lat="45.71785" lon="5.25669">
        <ele>253.4</ele>
        <time>2024-09-19T13:12:07Z</time>
      </trkpt>
      <trkpt lat="45.71787" lon="5.25661">
        <ele>253.4</ele>
        <time>2024-09-19T13:12:08Z</time>
      </trkpt>
      <trkpt lat="45.71789" lon="5.25654">
        <ele>253.4</ele>
        <time>2024-09-19T13:12:09Z</time>
      </trkpt>
      <trkpt lat="45.71792" lon="5.25647">
        <ele>253</ele>
        <time>2024-09-19T13:12:10Z</time>
      </trkpt>
      <trkpt lat="45.71793" lon="5.25639">
        <ele>252.8</ele>
        <time>2024-09-19T13:12:11Z</time>
      </trkpt>
      <trkpt lat="45.71796" lon="5.25631">
        <ele>252.6</ele>
        <time>2024-09-19T13:12:12Z</time>
      </trkpt>
      <trkpt lat="45.71798" lon="5.25621">
        <ele>252.6</ele>
        <time>2024-09-19T13:12:13Z</time>
      </trkpt>
      <trkpt lat="45.71799" lon="5.25613">
        <ele>252</ele>
        <time>2024-09-19T13:12:14Z</time>
      </trkpt>
      <trkpt lat="45.71799" lon="5.25613">
        <ele>251.6</ele>
        <time>2024-09-19T13:12:15Z</time>
      </trkpt>
      <trkpt lat="45.71799" lon="5.25613">
        <ele>251.4</ele>
        <time>2024-09-19T13:12:16Z</time>
      </trkpt>
      <trkpt lat="45.71807" lon="5.25574">
        <ele>250.4</ele>
        <time>2024-09-19T13:12:18Z</time>
      </trkpt>
      <trkpt lat="45.71811" lon="5.25566">
        <ele>250</ele>
        <time>2024-09-19T13:12:19Z</time>
      </trkpt>
      <trkpt lat="45.71815" lon="5.25558">
        <ele>249.4</ele>
        <time>2024-09-19T13:12:20Z</time>
      </trkpt>
      <trkpt lat="45.71821" lon="5.25551">
        <ele>249</ele>
        <time>2024-09-19T13:12:21Z</time>
      </trkpt>
      <trkpt lat="45.71827" lon="5.25545">
        <ele>248.6</ele>
        <time>2024-09-19T13:12:22Z</time>
      </trkpt>
      <trkpt lat="45.71834" lon="5.25542">
        <ele>248.6</ele>
        <time>2024-09-19T13:12:23Z</time>
      </trkpt>
      <trkpt lat="45.7184" lon="5.25537">
        <ele>248.4</ele>
        <time>2024-09-19T13:12:24Z</time>
      </trkpt>
      <trkpt lat="45.71847" lon="5.25541">
        <ele>248.2</ele>
        <time>2024-09-19T13:12:25Z</time>
      </trkpt>
      <trkpt lat="45.71855" lon="5.25542">
        <ele>247.8</ele>
        <time>2024-09-19T13:12:26Z</time>
      </trkpt>
      <trkpt lat="45.71862" lon="5.25544">
        <ele>247.8</ele>
        <time>2024-09-19T13:12:27Z</time>
      </trkpt>
      <trkpt lat="45.7187" lon="5.25546">
        <ele>247.8</ele>
        <time>2024-09-19T13:12:28Z</time>
      </trkpt>
      <trkpt lat="45.71876" lon="5.25547">
        <ele>247.2</ele>
        <time>2024-09-19T13:12:29Z</time>
      </trkpt>
      <trkpt lat="45.71883" lon="5.25551">
        <ele>246.8</ele>
        <time>2024-09-19T13:12:30Z</time>
      </trkpt>
      <trkpt lat="45.7189" lon="5.25554">
        <ele>246.8</ele>
        <time>2024-09-19T13:12:31Z</time>
      </trkpt>
      <trkpt lat="45.71897" lon="5.25557">
        <ele>246.6</ele>
        <time>2024-09-19T13:12:32Z</time>
      </trkpt>
      <trkpt lat="45.71903" lon="5.25559">
        <ele>246.8</ele>
        <time>2024-09-19T13:12:33Z</time>
      </trkpt>
      <trkpt lat="45.71906" lon="5.25562">
        <ele>246.8</ele>
        <time>2024-09-19T13:12:34Z</time>
      </trkpt>
      <trkpt lat="45.7191" lon="5.25563">
        <ele>247.2</ele>
        <time>2024-09-19T13:12:35Z</time>
      </trkpt>
      <trkpt lat="45.71914" lon="5.2556">
        <ele>247.2</ele>
        <time>2024-09-19T13:12:36Z</time>
      </trkpt>
      <trkpt lat="45.71919" lon="5.25557">
        <ele>247.2</ele>
        <time>2024-09-19T13:12:37Z</time>
      </trkpt>
      <trkpt lat="45.71923" lon="5.25556">
        <ele>247.6</ele>
        <time>2024-09-19T13:12:38Z</time>
      </trkpt>
      <trkpt lat="45.71927" lon="5.25556">
        <ele>247.6</ele>
        <time>2024-09-19T13:12:39Z</time>
      </trkpt>
      <trkpt lat="45.71932" lon="5.25554">
        <ele>247.6</ele>
        <time>2024-09-19T13:12:40Z</time>
      </trkpt>
      <trkpt lat="45.71937" lon="5.2555">
        <ele>247</ele>
        <time>2024-09-19T13:12:41Z</time>
      </trkpt>
      <trkpt lat="45.71941" lon="5.25547">
        <ele>247</ele>
        <time>2024-09-19T13:12:42Z</time>
      </trkpt>
      <trkpt lat="45.71946" lon="5.25542">
        <ele>246.6</ele>
        <time>2024-09-19T13:12:43Z</time>
      </trkpt>
      <trkpt lat="45.71949" lon="5.25538">
        <ele>246</ele>
        <time>2024-09-19T13:12:44Z</time>
      </trkpt>
      <trkpt lat="45.71954" lon="5.25531">
        <ele>246</ele>
        <time>2024-09-19T13:12:45Z</time>
      </trkpt>
      <trkpt lat="45.71959" lon="5.25527">
        <ele>246</ele>
        <time>2024-09-19T13:12:46Z</time>
      </trkpt>
      <trkpt lat="45.71959" lon="5.25527">
        <ele>246</ele>
        <time>2024-09-19T13:12:47Z</time>
      </trkpt>
      <trkpt lat="45.71959" lon="5.25527">
        <ele>246</ele>
        <time>2024-09-19T13:12:48Z</time>
      </trkpt>
      <trkpt lat="45.71973" lon="5.25511">
        <ele>246</ele>
        <time>2024-09-19T13:12:49Z</time>
      </trkpt>
      <trkpt lat="45.71976" lon="5.25507">
        <ele>246</ele>
        <time>2024-09-19T13:12:50Z</time>
      </trkpt>
      <trkpt lat="45.71978" lon="5.25505">
        <ele>245.6</ele>
        <time>2024-09-19T13:12:51Z</time>
      </trkpt>
      <trkpt lat="45.71979" lon="5.25503">
        <ele>245.6</ele>
        <time>2024-09-19T13:12:52Z</time>
      </trkpt>
      <trkpt lat="45.7198" lon="5.25501">
        <ele>245.6</ele>
        <time>2024-09-19T13:12:53Z</time>
      </trkpt>
      <trkpt lat="45.7198" lon="5.25499">
        <ele>245.6</ele>
        <time>2024-09-19T13:12:54Z</time>
      </trkpt>
      <trkpt lat="45.71977" lon="5.255">
        <ele>245.6</ele>
        <time>2024-09-19T13:12:55Z</time>
      </trkpt>
      <trkpt lat="45.71977" lon="5.25502">
        <ele>245.6</ele>
        <time>2024-09-19T13:12:56Z</time>
      </trkpt>
      <trkpt lat="45.71976" lon="5.25504">
        <ele>245.6</ele>
        <time>2024-09-19T13:12:57Z</time>
      </trkpt>
      <trkpt lat="45.71976" lon="5.25506">
        <ele>245.6</ele>
        <time>2024-09-19T13:12:58Z</time>
      </trkpt>
      <trkpt lat="45.71973" lon="5.25507">
        <ele>245.6</ele>
        <time>2024-09-19T13:12:59Z</time>
      </trkpt>
      <trkpt lat="45.71972" lon="5.25509">
        <ele>245.8</ele>
        <time>2024-09-19T13:13:00Z</time>
      </trkpt>
      <trkpt lat="45.7197" lon="5.25511">
        <ele>245.8</ele>
        <time>2024-09-19T13:13:01Z</time>
      </trkpt>
      <trkpt lat="45.71968" lon="5.25513">
        <ele>246</ele>
        <time>2024-09-19T13:13:02Z</time>
      </trkpt>
      <trkpt lat="45.71966" lon="5.25515">
        <ele>246</ele>
        <time>2024-09-19T13:13:03Z</time>
      </trkpt>
      <trkpt lat="45.71963" lon="5.25516">
        <ele>246.4</ele>
        <time>2024-09-19T13:13:04Z</time>
      </trkpt>
      <trkpt lat="45.71961" lon="5.25515">
        <ele>246.4</ele>
        <time>2024-09-19T13:13:05Z</time>
      </trkpt>
      <trkpt lat="45.7196" lon="5.25512">
        <ele>246.4</ele>
        <time>2024-09-19T13:13:06Z</time>
      </trkpt>
      <trkpt lat="45.7196" lon="5.25509">
        <ele>246.4</ele>
        <time>2024-09-19T13:13:07Z</time>
      </trkpt>
      <trkpt lat="45.71962" lon="5.25505">
        <ele>246.8</ele>
        <time>2024-09-19T13:13:08Z</time>
      </trkpt>
      <trkpt lat="45.71964" lon="5.25502">
        <ele>246.8</ele>
        <time>2024-09-19T13:13:09Z</time>
      </trkpt>
      <trkpt lat="45.71966" lon="5.25499">
        <ele>247</ele>
        <time>2024-09-19T13:13:10Z</time>
      </trkpt>
      <trkpt lat="45.71967" lon="5.25495">
        <ele>247</ele>
        <time>2024-09-19T13:13:11Z</time>
      </trkpt>
      <trkpt lat="45.71968" lon="5.25492">
        <ele>247.2</ele>
        <time>2024-09-19T13:13:12Z</time>
      </trkpt>
      <trkpt lat="45.7197" lon="5.25488">
        <ele>247.2</ele>
        <time>2024-09-19T13:13:13Z</time>
      </trkpt>
      <trkpt lat="45.71971" lon="5.25484">
        <ele>247.2</ele>
        <time>2024-09-19T13:13:14Z</time>
      </trkpt>
      <trkpt lat="45.71973" lon="5.2548">
        <ele>247.6</ele>
        <time>2024-09-19T13:13:15Z</time>
      </trkpt>
      <trkpt lat="45.71975" lon="5.25477">
        <ele>247.6</ele>
        <time>2024-09-19T13:13:16Z</time>
      </trkpt>
      <trkpt lat="45.71977" lon="5.25473">
        <ele>247.6</ele>
        <time>2024-09-19T13:13:17Z</time>
      </trkpt>
      <trkpt lat="45.7198" lon="5.25469">
        <ele>247.6</ele>
        <time>2024-09-19T13:13:18Z</time>
      </trkpt>
      <trkpt lat="45.71982" lon="5.25466">
        <ele>247.8</ele>
        <time>2024-09-19T13:13:19Z</time>
      </trkpt>
      <trkpt lat="45.71984" lon="5.25462">
        <ele>247.8</ele>
        <time>2024-09-19T13:13:20Z</time>
      </trkpt>
      <trkpt lat="45.71987" lon="5.25457">
        <ele>247.8</ele>
        <time>2024-09-19T13:13:21Z</time>
      </trkpt>
      <trkpt lat="45.71991" lon="5.25454">
        <ele>247.8</ele>
        <time>2024-09-19T13:13:22Z</time>
      </trkpt>
      <trkpt lat="45.71994" lon="5.25449">
        <ele>247.8</ele>
        <time>2024-09-19T13:13:23Z</time>
      </trkpt>
      <trkpt lat="45.71999" lon="5.25443">
        <ele>247.8</ele>
        <time>2024-09-19T13:13:24Z</time>
      </trkpt>
      <trkpt lat="45.72002" lon="5.25439">
        <ele>247.8</ele>
        <time>2024-09-19T13:13:25Z</time>
      </trkpt>
      <trkpt lat="45.72005" lon="5.25434">
        <ele>247.8</ele>
        <time>2024-09-19T13:13:26Z</time>
      </trkpt>
      <trkpt lat="45.72008" lon="5.25429">
        <ele>247.8</ele>
        <time>2024-09-19T13:13:27Z</time>
      </trkpt>
      <trkpt lat="45.72011" lon="5.25426">
        <ele>247.8</ele>
        <time>2024-09-19T13:13:28Z</time>
      </trkpt>
      <trkpt lat="45.72013" lon="5.25423">
        <ele>247.8</ele>
        <time>2024-09-19T13:13:29Z</time>
      </trkpt>
      <trkpt lat="45.72015" lon="5.25417">
        <ele>247.8</ele>
        <time>2024-09-19T13:13:30Z</time>
      </trkpt>
      <trkpt lat="45.7202" lon="5.25414">
        <ele>247.6</ele>
        <time>2024-09-19T13:13:31Z</time>
      </trkpt>
      <trkpt lat="45.72024" lon="5.25407">
        <ele>247.2</ele>
        <time>2024-09-19T13:13:32Z</time>
      </trkpt>
      <trkpt lat="45.72028" lon="5.25401">
        <ele>247.2</ele>
        <time>2024-09-19T13:13:33Z</time>
      </trkpt>
      <trkpt lat="45.72031" lon="5.25395">
        <ele>247.2</ele>
        <time>2024-09-19T13:13:34Z</time>
      </trkpt>
      <trkpt lat="45.72034" lon="5.25388">
        <ele>247</ele>
        <time>2024-09-19T13:13:35Z</time>
      </trkpt>
      <trkpt lat="45.72038" lon="5.25382">
        <ele>246.6</ele>
        <time>2024-09-19T13:13:36Z</time>
      </trkpt>
      <trkpt lat="45.72041" lon="5.25375">
        <ele>246.4</ele>
        <time>2024-09-19T13:13:37Z</time>
      </trkpt>
      <trkpt lat="45.72045" lon="5.25368">
        <ele>246.4</ele>
        <time>2024-09-19T13:13:38Z</time>
      </trkpt>
      <trkpt lat="45.7205" lon="5.2536">
        <ele>246.2</ele>
        <time>2024-09-19T13:13:39Z</time>
      </trkpt>
      <trkpt lat="45.72055" lon="5.25353">
        <ele>246.2</ele>
        <time>2024-09-19T13:13:40Z</time>
      </trkpt>
      <trkpt lat="45.72059" lon="5.25346">
        <ele>245.8</ele>
        <time>2024-09-19T13:13:41Z</time>
      </trkpt>
      <trkpt lat="45.72063" lon="5.25338">
        <ele>245.8</ele>
        <time>2024-09-19T13:13:42Z</time>
      </trkpt>
      <trkpt lat="45.72067" lon="5.25331">
        <ele>245.8</ele>
        <time>2024-09-19T13:13:43Z</time>
      </trkpt>
      <trkpt lat="45.72071" lon="5.25322">
        <ele>245.8</ele>
        <time>2024-09-19T13:13:44Z</time>
      </trkpt>
      <trkpt lat="45.72075" lon="5.25314">
        <ele>245.8</ele>
        <time>2024-09-19T13:13:45Z</time>
      </trkpt>
      <trkpt lat="45.72079" lon="5.25307">
        <ele>245.8</ele>
        <time>2024-09-19T13:13:46Z</time>
      </trkpt>
      <trkpt lat="45.72083" lon="5.253">
        <ele>245.8</ele>
        <time>2024-09-19T13:13:47Z</time>
      </trkpt>
      <trkpt lat="45.72086" lon="5.25292">
        <ele>245.4</ele>
        <time>2024-09-19T13:13:48Z</time>
      </trkpt>
      <trkpt lat="45.7209" lon="5.25284">
        <ele>245.4</ele>
        <time>2024-09-19T13:13:49Z</time>
      </trkpt>
      <trkpt lat="45.72094" lon="5.25277">
        <ele>245.2</ele>
        <time>2024-09-19T13:13:50Z</time>
      </trkpt>
      <trkpt lat="45.72097" lon="5.25268">
        <ele>245</ele>
        <time>2024-09-19T13:13:51Z</time>
      </trkpt>
      <trkpt lat="45.72101" lon="5.25261">
        <ele>244.6</ele>
        <time>2024-09-19T13:13:52Z</time>
      </trkpt>
      <trkpt lat="45.72103" lon="5.25253">
        <ele>244.6</ele>
        <time>2024-09-19T13:13:53Z</time>
      </trkpt>
      <trkpt lat="45.72107" lon="5.25246">
        <ele>244.6</ele>
        <time>2024-09-19T13:13:54Z</time>
      </trkpt>
      <trkpt lat="45.7211" lon="5.25239">
        <ele>245</ele>
        <time>2024-09-19T13:13:55Z</time>
      </trkpt>
      <trkpt lat="45.72113" lon="5.25232">
        <ele>245</ele>
        <time>2024-09-19T13:13:56Z</time>
      </trkpt>
      <trkpt lat="45.72115" lon="5.25224">
        <ele>244.2</ele>
        <time>2024-09-19T13:13:57Z</time>
      </trkpt>
      <trkpt lat="45.72117" lon="5.25216">
        <ele>244.2</ele>
        <time>2024-09-19T13:13:58Z</time>
      </trkpt>
      <trkpt lat="45.7212" lon="5.25208">
        <ele>244.2</ele>
        <time>2024-09-19T13:13:59Z</time>
      </trkpt>
      <trkpt lat="45.72122" lon="5.252">
        <ele>244</ele>
        <time>2024-09-19T13:14:00Z</time>
      </trkpt>
      <trkpt lat="45.72124" lon="5.25192">
        <ele>244</ele>
        <time>2024-09-19T13:14:01Z</time>
      </trkpt>
      <trkpt lat="45.72126" lon="5.25184">
        <ele>244</ele>
        <time>2024-09-19T13:14:02Z</time>
      </trkpt>
      <trkpt lat="45.72128" lon="5.25181">
        <ele>244</ele>
        <time>2024-09-19T13:14:03Z</time>
      </trkpt>
      <trkpt lat="45.72127" lon="5.25181">
        <ele>244</ele>
        <time>2024-09-19T13:14:04Z</time>
      </trkpt>
      <trkpt lat="45.72127" lon="5.2518">
        <ele>244.4</ele>
        <time>2024-09-19T13:14:05Z</time>
      </trkpt>
      <trkpt lat="45.72128" lon="5.2518">
        <ele>244.4</ele>
        <time>2024-09-19T13:14:06Z</time>
      </trkpt>
      <trkpt lat="45.72129" lon="5.2518">
        <ele>244.4</ele>
        <time>2024-09-19T13:14:07Z</time>
      </trkpt>
      <trkpt lat="45.72128" lon="5.25181">
        <ele>244.6</ele>
        <time>2024-09-19T13:14:08Z</time>
      </trkpt>
      <trkpt lat="45.72128" lon="5.25181">
        <ele>244.6</ele>
        <time>2024-09-19T13:14:09Z</time>
      </trkpt>
      <trkpt lat="45.72126" lon="5.2518">
        <ele>245.4</ele>
        <time>2024-09-19T13:20:36Z</time>
      </trkpt>
      <trkpt lat="45.72126" lon="5.2518">
        <ele>245</ele>
        <time>2024-09-19T13:20:37Z</time>
      </trkpt>
      <trkpt lat="45.72126" lon="5.25179">
        <ele>245</ele>
        <time>2024-09-19T13:20:38Z</time>
      </trkpt>
      <trkpt lat="45.72127" lon="5.25178">
        <ele>245</ele>
        <time>2024-09-19T13:20:39Z</time>
      </trkpt>
      <trkpt lat="45.72128" lon="5.25175">
        <ele>244.6</ele>
        <time>2024-09-19T13:20:40Z</time>
      </trkpt>
      <trkpt lat="45.72129" lon="5.25171">
        <ele>244.6</ele>
        <time>2024-09-19T13:20:41Z</time>
      </trkpt>
      <trkpt lat="45.7213" lon="5.25167">
        <ele>244.4</ele>
        <time>2024-09-19T13:20:42Z</time>
      </trkpt>
      <trkpt lat="45.72131" lon="5.25162">
        <ele>244.2</ele>
        <time>2024-09-19T13:20:43Z</time>
      </trkpt>
      <trkpt lat="45.72133" lon="5.25157">
        <ele>244</ele>
        <time>2024-09-19T13:20:44Z</time>
      </trkpt>
      <trkpt lat="45.72135" lon="5.25152">
        <ele>244</ele>
        <time>2024-09-19T13:20:45Z</time>
      </trkpt>
      <trkpt lat="45.72137" lon="5.25146">
        <ele>244</ele>
        <time>2024-09-19T13:20:46Z</time>
      </trkpt>
      <trkpt lat="45.72138" lon="5.25141">
        <ele>243.6</ele>
        <time>2024-09-19T13:20:47Z</time>
      </trkpt>
      <trkpt lat="45.72139" lon="5.25136">
        <ele>243.6</ele>
        <time>2024-09-19T13:20:48Z</time>
      </trkpt>
      <trkpt lat="45.72141" lon="5.25131">
        <ele>243.6</ele>
        <time>2024-09-19T13:20:49Z</time>
      </trkpt>
      <trkpt lat="45.72141" lon="5.25126">
        <ele>243.6</ele>
        <time>2024-09-19T13:20:50Z</time>
      </trkpt>
      <trkpt lat="45.7214" lon="5.25121">
        <ele>243.6</ele>
        <time>2024-09-19T13:20:51Z</time>
      </trkpt>
      <trkpt lat="45.72141" lon="5.25116">
        <ele>243.4</ele>
        <time>2024-09-19T13:20:52Z</time>
      </trkpt>
      <trkpt lat="45.72142" lon="5.25108">
        <ele>243.4</ele>
        <time>2024-09-19T13:20:53Z</time>
      </trkpt>
      <trkpt lat="45.72144" lon="5.25102">
        <ele>243.2</ele>
        <time>2024-09-19T13:20:54Z</time>
      </trkpt>
      <trkpt lat="45.72145" lon="5.25097">
        <ele>243.2</ele>
        <time>2024-09-19T13:20:55Z</time>
      </trkpt>
      <trkpt lat="45.72146" lon="5.25089">
        <ele>242.8</ele>
        <time>2024-09-19T13:20:56Z</time>
      </trkpt>
      <trkpt lat="45.72145" lon="5.25082">
        <ele>242.6</ele>
        <time>2024-09-19T13:20:57Z</time>
      </trkpt>
      <trkpt lat="45.72146" lon="5.25073">
        <ele>242.4</ele>
        <time>2024-09-19T13:20:58Z</time>
      </trkpt>
      <trkpt lat="45.72147" lon="5.25063">
        <ele>242</ele>
        <time>2024-09-19T13:20:59Z</time>
      </trkpt>
      <trkpt lat="45.72148" lon="5.25053">
        <ele>242</ele>
        <time>2024-09-19T13:21:00Z</time>
      </trkpt>
      <trkpt lat="45.72149" lon="5.25044">
        <ele>241.4</ele>
        <time>2024-09-19T13:21:01Z</time>
      </trkpt>
      <trkpt lat="45.7215" lon="5.25034">
        <ele>241.2</ele>
        <time>2024-09-19T13:21:02Z</time>
      </trkpt>
      <trkpt lat="45.7215" lon="5.25025">
        <ele>240.8</ele>
        <time>2024-09-19T13:21:03Z</time>
      </trkpt>
      <trkpt lat="45.7215" lon="5.25014">
        <ele>240.6</ele>
        <time>2024-09-19T13:21:04Z</time>
      </trkpt>
      <trkpt lat="45.72151" lon="5.25003">
        <ele>240.6</ele>
        <time>2024-09-19T13:21:05Z</time>
      </trkpt>
      <trkpt lat="45.72151" lon="5.24992">
        <ele>240.2</ele>
        <time>2024-09-19T13:21:06Z</time>
      </trkpt>
      <trkpt lat="45.72151" lon="5.24981">
        <ele>240.2</ele>
        <time>2024-09-19T13:21:07Z</time>
      </trkpt>
      <trkpt lat="45.72151" lon="5.2497">
        <ele>239.6</ele>
        <time>2024-09-19T13:21:08Z</time>
      </trkpt>
      <trkpt lat="45.7215" lon="5.24958">
        <ele>239</ele>
        <time>2024-09-19T13:21:09Z</time>
      </trkpt>
      <trkpt lat="45.72147" lon="5.24947">
        <ele>238.6</ele>
        <time>2024-09-19T13:21:10Z</time>
      </trkpt>
      <trkpt lat="45.72146" lon="5.24937">
        <ele>238.2</ele>
        <time>2024-09-19T13:21:11Z</time>
      </trkpt>
      <trkpt lat="45.72146" lon="5.24926">
        <ele>238.2</ele>
        <time>2024-09-19T13:21:12Z</time>
      </trkpt>
      <trkpt lat="45.72147" lon="5.24916">
        <ele>237.8</ele>
        <time>2024-09-19T13:21:13Z</time>
      </trkpt>
      <trkpt lat="45.72148" lon="5.24904">
        <ele>237.8</ele>
        <time>2024-09-19T13:21:14Z</time>
      </trkpt>
      <trkpt lat="45.72149" lon="5.24892">
        <ele>237.4</ele>
        <time>2024-09-19T13:21:15Z</time>
      </trkpt>
      <trkpt lat="45.72149" lon="5.2488">
        <ele>237</ele>
        <time>2024-09-19T13:21:16Z</time>
      </trkpt>
      <trkpt lat="45.72149" lon="5.24869">
        <ele>236.8</ele>
        <time>2024-09-19T13:21:17Z</time>
      </trkpt>
      <trkpt lat="45.7215" lon="5.24859">
        <ele>236.8</ele>
        <time>2024-09-19T13:21:18Z</time>
      </trkpt>
      <trkpt lat="45.7215" lon="5.24848">
        <ele>236.4</ele>
        <time>2024-09-19T13:21:19Z</time>
      </trkpt>
      <trkpt lat="45.72151" lon="5.24839">
        <ele>236.4</ele>
        <time>2024-09-19T13:21:20Z</time>
      </trkpt>
      <trkpt lat="45.72151" lon="5.24831">
        <ele>236.4</ele>
        <time>2024-09-19T13:21:21Z</time>
      </trkpt>
      <trkpt lat="45.72151" lon="5.24824">
        <ele>236.4</ele>
        <time>2024-09-19T13:21:22Z</time>
      </trkpt>
      <trkpt lat="45.72151" lon="5.24817">
        <ele>236.4</ele>
        <time>2024-09-19T13:21:23Z</time>
        <extensions>
          <visugpx:TrkExtension xmlns:visugpx="https://www.visugpx.com/editgpx/">
            <visugpx:node>19</visugpx:node>
            </visugpx:TrkExtension>
        </extensions>
      </trkpt>
      <trkpt lat="45.72149" lon="5.24806">
        <ele>216</ele>
      </trkpt>
      <trkpt lat="45.72153" lon="5.248">
        <ele>216</ele>
      </trkpt>
      <trkpt lat="45.72157" lon="5.24796">
        <ele>216</ele>
      </trkpt>
      <trkpt lat="45.72164" lon="5.24794">
        <ele>216</ele>
      </trkpt>
      <trkpt lat="45.72165" lon="5.24783">
        <ele>216</ele>
      </trkpt>
      <trkpt lat="45.72151" lon="5.24774">
        <ele>215.9</ele>
      </trkpt>
      <trkpt lat="45.72142" lon="5.24767">
        <ele>215.7</ele>
      </trkpt>
      <trkpt lat="45.72128" lon="5.24756">
        <ele>215.3</ele>
      </trkpt>
      <trkpt lat="45.72093" lon="5.24757">
        <ele>216.3</ele>
      </trkpt>
      <trkpt lat="45.7206" lon="5.24748">
        <ele>216.7</ele>
      </trkpt>
      <trkpt lat="45.72024" lon="5.2473">
        <ele>216.6</ele>
        <extensions>
          <visugpx:TrkExtension xmlns:visugpx="https://www.visugpx.com/editgpx/">
            <visugpx:node>1</visugpx:node>
            </visugpx:TrkExtension>
        </extensions>
      </trkpt>
      <trkpt lat="45.7198" lon="5.24708">
        <ele>216.5</ele>
      </trkpt>
      <trkpt lat="45.71931" lon="5.24701">
        <ele>216.4</ele>
      </trkpt>
      <trkpt lat="45.71899" lon="5.24685">
        <ele>216.9</ele>
      </trkpt>
      <trkpt lat="45.71863" lon="5.24648">
        <ele>216.5</ele>
      </trkpt>
      <trkpt lat="45.71833" lon="5.24632">
        <ele>216</ele>
      </trkpt>
      <trkpt lat="45.71819" lon="5.24631">
        <ele>216.2</ele>
      </trkpt>
      <trkpt lat="45.71778" lon="5.24634">
        <ele>216.5</ele>
      </trkpt>
      <trkpt lat="45.7175" lon="5.24637">
        <ele>216.8</ele>
      </trkpt>
      <trkpt lat="45.71709" lon="5.24634">
        <ele>216.8</ele>
        <extensions>
          <visugpx:TrkExtension xmlns:visugpx="https://www.visugpx.com/editgpx/">
            <visugpx:node>2</visugpx:node>
            </visugpx:TrkExtension>
        </extensions>
      </trkpt>
      <trkpt lat="45.71666" lon="5.2463">
        <ele>216.7</ele>
      </trkpt>
      <trkpt lat="45.71645" lon="5.24626">
        <ele>217</ele>
      </trkpt>
      <trkpt lat="45.71607" lon="5.24626">
        <ele>217.6</ele>
      </trkpt>
      <trkpt lat="45.71585" lon="5.24621">
        <ele>217.1</ele>
      </trkpt>
      <trkpt lat="45.71574" lon="5.24615">
        <ele>218.1</ele>
      </trkpt>
      <trkpt lat="45.71554" lon="5.24598">
        <ele>218.3</ele>
      </trkpt>
      <trkpt lat="45.71527" lon="5.24567">
        <ele>217.9</ele>
      </trkpt>
      <trkpt lat="45.71504" lon="5.24531">
        <ele>218.7</ele>
      </trkpt>
      <trkpt lat="45.71495" lon="5.24519">
        <ele>218.5</ele>
      </trkpt>
      <trkpt lat="45.71405" lon="5.24428">
        <ele>220</ele>
      </trkpt>
      <trkpt lat="45.7133" lon="5.24376">
        <ele>221</ele>
      </trkpt>
      <trkpt lat="45.71317" lon="5.24369">
        <ele>221.4</ele>
      </trkpt>
      <trkpt lat="45.71307" lon="5.24366">
        <ele>221.8</ele>
      </trkpt>
      <trkpt lat="45.71281" lon="5.24363">
        <ele>222.1</ele>
      </trkpt>
      <trkpt lat="45.71269" lon="5.2434">
        <ele>220.3</ele>
      </trkpt>
      <trkpt lat="45.71263" lon="5.2433">
        <ele>219.9</ele>
        <extensions>
          <visugpx:TrkExtension xmlns:visugpx="https://www.visugpx.com/editgpx/">
            <visugpx:node>3</visugpx:node>
            </visugpx:TrkExtension>
        </extensions>
      </trkpt>
      <trkpt lat="45.7124" lon="5.2429">
        <ele>218.7</ele>
      </trkpt>
      <trkpt lat="45.71229" lon="5.24268">
        <ele>217.9</ele>
      </trkpt>
      <trkpt lat="45.71224" lon="5.2425">
        <ele>217.9</ele>
      </trkpt>
      <trkpt lat="45.71221" lon="5.24228">
        <ele>218</ele>
      </trkpt>
      <trkpt lat="45.71215" lon="5.24207">
        <ele>217.6</ele>
      </trkpt>
      <trkpt lat="45.7119" lon="5.24161">
        <ele>219</ele>
      </trkpt>
      <trkpt lat="45.71179" lon="5.24146">
        <ele>219.4</ele>
      </trkpt>
      <trkpt lat="45.71146" lon="5.24111">
        <ele>222.8</ele>
      </trkpt>
      <trkpt lat="45.71099" lon="5.24076">
        <ele>227.3</ele>
      </trkpt>
      <trkpt lat="45.71103" lon="5.24062">
        <ele>228.8</ele>
      </trkpt>
      <trkpt lat="45.71102" lon="5.24041">
        <ele>230.5</ele>
      </trkpt>
      <trkpt lat="45.71081" lon="5.23952">
        <ele>233.8</ele>
      </trkpt>
      <trkpt lat="45.7108" lon="5.23933">
        <ele>234.6</ele>
      </trkpt>
      <trkpt lat="45.71082" lon="5.23927">
        <ele>234.7</ele>
      </trkpt>
      <trkpt lat="45.71094" lon="5.23919">
        <ele>234.5</ele>
        <extensions>
          <visugpx:TrkExtension xmlns:visugpx="https://www.visugpx.com/editgpx/">
            <visugpx:node>4</visugpx:node>
            </visugpx:TrkExtension>
        </extensions>
      </trkpt>
      <trkpt lat="45.711" lon="5.23915">
        <ele>234.6</ele>
      </trkpt>
      <trkpt lat="45.71126" lon="5.23907">
        <ele>234.2</ele>
      </trkpt>
      <trkpt lat="45.71144" lon="5.23885">
        <ele>236</ele>
      </trkpt>
      <trkpt lat="45.71234" lon="5.23806">
        <ele>240.1</ele>
      </trkpt>
      <trkpt lat="45.71239" lon="5.23794">
        <ele>240.8</ele>
      </trkpt>
      <trkpt lat="45.7128" lon="5.23737">
        <ele>240.7</ele>
      </trkpt>
      <trkpt lat="45.71317" lon="5.23645">
        <ele>239.7</ele>
      </trkpt>
      <trkpt lat="45.71351" lon="5.23555">
        <ele>239.9</ele>
      </trkpt>
      <trkpt lat="45.7136" lon="5.23534">
        <ele>239.8</ele>
      </trkpt>
      <trkpt lat="45.71503" lon="5.23601">
        <ele>235.3</ele>
      </trkpt>
      <trkpt lat="45.7153" lon="5.23613">
        <ele>234.9</ele>
      </trkpt>
      <trkpt lat="45.71548" lon="5.2362">
        <ele>234.3</ele>
        <extensions>
          <visugpx:TrkExtension xmlns:visugpx="https://www.visugpx.com/editgpx/">
            <visugpx:node>5</visugpx:node>
            </visugpx:TrkExtension>
        </extensions>
      </trkpt>
    </trkseg>
  </trk>
</gpx>